﻿<?xml version="1.0" encoding="utf-8"?><gpx creator="Garmin Desktop App" version="1.1" xsi:schemaLocation="http://www.topografix.com/GPX/1/1 http://www.topografix.com/GPX/1/1/gpx.xsd http://www.garmin.com/xmlschemas/WaypointExtension/v1 http://www8.garmin.com/xmlschemas/WaypointExtensionv1.xsd http://www.garmin.com/xmlschemas/TrackPointExtension/v1 http://www.garmin.com/xmlschemas/TrackPointExtensionv1.xsd http://www.garmin.com/xmlschemas/GpxExtensions/v3 http://www8.garmin.com/xmlschemas/GpxExtensionsv3.xsd http://www.garmin.com/xmlschemas/ActivityExtension/v1 http://www8.garmin.com/xmlschemas/ActivityExtensionv1.xsd http://www.garmin.com/xmlschemas/AdventuresExtensions/v1 http://www8.garmin.com/xmlschemas/AdventuresExtensionv1.xsd http://www.garmin.com/xmlschemas/PressureExtension/v1 http://www.garmin.com/xmlschemas/PressureExtensionv1.xsd http://www.garmin.com/xmlschemas/TripExtensions/v1 http://www.garmin.com/xmlschemas/TripExtensionsv1.xsd http://www.garmin.com/xmlschemas/TripMetaDataExtensions/v1 http://www.garmin.com/xmlschemas/TripMetaDataExtensionsv1.xsd http://www.garmin.com/xmlschemas/ViaPointTransportationModeExtensions/v1 http://www.garmin.com/xmlschemas/ViaPointTransportationModeExtensionsv1.xsd http://www.garmin.com/xmlschemas/CreationTimeExtension/v1 http://www.garmin.com/xmlschemas/CreationTimeExtensionsv1.xsd http://www.garmin.com/xmlschemas/AccelerationExtension/v1 http://www.garmin.com/xmlschemas/AccelerationExtensionv1.xsd http://www.garmin.com/xmlschemas/PowerExtension/v1 http://www.garmin.com/xmlschemas/PowerExtensionv1.xsd http://www.garmin.com/xmlschemas/VideoExtension/v1 http://www.garmin.com/xmlschemas/VideoExtensionv1.xsd" xmlns="http://www.topografix.com/GPX/1/1" xmlns:xsi="http://www.w3.org/2001/XMLSchema-instance" xmlns:wptx1="http://www.garmin.com/xmlschemas/WaypointExtension/v1" xmlns:gpxtrx="http://www.garmin.com/xmlschemas/GpxExtensions/v3" xmlns:gpxtpx="http://www.garmin.com/xmlschemas/TrackPointExtension/v1" xmlns:gpxx="http://www.garmin.com/xmlschemas/GpxExtensions/v3" xmlns:trp="http://www.garmin.com/xmlschemas/TripExtensions/v1" xmlns:adv="http://www.garmin.com/xmlschemas/AdventuresExtensions/v1" xmlns:prs="http://www.garmin.com/xmlschemas/PressureExtension/v1" xmlns:tmd="http://www.garmin.com/xmlschemas/TripMetaDataExtensions/v1" xmlns:vptm="http://www.garmin.com/xmlschemas/ViaPointTransportationModeExtensions/v1" xmlns:ctx="http://www.garmin.com/xmlschemas/CreationTimeExtension/v1" xmlns:gpxacc="http://www.garmin.com/xmlschemas/AccelerationExtension/v1" xmlns:gpxpx="http://www.garmin.com/xmlschemas/PowerExtension/v1" xmlns:vidx1="http://www.garmin.com/xmlschemas/VideoExtension/v1">

  <metadata>
    <link href="http://www.garmin.com">
      <text>Garmin International</text>
    </link>
    <time>2023-08-17T20:15:16Z</time>
    <bounds maxlat="56.732446001842618" maxlon="-2.428845958784223" minlat="55.474713016301394" minlon="-3.423163974657655" />
  </metadata>

  <trk>
    <name>Track vom: 2023-08-17 09:00</name>
    <extensions>
      <gpxx:TrackExtension>
        <gpxx:DisplayColor>DarkGray</gpxx:DisplayColor>
      </gpxx:TrackExtension>
    </extensions>
    <trkseg>
      <trkpt lat="55.479393973946571" lon="-2.554274015128613">
        <ele>74.159999999999997</ele>
        <time>2023-08-17T08:00:59Z</time>
      </trkpt>
      <trkpt lat="55.479379976168275" lon="-2.5542470254004">
        <ele>81.849999999999994</ele>
        <time>2023-08-17T08:01:20Z</time>
      </trkpt>
      <trkpt lat="55.47936799004674" lon="-2.554288012906909">
        <ele>87.620000000000005</ele>
        <time>2023-08-17T08:02:05Z</time>
      </trkpt>
      <trkpt lat="55.479376958683133" lon="-2.554250964894891">
        <ele>87.620000000000005</ele>
        <time>2023-08-17T08:02:49Z</time>
      </trkpt>
      <trkpt lat="55.479382993653417" lon="-2.55424601957202">
        <ele>88.099999999999994</ele>
        <time>2023-08-17T08:03:37Z</time>
      </trkpt>
      <trkpt lat="55.479382993653417" lon="-2.554241996258497">
        <ele>88.099999999999994</ele>
        <time>2023-08-17T08:04:25Z</time>
      </trkpt>
      <trkpt lat="55.479383999481797" lon="-2.55424995906651">
        <ele>87.620000000000005</ele>
        <time>2023-08-17T08:05:11Z</time>
      </trkpt>
      <trkpt lat="55.479390034452081" lon="-2.554264962673187">
        <ele>87.140000000000001</ele>
        <time>2023-08-17T08:06:04Z</time>
      </trkpt>
      <trkpt lat="55.479390034452081" lon="-2.554264962673187">
        <ele>87.140000000000001</ele>
        <time>2023-08-17T08:06:24Z</time>
      </trkpt>
      <trkpt lat="55.479194987565279" lon="-2.553849974647164">
        <ele>79.930000000000007</ele>
        <time>2023-08-17T08:06:31Z</time>
      </trkpt>
      <trkpt lat="55.4791300278157" lon="-2.553701028227806">
        <ele>78.480000000000004</ele>
        <time>2023-08-17T08:06:33Z</time>
      </trkpt>
      <trkpt lat="55.47908702865243" lon="-2.553602959960699">
        <ele>76.079999999999998</ele>
        <time>2023-08-17T08:06:40Z</time>
      </trkpt>
      <trkpt lat="55.479056015610695" lon="-2.553427023813129">
        <ele>73.200000000000003</ele>
        <time>2023-08-17T08:06:44Z</time>
      </trkpt>
      <trkpt lat="55.479092979803681" lon="-2.553382012993097">
        <ele>72.719999999999999</ele>
        <time>2023-08-17T08:06:45Z</time>
      </trkpt>
      <trkpt lat="55.479138996452093" lon="-2.55332401022315">
        <ele>71.760000000000005</ele>
        <time>2023-08-17T08:06:46Z</time>
      </trkpt>
      <trkpt lat="55.479191970080137" lon="-2.553257960826159">
        <ele>71.269999999999996</ele>
        <time>2023-08-17T08:06:47Z</time>
      </trkpt>
      <trkpt lat="55.479251984506845" lon="-2.553185038268566">
        <ele>70.790000000000006</ele>
        <time>2023-08-17T08:06:48Z</time>
      </trkpt>
      <trkpt lat="55.479317028075457" lon="-2.553104991093278">
        <ele>69.829999999999998</ele>
        <time>2023-08-17T08:06:49Z</time>
      </trkpt>
      <trkpt lat="55.479385005310178" lon="-2.553019998595119">
        <ele>69.349999999999994</ele>
        <time>2023-08-17T08:06:50Z</time>
      </trkpt>
      <trkpt lat="55.479456000030041" lon="-2.552932994440198">
        <ele>68.870000000000005</ele>
        <time>2023-08-17T08:06:51Z</time>
      </trkpt>
      <trkpt lat="55.47952095977962" lon="-2.552853031083942">
        <ele>67.909999999999997</ele>
        <time>2023-08-17T08:06:52Z</time>
      </trkpt>
      <trkpt lat="55.47966999001801" lon="-2.552668964490295">
        <ele>66.950000000000003</ele>
        <time>2023-08-17T08:06:55Z</time>
      </trkpt>
      <trkpt lat="55.479664038866758" lon="-2.552624959498644">
        <ele>66.469999999999999</ele>
        <time>2023-08-17T08:06:56Z</time>
      </trkpt>
      <trkpt lat="55.479655992239714" lon="-2.552567962557077">
        <ele>65.989999999999995</ele>
        <time>2023-08-17T08:06:57Z</time>
      </trkpt>
      <trkpt lat="55.47960301861167" lon="-2.552472995594144">
        <ele>65.510000000000005</ele>
        <time>2023-08-17T08:06:58Z</time>
      </trkpt>
      <trkpt lat="55.479570999741554" lon="-2.552440976724029">
        <ele>65.030000000000001</ele>
        <time>2023-08-17T08:06:59Z</time>
      </trkpt>
      <trkpt lat="55.479498999193311" lon="-2.552402000874281">
        <ele>64.549999999999997</ele>
        <time>2023-08-17T08:07:00Z</time>
      </trkpt>
      <trkpt lat="55.47945499420166" lon="-2.552427984774113">
        <ele>64.549999999999997</ele>
        <time>2023-08-17T08:07:01Z</time>
      </trkpt>
      <trkpt lat="55.479396991431713" lon="-2.552462015300989">
        <ele>64.069999999999993</ele>
        <time>2023-08-17T08:07:02Z</time>
      </trkpt>
      <trkpt lat="55.479321973398328" lon="-2.552505014464259">
        <ele>63.579999999999998</ele>
        <time>2023-08-17T08:07:03Z</time>
      </trkpt>
      <trkpt lat="55.479255001991987" lon="-2.552544996142387">
        <ele>63.100000000000001</ele>
        <time>2023-08-17T08:07:04Z</time>
      </trkpt>
      <trkpt lat="55.479193981736898" lon="-2.552580032497644">
        <ele>63.100000000000001</ele>
        <time>2023-08-17T08:07:05Z</time>
      </trkpt>
      <trkpt lat="55.479119969531894" lon="-2.552623031660914">
        <ele>62.619999999999997</ele>
        <time>2023-08-17T08:07:06Z</time>
      </trkpt>
      <trkpt lat="55.479049980640411" lon="-2.552664019167423">
        <ele>62.619999999999997</ele>
        <time>2023-08-17T08:07:07Z</time>
      </trkpt>
      <trkpt lat="55.478978985920548" lon="-2.552705006673932">
        <ele>62.140000000000001</ele>
        <time>2023-08-17T08:07:08Z</time>
      </trkpt>
      <trkpt lat="55.478747980669141" lon="-2.552840961143374">
        <ele>61.659999999999997</ele>
        <time>2023-08-17T08:07:10Z</time>
      </trkpt>
      <trkpt lat="55.478747980669141" lon="-2.552840961143374">
        <ele>61.659999999999997</ele>
        <time>2023-08-17T08:07:11Z</time>
      </trkpt>
      <trkpt lat="55.478700958192348" lon="-2.552879014983773">
        <ele>61.659999999999997</ele>
        <time>2023-08-17T08:07:12Z</time>
      </trkpt>
      <trkpt lat="55.478321006521583" lon="-2.553157964721322">
        <ele>62.140000000000001</ele>
        <time>2023-08-17T08:07:18Z</time>
      </trkpt>
      <trkpt lat="55.478258980438113" lon="-2.55317497998476">
        <ele>62.140000000000001</ele>
        <time>2023-08-17T08:07:19Z</time>
      </trkpt>
      <trkpt lat="55.478196032345295" lon="-2.553191995248199">
        <ele>62.140000000000001</ele>
        <time>2023-08-17T08:07:20Z</time>
      </trkpt>
      <trkpt lat="55.478134006261826" lon="-2.553203981369734">
        <ele>62.140000000000001</ele>
        <time>2023-08-17T08:07:21Z</time>
      </trkpt>
      <trkpt lat="55.478070974349976" lon="-2.553196018561721">
        <ele>62.140000000000001</ele>
        <time>2023-08-17T08:07:22Z</time>
      </trkpt>
      <trkpt lat="55.478008026257157" lon="-2.553187971934676">
        <ele>62.140000000000001</ele>
        <time>2023-08-17T08:07:23Z</time>
      </trkpt>
      <trkpt lat="55.477646011859179" lon="-2.553142961114645">
        <ele>62.140000000000001</ele>
        <time>2023-08-17T08:07:31Z</time>
      </trkpt>
      <trkpt lat="55.477632014080882" lon="-2.553263995796442">
        <ele>62.140000000000001</ele>
        <time>2023-08-17T08:07:32Z</time>
      </trkpt>
      <trkpt lat="55.477632014080882" lon="-2.553357034921646">
        <ele>61.659999999999997</ele>
        <time>2023-08-17T08:07:33Z</time>
      </trkpt>
      <trkpt lat="55.477632014080882" lon="-2.553460970520973">
        <ele>61.659999999999997</ele>
        <time>2023-08-17T08:07:34Z</time>
      </trkpt>
      <trkpt lat="55.477632014080882" lon="-2.553564989939332">
        <ele>61.659999999999997</ele>
        <time>2023-08-17T08:07:35Z</time>
      </trkpt>
      <trkpt lat="55.477632014080882" lon="-2.553674960508943">
        <ele>61.659999999999997</ele>
        <time>2023-08-17T08:07:36Z</time>
      </trkpt>
      <trkpt lat="55.477638971060514" lon="-2.554283989593387">
        <ele>61.18</ele>
        <time>2023-08-17T08:07:41Z</time>
      </trkpt>
      <trkpt lat="55.477640982717276" lon="-2.554393038153648">
        <ele>61.18</ele>
        <time>2023-08-17T08:07:42Z</time>
      </trkpt>
      <trkpt lat="55.477652968838811" lon="-2.554965019226074">
        <ele>61.659999999999997</ele>
        <time>2023-08-17T08:07:48Z</time>
      </trkpt>
      <trkpt lat="55.477679036557674" lon="-2.555095022544265">
        <ele>62.140000000000001</ele>
        <time>2023-08-17T08:07:49Z</time>
      </trkpt>
      <trkpt lat="55.477718012407422" lon="-2.555286968126893">
        <ele>64.549999999999997</ele>
        <time>2023-08-17T08:07:53Z</time>
      </trkpt>
      <trkpt lat="55.477678030729294" lon="-2.55553599447012">
        <ele>65.510000000000005</ele>
        <time>2023-08-17T08:07:54Z</time>
      </trkpt>
      <trkpt lat="55.477637965232134" lon="-2.555591985583305">
        <ele>65.989999999999995</ele>
        <time>2023-08-17T08:07:55Z</time>
      </trkpt>
      <trkpt lat="55.477525983005762" lon="-2.555715031921864">
        <ele>66.950000000000003</ele>
        <time>2023-08-17T08:07:57Z</time>
      </trkpt>
      <trkpt lat="55.477462029084563" lon="-2.555777980014682">
        <ele>67.430000000000007</ele>
        <time>2023-08-17T08:07:58Z</time>
      </trkpt>
      <trkpt lat="55.477224988862872" lon="-2.55603002384305">
        <ele>69.349999999999994</ele>
        <time>2023-08-17T08:08:02Z</time>
      </trkpt>
      <trkpt lat="55.477170003578067" lon="-2.556091966107488">
        <ele>69.829999999999998</ele>
        <time>2023-08-17T08:08:03Z</time>
      </trkpt>
      <trkpt lat="55.4771130066365" lon="-2.556157009676099">
        <ele>70.310000000000002</ele>
        <time>2023-08-17T08:08:04Z</time>
      </trkpt>
      <trkpt lat="55.476989960297942" lon="-2.556296987459064">
        <ele>71.269999999999996</ele>
        <time>2023-08-17T08:08:06Z</time>
      </trkpt>
      <trkpt lat="55.476929023861885" lon="-2.556365970522165">
        <ele>71.760000000000005</ele>
        <time>2023-08-17T08:08:07Z</time>
      </trkpt>
      <trkpt lat="55.476859034970403" lon="-2.556446017697454">
        <ele>72.719999999999999</ele>
        <time>2023-08-17T08:08:08Z</time>
      </trkpt>
      <trkpt lat="55.476803965866566" lon="-2.556508965790272">
        <ele>73.200000000000003</ele>
        <time>2023-08-17T08:08:09Z</time>
      </trkpt>
      <trkpt lat="55.476746968924999" lon="-2.556575015187264">
        <ele>73.680000000000007</ele>
        <time>2023-08-17T08:08:10Z</time>
      </trkpt>
      <trkpt lat="55.476687960326672" lon="-2.556642992421985">
        <ele>74.159999999999997</ele>
        <time>2023-08-17T08:08:11Z</time>
      </trkpt>
      <trkpt lat="55.476627023890615" lon="-2.556712981313467">
        <ele>74.640000000000001</ele>
        <time>2023-08-17T08:08:12Z</time>
      </trkpt>
      <trkpt lat="55.475917998701334" lon="-2.557477997615933">
        <ele>80.890000000000001</ele>
        <time>2023-08-17T08:08:24Z</time>
      </trkpt>
      <trkpt lat="55.475229006260633" lon="-2.558212000876665">
        <ele>91.459999999999994</ele>
        <time>2023-08-17T08:08:36Z</time>
      </trkpt>
      <trkpt lat="55.475099002942443" lon="-2.558350972831249">
        <ele>95.790000000000006</ele>
        <time>2023-08-17T08:08:39Z</time>
      </trkpt>
      <trkpt lat="55.474842013791203" lon="-2.558440994471312">
        <ele>106.84</ele>
        <time>2023-08-17T08:08:48Z</time>
      </trkpt>
      <trkpt lat="55.474842013791203" lon="-2.558440994471312">
        <ele>108.29000000000001</ele>
        <time>2023-08-17T08:09:00Z</time>
      </trkpt>
      <trkpt lat="55.474803959950805" lon="-2.558402018621564">
        <ele>109.25</ele>
        <time>2023-08-17T08:09:14Z</time>
      </trkpt>
      <trkpt lat="55.474778981879354" lon="-2.558377962559462">
        <ele>110.20999999999999</ele>
        <time>2023-08-17T08:09:15Z</time>
      </trkpt>
      <trkpt lat="55.47474998049438" lon="-2.558348961174488">
        <ele>110.69</ele>
        <time>2023-08-17T08:09:16Z</time>
      </trkpt>
      <trkpt lat="55.47472701407969" lon="-2.558325994759798">
        <ele>111.65000000000001</ele>
        <time>2023-08-17T08:09:17Z</time>
      </trkpt>
      <trkpt lat="55.474713016301394" lon="-2.558311996981502">
        <ele>111.65000000000001</ele>
        <time>2023-08-17T08:09:18Z</time>
      </trkpt>
      <trkpt lat="55.474713016301394" lon="-2.558311996981502">
        <ele>112.61</ele>
        <time>2023-08-17T08:09:22Z</time>
      </trkpt>
      <trkpt lat="55.474713016301394" lon="-2.558311996981502">
        <ele>112.61</ele>
        <time>2023-08-17T08:09:23Z</time>
      </trkpt>
      <trkpt lat="55.474713016301394" lon="-2.558311996981502">
        <ele>113.09</ele>
        <time>2023-08-17T08:09:24Z</time>
      </trkpt>
      <trkpt lat="55.474842013791203" lon="-2.558440994471312">
        <ele>113.09</ele>
        <time>2023-08-17T08:09:25Z</time>
      </trkpt>
      <trkpt lat="55.474842013791203" lon="-2.558440994471312">
        <ele>113.09</ele>
        <time>2023-08-17T08:09:26Z</time>
      </trkpt>
      <trkpt lat="55.474842013791203" lon="-2.558440994471312">
        <ele>113.09</ele>
        <time>2023-08-17T08:09:27Z</time>
      </trkpt>
      <trkpt lat="55.474842013791203" lon="-2.558440994471312">
        <ele>113.09</ele>
        <time>2023-08-17T08:09:28Z</time>
      </trkpt>
      <trkpt lat="55.474771019071341" lon="-2.558369999751449">
        <ele>112.13</ele>
        <time>2023-08-17T08:09:45Z</time>
      </trkpt>
      <trkpt lat="55.474771019071341" lon="-2.558369999751449">
        <ele>112.13</ele>
        <time>2023-08-17T08:09:52Z</time>
      </trkpt>
      <trkpt lat="55.474923988804221" lon="-2.558583989739418">
        <ele>111.17</ele>
        <time>2023-08-17T08:09:58Z</time>
      </trkpt>
      <trkpt lat="55.474923988804221" lon="-2.558583989739418">
        <ele>111.17</ele>
        <time>2023-08-17T08:10:13Z</time>
      </trkpt>
      <trkpt lat="55.474923988804221" lon="-2.558583989739418">
        <ele>111.17</ele>
        <time>2023-08-17T08:10:50Z</time>
      </trkpt>
      <trkpt lat="55.474923988804221" lon="-2.558583989739418">
        <ele>111.17</ele>
        <time>2023-08-17T08:11:18Z</time>
      </trkpt>
      <trkpt lat="55.474923988804221" lon="-2.558583989739418">
        <ele>110.69</ele>
        <time>2023-08-17T08:11:58Z</time>
      </trkpt>
      <trkpt lat="55.474923988804221" lon="-2.558583989739418">
        <ele>110.69</ele>
        <time>2023-08-17T08:12:28Z</time>
      </trkpt>
      <trkpt lat="55.474924994632602" lon="-2.558597987517715">
        <ele>110.20999999999999</ele>
        <time>2023-08-17T08:12:34Z</time>
      </trkpt>
      <trkpt lat="55.474945027381182" lon="-2.558563034981489">
        <ele>110.20999999999999</ele>
        <time>2023-08-17T08:12:35Z</time>
      </trkpt>
      <trkpt lat="55.475094979628921" lon="-2.558354996144772">
        <ele>108.77</ele>
        <time>2023-08-17T08:12:45Z</time>
      </trkpt>
      <trkpt lat="55.47522003762424" lon="-2.558221975341439">
        <ele>107.81</ele>
        <time>2023-08-17T08:12:56Z</time>
      </trkpt>
      <trkpt lat="55.475268987938762" lon="-2.558170007541776">
        <ele>107.81</ele>
        <time>2023-08-17T08:12:57Z</time>
      </trkpt>
      <trkpt lat="55.475917998701334" lon="-2.557476991787553">
        <ele>104.92</ele>
        <time>2023-08-17T08:13:09Z</time>
      </trkpt>
      <trkpt lat="55.476201977580786" lon="-2.557172980159521">
        <ele>103.48</ele>
        <time>2023-08-17T08:13:14Z</time>
      </trkpt>
      <trkpt lat="55.476270038634539" lon="-2.557099973782897">
        <ele>103.48</ele>
        <time>2023-08-17T08:13:15Z</time>
      </trkpt>
      <trkpt lat="55.476401969790459" lon="-2.556957984343171">
        <ele>103</ele>
        <time>2023-08-17T08:13:17Z</time>
      </trkpt>
      <trkpt lat="55.476616965606809" lon="-2.556725973263383">
        <ele>101.56</ele>
        <time>2023-08-17T08:13:20Z</time>
      </trkpt>
      <trkpt lat="55.476868003606796" lon="-2.556435959413648">
        <ele>99.629999999999995</ele>
        <time>2023-08-17T08:13:24Z</time>
      </trkpt>
      <trkpt lat="55.476926006376743" lon="-2.556369993835688">
        <ele>99.150000000000006</ele>
        <time>2023-08-17T08:13:25Z</time>
      </trkpt>
      <trkpt lat="55.477157011628151" lon="-2.556107975542545">
        <ele>96.75</ele>
        <time>2023-08-17T08:13:29Z</time>
      </trkpt>
      <trkpt lat="55.477781966328621" lon="-2.555394005030394">
        <ele>90.019999999999996</ele>
        <time>2023-08-17T08:13:40Z</time>
      </trkpt>
      <trkpt lat="55.477981036528945" lon="-2.555140033364296">
        <ele>87.620000000000005</ele>
        <time>2023-08-17T08:13:44Z</time>
      </trkpt>
      <trkpt lat="55.478038033470511" lon="-2.555068032816052">
        <ele>87.140000000000001</ele>
        <time>2023-08-17T08:13:45Z</time>
      </trkpt>
      <trkpt lat="55.478265015408397" lon="-2.554736025631428">
        <ele>85.209999999999994</ele>
        <time>2023-08-17T08:13:49Z</time>
      </trkpt>
      <trkpt lat="55.478654019534588" lon="-2.55407402291894">
        <ele>83.290000000000006</ele>
        <time>2023-08-17T08:13:56Z</time>
      </trkpt>
      <trkpt lat="55.479159029200673" lon="-2.553299032151699">
        <ele>82.329999999999998</ele>
        <time>2023-08-17T08:14:05Z</time>
      </trkpt>
      <trkpt lat="55.479414006695151" lon="-2.552984962239862">
        <ele>80.890000000000001</ele>
        <time>2023-08-17T08:14:09Z</time>
      </trkpt>
      <trkpt lat="55.479548033326864" lon="-2.552821012213826">
        <ele>79.930000000000007</ele>
        <time>2023-08-17T08:14:11Z</time>
      </trkpt>
      <trkpt lat="55.479619028046727" lon="-2.552733002230525">
        <ele>79.450000000000003</ele>
        <time>2023-08-17T08:14:12Z</time>
      </trkpt>
      <trkpt lat="55.479688011109829" lon="-2.552624959498644">
        <ele>78.480000000000004</ele>
        <time>2023-08-17T08:14:13Z</time>
      </trkpt>
      <trkpt lat="55.479739978909492" lon="-2.552495962008834">
        <ele>78</ele>
        <time>2023-08-17T08:14:14Z</time>
      </trkpt>
      <trkpt lat="55.479789013043046" lon="-2.552371993660927">
        <ele>77.519999999999996</ele>
        <time>2023-08-17T08:14:15Z</time>
      </trkpt>
      <trkpt lat="55.479810973629355" lon="-2.552231010049582">
        <ele>77.040000000000006</ele>
        <time>2023-08-17T08:14:16Z</time>
      </trkpt>
      <trkpt lat="55.479824971407652" lon="-2.552102012559772">
        <ele>76.560000000000002</ele>
        <time>2023-08-17T08:14:17Z</time>
      </trkpt>
      <trkpt lat="55.479836035519838" lon="-2.551991958171129">
        <ele>76.560000000000002</ele>
        <time>2023-08-17T08:14:18Z</time>
      </trkpt>
      <trkpt lat="55.47984198667109" lon="-2.551939990371466">
        <ele>76.079999999999998</ele>
        <time>2023-08-17T08:14:19Z</time>
      </trkpt>
      <trkpt lat="55.479813991114497" lon="-2.551781991496682">
        <ele>75.599999999999994</ele>
        <time>2023-08-17T08:14:26Z</time>
      </trkpt>
      <trkpt lat="55.479814996942878" lon="-2.551400028169155">
        <ele>75.120000000000005</ele>
        <time>2023-08-17T08:14:31Z</time>
      </trkpt>
      <trkpt lat="55.479856990277767" lon="-2.551367003470659">
        <ele>75.120000000000005</ele>
        <time>2023-08-17T08:14:32Z</time>
      </trkpt>
      <trkpt lat="55.479913987219334" lon="-2.551322998479009">
        <ele>74.640000000000001</ele>
        <time>2023-08-17T08:14:33Z</time>
      </trkpt>
      <trkpt lat="55.480566015467048" lon="-2.550796028226614">
        <ele>74.640000000000001</ele>
        <time>2023-08-17T08:14:43Z</time>
      </trkpt>
      <trkpt lat="55.481562959030271" lon="-2.549872007220984">
        <ele>72.239999999999995</ele>
        <time>2023-08-17T08:14:57Z</time>
      </trkpt>
      <trkpt lat="55.482599968090653" lon="-2.548945974558592">
        <ele>70.310000000000002</ele>
        <time>2023-08-17T08:15:10Z</time>
      </trkpt>
      <trkpt lat="55.483333971351385" lon="-2.548152040690184">
        <ele>70.310000000000002</ele>
        <time>2023-08-17T08:15:20Z</time>
      </trkpt>
      <trkpt lat="55.484005026519299" lon="-2.546887965872884">
        <ele>72.719999999999999</ele>
        <time>2023-08-17T08:15:30Z</time>
      </trkpt>
      <trkpt lat="55.484580025076866" lon="-2.54556798376143">
        <ele>71.269999999999996</ele>
        <time>2023-08-17T08:15:41Z</time>
      </trkpt>
      <trkpt lat="55.484870038926601" lon="-2.545262966305018">
        <ele>70.790000000000006</ele>
        <time>2023-08-17T08:15:46Z</time>
      </trkpt>
      <trkpt lat="55.484942039474845" lon="-2.54520202986896">
        <ele>70.790000000000006</ele>
        <time>2023-08-17T08:15:47Z</time>
      </trkpt>
      <trkpt lat="55.485020997002721" lon="-2.545152995735407">
        <ele>70.790000000000006</ele>
        <time>2023-08-17T08:15:48Z</time>
      </trkpt>
      <trkpt lat="55.485108001157641" lon="-2.545132962986827">
        <ele>70.790000000000006</ele>
        <time>2023-08-17T08:15:49Z</time>
      </trkpt>
      <trkpt lat="55.485185030847788" lon="-2.54511603154242">
        <ele>71.269999999999996</ele>
        <time>2023-08-17T08:15:50Z</time>
      </trkpt>
      <trkpt lat="55.485306987538934" lon="-2.5451619643718">
        <ele>71.269999999999996</ele>
        <time>2023-08-17T08:15:51Z</time>
      </trkpt>
      <trkpt lat="55.485408995300531" lon="-2.545200018212199">
        <ele>70.790000000000006</ele>
        <time>2023-08-17T08:15:52Z</time>
      </trkpt>
      <trkpt lat="55.48551200889051" lon="-2.545238994061947">
        <ele>70.790000000000006</ele>
        <time>2023-08-17T08:15:53Z</time>
      </trkpt>
      <trkpt lat="55.485610999166965" lon="-2.545285010710359">
        <ele>70.790000000000006</ele>
        <time>2023-08-17T08:15:54Z</time>
      </trkpt>
      <trkpt lat="55.48570697195828" lon="-2.545332033187151">
        <ele>70.790000000000006</ele>
        <time>2023-08-17T08:15:55Z</time>
      </trkpt>
      <trkpt lat="55.486546000465751" lon="-2.54573998041451">
        <ele>69.829999999999998</ele>
        <time>2023-08-17T08:16:05Z</time>
      </trkpt>
      <trkpt lat="55.486707016825676" lon="-2.545750960707665">
        <ele>69.349999999999994</ele>
        <time>2023-08-17T08:16:12Z</time>
      </trkpt>
      <trkpt lat="55.48673702403903" lon="-2.545747021213174">
        <ele>69.349999999999994</ele>
        <time>2023-08-17T08:16:13Z</time>
      </trkpt>
      <trkpt lat="55.486810030415654" lon="-2.545736962929368">
        <ele>66.950000000000003</ele>
        <time>2023-08-17T08:16:22Z</time>
      </trkpt>
      <trkpt lat="55.486810030415654" lon="-2.545736962929368">
        <ele>66.950000000000003</ele>
        <time>2023-08-17T08:16:48Z</time>
      </trkpt>
      <trkpt lat="55.486810030415654" lon="-2.545736962929368">
        <ele>66.469999999999999</ele>
        <time>2023-08-17T08:17:21Z</time>
      </trkpt>
      <trkpt lat="55.486910026520491" lon="-2.545722965151072">
        <ele>64.549999999999997</ele>
        <time>2023-08-17T08:17:24Z</time>
      </trkpt>
      <trkpt lat="55.486940033733845" lon="-2.54616997204721">
        <ele>64.069999999999993</ele>
        <time>2023-08-17T08:17:36Z</time>
      </trkpt>
      <trkpt lat="55.486932992935181" lon="-2.546171983703971">
        <ele>64.069999999999993</ele>
        <time>2023-08-17T08:18:00Z</time>
      </trkpt>
      <trkpt lat="55.486599979922175" lon="-2.546422015875578">
        <ele>36.189999999999998</ele>
        <time>2023-08-17T08:22:19Z</time>
      </trkpt>
      <trkpt lat="55.486736018210649" lon="-2.5463190022856">
        <ele>61.659999999999997</ele>
        <time>2023-08-17T08:22:45Z</time>
      </trkpt>
      <trkpt lat="55.486707016825676" lon="-2.546441964805126">
        <ele>46.280000000000001</ele>
        <time>2023-08-17T08:23:33Z</time>
      </trkpt>
      <trkpt lat="55.486650019884109" lon="-2.546421010047197">
        <ele>49.159999999999997</ele>
        <time>2023-08-17T08:24:22Z</time>
      </trkpt>
      <trkpt lat="55.486682960763574" lon="-2.545754984021187">
        <ele>56.859999999999999</ele>
        <time>2023-08-17T08:24:31Z</time>
      </trkpt>
      <trkpt lat="55.486711962148547" lon="-2.545750960707665">
        <ele>56.859999999999999</ele>
        <time>2023-08-17T08:24:32Z</time>
      </trkpt>
      <trkpt lat="55.486745992675424" lon="-2.545746015384793">
        <ele>56.859999999999999</ele>
        <time>2023-08-17T08:24:33Z</time>
      </trkpt>
      <trkpt lat="55.486855041235685" lon="-2.545731011778116">
        <ele>57.82</ele>
        <time>2023-08-17T08:24:36Z</time>
      </trkpt>
      <trkpt lat="55.486895022913814" lon="-2.545725982636213">
        <ele>58.780000000000001</ele>
        <time>2023-08-17T08:24:37Z</time>
      </trkpt>
      <trkpt lat="55.4869319871068" lon="-2.545721037313342">
        <ele>58.780000000000001</ele>
        <time>2023-08-17T08:24:38Z</time>
      </trkpt>
      <trkpt lat="55.486955959349871" lon="-2.54571701399982">
        <ele>59.259999999999998</ele>
        <time>2023-08-17T08:24:39Z</time>
      </trkpt>
      <trkpt lat="55.486980015411973" lon="-2.545713996514678">
        <ele>58.780000000000001</ele>
        <time>2023-08-17T08:24:40Z</time>
      </trkpt>
      <trkpt lat="55.487018991261721" lon="-2.545708967372775">
        <ele>58.780000000000001</ele>
        <time>2023-08-17T08:24:41Z</time>
      </trkpt>
      <trkpt lat="55.487115969881415" lon="-2.545694969594479">
        <ele>59.259999999999998</ele>
        <time>2023-08-17T08:24:42Z</time>
      </trkpt>
      <trkpt lat="55.487863970920444" lon="-2.545222984626889">
        <ele>60.219999999999999</ele>
        <time>2023-08-17T08:24:51Z</time>
      </trkpt>
      <trkpt lat="55.488926963880658" lon="-2.544801961630583">
        <ele>61.659999999999997</ele>
        <time>2023-08-17T08:25:00Z</time>
      </trkpt>
      <trkpt lat="55.489985011518002" lon="-2.544961972162128">
        <ele>60.700000000000003</ele>
        <time>2023-08-17T08:25:09Z</time>
      </trkpt>
      <trkpt lat="55.490399999544024" lon="-2.545001031830907">
        <ele>60.700000000000003</ele>
        <time>2023-08-17T08:25:11Z</time>
      </trkpt>
      <trkpt lat="55.490545006468892" lon="-2.544991979375482">
        <ele>61.18</ele>
        <time>2023-08-17T08:25:12Z</time>
      </trkpt>
      <trkpt lat="55.490693030878901" lon="-2.544982004910708">
        <ele>62.140000000000001</ele>
        <time>2023-08-17T08:25:13Z</time>
      </trkpt>
      <trkpt lat="55.492346026003361" lon="-2.544976975768805">
        <ele>65.989999999999995</ele>
        <time>2023-08-17T08:25:23Z</time>
      </trkpt>
      <trkpt lat="55.493714958429337" lon="-2.545221978798509">
        <ele>66.469999999999999</ele>
        <time>2023-08-17T08:25:31Z</time>
      </trkpt>
      <trkpt lat="55.494908038526773" lon="-2.545489026233554">
        <ele>67.430000000000007</ele>
        <time>2023-08-17T08:25:38Z</time>
      </trkpt>
      <trkpt lat="55.496587017551064" lon="-2.545706033706665">
        <ele>71.269999999999996</ele>
        <time>2023-08-17T08:25:48Z</time>
      </trkpt>
      <trkpt lat="55.497810021042824" lon="-2.545499000698328">
        <ele>74.159999999999997</ele>
        <time>2023-08-17T08:25:55Z</time>
      </trkpt>
      <trkpt lat="55.498341014608741" lon="-2.545393975451589">
        <ele>73.680000000000007</ele>
        <time>2023-08-17T08:25:59Z</time>
      </trkpt>
      <trkpt lat="55.498516028746963" lon="-2.545399004593492">
        <ele>72.719999999999999</ele>
        <time>2023-08-17T08:26:00Z</time>
      </trkpt>
      <trkpt lat="55.498690959066153" lon="-2.545464970171452">
        <ele>71.760000000000005</ele>
        <time>2023-08-17T08:26:01Z</time>
      </trkpt>
      <trkpt lat="55.49924299120903" lon="-2.545670997351408">
        <ele>70.790000000000006</ele>
        <time>2023-08-17T08:26:04Z</time>
      </trkpt>
      <trkpt lat="55.499428985640407" lon="-2.54573998041451">
        <ele>70.790000000000006</ele>
        <time>2023-08-17T08:26:05Z</time>
      </trkpt>
      <trkpt lat="55.501567963510752" lon="-2.545393975451589">
        <ele>79.450000000000003</ele>
        <time>2023-08-17T08:26:16Z</time>
      </trkpt>
      <trkpt lat="55.502816028892994" lon="-2.545188032090664">
        <ele>85.689999999999998</ele>
        <time>2023-08-17T08:26:23Z</time>
      </trkpt>
      <trkpt lat="55.503082992509007" lon="-2.545218039304018">
        <ele>87.140000000000001</ele>
        <time>2023-08-17T08:26:26Z</time>
      </trkpt>
      <trkpt lat="55.503083998337388" lon="-2.545218039304018">
        <ele>87.140000000000001</ele>
        <time>2023-08-17T08:26:27Z</time>
      </trkpt>
      <trkpt lat="55.503166979178786" lon="-2.545195994898677">
        <ele>87.140000000000001</ele>
        <time>2023-08-17T08:26:28Z</time>
      </trkpt>
      <trkpt lat="55.503253983333707" lon="-2.545143021270633">
        <ele>87.140000000000001</ele>
        <time>2023-08-17T08:26:29Z</time>
      </trkpt>
      <trkpt lat="55.503353979438543" lon="-2.545082001015544">
        <ele>87.140000000000001</ele>
        <time>2023-08-17T08:26:30Z</time>
      </trkpt>
      <trkpt lat="55.504926005378366" lon="-2.544254958629608">
        <ele>85.209999999999994</ele>
        <time>2023-08-17T08:26:41Z</time>
      </trkpt>
      <trkpt lat="55.505146030336618" lon="-2.544138031080365">
        <ele>83.290000000000006</ele>
        <time>2023-08-17T08:26:45Z</time>
      </trkpt>
      <trkpt lat="55.505307968705893" lon="-2.544165020808578">
        <ele>77.519999999999996</ele>
        <time>2023-08-17T08:26:55Z</time>
      </trkpt>
      <trkpt lat="55.505334036424756" lon="-2.54417197778821">
        <ele>77.040000000000006</ele>
        <time>2023-08-17T08:26:56Z</time>
      </trkpt>
      <trkpt lat="55.505463033914566" lon="-2.543986989185214">
        <ele>77.040000000000006</ele>
        <time>2023-08-17T08:26:57Z</time>
      </trkpt>
      <trkpt lat="55.506183039397001" lon="-2.542960038408637">
        <ele>72.239999999999995</ele>
        <time>2023-08-17T08:27:04Z</time>
      </trkpt>
      <trkpt lat="55.506304996088147" lon="-2.542785024270415">
        <ele>71.269999999999996</ele>
        <time>2023-08-17T08:27:05Z</time>
      </trkpt>
      <trkpt lat="55.507306968793273" lon="-2.541354987770319">
        <ele>63.579999999999998</ele>
        <time>2023-08-17T08:27:12Z</time>
      </trkpt>
      <trkpt lat="55.508320005610585" lon="-2.539540976285934">
        <ele>57.82</ele>
        <time>2023-08-17T08:27:19Z</time>
      </trkpt>
      <trkpt lat="55.509638981893659" lon="-2.536061983555555">
        <ele>47.240000000000002</ele>
        <time>2023-08-17T08:27:31Z</time>
      </trkpt>
      <trkpt lat="55.510310037061572" lon="-2.532538985833526">
        <ele>45.32</ele>
        <time>2023-08-17T08:27:42Z</time>
      </trkpt>
      <trkpt lat="55.511491969227791" lon="-2.526000011712313">
        <ele>43.880000000000003</ele>
        <time>2023-08-17T08:28:02Z</time>
      </trkpt>
      <trkpt lat="55.51226201467216" lon="-2.521745022386313">
        <ele>44.359999999999999</ele>
        <time>2023-08-17T08:28:15Z</time>
      </trkpt>
      <trkpt lat="55.513158040121198" lon="-2.516793999820948">
        <ele>42.439999999999998</ele>
        <time>2023-08-17T08:28:30Z</time>
      </trkpt>
      <trkpt lat="55.513788023963571" lon="-2.51297595910728">
        <ele>43.399999999999999</ele>
        <time>2023-08-17T08:28:42Z</time>
      </trkpt>
      <trkpt lat="55.514023974537849" lon="-2.509797038510442">
        <ele>44.840000000000003</ele>
        <time>2023-08-17T08:28:50Z</time>
      </trkpt>
      <trkpt lat="55.514019029214978" lon="-2.506654998287559">
        <ele>47.719999999999999</ele>
        <time>2023-08-17T08:28:58Z</time>
      </trkpt>
      <trkpt lat="55.514003019779921" lon="-2.501571038737893">
        <ele>46.759999999999998</ele>
        <time>2023-08-17T08:29:13Z</time>
      </trkpt>
      <trkpt lat="55.514191025868058" lon="-2.498479038476944">
        <ele>46.280000000000001</ele>
        <time>2023-08-17T08:29:22Z</time>
      </trkpt>
      <trkpt lat="55.514783961698413" lon="-2.495431965216994">
        <ele>46.280000000000001</ele>
        <time>2023-08-17T08:29:30Z</time>
      </trkpt>
      <trkpt lat="55.515622990205884" lon="-2.493001967668533">
        <ele>46.759999999999998</ele>
        <time>2023-08-17T08:29:38Z</time>
      </trkpt>
      <trkpt lat="55.516992006450891" lon="-2.489438988268375">
        <ele>48.68</ele>
        <time>2023-08-17T08:29:51Z</time>
      </trkpt>
      <trkpt lat="55.518068997189403" lon="-2.486624009907246">
        <ele>49.159999999999997</ele>
        <time>2023-08-17T08:30:01Z</time>
      </trkpt>
      <trkpt lat="55.519947968423367" lon="-2.481624037027359">
        <ele>48.200000000000003</ele>
        <time>2023-08-17T08:30:17Z</time>
      </trkpt>
      <trkpt lat="55.521323019638658" lon="-2.477938011288643">
        <ele>46.759999999999998</ele>
        <time>2023-08-17T08:30:30Z</time>
      </trkpt>
      <trkpt lat="55.523380022495985" lon="-2.472544005140662">
        <ele>46.759999999999998</ele>
        <time>2023-08-17T08:30:47Z</time>
      </trkpt>
      <trkpt lat="55.524072032421827" lon="-2.470914982259274">
        <ele>47.240000000000002</ele>
        <time>2023-08-17T08:30:52Z</time>
      </trkpt>
      <trkpt lat="55.524072032421827" lon="-2.470914982259274">
        <ele>47.240000000000002</ele>
        <time>2023-08-17T08:30:53Z</time>
      </trkpt>
      <trkpt lat="55.524201029911637" lon="-2.470722030848265">
        <ele>47.240000000000002</ele>
        <time>2023-08-17T08:30:54Z</time>
      </trkpt>
      <trkpt lat="55.524359028786421" lon="-2.470595967024565">
        <ele>46.759999999999998</ele>
        <time>2023-08-17T08:30:55Z</time>
      </trkpt>
      <trkpt lat="55.524527002125978" lon="-2.470483984798193">
        <ele>46.759999999999998</ele>
        <time>2023-08-17T08:30:56Z</time>
      </trkpt>
      <trkpt lat="55.524709979072213" lon="-2.470444003120065">
        <ele>46.759999999999998</ele>
        <time>2023-08-17T08:30:57Z</time>
      </trkpt>
      <trkpt lat="55.527232009917498" lon="-2.469877973198891">
        <ele>49.159999999999997</ele>
        <time>2023-08-17T08:31:08Z</time>
      </trkpt>
      <trkpt lat="55.528846029192209" lon="-2.469507995992899">
        <ele>50.609999999999999</ele>
        <time>2023-08-17T08:31:17Z</time>
      </trkpt>
      <trkpt lat="55.531713981181383" lon="-2.468745997175574">
        <ele>48.200000000000003</ele>
        <time>2023-08-17T08:31:31Z</time>
      </trkpt>
      <trkpt lat="55.534234000369906" lon="-2.46725301258266">
        <ele>50.609999999999999</ele>
        <time>2023-08-17T08:31:44Z</time>
      </trkpt>
      <trkpt lat="55.536168040707707" lon="-2.465950967743993">
        <ele>57.340000000000003</ele>
        <time>2023-08-17T08:31:55Z</time>
      </trkpt>
      <trkpt lat="55.537807960063219" lon="-2.464472986757755">
        <ele>59.259999999999998</ele>
        <time>2023-08-17T08:32:06Z</time>
      </trkpt>
      <trkpt lat="55.539731020107865" lon="-2.462580017745495">
        <ele>52.530000000000001</ele>
        <time>2023-08-17T08:32:18Z</time>
      </trkpt>
      <trkpt lat="55.541345961391926" lon="-2.46211901307106">
        <ele>50.130000000000003</ele>
        <time>2023-08-17T08:32:25Z</time>
      </trkpt>
      <trkpt lat="55.542975990101695" lon="-2.462787972763181">
        <ele>56.369999999999997</ele>
        <time>2023-08-17T08:32:33Z</time>
      </trkpt>
      <trkpt lat="55.544564025476575" lon="-2.463284013792872">
        <ele>65.510000000000005</ele>
        <time>2023-08-17T08:32:41Z</time>
      </trkpt>
      <trkpt lat="55.544758988544345" lon="-2.463255012407899">
        <ele>66.469999999999999</ele>
        <time>2023-08-17T08:32:42Z</time>
      </trkpt>
      <trkpt lat="55.546483984217048" lon="-2.462711026892066">
        <ele>75.599999999999994</ele>
        <time>2023-08-17T08:32:52Z</time>
      </trkpt>
      <trkpt lat="55.547543959692121" lon="-2.462079031392932">
        <ele>79.930000000000007</ele>
        <time>2023-08-17T08:32:58Z</time>
      </trkpt>
      <trkpt lat="55.547888036817312" lon="-2.461952967569232">
        <ele>80.409999999999997</ele>
        <time>2023-08-17T08:32:59Z</time>
      </trkpt>
      <trkpt lat="55.548064978793263" lon="-2.461951961740851">
        <ele>80.409999999999997</ele>
        <time>2023-08-17T08:33:00Z</time>
      </trkpt>
      <trkpt lat="55.548064978793263" lon="-2.461951961740851">
        <ele>80.890000000000001</ele>
        <time>2023-08-17T08:33:01Z</time>
      </trkpt>
      <trkpt lat="55.54825197905302" lon="-2.461960008367896">
        <ele>81.370000000000005</ele>
        <time>2023-08-17T08:33:02Z</time>
      </trkpt>
      <trkpt lat="55.549759967252612" lon="-2.462029997259378">
        <ele>84.730000000000004</ele>
        <time>2023-08-17T08:33:10Z</time>
      </trkpt>
      <trkpt lat="55.551633993163705" lon="-2.462411038577557">
        <ele>91.459999999999994</ele>
        <time>2023-08-17T08:33:20Z</time>
      </trkpt>
      <trkpt lat="55.553196966648102" lon="-2.462466023862362">
        <ele>93.870000000000005</ele>
        <time>2023-08-17T08:33:27Z</time>
      </trkpt>
      <trkpt lat="55.554794976487756" lon="-2.461726991459727">
        <ele>94.349999999999994</ele>
        <time>2023-08-17T08:33:34Z</time>
      </trkpt>
      <trkpt lat="55.556153012439609" lon="-2.460949989035726">
        <ele>94.829999999999998</ele>
        <time>2023-08-17T08:33:41Z</time>
      </trkpt>
      <trkpt lat="55.557760996744037" lon="-2.459908034652472">
        <ele>94.829999999999998</ele>
        <time>2023-08-17T08:33:49Z</time>
      </trkpt>
      <trkpt lat="55.559512982144952" lon="-2.458340032026172">
        <ele>90.5</ele>
        <time>2023-08-17T08:33:58Z</time>
      </trkpt>
      <trkpt lat="55.559695959091187" lon="-2.458240035921335">
        <ele>90.5</ele>
        <time>2023-08-17T08:33:59Z</time>
      </trkpt>
      <trkpt lat="55.559874996542931" lon="-2.458150014281273">
        <ele>90.019999999999996</ele>
        <time>2023-08-17T08:34:00Z</time>
      </trkpt>
      <trkpt lat="55.560055039823055" lon="-2.458138028159738">
        <ele>90.019999999999996</ele>
        <time>2023-08-17T08:34:01Z</time>
      </trkpt>
      <trkpt lat="55.560234999284148" lon="-2.458177004009485">
        <ele>90.019999999999996</ele>
        <time>2023-08-17T08:34:02Z</time>
      </trkpt>
      <trkpt lat="55.560417976230383" lon="-2.458271970972419">
        <ele>89.540000000000006</ele>
        <time>2023-08-17T08:34:03Z</time>
      </trkpt>
      <trkpt lat="55.560808992013335" lon="-2.458456959575415">
        <ele>90.019999999999996</ele>
        <time>2023-08-17T08:34:05Z</time>
      </trkpt>
      <trkpt lat="55.562081029638648" lon="-2.458596015349031">
        <ele>94.349999999999994</ele>
        <time>2023-08-17T08:34:11Z</time>
      </trkpt>
      <trkpt lat="55.562257971614599" lon="-2.458559973165393">
        <ele>95.310000000000002</ele>
        <time>2023-08-17T08:34:12Z</time>
      </trkpt>
      <trkpt lat="55.562420999631286" lon="-2.458515968173742">
        <ele>96.269999999999996</ele>
        <time>2023-08-17T08:34:13Z</time>
      </trkpt>
      <trkpt lat="55.562563994899392" lon="-2.458390993997455">
        <ele>96.269999999999996</ele>
        <time>2023-08-17T08:34:14Z</time>
      </trkpt>
      <trkpt lat="55.56273297406733" lon="-2.458234000951052">
        <ele>96.75</ele>
        <time>2023-08-17T08:34:15Z</time>
      </trkpt>
      <trkpt lat="55.563986990600824" lon="-2.456550998613238">
        <ele>97.230000000000004</ele>
        <time>2023-08-17T08:34:24Z</time>
      </trkpt>
      <trkpt lat="55.564097966998816" lon="-2.456442033872008">
        <ele>97.709999999999994</ele>
        <time>2023-08-17T08:34:25Z</time>
      </trkpt>
      <trkpt lat="55.564215984195471" lon="-2.45640498585999">
        <ele>97.230000000000004</ele>
        <time>2023-08-17T08:34:26Z</time>
      </trkpt>
      <trkpt lat="55.564332995563745" lon="-2.456368021667004">
        <ele>97.709999999999994</ele>
        <time>2023-08-17T08:34:27Z</time>
      </trkpt>
      <trkpt lat="55.564470961689949" lon="-2.456324016675353">
        <ele>97.230000000000004</ele>
        <time>2023-08-17T08:34:28Z</time>
      </trkpt>
      <trkpt lat="55.564584033563733" lon="-2.456375984475017">
        <ele>97.230000000000004</ele>
        <time>2023-08-17T08:34:29Z</time>
      </trkpt>
      <trkpt lat="55.564711019396782" lon="-2.456434993073344">
        <ele>96.269999999999996</ele>
        <time>2023-08-17T08:34:30Z</time>
      </trkpt>
      <trkpt lat="55.564824007451534" lon="-2.456545969471335">
        <ele>95.790000000000006</ele>
        <time>2023-08-17T08:34:31Z</time>
      </trkpt>
      <trkpt lat="55.564926015213132" lon="-2.456687036901712">
        <ele>95.310000000000002</ele>
        <time>2023-08-17T08:34:32Z</time>
      </trkpt>
      <trkpt lat="55.564977983012795" lon="-2.456892980262637">
        <ele>94.829999999999998</ele>
        <time>2023-08-17T08:34:33Z</time>
      </trkpt>
      <trkpt lat="55.565090971067548" lon="-2.457345016300678">
        <ele>93.870000000000005</ele>
        <time>2023-08-17T08:34:35Z</time>
      </trkpt>
      <trkpt lat="55.565164983272552" lon="-2.457549031823874">
        <ele>92.900000000000006</ele>
        <time>2023-08-17T08:34:36Z</time>
      </trkpt>
      <trkpt lat="55.56524301879108" lon="-2.457719016820192">
        <ele>92.420000000000002</ele>
        <time>2023-08-17T08:34:37Z</time>
      </trkpt>
      <trkpt lat="55.565349971875548" lon="-2.457801997661591">
        <ele>91.939999999999998</ele>
        <time>2023-08-17T08:34:38Z</time>
      </trkpt>
      <trkpt lat="55.565451979637146" lon="-2.457867963239551">
        <ele>91.939999999999998</ele>
        <time>2023-08-17T08:34:39Z</time>
      </trkpt>
      <trkpt lat="55.565572008490562" lon="-2.457861006259918">
        <ele>91.459999999999994</ele>
        <time>2023-08-17T08:34:40Z</time>
      </trkpt>
      <trkpt lat="55.566396033391356" lon="-2.457750029861927">
        <ele>90.019999999999996</ele>
        <time>2023-08-17T08:34:49Z</time>
      </trkpt>
      <trkpt lat="55.567426001653075" lon="-2.457213001325727">
        <ele>92.900000000000006</ele>
        <time>2023-08-17T08:35:01Z</time>
      </trkpt>
      <trkpt lat="55.568462004885077" lon="-2.456814022734761">
        <ele>96.75</ele>
        <time>2023-08-17T08:35:13Z</time>
      </trkpt>
      <trkpt lat="55.569578977301717" lon="-2.456577988341451">
        <ele>100.11</ele>
        <time>2023-08-17T08:35:26Z</time>
      </trkpt>
      <trkpt lat="55.570525964722037" lon="-2.456386964768171">
        <ele>99.150000000000006</ele>
        <time>2023-08-17T08:35:37Z</time>
      </trkpt>
      <trkpt lat="55.571911996230483" lon="-2.455705013126135">
        <ele>100.11</ele>
        <time>2023-08-17T08:35:50Z</time>
      </trkpt>
      <trkpt lat="55.572988986968994" lon="-2.455036975443363">
        <ele>100.11</ele>
        <time>2023-08-17T08:35:58Z</time>
      </trkpt>
      <trkpt lat="55.574493035674095" lon="-2.454329961910844">
        <ele>97.709999999999994</ele>
        <time>2023-08-17T08:36:06Z</time>
      </trkpt>
      <trkpt lat="55.576103031635284" lon="-2.453260011970997">
        <ele>94.829999999999998</ele>
        <time>2023-08-17T08:36:16Z</time>
      </trkpt>
      <trkpt lat="55.577313965186477" lon="-2.452295003458858">
        <ele>92.900000000000006</ele>
        <time>2023-08-17T08:36:23Z</time>
      </trkpt>
      <trkpt lat="55.579186985269189" lon="-2.450069021433592">
        <ele>89.540000000000006</ele>
        <time>2023-08-17T08:36:34Z</time>
      </trkpt>
      <trkpt lat="55.580485006794333" lon="-2.44824000634253">
        <ele>86.659999999999997</ele>
        <time>2023-08-17T08:36:42Z</time>
      </trkpt>
      <trkpt lat="55.582222994416952" lon="-2.445749994367361">
        <ele>83.290000000000006</ele>
        <time>2023-08-17T08:36:53Z</time>
      </trkpt>
      <trkpt lat="55.584201961755753" lon="-2.442881958559156">
        <ele>79.450000000000003</ele>
        <time>2023-08-17T08:37:05Z</time>
      </trkpt>
      <trkpt lat="55.586169026792049" lon="-2.440141998231411">
        <ele>74.640000000000001</ele>
        <time>2023-08-17T08:37:17Z</time>
      </trkpt>
      <trkpt lat="55.58746000751853" lon="-2.437919033691287">
        <ele>70.310000000000002</ele>
        <time>2023-08-17T08:37:26Z</time>
      </trkpt>
      <trkpt lat="55.588501961901784" lon="-2.43498201481998">
        <ele>63.579999999999998</ele>
        <time>2023-08-17T08:37:35Z</time>
      </trkpt>
      <trkpt lat="55.589392958208919" lon="-2.432172987610102">
        <ele>60.219999999999999</ele>
        <time>2023-08-17T08:37:44Z</time>
      </trkpt>
      <trkpt lat="55.58997499756515" lon="-2.430339027196169">
        <ele>55.890000000000001</ele>
        <time>2023-08-17T08:37:52Z</time>
      </trkpt>
      <trkpt lat="55.590346986427903" lon="-2.429177965968847">
        <ele>53.490000000000002</ele>
        <time>2023-08-17T08:37:59Z</time>
      </trkpt>
      <trkpt lat="55.590387973934412" lon="-2.429067995399237">
        <ele>53.969999999999999</ele>
        <time>2023-08-17T08:38:00Z</time>
      </trkpt>
      <trkpt lat="55.59044698253274" lon="-2.428932040929794">
        <ele>53.969999999999999</ele>
        <time>2023-08-17T08:38:01Z</time>
      </trkpt>
      <trkpt lat="55.590514959767461" lon="-2.428863979876041">
        <ele>53.969999999999999</ele>
        <time>2023-08-17T08:38:02Z</time>
      </trkpt>
      <trkpt lat="55.590650998055935" lon="-2.428845958784223">
        <ele>54.450000000000003</ele>
        <time>2023-08-17T08:38:03Z</time>
      </trkpt>
      <trkpt lat="55.590802961960435" lon="-2.428965987637639">
        <ele>54.93</ele>
        <time>2023-08-17T08:38:04Z</time>
      </trkpt>
      <trkpt lat="55.590802961960435" lon="-2.428965987637639">
        <ele>54.93</ele>
        <time>2023-08-17T08:38:05Z</time>
      </trkpt>
      <trkpt lat="55.590889966115355" lon="-2.429035976529121">
        <ele>55.409999999999997</ele>
        <time>2023-08-17T08:38:06Z</time>
      </trkpt>
      <trkpt lat="55.591186014935374" lon="-2.429394973441958">
        <ele>56.369999999999997</ele>
        <time>2023-08-17T08:38:10Z</time>
      </trkpt>
      <trkpt lat="55.591256003826857" lon="-2.429463034495711">
        <ele>56.369999999999997</ele>
        <time>2023-08-17T08:38:11Z</time>
      </trkpt>
      <trkpt lat="55.59173796325922" lon="-2.429928984493017">
        <ele>55.890000000000001</ele>
        <time>2023-08-17T08:38:16Z</time>
      </trkpt>
      <trkpt lat="55.59173796325922" lon="-2.429929990321398">
        <ele>55.409999999999997</ele>
        <time>2023-08-17T08:38:17Z</time>
      </trkpt>
      <trkpt lat="55.592569028958678" lon="-2.430779999122024">
        <ele>53.009999999999998</ele>
        <time>2023-08-17T08:38:28Z</time>
      </trkpt>
      <trkpt lat="55.592945963144302" lon="-2.431224994361401">
        <ele>51.090000000000003</ele>
        <time>2023-08-17T08:38:33Z</time>
      </trkpt>
      <trkpt lat="55.592999020591378" lon="-2.43130998685956">
        <ele>50.609999999999999</ele>
        <time>2023-08-17T08:38:34Z</time>
      </trkpt>
      <trkpt lat="55.593041013926268" lon="-2.431375030428171">
        <ele>50.130000000000003</ele>
        <time>2023-08-17T08:38:35Z</time>
      </trkpt>
      <trkpt lat="55.593075966462493" lon="-2.431430015712977">
        <ele>49.649999999999999</ele>
        <time>2023-08-17T08:38:36Z</time>
      </trkpt>
      <trkpt lat="55.593109996989369" lon="-2.431483995169401">
        <ele>48.68</ele>
        <time>2023-08-17T08:38:37Z</time>
      </trkpt>
      <trkpt lat="55.593147967010736" lon="-2.431543003767729">
        <ele>48.200000000000003</ele>
        <time>2023-08-17T08:38:38Z</time>
      </trkpt>
      <trkpt lat="55.593156013637781" lon="-2.431687004864216">
        <ele>47.719999999999999</ele>
        <time>2023-08-17T08:38:39Z</time>
      </trkpt>
      <trkpt lat="55.593238994479179" lon="-2.431900994852185">
        <ele>47.240000000000002</ele>
        <time>2023-08-17T08:38:40Z</time>
      </trkpt>
      <trkpt lat="55.593281993642449" lon="-2.43204097263515">
        <ele>46.759999999999998</ele>
        <time>2023-08-17T08:38:41Z</time>
      </trkpt>
      <trkpt lat="55.593329016119242" lon="-2.432192014530301">
        <ele>46.280000000000001</ele>
        <time>2023-08-17T08:38:42Z</time>
      </trkpt>
      <trkpt lat="55.593349970877171" lon="-2.432387983426452">
        <ele>45.799999999999997</ele>
        <time>2023-08-17T08:38:43Z</time>
      </trkpt>
      <trkpt lat="55.59334603138268" lon="-2.432571966201067">
        <ele>45.32</ele>
        <time>2023-08-17T08:38:44Z</time>
      </trkpt>
      <trkpt lat="55.593342008069158" lon="-2.432754021137953">
        <ele>44.840000000000003</ele>
        <time>2023-08-17T08:38:45Z</time>
      </trkpt>
      <trkpt lat="55.593337984755635" lon="-2.432935992255807">
        <ele>44.359999999999999</ele>
        <time>2023-08-17T08:38:46Z</time>
      </trkpt>
      <trkpt lat="55.593333961442113" lon="-2.433112012222409">
        <ele>43.880000000000003</ele>
        <time>2023-08-17T08:38:47Z</time>
      </trkpt>
      <trkpt lat="55.593315018340945" lon="-2.433292977511883">
        <ele>43.399999999999999</ele>
        <time>2023-08-17T08:38:48Z</time>
      </trkpt>
      <trkpt lat="55.593284005299211" lon="-2.433441001921892">
        <ele>42.439999999999998</ele>
        <time>2023-08-17T08:38:49Z</time>
      </trkpt>
      <trkpt lat="55.593227008357644" lon="-2.433717017993331">
        <ele>41.469999999999999</ele>
        <time>2023-08-17T08:38:51Z</time>
      </trkpt>
      <trkpt lat="55.593171017244458" lon="-2.433984987437725">
        <ele>40.509999999999998</ele>
        <time>2023-08-17T08:38:53Z</time>
      </trkpt>
      <trkpt lat="55.593117037788033" lon="-2.434395030140877">
        <ele>39.07</ele>
        <time>2023-08-17T08:38:56Z</time>
      </trkpt>
      <trkpt lat="55.593126006424427" lon="-2.434512041509152">
        <ele>38.590000000000003</ele>
        <time>2023-08-17T08:38:57Z</time>
      </trkpt>
      <trkpt lat="55.593164982274175" lon="-2.434650007635355">
        <ele>38.109999999999999</ele>
        <time>2023-08-17T08:38:58Z</time>
      </trkpt>
      <trkpt lat="55.593203036114573" lon="-2.434781016781926">
        <ele>37.630000000000003</ele>
        <time>2023-08-17T08:38:59Z</time>
      </trkpt>
      <trkpt lat="55.593270007520914" lon="-2.434889981523156">
        <ele>37.149999999999999</ele>
        <time>2023-08-17T08:39:00Z</time>
      </trkpt>
      <trkpt lat="55.593341002240777" lon="-2.43500498123467">
        <ele>36.670000000000002</ele>
        <time>2023-08-17T08:39:01Z</time>
      </trkpt>
      <trkpt lat="55.593417026102543" lon="-2.435081005096436">
        <ele>36.189999999999998</ele>
        <time>2023-08-17T08:39:02Z</time>
      </trkpt>
      <trkpt lat="55.593522973358631" lon="-2.43513397872448">
        <ele>36.189999999999998</ele>
        <time>2023-08-17T08:39:03Z</time>
      </trkpt>
      <trkpt lat="55.593627998605371" lon="-2.435186030343175">
        <ele>35.710000000000001</ele>
        <time>2023-08-17T08:39:04Z</time>
      </trkpt>
      <trkpt lat="55.593718020245433" lon="-2.435231041163206">
        <ele>35.229999999999997</ele>
        <time>2023-08-17T08:39:05Z</time>
      </trkpt>
      <trkpt lat="55.593818016350269" lon="-2.435215031728149">
        <ele>34.259999999999998</ele>
        <time>2023-08-17T08:39:06Z</time>
      </trkpt>
      <trkpt lat="55.593918012455106" lon="-2.43519801646471">
        <ele>33.780000000000001</ele>
        <time>2023-08-17T08:39:07Z</time>
      </trkpt>
      <trkpt lat="55.594006022438407" lon="-2.435170020908117">
        <ele>33.299999999999997</ele>
        <time>2023-08-17T08:39:08Z</time>
      </trkpt>
      <trkpt lat="55.59409998357296" lon="-2.435114029794931">
        <ele>32.82</ele>
        <time>2023-08-17T08:39:09Z</time>
      </trkpt>
      <trkpt lat="55.594195034354925" lon="-2.435057032853365">
        <ele>32.82</ele>
        <time>2023-08-17T08:39:10Z</time>
      </trkpt>
      <trkpt lat="55.59435797855258" lon="-2.434926023706794">
        <ele>32.340000000000003</ele>
        <time>2023-08-17T08:39:12Z</time>
      </trkpt>
      <trkpt lat="55.594439031556249" lon="-2.43483399040997">
        <ele>31.859999999999999</ele>
        <time>2023-08-17T08:39:13Z</time>
      </trkpt>
      <trkpt lat="55.595157025381923" lon="-2.433720035478473">
        <ele>32.82</ele>
        <time>2023-08-17T08:39:24Z</time>
      </trkpt>
      <trkpt lat="55.595905026420951" lon="-2.432582024484873">
        <ele>32.340000000000003</ele>
        <time>2023-08-17T08:39:35Z</time>
      </trkpt>
      <trkpt lat="55.595978032797575" lon="-2.432495020329952">
        <ele>31.859999999999999</ele>
        <time>2023-08-17T08:39:36Z</time>
      </trkpt>
      <trkpt lat="55.596051961183548" lon="-2.432408016175032">
        <ele>31.859999999999999</ele>
        <time>2023-08-17T08:39:37Z</time>
      </trkpt>
      <trkpt lat="55.596132008358836" lon="-2.432356970384717">
        <ele>31.379999999999999</ele>
        <time>2023-08-17T08:39:38Z</time>
      </trkpt>
      <trkpt lat="55.596215995028615" lon="-2.432326041162014">
        <ele>31.379999999999999</ele>
        <time>2023-08-17T08:39:39Z</time>
      </trkpt>
      <trkpt lat="55.596405006945133" lon="-2.432343978434801">
        <ele>31.379999999999999</ele>
        <time>2023-08-17T08:39:40Z</time>
      </trkpt>
      <trkpt lat="55.596494022756815" lon="-2.432377003133297">
        <ele>31.379999999999999</ele>
        <time>2023-08-17T08:39:41Z</time>
      </trkpt>
      <trkpt lat="55.596581026911736" lon="-2.432439029216766">
        <ele>31.379999999999999</ele>
        <time>2023-08-17T08:39:42Z</time>
      </trkpt>
      <trkpt lat="55.596894007176161" lon="-2.43266299366951">
        <ele>31.379999999999999</ele>
        <time>2023-08-17T08:39:47Z</time>
      </trkpt>
      <trkpt lat="55.596960978582501" lon="-2.432723008096218">
        <ele>31.379999999999999</ele>
        <time>2023-08-17T08:39:48Z</time>
      </trkpt>
      <trkpt lat="55.597437992691994" lon="-2.433235980570316">
        <ele>30.420000000000002</ele>
        <time>2023-08-17T08:39:56Z</time>
      </trkpt>
      <trkpt lat="55.597662040963769" lon="-2.433486012741923">
        <ele>29.460000000000001</ele>
        <time>2023-08-17T08:40:00Z</time>
      </trkpt>
      <trkpt lat="55.597723983228207" lon="-2.433554995805025">
        <ele>28.98</ele>
        <time>2023-08-17T08:40:01Z</time>
      </trkpt>
      <trkpt lat="55.597787015140057" lon="-2.433624984696508">
        <ele>28.98</ele>
        <time>2023-08-17T08:40:02Z</time>
      </trkpt>
      <trkpt lat="55.597906960174441" lon="-2.43375901132822">
        <ele>28.5</ele>
        <time>2023-08-17T08:40:03Z</time>
      </trkpt>
      <trkpt lat="55.597906960174441" lon="-2.43375901132822">
        <ele>28.02</ele>
        <time>2023-08-17T08:40:04Z</time>
      </trkpt>
      <trkpt lat="55.598030006513" lon="-2.433899994939566">
        <ele>27.530000000000001</ele>
        <time>2023-08-17T08:40:05Z</time>
      </trkpt>
      <trkpt lat="55.598030006513" lon="-2.433899994939566">
        <ele>27.050000000000001</ele>
        <time>2023-08-17T08:40:06Z</time>
      </trkpt>
      <trkpt lat="55.598088009282947" lon="-2.433949029073119">
        <ele>26.57</ele>
        <time>2023-08-17T08:40:07Z</time>
      </trkpt>
      <trkpt lat="55.598481958732009" lon="-2.434339039027691">
        <ele>26.09</ele>
        <time>2023-08-17T08:40:13Z</time>
      </trkpt>
      <trkpt lat="55.598574997857213" lon="-2.434456972405314">
        <ele>26.09</ele>
        <time>2023-08-17T08:40:14Z</time>
      </trkpt>
      <trkpt lat="55.598623026162386" lon="-2.434622012078762">
        <ele>26.09</ele>
        <time>2023-08-17T08:40:15Z</time>
      </trkpt>
      <trkpt lat="55.59863300062716" lon="-2.434715973213315">
        <ele>26.09</ele>
        <time>2023-08-17T08:40:16Z</time>
      </trkpt>
      <trkpt lat="55.598642975091934" lon="-2.4348100181669">
        <ele>26.09</ele>
        <time>2023-08-17T08:40:17Z</time>
      </trkpt>
      <trkpt lat="55.59865303337574" lon="-2.434909008443356">
        <ele>26.09</ele>
        <time>2023-08-17T08:40:18Z</time>
      </trkpt>
      <trkpt lat="55.598692009225488" lon="-2.434957036748529">
        <ele>26.09</ele>
        <time>2023-08-17T08:40:19Z</time>
      </trkpt>
      <trkpt lat="55.598799968138337" lon="-2.435088967904449">
        <ele>26.09</ele>
        <time>2023-08-17T08:40:21Z</time>
      </trkpt>
      <trkpt lat="55.599411008879542" lon="-2.435740996152163">
        <ele>26.09</ele>
        <time>2023-08-17T08:40:31Z</time>
      </trkpt>
      <trkpt lat="55.599703034386039" lon="-2.436083983629942">
        <ele>28.02</ele>
        <time>2023-08-17T08:40:36Z</time>
      </trkpt>
      <trkpt lat="55.599760031327605" lon="-2.436160007491708">
        <ele>28.5</ele>
        <time>2023-08-17T08:40:38Z</time>
      </trkpt>
      <trkpt lat="55.599813004955649" lon="-2.436235025525093">
        <ele>28.98</ele>
        <time>2023-08-17T08:40:39Z</time>
      </trkpt>
      <trkpt lat="55.599864972755313" lon="-2.436309959739447">
        <ele>29.460000000000001</ele>
        <time>2023-08-17T08:40:40Z</time>
      </trkpt>
      <trkpt lat="55.599917024374008" lon="-2.436383971944451">
        <ele>29.940000000000001</ele>
        <time>2023-08-17T08:40:41Z</time>
      </trkpt>
      <trkpt lat="55.599966980516911" lon="-2.436455972492695">
        <ele>30.420000000000002</ele>
        <time>2023-08-17T08:40:42Z</time>
      </trkpt>
      <trkpt lat="55.600020959973335" lon="-2.436531996354461">
        <ele>30.899999999999999</ele>
        <time>2023-08-17T08:40:43Z</time>
      </trkpt>
      <trkpt lat="55.600073011592031" lon="-2.436607014387846">
        <ele>31.379999999999999</ele>
        <time>2023-08-17T08:40:44Z</time>
      </trkpt>
      <trkpt lat="55.600126991048455" lon="-2.436683960258961">
        <ele>31.859999999999999</ele>
        <time>2023-08-17T08:40:45Z</time>
      </trkpt>
      <trkpt lat="55.600302005186677" lon="-2.436934998258948">
        <ele>32.82</ele>
        <time>2023-08-17T08:40:48Z</time>
      </trkpt>
      <trkpt lat="55.600362019613385" lon="-2.437026025727391">
        <ele>32.82</ele>
        <time>2023-08-17T08:40:49Z</time>
      </trkpt>
      <trkpt lat="55.600813971832395" lon="-2.437761034816504">
        <ele>32.340000000000003</ele>
        <time>2023-08-17T08:40:55Z</time>
      </trkpt>
      <trkpt lat="55.601343959569931" lon="-2.439125021919608">
        <ele>32.82</ele>
        <time>2023-08-17T08:41:07Z</time>
      </trkpt>
      <trkpt lat="55.601391987875104" lon="-2.439248990267515">
        <ele>33.299999999999997</ele>
        <time>2023-08-17T08:41:08Z</time>
      </trkpt>
      <trkpt lat="55.602000011131167" lon="-2.440842976793647">
        <ele>35.710000000000001</ele>
        <time>2023-08-17T08:41:20Z</time>
      </trkpt>
      <trkpt lat="55.602150969207287" lon="-2.441239021718502">
        <ele>35.710000000000001</ele>
        <time>2023-08-17T08:41:23Z</time>
      </trkpt>
      <trkpt lat="55.602235961705446" lon="-2.441356033086777">
        <ele>35.710000000000001</ele>
        <time>2023-08-17T08:41:24Z</time>
      </trkpt>
      <trkpt lat="55.602315003052354" lon="-2.441464997828007">
        <ele>35.710000000000001</ele>
        <time>2023-08-17T08:41:25Z</time>
      </trkpt>
      <trkpt lat="55.602397983893752" lon="-2.441570023074746">
        <ele>35.710000000000001</ele>
        <time>2023-08-17T08:41:26Z</time>
      </trkpt>
      <trkpt lat="55.602490017190576" lon="-2.441633976995945">
        <ele>35.710000000000001</ele>
        <time>2023-08-17T08:41:27Z</time>
      </trkpt>
      <trkpt lat="55.60316601768136" lon="-2.442061034962535">
        <ele>37.630000000000003</ele>
        <time>2023-08-17T08:41:35Z</time>
      </trkpt>
      <trkpt lat="55.603213962167501" lon="-2.442090958356857">
        <ele>37.630000000000003</ele>
        <time>2023-08-17T08:41:36Z</time>
      </trkpt>
      <trkpt lat="55.603318987414241" lon="-2.442247029393911">
        <ele>38.109999999999999</ele>
        <time>2023-08-17T08:41:38Z</time>
      </trkpt>
      <trkpt lat="55.604071011766791" lon="-2.44321103207767">
        <ele>38.590000000000003</ele>
        <time>2023-08-17T08:41:47Z</time>
      </trkpt>
      <trkpt lat="55.605113971978426" lon="-2.444360023364425">
        <ele>40.030000000000001</ele>
        <time>2023-08-17T08:41:58Z</time>
      </trkpt>
      <trkpt lat="55.606120973825455" lon="-2.445358978584409">
        <ele>43.399999999999999</ele>
        <time>2023-08-17T08:42:09Z</time>
      </trkpt>
      <trkpt lat="55.606179982423782" lon="-2.44540398940444">
        <ele>43.880000000000003</ele>
        <time>2023-08-17T08:42:10Z</time>
      </trkpt>
      <trkpt lat="55.606233961880207" lon="-2.445444976910949">
        <ele>44.359999999999999</ele>
        <time>2023-08-17T08:42:11Z</time>
      </trkpt>
      <trkpt lat="55.606375029310584" lon="-2.445652009919286">
        <ele>44.840000000000003</ele>
        <time>2023-08-17T08:42:13Z</time>
      </trkpt>
      <trkpt lat="55.606419034302235" lon="-2.445786036550999">
        <ele>44.840000000000003</ele>
        <time>2023-08-17T08:42:14Z</time>
      </trkpt>
      <trkpt lat="55.606466978788376" lon="-2.445932971313596">
        <ele>45.32</ele>
        <time>2023-08-17T08:42:15Z</time>
      </trkpt>
      <trkpt lat="55.606630006805062" lon="-2.446430018171668">
        <ele>45.32</ele>
        <time>2023-08-17T08:42:18Z</time>
      </trkpt>
      <trkpt lat="55.606817007064819" lon="-2.446996970102191">
        <ele>45.799999999999997</ele>
        <time>2023-08-17T08:42:21Z</time>
      </trkpt>
      <trkpt lat="55.606977017596364" lon="-2.44738002307713">
        <ele>46.280000000000001</ele>
        <time>2023-08-17T08:42:23Z</time>
      </trkpt>
      <trkpt lat="55.60707600787282" lon="-2.447544978931546">
        <ele>46.280000000000001</ele>
        <time>2023-08-17T08:42:24Z</time>
      </trkpt>
      <trkpt lat="55.608588019385934" lon="-2.449241979047656">
        <ele>48.68</ele>
        <time>2023-08-17T08:42:35Z</time>
      </trkpt>
      <trkpt lat="55.610082009807229" lon="-2.450802018865943">
        <ele>49.649999999999999</ele>
        <time>2023-08-17T08:42:47Z</time>
      </trkpt>
      <trkpt lat="55.610201032832265" lon="-2.450920036062598">
        <ele>49.649999999999999</ele>
        <time>2023-08-17T08:42:48Z</time>
      </trkpt>
      <trkpt lat="55.610903017222881" lon="-2.451779013499618">
        <ele>47.719999999999999</ele>
        <time>2023-08-17T08:42:54Z</time>
      </trkpt>
      <trkpt lat="55.611007958650589" lon="-2.451973976567388">
        <ele>47.240000000000002</ele>
        <time>2023-08-17T08:42:55Z</time>
      </trkpt>
      <trkpt lat="55.611182972788811" lon="-2.452415032312274">
        <ele>46.280000000000001</ele>
        <time>2023-08-17T08:42:57Z</time>
      </trkpt>
      <trkpt lat="55.611269976943731" lon="-2.452675960958004">
        <ele>45.799999999999997</ele>
        <time>2023-08-17T08:42:58Z</time>
      </trkpt>
      <trkpt lat="55.611685970798135" lon="-2.455111993476749">
        <ele>41.950000000000003</ele>
        <time>2023-08-17T08:43:07Z</time>
      </trkpt>
      <trkpt lat="55.612107999622822" lon="-2.458518985658884">
        <ele>39.07</ele>
        <time>2023-08-17T08:43:18Z</time>
      </trkpt>
      <trkpt lat="55.612865975126624" lon="-2.461088038980961">
        <ele>37.149999999999999</ele>
        <time>2023-08-17T08:43:26Z</time>
      </trkpt>
      <trkpt lat="55.613742973655462" lon="-2.463889019563794">
        <ele>39.549999999999997</ele>
        <time>2023-08-17T08:43:36Z</time>
      </trkpt>
      <trkpt lat="55.614578984677792" lon="-2.466898960992694">
        <ele>42.920000000000002</ele>
        <time>2023-08-17T08:43:47Z</time>
      </trkpt>
      <trkpt lat="55.614778976887465" lon="-2.467676969245076">
        <ele>44.359999999999999</ele>
        <time>2023-08-17T08:43:50Z</time>
      </trkpt>
      <trkpt lat="55.614827005192637" lon="-2.467954996973276">
        <ele>45.32</ele>
        <time>2023-08-17T08:43:51Z</time>
      </trkpt>
      <trkpt lat="55.61487503349781" lon="-2.468235036358237">
        <ele>45.799999999999997</ele>
        <time>2023-08-17T08:43:52Z</time>
      </trkpt>
      <trkpt lat="55.614901017397642" lon="-2.468534018844366">
        <ele>46.759999999999998</ele>
        <time>2023-08-17T08:43:53Z</time>
      </trkpt>
      <trkpt lat="55.614907974377275" lon="-2.468838030472398">
        <ele>47.719999999999999</ele>
        <time>2023-08-17T08:43:54Z</time>
      </trkpt>
      <trkpt lat="55.614915015175939" lon="-2.469137012958527">
        <ele>48.68</ele>
        <time>2023-08-17T08:43:55Z</time>
      </trkpt>
      <trkpt lat="55.614890959113836" lon="-2.469443958252668">
        <ele>50.130000000000003</ele>
        <time>2023-08-17T08:43:56Z</time>
      </trkpt>
      <trkpt lat="55.614715022966266" lon="-2.470976002514362">
        <ele>54.93</ele>
        <time>2023-08-17T08:44:01Z</time>
      </trkpt>
      <trkpt lat="55.61470303684473" lon="-2.471301974728704">
        <ele>56.369999999999997</ele>
        <time>2023-08-17T08:44:02Z</time>
      </trkpt>
      <trkpt lat="55.615033032372594" lon="-2.47421401552856">
        <ele>65.510000000000005</ele>
        <time>2023-08-17T08:44:11Z</time>
      </trkpt>
      <trkpt lat="55.615085000172257" lon="-2.47449598275125">
        <ele>66.469999999999999</ele>
        <time>2023-08-17T08:44:12Z</time>
      </trkpt>
      <trkpt lat="55.615164963528514" lon="-2.474755989387631">
        <ele>67.430000000000007</ele>
        <time>2023-08-17T08:44:13Z</time>
      </trkpt>
      <trkpt lat="55.615247022360563" lon="-2.47501197271049">
        <ele>68.870000000000005</ele>
        <time>2023-08-17T08:44:14Z</time>
      </trkpt>
      <trkpt lat="55.616001980379224" lon="-2.476534964516759">
        <ele>75.599999999999994</ele>
        <time>2023-08-17T08:44:21Z</time>
      </trkpt>
      <trkpt lat="55.616140030324459" lon="-2.476726993918419">
        <ele>76.079999999999998</ele>
        <time>2023-08-17T08:44:22Z</time>
      </trkpt>
      <trkpt lat="55.617519021034241" lon="-2.478643013164401">
        <ele>76.560000000000002</ele>
        <time>2023-08-17T08:44:31Z</time>
      </trkpt>
      <trkpt lat="55.61904301866889" lon="-2.480845022946596">
        <ele>72.239999999999995</ele>
        <time>2023-08-17T08:44:41Z</time>
      </trkpt>
      <trkpt lat="55.619200011715293" lon="-2.481082985177636">
        <ele>71.760000000000005</ele>
        <time>2023-08-17T08:44:42Z</time>
      </trkpt>
      <trkpt lat="55.620170971378684" lon="-2.483446011319757">
        <ele>72.719999999999999</ele>
        <time>2023-08-17T08:44:51Z</time>
      </trkpt>
      <trkpt lat="55.621206974610686" lon="-2.486171973869205">
        <ele>73.680000000000007</ele>
        <time>2023-08-17T08:45:01Z</time>
      </trkpt>
      <trkpt lat="55.622279020026326" lon="-2.488488983362913">
        <ele>76.560000000000002</ele>
        <time>2023-08-17T08:45:10Z</time>
      </trkpt>
      <trkpt lat="55.622572973370552" lon="-2.489229021593928">
        <ele>78</ele>
        <time>2023-08-17T08:45:13Z</time>
      </trkpt>
      <trkpt lat="55.622662995010614" lon="-2.489461032673717">
        <ele>78</ele>
        <time>2023-08-17T08:45:14Z</time>
      </trkpt>
      <trkpt lat="55.622766008600593" lon="-2.489682985469699">
        <ele>78.480000000000004</ele>
        <time>2023-08-17T08:45:15Z</time>
      </trkpt>
      <trkpt lat="55.623924974352121" lon="-2.491552988067269">
        <ele>82.810000000000002</ele>
        <time>2023-08-17T08:45:23Z</time>
      </trkpt>
      <trkpt lat="55.625234981998801" lon="-2.494054986163974">
        <ele>90.980000000000004</ele>
        <time>2023-08-17T08:45:33Z</time>
      </trkpt>
      <trkpt lat="55.625818027183414" lon="-2.495935969054699">
        <ele>87.620000000000005</ele>
        <time>2023-08-17T08:45:40Z</time>
      </trkpt>
      <trkpt lat="55.625871000811458" lon="-2.496156999841332">
        <ele>86.659999999999997</ele>
        <time>2023-08-17T08:45:41Z</time>
      </trkpt>
      <trkpt lat="55.625920034945011" lon="-2.496361015364528">
        <ele>86.180000000000007</ele>
        <time>2023-08-17T08:45:42Z</time>
      </trkpt>
      <trkpt lat="55.625993963330984" lon="-2.496522031724453">
        <ele>85.209999999999994</ele>
        <time>2023-08-17T08:45:43Z</time>
      </trkpt>
      <trkpt lat="55.626079039648175" lon="-2.49664600007236">
        <ele>84.730000000000004</ele>
        <time>2023-08-17T08:45:44Z</time>
      </trkpt>
      <trkpt lat="55.626175012439489" lon="-2.496741972863674">
        <ele>83.769999999999996</ele>
        <time>2023-08-17T08:45:45Z</time>
      </trkpt>
      <trkpt lat="55.626282971352339" lon="-2.496798969805241">
        <ele>82.810000000000002</ele>
        <time>2023-08-17T08:45:46Z</time>
      </trkpt>
      <trkpt lat="55.626397971063852" lon="-2.496810033917427">
        <ele>81.849999999999994</ele>
        <time>2023-08-17T08:45:47Z</time>
      </trkpt>
      <trkpt lat="55.626514982432127" lon="-2.496822020038962">
        <ele>80.890000000000001</ele>
        <time>2023-08-17T08:45:48Z</time>
      </trkpt>
      <trkpt lat="55.626630987972021" lon="-2.496834006160498">
        <ele>79.930000000000007</ele>
        <time>2023-08-17T08:45:49Z</time>
      </trkpt>
      <trkpt lat="55.626752022653818" lon="-2.496845992282033">
        <ele>78.969999999999999</ele>
        <time>2023-08-17T08:45:50Z</time>
      </trkpt>
      <trkpt lat="55.626862999051809" lon="-2.496856972575188">
        <ele>78</ele>
        <time>2023-08-17T08:45:51Z</time>
      </trkpt>
      <trkpt lat="55.626942040398717" lon="-2.496993010863662">
        <ele>77.519999999999996</ele>
        <time>2023-08-17T08:45:52Z</time>
      </trkpt>
      <trkpt lat="55.627042036503553" lon="-2.497180011123419">
        <ele>77.040000000000006</ele>
        <time>2023-08-17T08:45:53Z</time>
      </trkpt>
      <trkpt lat="55.627070032060146" lon="-2.497313031926751">
        <ele>76.560000000000002</ele>
        <time>2023-08-17T08:45:54Z</time>
      </trkpt>
      <trkpt lat="55.627105990424752" lon="-2.497520986944437">
        <ele>76.560000000000002</ele>
        <time>2023-08-17T08:45:55Z</time>
      </trkpt>
      <trkpt lat="55.627105990424752" lon="-2.497748974710703">
        <ele>76.560000000000002</ele>
        <time>2023-08-17T08:45:56Z</time>
      </trkpt>
      <trkpt lat="55.627103978767991" lon="-2.497993977740407">
        <ele>77.040000000000006</ele>
        <time>2023-08-17T08:45:57Z</time>
      </trkpt>
      <trkpt lat="55.6271000392735" lon="-2.500397991389036">
        <ele>84.730000000000004</ele>
        <time>2023-08-17T08:46:06Z</time>
      </trkpt>
      <trkpt lat="55.627432968467474" lon="-2.502693040296435">
        <ele>90.5</ele>
        <time>2023-08-17T08:46:15Z</time>
      </trkpt>
      <trkpt lat="55.628284988924861" lon="-2.505527967587113">
        <ele>93.390000000000001</ele>
        <time>2023-08-17T08:46:28Z</time>
      </trkpt>
      <trkpt lat="55.628504008054733" lon="-2.506255013868213">
        <ele>94.829999999999998</ele>
        <time>2023-08-17T08:46:31Z</time>
      </trkpt>
      <trkpt lat="55.62856201082468" lon="-2.506514014676213">
        <ele>95.790000000000006</ele>
        <time>2023-08-17T08:46:32Z</time>
      </trkpt>
      <trkpt lat="55.628598975017667" lon="-2.506780978292227">
        <ele>96.75</ele>
        <time>2023-08-17T08:46:33Z</time>
      </trkpt>
      <trkpt lat="55.628714980557561" lon="-2.508302964270115">
        <ele>103</ele>
        <time>2023-08-17T08:46:39Z</time>
      </trkpt>
      <trkpt lat="55.628714980557561" lon="-2.508578980341554">
        <ele>104.92</ele>
        <time>2023-08-17T08:46:41Z</time>
      </trkpt>
      <trkpt lat="55.62871397472918" lon="-2.508707977831364">
        <ele>105.88</ele>
        <time>2023-08-17T08:46:42Z</time>
      </trkpt>
      <trkpt lat="55.628695031628013" lon="-2.508795987814665">
        <ele>106.84</ele>
        <time>2023-08-17T08:46:43Z</time>
      </trkpt>
      <trkpt lat="55.628634011372924" lon="-2.509078960865736">
        <ele>109.25</ele>
        <time>2023-08-17T08:46:46Z</time>
      </trkpt>
      <trkpt lat="55.628611966967583" lon="-2.509183986112475">
        <ele>110.20999999999999</ele>
        <time>2023-08-17T08:46:47Z</time>
      </trkpt>
      <trkpt lat="55.628355983644724" lon="-2.510372959077358">
        <ele>111.65000000000001</ele>
        <time>2023-08-17T08:46:57Z</time>
      </trkpt>
      <trkpt lat="55.628079967573285" lon="-2.511651031672955">
        <ele>111.17</ele>
        <time>2023-08-17T08:47:06Z</time>
      </trkpt>
      <trkpt lat="55.628049960359931" lon="-2.5117920152843">
        <ele>110.69</ele>
        <time>2023-08-17T08:47:07Z</time>
      </trkpt>
      <trkpt lat="55.627996986731887" lon="-2.511885976418853">
        <ele>110.69</ele>
        <time>2023-08-17T08:47:08Z</time>
      </trkpt>
      <trkpt lat="55.627267006784678" lon="-2.513073021546006">
        <ele>108.77</ele>
        <time>2023-08-17T08:47:18Z</time>
      </trkpt>
      <trkpt lat="55.626418003812432" lon="-2.513814987614751">
        <ele>106.84</ele>
        <time>2023-08-17T08:47:27Z</time>
      </trkpt>
      <trkpt lat="55.625862032175064" lon="-2.514130985364318">
        <ele>106.36</ele>
        <time>2023-08-17T08:47:34Z</time>
      </trkpt>
      <trkpt lat="55.625807968899608" lon="-2.514161998406053">
        <ele>105.88</ele>
        <time>2023-08-17T08:47:35Z</time>
      </trkpt>
      <trkpt lat="55.625598002225161" lon="-2.514376994222403">
        <ele>103.95999999999999</ele>
        <time>2023-08-17T08:47:43Z</time>
      </trkpt>
      <trkpt lat="55.625542011111975" lon="-2.51445603556931">
        <ele>103</ele>
        <time>2023-08-17T08:47:53Z</time>
      </trkpt>
      <trkpt lat="55.625437991693616" lon="-2.514602970331907">
        <ele>102.04000000000001</ele>
        <time>2023-08-17T08:54:26Z</time>
      </trkpt>
      <trkpt lat="55.625409996137023" lon="-2.514643035829067">
        <ele>101.56</ele>
        <time>2023-08-17T08:54:27Z</time>
      </trkpt>
      <trkpt lat="55.625377977266908" lon="-2.514689974486828">
        <ele>101.56</ele>
        <time>2023-08-17T08:54:28Z</time>
      </trkpt>
      <trkpt lat="55.625336989760399" lon="-2.514747977256775">
        <ele>102.04000000000001</ele>
        <time>2023-08-17T08:54:29Z</time>
      </trkpt>
      <trkpt lat="55.625282004475594" lon="-2.514825006946921">
        <ele>101.08</ele>
        <time>2023-08-17T08:54:30Z</time>
      </trkpt>
      <trkpt lat="55.625196006149054" lon="-2.514946041628718">
        <ele>100.11</ele>
        <time>2023-08-17T08:54:31Z</time>
      </trkpt>
      <trkpt lat="55.624589994549751" lon="-2.51578900963068">
        <ele>92.900000000000006</ele>
        <time>2023-08-17T08:54:39Z</time>
      </trkpt>
      <trkpt lat="55.624165032058954" lon="-2.51634699292481">
        <ele>88.579999999999998</ele>
        <time>2023-08-17T08:54:47Z</time>
      </trkpt>
      <trkpt lat="55.623772004619241" lon="-2.516548996791244">
        <ele>86.659999999999997</ele>
        <time>2023-08-17T08:54:57Z</time>
      </trkpt>
      <trkpt lat="55.623734034597874" lon="-2.51656299456954">
        <ele>88.579999999999998</ele>
        <time>2023-08-17T08:55:08Z</time>
      </trkpt>
      <trkpt lat="55.623732022941113" lon="-2.51656299456954">
        <ele>85.689999999999998</ele>
        <time>2023-08-17T08:55:18Z</time>
      </trkpt>
      <trkpt lat="55.623820032924414" lon="-2.516531981527805">
        <ele>85.689999999999998</ele>
        <time>2023-08-17T08:55:21Z</time>
      </trkpt>
      <trkpt lat="55.623861020430923" lon="-2.516516977921128">
        <ele>85.689999999999998</ele>
        <time>2023-08-17T08:55:22Z</time>
      </trkpt>
      <trkpt lat="55.623909970745444" lon="-2.516499040648341">
        <ele>85.209999999999994</ele>
        <time>2023-08-17T08:55:23Z</time>
      </trkpt>
      <trkpt lat="55.623959004878998" lon="-2.516473978757858">
        <ele>85.209999999999994</ele>
        <time>2023-08-17T08:55:24Z</time>
      </trkpt>
      <trkpt lat="55.624013990163803" lon="-2.516440032050014">
        <ele>85.209999999999994</ele>
        <time>2023-08-17T08:55:25Z</time>
      </trkpt>
      <trkpt lat="55.624067969620228" lon="-2.516407007351518">
        <ele>85.209999999999994</ele>
        <time>2023-08-17T08:55:26Z</time>
      </trkpt>
      <trkpt lat="55.624291012063622" lon="-2.516206009313464">
        <ele>85.209999999999994</ele>
        <time>2023-08-17T08:55:35Z</time>
      </trkpt>
      <trkpt lat="55.624427972361445" lon="-2.516014985740185">
        <ele>84.25</ele>
        <time>2023-08-17T08:55:46Z</time>
      </trkpt>
      <trkpt lat="55.624732989817858" lon="-2.515592034906149">
        <ele>85.209999999999994</ele>
        <time>2023-08-17T08:55:51Z</time>
      </trkpt>
      <trkpt lat="55.624800967052579" lon="-2.515495978295803">
        <ele>85.689999999999998</ele>
        <time>2023-08-17T08:55:52Z</time>
      </trkpt>
      <trkpt lat="55.625009005889297" lon="-2.515205964446068">
        <ele>85.209999999999994</ele>
        <time>2023-08-17T08:55:56Z</time>
      </trkpt>
      <trkpt lat="55.625045970082283" lon="-2.515155002474785">
        <ele>84.730000000000004</ele>
        <time>2023-08-17T08:55:57Z</time>
      </trkpt>
      <trkpt lat="55.625075977295637" lon="-2.515113009139895">
        <ele>84.730000000000004</ele>
        <time>2023-08-17T08:55:58Z</time>
      </trkpt>
      <trkpt lat="55.625106990337372" lon="-2.515071015805006">
        <ele>84.730000000000004</ele>
        <time>2023-08-17T08:55:59Z</time>
      </trkpt>
      <trkpt lat="55.625135991722345" lon="-2.515031034126878">
        <ele>84.25</ele>
        <time>2023-08-17T08:56:00Z</time>
      </trkpt>
      <trkpt lat="55.625164993107319" lon="-2.514989962801337">
        <ele>84.25</ele>
        <time>2023-08-17T08:56:01Z</time>
      </trkpt>
      <trkpt lat="55.625199023634195" lon="-2.514943024143577">
        <ele>84.25</ele>
        <time>2023-08-17T08:56:02Z</time>
      </trkpt>
      <trkpt lat="55.625432040542364" lon="-2.514612022787333">
        <ele>81.849999999999994</ele>
        <time>2023-08-17T08:56:09Z</time>
      </trkpt>
      <trkpt lat="55.625450983643532" lon="-2.51458503305912">
        <ele>81.849999999999994</ele>
        <time>2023-08-17T08:56:10Z</time>
      </trkpt>
      <trkpt lat="55.62546799890697" lon="-2.514561982825398">
        <ele>81.370000000000005</ele>
        <time>2023-08-17T08:56:11Z</time>
      </trkpt>
      <trkpt lat="55.625480990856886" lon="-2.514543039724231">
        <ele>81.370000000000005</ele>
        <time>2023-08-17T08:56:12Z</time>
      </trkpt>
      <trkpt lat="55.625494988635182" lon="-2.514523006975651">
        <ele>81.370000000000005</ele>
        <time>2023-08-17T08:56:13Z</time>
      </trkpt>
      <trkpt lat="55.62551099807024" lon="-2.51450096257031">
        <ele>80.890000000000001</ele>
        <time>2023-08-17T08:56:14Z</time>
      </trkpt>
      <trkpt lat="55.625526001676917" lon="-2.514479001984">
        <ele>80.890000000000001</ele>
        <time>2023-08-17T08:56:15Z</time>
      </trkpt>
      <trkpt lat="55.625526001676917" lon="-2.514479001984">
        <ele>80.409999999999997</ele>
        <time>2023-08-17T08:56:28Z</time>
      </trkpt>
      <trkpt lat="55.625526001676917" lon="-2.514479001984">
        <ele>80.409999999999997</ele>
        <time>2023-08-17T08:57:11Z</time>
      </trkpt>
      <trkpt lat="55.625526001676917" lon="-2.514479001984">
        <ele>80.409999999999997</ele>
        <time>2023-08-17T08:57:54Z</time>
      </trkpt>
      <trkpt lat="55.625526001676917" lon="-2.514479001984">
        <ele>79.930000000000007</ele>
        <time>2023-08-17T08:58:39Z</time>
      </trkpt>
      <trkpt lat="55.625526001676917" lon="-2.514479001984">
        <ele>79.930000000000007</ele>
        <time>2023-08-17T08:59:18Z</time>
      </trkpt>
      <trkpt lat="55.625526001676917" lon="-2.514479001984">
        <ele>80.409999999999997</ele>
        <time>2023-08-17T08:59:57Z</time>
      </trkpt>
      <trkpt lat="55.625526001676917" lon="-2.514479001984">
        <ele>80.890000000000001</ele>
        <time>2023-08-17T09:00:30Z</time>
      </trkpt>
      <trkpt lat="55.625526001676917" lon="-2.514479001984">
        <ele>80.890000000000001</ele>
        <time>2023-08-17T09:00:42Z</time>
      </trkpt>
      <trkpt lat="55.625340007245541" lon="-2.514743031933904">
        <ele>81.370000000000005</ele>
        <time>2023-08-17T09:00:51Z</time>
      </trkpt>
      <trkpt lat="55.625196006149054" lon="-2.514946041628718">
        <ele>81.370000000000005</ele>
        <time>2023-08-17T09:00:52Z</time>
      </trkpt>
      <trkpt lat="55.625196006149054" lon="-2.514946041628718">
        <ele>81.370000000000005</ele>
        <time>2023-08-17T09:00:53Z</time>
      </trkpt>
      <trkpt lat="55.625569000840187" lon="-2.515455996617675">
        <ele>81.370000000000005</ele>
        <time>2023-08-17T09:00:55Z</time>
      </trkpt>
      <trkpt lat="55.626030005514622" lon="-2.516431985422969">
        <ele>84.25</ele>
        <time>2023-08-17T09:01:05Z</time>
      </trkpt>
      <trkpt lat="55.626467959955335" lon="-2.517405962571502">
        <ele>87.620000000000005</ele>
        <time>2023-08-17T09:01:16Z</time>
      </trkpt>
      <trkpt lat="55.626588994637132" lon="-2.517638979479671">
        <ele>89.060000000000002</ele>
        <time>2023-08-17T09:01:19Z</time>
      </trkpt>
      <trkpt lat="55.62688797712326" lon="-2.518143989145756">
        <ele>91.939999999999998</ele>
        <time>2023-08-17T09:01:27Z</time>
      </trkpt>
      <trkpt lat="55.626956038177013" lon="-2.518254965543747">
        <ele>92.900000000000006</ele>
        <time>2023-08-17T09:01:29Z</time>
      </trkpt>
      <trkpt lat="55.627236999571323" lon="-2.518595019355416">
        <ele>94.829999999999998</ele>
        <time>2023-08-17T09:01:36Z</time>
      </trkpt>
      <trkpt lat="55.627437997609377" lon="-2.518810015171766">
        <ele>97.709999999999994</ele>
        <time>2023-08-17T09:01:47Z</time>
      </trkpt>
      <trkpt lat="55.627437997609377" lon="-2.518810015171766">
        <ele>97.709999999999994</ele>
        <time>2023-08-17T09:02:08Z</time>
      </trkpt>
      <trkpt lat="55.627437997609377" lon="-2.518810015171766">
        <ele>97.709999999999994</ele>
        <time>2023-08-17T09:02:11Z</time>
      </trkpt>
      <trkpt lat="55.62735702842474" lon="-2.518626032397151">
        <ele>105.40000000000001</ele>
        <time>2023-08-17T09:02:16Z</time>
      </trkpt>
      <trkpt lat="55.627161981537938" lon="-2.518399972468615">
        <ele>106.36</ele>
        <time>2023-08-17T09:02:20Z</time>
      </trkpt>
      <trkpt lat="55.626780018210411" lon="-2.51783000305295">
        <ele>103</ele>
        <time>2023-08-17T09:02:27Z</time>
      </trkpt>
      <trkpt lat="55.626702988520265" lon="-2.517655994743109">
        <ele>102.04000000000001</ele>
        <time>2023-08-17T09:02:29Z</time>
      </trkpt>
      <trkpt lat="55.626597963273525" lon="-2.517457008361816">
        <ele>101.08</ele>
        <time>2023-08-17T09:02:31Z</time>
      </trkpt>
      <trkpt lat="55.626387996599078" lon="-2.516979994252324">
        <ele>98.189999999999998</ele>
        <time>2023-08-17T09:02:35Z</time>
      </trkpt>
      <trkpt lat="55.626136958599091" lon="-2.516461992636323">
        <ele>95.310000000000002</ele>
        <time>2023-08-17T09:02:39Z</time>
      </trkpt>
      <trkpt lat="55.625593978911638" lon="-2.515407968312502">
        <ele>93.390000000000001</ele>
        <time>2023-08-17T09:02:49Z</time>
      </trkpt>
      <trkpt lat="55.625556008890271" lon="-2.515336973592639">
        <ele>92.900000000000006</ele>
        <time>2023-08-17T09:02:50Z</time>
      </trkpt>
      <trkpt lat="55.625489037483931" lon="-2.515076966956258">
        <ele>91.939999999999998</ele>
        <time>2023-08-17T09:02:53Z</time>
      </trkpt>
      <trkpt lat="55.625386023893952" lon="-2.514677988365293">
        <ele>91.939999999999998</ele>
        <time>2023-08-17T09:02:55Z</time>
      </trkpt>
      <trkpt lat="55.625420976430178" lon="-2.51462803222239">
        <ele>91.459999999999994</ele>
        <time>2023-08-17T09:02:56Z</time>
      </trkpt>
      <trkpt lat="55.625503035262227" lon="-2.514512026682496">
        <ele>90.980000000000004</ele>
        <time>2023-08-17T09:02:58Z</time>
      </trkpt>
      <trkpt lat="55.625569000840187" lon="-2.514418987557292">
        <ele>91.459999999999994</ele>
        <time>2023-08-17T09:03:01Z</time>
      </trkpt>
      <trkpt lat="55.625608982518315" lon="-2.514360984787345">
        <ele>91.459999999999994</ele>
        <time>2023-08-17T09:03:02Z</time>
      </trkpt>
      <trkpt lat="55.625656004995108" lon="-2.514296025037766">
        <ele>91.459999999999994</ele>
        <time>2023-08-17T09:03:03Z</time>
      </trkpt>
      <trkpt lat="55.625708978623152" lon="-2.514220001176">
        <ele>91.459999999999994</ele>
        <time>2023-08-17T09:03:04Z</time>
      </trkpt>
      <trkpt lat="55.625763041898608" lon="-2.514186976477504">
        <ele>91.459999999999994</ele>
        <time>2023-08-17T09:03:05Z</time>
      </trkpt>
      <trkpt lat="55.625823978334665" lon="-2.514153029769659">
        <ele>91.459999999999994</ele>
        <time>2023-08-17T09:03:06Z</time>
      </trkpt>
      <trkpt lat="55.625882986932993" lon="-2.514118999242783">
        <ele>91.459999999999994</ele>
        <time>2023-08-17T09:03:07Z</time>
      </trkpt>
      <trkpt lat="55.62594098970294" lon="-2.514086980372667">
        <ele>91.459999999999994</ele>
        <time>2023-08-17T09:03:08Z</time>
      </trkpt>
      <trkpt lat="55.625991029664874" lon="-2.514057978987694">
        <ele>91.459999999999994</ele>
        <time>2023-08-17T09:03:09Z</time>
      </trkpt>
      <trkpt lat="55.626050960272551" lon="-2.514024032279849">
        <ele>91.459999999999994</ele>
        <time>2023-08-17T09:03:10Z</time>
      </trkpt>
      <trkpt lat="55.626114998012781" lon="-2.513987990096211">
        <ele>91.939999999999998</ele>
        <time>2023-08-17T09:03:11Z</time>
      </trkpt>
      <trkpt lat="55.626180041581392" lon="-2.513950020074844">
        <ele>91.939999999999998</ele>
        <time>2023-08-17T09:03:12Z</time>
      </trkpt>
      <trkpt lat="55.626940028741956" lon="-2.513441992923617">
        <ele>95.790000000000006</ele>
        <time>2023-08-17T09:03:22Z</time>
      </trkpt>
      <trkpt lat="55.627694986760616" lon="-2.51241403631866">
        <ele>98.189999999999998</ele>
        <time>2023-08-17T09:03:33Z</time>
      </trkpt>
      <trkpt lat="55.627838987857103" lon="-2.512161992490292">
        <ele>99.629999999999995</ele>
        <time>2023-08-17T09:03:36Z</time>
      </trkpt>
      <trkpt lat="55.627887016162276" lon="-2.512078005820513">
        <ele>99.629999999999995</ele>
        <time>2023-08-17T09:03:37Z</time>
      </trkpt>
      <trkpt lat="55.627925992012024" lon="-2.512010028585792">
        <ele>100.11</ele>
        <time>2023-08-17T09:03:38Z</time>
      </trkpt>
      <trkpt lat="55.627948958426714" lon="-2.511969041079283">
        <ele>100.11</ele>
        <time>2023-08-17T09:03:39Z</time>
      </trkpt>
      <trkpt lat="55.627962034195662" lon="-2.511945990845561">
        <ele>100.59999999999999</ele>
        <time>2023-08-17T09:03:40Z</time>
      </trkpt>
      <trkpt lat="55.627962034195662" lon="-2.511945990845561">
        <ele>102.52</ele>
        <time>2023-08-17T09:03:45Z</time>
      </trkpt>
      <trkpt lat="55.627998998388648" lon="-2.511882036924362">
        <ele>103</ele>
        <time>2023-08-17T09:03:46Z</time>
      </trkpt>
      <trkpt lat="55.628049960359931" lon="-2.5117920152843">
        <ele>103</ele>
        <time>2023-08-17T09:03:47Z</time>
      </trkpt>
      <trkpt lat="55.628066975623369" lon="-2.511713979765773">
        <ele>103.48</ele>
        <time>2023-08-17T09:03:48Z</time>
      </trkpt>
      <trkpt lat="55.628093965351582" lon="-2.511589005589485">
        <ele>103.95999999999999</ele>
        <time>2023-08-17T09:03:49Z</time>
      </trkpt>
      <trkpt lat="55.628122966736555" lon="-2.511454978957772">
        <ele>103.95999999999999</ele>
        <time>2023-08-17T09:03:50Z</time>
      </trkpt>
      <trkpt lat="55.628456985577941" lon="-2.50990197993815">
        <ele>106.36</ele>
        <time>2023-08-17T09:03:59Z</time>
      </trkpt>
      <trkpt lat="55.628530997782946" lon="-2.509556980803609">
        <ele>106.84</ele>
        <time>2023-08-17T09:04:02Z</time>
      </trkpt>
      <trkpt lat="55.628556981682777" lon="-2.509438963606954">
        <ele>107.31999999999999</ele>
        <time>2023-08-17T09:04:03Z</time>
      </trkpt>
      <trkpt lat="55.628640968352556" lon="-2.509049037471414">
        <ele>107.81</ele>
        <time>2023-08-17T09:04:06Z</time>
      </trkpt>
      <trkpt lat="55.628659995272756" lon="-2.508958010002971">
        <ele>107.81</ele>
        <time>2023-08-17T09:04:07Z</time>
      </trkpt>
      <trkpt lat="55.628674998879433" lon="-2.508889026939869">
        <ele>107.31999999999999</ele>
        <time>2023-08-17T09:04:08Z</time>
      </trkpt>
      <trkpt lat="55.628714980557561" lon="-2.508685011416674">
        <ele>106.84</ele>
        <time>2023-08-17T09:04:11Z</time>
      </trkpt>
      <trkpt lat="55.628714980557561" lon="-2.508578980341554">
        <ele>106.84</ele>
        <time>2023-08-17T09:04:12Z</time>
      </trkpt>
      <trkpt lat="55.628714980557561" lon="-2.508449982851744">
        <ele>106.84</ele>
        <time>2023-08-17T09:04:13Z</time>
      </trkpt>
      <trkpt lat="55.628714980557561" lon="-2.508283015340567">
        <ele>106.84</ele>
        <time>2023-08-17T09:04:14Z</time>
      </trkpt>
      <trkpt lat="55.62871104106307" lon="-2.508092997595668">
        <ele>106.36</ele>
        <time>2023-08-17T09:04:15Z</time>
      </trkpt>
      <trkpt lat="55.628699976950884" lon="-2.507873978465796">
        <ele>105.40000000000001</ele>
        <time>2023-08-17T09:04:16Z</time>
      </trkpt>
      <trkpt lat="55.628687990829349" lon="-2.507626041769981">
        <ele>104.92</ele>
        <time>2023-08-17T09:04:17Z</time>
      </trkpt>
      <trkpt lat="55.628674998879433" lon="-2.507361005991697">
        <ele>103.95999999999999</ele>
        <time>2023-08-17T09:04:18Z</time>
      </trkpt>
      <trkpt lat="55.628563016653061" lon="-2.506527006626129">
        <ele>102.04000000000001</ele>
        <time>2023-08-17T09:04:21Z</time>
      </trkpt>
      <trkpt lat="55.628509037196636" lon="-2.50627001747489">
        <ele>101.08</ele>
        <time>2023-08-17T09:04:22Z</time>
      </trkpt>
      <trkpt lat="55.627937978133559" lon="-2.504379982128739">
        <ele>94.829999999999998</ele>
        <time>2023-08-17T09:04:31Z</time>
      </trkpt>
      <trkpt lat="55.627225013449788" lon="-2.50173800624907">
        <ele>94.829999999999998</ele>
        <time>2023-08-17T09:04:43Z</time>
      </trkpt>
      <trkpt lat="55.627053016796708" lon="-2.498957980424166">
        <ele>90.5</ele>
        <time>2023-08-17T09:04:54Z</time>
      </trkpt>
      <trkpt lat="55.627105990424752" lon="-2.497680997475982">
        <ele>86.180000000000007</ele>
        <time>2023-08-17T09:04:59Z</time>
      </trkpt>
      <trkpt lat="55.627105990424752" lon="-2.497479999437928">
        <ele>85.689999999999998</ele>
        <time>2023-08-17T09:05:00Z</time>
      </trkpt>
      <trkpt lat="55.627060979604721" lon="-2.497269026935101">
        <ele>85.209999999999994</ele>
        <time>2023-08-17T09:05:01Z</time>
      </trkpt>
      <trkpt lat="55.627005994319916" lon="-2.497113039717078">
        <ele>84.730000000000004</ele>
        <time>2023-08-17T09:05:02Z</time>
      </trkpt>
      <trkpt lat="55.626936005428433" lon="-2.496981024742127">
        <ele>84.730000000000004</ele>
        <time>2023-08-17T09:05:03Z</time>
      </trkpt>
      <trkpt lat="55.626852018758655" lon="-2.496855966746807">
        <ele>83.769999999999996</ele>
        <time>2023-08-17T09:05:04Z</time>
      </trkpt>
      <trkpt lat="55.626750010997057" lon="-2.496845992282033">
        <ele>83.769999999999996</ele>
        <time>2023-08-17T09:05:05Z</time>
      </trkpt>
      <trkpt lat="55.626641968265176" lon="-2.496835011988878">
        <ele>83.769999999999996</ele>
        <time>2023-08-17T09:05:06Z</time>
      </trkpt>
      <trkpt lat="55.626530991867185" lon="-2.496824031695724">
        <ele>83.769999999999996</ele>
        <time>2023-08-17T09:05:07Z</time>
      </trkpt>
      <trkpt lat="55.626424038782716" lon="-2.496812967583537">
        <ele>83.769999999999996</ele>
        <time>2023-08-17T09:05:08Z</time>
      </trkpt>
      <trkpt lat="55.626317001879215" lon="-2.496802993118763">
        <ele>83.769999999999996</ele>
        <time>2023-08-17T09:05:09Z</time>
      </trkpt>
      <trkpt lat="55.626210970804095" lon="-2.496778015047312">
        <ele>84.25</ele>
        <time>2023-08-17T09:05:10Z</time>
      </trkpt>
      <trkpt lat="55.626113992184401" lon="-2.496681958436966">
        <ele>84.730000000000004</ele>
        <time>2023-08-17T09:05:11Z</time>
      </trkpt>
      <trkpt lat="55.626022964715958" lon="-2.4965800344944">
        <ele>85.689999999999998</ele>
        <time>2023-08-17T09:05:12Z</time>
      </trkpt>
      <trkpt lat="55.625950964167714" lon="-2.496436033397913">
        <ele>86.180000000000007</ele>
        <time>2023-08-17T09:05:13Z</time>
      </trkpt>
      <trkpt lat="55.625894973054528" lon="-2.496254984289408">
        <ele>86.659999999999997</ele>
        <time>2023-08-17T09:05:14Z</time>
      </trkpt>
      <trkpt lat="55.625846022740006" lon="-2.496051974594593">
        <ele>87.620000000000005</ele>
        <time>2023-08-17T09:05:15Z</time>
      </trkpt>
      <trkpt lat="55.625794976949692" lon="-2.495835972949863">
        <ele>88.099999999999994</ele>
        <time>2023-08-17T09:05:16Z</time>
      </trkpt>
      <trkpt lat="55.625258032232523" lon="-2.494113994762301">
        <ele>93.870000000000005</ele>
        <time>2023-08-17T09:05:23Z</time>
      </trkpt>
      <trkpt lat="55.624223034828901" lon="-2.492076018825173">
        <ele>95.310000000000002</ele>
        <time>2023-08-17T09:05:31Z</time>
      </trkpt>
      <trkpt lat="55.623111007735133" lon="-2.49019998125732">
        <ele>88.579999999999998</ele>
        <time>2023-08-17T09:05:40Z</time>
      </trkpt>
      <trkpt lat="55.622691996395588" lon="-2.48953202739358">
        <ele>86.180000000000007</ele>
        <time>2023-08-17T09:05:45Z</time>
      </trkpt>
      <trkpt lat="55.621969979256392" lon="-2.487833015620709">
        <ele>83.769999999999996</ele>
        <time>2023-08-17T09:05:54Z</time>
      </trkpt>
      <trkpt lat="55.621586004272103" lon="-2.487017959356308">
        <ele>83.769999999999996</ele>
        <time>2023-08-17T09:06:00Z</time>
      </trkpt>
      <trkpt lat="55.621545016765594" lon="-2.486931961029768">
        <ele>83.769999999999996</ele>
        <time>2023-08-17T09:06:01Z</time>
      </trkpt>
      <trkpt lat="55.62151400372386" lon="-2.486864989623427">
        <ele>84.25</ele>
        <time>2023-08-17T09:06:02Z</time>
      </trkpt>
      <trkpt lat="55.621492965146899" lon="-2.486820984631777">
        <ele>84.25</ele>
        <time>2023-08-17T09:06:03Z</time>
      </trkpt>
      <trkpt lat="55.621477961540222" lon="-2.486788965761662">
        <ele>84.25</ele>
        <time>2023-08-17T09:06:04Z</time>
      </trkpt>
      <trkpt lat="55.621465975418687" lon="-2.48676298186183">
        <ele>84.25</ele>
        <time>2023-08-17T09:06:05Z</time>
      </trkpt>
      <trkpt lat="55.62145097181201" lon="-2.486732974648476">
        <ele>84.25</ele>
        <time>2023-08-17T09:06:06Z</time>
      </trkpt>
      <trkpt lat="55.621435968205333" lon="-2.486700033769012">
        <ele>84.25</ele>
        <time>2023-08-17T09:06:07Z</time>
      </trkpt>
      <trkpt lat="55.621419958770275" lon="-2.486664997413755">
        <ele>84.25</ele>
        <time>2023-08-17T09:06:08Z</time>
      </trkpt>
      <trkpt lat="55.621419958770275" lon="-2.486664997413755">
        <ele>84.25</ele>
        <time>2023-08-17T09:06:09Z</time>
      </trkpt>
      <trkpt lat="55.621404033154249" lon="-2.486629961058497">
        <ele>84.25</ele>
        <time>2023-08-17T09:06:10Z</time>
      </trkpt>
      <trkpt lat="55.621395986527205" lon="-2.486610012128949">
        <ele>84.25</ele>
        <time>2023-08-17T09:06:11Z</time>
      </trkpt>
      <trkpt lat="55.621387017890811" lon="-2.486589979380369">
        <ele>84.25</ele>
        <time>2023-08-17T09:06:12Z</time>
      </trkpt>
      <trkpt lat="55.621387017890811" lon="-2.486589979380369">
        <ele>84.25</ele>
        <time>2023-08-17T09:06:13Z</time>
      </trkpt>
      <trkpt lat="55.621387017890811" lon="-2.486589979380369">
        <ele>84.25</ele>
        <time>2023-08-17T09:06:18Z</time>
      </trkpt>
      <trkpt lat="55.621419958770275" lon="-2.486664997413755">
        <ele>83.769999999999996</ele>
        <time>2023-08-17T09:06:21Z</time>
      </trkpt>
      <trkpt lat="55.621463041752577" lon="-2.486757030710578">
        <ele>83.290000000000006</ele>
        <time>2023-08-17T09:06:22Z</time>
      </trkpt>
      <trkpt lat="55.621516015380621" lon="-2.48686901293695">
        <ele>83.290000000000006</ele>
        <time>2023-08-17T09:06:23Z</time>
      </trkpt>
      <trkpt lat="55.62157996930182" lon="-2.487005973234773">
        <ele>82.810000000000002</ele>
        <time>2023-08-17T09:06:24Z</time>
      </trkpt>
      <trkpt lat="55.62220199033618" lon="-2.488325033336878">
        <ele>82.810000000000002</ele>
        <time>2023-08-17T09:06:31Z</time>
      </trkpt>
      <trkpt lat="55.622872961685061" lon="-2.489842996001244">
        <ele>85.689999999999998</ele>
        <time>2023-08-17T09:06:38Z</time>
      </trkpt>
      <trkpt lat="55.62297597527504" lon="-2.489997977390885">
        <ele>86.180000000000007</ele>
        <time>2023-08-17T09:06:39Z</time>
      </trkpt>
      <trkpt lat="55.623418036848307" lon="-2.490661991760135">
        <ele>88.579999999999998</ele>
        <time>2023-08-17T09:06:45Z</time>
      </trkpt>
      <trkpt lat="55.623452989384532" lon="-2.490725023671985">
        <ele>89.060000000000002</ele>
        <time>2023-08-17T09:06:46Z</time>
      </trkpt>
      <trkpt lat="55.623494982719421" lon="-2.490905988961458">
        <ele>89.060000000000002</ele>
        <time>2023-08-17T09:06:47Z</time>
      </trkpt>
      <trkpt lat="55.62346899881959" lon="-2.490960974246264">
        <ele>89.540000000000006</ele>
        <time>2023-08-17T09:06:48Z</time>
      </trkpt>
      <trkpt lat="55.623429017141461" lon="-2.491044038906694">
        <ele>89.540000000000006</ele>
        <time>2023-08-17T09:06:49Z</time>
      </trkpt>
      <trkpt lat="55.623372020199895" lon="-2.491162978112698">
        <ele>89.540000000000006</ele>
        <time>2023-08-17T09:06:50Z</time>
      </trkpt>
      <trkpt lat="55.622839014977217" lon="-2.492270981892943">
        <ele>90.5</ele>
        <time>2023-08-17T09:06:56Z</time>
      </trkpt>
      <trkpt lat="55.621662028133869" lon="-2.495085038244724">
        <ele>94.829999999999998</ele>
        <time>2023-08-17T09:07:07Z</time>
      </trkpt>
      <trkpt lat="55.620457967743278" lon="-2.497869003564119">
        <ele>102.04000000000001</ele>
        <time>2023-08-17T09:07:19Z</time>
      </trkpt>
      <trkpt lat="55.618761973455548" lon="-2.501074997708201">
        <ele>109.73</ele>
        <time>2023-08-17T09:07:34Z</time>
      </trkpt>
      <trkpt lat="55.617421036586165" lon="-2.503600968047977">
        <ele>112.13</ele>
        <time>2023-08-17T09:07:46Z</time>
      </trkpt>
      <trkpt lat="55.617105038836598" lon="-2.504309993237257">
        <ele>112.13</ele>
        <time>2023-08-17T09:07:49Z</time>
      </trkpt>
      <trkpt lat="55.615840964019299" lon="-2.506666984409094">
        <ele>113.09</ele>
        <time>2023-08-17T09:08:00Z</time>
      </trkpt>
      <trkpt lat="55.614848965778947" lon="-2.508608987554908">
        <ele>115.01000000000001</ele>
        <time>2023-08-17T09:08:09Z</time>
      </trkpt>
      <trkpt lat="55.613746996968985" lon="-2.510730028152466">
        <ele>116.45999999999999</ele>
        <time>2023-08-17T09:08:19Z</time>
      </trkpt>
      <trkpt lat="55.612026024609804" lon="-2.513602003455162">
        <ele>121.73999999999999</ele>
        <time>2023-08-17T09:08:33Z</time>
      </trkpt>
      <trkpt lat="55.61036397702992" lon="-2.516178013756871">
        <ele>127.98999999999999</ele>
        <time>2023-08-17T09:08:46Z</time>
      </trkpt>
      <trkpt lat="55.609359992668033" lon="-2.518293019384146">
        <ele>131.84</ele>
        <time>2023-08-17T09:08:56Z</time>
      </trkpt>
      <trkpt lat="55.609157988801599" lon="-2.518745977431536">
        <ele>132.80000000000001</ele>
        <time>2023-08-17T09:08:59Z</time>
      </trkpt>
      <trkpt lat="55.609048018231988" lon="-2.518992992118001">
        <ele>134.72</ele>
        <time>2023-08-17T09:09:02Z</time>
      </trkpt>
      <trkpt lat="55.609025973826647" lon="-2.519041020423174">
        <ele>135.19999999999999</ele>
        <time>2023-08-17T09:09:03Z</time>
      </trkpt>
      <trkpt lat="55.608977023512125" lon="-2.519151996821165">
        <ele>137.13</ele>
        <time>2023-08-17T09:09:11Z</time>
      </trkpt>
      <trkpt lat="55.608959002420306" lon="-2.519191978499293">
        <ele>137.61000000000001</ele>
        <time>2023-08-17T09:09:12Z</time>
      </trkpt>
      <trkpt lat="55.608909968286753" lon="-2.519302032887936">
        <ele>137.61000000000001</ele>
        <time>2023-08-17T09:09:13Z</time>
      </trkpt>
      <trkpt lat="55.608934024348855" lon="-2.51939901150763">
        <ele>138.09</ele>
        <time>2023-08-17T09:09:14Z</time>
      </trkpt>
      <trkpt lat="55.608969982713461" lon="-2.519545024260879">
        <ele>138.09</ele>
        <time>2023-08-17T09:09:15Z</time>
      </trkpt>
      <trkpt lat="55.609013987705112" lon="-2.5197200383991">
        <ele>138.09</ele>
        <time>2023-08-17T09:09:16Z</time>
      </trkpt>
      <trkpt lat="55.60939502902329" lon="-2.52141703851521">
        <ele>136.16</ele>
        <time>2023-08-17T09:09:23Z</time>
      </trkpt>
      <trkpt lat="55.610101036727428" lon="-2.525101974606514">
        <ele>128.47</ele>
        <time>2023-08-17T09:09:36Z</time>
      </trkpt>
      <trkpt lat="55.610483000054955" lon="-2.527829026803374">
        <ele>121.73999999999999</ele>
        <time>2023-08-17T09:09:45Z</time>
      </trkpt>
      <trkpt lat="55.611001001670957" lon="-2.532192980870605">
        <ele>125.59</ele>
        <time>2023-08-17T09:09:59Z</time>
      </trkpt>
      <trkpt lat="55.611449014395475" lon="-2.535170987248421">
        <ele>133.75999999999999</ele>
        <time>2023-08-17T09:10:09Z</time>
      </trkpt>
      <trkpt lat="55.612273039296269" lon="-2.537327986210585">
        <ele>141.44999999999999</ele>
        <time>2023-08-17T09:10:17Z</time>
      </trkpt>
      <trkpt lat="55.613284986466169" lon="-2.539883041754365">
        <ele>149.13999999999999</ele>
        <time>2023-08-17T09:10:26Z</time>
      </trkpt>
      <trkpt lat="55.614771014079452" lon="-2.543439986184239">
        <ele>152.50999999999999</ele>
        <time>2023-08-17T09:10:38Z</time>
      </trkpt>
      <trkpt lat="55.615253979340196" lon="-2.545293979346752">
        <ele>153.94999999999999</ele>
        <time>2023-08-17T09:10:44Z</time>
      </trkpt>
      <trkpt lat="55.615282980725169" lon="-2.54556898958981">
        <ele>154.43000000000001</ele>
        <time>2023-08-17T09:10:45Z</time>
      </trkpt>
      <trkpt lat="55.61528499238193" lon="-2.545879036188126">
        <ele>154.91</ele>
        <time>2023-08-17T09:10:46Z</time>
      </trkpt>
      <trkpt lat="55.615299995988607" lon="-2.549138003960252">
        <ele>160.19999999999999</ele>
        <time>2023-08-17T09:10:55Z</time>
      </trkpt>
      <trkpt lat="55.615325979888439" lon="-2.551038013771176">
        <ele>163.56</ele>
        <time>2023-08-17T09:11:01Z</time>
      </trkpt>
      <trkpt lat="55.615388005971909" lon="-2.551344037055969">
        <ele>164.03999999999999</ele>
        <time>2023-08-17T09:11:02Z</time>
      </trkpt>
      <trkpt lat="55.615440979599953" lon="-2.551600020378828">
        <ele>164.52000000000001</ele>
        <time>2023-08-17T09:11:03Z</time>
      </trkpt>
      <trkpt lat="55.615496970713139" lon="-2.551875030621886">
        <ele>164.52000000000001</ele>
        <time>2023-08-17T09:11:04Z</time>
      </trkpt>
      <trkpt lat="55.61558498069644" lon="-2.552093965932727">
        <ele>164.52000000000001</ele>
        <time>2023-08-17T09:11:05Z</time>
      </trkpt>
      <trkpt lat="55.615685982629657" lon="-2.552346009761095">
        <ele>164.52000000000001</ele>
        <time>2023-08-17T09:11:06Z</time>
      </trkpt>
      <trkpt lat="55.616603968665004" lon="-2.554218024015427">
        <ele>162.12</ele>
        <time>2023-08-17T09:11:13Z</time>
      </trkpt>
      <trkpt lat="55.618166020140052" lon="-2.556042009964585">
        <ele>167.41</ele>
        <time>2023-08-17T09:11:22Z</time>
      </trkpt>
      <trkpt lat="55.619282992556691" lon="-2.557361992076039">
        <ele>171.72999999999999</ele>
        <time>2023-08-17T09:11:29Z</time>
      </trkpt>
      <trkpt lat="55.619771992787719" lon="-2.557978983968496">
        <ele>172.69</ele>
        <time>2023-08-17T09:11:35Z</time>
      </trkpt>
      <trkpt lat="55.620027976110578" lon="-2.558313002809882">
        <ele>173.16999999999999</ele>
        <time>2023-08-17T09:11:41Z</time>
      </trkpt>
      <trkpt lat="55.620056977495551" lon="-2.55835197865963">
        <ele>172.69</ele>
        <time>2023-08-17T09:11:42Z</time>
      </trkpt>
      <trkpt lat="55.620136018842459" lon="-2.558461027219892">
        <ele>173.16999999999999</ele>
        <time>2023-08-17T09:11:53Z</time>
      </trkpt>
      <trkpt lat="55.62035595998168" lon="-2.558812983334065">
        <ele>172.21000000000001</ele>
        <time>2023-08-17T09:12:05Z</time>
      </trkpt>
      <trkpt lat="55.620411029085517" lon="-2.558978023007512">
        <ele>172.21000000000001</ele>
        <time>2023-08-17T09:12:06Z</time>
      </trkpt>
      <trkpt lat="55.620411029085517" lon="-2.5591029971838">
        <ele>171.72999999999999</ele>
        <time>2023-08-17T09:12:07Z</time>
      </trkpt>
      <trkpt lat="55.620411029085517" lon="-2.559249009937048">
        <ele>171.72999999999999</ele>
        <time>2023-08-17T09:12:08Z</time>
      </trkpt>
      <trkpt lat="55.620382027700543" lon="-2.559409020468593">
        <ele>171.72999999999999</ele>
        <time>2023-08-17T09:12:09Z</time>
      </trkpt>
      <trkpt lat="55.620346991345286" lon="-2.559541035443544">
        <ele>171.72999999999999</ele>
        <time>2023-08-17T09:12:10Z</time>
      </trkpt>
      <trkpt lat="55.620314972475171" lon="-2.559658968821168">
        <ele>171.72999999999999</ele>
        <time>2023-08-17T09:12:11Z</time>
      </trkpt>
      <trkpt lat="55.620261998847127" lon="-2.559858039021492">
        <ele>171.72999999999999</ele>
        <time>2023-08-17T09:12:13Z</time>
      </trkpt>
      <trkpt lat="55.620192009955645" lon="-2.5599629804492">
        <ele>171.72999999999999</ele>
        <time>2023-08-17T09:12:14Z</time>
      </trkpt>
      <trkpt lat="55.620130989700556" lon="-2.559989970177412">
        <ele>171.72999999999999</ele>
        <time>2023-08-17T09:12:15Z</time>
      </trkpt>
      <trkpt lat="55.620064018294215" lon="-2.560043027624488">
        <ele>171.25</ele>
        <time>2023-08-17T09:12:16Z</time>
      </trkpt>
      <trkpt lat="55.619999980553985" lon="-2.56013497710228">
        <ele>171.25</ele>
        <time>2023-08-17T09:12:17Z</time>
      </trkpt>
      <trkpt lat="55.619933009147644" lon="-2.560231033712626">
        <ele>171.25</ele>
        <time>2023-08-17T09:12:18Z</time>
      </trkpt>
      <trkpt lat="55.619866037741303" lon="-2.56032700650394">
        <ele>170.77000000000001</ele>
        <time>2023-08-17T09:12:19Z</time>
      </trkpt>
      <trkpt lat="55.619651963934302" lon="-2.560761021450162">
        <ele>170.28999999999999</ele>
        <time>2023-08-17T09:12:23Z</time>
      </trkpt>
      <trkpt lat="55.619605025276542" lon="-2.560871997848153">
        <ele>169.33000000000001</ele>
        <time>2023-08-17T09:12:24Z</time>
      </trkpt>
      <trkpt lat="55.619552973657846" lon="-2.56099496036768">
        <ele>169.33000000000001</ele>
        <time>2023-08-17T09:12:25Z</time>
      </trkpt>
      <trkpt lat="55.619531013071537" lon="-2.561066038906574">
        <ele>168.84999999999999</ele>
        <time>2023-08-17T09:12:26Z</time>
      </trkpt>
      <trkpt lat="55.619503017514944" lon="-2.561161005869508">
        <ele>168.84999999999999</ele>
        <time>2023-08-17T09:12:27Z</time>
      </trkpt>
      <trkpt lat="55.619472004473209" lon="-2.561262007802725">
        <ele>168.37</ele>
        <time>2023-08-17T09:12:28Z</time>
      </trkpt>
      <trkpt lat="55.619435962289572" lon="-2.561383964493871">
        <ele>168.37</ele>
        <time>2023-08-17T09:12:29Z</time>
      </trkpt>
      <trkpt lat="55.619393968954682" lon="-2.561524026095867">
        <ele>168.84999999999999</ele>
        <time>2023-08-17T09:12:30Z</time>
      </trkpt>
      <trkpt lat="55.619100015610456" lon="-2.562504038214684">
        <ele>168.37</ele>
        <time>2023-08-17T09:12:37Z</time>
      </trkpt>
      <trkpt lat="55.619059028103948" lon="-2.562660025432706">
        <ele>168.37</ele>
        <time>2023-08-17T09:12:38Z</time>
      </trkpt>
      <trkpt lat="55.618730038404465" lon="-2.564164996147156">
        <ele>166.93000000000001</ele>
        <time>2023-08-17T09:12:45Z</time>
      </trkpt>
      <trkpt lat="55.618313038721681" lon="-2.566705970093608">
        <ele>164.03999999999999</ele>
        <time>2023-08-17T09:12:54Z</time>
      </trkpt>
      <trkpt lat="55.617781961336732" lon="-2.568415040150285">
        <ele>162.59999999999999</ele>
        <time>2023-08-17T09:13:02Z</time>
      </trkpt>
      <trkpt lat="55.617650030180812" lon="-2.568861963227391">
        <ele>162.12</ele>
        <time>2023-08-17T09:13:04Z</time>
      </trkpt>
      <trkpt lat="55.617600996047258" lon="-2.569108977913857">
        <ele>161.63999999999999</ele>
        <time>2023-08-17T09:13:05Z</time>
      </trkpt>
      <trkpt lat="55.617449032142758" lon="-2.569857984781265">
        <ele>161.16</ele>
        <time>2023-08-17T09:13:08Z</time>
      </trkpt>
      <trkpt lat="55.616867998614907" lon="-2.572349002584815">
        <ele>158.75</ele>
        <time>2023-08-17T09:13:18Z</time>
      </trkpt>
      <trkpt lat="55.616226028650999" lon="-2.575727999210358">
        <ele>155.87</ele>
        <time>2023-08-17T09:13:31Z</time>
      </trkpt>
      <trkpt lat="55.615974990651011" lon="-2.577188964933157">
        <ele>152.50999999999999</ele>
        <time>2023-08-17T09:13:37Z</time>
      </trkpt>
      <trkpt lat="55.615985970944166" lon="-2.577364984899759">
        <ele>152.50999999999999</ele>
        <time>2023-08-17T09:13:38Z</time>
      </trkpt>
      <trkpt lat="55.616030981764197" lon="-2.57753798738122">
        <ele>152.03</ele>
        <time>2023-08-17T09:13:39Z</time>
      </trkpt>
      <trkpt lat="55.616081021726131" lon="-2.577719036489725">
        <ele>151.53999999999999</ele>
        <time>2023-08-17T09:13:40Z</time>
      </trkpt>
      <trkpt lat="55.616167020052671" lon="-2.577895978465676">
        <ele>150.58000000000001</ele>
        <time>2023-08-17T09:13:41Z</time>
      </trkpt>
      <trkpt lat="55.616549989208579" lon="-2.578798960894346">
        <ele>147.69999999999999</ele>
        <time>2023-08-17T09:13:46Z</time>
      </trkpt>
      <trkpt lat="55.616585025563836" lon="-2.578968023881316">
        <ele>147.22</ele>
        <time>2023-08-17T09:13:47Z</time>
      </trkpt>
      <trkpt lat="55.61657102778554" lon="-2.579123005270958">
        <ele>146.74000000000001</ele>
        <time>2023-08-17T09:13:48Z</time>
      </trkpt>
      <trkpt lat="55.616542026400566" lon="-2.579296007752419">
        <ele>146.74000000000001</ele>
        <time>2023-08-17T09:13:49Z</time>
      </trkpt>
      <trkpt lat="55.616496009752154" lon="-2.579488037154079">
        <ele>146.74000000000001</ele>
        <time>2023-08-17T09:13:50Z</time>
      </trkpt>
      <trkpt lat="55.615965016186237" lon="-2.581271035596728">
        <ele>147.69999999999999</ele>
        <time>2023-08-17T09:13:57Z</time>
      </trkpt>
      <trkpt lat="55.614756010472775" lon="-2.585430974140763">
        <ele>150.58000000000001</ele>
        <time>2023-08-17T09:14:10Z</time>
      </trkpt>
      <trkpt lat="55.613622022792697" lon="-2.58948496542871">
        <ele>150.58000000000001</ele>
        <time>2023-08-17T09:14:22Z</time>
      </trkpt>
      <trkpt lat="55.61356502585113" lon="-2.589839017018676">
        <ele>150.58000000000001</ele>
        <time>2023-08-17T09:14:23Z</time>
      </trkpt>
      <trkpt lat="55.613273000344634" lon="-2.59300603531301">
        <ele>154.43000000000001</ele>
        <time>2023-08-17T09:14:32Z</time>
      </trkpt>
      <trkpt lat="55.612607980147004" lon="-2.596450997516513">
        <ele>157.31</ele>
        <time>2023-08-17T09:14:42Z</time>
      </trkpt>
      <trkpt lat="55.61160902492702" lon="-2.601205967366695">
        <ele>162.12</ele>
        <time>2023-08-17T09:14:56Z</time>
      </trkpt>
      <trkpt lat="55.610934030264616" lon="-2.604417996481061">
        <ele>165.96000000000001</ele>
        <time>2023-08-17T09:15:06Z</time>
      </trkpt>
      <trkpt lat="55.610654996708035" lon="-2.60740295983851">
        <ele>166.93000000000001</ele>
        <time>2023-08-17T09:15:15Z</time>
      </trkpt>
      <trkpt lat="55.610550977289677" lon="-2.609839998185635">
        <ele>173.16999999999999</ele>
        <time>2023-08-17T09:15:23Z</time>
      </trkpt>
      <trkpt lat="55.610455004498363" lon="-2.610720014199615">
        <ele>175.58000000000001</ele>
        <time>2023-08-17T09:15:26Z</time>
      </trkpt>
      <trkpt lat="55.610455004498363" lon="-2.611009022220969">
        <ele>176.06</ele>
        <time>2023-08-17T09:15:27Z</time>
      </trkpt>
      <trkpt lat="55.610455004498363" lon="-2.611300041899085">
        <ele>177.02000000000001</ele>
        <time>2023-08-17T09:15:28Z</time>
      </trkpt>
      <trkpt lat="55.610566986724734" lon="-2.614366980269551">
        <ele>182.31</ele>
        <time>2023-08-17T09:15:38Z</time>
      </trkpt>
      <trkpt lat="55.610709981992841" lon="-2.617508014664054">
        <ele>182.31</ele>
        <time>2023-08-17T09:15:47Z</time>
      </trkpt>
      <trkpt lat="55.610709981992841" lon="-2.62018796056509">
        <ele>182.31</ele>
        <time>2023-08-17T09:15:55Z</time>
      </trkpt>
      <trkpt lat="55.610961019992828" lon="-2.622755002230406">
        <ele>186.63</ele>
        <time>2023-08-17T09:16:03Z</time>
      </trkpt>
      <trkpt lat="55.610950039699674" lon="-2.623048033565283">
        <ele>187.11000000000001</ele>
        <time>2023-08-17T09:16:04Z</time>
      </trkpt>
      <trkpt lat="55.61092296615243" lon="-2.623351961374283">
        <ele>187.11000000000001</ele>
        <time>2023-08-17T09:16:05Z</time>
      </trkpt>
      <trkpt lat="55.610893964767456" lon="-2.623664019629359">
        <ele>187.11000000000001</ele>
        <time>2023-08-17T09:16:06Z</time>
      </trkpt>
      <trkpt lat="55.610865969210863" lon="-2.623980017378926">
        <ele>187.11000000000001</ele>
        <time>2023-08-17T09:16:07Z</time>
      </trkpt>
      <trkpt lat="55.610745018348098" lon="-2.626585029065609">
        <ele>186.63</ele>
        <time>2023-08-17T09:16:15Z</time>
      </trkpt>
      <trkpt lat="55.610721968114376" lon="-2.627560012042522">
        <ele>186.15000000000001</ele>
        <time>2023-08-17T09:16:18Z</time>
      </trkpt>
      <trkpt lat="55.610738983377814" lon="-2.627894030883908">
        <ele>185.66999999999999</ele>
        <time>2023-08-17T09:16:19Z</time>
      </trkpt>
      <trkpt lat="55.610785000026226" lon="-2.629109993577004">
        <ele>185.19</ele>
        <time>2023-08-17T09:16:23Z</time>
      </trkpt>
      <trkpt lat="55.610755998641253" lon="-2.629377041012049">
        <ele>185.19</ele>
        <time>2023-08-17T09:16:24Z</time>
      </trkpt>
      <trkpt lat="55.610466990619898" lon="-2.632037037983537">
        <ele>183.27000000000001</ele>
        <time>2023-08-17T09:16:33Z</time>
      </trkpt>
      <trkpt lat="55.610346961766481" lon="-2.635065000504255">
        <ele>183.27000000000001</ele>
        <time>2023-08-17T09:16:42Z</time>
      </trkpt>
      <trkpt lat="55.610587019473314" lon="-2.637119991704822">
        <ele>186.15000000000001</ele>
        <time>2023-08-17T09:16:49Z</time>
      </trkpt>
      <trkpt lat="55.611053975299001" lon="-2.639732966199517">
        <ele>186.63</ele>
        <time>2023-08-17T09:16:58Z</time>
      </trkpt>
      <trkpt lat="55.611333008855581" lon="-2.642476027831435">
        <ele>187.59</ele>
        <time>2023-08-17T09:17:06Z</time>
      </trkpt>
      <trkpt lat="55.611292021349072" lon="-2.646495988592506">
        <ele>186.63</ele>
        <time>2023-08-17T09:17:17Z</time>
      </trkpt>
      <trkpt lat="55.61103000305593" lon="-2.648924980312586">
        <ele>185.66999999999999</ele>
        <time>2023-08-17T09:17:24Z</time>
      </trkpt>
      <trkpt lat="55.610414016991854" lon="-2.651466960087419">
        <ele>185.66999999999999</ele>
        <time>2023-08-17T09:17:32Z</time>
      </trkpt>
      <trkpt lat="55.609780009835958" lon="-2.654090998694301">
        <ele>184.22999999999999</ele>
        <time>2023-08-17T09:17:41Z</time>
      </trkpt>
      <trkpt lat="55.609487984329462" lon="-2.655283994972706">
        <ele>182.78999999999999</ele>
        <time>2023-08-17T09:17:45Z</time>
      </trkpt>
      <trkpt lat="55.609442973509431" lon="-2.655582977458835">
        <ele>182.31</ele>
        <time>2023-08-17T09:17:46Z</time>
      </trkpt>
      <trkpt lat="55.609408020973206" lon="-2.655886989086866">
        <ele>181.83000000000001</ele>
        <time>2023-08-17T09:17:47Z</time>
      </trkpt>
      <trkpt lat="55.609147008508444" lon="-2.658092016354203">
        <ele>177.5</ele>
        <time>2023-08-17T09:17:54Z</time>
      </trkpt>
      <trkpt lat="55.6090750079602" lon="-2.658396027982235">
        <ele>176.53999999999999</ele>
        <time>2023-08-17T09:17:55Z</time>
      </trkpt>
      <trkpt lat="55.609005019068718" lon="-2.658692998811603">
        <ele>176.06</ele>
        <time>2023-08-17T09:17:56Z</time>
      </trkpt>
      <trkpt lat="55.608911979943514" lon="-2.658972032368183">
        <ele>175.58000000000001</ele>
        <time>2023-08-17T09:17:57Z</time>
      </trkpt>
      <trkpt lat="55.608809972181916" lon="-2.659259028732777">
        <ele>174.62</ele>
        <time>2023-08-17T09:17:58Z</time>
      </trkpt>
      <trkpt lat="55.60871098190546" lon="-2.659510988742113">
        <ele>174.13999999999999</ele>
        <time>2023-08-17T09:17:59Z</time>
      </trkpt>
      <trkpt lat="55.608591958880424" lon="-2.659719027578831">
        <ele>173.66</ele>
        <time>2023-08-17T09:18:00Z</time>
      </trkpt>
      <trkpt lat="55.607716972008348" lon="-2.661081003025174">
        <ele>163.56</ele>
        <time>2023-08-17T09:18:07Z</time>
      </trkpt>
      <trkpt lat="55.607601972296834" lon="-2.66124302521348">
        <ele>162.12</ele>
        <time>2023-08-17T09:18:08Z</time>
      </trkpt>
      <trkpt lat="55.607538018375635" lon="-2.661452991887927">
        <ele>160.68000000000001</ele>
        <time>2023-08-17T09:18:09Z</time>
      </trkpt>
      <trkpt lat="55.606955979019403" lon="-2.663372028619051">
        <ele>150.09999999999999</ele>
        <time>2023-08-17T09:18:16Z</time>
      </trkpt>
      <trkpt lat="55.606236979365349" lon="-2.665870003402233">
        <ele>133.75999999999999</ele>
        <time>2023-08-17T09:18:25Z</time>
      </trkpt>
      <trkpt lat="55.606036987155676" lon="-2.666838029399514">
        <ele>127.03</ele>
        <time>2023-08-17T09:18:29Z</time>
      </trkpt>
      <trkpt lat="55.606021983548999" lon="-2.667067022994161">
        <ele>125.59</ele>
        <time>2023-08-17T09:18:30Z</time>
      </trkpt>
      <trkpt lat="55.606018966063857" lon="-2.667239019647241">
        <ele>124.63</ele>
        <time>2023-08-17T09:18:31Z</time>
      </trkpt>
      <trkpt lat="55.606060037389398" lon="-2.667439011856914">
        <ele>123.67</ele>
        <time>2023-08-17T09:18:32Z</time>
      </trkpt>
      <trkpt lat="55.606103958562016" lon="-2.667653001844883">
        <ele>122.22</ele>
        <time>2023-08-17T09:18:33Z</time>
      </trkpt>
      <trkpt lat="55.606147963553667" lon="-2.667864980176091">
        <ele>121.26000000000001</ele>
        <time>2023-08-17T09:18:34Z</time>
      </trkpt>
      <trkpt lat="55.60617595911026" lon="-2.668086010962725">
        <ele>119.81999999999999</ele>
        <time>2023-08-17T09:18:35Z</time>
      </trkpt>
      <trkpt lat="55.606194986030459" lon="-2.668304024264216">
        <ele>118.38</ele>
        <time>2023-08-17T09:18:36Z</time>
      </trkpt>
      <trkpt lat="55.606202026829123" lon="-2.668536035344005">
        <ele>116.94</ele>
        <time>2023-08-17T09:18:37Z</time>
      </trkpt>
      <trkpt lat="55.606191968545318" lon="-2.668767962604761">
        <ele>115.5</ele>
        <time>2023-08-17T09:18:38Z</time>
      </trkpt>
      <trkpt lat="55.606176964938641" lon="-2.669002991169691">
        <ele>114.05</ele>
        <time>2023-08-17T09:18:39Z</time>
      </trkpt>
      <trkpt lat="55.606083003804088" lon="-2.669640015810728">
        <ele>110.20999999999999</ele>
        <time>2023-08-17T09:18:42Z</time>
      </trkpt>
      <trkpt lat="55.606076968833804" lon="-2.669677985832095">
        <ele>108.77</ele>
        <time>2023-08-17T09:18:43Z</time>
      </trkpt>
      <trkpt lat="55.606017038226128" lon="-2.6699039619416">
        <ele>107.31999999999999</ele>
        <time>2023-08-17T09:18:44Z</time>
      </trkpt>
      <trkpt lat="55.605991976335645" lon="-2.670000018551946">
        <ele>105.88</ele>
        <time>2023-08-17T09:18:45Z</time>
      </trkpt>
      <trkpt lat="55.605950988829136" lon="-2.670064978301525">
        <ele>104.44</ele>
        <time>2023-08-17T09:18:46Z</time>
      </trkpt>
      <trkpt lat="55.605903966352344" lon="-2.670142007991672">
        <ele>103</ele>
        <time>2023-08-17T09:18:47Z</time>
      </trkpt>
      <trkpt lat="55.605819979682565" lon="-2.670278968289495">
        <ele>101.56</ele>
        <time>2023-08-17T09:18:48Z</time>
      </trkpt>
      <trkpt lat="55.605757031589746" lon="-2.670291038230062">
        <ele>100.11</ele>
        <time>2023-08-17T09:18:49Z</time>
      </trkpt>
      <trkpt lat="55.605644965544343" lon="-2.670314004644752">
        <ele>98.189999999999998</ele>
        <time>2023-08-17T09:18:50Z</time>
      </trkpt>
      <trkpt lat="55.605520997196436" lon="-2.670337976887822">
        <ele>95.790000000000006</ele>
        <time>2023-08-17T09:18:51Z</time>
      </trkpt>
      <trkpt lat="55.605385964736342" lon="-2.670364966616035">
        <ele>93.390000000000001</ele>
        <time>2023-08-17T09:18:52Z</time>
      </trkpt>
      <trkpt lat="55.604704013094306" lon="-2.670508967712522">
        <ele>80.890000000000001</ele>
        <time>2023-08-17T09:18:58Z</time>
      </trkpt>
      <trkpt lat="55.604625977575779" lon="-2.670524977147579">
        <ele>78.480000000000004</ele>
        <time>2023-08-17T09:18:59Z</time>
      </trkpt>
      <trkpt lat="55.604575015604496" lon="-2.670536041259766">
        <ele>76.560000000000002</ele>
        <time>2023-08-17T09:19:00Z</time>
      </trkpt>
      <trkpt lat="55.604507960379124" lon="-2.67059002071619">
        <ele>74.159999999999997</ele>
        <time>2023-08-17T09:19:01Z</time>
      </trkpt>
      <trkpt lat="55.604448029771447" lon="-2.670637965202332">
        <ele>71.760000000000005</ele>
        <time>2023-08-17T09:19:02Z</time>
      </trkpt>
      <trkpt lat="55.604361025616527" lon="-2.670708037912846">
        <ele>69.829999999999998</ele>
        <time>2023-08-17T09:19:03Z</time>
      </trkpt>
      <trkpt lat="55.604335041716695" lon="-2.670801999047399">
        <ele>67.430000000000007</ele>
        <time>2023-08-17T09:19:04Z</time>
      </trkpt>
      <trkpt lat="55.604286007583141" lon="-2.670981036499143">
        <ele>65.989999999999995</ele>
        <time>2023-08-17T09:19:05Z</time>
      </trkpt>
      <trkpt lat="55.604236973449588" lon="-2.671162001788616">
        <ele>64.549999999999997</ele>
        <time>2023-08-17T09:19:06Z</time>
      </trkpt>
      <trkpt lat="55.60408802703023" lon="-2.672452982515097">
        <ele>58.299999999999997</ele>
        <time>2023-08-17T09:19:13Z</time>
      </trkpt>
      <trkpt lat="55.604138989001513" lon="-2.672809967771173">
        <ele>59.740000000000002</ele>
        <time>2023-08-17T09:19:15Z</time>
      </trkpt>
      <trkpt lat="55.60417503118515" lon="-2.672961009666324">
        <ele>59.740000000000002</ele>
        <time>2023-08-17T09:19:16Z</time>
      </trkpt>
      <trkpt lat="55.604209983721375" lon="-2.673106016591191">
        <ele>59.740000000000002</ele>
        <time>2023-08-17T09:19:17Z</time>
      </trkpt>
      <trkpt lat="55.604244014248252" lon="-2.673249011859298">
        <ele>60.219999999999999</ele>
        <time>2023-08-17T09:19:18Z</time>
      </trkpt>
      <trkpt lat="55.604275027289987" lon="-2.67338396050036">
        <ele>60.219999999999999</ele>
        <time>2023-08-17T09:19:19Z</time>
      </trkpt>
      <trkpt lat="55.604305034503341" lon="-2.673516981303692">
        <ele>60.700000000000003</ele>
        <time>2023-08-17T09:19:20Z</time>
      </trkpt>
      <trkpt lat="55.604333030059934" lon="-2.673642039299011">
        <ele>61.18</ele>
        <time>2023-08-17T09:19:21Z</time>
      </trkpt>
      <trkpt lat="55.60434602200985" lon="-2.673821998760104">
        <ele>61.18</ele>
        <time>2023-08-17T09:19:22Z</time>
      </trkpt>
      <trkpt lat="55.604358008131385" lon="-2.674117963761091">
        <ele>61.18</ele>
        <time>2023-08-17T09:19:25Z</time>
      </trkpt>
      <trkpt lat="55.604361025616527" lon="-2.674184013158083">
        <ele>61.659999999999997</ele>
        <time>2023-08-17T09:19:26Z</time>
      </trkpt>
      <trkpt lat="55.604401007294655" lon="-2.674219971522689">
        <ele>61.659999999999997</ele>
        <time>2023-08-17T09:19:27Z</time>
      </trkpt>
      <trkpt lat="55.604469990357757" lon="-2.674279985949397">
        <ele>62.140000000000001</ele>
        <time>2023-08-17T09:19:28Z</time>
      </trkpt>
      <trkpt lat="55.604554982855916" lon="-2.674355003982782">
        <ele>62.619999999999997</ele>
        <time>2023-08-17T09:19:29Z</time>
      </trkpt>
      <trkpt lat="55.605260990560055" lon="-2.674723975360394">
        <ele>66.469999999999999</ele>
        <time>2023-08-17T09:19:35Z</time>
      </trkpt>
      <trkpt lat="55.606360025703907" lon="-2.674773009493947">
        <ele>82.329999999999998</ele>
        <time>2023-08-17T09:19:43Z</time>
      </trkpt>
      <trkpt lat="55.606672000139952" lon="-2.67482103779912">
        <ele>91.939999999999998</ele>
        <time>2023-08-17T09:19:49Z</time>
      </trkpt>
      <trkpt lat="55.606723967939615" lon="-2.674921033903956">
        <ele>93.390000000000001</ele>
        <time>2023-08-17T09:19:50Z</time>
      </trkpt>
      <trkpt lat="55.606727991253138" lon="-2.674988005310297">
        <ele>93.870000000000005</ele>
        <time>2023-08-17T09:19:51Z</time>
      </trkpt>
      <trkpt lat="55.606731008738279" lon="-2.675046008080244">
        <ele>95.310000000000002</ele>
        <time>2023-08-17T09:19:52Z</time>
      </trkpt>
      <trkpt lat="55.606733020395041" lon="-2.675082972273231">
        <ele>96.269999999999996</ele>
        <time>2023-08-17T09:19:53Z</time>
      </trkpt>
      <trkpt lat="55.606736037880182" lon="-2.675132006406784">
        <ele>102.52</ele>
        <time>2023-08-17T09:20:04Z</time>
      </trkpt>
      <trkpt lat="55.606658002361655" lon="-2.675256980583072">
        <ele>103</ele>
        <time>2023-08-17T09:20:05Z</time>
      </trkpt>
      <trkpt lat="55.606586001813412" lon="-2.675256980583072">
        <ele>103.48</ele>
        <time>2023-08-17T09:20:06Z</time>
      </trkpt>
      <trkpt lat="55.606495980173349" lon="-2.675256980583072">
        <ele>103.95999999999999</ele>
        <time>2023-08-17T09:20:07Z</time>
      </trkpt>
      <trkpt lat="55.606389027088881" lon="-2.675249017775059">
        <ele>103.95999999999999</ele>
        <time>2023-08-17T09:20:08Z</time>
      </trkpt>
      <trkpt lat="55.60542200691998" lon="-2.675163019448519">
        <ele>101.56</ele>
        <time>2023-08-17T09:20:14Z</time>
      </trkpt>
      <trkpt lat="55.603641020134091" lon="-2.674879040569067">
        <ele>97.709999999999994</ele>
        <time>2023-08-17T09:20:22Z</time>
      </trkpt>
      <trkpt lat="55.601712008938193" lon="-2.674050992354751">
        <ele>93.390000000000001</ele>
        <time>2023-08-17T09:20:30Z</time>
      </trkpt>
      <trkpt lat="55.600394960492849" lon="-2.672926979139447">
        <ele>91.939999999999998</ele>
        <time>2023-08-17T09:20:37Z</time>
      </trkpt>
      <trkpt lat="55.599346971139312" lon="-2.672023996710777">
        <ele>89.540000000000006</ele>
        <time>2023-08-17T09:20:42Z</time>
      </trkpt>
      <trkpt lat="55.598214995115995" lon="-2.671440029516816">
        <ele>88.579999999999998</ele>
        <time>2023-08-17T09:20:49Z</time>
      </trkpt>
      <trkpt lat="55.59678697027266" lon="-2.671107016503811">
        <ele>90.5</ele>
        <time>2023-08-17T09:20:58Z</time>
      </trkpt>
      <trkpt lat="55.596273997798562" lon="-2.671034010127187">
        <ele>91.939999999999998</ele>
        <time>2023-08-17T09:21:03Z</time>
      </trkpt>
      <trkpt lat="55.596200991421938" lon="-2.6710419729352">
        <ele>91.939999999999998</ele>
        <time>2023-08-17T09:21:04Z</time>
      </trkpt>
      <trkpt lat="55.596056990325451" lon="-2.670814990997315">
        <ele>92.420000000000002</ele>
        <time>2023-08-17T09:21:05Z</time>
      </trkpt>
      <trkpt lat="55.595979960635304" lon="-2.670737961307168">
        <ele>92.420000000000002</ele>
        <time>2023-08-17T09:21:07Z</time>
      </trkpt>
      <trkpt lat="55.595901003107429" lon="-2.670722035691142">
        <ele>92.900000000000006</ele>
        <time>2023-08-17T09:21:08Z</time>
      </trkpt>
      <trkpt lat="55.595824979245663" lon="-2.670714994892478">
        <ele>93.390000000000001</ele>
        <time>2023-08-17T09:21:09Z</time>
      </trkpt>
      <trkpt lat="55.59573101811111" lon="-2.670754976570606">
        <ele>93.870000000000005</ele>
        <time>2023-08-17T09:21:10Z</time>
      </trkpt>
      <trkpt lat="55.595673015341163" lon="-2.670862013474107">
        <ele>94.349999999999994</ele>
        <time>2023-08-17T09:21:11Z</time>
      </trkpt>
      <trkpt lat="55.595608977600932" lon="-2.671038033440709">
        <ele>94.829999999999998</ele>
        <time>2023-08-17T09:21:12Z</time>
      </trkpt>
      <trkpt lat="55.595618030056357" lon="-2.671186979860067">
        <ele>95.310000000000002</ele>
        <time>2023-08-17T09:21:13Z</time>
      </trkpt>
      <trkpt lat="55.595626998692751" lon="-2.671351013705134">
        <ele>96.269999999999996</ele>
        <time>2023-08-17T09:21:14Z</time>
      </trkpt>
      <trkpt lat="55.595709979534149" lon="-2.671465007588267">
        <ele>96.75</ele>
        <time>2023-08-17T09:21:15Z</time>
      </trkpt>
      <trkpt lat="55.595791032537818" lon="-2.671576989814639">
        <ele>97.709999999999994</ele>
        <time>2023-08-17T09:21:16Z</time>
      </trkpt>
      <trkpt lat="55.595932016149163" lon="-2.672031037509441">
        <ele>98.189999999999998</ele>
        <time>2023-08-17T09:21:18Z</time>
      </trkpt>
      <trkpt lat="55.59641900472343" lon="-2.673857035115361">
        <ele>100.11</ele>
        <time>2023-08-17T09:21:25Z</time>
      </trkpt>
      <trkpt lat="55.597273958846927" lon="-2.676823977380991">
        <ele>103.48</ele>
        <time>2023-08-17T09:21:34Z</time>
      </trkpt>
      <trkpt lat="55.598596036434174" lon="-2.68189100548625">
        <ele>109.73</ele>
        <time>2023-08-17T09:21:48Z</time>
      </trkpt>
      <trkpt lat="55.599012030288577" lon="-2.685357006266713">
        <ele>113.09</ele>
        <time>2023-08-17T09:21:57Z</time>
      </trkpt>
      <trkpt lat="55.59895402751863" lon="-2.688003005459905">
        <ele>113.09</ele>
        <time>2023-08-17T09:22:04Z</time>
      </trkpt>
      <trkpt lat="55.598467038944364" lon="-2.691006995737553">
        <ele>111.17</ele>
        <time>2023-08-17T09:22:12Z</time>
      </trkpt>
      <trkpt lat="55.598281966522336" lon="-2.692496040835977">
        <ele>109.25</ele>
        <time>2023-08-17T09:22:16Z</time>
      </trkpt>
      <trkpt lat="55.598141988739371" lon="-2.69605097360909">
        <ele>106.36</ele>
        <time>2023-08-17T09:22:26Z</time>
      </trkpt>
      <trkpt lat="55.598054984584451" lon="-2.699202988296747">
        <ele>106.36</ele>
        <time>2023-08-17T09:22:35Z</time>
      </trkpt>
      <trkpt lat="55.59803101234138" lon="-2.700954973697662">
        <ele>107.31999999999999</ele>
        <time>2023-08-17T09:22:40Z</time>
      </trkpt>
      <trkpt lat="55.59803101234138" lon="-2.701315982267261">
        <ele>107.81</ele>
        <time>2023-08-17T09:22:41Z</time>
      </trkpt>
      <trkpt lat="55.59800997376442" lon="-2.705219015479088">
        <ele>111.65000000000001</ele>
        <time>2023-08-17T09:22:52Z</time>
      </trkpt>
      <trkpt lat="55.59775298461318" lon="-2.707846993580461">
        <ele>115.5</ele>
        <time>2023-08-17T09:23:00Z</time>
      </trkpt>
      <trkpt lat="55.59723598882556" lon="-2.710420992225409">
        <ele>115.98</ele>
        <time>2023-08-17T09:23:09Z</time>
      </trkpt>
      <trkpt lat="55.597046976909041" lon="-2.711370997130871">
        <ele>114.05</ele>
        <time>2023-08-17T09:23:15Z</time>
      </trkpt>
      <trkpt lat="55.597006995230913" lon="-2.711594961583614">
        <ele>113.09</ele>
        <time>2023-08-17T09:23:20Z</time>
      </trkpt>
      <trkpt lat="55.597086036577821" lon="-2.711751032620668">
        <ele>112.61</ele>
        <time>2023-08-17T09:23:21Z</time>
      </trkpt>
      <trkpt lat="55.597135992720723" lon="-2.711738962680101">
        <ele>112.13</ele>
        <time>2023-08-17T09:23:22Z</time>
      </trkpt>
      <trkpt lat="55.597246969118714" lon="-2.71173301152885">
        <ele>111.65000000000001</ele>
        <time>2023-08-17T09:23:23Z</time>
      </trkpt>
      <trkpt lat="55.59729902073741" lon="-2.711838036775589">
        <ele>111.17</ele>
        <time>2023-08-17T09:23:24Z</time>
      </trkpt>
      <trkpt lat="55.597360963001847" lon="-2.711962005123496">
        <ele>110.69</ele>
        <time>2023-08-17T09:23:25Z</time>
      </trkpt>
      <trkpt lat="55.597399016842246" lon="-2.712147999554873">
        <ele>110.69</ele>
        <time>2023-08-17T09:23:26Z</time>
      </trkpt>
      <trkpt lat="55.5974290240556" lon="-2.712308010086417">
        <ele>110.20999999999999</ele>
        <time>2023-08-17T09:23:27Z</time>
      </trkpt>
      <trkpt lat="55.597430029883981" lon="-2.712488975375891">
        <ele>109.73</ele>
        <time>2023-08-17T09:23:28Z</time>
      </trkpt>
      <trkpt lat="55.597430029883981" lon="-2.712669018656015">
        <ele>109.73</ele>
        <time>2023-08-17T09:23:29Z</time>
      </trkpt>
      <trkpt lat="55.597405973821878" lon="-2.712861970067024">
        <ele>109.25</ele>
        <time>2023-08-17T09:23:30Z</time>
      </trkpt>
      <trkpt lat="55.597359035164118" lon="-2.713052993640304">
        <ele>108.29000000000001</ele>
        <time>2023-08-17T09:23:31Z</time>
      </trkpt>
      <trkpt lat="55.597308995202184" lon="-2.713254997506738">
        <ele>107.81</ele>
        <time>2023-08-17T09:23:32Z</time>
      </trkpt>
      <trkpt lat="55.596989979967475" lon="-2.714555030688644">
        <ele>101.08</ele>
        <time>2023-08-17T09:23:39Z</time>
      </trkpt>
      <trkpt lat="55.596949998289347" lon="-2.714715041220188">
        <ele>99.629999999999995</ele>
        <time>2023-08-17T09:23:40Z</time>
      </trkpt>
      <trkpt lat="55.596745982766151" lon="-2.715814998373389">
        <ele>92.420000000000002</ele>
        <time>2023-08-17T09:23:48Z</time>
      </trkpt>
      <trkpt lat="55.596730979159474" lon="-2.715980038046837">
        <ele>91.459999999999994</ele>
        <time>2023-08-17T09:23:49Z</time>
      </trkpt>
      <trkpt lat="55.59665696695447" lon="-2.717677038162947">
        <ele>87.620000000000005</ele>
        <time>2023-08-17T09:24:00Z</time>
      </trkpt>
      <trkpt lat="55.59670097194612" lon="-2.718478012830019">
        <ele>87.140000000000001</ele>
        <time>2023-08-17T09:24:06Z</time>
      </trkpt>
      <trkpt lat="55.596722010523081" lon="-2.718601981177926">
        <ele>86.659999999999997</ele>
        <time>2023-08-17T09:24:07Z</time>
      </trkpt>
      <trkpt lat="55.59674296528101" lon="-2.718729972839356">
        <ele>86.659999999999997</ele>
        <time>2023-08-17T09:24:08Z</time>
      </trkpt>
      <trkpt lat="55.596803985536098" lon="-2.718775989487767">
        <ele>86.659999999999997</ele>
        <time>2023-08-17T09:24:09Z</time>
      </trkpt>
      <trkpt lat="55.596851008012891" lon="-2.718811025843024">
        <ele>86.180000000000007</ele>
        <time>2023-08-17T09:24:10Z</time>
      </trkpt>
      <trkpt lat="55.596887972205877" lon="-2.718839021399617">
        <ele>85.689999999999998</ele>
        <time>2023-08-17T09:24:11Z</time>
      </trkpt>
      <trkpt lat="55.596929965540767" lon="-2.718876991420984">
        <ele>85.689999999999998</ele>
        <time>2023-08-17T09:24:12Z</time>
      </trkpt>
      <trkpt lat="55.597072038799524" lon="-2.719046976417303">
        <ele>85.209999999999994</ele>
        <time>2023-08-17T09:24:16Z</time>
      </trkpt>
      <trkpt lat="55.59719399549067" lon="-2.719308994710445">
        <ele>84.730000000000004</ele>
        <time>2023-08-17T09:24:19Z</time>
      </trkpt>
      <trkpt lat="55.597204975783825" lon="-2.719358028843999">
        <ele>84.25</ele>
        <time>2023-08-17T09:24:20Z</time>
      </trkpt>
      <trkpt lat="55.597273036837578" lon="-2.719560032710433">
        <ele>84.25</ele>
        <time>2023-08-17T09:24:23Z</time>
      </trkpt>
      <trkpt lat="55.597307989373803" lon="-2.719616023823619">
        <ele>84.25</ele>
        <time>2023-08-17T09:24:24Z</time>
      </trkpt>
      <trkpt lat="55.597376972436905" lon="-2.71972700022161">
        <ele>84.25</ele>
        <time>2023-08-17T09:24:26Z</time>
      </trkpt>
      <trkpt lat="55.597586017102003" lon="-2.720066970214248">
        <ele>84.25</ele>
        <time>2023-08-17T09:24:33Z</time>
      </trkpt>
      <trkpt lat="55.59762398712337" lon="-2.720127990469337">
        <ele>84.25</ele>
        <time>2023-08-17T09:24:34Z</time>
      </trkpt>
      <trkpt lat="55.597754996269941" lon="-2.720342986285687">
        <ele>83.769999999999996</ele>
        <time>2023-08-17T09:24:37Z</time>
      </trkpt>
      <trkpt lat="55.597842000424862" lon="-2.720485981553793">
        <ele>83.769999999999996</ele>
        <time>2023-08-17T09:24:39Z</time>
      </trkpt>
      <trkpt lat="55.597882987931371" lon="-2.720553958788514">
        <ele>83.290000000000006</ele>
        <time>2023-08-17T09:24:40Z</time>
      </trkpt>
      <trkpt lat="55.597968986257911" lon="-2.720694020390511">
        <ele>82.329999999999998</ele>
        <time>2023-08-17T09:24:42Z</time>
      </trkpt>
      <trkpt lat="55.598011985421181" lon="-2.720783036202192">
        <ele>81.849999999999994</ele>
        <time>2023-08-17T09:24:43Z</time>
      </trkpt>
      <trkpt lat="55.598136959597468" lon="-2.721079001203179">
        <ele>81.370000000000005</ele>
        <time>2023-08-17T09:24:46Z</time>
      </trkpt>
      <trkpt lat="55.59818297624588" lon="-2.721186960116029">
        <ele>81.370000000000005</ele>
        <time>2023-08-17T09:24:47Z</time>
      </trkpt>
      <trkpt lat="55.598379028961062" lon="-2.721651988103986">
        <ele>81.370000000000005</ele>
        <time>2023-08-17T09:24:52Z</time>
      </trkpt>
      <trkpt lat="55.598442982882261" lon="-2.721683001145721">
        <ele>80.890000000000001</ele>
        <time>2023-08-17T09:24:53Z</time>
      </trkpt>
      <trkpt lat="55.59848103672266" lon="-2.721676966175437">
        <ele>80.890000000000001</ele>
        <time>2023-08-17T09:24:54Z</time>
      </trkpt>
      <trkpt lat="55.598521018400788" lon="-2.721670009195805">
        <ele>80.890000000000001</ele>
        <time>2023-08-17T09:24:55Z</time>
      </trkpt>
      <trkpt lat="55.598530992865562" lon="-2.721536988392472">
        <ele>80.409999999999997</ele>
        <time>2023-08-17T09:24:56Z</time>
      </trkpt>
      <trkpt lat="55.598535016179085" lon="-2.721451995894313">
        <ele>80.409999999999997</ele>
        <time>2023-08-17T09:24:57Z</time>
      </trkpt>
      <trkpt lat="55.598538033664227" lon="-2.721376977860928">
        <ele>79.930000000000007</ele>
        <time>2023-08-17T09:24:58Z</time>
      </trkpt>
      <trkpt lat="55.598542978987098" lon="-2.721286034211516">
        <ele>79.450000000000003</ele>
        <time>2023-08-17T09:24:59Z</time>
      </trkpt>
      <trkpt lat="55.598543984815478" lon="-2.721192995086312">
        <ele>78.969999999999999</ele>
        <time>2023-08-17T09:25:00Z</time>
      </trkpt>
      <trkpt lat="55.598492017015815" lon="-2.720588995143771">
        <ele>77.040000000000006</ele>
        <time>2023-08-17T09:25:05Z</time>
      </trkpt>
      <trkpt lat="55.59848103672266" lon="-2.720465026795864">
        <ele>77.040000000000006</ele>
        <time>2023-08-17T09:25:06Z</time>
      </trkpt>
      <trkpt lat="55.598467960953712" lon="-2.719889022409916">
        <ele>76.560000000000002</ele>
        <time>2023-08-17T09:25:11Z</time>
      </trkpt>
      <trkpt lat="55.598473995923996" lon="-2.719788020476699">
        <ele>76.560000000000002</ele>
        <time>2023-08-17T09:25:12Z</time>
      </trkpt>
      <trkpt lat="55.598493022844195" lon="-2.719472022727132">
        <ele>80.409999999999997</ele>
        <time>2023-08-17T09:25:19Z</time>
      </trkpt>
      <trkpt lat="55.598645992577076" lon="-2.719460958614945">
        <ele>81.370000000000005</ele>
        <time>2023-08-17T09:25:30Z</time>
      </trkpt>
      <trkpt lat="55.598645992577076" lon="-2.719460958614945">
        <ele>81.370000000000005</ele>
        <time>2023-08-17T09:25:31Z</time>
      </trkpt>
      <trkpt lat="55.598734002560377" lon="-2.719224002212286">
        <ele>83.290000000000006</ele>
        <time>2023-08-17T09:25:43Z</time>
      </trkpt>
      <trkpt lat="55.598734002560377" lon="-2.719224002212286">
        <ele>83.290000000000006</ele>
        <time>2023-08-17T09:25:58Z</time>
      </trkpt>
      <trkpt lat="55.598740037530661" lon="-2.719230959191918">
        <ele>83.290000000000006</ele>
        <time>2023-08-17T09:26:21Z</time>
      </trkpt>
      <trkpt lat="55.598952015861869" lon="-2.719042031094432">
        <ele>124.15000000000001</ele>
        <time>2023-08-17T09:35:46Z</time>
      </trkpt>
      <trkpt lat="55.59882796369493" lon="-2.719019986689091">
        <ele>88.579999999999998</ele>
        <time>2023-08-17T09:36:00Z</time>
      </trkpt>
      <trkpt lat="55.598803991451859" lon="-2.719015963375568">
        <ele>74.640000000000001</ele>
        <time>2023-08-17T09:36:10Z</time>
      </trkpt>
      <trkpt lat="55.598803991451859" lon="-2.719015963375568">
        <ele>59.259999999999998</ele>
        <time>2023-08-17T09:36:35Z</time>
      </trkpt>
      <trkpt lat="55.59876199811697" lon="-2.719008000567555">
        <ele>59.259999999999998</ele>
        <time>2023-08-17T09:36:37Z</time>
      </trkpt>
      <trkpt lat="55.598740959540009" lon="-2.719003977254033">
        <ele>60.700000000000003</ele>
        <time>2023-08-17T09:36:38Z</time>
      </trkpt>
      <trkpt lat="55.598710030317307" lon="-2.718999031931162">
        <ele>61.659999999999997</ele>
        <time>2023-08-17T09:36:39Z</time>
      </trkpt>
      <trkpt lat="55.59852403588593" lon="-2.718966007232666">
        <ele>64.069999999999993</ele>
        <time>2023-08-17T09:36:41Z</time>
      </trkpt>
      <trkpt lat="55.59852403588593" lon="-2.718966007232666">
        <ele>65.030000000000001</ele>
        <time>2023-08-17T09:36:42Z</time>
      </trkpt>
      <trkpt lat="55.59852403588593" lon="-2.718966007232666">
        <ele>65.989999999999995</ele>
        <time>2023-08-17T09:36:43Z</time>
      </trkpt>
      <trkpt lat="55.59852403588593" lon="-2.718966007232666">
        <ele>78</ele>
        <time>2023-08-17T09:36:50Z</time>
      </trkpt>
      <trkpt lat="55.598508026450872" lon="-2.718925019726157">
        <ele>81.849999999999994</ele>
        <time>2023-08-17T09:36:59Z</time>
      </trkpt>
      <trkpt lat="55.598253970965743" lon="-2.718829968944192">
        <ele>82.810000000000002</ele>
        <time>2023-08-17T09:37:09Z</time>
      </trkpt>
      <trkpt lat="55.597968986257911" lon="-2.718912027776241">
        <ele>82.810000000000002</ele>
        <time>2023-08-17T09:37:15Z</time>
      </trkpt>
      <trkpt lat="55.597868990153074" lon="-2.718970030546188">
        <ele>82.329999999999998</ele>
        <time>2023-08-17T09:37:17Z</time>
      </trkpt>
      <trkpt lat="55.597819034010172" lon="-2.71899601444602">
        <ele>81.849999999999994</ele>
        <time>2023-08-17T09:37:18Z</time>
      </trkpt>
      <trkpt lat="55.59768701903522" lon="-2.719062985852361">
        <ele>81.370000000000005</ele>
        <time>2023-08-17T09:37:21Z</time>
      </trkpt>
      <trkpt lat="55.597646031528711" lon="-2.719083018600941">
        <ele>81.370000000000005</ele>
        <time>2023-08-17T09:37:22Z</time>
      </trkpt>
      <trkpt lat="55.597613006830215" lon="-2.719100033864379">
        <ele>81.370000000000005</ele>
        <time>2023-08-17T09:37:23Z</time>
      </trkpt>
      <trkpt lat="55.597474034875631" lon="-2.719177985563874">
        <ele>80.409999999999997</ele>
        <time>2023-08-17T09:37:27Z</time>
      </trkpt>
      <trkpt lat="55.597435981035233" lon="-2.719200029969215">
        <ele>79.930000000000007</ele>
        <time>2023-08-17T09:37:28Z</time>
      </trkpt>
      <trkpt lat="55.59732299298048" lon="-2.719265995547175">
        <ele>78.969999999999999</ele>
        <time>2023-08-17T09:37:30Z</time>
      </trkpt>
      <trkpt lat="55.59730002656579" lon="-2.719273958355188">
        <ele>79.450000000000003</ele>
        <time>2023-08-17T09:37:31Z</time>
      </trkpt>
      <trkpt lat="55.597130041569471" lon="-2.719115959480405">
        <ele>79.450000000000003</ele>
        <time>2023-08-17T09:37:32Z</time>
      </trkpt>
      <trkpt lat="55.597119983285666" lon="-2.71910497918725">
        <ele>79.450000000000003</ele>
        <time>2023-08-17T09:37:34Z</time>
      </trkpt>
      <trkpt lat="55.59691496193409" lon="-2.718858970329166">
        <ele>80.409999999999997</ele>
        <time>2023-08-17T09:37:38Z</time>
      </trkpt>
      <trkpt lat="55.596845978870988" lon="-2.718807002529502">
        <ele>80.409999999999997</ele>
        <time>2023-08-17T09:37:39Z</time>
      </trkpt>
      <trkpt lat="55.596756963059306" lon="-2.718770960345864">
        <ele>80.409999999999997</ele>
        <time>2023-08-17T09:37:40Z</time>
      </trkpt>
      <trkpt lat="55.596731984987855" lon="-2.718658978119493">
        <ele>80.409999999999997</ele>
        <time>2023-08-17T09:37:41Z</time>
      </trkpt>
      <trkpt lat="55.596718993037939" lon="-2.718582032248378">
        <ele>81.849999999999994</ele>
        <time>2023-08-17T09:37:42Z</time>
      </trkpt>
      <trkpt lat="55.596703989431262" lon="-2.718497039750218">
        <ele>82.810000000000002</ele>
        <time>2023-08-17T09:37:43Z</time>
      </trkpt>
      <trkpt lat="55.596687979996204" lon="-2.718398971483111">
        <ele>83.769999999999996</ele>
        <time>2023-08-17T09:37:44Z</time>
      </trkpt>
      <trkpt lat="55.596669036895037" lon="-2.718282965943217">
        <ele>84.25</ele>
        <time>2023-08-17T09:37:45Z</time>
      </trkpt>
      <trkpt lat="55.59665696695447" lon="-2.71815799176693">
        <ele>84.730000000000004</ele>
        <time>2023-08-17T09:37:46Z</time>
      </trkpt>
      <trkpt lat="55.59665696695447" lon="-2.718014996498823">
        <ele>85.209999999999994</ele>
        <time>2023-08-17T09:37:47Z</time>
      </trkpt>
      <trkpt lat="55.596701977774501" lon="-2.716292012482882">
        <ele>92.900000000000006</ele>
        <time>2023-08-17T09:37:57Z</time>
      </trkpt>
      <trkpt lat="55.596781019121408" lon="-2.715435968711972">
        <ele>94.349999999999994</ele>
        <time>2023-08-17T09:38:01Z</time>
      </trkpt>
      <trkpt lat="55.597054017707705" lon="-2.714294018223882">
        <ele>94.349999999999994</ele>
        <time>2023-08-17T09:38:07Z</time>
      </trkpt>
      <trkpt lat="55.597095005214214" lon="-2.714127972722054">
        <ele>94.349999999999994</ele>
        <time>2023-08-17T09:38:08Z</time>
      </trkpt>
      <trkpt lat="55.597133981063962" lon="-2.71396704018116">
        <ele>94.349999999999994</ele>
        <time>2023-08-17T09:38:09Z</time>
      </trkpt>
      <trkpt lat="55.5971700232476" lon="-2.713820021599531">
        <ele>94.829999999999998</ele>
        <time>2023-08-17T09:38:10Z</time>
      </trkpt>
      <trkpt lat="55.597205981612206" lon="-2.713674008846283">
        <ele>94.829999999999998</ele>
        <time>2023-08-17T09:38:11Z</time>
      </trkpt>
      <trkpt lat="55.597430029883981" lon="-2.71265703253448">
        <ele>95.790000000000006</ele>
        <time>2023-08-17T09:38:17Z</time>
      </trkpt>
      <trkpt lat="55.597430029883981" lon="-2.712469026446343">
        <ele>96.269999999999996</ele>
        <time>2023-08-17T09:38:18Z</time>
      </trkpt>
      <trkpt lat="55.597425000742078" lon="-2.712286971509457">
        <ele>96.269999999999996</ele>
        <time>2023-08-17T09:38:19Z</time>
      </trkpt>
      <trkpt lat="55.597383007407188" lon="-2.712063007056713">
        <ele>97.230000000000004</ele>
        <time>2023-08-17T09:38:21Z</time>
      </trkpt>
      <trkpt lat="55.597379989922047" lon="-2.711939960718155">
        <ele>97.709999999999994</ele>
        <time>2023-08-17T09:38:22Z</time>
      </trkpt>
      <trkpt lat="55.597414020448923" lon="-2.711869971826673">
        <ele>97.709999999999994</ele>
        <time>2023-08-17T09:38:23Z</time>
      </trkpt>
      <trkpt lat="55.597512004896998" lon="-2.711665034294128">
        <ele>99.150000000000006</ele>
        <time>2023-08-17T09:38:26Z</time>
      </trkpt>
      <trkpt lat="55.597540000453591" lon="-2.711606025695801">
        <ele>99.629999999999995</ele>
        <time>2023-08-17T09:38:27Z</time>
      </trkpt>
      <trkpt lat="55.597569001838565" lon="-2.711546011269093">
        <ele>100.11</ele>
        <time>2023-08-17T09:38:28Z</time>
      </trkpt>
      <trkpt lat="55.597595991566777" lon="-2.711489014327526">
        <ele>100.59999999999999</ele>
        <time>2023-08-17T09:38:29Z</time>
      </trkpt>
      <trkpt lat="55.597602026537061" lon="-2.711477028205991">
        <ele>101.08</ele>
        <time>2023-08-17T09:38:30Z</time>
      </trkpt>
      <trkpt lat="55.597602026537061" lon="-2.711477028205991">
        <ele>101.08</ele>
        <time>2023-08-17T09:38:31Z</time>
      </trkpt>
      <trkpt lat="55.597602026537061" lon="-2.711477028205991">
        <ele>101.56</ele>
        <time>2023-08-17T09:38:32Z</time>
      </trkpt>
      <trkpt lat="55.597602026537061" lon="-2.711477028205991">
        <ele>102.52</ele>
        <time>2023-08-17T09:38:45Z</time>
      </trkpt>
      <trkpt lat="55.597602026537061" lon="-2.711477028205991">
        <ele>103.95999999999999</ele>
        <time>2023-08-17T09:39:38Z</time>
      </trkpt>
      <trkpt lat="55.597602026537061" lon="-2.711477028205991">
        <ele>104.44</ele>
        <time>2023-08-17T09:40:31Z</time>
      </trkpt>
      <trkpt lat="55.597602026537061" lon="-2.711477028205991">
        <ele>105.40000000000001</ele>
        <time>2023-08-17T09:41:19Z</time>
      </trkpt>
      <trkpt lat="55.597602026537061" lon="-2.711477028205991">
        <ele>105.88</ele>
        <time>2023-08-17T09:42:03Z</time>
      </trkpt>
      <trkpt lat="55.597602026537061" lon="-2.711477028205991">
        <ele>105.88</ele>
        <time>2023-08-17T09:42:52Z</time>
      </trkpt>
      <trkpt lat="55.597602026537061" lon="-2.711477028205991">
        <ele>106.36</ele>
        <time>2023-08-17T09:43:38Z</time>
      </trkpt>
      <trkpt lat="55.597647959366441" lon="-2.711291033774614">
        <ele>106.84</ele>
        <time>2023-08-17T09:43:39Z</time>
      </trkpt>
      <trkpt lat="55.597657011821866" lon="-2.711254991590977">
        <ele>106.84</ele>
        <time>2023-08-17T09:43:40Z</time>
      </trkpt>
      <trkpt lat="55.597684001550078" lon="-2.711234036833048">
        <ele>107.31999999999999</ele>
        <time>2023-08-17T09:43:41Z</time>
      </trkpt>
      <trkpt lat="55.597667992115021" lon="-2.7112209610641">
        <ele>107.31999999999999</ele>
        <time>2023-08-17T09:43:42Z</time>
      </trkpt>
      <trkpt lat="55.59766598045826" lon="-2.711220039054751">
        <ele>107.31999999999999</ele>
        <time>2023-08-17T09:43:43Z</time>
      </trkpt>
      <trkpt lat="55.597641002386808" lon="-2.711318023502827">
        <ele>107.31999999999999</ele>
        <time>2023-08-17T09:43:44Z</time>
      </trkpt>
      <trkpt lat="55.597614012658596" lon="-2.711425982415676">
        <ele>107.81</ele>
        <time>2023-08-17T09:43:45Z</time>
      </trkpt>
      <trkpt lat="55.59755802154541" lon="-2.711567971855402">
        <ele>107.81</ele>
        <time>2023-08-17T09:43:46Z</time>
      </trkpt>
      <trkpt lat="55.597503036260605" lon="-2.711682971566916">
        <ele>107.81</ele>
        <time>2023-08-17T09:43:47Z</time>
      </trkpt>
      <trkpt lat="55.597461964935064" lon="-2.711769975721836">
        <ele>107.81</ele>
        <time>2023-08-17T09:43:48Z</time>
      </trkpt>
      <trkpt lat="55.59723699465394" lon="-2.71171297878027">
        <ele>107.81</ele>
        <time>2023-08-17T09:43:49Z</time>
      </trkpt>
      <trkpt lat="55.59723699465394" lon="-2.71171297878027">
        <ele>108.29000000000001</ele>
        <time>2023-08-17T09:43:50Z</time>
      </trkpt>
      <trkpt lat="55.59723699465394" lon="-2.71171297878027">
        <ele>108.29000000000001</ele>
        <time>2023-08-17T09:43:51Z</time>
      </trkpt>
      <trkpt lat="55.59719399549067" lon="-2.71167098544538">
        <ele>108.77</ele>
        <time>2023-08-17T09:43:52Z</time>
      </trkpt>
      <trkpt lat="55.597158037126064" lon="-2.711635027080774">
        <ele>108.77</ele>
        <time>2023-08-17T09:43:53Z</time>
      </trkpt>
      <trkpt lat="55.597134986892343" lon="-2.711611976847053">
        <ele>108.77</ele>
        <time>2023-08-17T09:43:54Z</time>
      </trkpt>
      <trkpt lat="55.597093999385834" lon="-2.711569983512163">
        <ele>109.25</ele>
        <time>2023-08-17T09:44:03Z</time>
      </trkpt>
      <trkpt lat="55.597014036029577" lon="-2.711553974077106">
        <ele>109.25</ele>
        <time>2023-08-17T09:44:04Z</time>
      </trkpt>
      <trkpt lat="55.59700096026063" lon="-2.711637038737536">
        <ele>109.25</ele>
        <time>2023-08-17T09:44:05Z</time>
      </trkpt>
      <trkpt lat="55.59697899967432" lon="-2.711778022348881">
        <ele>109.25</ele>
        <time>2023-08-17T09:44:06Z</time>
      </trkpt>
      <trkpt lat="55.596954021602869" lon="-2.711935015395284">
        <ele>109.25</ele>
        <time>2023-08-17T09:44:07Z</time>
      </trkpt>
      <trkpt lat="55.596923008561134" lon="-2.712125033140183">
        <ele>109.25</ele>
        <time>2023-08-17T09:44:08Z</time>
      </trkpt>
      <trkpt lat="55.596887972205877" lon="-2.712342040613294">
        <ele>109.25</ele>
        <time>2023-08-17T09:44:09Z</time>
      </trkpt>
      <trkpt lat="55.596572980284691" lon="-2.714611021801829">
        <ele>107.81</ele>
        <time>2023-08-17T09:44:17Z</time>
      </trkpt>
      <trkpt lat="55.596492011100054" lon="-2.718558982014656">
        <ele>104.44</ele>
        <time>2023-08-17T09:44:29Z</time>
      </trkpt>
      <trkpt lat="55.596520006656647" lon="-2.723138015717268">
        <ele>100.59999999999999</ele>
        <time>2023-08-17T09:44:44Z</time>
      </trkpt>
      <trkpt lat="55.596553031355143" lon="-2.726415004581213">
        <ele>98.189999999999998</ele>
        <time>2023-08-17T09:44:53Z</time>
      </trkpt>
      <trkpt lat="55.596675993874669" lon="-2.731658974662423">
        <ele>92.420000000000002</ele>
        <time>2023-08-17T09:45:06Z</time>
      </trkpt>
      <trkpt lat="55.596859976649284" lon="-2.736516958102584">
        <ele>90.5</ele>
        <time>2023-08-17T09:45:19Z</time>
      </trkpt>
      <trkpt lat="55.597091987729073" lon="-2.739516003057361">
        <ele>93.390000000000001</ele>
        <time>2023-08-17T09:45:28Z</time>
      </trkpt>
      <trkpt lat="55.59770897962153" lon="-2.742584031075239">
        <ele>94.829999999999998</ele>
        <time>2023-08-17T09:45:38Z</time>
      </trkpt>
      <trkpt lat="55.598087003454566" lon="-2.743860008195043">
        <ele>95.310000000000002</ele>
        <time>2023-08-17T09:45:44Z</time>
      </trkpt>
      <trkpt lat="55.598153974860907" lon="-2.744055977091193">
        <ele>95.310000000000002</ele>
        <time>2023-08-17T09:45:46Z</time>
      </trkpt>
      <trkpt lat="55.598178030923009" lon="-2.744126971811056">
        <ele>95.310000000000002</ele>
        <time>2023-08-17T09:45:47Z</time>
      </trkpt>
      <trkpt lat="55.598199991509318" lon="-2.744193021208048">
        <ele>95.310000000000002</ele>
        <time>2023-08-17T09:45:48Z</time>
      </trkpt>
      <trkpt lat="55.598223963752389" lon="-2.744264015927911">
        <ele>95.310000000000002</ele>
        <time>2023-08-17T09:45:49Z</time>
      </trkpt>
      <trkpt lat="55.598251959308982" lon="-2.744345990940929">
        <ele>95.790000000000006</ele>
        <time>2023-08-17T09:45:50Z</time>
      </trkpt>
      <trkpt lat="55.598720004782081" lon="-2.745458018034697">
        <ele>97.230000000000004</ele>
        <time>2023-08-17T09:46:00Z</time>
      </trkpt>
      <trkpt lat="55.599296009168029" lon="-2.746626958251">
        <ele>97.230000000000004</ele>
        <time>2023-08-17T09:46:08Z</time>
      </trkpt>
      <trkpt lat="55.60017803683877" lon="-2.748321024700999">
        <ele>101.56</ele>
        <time>2023-08-17T09:46:17Z</time>
      </trkpt>
      <trkpt lat="55.600270992144942" lon="-2.748490003868938">
        <ele>102.04000000000001</ele>
        <time>2023-08-17T09:46:18Z</time>
      </trkpt>
      <trkpt lat="55.600955039262772" lon="-2.749773021787405">
        <ele>106.36</ele>
        <time>2023-08-17T09:46:26Z</time>
      </trkpt>
      <trkpt lat="55.60110398568213" lon="-2.750095976516604">
        <ele>107.31999999999999</ele>
        <time>2023-08-17T09:46:28Z</time>
      </trkpt>
      <trkpt lat="55.601132987067103" lon="-2.750294040888548">
        <ele>107.81</ele>
        <time>2023-08-17T09:46:29Z</time>
      </trkpt>
      <trkpt lat="55.601430963724852" lon="-2.75214702822268">
        <ele>109.73</ele>
        <time>2023-08-17T09:46:38Z</time>
      </trkpt>
      <trkpt lat="55.601452002301812" lon="-2.752379039302468">
        <ele>110.20999999999999</ele>
        <time>2023-08-17T09:46:39Z</time>
      </trkpt>
      <trkpt lat="55.601473962888122" lon="-2.752614989876747">
        <ele>109.73</ele>
        <time>2023-08-17T09:46:40Z</time>
      </trkpt>
      <trkpt lat="55.601474968716502" lon="-2.75285798124969">
        <ele>109.73</ele>
        <time>2023-08-17T09:46:41Z</time>
      </trkpt>
      <trkpt lat="55.601450996473432" lon="-2.753123017027974">
        <ele>109.25</ele>
        <time>2023-08-17T09:46:42Z</time>
      </trkpt>
      <trkpt lat="55.6014250125736" lon="-2.753401966765523">
        <ele>108.77</ele>
        <time>2023-08-17T09:46:43Z</time>
      </trkpt>
      <trkpt lat="55.60108101926744" lon="-2.756541995331645">
        <ele>106.36</ele>
        <time>2023-08-17T09:46:53Z</time>
      </trkpt>
      <trkpt lat="55.600671982392669" lon="-2.760220980271697">
        <ele>108.29000000000001</ele>
        <time>2023-08-17T09:47:04Z</time>
      </trkpt>
      <trkpt lat="55.600224975496531" lon="-2.764273965731263">
        <ele>107.81</ele>
        <time>2023-08-17T09:47:16Z</time>
      </trkpt>
      <trkpt lat="55.600113999098539" lon="-2.767619015648961">
        <ele>105.88</ele>
        <time>2023-08-17T09:47:26Z</time>
      </trkpt>
      <trkpt lat="55.600337963551283" lon="-2.770193014293909">
        <ele>103.95999999999999</ele>
        <time>2023-08-17T09:47:35Z</time>
      </trkpt>
      <trkpt lat="55.600433014333248" lon="-2.770970016717911">
        <ele>103.48</ele>
        <time>2023-08-17T09:47:39Z</time>
      </trkpt>
      <trkpt lat="55.600414993241429" lon="-2.771103037521243">
        <ele>103.48</ele>
        <time>2023-08-17T09:47:40Z</time>
      </trkpt>
      <trkpt lat="55.600391020998359" lon="-2.771261036396027">
        <ele>103.48</ele>
        <time>2023-08-17T09:47:41Z</time>
      </trkpt>
      <trkpt lat="55.600365037098527" lon="-2.771430015563965">
        <ele>103.48</ele>
        <time>2023-08-17T09:47:42Z</time>
      </trkpt>
      <trkpt lat="55.600337963551283" lon="-2.771602012217045">
        <ele>103.48</ele>
        <time>2023-08-17T09:47:43Z</time>
      </trkpt>
      <trkpt lat="55.60026504099369" lon="-2.772101992741227">
        <ele>103.95999999999999</ele>
        <time>2023-08-17T09:47:46Z</time>
      </trkpt>
      <trkpt lat="55.600242996588349" lon="-2.772254040464759">
        <ele>103.95999999999999</ele>
        <time>2023-08-17T09:47:47Z</time>
      </trkpt>
      <trkpt lat="55.600299993529916" lon="-2.772444980219007">
        <ele>103.95999999999999</ele>
        <time>2023-08-17T09:47:48Z</time>
      </trkpt>
      <trkpt lat="55.600347016006708" lon="-2.772585963830352">
        <ele>103.95999999999999</ele>
        <time>2023-08-17T09:47:49Z</time>
      </trkpt>
      <trkpt lat="55.600391020998359" lon="-2.772717978805304">
        <ele>104.44</ele>
        <time>2023-08-17T09:47:50Z</time>
      </trkpt>
      <trkpt lat="55.600495962426066" lon="-2.772799031808972">
        <ele>104.92</ele>
        <time>2023-08-17T09:47:51Z</time>
      </trkpt>
      <trkpt lat="55.600598976016045" lon="-2.772883018478751">
        <ele>105.40000000000001</ele>
        <time>2023-08-17T09:47:52Z</time>
      </trkpt>
      <trkpt lat="55.600700983777642" lon="-2.772988965734839">
        <ele>105.88</ele>
        <time>2023-08-17T09:47:53Z</time>
      </trkpt>
      <trkpt lat="55.601042965427041" lon="-2.773346034809947">
        <ele>106.36</ele>
        <time>2023-08-17T09:47:56Z</time>
      </trkpt>
      <trkpt lat="55.601140027865767" lon="-2.773515013977885">
        <ele>106.84</ele>
        <time>2023-08-17T09:47:57Z</time>
      </trkpt>
      <trkpt lat="55.601226026192307" lon="-2.77369799092412">
        <ele>106.84</ele>
        <time>2023-08-17T09:47:58Z</time>
      </trkpt>
      <trkpt lat="55.60196103528142" lon="-2.775843003764749">
        <ele>108.29000000000001</ele>
        <time>2023-08-17T09:48:07Z</time>
      </trkpt>
      <trkpt lat="55.602903999388218" lon="-2.778569972142577">
        <ele>110.69</ele>
        <time>2023-08-17T09:48:18Z</time>
      </trkpt>
      <trkpt lat="55.603777980431914" lon="-2.781146988272667">
        <ele>114.05</ele>
        <time>2023-08-17T09:48:30Z</time>
      </trkpt>
      <trkpt lat="55.604462027549744" lon="-2.783596012741327">
        <ele>117.42</ele>
        <time>2023-08-17T09:48:41Z</time>
      </trkpt>
      <trkpt lat="55.604619020596147" lon="-2.784708961844444">
        <ele>118.38</ele>
        <time>2023-08-17T09:48:46Z</time>
      </trkpt>
      <trkpt lat="55.604646010324359" lon="-2.785265017300844">
        <ele>118.86</ele>
        <time>2023-08-17T09:48:49Z</time>
      </trkpt>
      <trkpt lat="55.604653973132372" lon="-2.78542603366077">
        <ele>118.86</ele>
        <time>2023-08-17T09:48:50Z</time>
      </trkpt>
      <trkpt lat="55.604659002274275" lon="-2.78611502610147">
        <ele>119.34</ele>
        <time>2023-08-17T09:48:56Z</time>
      </trkpt>
      <trkpt lat="55.604642992839217" lon="-2.78618099167943">
        <ele>119.34</ele>
        <time>2023-08-17T09:48:57Z</time>
      </trkpt>
      <trkpt lat="55.604625977575779" lon="-2.786247963085771">
        <ele>119.34</ele>
        <time>2023-08-17T09:48:58Z</time>
      </trkpt>
      <trkpt lat="55.60458499006927" lon="-2.786413002759218">
        <ele>119.34</ele>
        <time>2023-08-17T09:49:00Z</time>
      </trkpt>
      <trkpt lat="55.60445498675108" lon="-2.786848023533821">
        <ele>120.3</ele>
        <time>2023-08-17T09:49:04Z</time>
      </trkpt>
      <trkpt lat="55.604424979537725" lon="-2.78699797578156">
        <ele>120.3</ele>
        <time>2023-08-17T09:49:05Z</time>
      </trkpt>
      <trkpt lat="55.604424979537725" lon="-2.787143988534808">
        <ele>120.78</ele>
        <time>2023-08-17T09:49:06Z</time>
      </trkpt>
      <trkpt lat="55.604444006457925" lon="-2.787307016551495">
        <ele>120.78</ele>
        <time>2023-08-17T09:49:07Z</time>
      </trkpt>
      <trkpt lat="55.60449798591435" lon="-2.787426039576531">
        <ele>121.26000000000001</ele>
        <time>2023-08-17T09:49:08Z</time>
      </trkpt>
      <trkpt lat="55.604573003947735" lon="-2.787522012367845">
        <ele>121.73999999999999</ele>
        <time>2023-08-17T09:49:09Z</time>
      </trkpt>
      <trkpt lat="55.604656990617514" lon="-2.787564005702734">
        <ele>121.73999999999999</ele>
        <time>2023-08-17T09:49:10Z</time>
      </trkpt>
      <trkpt lat="55.60486201196909" lon="-2.787729967385531">
        <ele>121.73999999999999</ele>
        <time>2023-08-17T09:49:12Z</time>
      </trkpt>
      <trkpt lat="55.604898976162076" lon="-2.787864999845624">
        <ele>121.73999999999999</ele>
        <time>2023-08-17T09:49:13Z</time>
      </trkpt>
      <trkpt lat="55.604939041659236" lon="-2.788009000942111">
        <ele>121.73999999999999</ele>
        <time>2023-08-17T09:49:14Z</time>
      </trkpt>
      <trkpt lat="55.605149008333683" lon="-2.7887780405581">
        <ele>121.26000000000001</ele>
        <time>2023-08-17T09:49:19Z</time>
      </trkpt>
      <trkpt lat="55.605196030810475" lon="-2.7889300044626">
        <ele>121.73999999999999</ele>
        <time>2023-08-17T09:49:20Z</time>
      </trkpt>
      <trkpt lat="55.60580899938941" lon="-2.79054100625217">
        <ele>125.11</ele>
        <time>2023-08-17T09:49:30Z</time>
      </trkpt>
      <trkpt lat="55.606329012662172" lon="-2.792151002213359">
        <ele>130.40000000000001</ele>
        <time>2023-08-17T09:49:39Z</time>
      </trkpt>
      <trkpt lat="55.606703013181686" lon="-2.793519012629986">
        <ele>131.36000000000001</ele>
        <time>2023-08-17T09:49:46Z</time>
      </trkpt>
      <trkpt lat="55.60711900703609" lon="-2.794462982565165">
        <ele>132.80000000000001</ele>
        <time>2023-08-17T09:49:53Z</time>
      </trkpt>
      <trkpt lat="55.607168963178992" lon="-2.794553004205227">
        <ele>133.28</ele>
        <time>2023-08-17T09:49:54Z</time>
      </trkpt>
      <trkpt lat="55.607299972325563" lon="-2.794788032770157">
        <ele>133.28</ele>
        <time>2023-08-17T09:49:57Z</time>
      </trkpt>
      <trkpt lat="55.607805987820029" lon="-2.795594036579132">
        <ele>133.28</ele>
        <time>2023-08-17T09:50:08Z</time>
      </trkpt>
      <trkpt lat="55.607855021953583" lon="-2.795670982450247">
        <ele>133.28</ele>
        <time>2023-08-17T09:50:09Z</time>
      </trkpt>
      <trkpt lat="55.607900032773614" lon="-2.79574298299849">
        <ele>133.28</ele>
        <time>2023-08-17T09:50:10Z</time>
      </trkpt>
      <trkpt lat="55.608230028301477" lon="-2.796270037069917">
        <ele>134.24000000000001</ele>
        <time>2023-08-17T09:50:19Z</time>
      </trkpt>
      <trkpt lat="55.608433037996292" lon="-2.796592991799116">
        <ele>135.68000000000001</ele>
        <time>2023-08-17T09:50:28Z</time>
      </trkpt>
      <trkpt lat="55.608648033812642" lon="-2.796998005360365">
        <ele>135.19999999999999</ele>
        <time>2023-08-17T09:50:37Z</time>
      </trkpt>
      <trkpt lat="55.609273994341493" lon="-2.798111960291863">
        <ele>132.31999999999999</ele>
        <time>2023-08-17T09:50:46Z</time>
      </trkpt>
      <trkpt lat="55.609340965747833" lon="-2.798230983316898">
        <ele>132.31999999999999</ele>
        <time>2023-08-17T09:50:47Z</time>
      </trkpt>
      <trkpt lat="55.609409026801586" lon="-2.798351012170315">
        <ele>132.31999999999999</ele>
        <time>2023-08-17T09:50:48Z</time>
      </trkpt>
      <trkpt lat="55.610132971778512" lon="-2.799604022875428">
        <ele>130.40000000000001</ele>
        <time>2023-08-17T09:50:59Z</time>
      </trkpt>
      <trkpt lat="55.610231962054968" lon="-2.799765961244702">
        <ele>129.91999999999999</ele>
        <time>2023-08-17T09:51:01Z</time>
      </trkpt>
      <trkpt lat="55.610290970653296" lon="-2.799863023683429">
        <ele>129.91999999999999</ele>
        <time>2023-08-17T09:51:02Z</time>
      </trkpt>
      <trkpt lat="55.610892958939075" lon="-2.800899026915431">
        <ele>129.91999999999999</ele>
        <time>2023-08-17T09:51:13Z</time>
      </trkpt>
      <trkpt lat="55.611503999680281" lon="-2.801903011277318">
        <ele>127.03</ele>
        <time>2023-08-17T09:51:24Z</time>
      </trkpt>
      <trkpt lat="55.611807005479932" lon="-2.802414977923036">
        <ele>126.06999999999999</ele>
        <time>2023-08-17T09:51:30Z</time>
      </trkpt>
      <trkpt lat="55.611815974116325" lon="-2.802429981529713">
        <ele>125.59</ele>
        <time>2023-08-17T09:51:31Z</time>
      </trkpt>
      <trkpt lat="55.611860984936357" lon="-2.802501982077956">
        <ele>125.59</ele>
        <time>2023-08-17T09:51:32Z</time>
      </trkpt>
      <trkpt lat="55.611912030726671" lon="-2.802584040910006">
        <ele>125.59</ele>
        <time>2023-08-17T09:51:33Z</time>
      </trkpt>
      <trkpt lat="55.611957963556051" lon="-2.8026810195297">
        <ele>125.11</ele>
        <time>2023-08-17T09:51:34Z</time>
      </trkpt>
      <trkpt lat="55.612008003517985" lon="-2.80278998427093">
        <ele>124.63</ele>
        <time>2023-08-17T09:51:35Z</time>
      </trkpt>
      <trkpt lat="55.612246971577406" lon="-2.80330597423017">
        <ele>124.15000000000001</ele>
        <time>2023-08-17T09:51:40Z</time>
      </trkpt>
      <trkpt lat="55.612269015982747" lon="-2.803354002535343">
        <ele>124.15000000000001</ele>
        <time>2023-08-17T09:51:41Z</time>
      </trkpt>
      <trkpt lat="55.612277984619141" lon="-2.803374035283923">
        <ele>123.67</ele>
        <time>2023-08-17T09:51:42Z</time>
      </trkpt>
      <trkpt lat="55.612286031246185" lon="-2.803389960899949">
        <ele>123.19</ele>
        <time>2023-08-17T09:51:43Z</time>
      </trkpt>
      <trkpt lat="55.612294999882579" lon="-2.803407981991768">
        <ele>123.19</ele>
        <time>2023-08-17T09:51:44Z</time>
      </trkpt>
      <trkpt lat="55.612304974347353" lon="-2.80343103222549">
        <ele>123.67</ele>
        <time>2023-08-17T09:51:45Z</time>
      </trkpt>
      <trkpt lat="55.612326012924314" lon="-2.80347503721714">
        <ele>123.67</ele>
        <time>2023-08-17T09:51:46Z</time>
      </trkpt>
      <trkpt lat="55.612358031794429" lon="-2.803545026108623">
        <ele>123.19</ele>
        <time>2023-08-17T09:51:47Z</time>
      </trkpt>
      <trkpt lat="55.612403964623809" lon="-2.803643010556698">
        <ele>123.19</ele>
        <time>2023-08-17T09:51:48Z</time>
      </trkpt>
      <trkpt lat="55.612457022070885" lon="-2.80375599861145">
        <ele>123.19</ele>
        <time>2023-08-17T09:51:49Z</time>
      </trkpt>
      <trkpt lat="55.612514019012451" lon="-2.803876027464867">
        <ele>123.19</ele>
        <time>2023-08-17T09:51:50Z</time>
      </trkpt>
      <trkpt lat="55.612567998468876" lon="-2.803993038833141">
        <ele>122.70999999999999</ele>
        <time>2023-08-17T09:51:51Z</time>
      </trkpt>
      <trkpt lat="55.612707976251841" lon="-2.804212979972363">
        <ele>122.22</ele>
        <time>2023-08-17T09:51:53Z</time>
      </trkpt>
      <trkpt lat="55.612799003720284" lon="-2.804297972470522">
        <ele>122.22</ele>
        <time>2023-08-17T09:51:54Z</time>
      </trkpt>
      <trkpt lat="55.612886007875204" lon="-2.80437801964581">
        <ele>121.73999999999999</ele>
        <time>2023-08-17T09:51:55Z</time>
      </trkpt>
      <trkpt lat="55.612944010645151" lon="-2.804431999102235">
        <ele>121.26000000000001</ele>
        <time>2023-08-17T09:51:56Z</time>
      </trkpt>
      <trkpt lat="55.612990027293563" lon="-2.804624028503895">
        <ele>120.3</ele>
        <time>2023-08-17T09:51:58Z</time>
      </trkpt>
      <trkpt lat="55.613064961507916" lon="-2.804931979626417">
        <ele>120.3</ele>
        <time>2023-08-17T09:51:59Z</time>
      </trkpt>
      <trkpt lat="55.613120030611753" lon="-2.805095007643104">
        <ele>120.3</ele>
        <time>2023-08-17T09:52:00Z</time>
      </trkpt>
      <trkpt lat="55.613207034766674" lon="-2.805230040103197">
        <ele>119.81999999999999</ele>
        <time>2023-08-17T09:52:01Z</time>
      </trkpt>
      <trkpt lat="55.613300995901227" lon="-2.805377980694175">
        <ele>119.34</ele>
        <time>2023-08-17T09:52:02Z</time>
      </trkpt>
      <trkpt lat="55.613397974520922" lon="-2.805530028417707">
        <ele>119.34</ele>
        <time>2023-08-17T09:52:03Z</time>
      </trkpt>
      <trkpt lat="55.613495036959648" lon="-2.805660031735897">
        <ele>118.38</ele>
        <time>2023-08-17T09:52:04Z</time>
      </trkpt>
      <trkpt lat="55.614021001383662" lon="-2.806294038891792">
        <ele>113.09</ele>
        <time>2023-08-17T09:52:11Z</time>
      </trkpt>
      <trkpt lat="55.614229962229729" lon="-2.806545998901129">
        <ele>111.17</ele>
        <time>2023-08-17T09:52:14Z</time>
      </trkpt>
      <trkpt lat="55.614300034940243" lon="-2.806629985570908">
        <ele>110.69</ele>
        <time>2023-08-17T09:52:15Z</time>
      </trkpt>
      <trkpt lat="55.61442400328815" lon="-2.806768035516143">
        <ele>109.73</ele>
        <time>2023-08-17T09:52:17Z</time>
      </trkpt>
      <trkpt lat="55.614478988572955" lon="-2.806818997487426">
        <ele>109.73</ele>
        <time>2023-08-17T09:52:18Z</time>
      </trkpt>
      <trkpt lat="55.614523999392986" lon="-2.806860990822315">
        <ele>109.25</ele>
        <time>2023-08-17T09:52:19Z</time>
      </trkpt>
      <trkpt lat="55.61483396217227" lon="-2.80712703242898">
        <ele>107.31999999999999</ele>
        <time>2023-08-17T09:52:25Z</time>
      </trkpt>
      <trkpt lat="55.615059016272426" lon="-2.807228034362197">
        <ele>106.84</ele>
        <time>2023-08-17T09:52:28Z</time>
      </trkpt>
      <trkpt lat="55.615124981850386" lon="-2.807251000776887">
        <ele>106.36</ele>
        <time>2023-08-17T09:52:29Z</time>
      </trkpt>
      <trkpt lat="55.615193964913487" lon="-2.807289976626635">
        <ele>106.36</ele>
        <time>2023-08-17T09:52:30Z</time>
      </trkpt>
      <trkpt lat="55.615265965461731" lon="-2.807336999103427">
        <ele>105.88</ele>
        <time>2023-08-17T09:52:31Z</time>
      </trkpt>
      <trkpt lat="55.615321034565568" lon="-2.807424003258348">
        <ele>105.40000000000001</ele>
        <time>2023-08-17T09:52:32Z</time>
      </trkpt>
      <trkpt lat="55.615376019850373" lon="-2.807510001584888">
        <ele>105.40000000000001</ele>
        <time>2023-08-17T09:52:33Z</time>
      </trkpt>
      <trkpt lat="55.615421030670404" lon="-2.80758099630475">
        <ele>104.92</ele>
        <time>2023-08-17T09:52:34Z</time>
      </trkpt>
      <trkpt lat="55.615453971549869" lon="-2.807632964104414">
        <ele>105.40000000000001</ele>
        <time>2023-08-17T09:52:35Z</time>
      </trkpt>
      <trkpt lat="55.615529995411634" lon="-2.807753998786211">
        <ele>104.92</ele>
        <time>2023-08-17T09:52:38Z</time>
      </trkpt>
      <trkpt lat="55.615568971261382" lon="-2.807817030698061">
        <ele>105.40000000000001</ele>
        <time>2023-08-17T09:52:39Z</time>
      </trkpt>
      <trkpt lat="55.615609958767891" lon="-2.80788098461926">
        <ele>105.40000000000001</ele>
        <time>2023-08-17T09:52:40Z</time>
      </trkpt>
      <trkpt lat="55.616201972588897" lon="-2.8087820392102">
        <ele>106.36</ele>
        <time>2023-08-17T09:52:51Z</time>
      </trkpt>
      <trkpt lat="55.61637899838388" lon="-2.809049002826214">
        <ele>105.88</ele>
        <time>2023-08-17T09:52:54Z</time>
      </trkpt>
      <trkpt lat="55.616437001153827" lon="-2.809135001152754">
        <ele>105.40000000000001</ele>
        <time>2023-08-17T09:52:55Z</time>
      </trkpt>
      <trkpt lat="55.616793986409903" lon="-2.809515036642551">
        <ele>103.95999999999999</ele>
        <time>2023-08-17T09:53:01Z</time>
      </trkpt>
      <trkpt lat="55.61682902276516" lon="-2.809539008885622">
        <ele>103.48</ele>
        <time>2023-08-17T09:53:02Z</time>
      </trkpt>
      <trkpt lat="55.61685198917985" lon="-2.809543032199144">
        <ele>103</ele>
        <time>2023-08-17T09:53:03Z</time>
      </trkpt>
      <trkpt lat="55.61685198917985" lon="-2.809543032199144">
        <ele>102.04000000000001</ele>
        <time>2023-08-17T09:53:12Z</time>
      </trkpt>
      <trkpt lat="55.616890965029597" lon="-2.809550995007157">
        <ele>101.08</ele>
        <time>2023-08-17T09:53:13Z</time>
      </trkpt>
      <trkpt lat="55.616917032748461" lon="-2.80955602414906">
        <ele>100.59999999999999</ele>
        <time>2023-08-17T09:53:14Z</time>
      </trkpt>
      <trkpt lat="55.616948967799544" lon="-2.809561975300312">
        <ele>100.59999999999999</ele>
        <time>2023-08-17T09:53:15Z</time>
      </trkpt>
      <trkpt lat="55.61698199249804" lon="-2.809568010270596">
        <ele>100.11</ele>
        <time>2023-08-17T09:53:16Z</time>
      </trkpt>
      <trkpt lat="55.617014011368155" lon="-2.809573961421847">
        <ele>99.629999999999995</ele>
        <time>2023-08-17T09:53:17Z</time>
      </trkpt>
      <trkpt lat="55.617171004414558" lon="-2.809602962806821">
        <ele>98.670000000000002</ele>
        <time>2023-08-17T09:53:21Z</time>
      </trkpt>
      <trkpt lat="55.617186008021235" lon="-2.809645039960742">
        <ele>98.670000000000002</ele>
        <time>2023-08-17T09:53:22Z</time>
      </trkpt>
      <trkpt lat="55.617206962779164" lon="-2.809704970568419">
        <ele>98.670000000000002</ele>
        <time>2023-08-17T09:53:23Z</time>
      </trkpt>
      <trkpt lat="55.617556991055608" lon="-2.810562020167708">
        <ele>98.670000000000002</ele>
        <time>2023-08-17T09:53:39Z</time>
      </trkpt>
      <trkpt lat="55.617595966905355" lon="-2.810641983523965">
        <ele>98.670000000000002</ele>
        <time>2023-08-17T09:53:40Z</time>
      </trkpt>
      <trkpt lat="55.618040040135384" lon="-2.811391996219754">
        <ele>99.629999999999995</ele>
        <time>2023-08-17T09:53:50Z</time>
      </trkpt>
      <trkpt lat="55.618100976571441" lon="-2.811449998989701">
        <ele>99.629999999999995</ele>
        <time>2023-08-17T09:53:51Z</time>
      </trkpt>
      <trkpt lat="55.61816199682653" lon="-2.811508001759648">
        <ele>99.629999999999995</ele>
        <time>2023-08-17T09:53:52Z</time>
      </trkpt>
      <trkpt lat="55.618224022909999" lon="-2.811567010357976">
        <ele>99.629999999999995</ele>
        <time>2023-08-17T09:53:53Z</time>
      </trkpt>
      <trkpt lat="55.618284037336707" lon="-2.811623001471162">
        <ele>99.629999999999995</ele>
        <time>2023-08-17T09:53:54Z</time>
      </trkpt>
      <trkpt lat="55.61852996237576" lon="-2.811801033094525">
        <ele>100.59999999999999</ele>
        <time>2023-08-17T09:54:02Z</time>
      </trkpt>
      <trkpt lat="55.618558963760734" lon="-2.811816958710551">
        <ele>100.59999999999999</ele>
        <time>2023-08-17T09:54:05Z</time>
      </trkpt>
      <trkpt lat="55.618585031479597" lon="-2.811831040307879">
        <ele>100.59999999999999</ele>
        <time>2023-08-17T09:54:06Z</time>
      </trkpt>
      <trkpt lat="55.618623001500964" lon="-2.811850989237428">
        <ele>101.08</ele>
        <time>2023-08-17T09:54:07Z</time>
      </trkpt>
      <trkpt lat="55.619047963991761" lon="-2.812215015292168">
        <ele>101.56</ele>
        <time>2023-08-17T09:54:14Z</time>
      </trkpt>
      <trkpt lat="55.619102027267218" lon="-2.812295984476805">
        <ele>101.56</ele>
        <time>2023-08-17T09:54:15Z</time>
      </trkpt>
      <trkpt lat="55.619155000895262" lon="-2.81239103525877">
        <ele>101.56</ele>
        <time>2023-08-17T09:54:16Z</time>
      </trkpt>
      <trkpt lat="55.619203029200435" lon="-2.812486002221704">
        <ele>101.56</ele>
        <time>2023-08-17T09:54:17Z</time>
      </trkpt>
      <trkpt lat="55.619250973686576" lon="-2.812582980841398">
        <ele>101.56</ele>
        <time>2023-08-17T09:54:18Z</time>
      </trkpt>
      <trkpt lat="55.619303025305271" lon="-2.812707033008337">
        <ele>101.56</ele>
        <time>2023-08-17T09:54:19Z</time>
      </trkpt>
      <trkpt lat="55.619400003924966" lon="-2.81297299079597">
        <ele>102.04000000000001</ele>
        <time>2023-08-17T09:54:21Z</time>
      </trkpt>
      <trkpt lat="55.619451971724629" lon="-2.813113974407315">
        <ele>102.52</ele>
        <time>2023-08-17T09:54:22Z</time>
      </trkpt>
      <trkpt lat="55.620189998298883" lon="-2.814898984506726">
        <ele>110.20999999999999</ele>
        <time>2023-08-17T09:54:37Z</time>
      </trkpt>
      <trkpt lat="55.621040007099509" lon="-2.81651996076107">
        <ele>112.61</ele>
        <time>2023-08-17T09:54:50Z</time>
      </trkpt>
      <trkpt lat="55.621669990941882" lon="-2.818348975852132">
        <ele>115.98</ele>
        <time>2023-08-17T09:55:03Z</time>
      </trkpt>
      <trkpt lat="55.622082967311144" lon="-2.820242028683424">
        <ele>115.98</ele>
        <time>2023-08-17T09:55:15Z</time>
      </trkpt>
      <trkpt lat="55.622336016967893" lon="-2.821074016392231">
        <ele>115.98</ele>
        <time>2023-08-17T09:55:21Z</time>
      </trkpt>
      <trkpt lat="55.622842032462358" lon="-2.822172967717052">
        <ele>116.45999999999999</ele>
        <time>2023-08-17T09:55:30Z</time>
      </trkpt>
      <trkpt lat="55.623436979949474" lon="-2.823379039764404">
        <ele>116.94</ele>
        <time>2023-08-17T09:55:40Z</time>
      </trkpt>
      <trkpt lat="55.62346899881959" lon="-2.823513988405466">
        <ele>117.42</ele>
        <time>2023-08-17T09:55:41Z</time>
      </trkpt>
      <trkpt lat="55.623698998242617" lon="-2.82448997721076">
        <ele>117.90000000000001</ele>
        <time>2023-08-17T09:55:47Z</time>
      </trkpt>
      <trkpt lat="55.624109040945768" lon="-2.826069965958595">
        <ele>126.06999999999999</ele>
        <time>2023-08-17T09:55:58Z</time>
      </trkpt>
      <trkpt lat="55.624433001503348" lon="-2.827449040487409">
        <ele>135.19999999999999</ele>
        <time>2023-08-17T09:56:09Z</time>
      </trkpt>
      <trkpt lat="55.624860981479287" lon="-2.829080997034907">
        <ele>137.61000000000001</ele>
        <time>2023-08-17T09:56:20Z</time>
      </trkpt>
      <trkpt lat="55.625272030010819" lon="-2.830323027446866">
        <ele>139.53</ele>
        <time>2023-08-17T09:56:30Z</time>
      </trkpt>
      <trkpt lat="55.62549096532166" lon="-2.830966003239155">
        <ele>142.41</ele>
        <time>2023-08-17T09:56:35Z</time>
      </trkpt>
      <trkpt lat="55.625578975304961" lon="-2.831225004047155">
        <ele>142.88999999999999</ele>
        <time>2023-08-17T09:56:37Z</time>
      </trkpt>
      <trkpt lat="55.626051966100931" lon="-2.832644982263446">
        <ele>144.34</ele>
        <time>2023-08-17T09:56:47Z</time>
      </trkpt>
      <trkpt lat="55.626505007967353" lon="-2.834085999056697">
        <ele>146.25999999999999</ele>
        <time>2023-08-17T09:56:57Z</time>
      </trkpt>
      <trkpt lat="55.626549012959003" lon="-2.834219019860029">
        <ele>146.74000000000001</ele>
        <time>2023-08-17T09:56:58Z</time>
      </trkpt>
      <trkpt lat="55.626596035435796" lon="-2.834360003471375">
        <ele>147.22</ele>
        <time>2023-08-17T09:56:59Z</time>
      </trkpt>
      <trkpt lat="55.626644985750318" lon="-2.834506016224623">
        <ele>147.22</ele>
        <time>2023-08-17T09:57:00Z</time>
      </trkpt>
      <trkpt lat="55.626795021817088" lon="-2.834956040605903">
        <ele>148.18000000000001</ele>
        <time>2023-08-17T09:57:03Z</time>
      </trkpt>
      <trkpt lat="55.626892000436783" lon="-2.835246976464987">
        <ele>148.18000000000001</ele>
        <time>2023-08-17T09:57:05Z</time>
      </trkpt>
      <trkpt lat="55.62703700736165" lon="-2.83568300306797">
        <ele>148.66</ele>
        <time>2023-08-17T09:57:08Z</time>
      </trkpt>
      <trkpt lat="55.62757202424109" lon="-2.837299033999443">
        <ele>148.66</ele>
        <time>2023-08-17T09:57:20Z</time>
      </trkpt>
      <trkpt lat="55.627897996455431" lon="-2.838219031691551">
        <ele>147.69999999999999</ele>
        <time>2023-08-17T09:57:27Z</time>
      </trkpt>
      <trkpt lat="55.628122966736555" lon="-2.838590014725924">
        <ele>147.69999999999999</ele>
        <time>2023-08-17T09:57:30Z</time>
      </trkpt>
      <trkpt lat="55.62905503436923" lon="-2.839614031836391">
        <ele>147.22</ele>
        <time>2023-08-17T09:57:38Z</time>
      </trkpt>
      <trkpt lat="55.629862966015935" lon="-2.841144986450672">
        <ele>145.78</ele>
        <time>2023-08-17T09:57:45Z</time>
      </trkpt>
      <trkpt lat="55.630062958225608" lon="-2.84199801273644">
        <ele>144.34</ele>
        <time>2023-08-17T09:57:48Z</time>
      </trkpt>
      <trkpt lat="55.630176030099392" lon="-2.843766007572413">
        <ele>142.41</ele>
        <time>2023-08-17T09:57:54Z</time>
      </trkpt>
      <trkpt lat="55.629826001822948" lon="-2.846716018393636">
        <ele>144.34</ele>
        <time>2023-08-17T09:58:04Z</time>
      </trkpt>
      <trkpt lat="55.629113037139177" lon="-2.850081017240882">
        <ele>146.74000000000001</ele>
        <time>2023-08-17T09:58:15Z</time>
      </trkpt>
      <trkpt lat="55.628021964803338" lon="-2.853090036660433">
        <ele>150.09999999999999</ele>
        <time>2023-08-17T09:58:25Z</time>
      </trkpt>
      <trkpt lat="55.626665018498898" lon="-2.856590989977121">
        <ele>151.53999999999999</ele>
        <time>2023-08-17T09:58:37Z</time>
      </trkpt>
      <trkpt lat="55.625230958685279" lon="-2.860061014071107">
        <ele>150.09999999999999</ele>
        <time>2023-08-17T09:58:49Z</time>
      </trkpt>
      <trkpt lat="55.624259999021888" lon="-2.862447006627917">
        <ele>149.62</ele>
        <time>2023-08-17T09:58:57Z</time>
      </trkpt>
      <trkpt lat="55.623187031596899" lon="-2.865589968860149">
        <ele>152.03</ele>
        <time>2023-08-17T09:59:06Z</time>
      </trkpt>
      <trkpt lat="55.622644973918796" lon="-2.866682969033718">
        <ele>152.99000000000001</ele>
        <time>2023-08-17T09:59:10Z</time>
      </trkpt>
      <trkpt lat="55.622486975044012" lon="-2.866862006485462">
        <ele>153.47</ele>
        <time>2023-08-17T09:59:11Z</time>
      </trkpt>
      <trkpt lat="55.621206974610686" lon="-2.8684470243752">
        <ele>154.43000000000001</ele>
        <time>2023-08-17T09:59:19Z</time>
      </trkpt>
      <trkpt lat="55.621103961020708" lon="-2.868713987991214">
        <ele>154.43000000000001</ele>
        <time>2023-08-17T09:59:20Z</time>
      </trkpt>
      <trkpt lat="55.621004970744252" lon="-2.869000984355807">
        <ele>154.43000000000001</ele>
        <time>2023-08-17T09:59:21Z</time>
      </trkpt>
      <trkpt lat="55.620339028537273" lon="-2.870732014998794">
        <ele>152.99000000000001</ele>
        <time>2023-08-17T09:59:28Z</time>
      </trkpt>
      <trkpt lat="55.620199972763658" lon="-2.87106997333467">
        <ele>152.99000000000001</ele>
        <time>2023-08-17T09:59:30Z</time>
      </trkpt>
      <trkpt lat="55.620151022449136" lon="-2.871225038543344">
        <ele>152.50999999999999</ele>
        <time>2023-08-17T09:59:31Z</time>
      </trkpt>
      <trkpt lat="55.620102994143963" lon="-2.871375996619463">
        <ele>152.50999999999999</ele>
        <time>2023-08-17T09:59:32Z</time>
      </trkpt>
      <trkpt lat="55.619815997779369" lon="-2.872764961794019">
        <ele>153.47</ele>
        <time>2023-08-17T09:59:42Z</time>
      </trkpt>
      <trkpt lat="55.61979403719306" lon="-2.87289597094059">
        <ele>153.47</ele>
        <time>2023-08-17T09:59:43Z</time>
      </trkpt>
      <trkpt lat="55.619771992787719" lon="-2.873025974258781">
        <ele>153.47</ele>
        <time>2023-08-17T09:59:44Z</time>
      </trkpt>
      <trkpt lat="55.619724970310926" lon="-2.873305007815361">
        <ele>153.47</ele>
        <time>2023-08-17T09:59:46Z</time>
      </trkpt>
      <trkpt lat="55.619533024728298" lon="-2.874417034909129">
        <ele>157.31</ele>
        <time>2023-08-17T09:59:54Z</time>
      </trkpt>
      <trkpt lat="55.619487008079886" lon="-2.874532034620643">
        <ele>158.27000000000001</ele>
        <time>2023-08-17T09:59:55Z</time>
      </trkpt>
      <trkpt lat="55.618968000635505" lon="-2.875523027032614">
        <ele>164.03999999999999</ele>
        <time>2023-08-17T10:00:04Z</time>
      </trkpt>
      <trkpt lat="55.618298035115004" lon="-2.876371024176478">
        <ele>160.68000000000001</ele>
        <time>2023-08-17T10:00:14Z</time>
      </trkpt>
      <trkpt lat="55.618243971839547" lon="-2.876421986147761">
        <ele>160.19999999999999</ele>
        <time>2023-08-17T10:00:15Z</time>
      </trkpt>
      <trkpt lat="55.618051020428538" lon="-2.876530028879643">
        <ele>159.24000000000001</ele>
        <time>2023-08-17T10:00:17Z</time>
      </trkpt>
      <trkpt lat="55.617972984910011" lon="-2.876575961709023">
        <ele>158.75</ele>
        <time>2023-08-17T10:00:18Z</time>
      </trkpt>
      <trkpt lat="55.61788396909833" lon="-2.876630024984479">
        <ele>158.27000000000001</ele>
        <time>2023-08-17T10:00:19Z</time>
      </trkpt>
      <trkpt lat="55.61779503710568" lon="-2.876682998612523">
        <ele>157.78999999999999</ele>
        <time>2023-08-17T10:00:20Z</time>
      </trkpt>
      <trkpt lat="55.617707027122378" lon="-2.876749970018864">
        <ele>157.31</ele>
        <time>2023-08-17T10:00:21Z</time>
      </trkpt>
      <trkpt lat="55.617076037451625" lon="-2.877613976597786">
        <ele>155.87</ele>
        <time>2023-08-17T10:00:29Z</time>
      </trkpt>
      <trkpt lat="55.617000013589859" lon="-2.877751020714641">
        <ele>155.38999999999999</ele>
        <time>2023-08-17T10:00:30Z</time>
      </trkpt>
      <trkpt lat="55.616926001384854" lon="-2.877898039296269">
        <ele>154.91</ele>
        <time>2023-08-17T10:00:31Z</time>
      </trkpt>
      <trkpt lat="55.616269027814269" lon="-2.879373002797365">
        <ele>148.66</ele>
        <time>2023-08-17T10:00:40Z</time>
      </trkpt>
      <trkpt lat="55.615333020687103" lon="-2.881902996450663">
        <ele>149.62</ele>
        <time>2023-08-17T10:00:50Z</time>
      </trkpt>
      <trkpt lat="55.613797958940268" lon="-2.885416019707918">
        <ele>161.16</ele>
        <time>2023-08-17T10:01:02Z</time>
      </trkpt>
      <trkpt lat="55.612033987417817" lon="-2.889253003522754">
        <ele>172.21000000000001</ele>
        <time>2023-08-17T10:01:15Z</time>
      </trkpt>
      <trkpt lat="55.610416028648615" lon="-2.892583971843123">
        <ele>172.21000000000001</ele>
        <time>2023-08-17T10:01:26Z</time>
      </trkpt>
      <trkpt lat="55.609363010153174" lon="-2.894665030762553">
        <ele>166.44999999999999</ele>
        <time>2023-08-17T10:01:33Z</time>
      </trkpt>
      <trkpt lat="55.608416022732854" lon="-2.896339986473322">
        <ele>159.24000000000001</ele>
        <time>2023-08-17T10:01:40Z</time>
      </trkpt>
      <trkpt lat="55.607911013066769" lon="-2.897178009152412">
        <ele>153.94999999999999</ele>
        <time>2023-08-17T10:01:46Z</time>
      </trkpt>
      <trkpt lat="55.607857033610344" lon="-2.897254033014178">
        <ele>152.99000000000001</ele>
        <time>2023-08-17T10:01:47Z</time>
      </trkpt>
      <trkpt lat="55.607812022790313" lon="-2.897315975278616">
        <ele>152.50999999999999</ele>
        <time>2023-08-17T10:01:48Z</time>
      </trkpt>
      <trkpt lat="55.607772963121533" lon="-2.897370960563421">
        <ele>151.53999999999999</ele>
        <time>2023-08-17T10:01:49Z</time>
      </trkpt>
      <trkpt lat="55.607731975615025" lon="-2.897427035495639">
        <ele>151.06</ele>
        <time>2023-08-17T10:01:50Z</time>
      </trkpt>
      <trkpt lat="55.6076589692384" lon="-2.897358974441886">
        <ele>150.09999999999999</ele>
        <time>2023-08-17T10:01:51Z</time>
      </trkpt>
      <trkpt lat="55.607558973133564" lon="-2.897282028570771">
        <ele>149.13999999999999</ele>
        <time>2023-08-17T10:01:52Z</time>
      </trkpt>
      <trkpt lat="55.607480015605688" lon="-2.897293008863926">
        <ele>148.66</ele>
        <time>2023-08-17T10:01:53Z</time>
      </trkpt>
      <trkpt lat="55.60737700201571" lon="-2.897383030503988">
        <ele>147.69999999999999</ele>
        <time>2023-08-17T10:01:54Z</time>
      </trkpt>
      <trkpt lat="55.607322016730905" lon="-2.897471962496638">
        <ele>146.74000000000001</ele>
        <time>2023-08-17T10:01:55Z</time>
      </trkpt>
      <trkpt lat="55.607322016730905" lon="-2.897675978019834">
        <ele>145.78</ele>
        <time>2023-08-17T10:01:56Z</time>
      </trkpt>
      <trkpt lat="55.607322016730905" lon="-2.89777304045856">
        <ele>144.81999999999999</ele>
        <time>2023-08-17T10:01:57Z</time>
      </trkpt>
      <trkpt lat="55.607388988137245" lon="-2.897940007969737">
        <ele>144.34</ele>
        <time>2023-08-17T10:01:58Z</time>
      </trkpt>
      <trkpt lat="55.607408015057445" lon="-2.897987030446529">
        <ele>143.84999999999999</ele>
        <time>2023-08-17T10:01:59Z</time>
      </trkpt>
      <trkpt lat="55.607579005882144" lon="-2.898237984627485">
        <ele>143.37</ele>
        <time>2023-08-17T10:02:00Z</time>
      </trkpt>
      <trkpt lat="55.607600966468453" lon="-2.898459015414119">
        <ele>142.88999999999999</ele>
        <time>2023-08-17T10:02:01Z</time>
      </trkpt>
      <trkpt lat="55.607639020308852" lon="-2.898636963218451">
        <ele>142.41</ele>
        <time>2023-08-17T10:02:02Z</time>
      </trkpt>
      <trkpt lat="55.607686964794993" lon="-2.898861011490226">
        <ele>141.93000000000001</ele>
        <time>2023-08-17T10:02:03Z</time>
      </trkpt>
      <trkpt lat="55.608177976682782" lon="-2.901011975482106">
        <ele>134.72</ele>
        <time>2023-08-17T10:02:11Z</time>
      </trkpt>
      <trkpt lat="55.608981968834996" lon="-2.903943965211511">
        <ele>126.06999999999999</ele>
        <time>2023-08-17T10:02:20Z</time>
      </trkpt>
      <trkpt lat="55.609459988772869" lon="-2.905817991122603">
        <ele>119.81999999999999</ele>
        <time>2023-08-17T10:02:27Z</time>
      </trkpt>
      <trkpt lat="55.609649000689387" lon="-2.906178999692202">
        <ele>118.38</ele>
        <time>2023-08-17T10:02:29Z</time>
      </trkpt>
      <trkpt lat="55.610418040305376" lon="-2.907282980158925">
        <ele>112.61</ele>
        <time>2023-08-17T10:02:35Z</time>
      </trkpt>
      <trkpt lat="55.610566986724734" lon="-2.907450031489134">
        <ele>111.17</ele>
        <time>2023-08-17T10:02:36Z</time>
      </trkpt>
      <trkpt lat="55.610716016963124" lon="-2.907618004828692">
        <ele>109.25</ele>
        <time>2023-08-17T10:02:37Z</time>
      </trkpt>
      <trkpt lat="55.610870998352766" lon="-2.907792013138533">
        <ele>107.81</ele>
        <time>2023-08-17T10:02:38Z</time>
      </trkpt>
      <trkpt lat="55.611025979742408" lon="-2.907996028661728">
        <ele>105.88</ele>
        <time>2023-08-17T10:02:39Z</time>
      </trkpt>
      <trkpt lat="55.611739028245211" lon="-2.909078970551491">
        <ele>97.709999999999994</ele>
        <time>2023-08-17T10:02:44Z</time>
      </trkpt>
      <trkpt lat="55.612739995121956" lon="-2.911348035559058">
        <ele>87.140000000000001</ele>
        <time>2023-08-17T10:02:53Z</time>
      </trkpt>
      <trkpt lat="55.613702991977334" lon="-2.913529006764293">
        <ele>89.540000000000006</ele>
        <time>2023-08-17T10:03:01Z</time>
      </trkpt>
      <trkpt lat="55.614970000460744" lon="-2.916802978143096">
        <ele>93.870000000000005</ele>
        <time>2023-08-17T10:03:11Z</time>
      </trkpt>
      <trkpt lat="55.615668967366219" lon="-2.919634971767664">
        <ele>96.269999999999996</ele>
        <time>2023-08-17T10:03:19Z</time>
      </trkpt>
      <trkpt lat="55.616245977580547" lon="-2.921954998746514">
        <ele>96.269999999999996</ele>
        <time>2023-08-17T10:03:27Z</time>
      </trkpt>
      <trkpt lat="55.616348991170526" lon="-2.922176029533148">
        <ele>96.269999999999996</ele>
        <time>2023-08-17T10:03:28Z</time>
      </trkpt>
      <trkpt lat="55.616468014195561" lon="-2.92237501591444">
        <ele>96.269999999999996</ele>
        <time>2023-08-17T10:03:29Z</time>
      </trkpt>
      <trkpt lat="55.616588965058327" lon="-2.922580037266016">
        <ele>95.790000000000006</ele>
        <time>2023-08-17T10:03:30Z</time>
      </trkpt>
      <trkpt lat="55.616705976426601" lon="-2.922797966748476">
        <ele>95.310000000000002</ele>
        <time>2023-08-17T10:03:31Z</time>
      </trkpt>
      <trkpt lat="55.61683002859354" lon="-2.923036012798548">
        <ele>95.310000000000002</ele>
        <time>2023-08-17T10:03:32Z</time>
      </trkpt>
      <trkpt lat="55.616918038576841" lon="-2.923310017213225">
        <ele>94.829999999999998</ele>
        <time>2023-08-17T10:03:33Z</time>
      </trkpt>
      <trkpt lat="55.617381976917386" lon="-2.92549098841846">
        <ele>92.900000000000006</ele>
        <time>2023-08-17T10:03:40Z</time>
      </trkpt>
      <trkpt lat="55.617422964423895" lon="-2.925793994218111">
        <ele>92.420000000000002</ele>
        <time>2023-08-17T10:03:41Z</time>
      </trkpt>
      <trkpt lat="55.617452971637249" lon="-2.926104962825775">
        <ele>92.420000000000002</ele>
        <time>2023-08-17T10:03:42Z</time>
      </trkpt>
      <trkpt lat="55.617460012435913" lon="-2.926403023302555">
        <ele>91.939999999999998</ele>
        <time>2023-08-17T10:03:43Z</time>
      </trkpt>
      <trkpt lat="55.617465963587165" lon="-2.926682978868485">
        <ele>91.939999999999998</ele>
        <time>2023-08-17T10:03:44Z</time>
      </trkpt>
      <trkpt lat="55.617459006607533" lon="-2.926963018253446">
        <ele>91.459999999999994</ele>
        <time>2023-08-17T10:03:45Z</time>
      </trkpt>
      <trkpt lat="55.617415001615882" lon="-2.92723199352622">
        <ele>91.459999999999994</ele>
        <time>2023-08-17T10:03:46Z</time>
      </trkpt>
      <trkpt lat="55.61736797913909" lon="-2.927516978234053">
        <ele>91.459999999999994</ele>
        <time>2023-08-17T10:03:47Z</time>
      </trkpt>
      <trkpt lat="55.616921978071332" lon="-2.930305972695351">
        <ele>97.230000000000004</ele>
        <time>2023-08-17T10:03:56Z</time>
      </trkpt>
      <trkpt lat="55.616620983928442" lon="-2.933864006772637">
        <ele>108.29000000000001</ele>
        <time>2023-08-17T10:04:07Z</time>
      </trkpt>
      <trkpt lat="55.616213958710432" lon="-2.936519980430603">
        <ele>116.94</ele>
        <time>2023-08-17T10:04:16Z</time>
      </trkpt>
      <trkpt lat="55.616176994517446" lon="-2.936785016208887">
        <ele>117.90000000000001</ele>
        <time>2023-08-17T10:04:17Z</time>
      </trkpt>
      <trkpt lat="55.616170037537813" lon="-2.937056003138423">
        <ele>118.86</ele>
        <time>2023-08-17T10:04:18Z</time>
      </trkpt>
      <trkpt lat="55.616183029487729" lon="-2.937344005331397">
        <ele>119.81999999999999</ele>
        <time>2023-08-17T10:04:19Z</time>
      </trkpt>
      <trkpt lat="55.616197027266026" lon="-2.937647011131048">
        <ele>121.26000000000001</ele>
        <time>2023-08-17T10:04:20Z</time>
      </trkpt>
      <trkpt lat="55.616223011165857" lon="-2.937968960031867">
        <ele>122.70999999999999</ele>
        <time>2023-08-17T10:04:21Z</time>
      </trkpt>
      <trkpt lat="55.616556024178863" lon="-2.940729036927223">
        <ele>130.40000000000001</ele>
        <time>2023-08-17T10:04:29Z</time>
      </trkpt>
      <trkpt lat="55.616561975330114" lon="-2.94106800109148">
        <ele>131.84</ele>
        <time>2023-08-17T10:04:30Z</time>
      </trkpt>
      <trkpt lat="55.616591982543468" lon="-2.941746013239026">
        <ele>133.28</ele>
        <time>2023-08-17T10:04:32Z</time>
      </trkpt>
      <trkpt lat="55.616674041375518" lon="-2.942686965689063">
        <ele>135.68000000000001</ele>
        <time>2023-08-17T10:04:35Z</time>
      </trkpt>
      <trkpt lat="55.616733971983194" lon="-2.942989971488714">
        <ele>136.16</ele>
        <time>2023-08-17T10:04:36Z</time>
      </trkpt>
      <trkpt lat="55.617246022447944" lon="-2.945937970653176">
        <ele>136.63999999999999</ele>
        <time>2023-08-17T10:04:45Z</time>
      </trkpt>
      <trkpt lat="55.617641983553767" lon="-2.948925029486418">
        <ele>136.63999999999999</ele>
        <time>2023-08-17T10:04:54Z</time>
      </trkpt>
      <trkpt lat="55.618344973772764" lon="-2.951736990362406">
        <ele>136.63999999999999</ele>
        <time>2023-08-17T10:05:03Z</time>
      </trkpt>
      <trkpt lat="55.618573967367411" lon="-2.952652964740992">
        <ele>135.68000000000001</ele>
        <time>2023-08-17T10:05:06Z</time>
      </trkpt>
      <trkpt lat="55.618670023977757" lon="-2.952942978590727">
        <ele>135.68000000000001</ele>
        <time>2023-08-17T10:05:07Z</time>
      </trkpt>
      <trkpt lat="55.61878502368927" lon="-2.953225029632449">
        <ele>135.19999999999999</ele>
        <time>2023-08-17T10:05:08Z</time>
      </trkpt>
      <trkpt lat="55.618903962895274" lon="-2.95350800268352">
        <ele>134.72</ele>
        <time>2023-08-17T10:05:09Z</time>
      </trkpt>
      <trkpt lat="55.619037989526987" lon="-2.953771026805043">
        <ele>134.24000000000001</ele>
        <time>2023-08-17T10:05:10Z</time>
      </trkpt>
      <trkpt lat="55.6198800355196" lon="-2.955180024728179">
        <ele>132.31999999999999</ele>
        <time>2023-08-17T10:05:16Z</time>
      </trkpt>
      <trkpt lat="55.620039962232113" lon="-2.955345986410976">
        <ele>131.84</ele>
        <time>2023-08-17T10:05:17Z</time>
      </trkpt>
      <trkpt lat="55.620202990248799" lon="-2.955513959750533">
        <ele>131.36000000000001</ele>
        <time>2023-08-17T10:05:18Z</time>
      </trkpt>
      <trkpt lat="55.622109035030007" lon="-2.957226969301701">
        <ele>128.47</ele>
        <time>2023-08-17T10:05:29Z</time>
      </trkpt>
      <trkpt lat="55.62299600802362" lon="-2.957889977842569">
        <ele>128.47</ele>
        <time>2023-08-17T10:05:34Z</time>
      </trkpt>
      <trkpt lat="55.624442975968122" lon="-2.959455968812108">
        <ele>128.94999999999999</ele>
        <time>2023-08-17T10:05:43Z</time>
      </trkpt>
      <trkpt lat="55.624899035319686" lon="-2.960134986788034">
        <ele>130.40000000000001</ele>
        <time>2023-08-17T10:05:46Z</time>
      </trkpt>
      <trkpt lat="55.625581992790103" lon="-2.961415993049741">
        <ele>133.28</ele>
        <time>2023-08-17T10:05:52Z</time>
      </trkpt>
      <trkpt lat="55.625676959753036" lon="-2.961685974150896">
        <ele>134.24000000000001</ele>
        <time>2023-08-17T10:05:53Z</time>
      </trkpt>
      <trkpt lat="55.625751977786422" lon="-2.961935000494123">
        <ele>134.72</ele>
        <time>2023-08-17T10:05:54Z</time>
      </trkpt>
      <trkpt lat="55.625808974727988" lon="-2.962203975766897">
        <ele>135.19999999999999</ele>
        <time>2023-08-17T10:05:55Z</time>
      </trkpt>
      <trkpt lat="55.625867983326316" lon="-2.962485020980239">
        <ele>136.16</ele>
        <time>2023-08-17T10:05:56Z</time>
      </trkpt>
      <trkpt lat="55.626265034079552" lon="-2.964317975565791">
        <ele>137.13</ele>
        <time>2023-08-17T10:06:02Z</time>
      </trkpt>
      <trkpt lat="55.626358995214105" lon="-2.964583011344075">
        <ele>137.13</ele>
        <time>2023-08-17T10:06:03Z</time>
      </trkpt>
      <trkpt lat="55.626462008804083" lon="-2.964871013537049">
        <ele>137.13</ele>
        <time>2023-08-17T10:06:04Z</time>
      </trkpt>
      <trkpt lat="55.626696031540632" lon="-2.965338975191116">
        <ele>137.61000000000001</ele>
        <time>2023-08-17T10:06:06Z</time>
      </trkpt>
      <trkpt lat="55.626759985461831" lon="-2.965615997090936">
        <ele>137.61000000000001</ele>
        <time>2023-08-17T10:06:07Z</time>
      </trkpt>
      <trkpt lat="55.626823017373681" lon="-2.96588497236371">
        <ele>137.61000000000001</ele>
        <time>2023-08-17T10:06:08Z</time>
      </trkpt>
      <trkpt lat="55.626833997666836" lon="-2.966186972334981">
        <ele>137.13</ele>
        <time>2023-08-17T10:06:09Z</time>
      </trkpt>
      <trkpt lat="55.626842966303229" lon="-2.966519985347986">
        <ele>136.63999999999999</ele>
        <time>2023-08-17T10:06:10Z</time>
      </trkpt>
      <trkpt lat="55.626934999600053" lon="-2.969511989504099">
        <ele>134.72</ele>
        <time>2023-08-17T10:06:18Z</time>
      </trkpt>
      <trkpt lat="55.627020997926593" lon="-2.971014026552439">
        <ele>133.28</ele>
        <time>2023-08-17T10:06:22Z</time>
      </trkpt>
      <trkpt lat="55.627439003437757" lon="-2.973779970780015">
        <ele>128.94999999999999</ele>
        <time>2023-08-17T10:06:30Z</time>
      </trkpt>
      <trkpt lat="55.627645030617714" lon="-2.975072963163257">
        <ele>128.94999999999999</ele>
        <time>2023-08-17T10:06:34Z</time>
      </trkpt>
      <trkpt lat="55.627781990915537" lon="-2.976350029930472">
        <ele>129.43000000000001</ele>
        <time>2023-08-17T10:06:38Z</time>
      </trkpt>
      <trkpt lat="55.627955999225378" lon="-2.978322962298989">
        <ele>129.43000000000001</ele>
        <time>2023-08-17T10:06:44Z</time>
      </trkpt>
      <trkpt lat="55.627996986731887" lon="-2.97862202860415">
        <ele>129.43000000000001</ele>
        <time>2023-08-17T10:06:45Z</time>
      </trkpt>
      <trkpt lat="55.62804602086544" lon="-2.978908019140363">
        <ele>129.43000000000001</ele>
        <time>2023-08-17T10:06:46Z</time>
      </trkpt>
      <trkpt lat="55.628117015585303" lon="-2.979165008291602">
        <ele>129.43000000000001</ele>
        <time>2023-08-17T10:06:47Z</time>
      </trkpt>
      <trkpt lat="55.628216005861759" lon="-2.979404982179403">
        <ele>129.91999999999999</ele>
        <time>2023-08-17T10:06:48Z</time>
      </trkpt>
      <trkpt lat="55.628313990309834" lon="-2.979644034057856">
        <ele>130.40000000000001</ele>
        <time>2023-08-17T10:06:49Z</time>
      </trkpt>
      <trkpt lat="55.628418009728193" lon="-2.979866992682219">
        <ele>130.88</ele>
        <time>2023-08-17T10:06:50Z</time>
      </trkpt>
      <trkpt lat="55.628543989732862" lon="-2.980092968791723">
        <ele>130.88</ele>
        <time>2023-08-17T10:06:51Z</time>
      </trkpt>
      <trkpt lat="55.628676004707813" lon="-2.980329003185034">
        <ele>130.40000000000001</ele>
        <time>2023-08-17T10:06:52Z</time>
      </trkpt>
      <trkpt lat="55.628933999687433" lon="-2.98079302534461">
        <ele>129.43000000000001</ele>
        <time>2023-08-17T10:06:54Z</time>
      </trkpt>
      <trkpt lat="55.629042964428663" lon="-2.981038028374314">
        <ele>128.94999999999999</ele>
        <time>2023-08-17T10:06:55Z</time>
      </trkpt>
      <trkpt lat="55.629137009382248" lon="-2.98130901530385">
        <ele>127.98999999999999</ele>
        <time>2023-08-17T10:06:56Z</time>
      </trkpt>
      <trkpt lat="55.629202974960208" lon="-2.981615038588643">
        <ele>127.51000000000001</ele>
        <time>2023-08-17T10:06:57Z</time>
      </trkpt>
      <trkpt lat="55.62927296385169" lon="-2.981950985267758">
        <ele>127.03</ele>
        <time>2023-08-17T10:06:58Z</time>
      </trkpt>
      <trkpt lat="55.629315041005611" lon="-2.98227402381599">
        <ele>126.55</ele>
        <time>2023-08-17T10:06:59Z</time>
      </trkpt>
      <trkpt lat="55.629615029320121" lon="-2.985093025490642">
        <ele>122.70999999999999</ele>
        <time>2023-08-17T10:07:07Z</time>
      </trkpt>
      <trkpt lat="55.629610000178218" lon="-2.985445987433195">
        <ele>122.70999999999999</ele>
        <time>2023-08-17T10:07:08Z</time>
      </trkpt>
      <trkpt lat="55.629600025713444" lon="-2.986132968217135">
        <ele>122.22</ele>
        <time>2023-08-17T10:07:10Z</time>
      </trkpt>
      <trkpt lat="55.629596002399921" lon="-2.986485008150339">
        <ele>122.22</ele>
        <time>2023-08-17T10:07:11Z</time>
      </trkpt>
      <trkpt lat="55.629867995157838" lon="-2.989598968997598">
        <ele>121.26000000000001</ele>
        <time>2023-08-17T10:07:20Z</time>
      </trkpt>
      <trkpt lat="55.62985198572278" lon="-2.989936005324125">
        <ele>121.73999999999999</ele>
        <time>2023-08-17T10:07:21Z</time>
      </trkpt>
      <trkpt lat="55.629659034311771" lon="-2.993452968075872">
        <ele>128.94999999999999</ele>
        <time>2023-08-17T10:07:31Z</time>
      </trkpt>
      <trkpt lat="55.629265001043677" lon="-2.99606996588409">
        <ele>135.68000000000001</ele>
        <time>2023-08-17T10:07:38Z</time>
      </trkpt>
      <trkpt lat="55.628208965063095" lon="-3.000403996556997">
        <ele>145.78</ele>
        <time>2023-08-17T10:07:50Z</time>
      </trkpt>
      <trkpt lat="55.627354010939598" lon="-3.003648966550827">
        <ele>151.53999999999999</ele>
        <time>2023-08-17T10:08:00Z</time>
      </trkpt>
      <trkpt lat="55.626697959378362" lon="-3.005232978612185">
        <ele>153.94999999999999</ele>
        <time>2023-08-17T10:08:07Z</time>
      </trkpt>
      <trkpt lat="55.626010978594422" lon="-3.0065549723804">
        <ele>151.53999999999999</ele>
        <time>2023-08-17T10:08:14Z</time>
      </trkpt>
      <trkpt lat="55.625375965610147" lon="-3.008238980546594">
        <ele>148.66</ele>
        <time>2023-08-17T10:08:22Z</time>
      </trkpt>
      <trkpt lat="55.625239005312324" lon="-3.008604012429714">
        <ele>148.18000000000001</ele>
        <time>2023-08-17T10:08:24Z</time>
      </trkpt>
      <trkpt lat="55.625176979228854" lon="-3.008767040446401">
        <ele>148.18000000000001</ele>
        <time>2023-08-17T10:08:25Z</time>
      </trkpt>
      <trkpt lat="55.624787975102663" lon="-3.010037988424301">
        <ele>147.22</ele>
        <time>2023-08-17T10:08:34Z</time>
      </trkpt>
      <trkpt lat="55.624744975939393" lon="-3.010173020884395">
        <ele>147.22</ele>
        <time>2023-08-17T10:08:35Z</time>
      </trkpt>
      <trkpt lat="55.62458798289299" lon="-3.010677024722099">
        <ele>147.22</ele>
        <time>2023-08-17T10:08:39Z</time>
      </trkpt>
      <trkpt lat="55.624548001214862" lon="-3.010804010555148">
        <ele>147.22</ele>
        <time>2023-08-17T10:08:40Z</time>
      </trkpt>
      <trkpt lat="55.624258993193507" lon="-3.011954007670283">
        <ele>149.13999999999999</ele>
        <time>2023-08-17T10:08:48Z</time>
      </trkpt>
      <trkpt lat="55.623961016535759" lon="-3.013217998668551">
        <ele>151.06</ele>
        <time>2023-08-17T10:08:56Z</time>
      </trkpt>
      <trkpt lat="55.623879041522741" lon="-3.01355897448957">
        <ele>151.06</ele>
        <time>2023-08-17T10:08:58Z</time>
      </trkpt>
      <trkpt lat="55.623628003522754" lon="-3.014605036005378">
        <ele>151.06</ele>
        <time>2023-08-17T10:09:05Z</time>
      </trkpt>
      <trkpt lat="55.623614005744457" lon="-3.014743002131581">
        <ele>150.58000000000001</ele>
        <time>2023-08-17T10:09:06Z</time>
      </trkpt>
      <trkpt lat="55.623588021844625" lon="-3.01504097878933">
        <ele>150.09999999999999</ele>
        <time>2023-08-17T10:09:08Z</time>
      </trkpt>
      <trkpt lat="55.623593972995877" lon="-3.015195960178971">
        <ele>149.62</ele>
        <time>2023-08-17T10:09:09Z</time>
      </trkpt>
      <trkpt lat="55.623623980209231" lon="-3.015914959833026">
        <ele>148.66</ele>
        <time>2023-08-17T10:09:14Z</time>
      </trkpt>
      <trkpt lat="55.623630015179515" lon="-3.016056027263403">
        <ele>148.18000000000001</ele>
        <time>2023-08-17T10:09:15Z</time>
      </trkpt>
      <trkpt lat="55.623669996857643" lon="-3.017028998583555">
        <ele>151.06</ele>
        <time>2023-08-17T10:09:21Z</time>
      </trkpt>
      <trkpt lat="55.623714001849294" lon="-3.017789991572499">
        <ele>151.06</ele>
        <time>2023-08-17T10:09:25Z</time>
      </trkpt>
      <trkpt lat="55.623717019334435" lon="-3.019289011135697">
        <ele>145.30000000000001</ele>
        <time>2023-08-17T10:09:35Z</time>
      </trkpt>
      <trkpt lat="55.623746020719409" lon="-3.019397975876927">
        <ele>144.81999999999999</ele>
        <time>2023-08-17T10:09:36Z</time>
      </trkpt>
      <trkpt lat="55.623775022104383" lon="-3.019509958103299">
        <ele>144.81999999999999</ele>
        <time>2023-08-17T10:09:37Z</time>
      </trkpt>
      <trkpt lat="55.623807962983847" lon="-3.019619006663561">
        <ele>145.30000000000001</ele>
        <time>2023-08-17T10:09:38Z</time>
      </trkpt>
      <trkpt lat="55.623887004330754" lon="-3.019738029688597">
        <ele>144.81999999999999</ele>
        <time>2023-08-17T10:09:39Z</time>
      </trkpt>
      <trkpt lat="55.623945007100701" lon="-3.019787985831499">
        <ele>143.84999999999999</ele>
        <time>2023-08-17T10:09:40Z</time>
      </trkpt>
      <trkpt lat="55.624023964628577" lon="-3.019855041056871">
        <ele>143.37</ele>
        <time>2023-08-17T10:09:41Z</time>
      </trkpt>
      <trkpt lat="55.624089008197188" lon="-3.019950008019805">
        <ele>142.88999999999999</ele>
        <time>2023-08-17T10:09:42Z</time>
      </trkpt>
      <trkpt lat="55.624147010967135" lon="-3.020042963325977">
        <ele>142.41</ele>
        <time>2023-08-17T10:09:43Z</time>
      </trkpt>
      <trkpt lat="55.624314984306693" lon="-3.020358039066196">
        <ele>141.44999999999999</ele>
        <time>2023-08-17T10:09:46Z</time>
      </trkpt>
      <trkpt lat="55.624367035925388" lon="-3.020483013242483">
        <ele>140.97</ele>
        <time>2023-08-17T10:09:47Z</time>
      </trkpt>
      <trkpt lat="55.624423027038574" lon="-3.020614022389054">
        <ele>140.97</ele>
        <time>2023-08-17T10:09:48Z</time>
      </trkpt>
      <trkpt lat="55.624724021181464" lon="-3.021797966212034">
        <ele>140.49000000000001</ele>
        <time>2023-08-17T10:09:56Z</time>
      </trkpt>
      <trkpt lat="55.624745981767774" lon="-3.021988989785314">
        <ele>140.00999999999999</ele>
        <time>2023-08-17T10:09:57Z</time>
      </trkpt>
      <trkpt lat="55.624765008687973" lon="-3.022152017802">
        <ele>140.00999999999999</ele>
        <time>2023-08-17T10:09:58Z</time>
      </trkpt>
      <trkpt lat="55.624784035608172" lon="-3.022311022505164">
        <ele>140.00999999999999</ele>
        <time>2023-08-17T10:09:59Z</time>
      </trkpt>
      <trkpt lat="55.62480297870934" lon="-3.022473966702819">
        <ele>140.00999999999999</ele>
        <time>2023-08-17T10:10:00Z</time>
      </trkpt>
      <trkpt lat="55.625024009495974" lon="-3.024370037019253">
        <ele>140.97</ele>
        <time>2023-08-17T10:10:12Z</time>
      </trkpt>
      <trkpt lat="55.625084023922682" lon="-3.025208981707692">
        <ele>142.88999999999999</ele>
        <time>2023-08-17T10:10:17Z</time>
      </trkpt>
      <trkpt lat="55.625045970082283" lon="-3.026154041290283">
        <ele>145.30000000000001</ele>
        <time>2023-08-17T10:10:23Z</time>
      </trkpt>
      <trkpt lat="55.625130962580442" lon="-3.027966963127255">
        <ele>145.78</ele>
        <time>2023-08-17T10:10:33Z</time>
      </trkpt>
      <trkpt lat="55.625255014747381" lon="-3.029687013477087">
        <ele>144.34</ele>
        <time>2023-08-17T10:10:40Z</time>
      </trkpt>
      <trkpt lat="55.625320980325341" lon="-3.032326977699995">
        <ele>141.44999999999999</ele>
        <time>2023-08-17T10:10:48Z</time>
      </trkpt>
      <trkpt lat="55.625374959781766" lon="-3.034899970516563">
        <ele>139.05000000000001</ele>
        <time>2023-08-17T10:10:55Z</time>
      </trkpt>
      <trkpt lat="55.625426005572081" lon="-3.03775199688971">
        <ele>137.13</ele>
        <time>2023-08-17T10:11:03Z</time>
      </trkpt>
      <trkpt lat="55.62533900141716" lon="-3.040460022166371">
        <ele>134.72</ele>
        <time>2023-08-17T10:11:11Z</time>
      </trkpt>
      <trkpt lat="55.625134985893965" lon="-3.043628968298435">
        <ele>129.91999999999999</ele>
        <time>2023-08-17T10:11:20Z</time>
      </trkpt>
      <trkpt lat="55.624945973977447" lon="-3.046183018013835">
        <ele>127.51000000000001</ele>
        <time>2023-08-17T10:11:28Z</time>
      </trkpt>
      <trkpt lat="55.624530985951424" lon="-3.048531962558627">
        <ele>128.47</ele>
        <time>2023-08-17T10:11:36Z</time>
      </trkpt>
      <trkpt lat="55.624160002917051" lon="-3.050351003184915">
        <ele>127.03</ele>
        <time>2023-08-17T10:11:43Z</time>
      </trkpt>
      <trkpt lat="55.624099988490343" lon="-3.050597012042999">
        <ele>127.03</ele>
        <time>2023-08-17T10:11:44Z</time>
      </trkpt>
      <trkpt lat="55.623967973515391" lon="-3.050966989248991">
        <ele>126.55</ele>
        <time>2023-08-17T10:11:46Z</time>
      </trkpt>
      <trkpt lat="55.623903013765812" lon="-3.051149966195226">
        <ele>126.55</ele>
        <time>2023-08-17T10:11:47Z</time>
      </trkpt>
      <trkpt lat="55.623763035982847" lon="-3.051542993634939">
        <ele>126.55</ele>
        <time>2023-08-17T10:11:49Z</time>
      </trkpt>
      <trkpt lat="55.623692041262984" lon="-3.051740974187851">
        <ele>126.55</ele>
        <time>2023-08-17T10:11:50Z</time>
      </trkpt>
      <trkpt lat="55.62366396188736" lon="-3.051912970840931">
        <ele>126.55</ele>
        <time>2023-08-17T10:11:51Z</time>
      </trkpt>
      <trkpt lat="55.623647030442953" lon="-3.052152022719383">
        <ele>126.55</ele>
        <time>2023-08-17T10:11:52Z</time>
      </trkpt>
      <trkpt lat="55.623630015179515" lon="-3.052389984950423">
        <ele>126.55</ele>
        <time>2023-08-17T10:11:53Z</time>
      </trkpt>
      <trkpt lat="55.6235979963094" lon="-3.052843026816845">
        <ele>127.51000000000001</ele>
        <time>2023-08-17T10:11:55Z</time>
      </trkpt>
      <trkpt lat="55.623561032116413" lon="-3.053099010139704">
        <ele>127.98999999999999</ele>
        <time>2023-08-17T10:11:56Z</time>
      </trkpt>
      <trkpt lat="55.623209998011589" lon="-3.054407006129623">
        <ele>130.88</ele>
        <time>2023-08-17T10:12:02Z</time>
      </trkpt>
      <trkpt lat="55.62305903993547" lon="-3.054754016920924">
        <ele>131.84</ele>
        <time>2023-08-17T10:12:04Z</time>
      </trkpt>
      <trkpt lat="55.62297597527504" lon="-3.05489500053227">
        <ele>132.31999999999999</ele>
        <time>2023-08-17T10:12:05Z</time>
      </trkpt>
      <trkpt lat="55.6228899769485" lon="-3.055043024942279">
        <ele>132.80000000000001</ele>
        <time>2023-08-17T10:12:06Z</time>
      </trkpt>
      <trkpt lat="55.622178018093109" lon="-3.056392008438706">
        <ele>137.61000000000001</ele>
        <time>2023-08-17T10:12:14Z</time>
      </trkpt>
      <trkpt lat="55.621998980641365" lon="-3.056730972602963">
        <ele>139.05000000000001</ele>
        <time>2023-08-17T10:12:17Z</time>
      </trkpt>
      <trkpt lat="55.621525989845395" lon="-3.057527001947165">
        <ele>142.41</ele>
        <time>2023-08-17T10:12:23Z</time>
      </trkpt>
      <trkpt lat="55.621469998732209" lon="-3.057634960860014">
        <ele>143.37</ele>
        <time>2023-08-17T10:12:24Z</time>
      </trkpt>
      <trkpt lat="55.621305964887142" lon="-3.057950036600232">
        <ele>145.30000000000001</ele>
        <time>2023-08-17T10:12:27Z</time>
      </trkpt>
      <trkpt lat="55.620969012379646" lon="-3.058598041534424">
        <ele>148.18000000000001</ele>
        <time>2023-08-17T10:12:33Z</time>
      </trkpt>
      <trkpt lat="55.620856024324894" lon="-3.05882996879518">
        <ele>149.62</ele>
        <time>2023-08-17T10:12:35Z</time>
      </trkpt>
      <trkpt lat="55.62018203549087" lon="-3.060154980048537">
        <ele>151.06</ele>
        <time>2023-08-17T10:12:47Z</time>
      </trkpt>
      <trkpt lat="55.619918005540967" lon="-3.060722015798092">
        <ele>152.50999999999999</ele>
        <time>2023-08-17T10:12:52Z</time>
      </trkpt>
      <trkpt lat="55.61990300193429" lon="-3.060874985530973">
        <ele>152.03</ele>
        <time>2023-08-17T10:12:53Z</time>
      </trkpt>
      <trkpt lat="55.619889004155993" lon="-3.061028961092234">
        <ele>151.53999999999999</ele>
        <time>2023-08-17T10:12:54Z</time>
      </trkpt>
      <trkpt lat="55.61986000277102" lon="-3.061330961063504">
        <ele>150.58000000000001</ele>
        <time>2023-08-17T10:12:56Z</time>
      </trkpt>
      <trkpt lat="55.619848016649485" lon="-3.061473034322262">
        <ele>151.06</ele>
        <time>2023-08-17T10:12:57Z</time>
      </trkpt>
      <trkpt lat="55.61983703635633" lon="-3.061605971306562">
        <ele>151.06</ele>
        <time>2023-08-17T10:12:58Z</time>
      </trkpt>
      <trkpt lat="55.619812980294228" lon="-3.061716025695205">
        <ele>151.53999999999999</ele>
        <time>2023-08-17T10:12:59Z</time>
      </trkpt>
      <trkpt lat="55.619771992787719" lon="-3.061827002093196">
        <ele>152.03</ele>
        <time>2023-08-17T10:13:00Z</time>
      </trkpt>
      <trkpt lat="55.619729999452829" lon="-3.061939990147948">
        <ele>152.50999999999999</ele>
        <time>2023-08-17T10:13:01Z</time>
      </trkpt>
      <trkpt lat="55.619555991142988" lon="-3.062406023964286">
        <ele>153.47</ele>
        <time>2023-08-17T10:13:05Z</time>
      </trkpt>
      <trkpt lat="55.619513997808099" lon="-3.062519012019038">
        <ele>153.94999999999999</ele>
        <time>2023-08-17T10:13:06Z</time>
      </trkpt>
      <trkpt lat="55.619018962606788" lon="-3.063699016347528">
        <ele>156.83000000000001</ele>
        <time>2023-08-17T10:13:17Z</time>
      </trkpt>
      <trkpt lat="55.618884013965726" lon="-3.06402800604701">
        <ele>157.31</ele>
        <time>2023-08-17T10:13:20Z</time>
      </trkpt>
      <trkpt lat="55.61835503205657" lon="-3.065310018137097">
        <ele>154.91</ele>
        <time>2023-08-17T10:13:31Z</time>
      </trkpt>
      <trkpt lat="55.617750026285648" lon="-3.06679897941649">
        <ele>152.50999999999999</ele>
        <time>2023-08-17T10:13:44Z</time>
      </trkpt>
      <trkpt lat="55.617145020514727" lon="-3.068187022581697">
        <ele>152.03</ele>
        <time>2023-08-17T10:13:55Z</time>
      </trkpt>
      <trkpt lat="55.616832040250301" lon="-3.068853970617056">
        <ele>152.03</ele>
        <time>2023-08-17T10:14:00Z</time>
      </trkpt>
      <trkpt lat="55.616527022793889" lon="-3.069490995258093">
        <ele>152.50999999999999</ele>
        <time>2023-08-17T10:14:05Z</time>
      </trkpt>
      <trkpt lat="55.616125026717782" lon="-3.070750962942839">
        <ele>154.91</ele>
        <time>2023-08-17T10:14:13Z</time>
      </trkpt>
      <trkpt lat="55.615831995382905" lon="-3.072386020794511">
        <ele>158.75</ele>
        <time>2023-08-17T10:14:20Z</time>
      </trkpt>
      <trkpt lat="55.615819003432989" lon="-3.07262297719717">
        <ele>159.24000000000001</ele>
        <time>2023-08-17T10:14:21Z</time>
      </trkpt>
      <trkpt lat="55.615819003432989" lon="-3.072867980226874">
        <ele>159.72</ele>
        <time>2023-08-17T10:14:22Z</time>
      </trkpt>
      <trkpt lat="55.615819003432989" lon="-3.07311499491334">
        <ele>159.72</ele>
        <time>2023-08-17T10:14:23Z</time>
      </trkpt>
      <trkpt lat="55.615819003432989" lon="-3.073362009599805">
        <ele>159.24000000000001</ele>
        <time>2023-08-17T10:14:24Z</time>
      </trkpt>
      <trkpt lat="55.615825038403273" lon="-3.07360801845789">
        <ele>158.75</ele>
        <time>2023-08-17T10:14:25Z</time>
      </trkpt>
      <trkpt lat="55.615848004817963" lon="-3.074392983689904">
        <ele>157.78999999999999</ele>
        <time>2023-08-17T10:14:28Z</time>
      </trkpt>
      <trkpt lat="55.615854961797595" lon="-3.074666988104582">
        <ele>157.78999999999999</ele>
        <time>2023-08-17T10:14:29Z</time>
      </trkpt>
      <trkpt lat="55.615862002596259" lon="-3.074926994740963">
        <ele>156.83000000000001</ele>
        <time>2023-08-17T10:14:30Z</time>
      </trkpt>
      <trkpt lat="55.615888992324471" lon="-3.075189013034105">
        <ele>155.87</ele>
        <time>2023-08-17T10:14:31Z</time>
      </trkpt>
      <trkpt lat="55.615914976224303" lon="-3.075436027720571">
        <ele>155.38999999999999</ele>
        <time>2023-08-17T10:14:32Z</time>
      </trkpt>
      <trkpt lat="55.61594900675118" lon="-3.075649011880159">
        <ele>154.91</ele>
        <time>2023-08-17T10:14:33Z</time>
      </trkpt>
      <trkpt lat="55.615997035056353" lon="-3.075866019353271">
        <ele>154.43000000000001</ele>
        <time>2023-08-17T10:14:34Z</time>
      </trkpt>
      <trkpt lat="55.616064006462693" lon="-3.076024018228054">
        <ele>154.43000000000001</ele>
        <time>2023-08-17T10:14:35Z</time>
      </trkpt>
      <trkpt lat="55.61616400256753" lon="-3.076194003224373">
        <ele>153.94999999999999</ele>
        <time>2023-08-17T10:14:36Z</time>
      </trkpt>
      <trkpt lat="55.616266010329127" lon="-3.076370023190975">
        <ele>153.47</ele>
        <time>2023-08-17T10:14:37Z</time>
      </trkpt>
      <trkpt lat="55.616376986727118" lon="-3.076558029279113">
        <ele>153.47</ele>
        <time>2023-08-17T10:14:38Z</time>
      </trkpt>
      <trkpt lat="55.616501038894057" lon="-3.076693983748555">
        <ele>152.99000000000001</ele>
        <time>2023-08-17T10:14:39Z</time>
      </trkpt>
      <trkpt lat="55.617642989382148" lon="-3.077913969755173">
        <ele>151.06</ele>
        <time>2023-08-17T10:14:47Z</time>
      </trkpt>
      <trkpt lat="55.619230018928647" lon="-3.07951801456511">
        <ele>150.09999999999999</ele>
        <time>2023-08-17T10:14:58Z</time>
      </trkpt>
      <trkpt lat="55.621055010706186" lon="-3.081727987155318">
        <ele>148.18000000000001</ele>
        <time>2023-08-17T10:15:10Z</time>
      </trkpt>
      <trkpt lat="55.622601974755526" lon="-3.083928991109133">
        <ele>150.09999999999999</ele>
        <time>2023-08-17T10:15:20Z</time>
      </trkpt>
      <trkpt lat="55.624429984018207" lon="-3.087377976626158">
        <ele>154.43000000000001</ele>
        <time>2023-08-17T10:15:33Z</time>
      </trkpt>
      <trkpt lat="55.625270018354058" lon="-3.088981015607715">
        <ele>157.31</ele>
        <time>2023-08-17T10:15:40Z</time>
      </trkpt>
      <trkpt lat="55.625391975045204" lon="-3.089212020859122">
        <ele>157.78999999999999</ele>
        <time>2023-08-17T10:15:41Z</time>
      </trkpt>
      <trkpt lat="55.627097021788359" lon="-3.092459002509713">
        <ele>159.24000000000001</ele>
        <time>2023-08-17T10:15:55Z</time>
      </trkpt>
      <trkpt lat="55.628101006150246" lon="-3.094370998442173">
        <ele>158.75</ele>
        <time>2023-08-17T10:16:03Z</time>
      </trkpt>
      <trkpt lat="55.629152012988925" lon="-3.09653302654624">
        <ele>162.59999999999999</ele>
        <time>2023-08-17T10:16:12Z</time>
      </trkpt>
      <trkpt lat="55.630016019567847" lon="-3.098422978073359">
        <ele>166.44999999999999</ele>
        <time>2023-08-17T10:16:20Z</time>
      </trkpt>
      <trkpt lat="55.630133030936122" lon="-3.098569996654987">
        <ele>166.93000000000001</ele>
        <time>2023-08-17T10:16:21Z</time>
      </trkpt>
      <trkpt lat="55.63025800511241" lon="-3.098687008023262">
        <ele>166.93000000000001</ele>
        <time>2023-08-17T10:16:22Z</time>
      </trkpt>
      <trkpt lat="55.630383985117078" lon="-3.098806031048298">
        <ele>167.41</ele>
        <time>2023-08-17T10:16:23Z</time>
      </trkpt>
      <trkpt lat="55.630528992041945" lon="-3.098847018554807">
        <ele>167.41</ele>
        <time>2023-08-17T10:16:24Z</time>
      </trkpt>
      <trkpt lat="55.63068900257349" lon="-3.098890017718077">
        <ele>167.88999999999999</ele>
        <time>2023-08-17T10:16:25Z</time>
      </trkpt>
      <trkpt lat="55.630855970084667" lon="-3.098935028538108">
        <ele>168.37</ele>
        <time>2023-08-17T10:16:26Z</time>
      </trkpt>
      <trkpt lat="55.631955005228519" lon="-3.098945003002882">
        <ele>169.33000000000001</ele>
        <time>2023-08-17T10:16:31Z</time>
      </trkpt>
      <trkpt lat="55.633553015068173" lon="-3.098801001906395">
        <ele>170.77000000000001</ele>
        <time>2023-08-17T10:16:37Z</time>
      </trkpt>
      <trkpt lat="55.635008029639721" lon="-3.098633028566837">
        <ele>172.21000000000001</ele>
        <time>2023-08-17T10:16:44Z</time>
      </trkpt>
      <trkpt lat="55.636717015877366" lon="-3.098435970023274">
        <ele>174.13999999999999</ele>
        <time>2023-08-17T10:16:53Z</time>
      </trkpt>
      <trkpt lat="55.637465016916394" lon="-3.098472012206912">
        <ele>174.62</ele>
        <time>2023-08-17T10:16:57Z</time>
      </trkpt>
      <trkpt lat="55.637647993862629" lon="-3.098533032462001">
        <ele>175.09999999999999</ele>
        <time>2023-08-17T10:16:58Z</time>
      </trkpt>
      <trkpt lat="55.638952972367406" lon="-3.09909000992775">
        <ele>176.53999999999999</ele>
        <time>2023-08-17T10:17:05Z</time>
      </trkpt>
      <trkpt lat="55.640589036047459" lon="-3.099937001243234">
        <ele>178.46000000000001</ele>
        <time>2023-08-17T10:17:14Z</time>
      </trkpt>
      <trkpt lat="55.64192796126008" lon="-3.101084986701608">
        <ele>178.46000000000001</ele>
        <time>2023-08-17T10:17:22Z</time>
      </trkpt>
      <trkpt lat="55.642108004540205" lon="-3.101189006119967">
        <ele>178.46000000000001</ele>
        <time>2023-08-17T10:17:23Z</time>
      </trkpt>
      <trkpt lat="55.642404975369573" lon="-3.101363014429808">
        <ele>179.41999999999999</ele>
        <time>2023-08-17T10:17:25Z</time>
      </trkpt>
      <trkpt lat="55.64252701587975" lon="-3.101581027731299">
        <ele>179.41999999999999</ele>
        <time>2023-08-17T10:17:26Z</time>
      </trkpt>
      <trkpt lat="55.642598010599613" lon="-3.101707007735968">
        <ele>179.90000000000001</ele>
        <time>2023-08-17T10:17:27Z</time>
      </trkpt>
      <trkpt lat="55.642650984227657" lon="-3.101990986615419">
        <ele>180.38</ele>
        <time>2023-08-17T10:17:28Z</time>
      </trkpt>
      <trkpt lat="55.642704963684082" lon="-3.102283012121916">
        <ele>180.87</ele>
        <time>2023-08-17T10:17:29Z</time>
      </trkpt>
      <trkpt lat="55.642762966454029" lon="-3.102595992386341">
        <ele>180.87</ele>
        <time>2023-08-17T10:17:30Z</time>
      </trkpt>
      <trkpt lat="55.642821975052357" lon="-3.102918025106192">
        <ele>180.87</ele>
        <time>2023-08-17T10:17:31Z</time>
      </trkpt>
      <trkpt lat="55.642965976148844" lon="-3.1038189958781">
        <ele>179.90000000000001</ele>
        <time>2023-08-17T10:17:34Z</time>
      </trkpt>
      <trkpt lat="55.642973016947508" lon="-3.104112027212977">
        <ele>178.94</ele>
        <time>2023-08-17T10:17:35Z</time>
      </trkpt>
      <trkpt lat="55.64297997392714" lon="-3.104415033012629">
        <ele>178.46000000000001</ele>
        <time>2023-08-17T10:17:36Z</time>
      </trkpt>
      <trkpt lat="55.64280797727406" lon="-3.108155038207769">
        <ele>168.37</ele>
        <time>2023-08-17T10:17:47Z</time>
      </trkpt>
      <trkpt lat="55.642473958432674" lon="-3.112985026091337">
        <ele>160.68000000000001</ele>
        <time>2023-08-17T10:18:01Z</time>
      </trkpt>
      <trkpt lat="55.642202971503139" lon="-3.116713967174292">
        <ele>159.72</ele>
        <time>2023-08-17T10:18:12Z</time>
      </trkpt>
      <trkpt lat="55.64181899651885" lon="-3.122233031317592">
        <ele>159.72</ele>
        <time>2023-08-17T10:18:27Z</time>
      </trkpt>
      <trkpt lat="55.641563013195992" lon="-3.125955015420914">
        <ele>163.08000000000001</ele>
        <time>2023-08-17T10:18:37Z</time>
      </trkpt>
      <trkpt lat="55.641249027103186" lon="-3.131977999582887">
        <ele>174.62</ele>
        <time>2023-08-17T10:18:53Z</time>
      </trkpt>
      <trkpt lat="55.641594026237726" lon="-3.134144973009825">
        <ele>175.58000000000001</ele>
        <time>2023-08-17T10:18:59Z</time>
      </trkpt>
      <trkpt lat="55.641693016514182" lon="-3.134478991851211">
        <ele>175.58000000000001</ele>
        <time>2023-08-17T10:19:00Z</time>
      </trkpt>
      <trkpt lat="55.641803992912173" lon="-3.134803958237171">
        <ele>175.58000000000001</ele>
        <time>2023-08-17T10:19:01Z</time>
      </trkpt>
      <trkpt lat="55.641938019543886" lon="-3.135104030370712">
        <ele>175.58000000000001</ele>
        <time>2023-08-17T10:19:02Z</time>
      </trkpt>
      <trkpt lat="55.642071962356567" lon="-3.135404018685222">
        <ele>175.09999999999999</ele>
        <time>2023-08-17T10:19:03Z</time>
      </trkpt>
      <trkpt lat="55.642212023958564" lon="-3.135716998949647">
        <ele>174.13999999999999</ele>
        <time>2023-08-17T10:19:04Z</time>
      </trkpt>
      <trkpt lat="55.643682964146137" lon="-3.137911967933178">
        <ele>167.88999999999999</ele>
        <time>2023-08-17T10:19:13Z</time>
      </trkpt>
      <trkpt lat="55.64409401267767" lon="-3.138785026967526">
        <ele>165.96000000000001</ele>
        <time>2023-08-17T10:19:16Z</time>
      </trkpt>
      <trkpt lat="55.644211024045944" lon="-3.139084009453654">
        <ele>165.47999999999999</ele>
        <time>2023-08-17T10:19:17Z</time>
      </trkpt>
      <trkpt lat="55.644311020150781" lon="-3.139408975839615">
        <ele>165.47999999999999</ele>
        <time>2023-08-17T10:19:18Z</time>
      </trkpt>
      <trkpt lat="55.644412022083998" lon="-3.139735031872988">
        <ele>165</ele>
        <time>2023-08-17T10:19:19Z</time>
      </trkpt>
      <trkpt lat="55.644476981833577" lon="-3.140086987987161">
        <ele>165</ele>
        <time>2023-08-17T10:19:20Z</time>
      </trkpt>
      <trkpt lat="55.64452501013875" lon="-3.14044900238514">
        <ele>165</ele>
        <time>2023-08-17T10:19:21Z</time>
      </trkpt>
      <trkpt lat="55.644573960453272" lon="-3.140815040096641">
        <ele>164.52000000000001</ele>
        <time>2023-08-17T10:19:22Z</time>
      </trkpt>
      <trkpt lat="55.644621988758445" lon="-3.141174037009478">
        <ele>164.52000000000001</ele>
        <time>2023-08-17T10:19:23Z</time>
      </trkpt>
      <trkpt lat="55.644665993750095" lon="-3.141505038365722">
        <ele>163.56</ele>
        <time>2023-08-17T10:19:24Z</time>
      </trkpt>
      <trkpt lat="55.644986014813185" lon="-3.144636014476419">
        <ele>157.78999999999999</ele>
        <time>2023-08-17T10:19:34Z</time>
      </trkpt>
      <trkpt lat="55.645376024767756" lon="-3.148667961359024">
        <ele>152.50999999999999</ele>
        <time>2023-08-17T10:19:46Z</time>
      </trkpt>
      <trkpt lat="55.645462023094296" lon="-3.149261986836791">
        <ele>152.50999999999999</ele>
        <time>2023-08-17T10:19:48Z</time>
      </trkpt>
      <trkpt lat="55.64590098336339" lon="-3.151762979105115">
        <ele>152.03</ele>
        <time>2023-08-17T10:19:56Z</time>
      </trkpt>
      <trkpt lat="55.646382020786405" lon="-3.154549961909652">
        <ele>152.03</ele>
        <time>2023-08-17T10:20:05Z</time>
      </trkpt>
      <trkpt lat="55.647002030164003" lon="-3.157922001555562">
        <ele>155.38999999999999</ele>
        <time>2023-08-17T10:20:16Z</time>
      </trkpt>
      <trkpt lat="55.647529000416398" lon="-3.160679982975125">
        <ele>158.27000000000001</ele>
        <time>2023-08-17T10:20:25Z</time>
      </trkpt>
      <trkpt lat="55.647789007052779" lon="-3.161899968981743">
        <ele>159.72</ele>
        <time>2023-08-17T10:20:29Z</time>
      </trkpt>
      <trkpt lat="55.647865030914545" lon="-3.162200041115284">
        <ele>160.19999999999999</ele>
        <time>2023-08-17T10:20:30Z</time>
      </trkpt>
      <trkpt lat="55.648547988384962" lon="-3.164880992844701">
        <ele>164.52000000000001</ele>
        <time>2023-08-17T10:20:39Z</time>
      </trkpt>
      <trkpt lat="55.648913020268083" lon="-3.167060958221555">
        <ele>167.88999999999999</ele>
        <time>2023-08-17T10:20:46Z</time>
      </trkpt>
      <trkpt lat="55.648955013602972" lon="-3.167377961799502">
        <ele>168.37</ele>
        <time>2023-08-17T10:20:47Z</time>
      </trkpt>
      <trkpt lat="55.649156011641026" lon="-3.168879998847842">
        <ele>170.28999999999999</ele>
        <time>2023-08-17T10:20:53Z</time>
      </trkpt>
      <trkpt lat="55.649239998310804" lon="-3.169492967426777">
        <ele>171.72999999999999</ele>
        <time>2023-08-17T10:20:56Z</time>
      </trkpt>
      <trkpt lat="55.649270005524158" lon="-3.169677034020424">
        <ele>171.72999999999999</ele>
        <time>2023-08-17T10:20:57Z</time>
      </trkpt>
      <trkpt lat="55.649357009679079" lon="-3.170195035636425">
        <ele>171.72999999999999</ele>
        <time>2023-08-17T10:21:00Z</time>
      </trkpt>
      <trkpt lat="55.649383999407291" lon="-3.170342976227403">
        <ele>171.72999999999999</ele>
        <time>2023-08-17T10:21:01Z</time>
      </trkpt>
      <trkpt lat="55.649434039369226" lon="-3.170618992298842">
        <ele>171.25</ele>
        <time>2023-08-17T10:21:03Z</time>
      </trkpt>
      <trkpt lat="55.649462034925818" lon="-3.170769028365612">
        <ele>171.72999999999999</ele>
        <time>2023-08-17T10:21:04Z</time>
      </trkpt>
      <trkpt lat="55.64955398440361" lon="-3.171271020546556">
        <ele>171.72999999999999</ele>
        <time>2023-08-17T10:21:07Z</time>
      </trkpt>
      <trkpt lat="55.649583991616964" lon="-3.171436982229352">
        <ele>171.72999999999999</ele>
        <time>2023-08-17T10:21:08Z</time>
      </trkpt>
      <trkpt lat="55.649952040985227" lon="-3.173548970371485">
        <ele>172.21000000000001</ele>
        <time>2023-08-17T10:21:20Z</time>
      </trkpt>
      <trkpt lat="55.650200983509421" lon="-3.175102975219488">
        <ele>176.06</ele>
        <time>2023-08-17T10:21:30Z</time>
      </trkpt>
      <trkpt lat="55.650396030396223" lon="-3.176604006439447">
        <ele>176.53999999999999</ele>
        <time>2023-08-17T10:21:40Z</time>
      </trkpt>
      <trkpt lat="55.650549000129104" lon="-3.177992971614003">
        <ele>171.72999999999999</ele>
        <time>2023-08-17T10:21:50Z</time>
      </trkpt>
      <trkpt lat="55.650751003995538" lon="-3.179874960333109">
        <ele>165</ele>
        <time>2023-08-17T10:22:03Z</time>
      </trkpt>
      <trkpt lat="55.650784028694034" lon="-3.180162040516734">
        <ele>164.52000000000001</ele>
        <time>2023-08-17T10:22:05Z</time>
      </trkpt>
      <trkpt lat="55.650910008698702" lon="-3.180856984108686">
        <ele>163.08000000000001</ele>
        <time>2023-08-17T10:22:10Z</time>
      </trkpt>
      <trkpt lat="55.651064990088344" lon="-3.181653013452888">
        <ele>164.03999999999999</ele>
        <time>2023-08-17T10:22:16Z</time>
      </trkpt>
      <trkpt lat="55.651132967323065" lon="-3.181985020637512">
        <ele>165.47999999999999</ele>
        <time>2023-08-17T10:22:19Z</time>
      </trkpt>
      <trkpt lat="55.651158029213548" lon="-3.182101026177406">
        <ele>165.47999999999999</ele>
        <time>2023-08-17T10:22:20Z</time>
      </trkpt>
      <trkpt lat="55.651462962850928" lon="-3.184010004624724">
        <ele>167.41</ele>
        <time>2023-08-17T10:22:35Z</time>
      </trkpt>
      <trkpt lat="55.651567988097668" lon="-3.184597995132208">
        <ele>167.88999999999999</ele>
        <time>2023-08-17T10:22:40Z</time>
      </trkpt>
      <trkpt lat="55.651579974219203" lon="-3.184628002345562">
        <ele>167.88999999999999</ele>
        <time>2023-08-17T10:22:41Z</time>
      </trkpt>
      <trkpt lat="55.651718024164438" lon="-3.184619033709168">
        <ele>167.88999999999999</ele>
        <time>2023-08-17T10:22:42Z</time>
      </trkpt>
      <trkpt lat="55.651783989742398" lon="-3.184640994295478">
        <ele>168.84999999999999</ele>
        <time>2023-08-17T10:22:44Z</time>
      </trkpt>
      <trkpt lat="55.652016000822186" lon="-3.184718023985624">
        <ele>169.33000000000001</ele>
        <time>2023-08-17T10:22:47Z</time>
      </trkpt>
      <trkpt lat="55.652109039947391" lon="-3.18475297652185">
        <ele>169.33000000000001</ele>
        <time>2023-08-17T10:22:48Z</time>
      </trkpt>
      <trkpt lat="55.652180034667253" lon="-3.184840986505151">
        <ele>169.33000000000001</ele>
        <time>2023-08-17T10:22:49Z</time>
      </trkpt>
      <trkpt lat="55.652310037985444" lon="-3.184998985379934">
        <ele>169.33000000000001</ele>
        <time>2023-08-17T10:22:51Z</time>
      </trkpt>
      <trkpt lat="55.652355970814824" lon="-3.18505497649312">
        <ele>169.33000000000001</ele>
        <time>2023-08-17T10:22:52Z</time>
      </trkpt>
      <trkpt lat="55.652398969978094" lon="-3.185109039768577">
        <ele>169.33000000000001</ele>
        <time>2023-08-17T10:22:53Z</time>
      </trkpt>
      <trkpt lat="55.652444986626506" lon="-3.185164025053382">
        <ele>169.33000000000001</ele>
        <time>2023-08-17T10:22:54Z</time>
      </trkpt>
      <trkpt lat="55.652496032416821" lon="-3.1852269731462">
        <ele>169.81</ele>
        <time>2023-08-17T10:22:55Z</time>
      </trkpt>
      <trkpt lat="55.652548000216484" lon="-3.185295034199953">
        <ele>169.81</ele>
        <time>2023-08-17T10:22:56Z</time>
      </trkpt>
      <trkpt lat="55.65260399132967" lon="-3.185368040576577">
        <ele>169.81</ele>
        <time>2023-08-17T10:22:57Z</time>
      </trkpt>
      <trkpt lat="55.652666017413139" lon="-3.185449009761214">
        <ele>169.81</ele>
        <time>2023-08-17T10:22:58Z</time>
      </trkpt>
      <trkpt lat="55.653266999870539" lon="-3.186241015791893">
        <ele>169.81</ele>
        <time>2023-08-17T10:23:07Z</time>
      </trkpt>
      <trkpt lat="55.653331959620118" lon="-3.186327014118433">
        <ele>169.81</ele>
        <time>2023-08-17T10:23:08Z</time>
      </trkpt>
      <trkpt lat="55.653522983193398" lon="-3.186581991612911">
        <ele>170.28999999999999</ele>
        <time>2023-08-17T10:23:11Z</time>
      </trkpt>
      <trkpt lat="55.653766980394721" lon="-3.186902012676001">
        <ele>170.28999999999999</ele>
        <time>2023-08-17T10:23:15Z</time>
      </trkpt>
      <trkpt lat="55.65438698977232" lon="-3.187684966251254">
        <ele>171.25</ele>
        <time>2023-08-17T10:23:25Z</time>
      </trkpt>
      <trkpt lat="55.65445102751255" lon="-3.187766019254923">
        <ele>171.72999999999999</ele>
        <time>2023-08-17T10:23:26Z</time>
      </trkpt>
      <trkpt lat="55.65451699309051" lon="-3.187850005924702">
        <ele>171.72999999999999</ele>
        <time>2023-08-17T10:23:27Z</time>
      </trkpt>
      <trkpt lat="55.65458295866847" lon="-3.187939021736383">
        <ele>172.21000000000001</ele>
        <time>2023-08-17T10:23:28Z</time>
      </trkpt>
      <trkpt lat="55.654650013893843" lon="-3.188028037548065">
        <ele>172.21000000000001</ele>
        <time>2023-08-17T10:23:29Z</time>
      </trkpt>
      <trkpt lat="55.654996018856764" lon="-3.188488958403468">
        <ele>173.66</ele>
        <time>2023-08-17T10:23:34Z</time>
      </trkpt>
      <trkpt lat="55.655195005238056" lon="-3.188753994181752">
        <ele>174.62</ele>
        <time>2023-08-17T10:23:37Z</time>
      </trkpt>
      <trkpt lat="55.655437996610999" lon="-3.189078038558364">
        <ele>176.06</ele>
        <time>2023-08-17T10:23:41Z</time>
      </trkpt>
      <trkpt lat="55.655498011037707" lon="-3.189159007743001">
        <ele>176.53999999999999</ele>
        <time>2023-08-17T10:23:42Z</time>
      </trkpt>
      <trkpt lat="55.65588902682066" lon="-3.1896080262959">
        <ele>178.46000000000001</ele>
        <time>2023-08-17T10:23:48Z</time>
      </trkpt>
      <trkpt lat="55.655959015712142" lon="-3.189680026844144">
        <ele>178.46000000000001</ele>
        <time>2023-08-17T10:23:49Z</time>
      </trkpt>
      <trkpt lat="55.656321030110121" lon="-3.190051009878516">
        <ele>178.94</ele>
        <time>2023-08-17T10:23:54Z</time>
      </trkpt>
      <trkpt lat="55.657070958986878" lon="-3.190731033682823">
        <ele>179.90000000000001</ele>
        <time>2023-08-17T10:24:04Z</time>
      </trkpt>
      <trkpt lat="55.658010989427567" lon="-3.191336961463094">
        <ele>180.87</ele>
        <time>2023-08-17T10:24:16Z</time>
      </trkpt>
      <trkpt lat="55.658987984061241" lon="-3.191741975024343">
        <ele>181.34999999999999</ele>
        <time>2023-08-17T10:24:28Z</time>
      </trkpt>
      <trkpt lat="55.659773033112288" lon="-3.192050009965897">
        <ele>182.31</ele>
        <time>2023-08-17T10:24:38Z</time>
      </trkpt>
      <trkpt lat="55.659835981205106" lon="-3.19207800552249">
        <ele>182.31</ele>
        <time>2023-08-17T10:24:39Z</time>
      </trkpt>
      <trkpt lat="55.660545006394386" lon="-3.192329965531826">
        <ele>179.41999999999999</ele>
        <time>2023-08-17T10:24:48Z</time>
      </trkpt>
      <trkpt lat="55.661512026563287" lon="-3.192649986594915">
        <ele>175.58000000000001</ele>
        <time>2023-08-17T10:24:59Z</time>
      </trkpt>
      <trkpt lat="55.661600036546588" lon="-3.192684017121792">
        <ele>175.09999999999999</ele>
        <time>2023-08-17T10:25:00Z</time>
      </trkpt>
      <trkpt lat="55.662386007606983" lon="-3.192991968244314">
        <ele>174.62</ele>
        <time>2023-08-17T10:25:09Z</time>
      </trkpt>
      <trkpt lat="55.663446988910437" lon="-3.193786991760135">
        <ele>174.62</ele>
        <time>2023-08-17T10:25:19Z</time>
      </trkpt>
      <trkpt lat="55.664635039865971" lon="-3.194726016372442">
        <ele>174.62</ele>
        <time>2023-08-17T10:25:27Z</time>
      </trkpt>
      <trkpt lat="55.664984984323382" lon="-3.194918967783451">
        <ele>173.66</ele>
        <time>2023-08-17T10:25:29Z</time>
      </trkpt>
      <trkpt lat="55.667083980515599" lon="-3.19609503261745">
        <ele>172.69</ele>
        <time>2023-08-17T10:25:40Z</time>
      </trkpt>
      <trkpt lat="55.668829008936882" lon="-3.197657000273466">
        <ele>173.66</ele>
        <time>2023-08-17T10:25:49Z</time>
      </trkpt>
      <trkpt lat="55.670145973563194" lon="-3.198987040668726">
        <ele>173.66</ele>
        <time>2023-08-17T10:25:57Z</time>
      </trkpt>
      <trkpt lat="55.671827970072627" lon="-3.200468039140105">
        <ele>173.66</ele>
        <time>2023-08-17T10:26:07Z</time>
      </trkpt>
      <trkpt lat="55.673062959685922" lon="-3.201483003795147">
        <ele>175.09999999999999</ele>
        <time>2023-08-17T10:26:14Z</time>
      </trkpt>
      <trkpt lat="55.6757009960711" lon="-3.203577976673842">
        <ele>180.87</ele>
        <time>2023-08-17T10:26:29Z</time>
      </trkpt>
      <trkpt lat="55.67696800455451" lon="-3.20466997101903">
        <ele>181.34999999999999</ele>
        <time>2023-08-17T10:26:36Z</time>
      </trkpt>
      <trkpt lat="55.678098974749446" lon="-3.20548402145505">
        <ele>179.90000000000001</ele>
        <time>2023-08-17T10:26:42Z</time>
      </trkpt>
      <trkpt lat="55.679849032312632" lon="-3.206142000854015">
        <ele>179.90000000000001</ele>
        <time>2023-08-17T10:26:51Z</time>
      </trkpt>
      <trkpt lat="55.680845975875854" lon="-3.206700989976525">
        <ele>183.27000000000001</ele>
        <time>2023-08-17T10:26:57Z</time>
      </trkpt>
      <trkpt lat="55.681419968605042" lon="-3.207357041537762">
        <ele>187.11000000000001</ele>
        <time>2023-08-17T10:27:01Z</time>
      </trkpt>
      <trkpt lat="55.681546032428741" lon="-3.20756901986897">
        <ele>188.56</ele>
        <time>2023-08-17T10:27:02Z</time>
      </trkpt>
      <trkpt lat="55.681665977463126" lon="-3.207790972664952">
        <ele>189.52000000000001</ele>
        <time>2023-08-17T10:27:03Z</time>
      </trkpt>
      <trkpt lat="55.68248899653554" lon="-3.209200976416469">
        <ele>193.84</ele>
        <time>2023-08-17T10:27:10Z</time>
      </trkpt>
      <trkpt lat="55.683737983927131" lon="-3.210238991305232">
        <ele>195.28</ele>
        <time>2023-08-17T10:27:19Z</time>
      </trkpt>
      <trkpt lat="55.685059977695346" lon="-3.21098598651588">
        <ele>195.28</ele>
        <time>2023-08-17T10:27:28Z</time>
      </trkpt>
      <trkpt lat="55.686052981764078" lon="-3.211295027285814">
        <ele>195.28</ele>
        <time>2023-08-17T10:27:34Z</time>
      </trkpt>
      <trkpt lat="55.687814019620419" lon="-3.211860973387957">
        <ele>194.80000000000001</ele>
        <time>2023-08-17T10:27:45Z</time>
      </trkpt>
      <trkpt lat="55.689003998413682" lon="-3.212286019697785">
        <ele>190.47999999999999</ele>
        <time>2023-08-17T10:27:53Z</time>
      </trkpt>
      <trkpt lat="55.69086997769773" lon="-3.212836040183902">
        <ele>188.08000000000001</ele>
        <time>2023-08-17T10:28:05Z</time>
      </trkpt>
      <trkpt lat="55.692387018352747" lon="-3.212986998260021">
        <ele>186.15000000000001</ele>
        <time>2023-08-17T10:28:14Z</time>
      </trkpt>
      <trkpt lat="55.694154007360339" lon="-3.212819024920464">
        <ele>178.94</ele>
        <time>2023-08-17T10:28:24Z</time>
      </trkpt>
      <trkpt lat="55.69625903852284" lon="-3.212677035480738">
        <ele>181.34999999999999</ele>
        <time>2023-08-17T10:28:36Z</time>
      </trkpt>
      <trkpt lat="55.697227986529469" lon="-3.212611991912127">
        <ele>182.78999999999999</ele>
        <time>2023-08-17T10:28:43Z</time>
      </trkpt>
      <trkpt lat="55.697344997897744" lon="-3.212604029104114">
        <ele>183.75</ele>
        <time>2023-08-17T10:28:45Z</time>
      </trkpt>
      <trkpt lat="55.697422027587891" lon="-3.212630013003945">
        <ele>184.22999999999999</ele>
        <time>2023-08-17T10:28:46Z</time>
      </trkpt>
      <trkpt lat="55.697466032579541" lon="-3.212696984410286">
        <ele>184.22999999999999</ele>
        <time>2023-08-17T10:28:47Z</time>
      </trkpt>
      <trkpt lat="55.697843972593546" lon="-3.2130709849298">
        <ele>185.19</ele>
        <time>2023-08-17T10:28:53Z</time>
      </trkpt>
      <trkpt lat="55.698096016421914" lon="-3.213236024603248">
        <ele>184.71000000000001</ele>
        <time>2023-08-17T10:28:57Z</time>
      </trkpt>
      <trkpt lat="55.698161981999874" lon="-3.213280029594898">
        <ele>185.19</ele>
        <time>2023-08-17T10:28:58Z</time>
      </trkpt>
      <trkpt lat="55.698225013911724" lon="-3.213321017101407">
        <ele>185.19</ele>
        <time>2023-08-17T10:28:59Z</time>
      </trkpt>
      <trkpt lat="55.698301959782839" lon="-3.21337197907269">
        <ele>185.19</ele>
        <time>2023-08-17T10:29:00Z</time>
      </trkpt>
      <trkpt lat="55.698354011401534" lon="-3.213354963809252">
        <ele>185.66999999999999</ele>
        <time>2023-08-17T10:29:01Z</time>
      </trkpt>
      <trkpt lat="55.698408996686339" lon="-3.213337026536465">
        <ele>185.66999999999999</ele>
        <time>2023-08-17T10:29:02Z</time>
      </trkpt>
      <trkpt lat="55.698454007506371" lon="-3.213322022929788">
        <ele>186.15000000000001</ele>
        <time>2023-08-17T10:29:03Z</time>
      </trkpt>
      <trkpt lat="55.698503041639924" lon="-3.21330601349473">
        <ele>189.03999999999999</ele>
        <time>2023-08-17T10:29:11Z</time>
      </trkpt>
      <trkpt lat="55.698503041639924" lon="-3.21330601349473">
        <ele>189.52000000000001</ele>
        <time>2023-08-17T10:29:35Z</time>
      </trkpt>
      <trkpt lat="55.698503041639924" lon="-3.21330601349473">
        <ele>190</ele>
        <time>2023-08-17T10:29:45Z</time>
      </trkpt>
      <trkpt lat="55.698503041639924" lon="-3.21330601349473">
        <ele>190.47999999999999</ele>
        <time>2023-08-17T10:30:11Z</time>
      </trkpt>
      <trkpt lat="55.698503041639924" lon="-3.21330601349473">
        <ele>190.47999999999999</ele>
        <time>2023-08-17T10:30:53Z</time>
      </trkpt>
      <trkpt lat="55.698503041639924" lon="-3.21330601349473">
        <ele>190</ele>
        <time>2023-08-17T10:31:38Z</time>
      </trkpt>
      <trkpt lat="55.698477979749441" lon="-3.213267037644982">
        <ele>183.75</ele>
        <time>2023-08-17T10:37:33Z</time>
      </trkpt>
      <trkpt lat="55.698484014719725" lon="-3.213334009051323">
        <ele>190.96000000000001</ele>
        <time>2023-08-17T10:38:02Z</time>
      </trkpt>
      <trkpt lat="55.698493989184499" lon="-3.213291009888053">
        <ele>191.91999999999999</ele>
        <time>2023-08-17T10:38:38Z</time>
      </trkpt>
      <trkpt lat="55.698499018326402" lon="-3.213266031816602">
        <ele>192.88</ele>
        <time>2023-08-17T10:39:14Z</time>
      </trkpt>
      <trkpt lat="55.698502035811543" lon="-3.213267037644982">
        <ele>191.91999999999999</ele>
        <time>2023-08-17T10:39:58Z</time>
      </trkpt>
      <trkpt lat="55.698501029983163" lon="-3.213269971311092">
        <ele>191.91999999999999</ele>
        <time>2023-08-17T10:40:42Z</time>
      </trkpt>
      <trkpt lat="55.698500024154782" lon="-3.213278017938137">
        <ele>191.44</ele>
        <time>2023-08-17T10:41:23Z</time>
      </trkpt>
      <trkpt lat="55.69849600084126" lon="-3.213290004059672">
        <ele>190.96000000000001</ele>
        <time>2023-08-17T10:42:08Z</time>
      </trkpt>
      <trkpt lat="55.698500024154782" lon="-3.213286986574531">
        <ele>190.47999999999999</ele>
        <time>2023-08-17T10:42:58Z</time>
      </trkpt>
      <trkpt lat="55.698502035811543" lon="-3.213290004059672">
        <ele>189.52000000000001</ele>
        <time>2023-08-17T10:43:26Z</time>
      </trkpt>
      <trkpt lat="55.698464987799525" lon="-3.213235018774867">
        <ele>189.03999999999999</ele>
        <time>2023-08-17T10:43:43Z</time>
      </trkpt>
      <trkpt lat="55.698503041639924" lon="-3.21324298158288">
        <ele>188.56</ele>
        <time>2023-08-17T10:44:26Z</time>
      </trkpt>
      <trkpt lat="55.698517039418221" lon="-3.213229989632964">
        <ele>189.03999999999999</ele>
        <time>2023-08-17T10:45:12Z</time>
      </trkpt>
      <trkpt lat="55.698522990569472" lon="-3.213230995461345">
        <ele>189.03999999999999</ele>
        <time>2023-08-17T10:45:56Z</time>
      </trkpt>
      <trkpt lat="55.698525002226233" lon="-3.213227977976203">
        <ele>188.56</ele>
        <time>2023-08-17T10:46:30Z</time>
      </trkpt>
      <trkpt lat="55.698522990569472" lon="-3.213224038481712">
        <ele>189.03999999999999</ele>
        <time>2023-08-17T10:47:09Z</time>
      </trkpt>
      <trkpt lat="55.698525002226233" lon="-3.213221020996571">
        <ele>189.52000000000001</ele>
        <time>2023-08-17T10:47:49Z</time>
      </trkpt>
      <trkpt lat="55.698525002226233" lon="-3.213218003511429">
        <ele>189.52000000000001</ele>
        <time>2023-08-17T10:48:27Z</time>
      </trkpt>
      <trkpt lat="55.698525002226233" lon="-3.213218003511429">
        <ele>189.52000000000001</ele>
        <time>2023-08-17T10:48:46Z</time>
      </trkpt>
      <trkpt lat="55.698623992502689" lon="-3.213265025988221">
        <ele>190</ele>
        <time>2023-08-17T10:48:48Z</time>
      </trkpt>
      <trkpt lat="55.698623992502689" lon="-3.213265025988221">
        <ele>190</ele>
        <time>2023-08-17T10:48:51Z</time>
      </trkpt>
      <trkpt lat="55.698699010536075" lon="-3.213155977427959">
        <ele>190</ele>
        <time>2023-08-17T10:48:52Z</time>
      </trkpt>
      <trkpt lat="55.699121039360762" lon="-3.212538985535502">
        <ele>189.52000000000001</ele>
        <time>2023-08-17T10:49:01Z</time>
      </trkpt>
      <trkpt lat="55.699168983846903" lon="-3.21246899664402">
        <ele>190</ele>
        <time>2023-08-17T10:49:03Z</time>
      </trkpt>
      <trkpt lat="55.699223969131708" lon="-3.212438989430666">
        <ele>190</ele>
        <time>2023-08-17T10:49:04Z</time>
      </trkpt>
      <trkpt lat="55.699294041842222" lon="-3.212420968338847">
        <ele>190.47999999999999</ele>
        <time>2023-08-17T10:49:05Z</time>
      </trkpt>
      <trkpt lat="55.700102979317307" lon="-3.212250983342528">
        <ele>191.91999999999999</ele>
        <time>2023-08-17T10:49:12Z</time>
      </trkpt>
      <trkpt lat="55.701507031917572" lon="-3.21210203692317">
        <ele>192.88</ele>
        <time>2023-08-17T10:49:20Z</time>
      </trkpt>
      <trkpt lat="55.703061958774924" lon="-3.211863990873098">
        <ele>194.31999999999999</ele>
        <time>2023-08-17T10:49:29Z</time>
      </trkpt>
      <trkpt lat="55.704312035813928" lon="-3.211368033662438">
        <ele>192.88</ele>
        <time>2023-08-17T10:49:37Z</time>
      </trkpt>
      <trkpt lat="55.705272015184164" lon="-3.210754981264472">
        <ele>191.91999999999999</ele>
        <time>2023-08-17T10:49:44Z</time>
      </trkpt>
      <trkpt lat="55.705402018502355" lon="-3.210588013753295">
        <ele>191.91999999999999</ele>
        <time>2023-08-17T10:49:45Z</time>
      </trkpt>
      <trkpt lat="55.70552296936512" lon="-3.210390033200383">
        <ele>191.91999999999999</ele>
        <time>2023-08-17T10:49:46Z</time>
      </trkpt>
      <trkpt lat="55.706630973145366" lon="-3.209270965307951">
        <ele>192.88</ele>
        <time>2023-08-17T10:49:54Z</time>
      </trkpt>
      <trkpt lat="55.707332035526633" lon="-3.208853965625167">
        <ele>193.36000000000001</ele>
        <time>2023-08-17T10:49:59Z</time>
      </trkpt>
      <trkpt lat="55.708509022369981" lon="-3.208080986514688">
        <ele>195.28</ele>
        <time>2023-08-17T10:50:07Z</time>
      </trkpt>
      <trkpt lat="55.708642965182662" lon="-3.207989959046245">
        <ele>195.28</ele>
        <time>2023-08-17T10:50:08Z</time>
      </trkpt>
      <trkpt lat="55.708999028429389" lon="-3.207820979878306">
        <ele>195.77000000000001</ele>
        <time>2023-08-17T10:50:11Z</time>
      </trkpt>
      <trkpt lat="55.709636975079775" lon="-3.207688964903355">
        <ele>197.21000000000001</ele>
        <time>2023-08-17T10:50:18Z</time>
      </trkpt>
      <trkpt lat="55.709697995334864" lon="-3.207676978781819">
        <ele>197.21000000000001</ele>
        <time>2023-08-17T10:50:19Z</time>
      </trkpt>
      <trkpt lat="55.709762033075094" lon="-3.207663986831904">
        <ele>197.21000000000001</ele>
        <time>2023-08-17T10:50:20Z</time>
      </trkpt>
      <trkpt lat="55.70990402251482" lon="-3.207635991275311">
        <ele>197.69</ele>
        <time>2023-08-17T10:50:22Z</time>
      </trkpt>
      <trkpt lat="55.709980968385935" lon="-3.207620987668634">
        <ele>197.69</ele>
        <time>2023-08-17T10:50:23Z</time>
      </trkpt>
      <trkpt lat="55.710273999720812" lon="-3.207478998228908">
        <ele>198.16999999999999</ele>
        <time>2023-08-17T10:50:27Z</time>
      </trkpt>
      <trkpt lat="55.710350023582578" lon="-3.207430969923735">
        <ele>198.16999999999999</ele>
        <time>2023-08-17T10:50:28Z</time>
      </trkpt>
      <trkpt lat="55.710425041615963" lon="-3.207384031265974">
        <ele>198.65000000000001</ele>
        <time>2023-08-17T10:50:29Z</time>
      </trkpt>
      <trkpt lat="55.710494024679065" lon="-3.207340026274324">
        <ele>199.61000000000001</ele>
        <time>2023-08-17T10:50:30Z</time>
      </trkpt>
      <trkpt lat="55.710554961115122" lon="-3.207300966605544">
        <ele>200.09</ele>
        <time>2023-08-17T10:50:31Z</time>
      </trkpt>
      <trkpt lat="55.71061497554183" lon="-3.207262996584177">
        <ele>200.56999999999999</ele>
        <time>2023-08-17T10:50:32Z</time>
      </trkpt>
      <trkpt lat="55.710679013282061" lon="-3.207223014906049">
        <ele>201.05000000000001</ele>
        <time>2023-08-17T10:50:33Z</time>
      </trkpt>
      <trkpt lat="55.71074397303164" lon="-3.207180015742779">
        <ele>201.53</ele>
        <time>2023-08-17T10:50:34Z</time>
      </trkpt>
      <trkpt lat="55.710882022976875" lon="-3.207082031294704">
        <ele>202.49000000000001</ele>
        <time>2023-08-17T10:50:36Z</time>
      </trkpt>
      <trkpt lat="55.711762961000204" lon="-3.206545002758503">
        <ele>208.25999999999999</ele>
        <time>2023-08-17T10:50:48Z</time>
      </trkpt>
      <trkpt lat="55.711834039539099" lon="-3.206526981666684">
        <ele>208.74000000000001</ele>
        <time>2023-08-17T10:50:49Z</time>
      </trkpt>
      <trkpt lat="55.711984997615218" lon="-3.206526981666684">
        <ele>208.74000000000001</ele>
        <time>2023-08-17T10:50:51Z</time>
      </trkpt>
      <trkpt lat="55.712056998163462" lon="-3.206526981666684">
        <ele>208.74000000000001</ele>
        <time>2023-08-17T10:50:52Z</time>
      </trkpt>
      <trkpt lat="55.712131010368466" lon="-3.206526981666684">
        <ele>208.74000000000001</ele>
        <time>2023-08-17T10:50:53Z</time>
      </trkpt>
      <trkpt lat="55.712206028401852" lon="-3.206526981666684">
        <ele>209.22</ele>
        <time>2023-08-17T10:50:54Z</time>
      </trkpt>
      <trkpt lat="55.712293032556772" lon="-3.206526981666684">
        <ele>208.74000000000001</ele>
        <time>2023-08-17T10:50:55Z</time>
      </trkpt>
      <trkpt lat="55.713232979178429" lon="-3.206508038565517">
        <ele>209.22</ele>
        <time>2023-08-17T10:51:07Z</time>
      </trkpt>
      <trkpt lat="55.714110983535647" lon="-3.206253983080387">
        <ele>207.30000000000001</ele>
        <time>2023-08-17T10:51:15Z</time>
      </trkpt>
      <trkpt lat="55.715437000617385" lon="-3.205632967874408">
        <ele>205.86000000000001</ele>
        <time>2023-08-17T10:51:22Z</time>
      </trkpt>
      <trkpt lat="55.716603007167578" lon="-3.205095017328858">
        <ele>206.34</ele>
        <time>2023-08-17T10:51:29Z</time>
      </trkpt>
      <trkpt lat="55.71802600286901" lon="-3.20462797768414">
        <ele>205.86000000000001</ele>
        <time>2023-08-17T10:51:38Z</time>
      </trkpt>
      <trkpt lat="55.719861974939704" lon="-3.204517001286149">
        <ele>205.38</ele>
        <time>2023-08-17T10:51:48Z</time>
      </trkpt>
      <trkpt lat="55.721604991704226" lon="-3.204852025955916">
        <ele>204.90000000000001</ele>
        <time>2023-08-17T10:51:57Z</time>
      </trkpt>
      <trkpt lat="55.723885037004948" lon="-3.205245975404978">
        <ele>207.78</ele>
        <time>2023-08-17T10:52:08Z</time>
      </trkpt>
      <trkpt lat="55.72561003267765" lon="-3.205372961238027">
        <ele>212.59</ele>
        <time>2023-08-17T10:52:16Z</time>
      </trkpt>
      <trkpt lat="55.728319985792041" lon="-3.205576976761222">
        <ele>214.03</ele>
        <time>2023-08-17T10:52:28Z</time>
      </trkpt>
      <trkpt lat="55.730154030025005" lon="-3.205953994765878">
        <ele>215.94999999999999</ele>
        <time>2023-08-17T10:52:36Z</time>
      </trkpt>
      <trkpt lat="55.730618974193931" lon="-3.206062037497759">
        <ele>217.40000000000001</ele>
        <time>2023-08-17T10:52:38Z</time>
      </trkpt>
      <trkpt lat="55.732698021456599" lon="-3.206124985590577">
        <ele>219.80000000000001</ele>
        <time>2023-08-17T10:52:47Z</time>
      </trkpt>
      <trkpt lat="55.734343975782394" lon="-3.206101013347507">
        <ele>222.68000000000001</ele>
        <time>2023-08-17T10:52:55Z</time>
      </trkpt>
      <trkpt lat="55.736221019178629" lon="-3.206064971163869">
        <ele>227.00999999999999</ele>
        <time>2023-08-17T10:53:04Z</time>
      </trkpt>
      <trkpt lat="55.738459993153811" lon="-3.205985007807612">
        <ele>229.41</ele>
        <time>2023-08-17T10:53:15Z</time>
      </trkpt>
      <trkpt lat="55.739908972755075" lon="-3.206077041104436">
        <ele>230.37</ele>
        <time>2023-08-17T10:53:22Z</time>
      </trkpt>
      <trkpt lat="55.741781992837787" lon="-3.205601032823324">
        <ele>229.88999999999999</ele>
        <time>2023-08-17T10:53:31Z</time>
      </trkpt>
      <trkpt lat="55.743890963494778" lon="-3.205004995688796">
        <ele>231.33000000000001</ele>
        <time>2023-08-17T10:53:41Z</time>
      </trkpt>
      <trkpt lat="55.745145985856652" lon="-3.204650022089481">
        <ele>228.44999999999999</ele>
        <time>2023-08-17T10:53:47Z</time>
      </trkpt>
      <trkpt lat="55.747056975960732" lon="-3.204524964094162">
        <ele>228.44999999999999</ele>
        <time>2023-08-17T10:53:56Z</time>
      </trkpt>
      <trkpt lat="55.748485000804067" lon="-3.205148996785283">
        <ele>231.33000000000001</ele>
        <time>2023-08-17T10:54:03Z</time>
      </trkpt>
      <trkpt lat="55.750293983146548" lon="-3.206355990841985">
        <ele>234.22</ele>
        <time>2023-08-17T10:54:12Z</time>
      </trkpt>
      <trkpt lat="55.751750003546476" lon="-3.206696966663003">
        <ele>238.06</ele>
        <time>2023-08-17T10:54:19Z</time>
      </trkpt>
      <trkpt lat="55.753916976973414" lon="-3.206421034410596">
        <ele>243.34999999999999</ele>
        <time>2023-08-17T10:54:29Z</time>
      </trkpt>
      <trkpt lat="55.756646040827036" lon="-3.206592025235295">
        <ele>246.72</ele>
        <time>2023-08-17T10:54:41Z</time>
      </trkpt>
      <trkpt lat="55.758812008425593" lon="-3.206913974136114">
        <ele>250.08000000000001</ele>
        <time>2023-08-17T10:54:51Z</time>
      </trkpt>
      <trkpt lat="55.761952036991715" lon="-3.207458965480328">
        <ele>255.37</ele>
        <time>2023-08-17T10:55:05Z</time>
      </trkpt>
      <trkpt lat="55.765850963070989" lon="-3.208148963749409">
        <ele>256.81</ele>
        <time>2023-08-17T10:55:22Z</time>
      </trkpt>
      <trkpt lat="55.768434014171362" lon="-3.208741983398795">
        <ele>262.10000000000002</ele>
        <time>2023-08-17T10:55:34Z</time>
      </trkpt>
      <trkpt lat="55.770595036447048" lon="-3.21006397716701">
        <ele>264.5</ele>
        <time>2023-08-17T10:55:44Z</time>
      </trkpt>
      <trkpt lat="55.773615036159754" lon="-3.21220999583602">
        <ele>269.31</ele>
        <time>2023-08-17T10:55:58Z</time>
      </trkpt>
      <trkpt lat="55.774861006066203" lon="-3.213816974312067">
        <ele>275.56</ele>
        <time>2023-08-17T10:56:05Z</time>
      </trkpt>
      <trkpt lat="55.77579902485013" lon="-3.21599300019443">
        <ele>279.88</ele>
        <time>2023-08-17T10:56:12Z</time>
      </trkpt>
      <trkpt lat="55.776345022022724" lon="-3.217685976997018">
        <ele>281.31999999999999</ele>
        <time>2023-08-17T10:56:17Z</time>
      </trkpt>
      <trkpt lat="55.776491034775972" lon="-3.217941960319877">
        <ele>281.80000000000001</ele>
        <time>2023-08-17T10:56:18Z</time>
      </trkpt>
      <trkpt lat="55.776651967316866" lon="-3.218187969177961">
        <ele>282.27999999999997</ele>
        <time>2023-08-17T10:56:19Z</time>
      </trkpt>
      <trkpt lat="55.776828993111849" lon="-3.218384021893144">
        <ele>282.27999999999997</ele>
        <time>2023-08-17T10:56:20Z</time>
      </trkpt>
      <trkpt lat="55.777024962007999" lon="-3.218536991626024">
        <ele>282.76999999999998</ele>
        <time>2023-08-17T10:56:21Z</time>
      </trkpt>
      <trkpt lat="55.777229983359575" lon="-3.218642016872764">
        <ele>282.76999999999998</ele>
        <time>2023-08-17T10:56:22Z</time>
      </trkpt>
      <trkpt lat="55.777443973347545" lon="-3.218706976622343">
        <ele>283.25</ele>
        <time>2023-08-17T10:56:23Z</time>
      </trkpt>
      <trkpt lat="55.777657963335514" lon="-3.218773026019335">
        <ele>283.25</ele>
        <time>2023-08-17T10:56:24Z</time>
      </trkpt>
      <trkpt lat="55.779547998681664" lon="-3.218971006572247">
        <ele>287.08999999999997</ele>
        <time>2023-08-17T10:56:33Z</time>
      </trkpt>
      <trkpt lat="55.781308030709624" lon="-3.218700019642711">
        <ele>289.49000000000001</ele>
        <time>2023-08-17T10:56:41Z</time>
      </trkpt>
      <trkpt lat="55.783153977245092" lon="-3.219408039003611">
        <ele>289.97000000000003</ele>
        <time>2023-08-17T10:56:50Z</time>
      </trkpt>
      <trkpt lat="55.784296011552215" lon="-3.220243966206908">
        <ele>284.20999999999998</ele>
        <time>2023-08-17T10:56:57Z</time>
      </trkpt>
      <trkpt lat="55.784425009042025" lon="-3.220338011160493">
        <ele>283.25</ele>
        <time>2023-08-17T10:56:58Z</time>
      </trkpt>
      <trkpt lat="55.784550989046693" lon="-3.220429960638285">
        <ele>282.27999999999997</ele>
        <time>2023-08-17T10:56:59Z</time>
      </trkpt>
      <trkpt lat="55.78540401533246" lon="-3.221210986375809">
        <ele>278.44</ele>
        <time>2023-08-17T10:57:06Z</time>
      </trkpt>
      <trkpt lat="55.785521026700735" lon="-3.221317017450929">
        <ele>277.48000000000002</ele>
        <time>2023-08-17T10:57:07Z</time>
      </trkpt>
      <trkpt lat="55.7856419775635" lon="-3.221421958878636">
        <ele>277.48000000000002</ele>
        <time>2023-08-17T10:57:08Z</time>
      </trkpt>
      <trkpt lat="55.786694996058941" lon="-3.221703004091978">
        <ele>274.11000000000001</ele>
        <time>2023-08-17T10:57:16Z</time>
      </trkpt>
      <trkpt lat="55.788343967869878" lon="-3.221730999648571">
        <ele>266.42000000000002</ele>
        <time>2023-08-17T10:57:27Z</time>
      </trkpt>
      <trkpt lat="55.789780961349607" lon="-3.221791014075279">
        <ele>259.69</ele>
        <time>2023-08-17T10:57:35Z</time>
      </trkpt>
      <trkpt lat="55.791691029444337" lon="-3.221694035455585">
        <ele>258.73000000000002</ele>
        <time>2023-08-17T10:57:44Z</time>
      </trkpt>
      <trkpt lat="55.794052965939045" lon="-3.221445009112358">
        <ele>259.69</ele>
        <time>2023-08-17T10:57:55Z</time>
      </trkpt>
      <trkpt lat="55.795923974364996" lon="-3.221709039062262">
        <ele>259.20999999999998</ele>
        <time>2023-08-17T10:58:04Z</time>
      </trkpt>
      <trkpt lat="55.797498011961579" lon="-3.22233198210597">
        <ele>254.41</ele>
        <time>2023-08-17T10:58:12Z</time>
      </trkpt>
      <trkpt lat="55.797699009999633" lon="-3.222412029281259">
        <ele>253.93000000000001</ele>
        <time>2023-08-17T10:58:13Z</time>
      </trkpt>
      <trkpt lat="55.799259971827269" lon="-3.22297596372664">
        <ele>250.56</ele>
        <time>2023-08-17T10:58:21Z</time>
      </trkpt>
      <trkpt lat="55.80158201046288" lon="-3.223687000572681">
        <ele>249.59999999999999</ele>
        <time>2023-08-17T10:58:33Z</time>
      </trkpt>
      <trkpt lat="55.803873036056757" lon="-3.224231991916895">
        <ele>243.83000000000001</ele>
        <time>2023-08-17T10:58:44Z</time>
      </trkpt>
      <trkpt lat="55.804070010781288" lon="-3.224368030205369">
        <ele>243.34999999999999</ele>
        <time>2023-08-17T10:58:45Z</time>
      </trkpt>
      <trkpt lat="55.805332995951176" lon="-3.225524984300137">
        <ele>237.58000000000001</ele>
        <time>2023-08-17T10:58:52Z</time>
      </trkpt>
      <trkpt lat="55.80719000659883" lon="-3.227275041863322">
        <ele>235.18000000000001</ele>
        <time>2023-08-17T10:59:02Z</time>
      </trkpt>
      <trkpt lat="55.809540962800384" lon="-3.22858102619648">
        <ele>241.91</ele>
        <time>2023-08-17T10:59:14Z</time>
      </trkpt>
      <trkpt lat="55.810963958501816" lon="-3.229840993881226">
        <ele>241.91</ele>
        <time>2023-08-17T10:59:22Z</time>
      </trkpt>
      <trkpt lat="55.811151964589953" lon="-3.22989497333765">
        <ele>241.43000000000001</ele>
        <time>2023-08-17T10:59:23Z</time>
      </trkpt>
      <trkpt lat="55.811967020854354" lon="-3.229941995814443">
        <ele>241.91</ele>
        <time>2023-08-17T10:59:27Z</time>
      </trkpt>
      <trkpt lat="55.813540974631906" lon="-3.229326009750366">
        <ele>241.43000000000001</ele>
        <time>2023-08-17T10:59:35Z</time>
      </trkpt>
      <trkpt lat="55.814045984297991" lon="-3.228975981473923">
        <ele>239.99000000000001</ele>
        <time>2023-08-17T10:59:38Z</time>
      </trkpt>
      <trkpt lat="55.814188979566097" lon="-3.228817982599139">
        <ele>239.02000000000001</ele>
        <time>2023-08-17T10:59:39Z</time>
      </trkpt>
      <trkpt lat="55.814331974834204" lon="-3.228649003431201">
        <ele>238.53999999999999</ele>
        <time>2023-08-17T10:59:40Z</time>
      </trkpt>
      <trkpt lat="55.815880028530955" lon="-3.226713035255671">
        <ele>230.37</ele>
        <time>2023-08-17T10:59:50Z</time>
      </trkpt>
      <trkpt lat="55.816027969121933" lon="-3.226597029715776">
        <ele>229.41</ele>
        <time>2023-08-17T10:59:51Z</time>
      </trkpt>
      <trkpt lat="55.816184040158987" lon="-3.226551013067365">
        <ele>228.93000000000001</ele>
        <time>2023-08-17T10:59:52Z</time>
      </trkpt>
      <trkpt lat="55.816342039033771" lon="-3.226503990590572">
        <ele>227.97</ele>
        <time>2023-08-17T10:59:53Z</time>
      </trkpt>
      <trkpt lat="55.816512024030089" lon="-3.226525029167533">
        <ele>227.49000000000001</ele>
        <time>2023-08-17T10:59:54Z</time>
      </trkpt>
      <trkpt lat="55.816689971834421" lon="-3.226546989753842">
        <ele>226.53</ele>
        <time>2023-08-17T10:59:55Z</time>
      </trkpt>
      <trkpt lat="55.816865991801023" lon="-3.226568028330803">
        <ele>226.05000000000001</ele>
        <time>2023-08-17T10:59:56Z</time>
      </trkpt>
      <trkpt lat="55.817033965140581" lon="-3.226587977260351">
        <ele>225.09</ele>
        <time>2023-08-17T10:59:57Z</time>
      </trkpt>
      <trkpt lat="55.817178972065449" lon="-3.22649703361094">
        <ele>224.12</ele>
        <time>2023-08-17T10:59:58Z</time>
      </trkpt>
      <trkpt lat="55.817320961505175" lon="-3.226394020020962">
        <ele>223.16</ele>
        <time>2023-08-17T10:59:59Z</time>
      </trkpt>
      <trkpt lat="55.817454988136888" lon="-3.226277008652687">
        <ele>222.19999999999999</ele>
        <time>2023-08-17T11:00:00Z</time>
      </trkpt>
      <trkpt lat="55.817573005333543" lon="-3.226075004786253">
        <ele>221.24000000000001</ele>
        <time>2023-08-17T11:00:01Z</time>
      </trkpt>
      <trkpt lat="55.817660009488463" lon="-3.225822038948536">
        <ele>220.75999999999999</ele>
        <time>2023-08-17T11:00:02Z</time>
      </trkpt>
      <trkpt lat="55.817748019471765" lon="-3.225547028705478">
        <ele>220.28</ele>
        <time>2023-08-17T11:00:03Z</time>
      </trkpt>
      <trkpt lat="55.817807028070092" lon="-3.225236982107163">
        <ele>219.80000000000001</ele>
        <time>2023-08-17T11:00:04Z</time>
      </trkpt>
      <trkpt lat="55.817864025011659" lon="-3.224917966872454">
        <ele>219.31999999999999</ele>
        <time>2023-08-17T11:00:05Z</time>
      </trkpt>
      <trkpt lat="55.818110033869743" lon="-3.223473010584712">
        <ele>215.47</ele>
        <time>2023-08-17T11:00:10Z</time>
      </trkpt>
      <trkpt lat="55.818131994456053" lon="-3.223217027261853">
        <ele>214.99000000000001</ele>
        <time>2023-08-17T11:00:11Z</time>
      </trkpt>
      <trkpt lat="55.818154038861394" lon="-3.222958026453853">
        <ele>214.03</ele>
        <time>2023-08-17T11:00:12Z</time>
      </trkpt>
      <trkpt lat="55.818336009979248" lon="-3.221275024116039">
        <ele>207.30000000000001</ele>
        <time>2023-08-17T11:00:19Z</time>
      </trkpt>
      <trkpt lat="55.818409016355872" lon="-3.221135968342423">
        <ele>206.81999999999999</ele>
        <time>2023-08-17T11:00:20Z</time>
      </trkpt>
      <trkpt lat="55.818484034389257" lon="-3.220993978902698">
        <ele>205.86000000000001</ele>
        <time>2023-08-17T11:00:21Z</time>
      </trkpt>
      <trkpt lat="55.818572966381907" lon="-3.220879985019565">
        <ele>205.38</ele>
        <time>2023-08-17T11:00:22Z</time>
      </trkpt>
      <trkpt lat="55.818692995235324" lon="-3.220754005014896">
        <ele>204.90000000000001</ele>
        <time>2023-08-17T11:00:23Z</time>
      </trkpt>
      <trkpt lat="55.818818975239992" lon="-3.220624001696706">
        <ele>204.41999999999999</ele>
        <time>2023-08-17T11:00:24Z</time>
      </trkpt>
      <trkpt lat="55.818943027406931" lon="-3.220495004206896">
        <ele>203.46000000000001</ele>
        <time>2023-08-17T11:00:25Z</time>
      </trkpt>
      <trkpt lat="55.819063978269696" lon="-3.220381010323763">
        <ele>202.97999999999999</ele>
        <time>2023-08-17T11:00:26Z</time>
      </trkpt>
      <trkpt lat="55.819212002679706" lon="-3.220317978411913">
        <ele>202.49000000000001</ele>
        <time>2023-08-17T11:00:27Z</time>
      </trkpt>
      <trkpt lat="55.820378009229898" lon="-3.220124021172524">
        <ele>195.77000000000001</ele>
        <time>2023-08-17T11:00:35Z</time>
      </trkpt>
      <trkpt lat="55.821212008595467" lon="-3.220272967591882">
        <ele>190.47999999999999</ele>
        <time>2023-08-17T11:00:42Z</time>
      </trkpt>
      <trkpt lat="55.822424031794071" lon="-3.220613021403551">
        <ele>187.59</ele>
        <time>2023-08-17T11:00:54Z</time>
      </trkpt>
      <trkpt lat="55.822724020108581" lon="-3.220707988366485">
        <ele>186.15000000000001</ele>
        <time>2023-08-17T11:00:57Z</time>
      </trkpt>
      <trkpt lat="55.823084022849798" lon="-3.220950979739428">
        <ele>185.19</ele>
        <time>2023-08-17T11:01:01Z</time>
      </trkpt>
      <trkpt lat="55.824153972789645" lon="-3.221723036840558">
        <ele>185.66999999999999</ele>
        <time>2023-08-17T11:01:13Z</time>
      </trkpt>
      <trkpt lat="55.824938016012311" lon="-3.221822027117014">
        <ele>189.03999999999999</ele>
        <time>2023-08-17T11:01:21Z</time>
      </trkpt>
      <trkpt lat="55.825252002105117" lon="-3.221862008795142">
        <ele>190</ele>
        <time>2023-08-17T11:01:24Z</time>
      </trkpt>
      <trkpt lat="55.825350992381573" lon="-3.221913976594806">
        <ele>190.47999999999999</ele>
        <time>2023-08-17T11:01:25Z</time>
      </trkpt>
      <trkpt lat="55.825443025678396" lon="-3.221963010728359">
        <ele>190.96000000000001</ele>
        <time>2023-08-17T11:01:26Z</time>
      </trkpt>
      <trkpt lat="55.825535980984569" lon="-3.222011961042881">
        <ele>191.44</ele>
        <time>2023-08-17T11:01:27Z</time>
      </trkpt>
      <trkpt lat="55.825632037594914" lon="-3.222062001004815">
        <ele>191.91999999999999</ele>
        <time>2023-08-17T11:01:28Z</time>
      </trkpt>
      <trkpt lat="55.825900007039309" lon="-3.222214970737696">
        <ele>191.91999999999999</ele>
        <time>2023-08-17T11:01:31Z</time>
      </trkpt>
      <trkpt lat="55.82596798427403" lon="-3.222216982394457">
        <ele>192.40000000000001</ele>
        <time>2023-08-17T11:01:32Z</time>
      </trkpt>
      <trkpt lat="55.826030010357499" lon="-3.222164008766413">
        <ele>192.40000000000001</ele>
        <time>2023-08-17T11:01:33Z</time>
      </trkpt>
      <trkpt lat="55.826072003692389" lon="-3.222060995176435">
        <ele>192.40000000000001</ele>
        <time>2023-08-17T11:01:34Z</time>
      </trkpt>
      <trkpt lat="55.826121037825942" lon="-3.22194398380816">
        <ele>192.40000000000001</ele>
        <time>2023-08-17T11:01:35Z</time>
      </trkpt>
      <trkpt lat="55.826167976483703" lon="-3.221828984096646">
        <ele>192.40000000000001</ele>
        <time>2023-08-17T11:01:36Z</time>
      </trkpt>
      <trkpt lat="55.826213993132114" lon="-3.221717001870275">
        <ele>192.88</ele>
        <time>2023-08-17T11:01:37Z</time>
      </trkpt>
      <trkpt lat="55.826663011685014" lon="-3.220555018633604">
        <ele>194.31999999999999</ele>
        <time>2023-08-17T11:01:46Z</time>
      </trkpt>
      <trkpt lat="55.826726965606213" lon="-3.220388973131776">
        <ele>194.80000000000001</ele>
        <time>2023-08-17T11:01:47Z</time>
      </trkpt>
      <trkpt lat="55.82678304053843" lon="-3.220320995897055">
        <ele>194.80000000000001</ele>
        <time>2023-08-17T11:01:48Z</time>
      </trkpt>
      <trkpt lat="55.826850011944771" lon="-3.220241032540798">
        <ele>195.28</ele>
        <time>2023-08-17T11:01:49Z</time>
      </trkpt>
      <trkpt lat="55.82691103219986" lon="-3.220167020335794">
        <ele>195.28</ele>
        <time>2023-08-17T11:01:50Z</time>
      </trkpt>
      <trkpt lat="55.826981021091342" lon="-3.220114968717098">
        <ele>195.28</ele>
        <time>2023-08-17T11:01:51Z</time>
      </trkpt>
      <trkpt lat="55.827056961134076" lon="-3.220082027837634">
        <ele>195.28</ele>
        <time>2023-08-17T11:01:52Z</time>
      </trkpt>
      <trkpt lat="55.827136002480984" lon="-3.220047997310758">
        <ele>195.28</ele>
        <time>2023-08-17T11:01:53Z</time>
      </trkpt>
      <trkpt lat="55.827242033556104" lon="-3.220002986490727">
        <ele>195.77000000000001</ele>
        <time>2023-08-17T11:01:54Z</time>
      </trkpt>
      <trkpt lat="55.827309004962444" lon="-3.220036011189222">
        <ele>195.77000000000001</ele>
        <time>2023-08-17T11:01:55Z</time>
      </trkpt>
      <trkpt lat="55.82738502882421" lon="-3.220073981210589">
        <ele>195.77000000000001</ele>
        <time>2023-08-17T11:01:56Z</time>
      </trkpt>
      <trkpt lat="55.827459041029215" lon="-3.220128966495395">
        <ele>195.77000000000001</ele>
        <time>2023-08-17T11:01:57Z</time>
      </trkpt>
      <trkpt lat="55.827521989122033" lon="-3.220185041427612">
        <ele>195.77000000000001</ele>
        <time>2023-08-17T11:01:58Z</time>
      </trkpt>
      <trkpt lat="55.827580997720361" lon="-3.220238015055656">
        <ele>195.77000000000001</ele>
        <time>2023-08-17T11:01:59Z</time>
      </trkpt>
      <trkpt lat="55.827636988833547" lon="-3.2203100156039">
        <ele>195.77000000000001</ele>
        <time>2023-08-17T11:02:00Z</time>
      </trkpt>
      <trkpt lat="55.827683005481958" lon="-3.220384027808905">
        <ele>195.77000000000001</ele>
        <time>2023-08-17T11:02:01Z</time>
      </trkpt>
      <trkpt lat="55.82772801630199" lon="-3.220458040013909">
        <ele>195.28</ele>
        <time>2023-08-17T11:02:02Z</time>
      </trkpt>
      <trkpt lat="55.827671019360423" lon="-3.220668006688356">
        <ele>194.31999999999999</ele>
        <time>2023-08-17T11:02:03Z</time>
      </trkpt>
      <trkpt lat="55.827820971608162" lon="-3.221052987501025">
        <ele>192.40000000000001</ele>
        <time>2023-08-17T11:02:06Z</time>
      </trkpt>
      <trkpt lat="55.827820971608162" lon="-3.221186008304358">
        <ele>191.91999999999999</ele>
        <time>2023-08-17T11:02:07Z</time>
      </trkpt>
      <trkpt lat="55.827861037105322" lon="-3.222140036523342">
        <ele>188.08000000000001</ele>
        <time>2023-08-17T11:02:15Z</time>
      </trkpt>
      <trkpt lat="55.827893977984786" lon="-3.222226034849882">
        <ele>187.59</ele>
        <time>2023-08-17T11:02:16Z</time>
      </trkpt>
      <trkpt lat="55.82794401794672" lon="-3.222315972670913">
        <ele>187.11000000000001</ele>
        <time>2023-08-17T11:02:17Z</time>
      </trkpt>
      <trkpt lat="55.827992968261242" lon="-3.222405994310975">
        <ele>187.11000000000001</ele>
        <time>2023-08-17T11:02:18Z</time>
      </trkpt>
      <trkpt lat="55.828046025708318" lon="-3.222444970160723">
        <ele>187.11000000000001</ele>
        <time>2023-08-17T11:02:19Z</time>
      </trkpt>
      <trkpt lat="55.828117020428181" lon="-3.222496015951037">
        <ele>186.63</ele>
        <time>2023-08-17T11:02:20Z</time>
      </trkpt>
      <trkpt lat="55.828186003491282" lon="-3.22254697792232">
        <ele>186.63</ele>
        <time>2023-08-17T11:02:21Z</time>
      </trkpt>
      <trkpt lat="55.828692018985748" lon="-3.222859958186746">
        <ele>185.66999999999999</ele>
        <time>2023-08-17T11:02:28Z</time>
      </trkpt>
      <trkpt lat="55.828767037019134" lon="-3.222906980663538">
        <ele>185.66999999999999</ele>
        <time>2023-08-17T11:02:29Z</time>
      </trkpt>
      <trkpt lat="55.829851990565658" lon="-3.223602008074522">
        <ele>186.15000000000001</ele>
        <time>2023-08-17T11:02:42Z</time>
      </trkpt>
      <trkpt lat="55.830647014081478" lon="-3.223982965573669">
        <ele>186.15000000000001</ele>
        <time>2023-08-17T11:02:50Z</time>
      </trkpt>
      <trkpt lat="55.83185400813818" lon="-3.223939966410399">
        <ele>188.56</ele>
        <time>2023-08-17T11:03:01Z</time>
      </trkpt>
      <trkpt lat="55.831954004243016" lon="-3.223869977518916">
        <ele>188.56</ele>
        <time>2023-08-17T11:03:02Z</time>
      </trkpt>
      <trkpt lat="55.832165982574224" lon="-3.223708039149642">
        <ele>189.03999999999999</ele>
        <time>2023-08-17T11:03:04Z</time>
      </trkpt>
      <trkpt lat="55.832824967801571" lon="-3.223156007006764">
        <ele>190</ele>
        <time>2023-08-17T11:03:12Z</time>
      </trkpt>
      <trkpt lat="55.833516977727413" lon="-3.222518982365727">
        <ele>188.56</ele>
        <time>2023-08-17T11:03:23Z</time>
      </trkpt>
      <trkpt lat="55.834270007908344" lon="-3.221810963004828">
        <ele>190.47999999999999</ele>
        <time>2023-08-17T11:03:34Z</time>
      </trkpt>
      <trkpt lat="55.834741992875934" lon="-3.221370996907353">
        <ele>190</ele>
        <time>2023-08-17T11:03:43Z</time>
      </trkpt>
      <trkpt lat="55.834859004244208" lon="-3.221268989145756">
        <ele>190</ele>
        <time>2023-08-17T11:03:51Z</time>
      </trkpt>
      <trkpt lat="55.834892028942704" lon="-3.221239987760782">
        <ele>190</ele>
        <time>2023-08-17T11:04:01Z</time>
      </trkpt>
      <trkpt lat="55.835258988663554" lon="-3.220921978354454">
        <ele>190.47999999999999</ele>
        <time>2023-08-17T11:04:10Z</time>
      </trkpt>
      <trkpt lat="55.835311962291598" lon="-3.220875039696693">
        <ele>190.47999999999999</ele>
        <time>2023-08-17T11:04:11Z</time>
      </trkpt>
      <trkpt lat="55.835492005571723" lon="-3.220718968659639">
        <ele>190.47999999999999</ele>
        <time>2023-08-17T11:04:14Z</time>
      </trkpt>
      <trkpt lat="55.836084019392729" lon="-3.220199039205909">
        <ele>188.56</ele>
        <time>2023-08-17T11:04:24Z</time>
      </trkpt>
      <trkpt lat="55.836680978536606" lon="-3.219636026769877">
        <ele>184.22999999999999</ele>
        <time>2023-08-17T11:04:33Z</time>
      </trkpt>
      <trkpt lat="55.837497040629387" lon="-3.218848966062069">
        <ele>185.66999999999999</ele>
        <time>2023-08-17T11:04:42Z</time>
      </trkpt>
      <trkpt lat="55.837972965091467" lon="-3.218387961387634">
        <ele>188.08000000000001</ele>
        <time>2023-08-17T11:04:47Z</time>
      </trkpt>
      <trkpt lat="55.83821696229279" lon="-3.218084033578634">
        <ele>191.44</ele>
        <time>2023-08-17T11:04:51Z</time>
      </trkpt>
      <trkpt lat="55.838261973112822" lon="-3.218022007495165">
        <ele>191.91999999999999</ele>
        <time>2023-08-17T11:04:52Z</time>
      </trkpt>
      <trkpt lat="55.83829902112484" lon="-3.217971967533231">
        <ele>192.40000000000001</ele>
        <time>2023-08-17T11:04:53Z</time>
      </trkpt>
      <trkpt lat="55.838334979489446" lon="-3.217921005561948">
        <ele>192.40000000000001</ele>
        <time>2023-08-17T11:04:54Z</time>
      </trkpt>
      <trkpt lat="55.838334979489446" lon="-3.217921005561948">
        <ele>192.88</ele>
        <time>2023-08-17T11:04:55Z</time>
      </trkpt>
      <trkpt lat="55.838356018066406" lon="-3.217879012227058">
        <ele>193.36000000000001</ele>
        <time>2023-08-17T11:04:56Z</time>
      </trkpt>
      <trkpt lat="55.838373033329844" lon="-3.217845987528563">
        <ele>193.84</ele>
        <time>2023-08-17T11:04:57Z</time>
      </trkpt>
      <trkpt lat="55.838438998907804" lon="-3.217714978381991">
        <ele>195.77000000000001</ele>
        <time>2023-08-17T11:05:06Z</time>
      </trkpt>
      <trkpt lat="55.838529020547867" lon="-3.217534013092518">
        <ele>195.77000000000001</ele>
        <time>2023-08-17T11:05:08Z</time>
      </trkpt>
      <trkpt lat="55.83857998251915" lon="-3.21743200533092">
        <ele>195.77000000000001</ele>
        <time>2023-08-17T11:05:09Z</time>
      </trkpt>
      <trkpt lat="55.838964963331819" lon="-3.216662965714932">
        <ele>195.28</ele>
        <time>2023-08-17T11:05:16Z</time>
      </trkpt>
      <trkpt lat="55.839137965813279" lon="-3.216267004609108">
        <ele>194.80000000000001</ele>
        <time>2023-08-17T11:05:19Z</time>
      </trkpt>
      <trkpt lat="55.839198986068368" lon="-3.216117974370718">
        <ele>194.31999999999999</ele>
        <time>2023-08-17T11:05:20Z</time>
      </trkpt>
      <trkpt lat="55.839405013248324" lon="-3.215616988018155">
        <ele>192.88</ele>
        <time>2023-08-17T11:05:23Z</time>
      </trkpt>
      <trkpt lat="55.839471984654665" lon="-3.215453960001469">
        <ele>192.40000000000001</ele>
        <time>2023-08-17T11:05:24Z</time>
      </trkpt>
      <trkpt lat="55.839548008516431" lon="-3.215290009975433">
        <ele>191.91999999999999</ele>
        <time>2023-08-17T11:05:25Z</time>
      </trkpt>
      <trkpt lat="55.840014964342117" lon="-3.214291976764798">
        <ele>190</ele>
        <time>2023-08-17T11:05:31Z</time>
      </trkpt>
      <trkpt lat="55.840101968497038" lon="-3.214136995375156">
        <ele>190</ele>
        <time>2023-08-17T11:05:32Z</time>
      </trkpt>
      <trkpt lat="55.841275015845895" lon="-3.212074963375926">
        <ele>189.52000000000001</ele>
        <time>2023-08-17T11:05:45Z</time>
      </trkpt>
      <trkpt lat="55.841788994148374" lon="-3.211170975118876">
        <ele>189.52000000000001</ele>
        <time>2023-08-17T11:05:51Z</time>
      </trkpt>
      <trkpt lat="55.841868035495281" lon="-3.21102999150753">
        <ele>188.56</ele>
        <time>2023-08-17T11:05:52Z</time>
      </trkpt>
      <trkpt lat="55.842570019885898" lon="-3.209637003019452">
        <ele>186.15000000000001</ele>
        <time>2023-08-17T11:06:01Z</time>
      </trkpt>
      <trkpt lat="55.842637997120619" lon="-3.209432987496257">
        <ele>186.15000000000001</ele>
        <time>2023-08-17T11:06:02Z</time>
      </trkpt>
      <trkpt lat="55.842707986012101" lon="-3.209225032478571">
        <ele>186.63</ele>
        <time>2023-08-17T11:06:03Z</time>
      </trkpt>
      <trkpt lat="55.842777974903584" lon="-3.209012970328331">
        <ele>186.63</ele>
        <time>2023-08-17T11:06:04Z</time>
      </trkpt>
      <trkpt lat="55.842843018472195" lon="-3.208812978118658">
        <ele>186.63</ele>
        <time>2023-08-17T11:06:05Z</time>
      </trkpt>
      <trkpt lat="55.842956006526947" lon="-3.208460016176105">
        <ele>186.63</ele>
        <time>2023-08-17T11:06:07Z</time>
      </trkpt>
      <trkpt lat="55.843010991811752" lon="-3.208290031179786">
        <ele>186.63</ele>
        <time>2023-08-17T11:06:08Z</time>
      </trkpt>
      <trkpt lat="55.843338975682855" lon="-3.207267019897699">
        <ele>185.66999999999999</ele>
        <time>2023-08-17T11:06:14Z</time>
      </trkpt>
      <trkpt lat="55.843395972624421" lon="-3.207115978002548">
        <ele>185.19</ele>
        <time>2023-08-17T11:06:15Z</time>
      </trkpt>
      <trkpt lat="55.843644998967648" lon="-3.20651700720191">
        <ele>183.75</ele>
        <time>2023-08-17T11:06:19Z</time>
      </trkpt>
      <trkpt lat="55.843725968152285" lon="-3.206374011933804">
        <ele>183.27000000000001</ele>
        <time>2023-08-17T11:06:20Z</time>
      </trkpt>
      <trkpt lat="55.84382101893425" lon="-3.20623897947371">
        <ele>183.27000000000001</ele>
        <time>2023-08-17T11:06:21Z</time>
      </trkpt>
      <trkpt lat="55.843915985897183" lon="-3.206104030832648">
        <ele>183.27000000000001</ele>
        <time>2023-08-17T11:06:22Z</time>
      </trkpt>
      <trkpt lat="55.84401598200202" lon="-3.205993976444006">
        <ele>183.75</ele>
        <time>2023-08-17T11:06:23Z</time>
      </trkpt>
      <trkpt lat="55.844116983935237" lon="-3.205889035016298">
        <ele>184.22999999999999</ele>
        <time>2023-08-17T11:06:24Z</time>
      </trkpt>
      <trkpt lat="55.845147036015987" lon="-3.204823024570942">
        <ele>186.63</ele>
        <time>2023-08-17T11:06:35Z</time>
      </trkpt>
      <trkpt lat="55.846160994842649" lon="-3.203827003017068">
        <ele>188.56</ele>
        <time>2023-08-17T11:06:47Z</time>
      </trkpt>
      <trkpt lat="55.846384037286043" lon="-3.203606978058815">
        <ele>188.08000000000001</ele>
        <time>2023-08-17T11:06:54Z</time>
      </trkpt>
      <trkpt lat="55.846619987860322" lon="-3.203371027484536">
        <ele>188.08000000000001</ele>
        <time>2023-08-17T11:07:06Z</time>
      </trkpt>
      <trkpt lat="55.847058026120067" lon="-3.202937012538314">
        <ele>189.03999999999999</ele>
        <time>2023-08-17T11:07:11Z</time>
      </trkpt>
      <trkpt lat="55.84814096800983" lon="-3.201914001256228">
        <ele>185.19</ele>
        <time>2023-08-17T11:07:21Z</time>
      </trkpt>
      <trkpt lat="55.848973961547017" lon="-3.201255016028881">
        <ele>181.34999999999999</ele>
        <time>2023-08-17T11:07:29Z</time>
      </trkpt>
      <trkpt lat="55.84925701841712" lon="-3.200927032157779">
        <ele>179.90000000000001</ele>
        <time>2023-08-17T11:07:32Z</time>
      </trkpt>
      <trkpt lat="55.849321978166699" lon="-3.200755035504699">
        <ele>179.41999999999999</ele>
        <time>2023-08-17T11:07:33Z</time>
      </trkpt>
      <trkpt lat="55.849390961229801" lon="-3.200574992224574">
        <ele>178.94</ele>
        <time>2023-08-17T11:07:34Z</time>
      </trkpt>
      <trkpt lat="55.849835034459829" lon="-3.199193989858031">
        <ele>175.58000000000001</ele>
        <time>2023-08-17T11:07:43Z</time>
      </trkpt>
      <trkpt lat="55.849961014464498" lon="-3.198713036254048">
        <ele>174.62</ele>
        <time>2023-08-17T11:07:46Z</time>
      </trkpt>
      <trkpt lat="55.850004013627768" lon="-3.198543973267078">
        <ele>174.13999999999999</ele>
        <time>2023-08-17T11:07:47Z</time>
      </trkpt>
      <trkpt lat="55.85035203024745" lon="-3.197229020297527">
        <ele>171.72999999999999</ele>
        <time>2023-08-17T11:07:55Z</time>
      </trkpt>
      <trkpt lat="55.8503960352391" lon="-3.197065992280841">
        <ele>171.25</ele>
        <time>2023-08-17T11:07:56Z</time>
      </trkpt>
      <trkpt lat="55.850832983851433" lon="-3.195420037955046">
        <ele>171.72999999999999</ele>
        <time>2023-08-17T11:08:04Z</time>
      </trkpt>
      <trkpt lat="55.851545026525855" lon="-3.192929020151496">
        <ele>177.97999999999999</ele>
        <time>2023-08-17T11:08:14Z</time>
      </trkpt>
      <trkpt lat="55.851862030103803" lon="-3.192344969138503">
        <ele>179.41999999999999</ele>
        <time>2023-08-17T11:08:17Z</time>
      </trkpt>
      <trkpt lat="55.85224399343133" lon="-3.191624041646719">
        <ele>181.34999999999999</ele>
        <time>2023-08-17T11:08:23Z</time>
      </trkpt>
      <trkpt lat="55.852278023958206" lon="-3.191560003906488">
        <ele>181.83000000000001</ele>
        <time>2023-08-17T11:08:24Z</time>
      </trkpt>
      <trkpt lat="55.852349018678069" lon="-3.19145699031651">
        <ele>183.27000000000001</ele>
        <time>2023-08-17T11:08:32Z</time>
      </trkpt>
      <trkpt lat="55.852564014494419" lon="-3.191157002002001">
        <ele>184.71000000000001</ele>
        <time>2023-08-17T11:08:37Z</time>
      </trkpt>
      <trkpt lat="55.853282008320093" lon="-3.190353009849787">
        <ele>183.27000000000001</ele>
        <time>2023-08-17T11:08:44Z</time>
      </trkpt>
      <trkpt lat="55.854423036798835" lon="-3.1893299985677">
        <ele>183.75</ele>
        <time>2023-08-17T11:08:52Z</time>
      </trkpt>
      <trkpt lat="55.855619972571731" lon="-3.188705965876579">
        <ele>186.63</ele>
        <time>2023-08-17T11:09:00Z</time>
      </trkpt>
      <trkpt lat="55.855746036395431" lon="-3.188579985871911">
        <ele>187.11000000000001</ele>
        <time>2023-08-17T11:09:01Z</time>
      </trkpt>
      <trkpt lat="55.85587402805686" lon="-3.188451994210482">
        <ele>187.11000000000001</ele>
        <time>2023-08-17T11:09:02Z</time>
      </trkpt>
      <trkpt lat="55.855981986969709" lon="-3.188306987285614">
        <ele>187.59</ele>
        <time>2023-08-17T11:09:03Z</time>
      </trkpt>
      <trkpt lat="55.856083994731307" lon="-3.188134990632534">
        <ele>188.08000000000001</ele>
        <time>2023-08-17T11:09:04Z</time>
      </trkpt>
      <trkpt lat="55.856178961694241" lon="-3.187963999807835">
        <ele>188.08000000000001</ele>
        <time>2023-08-17T11:09:05Z</time>
      </trkpt>
      <trkpt lat="55.856272000819445" lon="-3.187775993719697">
        <ele>188.08000000000001</ele>
        <time>2023-08-17T11:09:06Z</time>
      </trkpt>
      <trkpt lat="55.856365961953998" lon="-3.187584970146418">
        <ele>188.08000000000001</ele>
        <time>2023-08-17T11:09:07Z</time>
      </trkpt>
      <trkpt lat="55.856946995481849" lon="-3.186216959729791">
        <ele>185.19</ele>
        <time>2023-08-17T11:09:14Z</time>
      </trkpt>
      <trkpt lat="55.857044979929924" lon="-3.186090979725123">
        <ele>184.71000000000001</ele>
        <time>2023-08-17T11:09:15Z</time>
      </trkpt>
      <trkpt lat="55.857148999348283" lon="-3.185971034690738">
        <ele>184.22999999999999</ele>
        <time>2023-08-17T11:09:16Z</time>
      </trkpt>
      <trkpt lat="55.857260981574655" lon="-3.185842037200928">
        <ele>184.22999999999999</ele>
        <time>2023-08-17T11:09:17Z</time>
      </trkpt>
      <trkpt lat="55.85731697268784" lon="-3.18578596226871">
        <ele>183.75</ele>
        <time>2023-08-17T11:09:18Z</time>
      </trkpt>
      <trkpt lat="55.857433984056115" lon="-3.185746986418963">
        <ele>183.75</ele>
        <time>2023-08-17T11:09:19Z</time>
      </trkpt>
      <trkpt lat="55.857472037896514" lon="-3.185840025544167">
        <ele>183.75</ele>
        <time>2023-08-17T11:09:20Z</time>
      </trkpt>
      <trkpt lat="55.857560969889164" lon="-3.186057033017278">
        <ele>183.75</ele>
        <time>2023-08-17T11:09:21Z</time>
      </trkpt>
      <trkpt lat="55.857613021507859" lon="-3.186095003038645">
        <ele>183.75</ele>
        <time>2023-08-17T11:09:22Z</time>
      </trkpt>
      <trkpt lat="55.857694996520877" lon="-3.186157029122114">
        <ele>184.22999999999999</ele>
        <time>2023-08-17T11:09:23Z</time>
      </trkpt>
      <trkpt lat="55.857802033424377" lon="-3.186185024678707">
        <ele>184.22999999999999</ele>
        <time>2023-08-17T11:09:24Z</time>
      </trkpt>
      <trkpt lat="55.857914015650749" lon="-3.186159962788224">
        <ele>184.71000000000001</ele>
        <time>2023-08-17T11:09:25Z</time>
      </trkpt>
      <trkpt lat="55.858000013977289" lon="-3.186087962239981">
        <ele>184.22999999999999</ele>
        <time>2023-08-17T11:09:26Z</time>
      </trkpt>
      <trkpt lat="55.858074026182294" lon="-3.185945972800255">
        <ele>184.22999999999999</ele>
        <time>2023-08-17T11:09:27Z</time>
      </trkpt>
      <trkpt lat="55.858133034780622" lon="-3.185820998623967">
        <ele>183.75</ele>
        <time>2023-08-17T11:09:28Z</time>
      </trkpt>
      <trkpt lat="55.858187014237046" lon="-3.185673980042338">
        <ele>183.27000000000001</ele>
        <time>2023-08-17T11:09:29Z</time>
      </trkpt>
      <trkpt lat="55.858204029500484" lon="-3.185508018359542">
        <ele>182.78999999999999</ele>
        <time>2023-08-17T11:09:30Z</time>
      </trkpt>
      <trkpt lat="55.858179973438382" lon="-3.185321018099785">
        <ele>182.78999999999999</ele>
        <time>2023-08-17T11:09:31Z</time>
      </trkpt>
      <trkpt lat="55.858162036165595" lon="-3.185197971761227">
        <ele>182.78999999999999</ele>
        <time>2023-08-17T11:09:32Z</time>
      </trkpt>
      <trkpt lat="55.858062962070107" lon="-3.185023963451386">
        <ele>182.31</ele>
        <time>2023-08-17T11:09:33Z</time>
      </trkpt>
      <trkpt lat="55.857990039512515" lon="-3.184897983446717">
        <ele>182.31</ele>
        <time>2023-08-17T11:09:34Z</time>
      </trkpt>
      <trkpt lat="55.857932036742568" lon="-3.184716012328863">
        <ele>182.31</ele>
        <time>2023-08-17T11:09:35Z</time>
      </trkpt>
      <trkpt lat="55.857883002609015" lon="-3.184561030939221">
        <ele>182.31</ele>
        <time>2023-08-17T11:09:36Z</time>
      </trkpt>
      <trkpt lat="55.857818964868784" lon="-3.184361038729549">
        <ele>182.31</ele>
        <time>2023-08-17T11:09:37Z</time>
      </trkpt>
      <trkpt lat="55.857818964868784" lon="-3.184198010712862">
        <ele>182.31</ele>
        <time>2023-08-17T11:09:38Z</time>
      </trkpt>
      <trkpt lat="55.857818964868784" lon="-3.183975974097848">
        <ele>181.83000000000001</ele>
        <time>2023-08-17T11:09:39Z</time>
      </trkpt>
      <trkpt lat="55.857727015390992" lon="-3.182226000353694">
        <ele>177.97999999999999</ele>
        <time>2023-08-17T11:09:46Z</time>
      </trkpt>
      <trkpt lat="55.857396014034748" lon="-3.179835984483361">
        <ele>173.66</ele>
        <time>2023-08-17T11:09:57Z</time>
      </trkpt>
      <trkpt lat="55.856963004916906" lon="-3.178023984655738">
        <ele>172.21000000000001</ele>
        <time>2023-08-17T11:10:08Z</time>
      </trkpt>
      <trkpt lat="55.856523960828781" lon="-3.176076030358672">
        <ele>170.77000000000001</ele>
        <time>2023-08-17T11:10:19Z</time>
      </trkpt>
      <trkpt lat="55.85596296004951" lon="-3.173763966187835">
        <ele>169.81</ele>
        <time>2023-08-17T11:10:32Z</time>
      </trkpt>
      <trkpt lat="55.855154022574425" lon="-3.171911984682083">
        <ele>166.93000000000001</ele>
        <time>2023-08-17T11:10:44Z</time>
      </trkpt>
      <trkpt lat="55.855087973177433" lon="-3.171763038262725">
        <ele>166.44999999999999</ele>
        <time>2023-08-17T11:10:45Z</time>
      </trkpt>
      <trkpt lat="55.855034999549389" lon="-3.17160302773118">
        <ele>165.96000000000001</ele>
        <time>2023-08-17T11:10:46Z</time>
      </trkpt>
      <trkpt lat="55.854999041184783" lon="-3.171420972794294">
        <ele>165.47999999999999</ele>
        <time>2023-08-17T11:10:47Z</time>
      </trkpt>
      <trkpt lat="55.854961993172765" lon="-3.171236990019679">
        <ele>165.47999999999999</ele>
        <time>2023-08-17T11:10:48Z</time>
      </trkpt>
      <trkpt lat="55.854922011494637" lon="-3.171035991981626">
        <ele>165</ele>
        <time>2023-08-17T11:10:49Z</time>
      </trkpt>
      <trkpt lat="55.854900972917676" lon="-3.170822001993656">
        <ele>164.52000000000001</ele>
        <time>2023-08-17T11:10:50Z</time>
      </trkpt>
      <trkpt lat="55.85488697513938" lon="-3.170660985633731">
        <ele>164.03999999999999</ele>
        <time>2023-08-17T11:10:51Z</time>
      </trkpt>
      <trkpt lat="55.854888986796141" lon="-3.170455964282155">
        <ele>163.56</ele>
        <time>2023-08-17T11:10:52Z</time>
      </trkpt>
      <trkpt lat="55.854907007887959" lon="-3.170263012871146">
        <ele>163.08000000000001</ele>
        <time>2023-08-17T11:10:53Z</time>
      </trkpt>
      <trkpt lat="55.854925028979778" lon="-3.170075006783009">
        <ele>162.59999999999999</ele>
        <time>2023-08-17T11:10:54Z</time>
      </trkpt>
      <trkpt lat="55.8549739792943" lon="-3.169741993770003">
        <ele>162.59999999999999</ele>
        <time>2023-08-17T11:10:56Z</time>
      </trkpt>
      <trkpt lat="55.855051008984447" lon="-3.169405041262507">
        <ele>162.59999999999999</ele>
        <time>2023-08-17T11:10:58Z</time>
      </trkpt>
      <trkpt lat="55.855292994529009" lon="-3.168747983872891">
        <ele>162.59999999999999</ele>
        <time>2023-08-17T11:11:03Z</time>
      </trkpt>
      <trkpt lat="55.855859024450183" lon="-3.167094988748431">
        <ele>161.63999999999999</ele>
        <time>2023-08-17T11:11:14Z</time>
      </trkpt>
      <trkpt lat="55.856423964723945" lon="-3.165037985891104">
        <ele>163.56</ele>
        <time>2023-08-17T11:11:27Z</time>
      </trkpt>
      <trkpt lat="55.856724036857486" lon="-3.163954960182309">
        <ele>166.93000000000001</ele>
        <time>2023-08-17T11:11:35Z</time>
      </trkpt>
      <trkpt lat="55.856724036857486" lon="-3.163954960182309">
        <ele>167.41</ele>
        <time>2023-08-17T11:11:36Z</time>
      </trkpt>
      <trkpt lat="55.856724958866835" lon="-3.163734013214707">
        <ele>167.88999999999999</ele>
        <time>2023-08-17T11:11:37Z</time>
      </trkpt>
      <trkpt lat="55.856687994673848" lon="-3.163667041808367">
        <ele>168.37</ele>
        <time>2023-08-17T11:11:38Z</time>
      </trkpt>
      <trkpt lat="55.856641978025436" lon="-3.163583977147937">
        <ele>168.84999999999999</ele>
        <time>2023-08-17T11:11:39Z</time>
      </trkpt>
      <trkpt lat="55.856589004397392" lon="-3.163489010185003">
        <ele>168.84999999999999</ele>
        <time>2023-08-17T11:11:40Z</time>
      </trkpt>
      <trkpt lat="55.856529995799065" lon="-3.163381973281503">
        <ele>169.33000000000001</ele>
        <time>2023-08-17T11:11:41Z</time>
      </trkpt>
      <trkpt lat="55.856466963887215" lon="-3.16326898522675">
        <ele>169.81</ele>
        <time>2023-08-17T11:11:42Z</time>
      </trkpt>
      <trkpt lat="55.856422036886215" lon="-3.163131019100547">
        <ele>169.81</ele>
        <time>2023-08-17T11:11:43Z</time>
      </trkpt>
      <trkpt lat="55.856380965560675" lon="-3.163006966933608">
        <ele>169.33000000000001</ele>
        <time>2023-08-17T11:11:44Z</time>
      </trkpt>
      <trkpt lat="55.856231013312936" lon="-3.162553003057838">
        <ele>166.44999999999999</ele>
        <time>2023-08-17T11:11:51Z</time>
      </trkpt>
      <trkpt lat="55.856198994442821" lon="-3.162455018609762">
        <ele>163.56</ele>
        <time>2023-08-17T11:11:57Z</time>
      </trkpt>
      <trkpt lat="55.856178961694241" lon="-3.162393998354673">
        <ele>163.08000000000001</ele>
        <time>2023-08-17T11:11:58Z</time>
      </trkpt>
      <trkpt lat="55.856152977794409" lon="-3.162313029170036">
        <ele>162.59999999999999</ele>
        <time>2023-08-17T11:11:59Z</time>
      </trkpt>
      <trkpt lat="55.856034038588405" lon="-3.161953026428819">
        <ele>160.68000000000001</ele>
        <time>2023-08-17T11:12:03Z</time>
      </trkpt>
      <trkpt lat="55.855893976986408" lon="-3.161438964307308">
        <ele>158.75</ele>
        <time>2023-08-17T11:12:12Z</time>
      </trkpt>
      <trkpt lat="55.855861958116293" lon="-3.161267973482609">
        <ele>158.75</ele>
        <time>2023-08-17T11:12:24Z</time>
      </trkpt>
      <trkpt lat="55.855828011408448" lon="-3.161083990707994">
        <ele>155.87</ele>
        <time>2023-08-17T11:12:37Z</time>
      </trkpt>
      <trkpt lat="55.855779983103275" lon="-3.160821972414851">
        <ele>155.38999999999999</ele>
        <time>2023-08-17T11:12:50Z</time>
      </trkpt>
      <trkpt lat="55.855666995048523" lon="-3.161020958796144">
        <ele>155.38999999999999</ele>
        <time>2023-08-17T11:13:01Z</time>
      </trkpt>
      <trkpt lat="55.855959020555019" lon="-3.160986006259918">
        <ele>160.68000000000001</ele>
        <time>2023-08-17T12:24:07Z</time>
      </trkpt>
      <trkpt lat="55.855777971446514" lon="-3.160912999883294">
        <ele>158.75</ele>
        <time>2023-08-17T12:24:34Z</time>
      </trkpt>
      <trkpt lat="55.855781994760036" lon="-3.160910988226533">
        <ele>157.78999999999999</ele>
        <time>2023-08-17T12:24:35Z</time>
      </trkpt>
      <trkpt lat="55.855827005580068" lon="-3.160995980724692">
        <ele>164.03999999999999</ele>
        <time>2023-08-17T12:24:42Z</time>
      </trkpt>
      <trkpt lat="55.855821976438165" lon="-3.161048032343388">
        <ele>162.59999999999999</ele>
        <time>2023-08-17T12:24:44Z</time>
      </trkpt>
      <trkpt lat="55.85583102889359" lon="-3.161100000143051">
        <ele>162.59999999999999</ele>
        <time>2023-08-17T12:24:45Z</time>
      </trkpt>
      <trkpt lat="55.855842009186745" lon="-3.161154985427856">
        <ele>162.12</ele>
        <time>2023-08-17T12:24:46Z</time>
      </trkpt>
      <trkpt lat="55.855848966166377" lon="-3.161195972934365">
        <ele>160.68000000000001</ele>
        <time>2023-08-17T12:24:47Z</time>
      </trkpt>
      <trkpt lat="55.855875033885241" lon="-3.161336034536362">
        <ele>146.74000000000001</ele>
        <time>2023-08-17T12:24:57Z</time>
      </trkpt>
      <trkpt lat="55.855875033885241" lon="-3.161336034536362">
        <ele>139.05000000000001</ele>
        <time>2023-08-17T12:25:20Z</time>
      </trkpt>
      <trkpt lat="55.856014005839825" lon="-3.16189200617373">
        <ele>140.49000000000001</ele>
        <time>2023-08-17T12:25:28Z</time>
      </trkpt>
      <trkpt lat="55.856422958895564" lon="-3.163134036585689">
        <ele>144.34</ele>
        <time>2023-08-17T12:25:39Z</time>
      </trkpt>
      <trkpt lat="55.856724036857486" lon="-3.163954960182309">
        <ele>149.13999999999999</ele>
        <time>2023-08-17T12:25:48Z</time>
      </trkpt>
      <trkpt lat="55.856724036857486" lon="-3.163954960182309">
        <ele>150.58000000000001</ele>
        <time>2023-08-17T12:25:49Z</time>
      </trkpt>
      <trkpt lat="55.856724036857486" lon="-3.163954960182309">
        <ele>152.03</ele>
        <time>2023-08-17T12:25:50Z</time>
      </trkpt>
      <trkpt lat="55.856361016631126" lon="-3.16526303999126">
        <ele>158.27000000000001</ele>
        <time>2023-08-17T12:25:59Z</time>
      </trkpt>
      <trkpt lat="55.855875033885241" lon="-3.167034974321723">
        <ele>178.94</ele>
        <time>2023-08-17T12:26:09Z</time>
      </trkpt>
      <trkpt lat="55.855213031172752" lon="-3.168963985517621">
        <ele>196.72999999999999</ele>
        <time>2023-08-17T12:26:21Z</time>
      </trkpt>
      <trkpt lat="55.854938020929694" lon="-3.169931005686522">
        <ele>194.80000000000001</ele>
        <time>2023-08-17T12:26:27Z</time>
      </trkpt>
      <trkpt lat="55.854921005666256" lon="-3.170119011774659">
        <ele>193.84</ele>
        <time>2023-08-17T12:26:28Z</time>
      </trkpt>
      <trkpt lat="55.854903990402818" lon="-3.170304000377655">
        <ele>192.88</ele>
        <time>2023-08-17T12:26:29Z</time>
      </trkpt>
      <trkpt lat="55.854885969310999" lon="-3.170492006465793">
        <ele>192.40000000000001</ele>
        <time>2023-08-17T12:26:30Z</time>
      </trkpt>
      <trkpt lat="55.854888986796141" lon="-3.170685963705182">
        <ele>191.44</ele>
        <time>2023-08-17T12:26:31Z</time>
      </trkpt>
      <trkpt lat="55.854907007887959" lon="-3.170882016420364">
        <ele>190.96000000000001</ele>
        <time>2023-08-17T12:26:32Z</time>
      </trkpt>
      <trkpt lat="55.854922011494637" lon="-3.171035991981626">
        <ele>190</ele>
        <time>2023-08-17T12:26:33Z</time>
      </trkpt>
      <trkpt lat="55.854970961809158" lon="-3.171279989182949">
        <ele>189.52000000000001</ele>
        <time>2023-08-17T12:26:34Z</time>
      </trkpt>
      <trkpt lat="55.855011027306318" lon="-3.171480987221003">
        <ele>188.56</ele>
        <time>2023-08-17T12:26:35Z</time>
      </trkpt>
      <trkpt lat="55.855055032297969" lon="-3.17168802022934">
        <ele>188.56</ele>
        <time>2023-08-17T12:26:36Z</time>
      </trkpt>
      <trkpt lat="55.855131978169084" lon="-3.171862028539181">
        <ele>188.08000000000001</ele>
        <time>2023-08-17T12:26:37Z</time>
      </trkpt>
      <trkpt lat="55.855212025344372" lon="-3.172041988000274">
        <ele>188.08000000000001</ele>
        <time>2023-08-17T12:26:38Z</time>
      </trkpt>
      <trkpt lat="55.855294000357389" lon="-3.172225970774889">
        <ele>188.08000000000001</ele>
        <time>2023-08-17T12:26:39Z</time>
      </trkpt>
      <trkpt lat="55.855459962040186" lon="-3.172597959637642">
        <ele>188.56</ele>
        <time>2023-08-17T12:26:41Z</time>
      </trkpt>
      <trkpt lat="55.856169993057847" lon="-3.174466034397483">
        <ele>190</ele>
        <time>2023-08-17T12:26:51Z</time>
      </trkpt>
      <trkpt lat="55.856736022979021" lon="-3.177028968930244">
        <ele>191.91999999999999</ele>
        <time>2023-08-17T12:27:04Z</time>
      </trkpt>
      <trkpt lat="55.857257964089513" lon="-3.179284036159515">
        <ele>192.88</ele>
        <time>2023-08-17T12:27:16Z</time>
      </trkpt>
      <trkpt lat="55.857647974044085" lon="-3.181640021502972">
        <ele>192.40000000000001</ele>
        <time>2023-08-17T12:27:26Z</time>
      </trkpt>
      <trkpt lat="55.857818964868784" lon="-3.184228017926216">
        <ele>191.91999999999999</ele>
        <time>2023-08-17T12:27:37Z</time>
      </trkpt>
      <trkpt lat="55.857759034261107" lon="-3.184513002634049">
        <ele>191.91999999999999</ele>
        <time>2023-08-17T12:27:42Z</time>
      </trkpt>
      <trkpt lat="55.857730032876134" lon="-3.184587014839053">
        <ele>191.91999999999999</ele>
        <time>2023-08-17T12:27:43Z</time>
      </trkpt>
      <trkpt lat="55.857642022892833" lon="-3.184811985120177">
        <ele>191.91999999999999</ele>
        <time>2023-08-17T12:27:45Z</time>
      </trkpt>
      <trkpt lat="55.857583014294505" lon="-3.184962021186948">
        <ele>191.44</ele>
        <time>2023-08-17T12:27:46Z</time>
      </trkpt>
      <trkpt lat="55.857498021796346" lon="-3.185144998133183">
        <ele>190.47999999999999</ele>
        <time>2023-08-17T12:27:48Z</time>
      </trkpt>
      <trkpt lat="55.857448987662792" lon="-3.185295034199953">
        <ele>190.47999999999999</ele>
        <time>2023-08-17T12:27:49Z</time>
      </trkpt>
      <trkpt lat="55.857432978227735" lon="-3.185459990054369">
        <ele>190</ele>
        <time>2023-08-17T12:27:50Z</time>
      </trkpt>
      <trkpt lat="55.857417974621058" lon="-3.185618994757533">
        <ele>189.52000000000001</ele>
        <time>2023-08-17T12:27:51Z</time>
      </trkpt>
      <trkpt lat="55.857461979612708" lon="-3.185814041644335">
        <ele>189.52000000000001</ele>
        <time>2023-08-17T12:27:52Z</time>
      </trkpt>
      <trkpt lat="55.857515037059784" lon="-3.185944966971874">
        <ele>190</ele>
        <time>2023-08-17T12:27:53Z</time>
      </trkpt>
      <trkpt lat="55.857560969889164" lon="-3.186057033017278">
        <ele>190</ele>
        <time>2023-08-17T12:27:54Z</time>
      </trkpt>
      <trkpt lat="55.857661971822381" lon="-3.186131967231631">
        <ele>190</ele>
        <time>2023-08-17T12:27:55Z</time>
      </trkpt>
      <trkpt lat="55.857749981805682" lon="-3.186185024678707">
        <ele>189.52000000000001</ele>
        <time>2023-08-17T12:27:56Z</time>
      </trkpt>
      <trkpt lat="55.857849977910519" lon="-3.186185024678707">
        <ele>189.52000000000001</ele>
        <time>2023-08-17T12:27:57Z</time>
      </trkpt>
      <trkpt lat="55.857941005378962" lon="-3.186138002201915">
        <ele>189.52000000000001</ele>
        <time>2023-08-17T12:27:58Z</time>
      </trkpt>
      <trkpt lat="55.858059022575617" lon="-3.186096008867025">
        <ele>189.03999999999999</ele>
        <time>2023-08-17T12:27:59Z</time>
      </trkpt>
      <trkpt lat="55.858157007023692" lon="-3.186132973060012">
        <ele>188.56</ele>
        <time>2023-08-17T12:28:00Z</time>
      </trkpt>
      <trkpt lat="55.858258008956909" lon="-3.186179995536804">
        <ele>188.08000000000001</ele>
        <time>2023-08-17T12:28:01Z</time>
      </trkpt>
      <trkpt lat="55.858363034203649" lon="-3.186231963336468">
        <ele>187.59</ele>
        <time>2023-08-17T12:28:02Z</time>
      </trkpt>
      <trkpt lat="55.85858297534287" lon="-3.186388034373522">
        <ele>187.11000000000001</ele>
        <time>2023-08-17T12:28:04Z</time>
      </trkpt>
      <trkpt lat="55.858693029731512" lon="-3.18645098246634">
        <ele>187.11000000000001</ele>
        <time>2023-08-17T12:28:05Z</time>
      </trkpt>
      <trkpt lat="55.858812974765897" lon="-3.186477972194552">
        <ele>186.63</ele>
        <time>2023-08-17T12:28:06Z</time>
      </trkpt>
      <trkpt lat="55.858931997790933" lon="-3.186473026871681">
        <ele>186.63</ele>
        <time>2023-08-17T12:28:07Z</time>
      </trkpt>
      <trkpt lat="55.85905697196722" lon="-3.186453999951482">
        <ele>186.15000000000001</ele>
        <time>2023-08-17T12:28:08Z</time>
      </trkpt>
      <trkpt lat="55.859184041619301" lon="-3.186418041586876">
        <ele>186.15000000000001</ele>
        <time>2023-08-17T12:28:09Z</time>
      </trkpt>
      <trkpt lat="55.85931203328073" lon="-3.186359032988548">
        <ele>185.66999999999999</ele>
        <time>2023-08-17T12:28:10Z</time>
      </trkpt>
      <trkpt lat="55.859444970265031" lon="-3.186276974156499">
        <ele>185.66999999999999</ele>
        <time>2023-08-17T12:28:11Z</time>
      </trkpt>
      <trkpt lat="55.86105496622622" lon="-3.185017006471753">
        <ele>183.75</ele>
        <time>2023-08-17T12:28:22Z</time>
      </trkpt>
      <trkpt lat="55.861973036080599" lon="-3.184289038181305">
        <ele>180.87</ele>
        <time>2023-08-17T12:28:30Z</time>
      </trkpt>
      <trkpt lat="55.862241005524993" lon="-3.184056021273136">
        <ele>179.41999999999999</ele>
        <time>2023-08-17T12:28:33Z</time>
      </trkpt>
      <trkpt lat="55.862336978316307" lon="-3.183973040431738">
        <ele>179.41999999999999</ele>
        <time>2023-08-17T12:28:34Z</time>
      </trkpt>
      <trkpt lat="55.862501012161374" lon="-3.183949990198016">
        <ele>178.94</ele>
        <time>2023-08-17T12:28:35Z</time>
      </trkpt>
      <trkpt lat="55.862598996609449" lon="-3.184034982696176">
        <ele>178.94</ele>
        <time>2023-08-17T12:28:36Z</time>
      </trkpt>
      <trkpt lat="55.862703016027808" lon="-3.184126010164619">
        <ele>178.46000000000001</ele>
        <time>2023-08-17T12:28:37Z</time>
      </trkpt>
      <trkpt lat="55.862805023789406" lon="-3.184208991006017">
        <ele>178.46000000000001</ele>
        <time>2023-08-17T12:28:38Z</time>
      </trkpt>
      <trkpt lat="55.863914033398032" lon="-3.185084983706474">
        <ele>177.97999999999999</ele>
        <time>2023-08-17T12:28:48Z</time>
      </trkpt>
      <trkpt lat="55.865080039948225" lon="-3.186182007193565">
        <ele>177.5</ele>
        <time>2023-08-17T12:28:58Z</time>
      </trkpt>
      <trkpt lat="55.866526002064347" lon="-3.187563009560108">
        <ele>177.02000000000001</ele>
        <time>2023-08-17T12:29:09Z</time>
      </trkpt>
      <trkpt lat="55.868344036862254" lon="-3.189312983304262">
        <ele>179.41999999999999</ele>
        <time>2023-08-17T12:29:23Z</time>
      </trkpt>
      <trkpt lat="55.868669003248215" lon="-3.189625963568687">
        <ele>179.41999999999999</ele>
        <time>2023-08-17T12:29:28Z</time>
      </trkpt>
      <trkpt lat="55.868806969374418" lon="-3.18975898437202">
        <ele>181.83000000000001</ele>
        <time>2023-08-17T12:29:36Z</time>
      </trkpt>
      <trkpt lat="55.869361013174057" lon="-3.190298024564982">
        <ele>182.78999999999999</ele>
        <time>2023-08-17T12:29:44Z</time>
      </trkpt>
      <trkpt lat="55.870277993381023" lon="-3.191164964810014">
        <ele>181.34999999999999</ele>
        <time>2023-08-17T12:29:52Z</time>
      </trkpt>
      <trkpt lat="55.87156000547111" lon="-3.192365001887083">
        <ele>181.34999999999999</ele>
        <time>2023-08-17T12:30:02Z</time>
      </trkpt>
      <trkpt lat="55.872413031756878" lon="-3.193076960742474">
        <ele>181.83000000000001</ele>
        <time>2023-08-17T12:30:08Z</time>
      </trkpt>
      <trkpt lat="55.872550997883081" lon="-3.19315399043262">
        <ele>181.83000000000001</ele>
        <time>2023-08-17T12:30:09Z</time>
      </trkpt>
      <trkpt lat="55.872702961787581" lon="-3.193147033452988">
        <ele>181.83000000000001</ele>
        <time>2023-08-17T12:30:10Z</time>
      </trkpt>
      <trkpt lat="55.872861966490746" lon="-3.193133035674691">
        <ele>181.83000000000001</ele>
        <time>2023-08-17T12:30:11Z</time>
      </trkpt>
      <trkpt lat="55.873030023649335" lon="-3.193119037896395">
        <ele>181.83000000000001</ele>
        <time>2023-08-17T12:30:12Z</time>
      </trkpt>
      <trkpt lat="55.875172019004822" lon="-3.192903036251664">
        <ele>181.34999999999999</ele>
        <time>2023-08-17T12:30:24Z</time>
      </trkpt>
      <trkpt lat="55.877802008762956" lon="-3.192620985209942">
        <ele>181.34999999999999</ele>
        <time>2023-08-17T12:30:38Z</time>
      </trkpt>
      <trkpt lat="55.879319971427321" lon="-3.192655015736818">
        <ele>178.46000000000001</ele>
        <time>2023-08-17T12:30:46Z</time>
      </trkpt>
      <trkpt lat="55.880967015400529" lon="-3.193186009302735">
        <ele>176.06</ele>
        <time>2023-08-17T12:30:57Z</time>
      </trkpt>
      <trkpt lat="55.882050041109324" lon="-3.194057978689671">
        <ele>175.58000000000001</ele>
        <time>2023-08-17T12:31:05Z</time>
      </trkpt>
      <trkpt lat="55.882280962541699" lon="-3.194426028057933">
        <ele>175.58000000000001</ele>
        <time>2023-08-17T12:31:07Z</time>
      </trkpt>
      <trkpt lat="55.882389005273581" lon="-3.194623002782464">
        <ele>175.09999999999999</ele>
        <time>2023-08-17T12:31:08Z</time>
      </trkpt>
      <trkpt lat="55.882477015256882" lon="-3.194855013862252">
        <ele>174.62</ele>
        <time>2023-08-17T12:31:09Z</time>
      </trkpt>
      <trkpt lat="55.882558990269899" lon="-3.195090964436531">
        <ele>174.62</ele>
        <time>2023-08-17T12:31:10Z</time>
      </trkpt>
      <trkpt lat="55.882643982768059" lon="-3.195332027971745">
        <ele>174.13999999999999</ele>
        <time>2023-08-17T12:31:11Z</time>
      </trkpt>
      <trkpt lat="55.882902983576059" lon="-3.196045998483896">
        <ele>173.16999999999999</ele>
        <time>2023-08-17T12:31:14Z</time>
      </trkpt>
      <trkpt lat="55.883024018257856" lon="-3.196235010400415">
        <ele>172.69</ele>
        <time>2023-08-17T12:31:15Z</time>
      </trkpt>
      <trkpt lat="55.883146980777383" lon="-3.196426033973694">
        <ele>172.21000000000001</ele>
        <time>2023-08-17T12:31:16Z</time>
      </trkpt>
      <trkpt lat="55.883271032944322" lon="-3.196616973727942">
        <ele>171.72999999999999</ele>
        <time>2023-08-17T12:31:17Z</time>
      </trkpt>
      <trkpt lat="55.883414028212428" lon="-3.196754017844796">
        <ele>171.25</ele>
        <time>2023-08-17T12:31:18Z</time>
      </trkpt>
      <trkpt lat="55.883842008188367" lon="-3.197113014757633">
        <ele>169.33000000000001</ele>
        <time>2023-08-17T12:31:21Z</time>
      </trkpt>
      <trkpt lat="55.883993972092867" lon="-3.197198007255793">
        <ele>168.84999999999999</ele>
        <time>2023-08-17T12:31:22Z</time>
      </trkpt>
      <trkpt lat="55.884141996502876" lon="-3.19723597727716">
        <ele>168.37</ele>
        <time>2023-08-17T12:31:23Z</time>
      </trkpt>
      <trkpt lat="55.884297983720899" lon="-3.19723597727716">
        <ele>167.88999999999999</ele>
        <time>2023-08-17T12:31:24Z</time>
      </trkpt>
      <trkpt lat="55.88445195928216" lon="-3.19723597727716">
        <ele>167.41</ele>
        <time>2023-08-17T12:31:25Z</time>
      </trkpt>
      <trkpt lat="55.884598977863789" lon="-3.197155008092523">
        <ele>167.41</ele>
        <time>2023-08-17T12:31:26Z</time>
      </trkpt>
      <trkpt lat="55.884749013930559" lon="-3.197060963138938">
        <ele>167.41</ele>
        <time>2023-08-17T12:31:27Z</time>
      </trkpt>
      <trkpt lat="55.884883962571621" lon="-3.196949986740947">
        <ele>167.41</ele>
        <time>2023-08-17T12:31:28Z</time>
      </trkpt>
      <trkpt lat="55.885023018345237" lon="-3.196811014786363">
        <ele>166.93000000000001</ele>
        <time>2023-08-17T12:31:29Z</time>
      </trkpt>
      <trkpt lat="55.885423002764583" lon="-3.196458974853158">
        <ele>166.93000000000001</ele>
        <time>2023-08-17T12:31:32Z</time>
      </trkpt>
      <trkpt lat="55.88554797694087" lon="-3.19639602676034">
        <ele>166.93000000000001</ele>
        <time>2023-08-17T12:31:33Z</time>
      </trkpt>
      <trkpt lat="55.885664988309145" lon="-3.196338023990393">
        <ele>167.41</ele>
        <time>2023-08-17T12:31:34Z</time>
      </trkpt>
      <trkpt lat="55.8857830055058" lon="-3.196360990405083">
        <ele>167.41</ele>
        <time>2023-08-17T12:31:35Z</time>
      </trkpt>
      <trkpt lat="55.88591200299561" lon="-3.196392003446817">
        <ele>167.88999999999999</ele>
        <time>2023-08-17T12:31:36Z</time>
      </trkpt>
      <trkpt lat="55.886035971343517" lon="-3.196421004831791">
        <ele>168.37</ele>
        <time>2023-08-17T12:31:37Z</time>
      </trkpt>
      <trkpt lat="55.886163963004947" lon="-3.196521000936627">
        <ele>168.37</ele>
        <time>2023-08-17T12:31:38Z</time>
      </trkpt>
      <trkpt lat="55.886292960494757" lon="-3.196620997041464">
        <ele>168.84999999999999</ele>
        <time>2023-08-17T12:31:39Z</time>
      </trkpt>
      <trkpt lat="55.886428998783231" lon="-3.196729961782694">
        <ele>168.84999999999999</ele>
        <time>2023-08-17T12:31:40Z</time>
      </trkpt>
      <trkpt lat="55.88726500980556" lon="-3.197742998600006">
        <ele>170.77000000000001</ele>
        <time>2023-08-17T12:31:48Z</time>
      </trkpt>
      <trkpt lat="55.887648984789848" lon="-3.198284972459078">
        <ele>171.25</ele>
        <time>2023-08-17T12:31:55Z</time>
      </trkpt>
      <trkpt lat="55.887648984789848" lon="-3.198284972459078">
        <ele>171.72999999999999</ele>
        <time>2023-08-17T12:32:06Z</time>
      </trkpt>
      <trkpt lat="55.887648984789848" lon="-3.198284972459078">
        <ele>172.21000000000001</ele>
        <time>2023-08-17T12:32:27Z</time>
      </trkpt>
      <trkpt lat="55.8877809997648" lon="-3.198551014065743">
        <ele>174.62</ele>
        <time>2023-08-17T12:32:58Z</time>
      </trkpt>
      <trkpt lat="55.887829028069973" lon="-3.198615973815322">
        <ele>174.13999999999999</ele>
        <time>2023-08-17T12:32:59Z</time>
      </trkpt>
      <trkpt lat="55.887874038890004" lon="-3.198679005727172">
        <ele>174.13999999999999</ele>
        <time>2023-08-17T12:33:00Z</time>
      </trkpt>
      <trkpt lat="55.887923995032907" lon="-3.198747988790274">
        <ele>174.13999999999999</ele>
        <time>2023-08-17T12:33:01Z</time>
      </trkpt>
      <trkpt lat="55.888319034129381" lon="-3.199235983192921">
        <ele>173.16999999999999</ele>
        <time>2023-08-17T12:33:07Z</time>
      </trkpt>
      <trkpt lat="55.889114979654551" lon="-3.199938973411918">
        <ele>168.84999999999999</ele>
        <time>2023-08-17T12:33:17Z</time>
      </trkpt>
      <trkpt lat="55.889210030436516" lon="-3.200009968131781">
        <ele>168.37</ele>
        <time>2023-08-17T12:33:18Z</time>
      </trkpt>
      <trkpt lat="55.889511024579406" lon="-3.200233010575175">
        <ele>166.44999999999999</ele>
        <time>2023-08-17T12:33:21Z</time>
      </trkpt>
      <trkpt lat="55.890198005363345" lon="-3.200712036341429">
        <ele>164.03999999999999</ele>
        <time>2023-08-17T12:33:28Z</time>
      </trkpt>
      <trkpt lat="55.890299007296562" lon="-3.200761992484331">
        <ele>164.52000000000001</ele>
        <time>2023-08-17T12:33:29Z</time>
      </trkpt>
      <trkpt lat="55.890589021146297" lon="-3.200838016346097">
        <ele>165.47999999999999</ele>
        <time>2023-08-17T12:33:32Z</time>
      </trkpt>
      <trkpt lat="55.891216993331909" lon="-3.200906999409199">
        <ele>167.41</ele>
        <time>2023-08-17T12:33:40Z</time>
      </trkpt>
      <trkpt lat="55.892076976597309" lon="-3.201159965246916">
        <ele>167.41</ele>
        <time>2023-08-17T12:33:49Z</time>
      </trkpt>
      <trkpt lat="55.893008960410953" lon="-3.201540000736713">
        <ele>166.93000000000001</ele>
        <time>2023-08-17T12:33:57Z</time>
      </trkpt>
      <trkpt lat="55.894188964739442" lon="-3.201948031783104">
        <ele>164.52000000000001</ele>
        <time>2023-08-17T12:34:07Z</time>
      </trkpt>
      <trkpt lat="55.894519966095686" lon="-3.201981978490949">
        <ele>163.56</ele>
        <time>2023-08-17T12:34:10Z</time>
      </trkpt>
      <trkpt lat="55.894697997719049" lon="-3.202010979875922">
        <ele>163.08000000000001</ele>
        <time>2023-08-17T12:34:12Z</time>
      </trkpt>
      <trkpt lat="55.894737979397178" lon="-3.202019026502967">
        <ele>163.08000000000001</ele>
        <time>2023-08-17T12:34:13Z</time>
      </trkpt>
      <trkpt lat="55.894818026572466" lon="-3.202035035938025">
        <ele>163.08000000000001</ele>
        <time>2023-08-17T12:34:18Z</time>
      </trkpt>
      <trkpt lat="55.895241983234882" lon="-3.202380035072565">
        <ele>162.59999999999999</ele>
        <time>2023-08-17T12:34:23Z</time>
      </trkpt>
      <trkpt lat="55.895348014310002" lon="-3.202450023964047">
        <ele>162.59999999999999</ele>
        <time>2023-08-17T12:34:24Z</time>
      </trkpt>
      <trkpt lat="55.895438035950065" lon="-3.202597964555025">
        <ele>162.12</ele>
        <time>2023-08-17T12:34:25Z</time>
      </trkpt>
      <trkpt lat="55.895529985427856" lon="-3.202749006450176">
        <ele>162.12</ele>
        <time>2023-08-17T12:34:26Z</time>
      </trkpt>
      <trkpt lat="55.895625958219171" lon="-3.20290700532496">
        <ele>162.12</ele>
        <time>2023-08-17T12:34:27Z</time>
      </trkpt>
      <trkpt lat="55.895710028707981" lon="-3.203112026676536">
        <ele>161.63999999999999</ele>
        <time>2023-08-17T12:34:28Z</time>
      </trkpt>
      <trkpt lat="55.895790997892618" lon="-3.20333800278604">
        <ele>161.16</ele>
        <time>2023-08-17T12:34:29Z</time>
      </trkpt>
      <trkpt lat="55.896445959806442" lon="-3.205370027571917">
        <ele>156.34999999999999</ele>
        <time>2023-08-17T12:34:36Z</time>
      </trkpt>
      <trkpt lat="55.897318013012409" lon="-3.20857903920114">
        <ele>156.83000000000001</ele>
        <time>2023-08-17T12:34:45Z</time>
      </trkpt>
      <trkpt lat="55.897785974666476" lon="-3.211829960346222">
        <ele>159.24000000000001</ele>
        <time>2023-08-17T12:34:54Z</time>
      </trkpt>
      <trkpt lat="55.898198029026389" lon="-3.215074008330703">
        <ele>162.59999999999999</ele>
        <time>2023-08-17T12:35:04Z</time>
      </trkpt>
      <trkpt lat="55.898361979052424" lon="-3.216369012370706">
        <ele>163.56</ele>
        <time>2023-08-17T12:35:08Z</time>
      </trkpt>
      <trkpt lat="55.898398021236062" lon="-3.216696996241808">
        <ele>164.03999999999999</ele>
        <time>2023-08-17T12:35:09Z</time>
      </trkpt>
      <trkpt lat="55.898775961250067" lon="-3.220457034185529">
        <ele>179.90000000000001</ele>
        <time>2023-08-17T12:35:19Z</time>
      </trkpt>
      <trkpt lat="55.899193966761231" lon="-3.22585397399962">
        <ele>190</ele>
        <time>2023-08-17T12:35:31Z</time>
      </trkpt>
      <trkpt lat="55.899439975619316" lon="-3.230987973511219">
        <ele>192.88</ele>
        <time>2023-08-17T12:35:42Z</time>
      </trkpt>
      <trkpt lat="55.899467971175909" lon="-3.234721021726728">
        <ele>193.84</ele>
        <time>2023-08-17T12:35:50Z</time>
      </trkpt>
      <trkpt lat="55.899263033643365" lon="-3.238074034452438">
        <ele>193.36000000000001</ele>
        <time>2023-08-17T12:35:58Z</time>
      </trkpt>
      <trkpt lat="55.898830024525523" lon="-3.243314987048507">
        <ele>196.72999999999999</ele>
        <time>2023-08-17T12:36:09Z</time>
      </trkpt>
      <trkpt lat="55.898306993767619" lon="-3.250391995534301">
        <ele>190.47999999999999</ele>
        <time>2023-08-17T12:36:24Z</time>
      </trkpt>
      <trkpt lat="55.898291990160942" lon="-3.255579974502325">
        <ele>185.19</ele>
        <time>2023-08-17T12:36:35Z</time>
      </trkpt>
      <trkpt lat="55.898553002625704" lon="-3.260223967954516">
        <ele>177.02000000000001</ele>
        <time>2023-08-17T12:36:45Z</time>
      </trkpt>
      <trkpt lat="55.899197990074754" lon="-3.26469898223877">
        <ele>172.69</ele>
        <time>2023-08-17T12:36:55Z</time>
      </trkpt>
      <trkpt lat="55.900137014687061" lon="-3.268040008842945">
        <ele>165.47999999999999</ele>
        <time>2023-08-17T12:37:03Z</time>
      </trkpt>
      <trkpt lat="55.901590017601848" lon="-3.27118800021708">
        <ele>156.83000000000001</ele>
        <time>2023-08-17T12:37:12Z</time>
      </trkpt>
      <trkpt lat="55.903090965002775" lon="-3.273226981982589">
        <ele>147.69999999999999</ele>
        <time>2023-08-17T12:37:20Z</time>
      </trkpt>
      <trkpt lat="55.904559977352619" lon="-3.27469197101891">
        <ele>138.09</ele>
        <time>2023-08-17T12:37:28Z</time>
      </trkpt>
      <trkpt lat="55.906463004648685" lon="-3.276339014992118">
        <ele>132.31999999999999</ele>
        <time>2023-08-17T12:37:39Z</time>
      </trkpt>
      <trkpt lat="55.908467033877969" lon="-3.27829702757299">
        <ele>127.98999999999999</ele>
        <time>2023-08-17T12:37:50Z</time>
      </trkpt>
      <trkpt lat="55.910084992647171" lon="-3.280657036229968">
        <ele>123.19</ele>
        <time>2023-08-17T12:37:59Z</time>
      </trkpt>
      <trkpt lat="55.911520980298519" lon="-3.283796980977058">
        <ele>116.45999999999999</ele>
        <time>2023-08-17T12:38:08Z</time>
      </trkpt>
      <trkpt lat="55.912386998534203" lon="-3.286703992635012">
        <ele>108.77</ele>
        <time>2023-08-17T12:38:16Z</time>
      </trkpt>
      <trkpt lat="55.913183027878404" lon="-3.290318017825484">
        <ele>97.230000000000004</ele>
        <time>2023-08-17T12:38:25Z</time>
      </trkpt>
      <trkpt lat="55.914081986993551" lon="-3.294152989983559">
        <ele>89.540000000000006</ele>
        <time>2023-08-17T12:38:35Z</time>
      </trkpt>
      <trkpt lat="55.915102986618876" lon="-3.297116998583078">
        <ele>87.620000000000005</ele>
        <time>2023-08-17T12:38:43Z</time>
      </trkpt>
      <trkpt lat="55.91626999899745" lon="-3.299404000863433">
        <ele>87.620000000000005</ele>
        <time>2023-08-17T12:38:50Z</time>
      </trkpt>
      <trkpt lat="55.917896004393697" lon="-3.301909016445279">
        <ele>84.730000000000004</ele>
        <time>2023-08-17T12:39:01Z</time>
      </trkpt>
      <trkpt lat="55.919628040865064" lon="-3.304458959028125">
        <ele>83.290000000000006</ele>
        <time>2023-08-17T12:39:12Z</time>
      </trkpt>
      <trkpt lat="55.921318000182509" lon="-3.30696003511548">
        <ele>79.930000000000007</ele>
        <time>2023-08-17T12:39:23Z</time>
      </trkpt>
      <trkpt lat="55.923111978918314" lon="-3.309566974639893">
        <ele>73.680000000000007</ele>
        <time>2023-08-17T12:39:35Z</time>
      </trkpt>
      <trkpt lat="55.925208041444421" lon="-3.312534000724554">
        <ele>70.310000000000002</ele>
        <time>2023-08-17T12:39:49Z</time>
      </trkpt>
      <trkpt lat="55.927784973755479" lon="-3.316107038408518">
        <ele>70.310000000000002</ele>
        <time>2023-08-17T12:40:06Z</time>
      </trkpt>
      <trkpt lat="55.929431011900306" lon="-3.317959019914269">
        <ele>72.719999999999999</ele>
        <time>2023-08-17T12:40:16Z</time>
      </trkpt>
      <trkpt lat="55.931206969544291" lon="-3.319389978423715">
        <ele>74.159999999999997</ele>
        <time>2023-08-17T12:40:26Z</time>
      </trkpt>
      <trkpt lat="55.932897012680769" lon="-3.320219032466412">
        <ele>75.120000000000005</ele>
        <time>2023-08-17T12:40:35Z</time>
      </trkpt>
      <trkpt lat="55.934863993898034" lon="-3.321109022945166">
        <ele>69.829999999999998</ele>
        <time>2023-08-17T12:40:46Z</time>
      </trkpt>
      <trkpt lat="55.936890989542007" lon="-3.322032038122416">
        <ele>64.069999999999993</ele>
        <time>2023-08-17T12:40:57Z</time>
      </trkpt>
      <trkpt lat="55.938021959736943" lon="-3.322498993948102">
        <ele>63.579999999999998</ele>
        <time>2023-08-17T12:41:05Z</time>
      </trkpt>
      <trkpt lat="55.938381962478161" lon="-3.322683982551098">
        <ele>63.579999999999998</ele>
        <time>2023-08-17T12:41:09Z</time>
      </trkpt>
      <trkpt lat="55.938526969403028" lon="-3.322814991697669">
        <ele>63.100000000000001</ele>
        <time>2023-08-17T12:41:16Z</time>
      </trkpt>
      <trkpt lat="55.938779013231397" lon="-3.323044991120696">
        <ele>63.100000000000001</ele>
        <time>2023-08-17T12:41:26Z</time>
      </trkpt>
      <trkpt lat="55.939252004027367" lon="-3.323522005230188">
        <ele>60.700000000000003</ele>
        <time>2023-08-17T12:41:33Z</time>
      </trkpt>
      <trkpt lat="55.939288968220353" lon="-3.323534997180104">
        <ele>60.219999999999999</ele>
        <time>2023-08-17T12:41:34Z</time>
      </trkpt>
      <trkpt lat="55.939310006797314" lon="-3.323541032150388">
        <ele>59.740000000000002</ele>
        <time>2023-08-17T12:41:35Z</time>
      </trkpt>
      <trkpt lat="55.939483009278774" lon="-3.323543965816498">
        <ele>58.780000000000001</ele>
        <time>2023-08-17T12:41:43Z</time>
      </trkpt>
      <trkpt lat="55.939550986513495" lon="-3.323536003008485">
        <ele>58.299999999999997</ele>
        <time>2023-08-17T12:41:44Z</time>
      </trkpt>
      <trkpt lat="55.939648970961571" lon="-3.323466014117003">
        <ele>58.299999999999997</ele>
        <time>2023-08-17T12:41:45Z</time>
      </trkpt>
      <trkpt lat="55.939723988994956" lon="-3.32339602522552">
        <ele>57.82</ele>
        <time>2023-08-17T12:41:46Z</time>
      </trkpt>
      <trkpt lat="55.939799007028341" lon="-3.323287982493639">
        <ele>57.82</ele>
        <time>2023-08-17T12:41:47Z</time>
      </trkpt>
      <trkpt lat="55.939872013404965" lon="-3.323168959468603">
        <ele>57.340000000000003</ele>
        <time>2023-08-17T12:41:48Z</time>
      </trkpt>
      <trkpt lat="55.939944013953209" lon="-3.3230119664222">
        <ele>57.340000000000003</ele>
        <time>2023-08-17T12:41:49Z</time>
      </trkpt>
      <trkpt lat="55.939977038651705" lon="-3.32283703610301">
        <ele>56.859999999999999</ele>
        <time>2023-08-17T12:41:50Z</time>
      </trkpt>
      <trkpt lat="55.940000005066395" lon="-3.322660010308027">
        <ele>56.859999999999999</ele>
        <time>2023-08-17T12:41:51Z</time>
      </trkpt>
      <trkpt lat="55.940022971481085" lon="-3.322484996169806">
        <ele>56.859999999999999</ele>
        <time>2023-08-17T12:41:52Z</time>
      </trkpt>
      <trkpt lat="55.940009979531169" lon="-3.3223229739815">
        <ele>56.859999999999999</ele>
        <time>2023-08-17T12:41:53Z</time>
      </trkpt>
      <trkpt lat="55.939994975924492" lon="-3.322135973721743">
        <ele>56.859999999999999</ele>
        <time>2023-08-17T12:41:54Z</time>
      </trkpt>
      <trkpt lat="55.939979972317815" lon="-3.32195702008903">
        <ele>56.859999999999999</ele>
        <time>2023-08-17T12:41:55Z</time>
      </trkpt>
      <trkpt lat="55.939966980367899" lon="-3.321786029264331">
        <ele>56.859999999999999</ele>
        <time>2023-08-17T12:41:56Z</time>
      </trkpt>
      <trkpt lat="55.939952982589602" lon="-3.321603974327445">
        <ele>56.859999999999999</ele>
        <time>2023-08-17T12:41:57Z</time>
      </trkpt>
      <trkpt lat="55.939936973154545" lon="-3.321412028744817">
        <ele>56.859999999999999</ele>
        <time>2023-08-17T12:41:58Z</time>
      </trkpt>
      <trkpt lat="55.939957005903125" lon="-3.321210024878383">
        <ele>56.859999999999999</ele>
        <time>2023-08-17T12:41:59Z</time>
      </trkpt>
      <trkpt lat="55.939978966489434" lon="-3.320982959121466">
        <ele>56.859999999999999</ele>
        <time>2023-08-17T12:42:00Z</time>
      </trkpt>
      <trkpt lat="55.940003022551537" lon="-3.320746002718806">
        <ele>56.859999999999999</ele>
        <time>2023-08-17T12:42:01Z</time>
      </trkpt>
      <trkpt lat="55.94018398784101" lon="-3.318927967920899">
        <ele>58.299999999999997</ele>
        <time>2023-08-17T12:42:10Z</time>
      </trkpt>
      <trkpt lat="55.940254982560873" lon="-3.317715022712946">
        <ele>58.780000000000001</ele>
        <time>2023-08-17T12:42:19Z</time>
      </trkpt>
      <trkpt lat="55.940281972289085" lon="-3.317327024415135">
        <ele>59.259999999999998</ele>
        <time>2023-08-17T12:42:26Z</time>
      </trkpt>
      <trkpt lat="55.940303010866046" lon="-3.31714496947825">
        <ele>61.18</ele>
        <time>2023-08-17T12:42:50Z</time>
      </trkpt>
      <trkpt lat="55.940445000305772" lon="-3.315930012613535">
        <ele>58.780000000000001</ele>
        <time>2023-08-17T12:43:00Z</time>
      </trkpt>
      <trkpt lat="55.940529992803931" lon="-3.315074974671006">
        <ele>57.340000000000003</ele>
        <time>2023-08-17T12:43:06Z</time>
      </trkpt>
      <trkpt lat="55.940551031380892" lon="-3.314950000494719">
        <ele>57.340000000000003</ele>
        <time>2023-08-17T12:43:07Z</time>
      </trkpt>
      <trkpt lat="55.940572991967201" lon="-3.314872970804572">
        <ele>56.859999999999999</ele>
        <time>2023-08-17T12:43:08Z</time>
      </trkpt>
      <trkpt lat="55.940587995573878" lon="-3.314819997176528">
        <ele>56.369999999999997</ele>
        <time>2023-08-17T12:43:09Z</time>
      </trkpt>
      <trkpt lat="55.940666031092405" lon="-3.31499601714313">
        <ele>56.369999999999997</ele>
        <time>2023-08-17T12:43:10Z</time>
      </trkpt>
      <trkpt lat="55.940694026648998" lon="-3.31499601714313">
        <ele>55.890000000000001</ele>
        <time>2023-08-17T12:43:11Z</time>
      </trkpt>
      <trkpt lat="55.940773990005255" lon="-3.31499601714313">
        <ele>56.859999999999999</ele>
        <time>2023-08-17T12:43:12Z</time>
      </trkpt>
      <trkpt lat="55.94078597612679" lon="-3.31501797772944">
        <ele>56.859999999999999</ele>
        <time>2023-08-17T12:43:13Z</time>
      </trkpt>
      <trkpt lat="55.940832998603582" lon="-3.315107999369502">
        <ele>56.859999999999999</ele>
        <time>2023-08-17T12:43:14Z</time>
      </trkpt>
      <trkpt lat="55.941038019955158" lon="-3.315608985722065">
        <ele>54.93</ele>
        <time>2023-08-17T12:43:22Z</time>
      </trkpt>
      <trkpt lat="55.941022010520101" lon="-3.315632035955787">
        <ele>54.93</ele>
        <time>2023-08-17T12:43:23Z</time>
      </trkpt>
      <trkpt lat="55.941013041883707" lon="-3.315646033734083">
        <ele>54.93</ele>
        <time>2023-08-17T12:43:24Z</time>
      </trkpt>
      <trkpt lat="55.940988985821605" lon="-3.315681992098689">
        <ele>54.450000000000003</ele>
        <time>2023-08-17T12:43:25Z</time>
      </trkpt>
      <trkpt lat="55.941031984984875" lon="-3.31548904068768">
        <ele>54.450000000000003</ele>
        <time>2023-08-17T12:43:26Z</time>
      </trkpt>
      <trkpt lat="55.941031984984875" lon="-3.31548904068768">
        <ele>53.969999999999999</ele>
        <time>2023-08-17T12:43:27Z</time>
      </trkpt>
      <trkpt lat="55.941031984984875" lon="-3.31548904068768">
        <ele>53.490000000000002</ele>
        <time>2023-08-17T12:43:28Z</time>
      </trkpt>
      <trkpt lat="55.941032990813255" lon="-3.315487029030919">
        <ele>53.490000000000002</ele>
        <time>2023-08-17T12:43:29Z</time>
      </trkpt>
      <trkpt lat="55.940955961123109" lon="-3.315343027934432">
        <ele>53.009999999999998</ele>
        <time>2023-08-17T12:43:30Z</time>
      </trkpt>
      <trkpt lat="55.940910028293729" lon="-3.315256023779512">
        <ele>52.530000000000001</ele>
        <time>2023-08-17T12:43:31Z</time>
      </trkpt>
      <trkpt lat="55.940773990005255" lon="-3.31499601714313">
        <ele>51.57</ele>
        <time>2023-08-17T12:43:34Z</time>
      </trkpt>
      <trkpt lat="55.940766027197242" lon="-3.314817985519767">
        <ele>51.57</ele>
        <time>2023-08-17T12:43:35Z</time>
      </trkpt>
      <trkpt lat="55.940759992226958" lon="-3.314675996080041">
        <ele>51.57</ele>
        <time>2023-08-17T12:43:36Z</time>
      </trkpt>
      <trkpt lat="55.940753035247326" lon="-3.314540041610599">
        <ele>51.090000000000003</ele>
        <time>2023-08-17T12:43:37Z</time>
      </trkpt>
      <trkpt lat="55.940789999440312" lon="-3.314418001100421">
        <ele>51.090000000000003</ele>
        <time>2023-08-17T12:43:38Z</time>
      </trkpt>
      <trkpt lat="55.940827969461679" lon="-3.31430995836854">
        <ele>50.609999999999999</ele>
        <time>2023-08-17T12:43:39Z</time>
      </trkpt>
      <trkpt lat="55.940863005816936" lon="-3.314209962263703">
        <ele>50.609999999999999</ele>
        <time>2023-08-17T12:43:40Z</time>
      </trkpt>
      <trkpt lat="55.940894018858671" lon="-3.314106026664376">
        <ele>50.130000000000003</ele>
        <time>2023-08-17T12:43:41Z</time>
      </trkpt>
      <trkpt lat="55.94093500636518" lon="-3.313931012526155">
        <ele>49.649999999999999</ele>
        <time>2023-08-17T12:43:43Z</time>
      </trkpt>
      <trkpt lat="55.940950009971857" lon="-3.313865968957543">
        <ele>49.649999999999999</ele>
        <time>2023-08-17T12:43:44Z</time>
      </trkpt>
      <trkpt lat="55.940961996093392" lon="-3.313818024471402">
        <ele>49.649999999999999</ele>
        <time>2023-08-17T12:43:45Z</time>
      </trkpt>
      <trkpt lat="55.940961996093392" lon="-3.313818024471402">
        <ele>49.159999999999997</ele>
        <time>2023-08-17T12:43:54Z</time>
      </trkpt>
      <trkpt lat="55.940984962508082" lon="-3.313718028366566">
        <ele>49.159999999999997</ele>
        <time>2023-08-17T12:44:29Z</time>
      </trkpt>
      <trkpt lat="55.941384024918079" lon="-3.313077986240387">
        <ele>50.130000000000003</ele>
        <time>2023-08-17T12:44:35Z</time>
      </trkpt>
      <trkpt lat="55.941487960517406" lon="-3.312985030934215">
        <ele>50.130000000000003</ele>
        <time>2023-08-17T12:44:36Z</time>
      </trkpt>
      <trkpt lat="55.941594997420907" lon="-3.312900038436055">
        <ele>50.609999999999999</ele>
        <time>2023-08-17T12:44:37Z</time>
      </trkpt>
      <trkpt lat="55.941704967990518" lon="-3.312841029837728">
        <ele>51.090000000000003</ele>
        <time>2023-08-17T12:44:38Z</time>
      </trkpt>
      <trkpt lat="55.941810999065638" lon="-3.312784032896161">
        <ele>51.57</ele>
        <time>2023-08-17T12:44:39Z</time>
      </trkpt>
      <trkpt lat="55.941919963806868" lon="-3.312746984884143">
        <ele>51.57</ele>
        <time>2023-08-17T12:44:40Z</time>
      </trkpt>
      <trkpt lat="55.942023983225226" lon="-3.312723012641072">
        <ele>52.049999999999997</ele>
        <time>2023-08-17T12:44:41Z</time>
      </trkpt>
      <trkpt lat="55.942126996815205" lon="-3.312699040398002">
        <ele>53.009999999999998</ele>
        <time>2023-08-17T12:44:42Z</time>
      </trkpt>
      <trkpt lat="55.942240990698338" lon="-3.312685964629054">
        <ele>53.490000000000002</ele>
        <time>2023-08-17T12:44:43Z</time>
      </trkpt>
      <trkpt lat="55.943275988101959" lon="-3.313053008168936">
        <ele>59.740000000000002</ele>
        <time>2023-08-17T12:44:52Z</time>
      </trkpt>
      <trkpt lat="55.945006012916565" lon="-3.313840990886092">
        <ele>67.430000000000007</ele>
        <time>2023-08-17T12:45:07Z</time>
      </trkpt>
      <trkpt lat="55.946562029421329" lon="-3.314341977238655">
        <ele>76.560000000000002</ele>
        <time>2023-08-17T12:45:20Z</time>
      </trkpt>
      <trkpt lat="55.94763801433146" lon="-3.314339965581894">
        <ele>78</ele>
        <time>2023-08-17T12:45:28Z</time>
      </trkpt>
      <trkpt lat="55.948724979534745" lon="-3.314036959782243">
        <ele>76.560000000000002</ele>
        <time>2023-08-17T12:45:37Z</time>
      </trkpt>
      <trkpt lat="55.949537018314004" lon="-3.313775025308132">
        <ele>73.200000000000003</ele>
        <time>2023-08-17T12:45:45Z</time>
      </trkpt>
      <trkpt lat="55.949607007205486" lon="-3.313798997551203">
        <ele>72.719999999999999</ele>
        <time>2023-08-17T12:45:46Z</time>
      </trkpt>
      <trkpt lat="55.949657969176769" lon="-3.313816012814641">
        <ele>71.760000000000005</ele>
        <time>2023-08-17T12:45:47Z</time>
      </trkpt>
      <trkpt lat="55.949768023565412" lon="-3.313774019479752">
        <ele>71.269999999999996</ele>
        <time>2023-08-17T12:45:48Z</time>
      </trkpt>
      <trkpt lat="55.949828960001469" lon="-3.31375096924603">
        <ele>70.790000000000006</ele>
        <time>2023-08-17T12:45:49Z</time>
      </trkpt>
      <trkpt lat="55.949884029105306" lon="-3.313613003119826">
        <ele>70.310000000000002</ele>
        <time>2023-08-17T12:45:50Z</time>
      </trkpt>
      <trkpt lat="55.949955023825169" lon="-3.313482999801636">
        <ele>69.829999999999998</ele>
        <time>2023-08-17T12:45:51Z</time>
      </trkpt>
      <trkpt lat="55.950028030201793" lon="-3.313383003696799">
        <ele>69.349999999999994</ele>
        <time>2023-08-17T12:45:52Z</time>
      </trkpt>
      <trkpt lat="55.950106987729669" lon="-3.313275966793299">
        <ele>68.870000000000005</ele>
        <time>2023-08-17T12:45:53Z</time>
      </trkpt>
      <trkpt lat="55.950188962742686" lon="-3.313164990395308">
        <ele>67.909999999999997</ele>
        <time>2023-08-17T12:45:54Z</time>
      </trkpt>
      <trkpt lat="55.950288036838174" lon="-3.313076980412006">
        <ele>67.430000000000007</ele>
        <time>2023-08-17T12:45:55Z</time>
      </trkpt>
      <trkpt lat="55.950392978265882" lon="-3.313000034540892">
        <ele>66.469999999999999</ele>
        <time>2023-08-17T12:45:56Z</time>
      </trkpt>
      <trkpt lat="55.950500015169382" lon="-3.312924010679126">
        <ele>65.989999999999995</ele>
        <time>2023-08-17T12:45:57Z</time>
      </trkpt>
      <trkpt lat="55.951051963493228" lon="-3.31254699267447">
        <ele>62.619999999999997</ele>
        <time>2023-08-17T12:46:02Z</time>
      </trkpt>
      <trkpt lat="55.951166963204741" lon="-3.312468035146594">
        <ele>62.140000000000001</ele>
        <time>2023-08-17T12:46:03Z</time>
      </trkpt>
      <trkpt lat="55.952484011650085" lon="-3.311531022191048">
        <ele>54.93</ele>
        <time>2023-08-17T12:46:15Z</time>
      </trkpt>
      <trkpt lat="55.953797036781907" lon="-3.310595015063882">
        <ele>49.649999999999999</ele>
        <time>2023-08-17T12:46:27Z</time>
      </trkpt>
      <trkpt lat="55.955116013064981" lon="-3.309653978794813">
        <ele>48.68</ele>
        <time>2023-08-17T12:46:39Z</time>
      </trkpt>
      <trkpt lat="55.957103027030826" lon="-3.308237018063664">
        <ele>50.130000000000003</ele>
        <time>2023-08-17T12:46:57Z</time>
      </trkpt>
      <trkpt lat="55.957405027002096" lon="-3.308021016418934">
        <ele>50.130000000000003</ele>
        <time>2023-08-17T12:47:03Z</time>
      </trkpt>
      <trkpt lat="55.957679031416774" lon="-3.307824963703752">
        <ele>49.649999999999999</ele>
        <time>2023-08-17T12:47:15Z</time>
      </trkpt>
      <trkpt lat="55.958312032744288" lon="-3.30732699483633">
        <ele>50.130000000000003</ele>
        <time>2023-08-17T12:47:23Z</time>
      </trkpt>
      <trkpt lat="55.95934703014791" lon="-3.306593997403979">
        <ele>51.090000000000003</ele>
        <time>2023-08-17T12:47:34Z</time>
      </trkpt>
      <trkpt lat="55.960167031735182" lon="-3.306083958595991">
        <ele>51.090000000000003</ele>
        <time>2023-08-17T12:47:44Z</time>
      </trkpt>
      <trkpt lat="55.960335005074739" lon="-3.305969964712858">
        <ele>51.090000000000003</ele>
        <time>2023-08-17T12:47:49Z</time>
      </trkpt>
      <trkpt lat="55.960387978702784" lon="-3.305959990248084">
        <ele>51.090000000000003</ele>
        <time>2023-08-17T12:47:50Z</time>
      </trkpt>
      <trkpt lat="55.960446987301111" lon="-3.305949009954929">
        <ele>51.57</ele>
        <time>2023-08-17T12:47:51Z</time>
      </trkpt>
      <trkpt lat="55.960519993677735" lon="-3.305991003289819">
        <ele>51.57</ele>
        <time>2023-08-17T12:47:52Z</time>
      </trkpt>
      <trkpt lat="55.960572967305779" lon="-3.306089993566275">
        <ele>51.57</ele>
        <time>2023-08-17T12:47:53Z</time>
      </trkpt>
      <trkpt lat="55.960628958418965" lon="-3.306195018813014">
        <ele>51.57</ele>
        <time>2023-08-17T12:47:54Z</time>
      </trkpt>
      <trkpt lat="55.960682015866041" lon="-3.306296020746231">
        <ele>52.049999999999997</ele>
        <time>2023-08-17T12:47:55Z</time>
      </trkpt>
      <trkpt lat="55.96072300337255" lon="-3.306425018236041">
        <ele>52.049999999999997</ele>
        <time>2023-08-17T12:47:56Z</time>
      </trkpt>
      <trkpt lat="55.960760973393917" lon="-3.306581005454063">
        <ele>52.049999999999997</ele>
        <time>2023-08-17T12:47:57Z</time>
      </trkpt>
      <trkpt lat="55.960790980607271" lon="-3.306764988228679">
        <ele>52.049999999999997</ele>
        <time>2023-08-17T12:47:58Z</time>
      </trkpt>
      <trkpt lat="55.960822999477386" lon="-3.306961040943861">
        <ele>51.57</ele>
        <time>2023-08-17T12:47:59Z</time>
      </trkpt>
      <trkpt lat="55.961043024435639" lon="-3.309158021584153">
        <ele>49.649999999999999</ele>
        <time>2023-08-17T12:48:08Z</time>
      </trkpt>
      <trkpt lat="55.961318034678698" lon="-3.311899993568659">
        <ele>45.32</ele>
        <time>2023-08-17T12:48:18Z</time>
      </trkpt>
      <trkpt lat="55.961378971114755" lon="-3.312140973284841">
        <ele>44.840000000000003</ele>
        <time>2023-08-17T12:48:19Z</time>
      </trkpt>
      <trkpt lat="55.961437979713082" lon="-3.312380025163293">
        <ele>44.359999999999999</ele>
        <time>2023-08-17T12:48:20Z</time>
      </trkpt>
      <trkpt lat="55.961516015231609" lon="-3.312572976574302">
        <ele>43.880000000000003</ele>
        <time>2023-08-17T12:48:21Z</time>
      </trkpt>
      <trkpt lat="55.961612993851304" lon="-3.312758971005678">
        <ele>43.399999999999999</ele>
        <time>2023-08-17T12:48:22Z</time>
      </trkpt>
      <trkpt lat="55.961709972470999" lon="-3.312943959608674">
        <ele>42.920000000000002</ele>
        <time>2023-08-17T12:48:23Z</time>
      </trkpt>
      <trkpt lat="55.961812986060977" lon="-3.313114028424025">
        <ele>42.439999999999998</ele>
        <time>2023-08-17T12:48:24Z</time>
      </trkpt>
      <trkpt lat="55.96287002786994" lon="-3.314701979979873">
        <ele>37.149999999999999</ele>
        <time>2023-08-17T12:48:34Z</time>
      </trkpt>
      <trkpt lat="55.964029999449849" lon="-3.316252967342734">
        <ele>32.340000000000003</ele>
        <time>2023-08-17T12:48:44Z</time>
      </trkpt>
      <trkpt lat="55.965114030987024" lon="-3.317707981914282">
        <ele>32.340000000000003</ele>
        <time>2023-08-17T12:48:53Z</time>
      </trkpt>
      <trkpt lat="55.966283977031708" lon="-3.319458039477468">
        <ele>37.630000000000003</ele>
        <time>2023-08-17T12:49:03Z</time>
      </trkpt>
      <trkpt lat="55.967875029891729" lon="-3.322164975106716">
        <ele>50.130000000000003</ele>
        <time>2023-08-17T12:49:16Z</time>
      </trkpt>
      <trkpt lat="55.968788992613554" lon="-3.323882007971406">
        <ele>56.859999999999999</ele>
        <time>2023-08-17T12:49:24Z</time>
      </trkpt>
      <trkpt lat="55.968903992325068" lon="-3.324098009616137">
        <ele>57.340000000000003</ele>
        <time>2023-08-17T12:49:25Z</time>
      </trkpt>
      <trkpt lat="55.970608033239841" lon="-3.327331999316812">
        <ele>62.619999999999997</ele>
        <time>2023-08-17T12:49:40Z</time>
      </trkpt>
      <trkpt lat="55.97127296961844" lon="-3.32861996255815">
        <ele>63.100000000000001</ele>
        <time>2023-08-17T12:49:46Z</time>
      </trkpt>
      <trkpt lat="55.971381012350321" lon="-3.328828001394868">
        <ele>62.619999999999997</ele>
        <time>2023-08-17T12:49:47Z</time>
      </trkpt>
      <trkpt lat="55.97148603759706" lon="-3.329034028574824">
        <ele>62.619999999999997</ele>
        <time>2023-08-17T12:49:48Z</time>
      </trkpt>
      <trkpt lat="55.972555987536907" lon="-3.331235032528639">
        <ele>60.219999999999999</ele>
        <time>2023-08-17T12:49:58Z</time>
      </trkpt>
      <trkpt lat="55.973703972995281" lon="-3.334065014496446">
        <ele>56.369999999999997</ele>
        <time>2023-08-17T12:50:10Z</time>
      </trkpt>
      <trkpt lat="55.974813988432288" lon="-3.336645970121026">
        <ele>51.090000000000003</ele>
        <time>2023-08-17T12:50:20Z</time>
      </trkpt>
      <trkpt lat="55.976796979084611" lon="-3.34075796417892">
        <ele>38.109999999999999</ele>
        <time>2023-08-17T12:50:36Z</time>
      </trkpt>
      <trkpt lat="55.978357018902898" lon="-3.344174008816481">
        <ele>34.259999999999998</ele>
        <time>2023-08-17T12:50:49Z</time>
      </trkpt>
      <trkpt lat="55.979182971641421" lon="-3.34716098383069">
        <ele>35.710000000000001</ele>
        <time>2023-08-17T12:50:59Z</time>
      </trkpt>
      <trkpt lat="55.979545991867781" lon="-3.350200010463595">
        <ele>39.549999999999997</ele>
        <time>2023-08-17T12:51:08Z</time>
      </trkpt>
      <trkpt lat="55.979615980759263" lon="-3.353940015658736">
        <ele>42.920000000000002</ele>
        <time>2023-08-17T12:51:19Z</time>
      </trkpt>
      <trkpt lat="55.979685969650745" lon="-3.359735012054443">
        <ele>51.090000000000003</ele>
        <time>2023-08-17T12:51:36Z</time>
      </trkpt>
      <trkpt lat="55.979741038754582" lon="-3.365511987358332">
        <ele>59.740000000000002</ele>
        <time>2023-08-17T12:51:53Z</time>
      </trkpt>
      <trkpt lat="55.979725029319525" lon="-3.368914034217596">
        <ele>65.510000000000005</ele>
        <time>2023-08-17T12:52:03Z</time>
      </trkpt>
      <trkpt lat="55.979505004361272" lon="-3.372653033584356">
        <ele>69.829999999999998</ele>
        <time>2023-08-17T12:52:14Z</time>
      </trkpt>
      <trkpt lat="55.97926301881671" lon="-3.376732002943754">
        <ele>70.790000000000006</ele>
        <time>2023-08-17T12:52:26Z</time>
      </trkpt>
      <trkpt lat="55.978896981105208" lon="-3.379561984911561">
        <ele>65.989999999999995</ele>
        <time>2023-08-17T12:52:35Z</time>
      </trkpt>
      <trkpt lat="55.978251993656158" lon="-3.381934985518456">
        <ele>60.700000000000003</ele>
        <time>2023-08-17T12:52:43Z</time>
      </trkpt>
      <trkpt lat="55.978175969794393" lon="-3.382218964397907">
        <ele>60.219999999999999</ele>
        <time>2023-08-17T12:52:44Z</time>
      </trkpt>
      <trkpt lat="55.978146968409419" lon="-3.382534040138125">
        <ele>59.259999999999998</ele>
        <time>2023-08-17T12:52:45Z</time>
      </trkpt>
      <trkpt lat="55.978131964802742" lon="-3.382694972679019">
        <ele>58.780000000000001</ele>
        <time>2023-08-17T12:52:46Z</time>
      </trkpt>
      <trkpt lat="55.97812601365149" lon="-3.383137034252286">
        <ele>58.299999999999997</ele>
        <time>2023-08-17T12:52:47Z</time>
      </trkpt>
      <trkpt lat="55.978116961196065" lon="-3.383754026144743">
        <ele>57.82</ele>
        <time>2023-08-17T12:52:49Z</time>
      </trkpt>
      <trkpt lat="55.978113021701574" lon="-3.384066000580788">
        <ele>57.82</ele>
        <time>2023-08-17T12:52:50Z</time>
      </trkpt>
      <trkpt lat="55.978122996166348" lon="-3.384381998330355">
        <ele>57.82</ele>
        <time>2023-08-17T12:52:51Z</time>
      </trkpt>
      <trkpt lat="55.978389037773013" lon="-3.387672984972596">
        <ele>58.780000000000001</ele>
        <time>2023-08-17T12:53:01Z</time>
      </trkpt>
      <trkpt lat="55.978560028597713" lon="-3.390530040487647">
        <ele>59.740000000000002</ele>
        <time>2023-08-17T12:53:10Z</time>
      </trkpt>
      <trkpt lat="55.978897986933589" lon="-3.393750032410026">
        <ele>62.140000000000001</ele>
        <time>2023-08-17T12:53:20Z</time>
      </trkpt>
      <trkpt lat="55.979356979951262" lon="-3.396029993891716">
        <ele>63.579999999999998</ele>
        <time>2023-08-17T12:53:27Z</time>
      </trkpt>
      <trkpt lat="55.979767022654414" lon="-3.398138964548707">
        <ele>63.579999999999998</ele>
        <time>2023-08-17T12:53:35Z</time>
      </trkpt>
      <trkpt lat="55.980270020663738" lon="-3.401476973667741">
        <ele>65.510000000000005</ele>
        <time>2023-08-17T12:53:47Z</time>
      </trkpt>
      <trkpt lat="55.980589035898447" lon="-3.40529803186655">
        <ele>64.549999999999997</ele>
        <time>2023-08-17T12:54:00Z</time>
      </trkpt>
      <trkpt lat="55.980661958456039" lon="-3.409056980162859">
        <ele>63.100000000000001</ele>
        <time>2023-08-17T12:54:11Z</time>
      </trkpt>
      <trkpt lat="55.980711998417974" lon="-3.41307601891458">
        <ele>67.430000000000007</ele>
        <time>2023-08-17T12:54:21Z</time>
      </trkpt>
      <trkpt lat="55.981037970632315" lon="-3.415392022579908">
        <ele>68.870000000000005</ele>
        <time>2023-08-17T12:54:28Z</time>
      </trkpt>
      <trkpt lat="55.981804998591542" lon="-3.41797498986125">
        <ele>67.909999999999997</ele>
        <time>2023-08-17T12:54:36Z</time>
      </trkpt>
      <trkpt lat="55.982675962150097" lon="-3.420051019638777">
        <ele>65.510000000000005</ele>
        <time>2023-08-17T12:54:44Z</time>
      </trkpt>
      <trkpt lat="55.98377700895071" lon="-3.422007020562887">
        <ele>65.030000000000001</ele>
        <time>2023-08-17T12:54:54Z</time>
      </trkpt>
      <trkpt lat="55.98426902666688" lon="-3.42250700108707">
        <ele>67.909999999999997</ele>
        <time>2023-08-17T12:55:00Z</time>
      </trkpt>
      <trkpt lat="55.984333986416459" lon="-3.42257003299892">
        <ele>69.349999999999994</ele>
        <time>2023-08-17T12:55:07Z</time>
      </trkpt>
      <trkpt lat="55.984493996948004" lon="-3.422727026045322">
        <ele>72.719999999999999</ele>
        <time>2023-08-17T12:55:33Z</time>
      </trkpt>
      <trkpt lat="55.984569014981389" lon="-3.422928024083376">
        <ele>73.200000000000003</ele>
        <time>2023-08-17T12:55:34Z</time>
      </trkpt>
      <trkpt lat="55.984591981396079" lon="-3.422964988276362">
        <ele>73.680000000000007</ele>
        <time>2023-08-17T12:55:35Z</time>
      </trkpt>
      <trkpt lat="55.984650989994407" lon="-3.423064984381199">
        <ele>74.159999999999997</ele>
        <time>2023-08-17T12:55:36Z</time>
      </trkpt>
      <trkpt lat="55.984698012471199" lon="-3.423142014071345">
        <ele>74.159999999999997</ele>
        <time>2023-08-17T12:55:37Z</time>
      </trkpt>
      <trkpt lat="55.984746962785721" lon="-3.423148971050978">
        <ele>74.159999999999997</ele>
        <time>2023-08-17T12:55:38Z</time>
      </trkpt>
      <trkpt lat="55.984816029667854" lon="-3.423157017678022">
        <ele>74.159999999999997</ele>
        <time>2023-08-17T12:55:39Z</time>
      </trkpt>
      <trkpt lat="55.984870009124279" lon="-3.423163974657655">
        <ele>74.640000000000001</ele>
        <time>2023-08-17T12:55:40Z</time>
      </trkpt>
      <trkpt lat="55.984935974702239" lon="-3.423114018514752">
        <ele>74.640000000000001</ele>
        <time>2023-08-17T12:55:41Z</time>
      </trkpt>
      <trkpt lat="55.984973022714257" lon="-3.423041012138128">
        <ele>74.640000000000001</ele>
        <time>2023-08-17T12:55:42Z</time>
      </trkpt>
      <trkpt lat="55.985018033534288" lon="-3.422884019091725">
        <ele>74.640000000000001</ele>
        <time>2023-08-17T12:55:43Z</time>
      </trkpt>
      <trkpt lat="55.985067989677191" lon="-3.422711016610265">
        <ele>74.640000000000001</ele>
        <time>2023-08-17T12:55:44Z</time>
      </trkpt>
      <trkpt lat="55.985119035467505" lon="-3.422537008300424">
        <ele>74.640000000000001</ele>
        <time>2023-08-17T12:55:45Z</time>
      </trkpt>
      <trkpt lat="55.985332019627094" lon="-3.421359015628696">
        <ele>71.760000000000005</ele>
        <time>2023-08-17T12:55:53Z</time>
      </trkpt>
      <trkpt lat="55.985335037112236" lon="-3.421199005097151">
        <ele>71.269999999999996</ele>
        <time>2023-08-17T12:55:54Z</time>
      </trkpt>
      <trkpt lat="55.98532497882843" lon="-3.421042012050748">
        <ele>70.790000000000006</ele>
        <time>2023-08-17T12:55:55Z</time>
      </trkpt>
      <trkpt lat="55.985295977443457" lon="-3.42066197656095">
        <ele>68.390000000000001</ele>
        <time>2023-08-17T12:56:01Z</time>
      </trkpt>
      <trkpt lat="55.985290026292205" lon="-3.420246988534927">
        <ele>66.469999999999999</ele>
        <time>2023-08-17T12:56:16Z</time>
      </trkpt>
      <trkpt lat="55.985298994928598" lon="-3.420136012136936">
        <ele>65.989999999999995</ele>
        <time>2023-08-17T12:56:17Z</time>
      </trkpt>
      <trkpt lat="55.985306035727262" lon="-3.420040039345622">
        <ele>65.510000000000005</ele>
        <time>2023-08-17T12:56:18Z</time>
      </trkpt>
      <trkpt lat="55.985395973548293" lon="-3.419916993007064">
        <ele>65.030000000000001</ele>
        <time>2023-08-17T12:56:19Z</time>
      </trkpt>
      <trkpt lat="55.985444001853466" lon="-3.419953035190702">
        <ele>64.549999999999997</ele>
        <time>2023-08-17T12:56:20Z</time>
      </trkpt>
      <trkpt lat="55.985510973259807" lon="-3.420003997161984">
        <ele>64.069999999999993</ele>
        <time>2023-08-17T12:56:21Z</time>
      </trkpt>
      <trkpt lat="55.985590014606714" lon="-3.420064011588693">
        <ele>63.579999999999998</ele>
        <time>2023-08-17T12:56:22Z</time>
      </trkpt>
      <trkpt lat="55.985676012933254" lon="-3.420128971338272">
        <ele>63.100000000000001</ele>
        <time>2023-08-17T12:56:23Z</time>
      </trkpt>
      <trkpt lat="55.98594599403441" lon="-3.420293005183339">
        <ele>62.140000000000001</ele>
        <time>2023-08-17T12:56:26Z</time>
      </trkpt>
      <trkpt lat="55.986038027331233" lon="-3.420286970213056">
        <ele>61.659999999999997</ele>
        <time>2023-08-17T12:56:27Z</time>
      </trkpt>
      <trkpt lat="55.98611899651587" lon="-3.420226033776999">
        <ele>61.18</ele>
        <time>2023-08-17T12:56:28Z</time>
      </trkpt>
      <trkpt lat="55.986201977357268" lon="-3.420137017965317">
        <ele>60.700000000000003</ele>
        <time>2023-08-17T12:56:29Z</time>
      </trkpt>
      <trkpt lat="55.986274983733892" lon="-3.420000979676843">
        <ele>60.219999999999999</ele>
        <time>2023-08-17T12:56:30Z</time>
      </trkpt>
      <trkpt lat="55.986355030909181" lon="-3.419851027429104">
        <ele>59.740000000000002</ele>
        <time>2023-08-17T12:56:31Z</time>
      </trkpt>
      <trkpt lat="55.987306963652372" lon="-3.418158972635865">
        <ele>54.450000000000003</ele>
        <time>2023-08-17T12:56:42Z</time>
      </trkpt>
      <trkpt lat="55.988115984946489" lon="-3.416138011962175">
        <ele>51.57</ele>
        <time>2023-08-17T12:56:53Z</time>
      </trkpt>
      <trkpt lat="55.988173987716436" lon="-3.41595402918756">
        <ele>51.57</ele>
        <time>2023-08-17T12:56:54Z</time>
      </trkpt>
      <trkpt lat="55.988602973520756" lon="-3.4139349963516">
        <ele>49.159999999999997</ele>
        <time>2023-08-17T12:57:05Z</time>
      </trkpt>
      <trkpt lat="55.988763989880681" lon="-3.413084987550974">
        <ele>47.719999999999999</ele>
        <time>2023-08-17T12:57:13Z</time>
      </trkpt>
      <trkpt lat="55.9887820109725" lon="-3.412992032244802">
        <ele>47.240000000000002</ele>
        <time>2023-08-17T12:57:14Z</time>
      </trkpt>
      <trkpt lat="55.988800032064319" lon="-3.412897987291217">
        <ele>47.240000000000002</ele>
        <time>2023-08-17T12:57:15Z</time>
      </trkpt>
      <trkpt lat="55.988816963508725" lon="-3.412802014499903">
        <ele>47.240000000000002</ele>
        <time>2023-08-17T12:57:16Z</time>
      </trkpt>
      <trkpt lat="55.988834984600544" lon="-3.412706041708589">
        <ele>46.759999999999998</ele>
        <time>2023-08-17T12:57:17Z</time>
      </trkpt>
      <trkpt lat="55.989089962095022" lon="-3.411448001861572">
        <ele>46.759999999999998</ele>
        <time>2023-08-17T12:57:28Z</time>
      </trkpt>
      <trkpt lat="55.989422975108027" lon="-3.410066999495029">
        <ele>43.399999999999999</ele>
        <time>2023-08-17T12:57:39Z</time>
      </trkpt>
      <trkpt lat="55.989652974531054" lon="-3.408401012420654">
        <ele>39.549999999999997</ele>
        <time>2023-08-17T12:57:50Z</time>
      </trkpt>
      <trkpt lat="55.989722041413188" lon="-3.407243974506855">
        <ele>36.189999999999998</ele>
        <time>2023-08-17T12:57:57Z</time>
      </trkpt>
      <trkpt lat="55.989868976175785" lon="-3.405848974362016">
        <ele>32.82</ele>
        <time>2023-08-17T12:58:06Z</time>
      </trkpt>
      <trkpt lat="55.99004901945591" lon="-3.404936017468572">
        <ele>30.899999999999999</ele>
        <time>2023-08-17T12:58:12Z</time>
      </trkpt>
      <trkpt lat="55.990057988092303" lon="-3.404790004715323">
        <ele>30.420000000000002</ele>
        <time>2023-08-17T12:58:13Z</time>
      </trkpt>
      <trkpt lat="55.990087995305657" lon="-3.404508959501982">
        <ele>28.98</ele>
        <time>2023-08-17T12:58:15Z</time>
      </trkpt>
      <trkpt lat="55.990108028054237" lon="-3.404354983940721">
        <ele>28.98</ele>
        <time>2023-08-17T12:58:16Z</time>
      </trkpt>
      <trkpt lat="55.990334004163742" lon="-3.402189016342163">
        <ele>26.57</ele>
        <time>2023-08-17T12:58:29Z</time>
      </trkpt>
      <trkpt lat="55.990580013021827" lon="-3.400494027882814">
        <ele>20.809999999999999</ele>
        <time>2023-08-17T12:58:40Z</time>
      </trkpt>
      <trkpt lat="55.99063198082149" lon="-3.400382967665792">
        <ele>19.84</ele>
        <time>2023-08-17T12:58:41Z</time>
      </trkpt>
      <trkpt lat="55.990891987457871" lon="-3.399833030998707">
        <ele>16</ele>
        <time>2023-08-17T12:58:47Z</time>
      </trkpt>
      <trkpt lat="55.990899028256536" lon="-3.399742003530264">
        <ele>15.52</ele>
        <time>2023-08-17T12:58:48Z</time>
      </trkpt>
      <trkpt lat="55.990899028256536" lon="-3.399644019082189">
        <ele>14.56</ele>
        <time>2023-08-17T12:58:49Z</time>
      </trkpt>
      <trkpt lat="55.990767013281584" lon="-3.398495027795434">
        <ele>7.35</ele>
        <time>2023-08-17T12:59:01Z</time>
      </trkpt>
      <trkpt lat="55.9907609783113" lon="-3.398458985611796">
        <ele>6.39</ele>
        <time>2023-08-17T12:59:10Z</time>
      </trkpt>
      <trkpt lat="55.990758966654539" lon="-3.398446999490261">
        <ele>6.39</ele>
        <time>2023-08-17T12:59:16Z</time>
      </trkpt>
      <trkpt lat="55.990747986361384" lon="-3.398381033912301">
        <ele>5.91</ele>
        <time>2023-08-17T12:59:17Z</time>
      </trkpt>
      <trkpt lat="55.990618988871574" lon="-3.397640995681286">
        <ele>4.94</ele>
        <time>2023-08-17T12:59:24Z</time>
      </trkpt>
      <trkpt lat="55.990599039942026" lon="-3.39752197265625">
        <ele>4.94</ele>
        <time>2023-08-17T12:59:25Z</time>
      </trkpt>
      <trkpt lat="55.990579007193446" lon="-3.397466987371445">
        <ele>4.94</ele>
        <time>2023-08-17T12:59:26Z</time>
      </trkpt>
      <trkpt lat="55.990554029121995" lon="-3.397393980994821">
        <ele>4.94</ele>
        <time>2023-08-17T12:59:27Z</time>
      </trkpt>
      <trkpt lat="55.990527039393783" lon="-3.397316029295325">
        <ele>4.94</ele>
        <time>2023-08-17T12:59:28Z</time>
      </trkpt>
      <trkpt lat="55.990499965846539" lon="-3.397240005433559">
        <ele>4.94</ele>
        <time>2023-08-17T12:59:29Z</time>
      </trkpt>
      <trkpt lat="55.990475993603468" lon="-3.397171022370458">
        <ele>4.94</ele>
        <time>2023-08-17T12:59:30Z</time>
      </trkpt>
      <trkpt lat="55.990449003875256" lon="-3.397092986851931">
        <ele>4.94</ele>
        <time>2023-08-17T12:59:31Z</time>
      </trkpt>
      <trkpt lat="55.990431988611817" lon="-3.397044036537409">
        <ele>5.42</ele>
        <time>2023-08-17T12:59:32Z</time>
      </trkpt>
      <trkpt lat="55.990411033853889" lon="-3.396979998797178">
        <ele>4.94</ele>
        <time>2023-08-17T12:59:33Z</time>
      </trkpt>
      <trkpt lat="55.990385971963406" lon="-3.396905986592174">
        <ele>4.94</ele>
        <time>2023-08-17T12:59:34Z</time>
      </trkpt>
      <trkpt lat="55.990359988063574" lon="-3.396828034892678">
        <ele>4.94</ele>
        <time>2023-08-17T12:59:35Z</time>
      </trkpt>
      <trkpt lat="55.990332998335361" lon="-3.396745976060629">
        <ele>4.94</ele>
        <time>2023-08-17T12:59:36Z</time>
      </trkpt>
      <trkpt lat="55.99030701443553" lon="-3.396667018532753">
        <ele>4.94</ele>
        <time>2023-08-17T12:59:37Z</time>
      </trkpt>
      <trkpt lat="55.990280024707317" lon="-3.396587977185845">
        <ele>4.94</ele>
        <time>2023-08-17T12:59:38Z</time>
      </trkpt>
      <trkpt lat="55.990252029150724" lon="-3.396503990516067">
        <ele>4.46</ele>
        <time>2023-08-17T12:59:39Z</time>
      </trkpt>
      <trkpt lat="55.990224033594131" lon="-3.396417992189527">
        <ele>4.46</ele>
        <time>2023-08-17T12:59:40Z</time>
      </trkpt>
      <trkpt lat="55.990195032209158" lon="-3.396335011348128">
        <ele>4.46</ele>
        <time>2023-08-17T12:59:41Z</time>
      </trkpt>
      <trkpt lat="55.990162007510662" lon="-3.396244989708066">
        <ele>4.46</ele>
        <time>2023-08-17T12:59:42Z</time>
      </trkpt>
      <trkpt lat="55.989997973665595" lon="-3.395788008347154">
        <ele>4.46</ele>
        <time>2023-08-17T12:59:47Z</time>
      </trkpt>
      <trkpt lat="55.989968972280622" lon="-3.395706033334136">
        <ele>4.46</ele>
        <time>2023-08-17T12:59:48Z</time>
      </trkpt>
      <trkpt lat="55.989940976724029" lon="-3.395627997815609">
        <ele>4.46</ele>
        <time>2023-08-17T12:59:49Z</time>
      </trkpt>
      <trkpt lat="55.989886997267604" lon="-3.395446026697755">
        <ele>4.46</ele>
        <time>2023-08-17T12:59:51Z</time>
      </trkpt>
      <trkpt lat="55.989865036681294" lon="-3.395360028371215">
        <ele>4.46</ele>
        <time>2023-08-17T12:59:52Z</time>
      </trkpt>
      <trkpt lat="55.989845003932714" lon="-3.395280987024307">
        <ele>4.94</ele>
        <time>2023-08-17T12:59:53Z</time>
      </trkpt>
      <trkpt lat="55.989823965355754" lon="-3.395193982869387">
        <ele>4.94</ele>
        <time>2023-08-17T12:59:54Z</time>
      </trkpt>
      <trkpt lat="55.989802004769444" lon="-3.395107984542847">
        <ele>4.94</ele>
        <time>2023-08-17T12:59:55Z</time>
      </trkpt>
      <trkpt lat="55.989781972020864" lon="-3.39502802118659">
        <ele>4.94</ele>
        <time>2023-08-17T12:59:56Z</time>
      </trkpt>
      <trkpt lat="55.989760011434555" lon="-3.394933976233006">
        <ele>5.42</ele>
        <time>2023-08-17T12:59:57Z</time>
      </trkpt>
      <trkpt lat="55.9897490311414" lon="-3.394846972078085">
        <ele>6.39</ele>
        <time>2023-08-17T12:59:58Z</time>
      </trkpt>
      <trkpt lat="55.989735033363104" lon="-3.394743958488107">
        <ele>6.87</ele>
        <time>2023-08-17T12:59:59Z</time>
      </trkpt>
      <trkpt lat="55.989722963422537" lon="-3.394647985696793">
        <ele>7.35</ele>
        <time>2023-08-17T13:00:00Z</time>
      </trkpt>
      <trkpt lat="55.989709971472621" lon="-3.394552012905479">
        <ele>8.310000000000001</ele>
        <time>2023-08-17T13:00:01Z</time>
      </trkpt>
      <trkpt lat="55.989694967865944" lon="-3.394441036507487">
        <ele>9.27</ele>
        <time>2023-08-17T13:00:02Z</time>
      </trkpt>
      <trkpt lat="55.989681975916028" lon="-3.394341962412">
        <ele>10.23</ele>
        <time>2023-08-17T13:00:03Z</time>
      </trkpt>
      <trkpt lat="55.989669989794493" lon="-3.394246995449066">
        <ele>10.710000000000001</ele>
        <time>2023-08-17T13:00:04Z</time>
      </trkpt>
      <trkpt lat="55.989654986187816" lon="-3.394131995737553">
        <ele>11.67</ele>
        <time>2023-08-17T13:00:06Z</time>
      </trkpt>
      <trkpt lat="55.989661021158099" lon="-3.39395597577095">
        <ele>11.67</ele>
        <time>2023-08-17T13:00:07Z</time>
      </trkpt>
      <trkpt lat="55.989664038643241" lon="-3.393863020464778">
        <ele>11.67</ele>
        <time>2023-08-17T13:00:08Z</time>
      </trkpt>
      <trkpt lat="55.989669989794493" lon="-3.393669985234737">
        <ele>12.15</ele>
        <time>2023-08-17T13:00:10Z</time>
      </trkpt>
      <trkpt lat="55.989677030593157" lon="-3.393486002460122">
        <ele>11.67</ele>
        <time>2023-08-17T13:00:12Z</time>
      </trkpt>
      <trkpt lat="55.989694967865944" lon="-3.393389023840427">
        <ele>12.15</ele>
        <time>2023-08-17T13:00:13Z</time>
      </trkpt>
      <trkpt lat="55.989711983129382" lon="-3.393299002200365">
        <ele>12.630000000000001</ele>
        <time>2023-08-17T13:00:14Z</time>
      </trkpt>
      <trkpt lat="55.989793036133051" lon="-3.392839003354311">
        <ele>13.6</ele>
        <time>2023-08-17T13:00:19Z</time>
      </trkpt>
      <trkpt lat="55.989804016426206" lon="-3.392760967835784">
        <ele>13.6</ele>
        <time>2023-08-17T13:00:20Z</time>
      </trkpt>
      <trkpt lat="55.989817008376122" lon="-3.392678992822766">
        <ele>13.6</ele>
        <time>2023-08-17T13:00:21Z</time>
      </trkpt>
      <trkpt lat="55.989830000326037" lon="-3.392592994496226">
        <ele>14.08</ele>
        <time>2023-08-17T13:00:22Z</time>
      </trkpt>
      <trkpt lat="55.989843998104334" lon="-3.392501967027783">
        <ele>14.08</ele>
        <time>2023-08-17T13:00:23Z</time>
      </trkpt>
      <trkpt lat="55.989832011982799" lon="-3.392396019771695">
        <ele>14.56</ele>
        <time>2023-08-17T13:00:24Z</time>
      </trkpt>
      <trkpt lat="55.989816002547741" lon="-3.392307003960013">
        <ele>14.56</ele>
        <time>2023-08-17T13:00:25Z</time>
      </trkpt>
      <trkpt lat="55.989797981455922" lon="-3.39221203699708">
        <ele>15.039999999999999</ele>
        <time>2023-08-17T13:00:26Z</time>
      </trkpt>
      <trkpt lat="55.989779960364103" lon="-3.392112962901592">
        <ele>15.039999999999999</ele>
        <time>2023-08-17T13:00:27Z</time>
      </trkpt>
      <trkpt lat="55.989736961200833" lon="-3.391880029812455">
        <ele>15.52</ele>
        <time>2023-08-17T13:00:29Z</time>
      </trkpt>
      <trkpt lat="55.989713994786143" lon="-3.391757989302278">
        <ele>15.52</ele>
        <time>2023-08-17T13:00:30Z</time>
      </trkpt>
      <trkpt lat="55.9896419942379" lon="-3.391368985176086">
        <ele>15.52</ele>
        <time>2023-08-17T13:00:33Z</time>
      </trkpt>
      <trkpt lat="55.989629002287984" lon="-3.38991497643292">
        <ele>15.039999999999999</ele>
        <time>2023-08-17T13:00:43Z</time>
      </trkpt>
      <trkpt lat="55.9896419942379" lon="-3.389641977846623">
        <ele>14.56</ele>
        <time>2023-08-17T13:00:45Z</time>
      </trkpt>
      <trkpt lat="55.989653980359435" lon="-3.38950602337718">
        <ele>14.56</ele>
        <time>2023-08-17T13:00:46Z</time>
      </trkpt>
      <trkpt lat="55.989666972309351" lon="-3.389369985088706">
        <ele>14.08</ele>
        <time>2023-08-17T13:00:47Z</time>
      </trkpt>
      <trkpt lat="55.989679964259267" lon="-3.389231013134122">
        <ele>14.08</ele>
        <time>2023-08-17T13:00:48Z</time>
      </trkpt>
      <trkpt lat="55.989693040028214" lon="-3.389093969017267">
        <ele>14.08</ele>
        <time>2023-08-17T13:00:49Z</time>
      </trkpt>
      <trkpt lat="55.989895965903997" lon="-3.38778798468411">
        <ele>9.75</ele>
        <time>2023-08-17T13:00:59Z</time>
      </trkpt>
      <trkpt lat="55.990151027217507" lon="-3.386580990627408">
        <ele>0.62</ele>
        <time>2023-08-17T13:01:11Z</time>
      </trkpt>
      <trkpt lat="55.99028798751533" lon="-3.385942960157991">
        <ele>-1.3</ele>
        <time>2023-08-17T13:01:21Z</time>
      </trkpt>
      <trkpt lat="55.990303996950388" lon="-3.385867020115256">
        <ele>-0.82</ele>
        <time>2023-08-17T13:01:31Z</time>
      </trkpt>
      <trkpt lat="55.990309026092291" lon="-3.385841958224773">
        <ele>-0.82</ele>
        <time>2023-08-17T13:01:43Z</time>
      </trkpt>
      <trkpt lat="55.990326963365078" lon="-3.385759983211756">
        <ele>1.1</ele>
        <time>2023-08-17T13:01:44Z</time>
      </trkpt>
      <trkpt lat="55.990338027477264" lon="-3.385707009583712">
        <ele>2.54</ele>
        <time>2023-08-17T13:01:45Z</time>
      </trkpt>
      <trkpt lat="55.990344984456897" lon="-3.385674990713596">
        <ele>3.02</ele>
        <time>2023-08-17T13:01:46Z</time>
      </trkpt>
      <trkpt lat="55.99032998085022" lon="-3.385621011257172">
        <ele>3.5</ele>
        <time>2023-08-17T13:01:47Z</time>
      </trkpt>
      <trkpt lat="55.990220010280609" lon="-3.38559502735734">
        <ele>8.310000000000001</ele>
        <time>2023-08-17T13:01:59Z</time>
      </trkpt>
      <trkpt lat="55.990220010280609" lon="-3.38559502735734">
        <ele>8.310000000000001</ele>
        <time>2023-08-17T13:02:03Z</time>
      </trkpt>
      <trkpt lat="55.990011971443892" lon="-3.385793007910252">
        <ele>-20.050000000000001</ele>
        <time>2023-08-17T13:18:56Z</time>
      </trkpt>
      <trkpt lat="55.990226967260242" lon="-3.38563903234899">
        <ele>11.67</ele>
        <time>2023-08-17T13:19:13Z</time>
      </trkpt>
      <trkpt lat="55.990231996402144" lon="-3.385611036792398">
        <ele>11.67</ele>
        <time>2023-08-17T13:19:21Z</time>
      </trkpt>
      <trkpt lat="55.99035101942718" lon="-3.385579017922282">
        <ele>13.119999999999999</ele>
        <time>2023-08-17T13:19:36Z</time>
      </trkpt>
      <trkpt lat="55.990370968356729" lon="-3.38555303402245">
        <ele>13.119999999999999</ele>
        <time>2023-08-17T13:19:37Z</time>
      </trkpt>
      <trkpt lat="55.990383960306644" lon="-3.385491007938981">
        <ele>13.119999999999999</ele>
        <time>2023-08-17T13:19:38Z</time>
      </trkpt>
      <trkpt lat="55.990401981398463" lon="-3.385409032925963">
        <ele>12.630000000000001</ele>
        <time>2023-08-17T13:19:39Z</time>
      </trkpt>
      <trkpt lat="55.990556040778756" lon="-3.384147975593805">
        <ele>12.15</ele>
        <time>2023-08-17T13:19:51Z</time>
      </trkpt>
      <trkpt lat="55.990539025515318" lon="-3.383895009756088">
        <ele>12.15</ele>
        <time>2023-08-17T13:19:53Z</time>
      </trkpt>
      <trkpt lat="55.990515975281596" lon="-3.383783027529717">
        <ele>12.15</ele>
        <time>2023-08-17T13:19:54Z</time>
      </trkpt>
      <trkpt lat="55.99041597917676" lon="-3.383488990366459">
        <ele>12.15</ele>
        <time>2023-08-17T13:19:57Z</time>
      </trkpt>
      <trkpt lat="55.990379014983773" lon="-3.383402992039919">
        <ele>12.15</ele>
        <time>2023-08-17T13:19:58Z</time>
      </trkpt>
      <trkpt lat="55.990254040807486" lon="-3.383117001503706">
        <ele>12.15</ele>
        <time>2023-08-17T13:20:01Z</time>
      </trkpt>
      <trkpt lat="55.990129988640547" lon="-3.382780971005559">
        <ele>13.119999999999999</ele>
        <time>2023-08-17T13:20:04Z</time>
      </trkpt>
      <trkpt lat="55.990095036104321" lon="-3.382671000435948">
        <ele>13.119999999999999</ele>
        <time>2023-08-17T13:20:05Z</time>
      </trkpt>
      <trkpt lat="55.990038961172104" lon="-3.382491962984204">
        <ele>13.6</ele>
        <time>2023-08-17T13:20:06Z</time>
      </trkpt>
      <trkpt lat="55.990015994757414" lon="-3.382339999079704">
        <ele>13.6</ele>
        <time>2023-08-17T13:20:07Z</time>
      </trkpt>
      <trkpt lat="55.989992022514343" lon="-3.382189041003585">
        <ele>14.08</ele>
        <time>2023-08-17T13:20:08Z</time>
      </trkpt>
      <trkpt lat="55.989969978109002" lon="-3.382047973573208">
        <ele>14.56</ele>
        <time>2023-08-17T13:20:09Z</time>
      </trkpt>
      <trkpt lat="55.989948017522693" lon="-3.381906989961863">
        <ele>15.039999999999999</ele>
        <time>2023-08-17T13:20:10Z</time>
      </trkpt>
      <trkpt lat="55.989842992275953" lon="-3.380943993106484">
        <ele>19.359999999999999</ele>
        <time>2023-08-17T13:20:16Z</time>
      </trkpt>
      <trkpt lat="55.989825977012515" lon="-3.380778031423688">
        <ele>19.84</ele>
        <time>2023-08-17T13:20:17Z</time>
      </trkpt>
      <trkpt lat="55.989730004221201" lon="-3.37985903955996">
        <ele>24.170000000000002</ele>
        <time>2023-08-17T13:20:22Z</time>
      </trkpt>
      <trkpt lat="55.989399002864957" lon="-3.378013009205461">
        <ele>36.189999999999998</ele>
        <time>2023-08-17T13:20:32Z</time>
      </trkpt>
      <trkpt lat="55.98927604034543" lon="-3.377373972907662">
        <ele>38.590000000000003</ele>
        <time>2023-08-17T13:20:37Z</time>
      </trkpt>
      <trkpt lat="55.989259025081992" lon="-3.377286968752742">
        <ele>39.07</ele>
        <time>2023-08-17T13:20:38Z</time>
      </trkpt>
      <trkpt lat="55.989244021475315" lon="-3.377202982082963">
        <ele>39.549999999999997</ele>
        <time>2023-08-17T13:20:39Z</time>
      </trkpt>
      <trkpt lat="55.989161962643266" lon="-3.377192001789808">
        <ele>40.030000000000001</ele>
        <time>2023-08-17T13:20:41Z</time>
      </trkpt>
      <trkpt lat="55.989145031198859" lon="-3.377185966819525">
        <ele>40.509999999999998</ele>
        <time>2023-08-17T13:20:42Z</time>
      </trkpt>
      <trkpt lat="55.989107983186841" lon="-3.377172974869609">
        <ele>42.920000000000002</ele>
        <time>2023-08-17T13:20:47Z</time>
      </trkpt>
      <trkpt lat="55.989090967923403" lon="-3.377166017889977">
        <ele>43.880000000000003</ele>
        <time>2023-08-17T13:20:48Z</time>
      </trkpt>
      <trkpt lat="55.989055009558797" lon="-3.377153025940061">
        <ele>43.880000000000003</ele>
        <time>2023-08-17T13:20:49Z</time>
      </trkpt>
      <trkpt lat="55.98899801261723" lon="-3.377132993191481">
        <ele>44.359999999999999</ele>
        <time>2023-08-17T13:20:50Z</time>
      </trkpt>
      <trkpt lat="55.988930035382509" lon="-3.377108015120029">
        <ele>44.359999999999999</ele>
        <time>2023-08-17T13:20:51Z</time>
      </trkpt>
      <trkpt lat="55.988856023177505" lon="-3.377081025391817">
        <ele>44.840000000000003</ele>
        <time>2023-08-17T13:20:52Z</time>
      </trkpt>
      <trkpt lat="55.988539019599557" lon="-3.376966025680304">
        <ele>44.840000000000003</ele>
        <time>2023-08-17T13:20:56Z</time>
      </trkpt>
      <trkpt lat="55.988448997959495" lon="-3.376966025680304">
        <ele>44.840000000000003</ele>
        <time>2023-08-17T13:20:57Z</time>
      </trkpt>
      <trkpt lat="55.988358976319432" lon="-3.376966025680304">
        <ele>44.359999999999999</ele>
        <time>2023-08-17T13:20:58Z</time>
      </trkpt>
      <trkpt lat="55.988178011029959" lon="-3.376966025680304">
        <ele>43.880000000000003</ele>
        <time>2023-08-17T13:21:00Z</time>
      </trkpt>
      <trkpt lat="55.987994028255343" lon="-3.376966025680304">
        <ele>43.880000000000003</ele>
        <time>2023-08-17T13:21:02Z</time>
      </trkpt>
      <trkpt lat="55.987906018272042" lon="-3.376966025680304">
        <ele>43.399999999999999</ele>
        <time>2023-08-17T13:21:03Z</time>
      </trkpt>
      <trkpt lat="55.987502010539174" lon="-3.376884972676635">
        <ele>43.880000000000003</ele>
        <time>2023-08-17T13:21:07Z</time>
      </trkpt>
      <trkpt lat="55.986819975078106" lon="-3.376482976600528">
        <ele>46.280000000000001</ele>
        <time>2023-08-17T13:21:14Z</time>
      </trkpt>
      <trkpt lat="55.985681964084506" lon="-3.375721983611584">
        <ele>47.240000000000002</ele>
        <time>2023-08-17T13:21:25Z</time>
      </trkpt>
      <trkpt lat="55.985467974096537" lon="-3.375575970858336">
        <ele>47.240000000000002</ele>
        <time>2023-08-17T13:21:27Z</time>
      </trkpt>
      <trkpt lat="55.98536403849721" lon="-3.375504976138473">
        <ele>46.759999999999998</ele>
        <time>2023-08-17T13:21:28Z</time>
      </trkpt>
      <trkpt lat="55.984838996082544" lon="-3.375146985054016">
        <ele>47.240000000000002</ele>
        <time>2023-08-17T13:21:33Z</time>
      </trkpt>
      <trkpt lat="55.984735982492566" lon="-3.375075990334153">
        <ele>47.240000000000002</ele>
        <time>2023-08-17T13:21:34Z</time>
      </trkpt>
      <trkpt lat="55.98416299559176" lon="-3.374672988429666">
        <ele>49.159999999999997</ele>
        <time>2023-08-17T13:21:40Z</time>
      </trkpt>
      <trkpt lat="55.984085965901613" lon="-3.374619008973241">
        <ele>49.649999999999999</ele>
        <time>2023-08-17T13:21:41Z</time>
      </trkpt>
      <trkpt lat="55.983293037861586" lon="-3.374051973223686">
        <ele>51.57</ele>
        <time>2023-08-17T13:21:52Z</time>
      </trkpt>
      <trkpt lat="55.982749974355102" lon="-3.373674033209682">
        <ele>53.969999999999999</ele>
        <time>2023-08-17T13:22:00Z</time>
      </trkpt>
      <trkpt lat="55.982688032090664" lon="-3.373632039874792">
        <ele>54.93</ele>
        <time>2023-08-17T13:22:01Z</time>
      </trkpt>
      <trkpt lat="55.982621982693672" lon="-3.373587029054761">
        <ele>55.409999999999997</ele>
        <time>2023-08-17T13:22:02Z</time>
      </trkpt>
      <trkpt lat="55.98229500465095" lon="-3.3733069896698">
        <ele>56.859999999999999</ele>
        <time>2023-08-17T13:22:07Z</time>
      </trkpt>
      <trkpt lat="55.98214496858418" lon="-3.373145973309875">
        <ele>58.299999999999997</ele>
        <time>2023-08-17T13:22:10Z</time>
      </trkpt>
      <trkpt lat="55.982140023261309" lon="-3.37317799217999">
        <ele>58.299999999999997</ele>
        <time>2023-08-17T13:22:11Z</time>
      </trkpt>
      <trkpt lat="55.982128959149122" lon="-3.373244041576982">
        <ele>58.299999999999997</ele>
        <time>2023-08-17T13:22:12Z</time>
      </trkpt>
      <trkpt lat="55.982114961370826" lon="-3.373336996883154">
        <ele>58.780000000000001</ele>
        <time>2023-08-17T13:22:13Z</time>
      </trkpt>
      <trkpt lat="55.982100963592529" lon="-3.373437998816371">
        <ele>59.259999999999998</ele>
        <time>2023-08-17T13:22:14Z</time>
      </trkpt>
      <trkpt lat="55.982090989127755" lon="-3.373556016013026">
        <ele>59.740000000000002</ele>
        <time>2023-08-17T13:22:15Z</time>
      </trkpt>
      <trkpt lat="55.982050001621246" lon="-3.373819040134549">
        <ele>60.700000000000003</ele>
        <time>2023-08-17T13:22:17Z</time>
      </trkpt>
      <trkpt lat="55.982021000236273" lon="-3.373956000432372">
        <ele>61.18</ele>
        <time>2023-08-17T13:22:18Z</time>
      </trkpt>
      <trkpt lat="55.981990993022919" lon="-3.374092960730195">
        <ele>61.18</ele>
        <time>2023-08-17T13:22:19Z</time>
      </trkpt>
      <trkpt lat="55.981959979981184" lon="-3.374236039817333">
        <ele>60.700000000000003</ele>
        <time>2023-08-17T13:22:20Z</time>
      </trkpt>
      <trkpt lat="55.981928966939449" lon="-3.374389009550214">
        <ele>60.700000000000003</ele>
        <time>2023-08-17T13:22:21Z</time>
      </trkpt>
      <trkpt lat="55.981625961139798" lon="-3.375554010272026">
        <ele>55.890000000000001</ele>
        <time>2023-08-17T13:22:30Z</time>
      </trkpt>
      <trkpt lat="55.981557983905077" lon="-3.375657023862004">
        <ele>55.409999999999997</ele>
        <time>2023-08-17T13:22:31Z</time>
      </trkpt>
      <trkpt lat="55.981495035812259" lon="-3.375657023862004">
        <ele>54.93</ele>
        <time>2023-08-17T13:22:32Z</time>
      </trkpt>
      <trkpt lat="55.981394033879042" lon="-3.375657023862004">
        <ele>54.450000000000003</ele>
        <time>2023-08-17T13:22:33Z</time>
      </trkpt>
      <trkpt lat="55.98132798448205" lon="-3.375625004991889">
        <ele>53.969999999999999</ele>
        <time>2023-08-17T13:22:34Z</time>
      </trkpt>
      <trkpt lat="55.980869997292757" lon="-3.375406991690397">
        <ele>49.649999999999999</ele>
        <time>2023-08-17T13:22:40Z</time>
      </trkpt>
      <trkpt lat="55.980796990916133" lon="-3.375374972820282">
        <ele>48.68</ele>
        <time>2023-08-17T13:22:41Z</time>
      </trkpt>
      <trkpt lat="55.980729013681412" lon="-3.375344965606928">
        <ele>47.240000000000002</ele>
        <time>2023-08-17T13:22:42Z</time>
      </trkpt>
      <trkpt lat="55.980418967083097" lon="-3.375209011137486">
        <ele>41.469999999999999</ele>
        <time>2023-08-17T13:22:47Z</time>
      </trkpt>
      <trkpt lat="55.98036197014153" lon="-3.375183027237654">
        <ele>40.509999999999998</ele>
        <time>2023-08-17T13:22:48Z</time>
      </trkpt>
      <trkpt lat="55.980307990685105" lon="-3.375159977003932">
        <ele>39.549999999999997</ele>
        <time>2023-08-17T13:22:49Z</time>
      </trkpt>
      <trkpt lat="55.980170024558902" lon="-3.375099040567875">
        <ele>33.299999999999997</ele>
        <time>2023-08-17T13:22:57Z</time>
      </trkpt>
      <trkpt lat="55.980170024558902" lon="-3.375099040567875">
        <ele>33.299999999999997</ele>
        <time>2023-08-17T13:23:25Z</time>
      </trkpt>
      <trkpt lat="55.980118978768587" lon="-3.375072972849011">
        <ele>39.549999999999997</ele>
        <time>2023-08-17T13:23:53Z</time>
      </trkpt>
      <trkpt lat="55.980170024558902" lon="-3.37519601918757">
        <ele>39.549999999999997</ele>
        <time>2023-08-17T13:23:54Z</time>
      </trkpt>
      <trkpt lat="55.980174969881773" lon="-3.375100968405604">
        <ele>39.549999999999997</ele>
        <time>2023-08-17T13:23:58Z</time>
      </trkpt>
      <trkpt lat="55.980190979316831" lon="-3.375108009204269">
        <ele>39.549999999999997</ele>
        <time>2023-08-17T13:23:59Z</time>
      </trkpt>
      <trkpt lat="55.980214029550552" lon="-3.375117983669043">
        <ele>39.549999999999997</ele>
        <time>2023-08-17T13:24:00Z</time>
      </trkpt>
      <trkpt lat="55.980344032868743" lon="-3.375174980610609">
        <ele>39.07</ele>
        <time>2023-08-17T13:24:03Z</time>
      </trkpt>
      <trkpt lat="55.980675034224987" lon="-3.375320993363857">
        <ele>38.109999999999999</ele>
        <time>2023-08-17T13:24:07Z</time>
      </trkpt>
      <trkpt lat="55.980759020894766" lon="-3.375358041375876">
        <ele>38.109999999999999</ele>
        <time>2023-08-17T13:24:08Z</time>
      </trkpt>
      <trkpt lat="55.981429992243648" lon="-3.375657023862004">
        <ele>39.07</ele>
        <time>2023-08-17T13:24:18Z</time>
      </trkpt>
      <trkpt lat="55.981495035812259" lon="-3.375657023862004">
        <ele>39.07</ele>
        <time>2023-08-17T13:24:19Z</time>
      </trkpt>
      <trkpt lat="55.981556978076696" lon="-3.375657023862004">
        <ele>39.549999999999997</ele>
        <time>2023-08-17T13:24:20Z</time>
      </trkpt>
      <trkpt lat="55.981615986675024" lon="-3.375581000000238">
        <ele>40.030000000000001</ele>
        <time>2023-08-17T13:24:21Z</time>
      </trkpt>
      <trkpt lat="55.981658985838294" lon="-3.375466000288725">
        <ele>40.509999999999998</ele>
        <time>2023-08-17T13:24:22Z</time>
      </trkpt>
      <trkpt lat="55.981697961688042" lon="-3.375363992527127">
        <ele>40.990000000000002</ele>
        <time>2023-08-17T13:24:23Z</time>
      </trkpt>
      <trkpt lat="55.98173601552844" lon="-3.375266008079052">
        <ele>40.990000000000002</ele>
        <time>2023-08-17T13:24:24Z</time>
      </trkpt>
      <trkpt lat="55.981990993022919" lon="-3.374094972386956">
        <ele>43.880000000000003</ele>
        <time>2023-08-17T13:24:34Z</time>
      </trkpt>
      <trkpt lat="55.982012031599879" lon="-3.373997993767262">
        <ele>44.840000000000003</ele>
        <time>2023-08-17T13:24:35Z</time>
      </trkpt>
      <trkpt lat="55.982032986357808" lon="-3.373897997662425">
        <ele>45.32</ele>
        <time>2023-08-17T13:24:36Z</time>
      </trkpt>
      <trkpt lat="55.98205897025764" lon="-3.373781992122531">
        <ele>46.280000000000001</ele>
        <time>2023-08-17T13:24:37Z</time>
      </trkpt>
      <trkpt lat="55.9820800088346" lon="-3.373683001846075">
        <ele>47.240000000000002</ele>
        <time>2023-08-17T13:24:38Z</time>
      </trkpt>
      <trkpt lat="55.982332974672318" lon="-3.371537989005446">
        <ele>53.009999999999998</ele>
        <time>2023-08-17T13:24:51Z</time>
      </trkpt>
      <trkpt lat="55.982727007940412" lon="-3.370057996362448">
        <ele>51.090000000000003</ele>
        <time>2023-08-17T13:24:59Z</time>
      </trkpt>
      <trkpt lat="55.982975028455257" lon="-3.369127018377185">
        <ele>52.049999999999997</ele>
        <time>2023-08-17T13:25:04Z</time>
      </trkpt>
      <trkpt lat="55.983178038150072" lon="-3.368378011509776">
        <ele>50.609999999999999</ele>
        <time>2023-08-17T13:25:08Z</time>
      </trkpt>
      <trkpt lat="55.983229000121355" lon="-3.368191011250019">
        <ele>50.130000000000003</ele>
        <time>2023-08-17T13:25:09Z</time>
      </trkpt>
      <trkpt lat="55.983280967921019" lon="-3.367998981848359">
        <ele>48.68</ele>
        <time>2023-08-17T13:25:10Z</time>
      </trkpt>
      <trkpt lat="55.983334025368094" lon="-3.367801001295447">
        <ele>47.719999999999999</ele>
        <time>2023-08-17T13:25:11Z</time>
      </trkpt>
      <trkpt lat="55.983384987339377" lon="-3.36761299520731">
        <ele>46.759999999999998</ele>
        <time>2023-08-17T13:25:12Z</time>
      </trkpt>
      <trkpt lat="55.983781032264233" lon="-3.36615202948451">
        <ele>46.280000000000001</ele>
        <time>2023-08-17T13:25:19Z</time>
      </trkpt>
      <trkpt lat="55.983843980357051" lon="-3.365919012576342">
        <ele>47.240000000000002</ele>
        <time>2023-08-17T13:25:20Z</time>
      </trkpt>
      <trkpt lat="55.983908018097281" lon="-3.365681972354651">
        <ele>48.200000000000003</ele>
        <time>2023-08-17T13:25:21Z</time>
      </trkpt>
      <trkpt lat="55.984030980616808" lon="-3.365229014307261">
        <ele>50.130000000000003</ele>
        <time>2023-08-17T13:25:23Z</time>
      </trkpt>
      <trkpt lat="55.9840780030936" lon="-3.365003038197756">
        <ele>51.090000000000003</ele>
        <time>2023-08-17T13:25:24Z</time>
      </trkpt>
      <trkpt lat="55.98411999642849" lon="-3.364759963005781">
        <ele>52.049999999999997</ele>
        <time>2023-08-17T13:25:25Z</time>
      </trkpt>
      <trkpt lat="55.984161989763379" lon="-3.36451998911798">
        <ele>52.530000000000001</ele>
        <time>2023-08-17T13:25:26Z</time>
      </trkpt>
      <trkpt lat="55.984175987541676" lon="-3.364319996908307">
        <ele>53.009999999999998</ele>
        <time>2023-08-17T13:25:27Z</time>
      </trkpt>
      <trkpt lat="55.984191996976733" lon="-3.36408999748528">
        <ele>53.969999999999999</ele>
        <time>2023-08-17T13:25:28Z</time>
      </trkpt>
      <trkpt lat="55.984203983098269" lon="-3.363833008334041">
        <ele>54.450000000000003</ele>
        <time>2023-08-17T13:25:29Z</time>
      </trkpt>
      <trkpt lat="55.984308002516627" lon="-3.361537959426642">
        <ele>52.049999999999997</ele>
        <time>2023-08-17T13:25:39Z</time>
      </trkpt>
      <trkpt lat="55.984394000843167" lon="-3.359624035656452">
        <ele>50.130000000000003</ele>
        <time>2023-08-17T13:25:49Z</time>
      </trkpt>
      <trkpt lat="55.98439902998507" lon="-3.359522027894855">
        <ele>50.130000000000003</ele>
        <time>2023-08-17T13:25:50Z</time>
      </trkpt>
      <trkpt lat="55.984410010278225" lon="-3.35927601903677">
        <ele>49.649999999999999</ele>
        <time>2023-08-17T13:25:57Z</time>
      </trkpt>
      <trkpt lat="55.984415961429477" lon="-3.35912698879838">
        <ele>49.159999999999997</ele>
        <time>2023-08-17T13:25:59Z</time>
      </trkpt>
      <trkpt lat="55.984404981136322" lon="-3.359021041542292">
        <ele>49.159999999999997</ele>
        <time>2023-08-17T13:26:00Z</time>
      </trkpt>
      <trkpt lat="55.984372962266207" lon="-3.358904030174017">
        <ele>49.159999999999997</ele>
        <time>2023-08-17T13:26:01Z</time>
      </trkpt>
      <trkpt lat="55.984332980588078" lon="-3.35876296274364">
        <ele>49.159999999999997</ele>
        <time>2023-08-17T13:26:02Z</time>
      </trkpt>
      <trkpt lat="55.984285036101937" lon="-3.358591971918941">
        <ele>49.159999999999997</ele>
        <time>2023-08-17T13:26:03Z</time>
      </trkpt>
      <trkpt lat="55.983805004507303" lon="-3.356921961531043">
        <ele>46.759999999999998</ele>
        <time>2023-08-17T13:26:11Z</time>
      </trkpt>
      <trkpt lat="55.98373300395906" lon="-3.356723980978131">
        <ele>46.280000000000001</ele>
        <time>2023-08-17T13:26:12Z</time>
      </trkpt>
      <trkpt lat="55.98287696018815" lon="-3.354441002011299">
        <ele>40.030000000000001</ele>
        <time>2023-08-17T13:26:23Z</time>
      </trkpt>
      <trkpt lat="55.982018988579512" lon="-3.352169003337622">
        <ele>38.109999999999999</ele>
        <time>2023-08-17T13:26:33Z</time>
      </trkpt>
      <trkpt lat="55.981691004708409" lon="-3.351299967616797">
        <ele>37.630000000000003</ele>
        <time>2023-08-17T13:26:37Z</time>
      </trkpt>
      <trkpt lat="55.980992959812284" lon="-3.349698018282652">
        <ele>36.189999999999998</ele>
        <time>2023-08-17T13:26:45Z</time>
      </trkpt>
      <trkpt lat="55.980067010968924" lon="-3.347616959363222">
        <ele>31.379999999999999</ele>
        <time>2023-08-17T13:26:56Z</time>
      </trkpt>
      <trkpt lat="55.97930702380836" lon="-3.346180971711874">
        <ele>26.09</ele>
        <time>2023-08-17T13:27:04Z</time>
      </trkpt>
      <trkpt lat="55.978478975594044" lon="-3.344075018540025">
        <ele>23.210000000000001</ele>
        <time>2023-08-17T13:27:13Z</time>
      </trkpt>
      <trkpt lat="55.977401984855533" lon="-3.34161601960659">
        <ele>24.170000000000002</ele>
        <time>2023-08-17T13:27:22Z</time>
      </trkpt>
      <trkpt lat="55.975322015583515" lon="-3.337266985327005">
        <ele>32.340000000000003</ele>
        <time>2023-08-17T13:27:39Z</time>
      </trkpt>
      <trkpt lat="55.973868006840348" lon="-3.334038024768233">
        <ele>43.399999999999999</ele>
        <time>2023-08-17T13:27:51Z</time>
      </trkpt>
      <trkpt lat="55.972807025536895" lon="-3.331185998395085">
        <ele>49.159999999999997</ele>
        <time>2023-08-17T13:28:01Z</time>
      </trkpt>
      <trkpt lat="55.972168995067477" lon="-3.329311972483993">
        <ele>53.490000000000002</ele>
        <time>2023-08-17T13:28:08Z</time>
      </trkpt>
      <trkpt lat="55.971702039241791" lon="-3.328049993142486">
        <ele>56.369999999999997</ele>
        <time>2023-08-17T13:28:15Z</time>
      </trkpt>
      <trkpt lat="55.971591984853148" lon="-3.327748998999596">
        <ele>57.340000000000003</ele>
        <time>2023-08-17T13:28:19Z</time>
      </trkpt>
      <trkpt lat="55.971433985978365" lon="-3.32779903896153">
        <ele>57.82</ele>
        <time>2023-08-17T13:28:21Z</time>
      </trkpt>
      <trkpt lat="55.971424011513591" lon="-3.327876990661025">
        <ele>57.82</ele>
        <time>2023-08-17T13:28:22Z</time>
      </trkpt>
      <trkpt lat="55.971410013735294" lon="-3.3279940020293">
        <ele>58.299999999999997</ele>
        <time>2023-08-17T13:28:23Z</time>
      </trkpt>
      <trkpt lat="55.971390986815095" lon="-3.328142026439309">
        <ele>58.780000000000001</ele>
        <time>2023-08-17T13:28:24Z</time>
      </trkpt>
      <trkpt lat="55.971368020400405" lon="-3.32831896841526">
        <ele>59.259999999999998</ele>
        <time>2023-08-17T13:28:25Z</time>
      </trkpt>
      <trkpt lat="55.971170961856842" lon="-3.330048993229866">
        <ele>59.740000000000002</ele>
        <time>2023-08-17T13:28:33Z</time>
      </trkpt>
      <trkpt lat="55.971129974350333" lon="-3.330385023728013">
        <ele>59.740000000000002</ele>
        <time>2023-08-17T13:28:38Z</time>
      </trkpt>
      <trkpt lat="55.971139026805758" lon="-3.330527013167739">
        <ele>59.740000000000002</ele>
        <time>2023-08-17T13:28:41Z</time>
      </trkpt>
      <trkpt lat="55.971169034019113" lon="-3.330549979582429">
        <ele>59.259999999999998</ele>
        <time>2023-08-17T13:28:42Z</time>
      </trkpt>
      <trkpt lat="55.971225025132298" lon="-3.330542016774416">
        <ele>59.259999999999998</ele>
        <time>2023-08-17T13:28:43Z</time>
      </trkpt>
      <trkpt lat="55.971279004588723" lon="-3.330470016226172">
        <ele>58.780000000000001</ele>
        <time>2023-08-17T13:28:44Z</time>
      </trkpt>
      <trkpt lat="55.971341030672193" lon="-3.330387035384774">
        <ele>58.780000000000001</ele>
        <time>2023-08-17T13:28:45Z</time>
      </trkpt>
      <trkpt lat="55.971409007906914" lon="-3.330297013744712">
        <ele>58.780000000000001</ele>
        <time>2023-08-17T13:28:46Z</time>
      </trkpt>
      <trkpt lat="55.971500035375357" lon="-3.330235993489623">
        <ele>58.299999999999997</ele>
        <time>2023-08-17T13:28:47Z</time>
      </trkpt>
      <trkpt lat="55.971597013995051" lon="-3.330247979611158">
        <ele>57.82</ele>
        <time>2023-08-17T13:28:48Z</time>
      </trkpt>
      <trkpt lat="55.97170296125114" lon="-3.330291984602809">
        <ele>57.82</ele>
        <time>2023-08-17T13:28:49Z</time>
      </trkpt>
      <trkpt lat="55.971817960962653" lon="-3.330355016514659">
        <ele>57.340000000000003</ele>
        <time>2023-08-17T13:28:50Z</time>
      </trkpt>
      <trkpt lat="55.97193798981607" lon="-3.330474961549044">
        <ele>56.859999999999999</ele>
        <time>2023-08-17T13:28:51Z</time>
      </trkpt>
      <trkpt lat="55.972843989729881" lon="-3.33190499804914">
        <ele>54.450000000000003</ele>
        <time>2023-08-17T13:28:58Z</time>
      </trkpt>
      <trkpt lat="55.973859960213304" lon="-3.334437003359199">
        <ele>52.530000000000001</ele>
        <time>2023-08-17T13:29:06Z</time>
      </trkpt>
      <trkpt lat="55.974883977323771" lon="-3.33680204115808">
        <ele>48.200000000000003</ele>
        <time>2023-08-17T13:29:14Z</time>
      </trkpt>
      <trkpt lat="55.976701006293297" lon="-3.340559983626008">
        <ele>36.670000000000002</ele>
        <time>2023-08-17T13:29:28Z</time>
      </trkpt>
      <trkpt lat="55.978431031107903" lon="-3.344378024339676">
        <ele>32.82</ele>
        <time>2023-08-17T13:29:42Z</time>
      </trkpt>
      <trkpt lat="55.979182971641421" lon="-3.34716098383069">
        <ele>32.82</ele>
        <time>2023-08-17T13:29:51Z</time>
      </trkpt>
      <trkpt lat="55.979567030444741" lon="-3.350636037066579">
        <ele>33.780000000000001</ele>
        <time>2023-08-17T13:30:01Z</time>
      </trkpt>
      <trkpt lat="55.979624027386308" lon="-3.354755993932486">
        <ele>38.590000000000003</ele>
        <time>2023-08-17T13:30:13Z</time>
      </trkpt>
      <trkpt lat="55.979688987135887" lon="-3.359928969293833">
        <ele>41.950000000000003</ele>
        <time>2023-08-17T13:30:28Z</time>
      </trkpt>
      <trkpt lat="55.979741038754582" lon="-3.365439986810088">
        <ele>48.68</ele>
        <time>2023-08-17T13:30:44Z</time>
      </trkpt>
      <trkpt lat="55.979668032377958" lon="-3.369887005537748">
        <ele>53.969999999999999</ele>
        <time>2023-08-17T13:30:57Z</time>
      </trkpt>
      <trkpt lat="55.979453958570957" lon="-3.373637991026044">
        <ele>57.340000000000003</ele>
        <time>2023-08-17T13:31:08Z</time>
      </trkpt>
      <trkpt lat="55.979064032435417" lon="-3.378791017457843">
        <ele>56.369999999999997</ele>
        <time>2023-08-17T13:31:23Z</time>
      </trkpt>
      <trkpt lat="55.978516023606062" lon="-3.380951033905149">
        <ele>53.969999999999999</ele>
        <time>2023-08-17T13:31:30Z</time>
      </trkpt>
      <trkpt lat="55.97812601365149" lon="-3.383140973746777">
        <ele>51.090000000000003</ele>
        <time>2023-08-17T13:31:37Z</time>
      </trkpt>
      <trkpt lat="55.978116039186716" lon="-3.383828960359097">
        <ele>51.57</ele>
        <time>2023-08-17T13:31:39Z</time>
      </trkpt>
      <trkpt lat="55.978110004216433" lon="-3.384217964485288">
        <ele>51.57</ele>
        <time>2023-08-17T13:31:40Z</time>
      </trkpt>
      <trkpt lat="55.978129031136632" lon="-3.384456010535359">
        <ele>51.57</ele>
        <time>2023-08-17T13:31:41Z</time>
      </trkpt>
      <trkpt lat="55.97842700779438" lon="-3.38795998133719">
        <ele>55.890000000000001</ele>
        <time>2023-08-17T13:31:51Z</time>
      </trkpt>
      <trkpt lat="55.978677039965987" lon="-3.392077004536986">
        <ele>59.259999999999998</ele>
        <time>2023-08-17T13:32:03Z</time>
      </trkpt>
      <trkpt lat="55.979217002168298" lon="-3.395337983965874">
        <ele>59.740000000000002</ele>
        <time>2023-08-17T13:32:13Z</time>
      </trkpt>
      <trkpt lat="55.979877999052405" lon="-3.398850001394749">
        <ele>62.140000000000001</ele>
        <time>2023-08-17T13:32:25Z</time>
      </trkpt>
      <trkpt lat="55.980441011488438" lon="-3.403141032904387">
        <ele>63.579999999999998</ele>
        <time>2023-08-17T13:32:38Z</time>
      </trkpt>
      <trkpt lat="55.980643015354872" lon="-3.406573003157973">
        <ele>61.659999999999997</ele>
        <time>2023-08-17T13:32:46Z</time>
      </trkpt>
      <trkpt lat="55.980647038668394" lon="-3.411008035764098">
        <ele>63.100000000000001</ele>
        <time>2023-08-17T13:32:56Z</time>
      </trkpt>
      <trkpt lat="55.980874020606279" lon="-3.414477976039052">
        <ele>65.989999999999995</ele>
        <time>2023-08-17T13:33:04Z</time>
      </trkpt>
      <trkpt lat="55.981581034138799" lon="-3.417363027110696">
        <ele>65.989999999999995</ele>
        <time>2023-08-17T13:33:11Z</time>
      </trkpt>
      <trkpt lat="55.982712004333735" lon="-3.419802999123931">
        <ele>65.030000000000001</ele>
        <time>2023-08-17T13:33:18Z</time>
      </trkpt>
      <trkpt lat="55.984194008633494" lon="-3.421685993671417">
        <ele>61.659999999999997</ele>
        <time>2023-08-17T13:33:25Z</time>
      </trkpt>
      <trkpt lat="55.985428998246789" lon="-3.422566009685397">
        <ele>56.859999999999999</ele>
        <time>2023-08-17T13:33:30Z</time>
      </trkpt>
      <trkpt lat="55.987259019166231" lon="-3.422974962741137">
        <ele>50.609999999999999</ele>
        <time>2023-08-17T13:33:37Z</time>
      </trkpt>
      <trkpt lat="55.989104965701699" lon="-3.422515969723463">
        <ele>46.280000000000001</ele>
        <time>2023-08-17T13:33:44Z</time>
      </trkpt>
      <trkpt lat="55.991503028199077" lon="-3.421050980687141">
        <ele>41.469999999999999</ele>
        <time>2023-08-17T13:33:55Z</time>
      </trkpt>
      <trkpt lat="55.995311010628939" lon="-3.418657025322318">
        <ele>44.359999999999999</ele>
        <time>2023-08-17T13:34:10Z</time>
      </trkpt>
      <trkpt lat="55.997772021219134" lon="-3.417107965797186">
        <ele>51.57</ele>
        <time>2023-08-17T13:34:21Z</time>
      </trkpt>
      <trkpt lat="55.999683011323214" lon="-3.415898960083723">
        <ele>58.780000000000001</ele>
        <time>2023-08-17T13:34:30Z</time>
      </trkpt>
      <trkpt lat="56.00175904110074" lon="-3.414587024599314">
        <ele>60.219999999999999</ele>
        <time>2023-08-17T13:34:39Z</time>
      </trkpt>
      <trkpt lat="56.004275036975741" lon="-3.413007035851479">
        <ele>62.140000000000001</ele>
        <time>2023-08-17T13:34:49Z</time>
      </trkpt>
      <trkpt lat="56.006719032302499" lon="-3.411460993811488">
        <ele>61.659999999999997</ele>
        <time>2023-08-17T13:34:59Z</time>
      </trkpt>
      <trkpt lat="56.008501024916768" lon="-3.410329017788172">
        <ele>56.369999999999997</ele>
        <time>2023-08-17T13:35:08Z</time>
      </trkpt>
      <trkpt lat="56.010219985619187" lon="-3.409236017614603">
        <ele>54.450000000000003</ele>
        <time>2023-08-17T13:35:17Z</time>
      </trkpt>
      <trkpt lat="56.012023016810417" lon="-3.408103035762906">
        <ele>46.759999999999998</ele>
        <time>2023-08-17T13:35:27Z</time>
      </trkpt>
      <trkpt lat="56.014138022437692" lon="-3.406783975660801">
        <ele>35.710000000000001</ele>
        <time>2023-08-17T13:35:38Z</time>
      </trkpt>
      <trkpt lat="56.016180021688342" lon="-3.405730035156012">
        <ele>28.5</ele>
        <time>2023-08-17T13:35:49Z</time>
      </trkpt>
      <trkpt lat="56.017473014071584" lon="-3.405690975487232">
        <ele>24.649999999999999</ele>
        <time>2023-08-17T13:35:57Z</time>
      </trkpt>
      <trkpt lat="56.019312003627419" lon="-3.406389020383358">
        <ele>17.920000000000002</ele>
        <time>2023-08-17T13:36:10Z</time>
      </trkpt>
      <trkpt lat="56.020654030144215" lon="-3.407241040840745">
        <ele>15.52</ele>
        <time>2023-08-17T13:36:21Z</time>
      </trkpt>
      <trkpt lat="56.020741034299135" lon="-3.407340031117201">
        <ele>16</ele>
        <time>2023-08-17T13:36:22Z</time>
      </trkpt>
      <trkpt lat="56.020819991827011" lon="-3.407442038878799">
        <ele>16</ele>
        <time>2023-08-17T13:36:23Z</time>
      </trkpt>
      <trkpt lat="56.020897021517158" lon="-3.40761998668313">
        <ele>16.48</ele>
        <time>2023-08-17T13:36:24Z</time>
      </trkpt>
      <trkpt lat="56.020897021517158" lon="-3.407821990549564">
        <ele>16.48</ele>
        <time>2023-08-17T13:36:25Z</time>
      </trkpt>
      <trkpt lat="56.020913030952215" lon="-3.40789700858295">
        <ele>16.48</ele>
        <time>2023-08-17T13:36:26Z</time>
      </trkpt>
      <trkpt lat="56.020943960174918" lon="-3.408038998022676">
        <ele>16.48</ele>
        <time>2023-08-17T13:36:27Z</time>
      </trkpt>
      <trkpt lat="56.02101101540029" lon="-3.408189034089446">
        <ele>16.48</ele>
        <time>2023-08-17T13:36:28Z</time>
      </trkpt>
      <trkpt lat="56.021092990413308" lon="-3.408301016315818">
        <ele>16.48</ele>
        <time>2023-08-17T13:36:29Z</time>
      </trkpt>
      <trkpt lat="56.021177982911468" lon="-3.408417021855712">
        <ele>16.960000000000001</ele>
        <time>2023-08-17T13:36:30Z</time>
      </trkpt>
      <trkpt lat="56.021433966234326" lon="-3.408722961321473">
        <ele>16.960000000000001</ele>
        <time>2023-08-17T13:36:33Z</time>
      </trkpt>
      <trkpt lat="56.021521976217628" lon="-3.408740982413292">
        <ele>16.960000000000001</ele>
        <time>2023-08-17T13:36:34Z</time>
      </trkpt>
      <trkpt lat="56.021601017564535" lon="-3.408755986019969">
        <ele>16.48</ele>
        <time>2023-08-17T13:36:35Z</time>
      </trkpt>
      <trkpt lat="56.021689027547836" lon="-3.408728996291757">
        <ele>16.48</ele>
        <time>2023-08-17T13:36:36Z</time>
      </trkpt>
      <trkpt lat="56.021773014217615" lon="-3.408654984086752">
        <ele>16</ele>
        <time>2023-08-17T13:36:37Z</time>
      </trkpt>
      <trkpt lat="56.021851971745491" lon="-3.408487010747194">
        <ele>16</ele>
        <time>2023-08-17T13:36:38Z</time>
      </trkpt>
      <trkpt lat="56.02187099866569" lon="-3.408313002437353">
        <ele>16</ele>
        <time>2023-08-17T13:36:39Z</time>
      </trkpt>
      <trkpt lat="56.021889019757509" lon="-3.408139999955893">
        <ele>16</ele>
        <time>2023-08-17T13:36:40Z</time>
      </trkpt>
      <trkpt lat="56.021907962858677" lon="-3.407958028838038">
        <ele>16</ele>
        <time>2023-08-17T13:36:41Z</time>
      </trkpt>
      <trkpt lat="56.021926989778876" lon="-3.407776979729533">
        <ele>15.52</ele>
        <time>2023-08-17T13:36:42Z</time>
      </trkpt>
      <trkpt lat="56.02193696424365" lon="-3.407616969197989">
        <ele>15.52</ele>
        <time>2023-08-17T13:36:43Z</time>
      </trkpt>
      <trkpt lat="56.021951967850327" lon="-3.407329972833395">
        <ele>14.56</ele>
        <time>2023-08-17T13:36:45Z</time>
      </trkpt>
      <trkpt lat="56.02195599116385" lon="-3.407179014757276">
        <ele>14.08</ele>
        <time>2023-08-17T13:36:46Z</time>
      </trkpt>
      <trkpt lat="56.021954985335469" lon="-3.40643897652626">
        <ele>12.630000000000001</ele>
        <time>2023-08-17T13:36:51Z</time>
      </trkpt>
      <trkpt lat="56.02202002890408" lon="-3.4061140101403">
        <ele>12.15</ele>
        <time>2023-08-17T13:36:52Z</time>
      </trkpt>
      <trkpt lat="56.022049030289054" lon="-3.406012002378702">
        <ele>12.15</ele>
        <time>2023-08-17T13:36:53Z</time>
      </trkpt>
      <trkpt lat="56.022100998088717" lon="-3.405906977131963">
        <ele>11.67</ele>
        <time>2023-08-17T13:36:54Z</time>
      </trkpt>
      <trkpt lat="56.022141985595226" lon="-3.405826007947326">
        <ele>11.19</ele>
        <time>2023-08-17T13:36:55Z</time>
      </trkpt>
      <trkpt lat="56.022179033607244" lon="-3.405777979642153">
        <ele>10.710000000000001</ele>
        <time>2023-08-17T13:36:56Z</time>
      </trkpt>
      <trkpt lat="56.022206023335457" lon="-3.405744032934308">
        <ele>10.23</ele>
        <time>2023-08-17T13:36:57Z</time>
      </trkpt>
      <trkpt lat="56.022227983921766" lon="-3.405715031549335">
        <ele>9.75</ele>
        <time>2023-08-17T13:36:58Z</time>
      </trkpt>
      <trkpt lat="56.022246005013585" lon="-3.405691981315613">
        <ele>9.75</ele>
        <time>2023-08-17T13:36:59Z</time>
      </trkpt>
      <trkpt lat="56.022246005013585" lon="-3.405691981315613">
        <ele>9.27</ele>
        <time>2023-08-17T13:37:00Z</time>
      </trkpt>
      <trkpt lat="56.022246005013585" lon="-3.405691981315613">
        <ele>9.27</ele>
        <time>2023-08-17T13:37:16Z</time>
      </trkpt>
      <trkpt lat="56.022444991394877" lon="-3.405435997992754">
        <ele>7.83</ele>
        <time>2023-08-17T13:37:29Z</time>
      </trkpt>
      <trkpt lat="56.022605001926422" lon="-3.405231982469559">
        <ele>7.35</ele>
        <time>2023-08-17T13:37:31Z</time>
      </trkpt>
      <trkpt lat="56.023144964128733" lon="-3.404658995568752">
        <ele>3.98</ele>
        <time>2023-08-17T13:37:37Z</time>
      </trkpt>
      <trkpt lat="56.023374041542411" lon="-3.404512982815504">
        <ele>3.02</ele>
        <time>2023-08-17T13:37:39Z</time>
      </trkpt>
      <trkpt lat="56.024456983432174" lon="-3.403778979554772">
        <ele>2.54</ele>
        <time>2023-08-17T13:37:49Z</time>
      </trkpt>
      <trkpt lat="56.024550022557378" lon="-3.403713013976812">
        <ele>3.02</ele>
        <time>2023-08-17T13:37:50Z</time>
      </trkpt>
      <trkpt lat="56.024937015026808" lon="-3.403506986796856">
        <ele>3.5</ele>
        <time>2023-08-17T13:37:54Z</time>
      </trkpt>
      <trkpt lat="56.025043968111277" lon="-3.40345099568367">
        <ele>3.98</ele>
        <time>2023-08-17T13:37:55Z</time>
      </trkpt>
      <trkpt lat="56.026064967736602" lon="-3.402984961867333">
        <ele>7.35</ele>
        <time>2023-08-17T13:38:04Z</time>
      </trkpt>
      <trkpt lat="56.026264037936926" lon="-3.40289200656116">
        <ele>8.789999999999999</ele>
        <time>2023-08-17T13:38:06Z</time>
      </trkpt>
      <trkpt lat="56.026411978527904" lon="-3.402822017669678">
        <ele>9.75</ele>
        <time>2023-08-17T13:38:07Z</time>
      </trkpt>
      <trkpt lat="56.026436034590006" lon="-3.402807014063001">
        <ele>10.710000000000001</ele>
        <time>2023-08-17T13:38:08Z</time>
      </trkpt>
      <trkpt lat="56.026524966582656" lon="-3.402752028778195">
        <ele>11.19</ele>
        <time>2023-08-17T13:38:09Z</time>
      </trkpt>
      <trkpt lat="56.026620017364621" lon="-3.402694026008248">
        <ele>12.15</ele>
        <time>2023-08-17T13:38:10Z</time>
      </trkpt>
      <trkpt lat="56.02767001837492" lon="-3.401853991672397">
        <ele>18.399999999999999</ele>
        <time>2023-08-17T13:38:20Z</time>
      </trkpt>
      <trkpt lat="56.02872303687036" lon="-3.400545995682478">
        <ele>21.77</ele>
        <time>2023-08-17T13:38:30Z</time>
      </trkpt>
      <trkpt lat="56.02921899408102" lon="-3.399792965501547">
        <ele>26.57</ele>
        <time>2023-08-17T13:38:37Z</time>
      </trkpt>
      <trkpt lat="56.030001025646925" lon="-3.398715974763036">
        <ele>34.259999999999998</ele>
        <time>2023-08-17T13:38:49Z</time>
      </trkpt>
      <trkpt lat="56.030123988166451" lon="-3.398552024737001">
        <ele>35.229999999999997</ele>
        <time>2023-08-17T13:38:51Z</time>
      </trkpt>
      <trkpt lat="56.030836030840874" lon="-3.397874012589455">
        <ele>37.149999999999999</ele>
        <time>2023-08-17T13:39:01Z</time>
      </trkpt>
      <trkpt lat="56.03145201690495" lon="-3.397332038730383">
        <ele>36.670000000000002</ele>
        <time>2023-08-17T13:39:11Z</time>
      </trkpt>
      <trkpt lat="56.031531980261207" lon="-3.397279987111688">
        <ele>36.189999999999998</ele>
        <time>2023-08-17T13:39:12Z</time>
      </trkpt>
      <trkpt lat="56.031611021608114" lon="-3.397228019312024">
        <ele>35.229999999999997</ele>
        <time>2023-08-17T13:39:13Z</time>
      </trkpt>
      <trkpt lat="56.031690984964371" lon="-3.397174961864948">
        <ele>34.740000000000002</ele>
        <time>2023-08-17T13:39:14Z</time>
      </trkpt>
      <trkpt lat="56.031770026311278" lon="-3.397122994065285">
        <ele>34.259999999999998</ele>
        <time>2023-08-17T13:39:15Z</time>
      </trkpt>
      <trkpt lat="56.031846972182393" lon="-3.397073037922382">
        <ele>33.299999999999997</ele>
        <time>2023-08-17T13:39:16Z</time>
      </trkpt>
      <trkpt lat="56.032711984589696" lon="-3.396827029064298">
        <ele>25.609999999999999</ele>
        <time>2023-08-17T13:39:27Z</time>
      </trkpt>
      <trkpt lat="56.032799994572997" lon="-3.396815964952111">
        <ele>25.609999999999999</ele>
        <time>2023-08-17T13:39:28Z</time>
      </trkpt>
      <trkpt lat="56.033720998093486" lon="-3.396674981340766">
        <ele>22.25</ele>
        <time>2023-08-17T13:39:40Z</time>
      </trkpt>
      <trkpt lat="56.033886037766933" lon="-3.396625025197864">
        <ele>22.25</ele>
        <time>2023-08-17T13:39:42Z</time>
      </trkpt>
      <trkpt lat="56.033985028043389" lon="-3.39659501798451">
        <ele>22.25</ele>
        <time>2023-08-17T13:39:43Z</time>
      </trkpt>
      <trkpt lat="56.035099988803267" lon="-3.396291006356478">
        <ele>22.25</ele>
        <time>2023-08-17T13:39:53Z</time>
      </trkpt>
      <trkpt lat="56.035917978733778" lon="-3.396149016916752">
        <ele>20.32</ele>
        <time>2023-08-17T13:40:00Z</time>
      </trkpt>
      <trkpt lat="56.036032978445292" lon="-3.396167038008571">
        <ele>20.32</ele>
        <time>2023-08-17T13:40:01Z</time>
      </trkpt>
      <trkpt lat="56.036591967567801" lon="-3.396311961114407">
        <ele>20.809999999999999</ele>
        <time>2023-08-17T13:40:08Z</time>
      </trkpt>
      <trkpt lat="56.036646030843258" lon="-3.396334005519748">
        <ele>20.809999999999999</ele>
        <time>2023-08-17T13:40:15Z</time>
      </trkpt>
      <trkpt lat="56.036819033324718" lon="-3.396449005231261">
        <ele>21.289999999999999</ele>
        <time>2023-08-17T13:40:22Z</time>
      </trkpt>
      <trkpt lat="56.036943001672626" lon="-3.396429978311062">
        <ele>21.77</ele>
        <time>2023-08-17T13:40:23Z</time>
      </trkpt>
      <trkpt lat="56.036925986409187" lon="-3.396192016080022">
        <ele>21.77</ele>
        <time>2023-08-17T13:40:24Z</time>
      </trkpt>
      <trkpt lat="56.036929003894329" lon="-3.396128984168172">
        <ele>22.25</ele>
        <time>2023-08-17T13:40:25Z</time>
      </trkpt>
      <trkpt lat="56.036934033036232" lon="-3.396001998335123">
        <ele>22.73</ele>
        <time>2023-08-17T13:40:26Z</time>
      </trkpt>
      <trkpt lat="56.037022965028882" lon="-3.395080994814634">
        <ele>21.77</ele>
        <time>2023-08-17T13:40:34Z</time>
      </trkpt>
      <trkpt lat="56.036925986409187" lon="-3.394926013424993">
        <ele>21.289999999999999</ele>
        <time>2023-08-17T13:40:35Z</time>
      </trkpt>
      <trkpt lat="56.036925986409187" lon="-3.394925007596612">
        <ele>20.809999999999999</ele>
        <time>2023-08-17T13:40:36Z</time>
      </trkpt>
      <trkpt lat="56.036886004731059" lon="-3.394832974299789">
        <ele>20.32</ele>
        <time>2023-08-17T13:40:37Z</time>
      </trkpt>
      <trkpt lat="56.036837976425886" lon="-3.394721997901797">
        <ele>20.32</ele>
        <time>2023-08-17T13:40:38Z</time>
      </trkpt>
      <trkpt lat="56.036725994199514" lon="-3.394465008750558">
        <ele>19.84</ele>
        <time>2023-08-17T13:40:40Z</time>
      </trkpt>
      <trkpt lat="56.036647036671638" lon="-3.394282031804323">
        <ele>19.359999999999999</ele>
        <time>2023-08-17T13:40:41Z</time>
      </trkpt>
      <trkpt lat="56.036624992266297" lon="-3.394096037372947">
        <ele>19.359999999999999</ele>
        <time>2023-08-17T13:40:42Z</time>
      </trkpt>
      <trkpt lat="56.036504041403532" lon="-3.39286096394062">
        <ele>17.440000000000001</ele>
        <time>2023-08-17T13:40:48Z</time>
      </trkpt>
      <trkpt lat="56.036573024466634" lon="-3.390892976894975">
        <ele>19.84</ele>
        <time>2023-08-17T13:40:56Z</time>
      </trkpt>
      <trkpt lat="56.037064958363771" lon="-3.387921005487442">
        <ele>23.690000000000001</ele>
        <time>2023-08-17T13:41:06Z</time>
      </trkpt>
      <trkpt lat="56.037858976051211" lon="-3.383840024471283">
        <ele>29.940000000000001</ele>
        <time>2023-08-17T13:41:19Z</time>
      </trkpt>
      <trkpt lat="56.038089981302619" lon="-3.38261098600924">
        <ele>31.859999999999999</ele>
        <time>2023-08-17T13:41:25Z</time>
      </trkpt>
      <trkpt lat="56.038115965202451" lon="-3.382472014054656">
        <ele>31.859999999999999</ele>
        <time>2023-08-17T13:41:26Z</time>
      </trkpt>
      <trkpt lat="56.038140021264553" lon="-3.382347039878368">
        <ele>32.340000000000003</ele>
        <time>2023-08-17T13:41:27Z</time>
      </trkpt>
      <trkpt lat="56.038159970194101" lon="-3.382237991318107">
        <ele>32.340000000000003</ele>
        <time>2023-08-17T13:41:28Z</time>
      </trkpt>
      <trkpt lat="56.038178997114301" lon="-3.38213698938489">
        <ele>32.82</ele>
        <time>2023-08-17T13:41:29Z</time>
      </trkpt>
      <trkpt lat="56.03819701820612" lon="-3.382041016593576">
        <ele>32.82</ele>
        <time>2023-08-17T13:41:30Z</time>
      </trkpt>
      <trkpt lat="56.038301959633827" lon="-3.381485966965556">
        <ele>34.259999999999998</ele>
        <time>2023-08-17T13:41:39Z</time>
      </trkpt>
      <trkpt lat="56.038493989035487" lon="-3.380407970398665">
        <ele>36.189999999999998</ele>
        <time>2023-08-17T13:41:49Z</time>
      </trkpt>
      <trkpt lat="56.038761958479881" lon="-3.37850796058774">
        <ele>38.109999999999999</ele>
        <time>2023-08-17T13:41:59Z</time>
      </trkpt>
      <trkpt lat="56.039126990363002" lon="-3.375506987795234">
        <ele>40.990000000000002</ele>
        <time>2023-08-17T13:42:11Z</time>
      </trkpt>
      <trkpt lat="56.039838027209044" lon="-3.372853025794029">
        <ele>43.399999999999999</ele>
        <time>2023-08-17T13:42:21Z</time>
      </trkpt>
      <trkpt lat="56.040704967454076" lon="-3.370189005509019">
        <ele>44.359999999999999</ele>
        <time>2023-08-17T13:42:32Z</time>
      </trkpt>
      <trkpt lat="56.041342997923493" lon="-3.368612034246326">
        <ele>42.920000000000002</ele>
        <time>2023-08-17T13:42:42Z</time>
      </trkpt>
      <trkpt lat="56.041403012350202" lon="-3.368511032313108">
        <ele>42.439999999999998</ele>
        <time>2023-08-17T13:42:43Z</time>
      </trkpt>
      <trkpt lat="56.041454980149865" lon="-3.368425033986569">
        <ele>41.950000000000003</ele>
        <time>2023-08-17T13:42:44Z</time>
      </trkpt>
      <trkpt lat="56.041527986526489" lon="-3.368340963497758">
        <ele>41.950000000000003</ele>
        <time>2023-08-17T13:42:45Z</time>
      </trkpt>
      <trkpt lat="56.041580960154533" lon="-3.36823602207005">
        <ele>41.469999999999999</ele>
        <time>2023-08-17T13:42:46Z</time>
      </trkpt>
      <trkpt lat="56.041600992903113" lon="-3.368079029023647">
        <ele>40.990000000000002</ele>
        <time>2023-08-17T13:42:47Z</time>
      </trkpt>
      <trkpt lat="56.04161599650979" lon="-3.367921030148864">
        <ele>40.990000000000002</ele>
        <time>2023-08-17T13:42:48Z</time>
      </trkpt>
      <trkpt lat="56.041634017601609" lon="-3.367758002132177">
        <ele>40.509999999999998</ele>
        <time>2023-08-17T13:42:49Z</time>
      </trkpt>
      <trkpt lat="56.041652960702777" lon="-3.367583993822336">
        <ele>40.509999999999998</ele>
        <time>2023-08-17T13:42:50Z</time>
      </trkpt>
      <trkpt lat="56.041672993451357" lon="-3.367395987734199">
        <ele>40.509999999999998</ele>
        <time>2023-08-17T13:42:51Z</time>
      </trkpt>
      <trkpt lat="56.041704006493092" lon="-3.367198007181287">
        <ele>40.509999999999998</ele>
        <time>2023-08-17T13:42:52Z</time>
      </trkpt>
      <trkpt lat="56.042170040309429" lon="-3.365283999592066">
        <ele>40.030000000000001</ele>
        <time>2023-08-17T13:43:01Z</time>
      </trkpt>
      <trkpt lat="56.042312029749155" lon="-3.363266978412867">
        <ele>40.030000000000001</ele>
        <time>2023-08-17T13:43:10Z</time>
      </trkpt>
      <trkpt lat="56.042341031134129" lon="-3.362841010093689">
        <ele>40.030000000000001</ele>
        <time>2023-08-17T13:43:13Z</time>
      </trkpt>
      <trkpt lat="56.042351005598903" lon="-3.362765992060304">
        <ele>40.509999999999998</ele>
        <time>2023-08-17T13:43:14Z</time>
      </trkpt>
      <trkpt lat="56.042357040569186" lon="-3.362722992897034">
        <ele>40.030000000000001</ele>
        <time>2023-08-17T13:43:15Z</time>
      </trkpt>
      <trkpt lat="56.042361985892057" lon="-3.362686028704047">
        <ele>40.030000000000001</ele>
        <time>2023-08-17T13:43:16Z</time>
      </trkpt>
      <trkpt lat="56.042369026690722" lon="-3.362634982913733">
        <ele>40.030000000000001</ele>
        <time>2023-08-17T13:43:17Z</time>
      </trkpt>
      <trkpt lat="56.042379001155496" lon="-3.362555019557476">
        <ele>40.030000000000001</ele>
        <time>2023-08-17T13:43:18Z</time>
      </trkpt>
      <trkpt lat="56.042398028075695" lon="-3.362416969612241">
        <ele>40.030000000000001</ele>
        <time>2023-08-17T13:43:19Z</time>
      </trkpt>
      <trkpt lat="56.042444966733456" lon="-3.362297024577856">
        <ele>40.030000000000001</ele>
        <time>2023-08-17T13:43:20Z</time>
      </trkpt>
      <trkpt lat="56.042498024180532" lon="-3.362146988511086">
        <ele>40.030000000000001</ele>
        <time>2023-08-17T13:43:21Z</time>
      </trkpt>
      <trkpt lat="56.042869007214904" lon="-3.360623996704817">
        <ele>39.07</ele>
        <time>2023-08-17T13:43:28Z</time>
      </trkpt>
      <trkpt lat="56.043430007994175" lon="-3.358200034126639">
        <ele>38.109999999999999</ele>
        <time>2023-08-17T13:43:37Z</time>
      </trkpt>
      <trkpt lat="56.044222014024854" lon="-3.354759011417627">
        <ele>39.549999999999997</ele>
        <time>2023-08-17T13:43:50Z</time>
      </trkpt>
      <trkpt lat="56.044354028999805" lon="-3.354248972609639">
        <ele>40.030000000000001</ele>
        <time>2023-08-17T13:43:52Z</time>
      </trkpt>
      <trkpt lat="56.044421000406146" lon="-3.353993995115161">
        <ele>40.509999999999998</ele>
        <time>2023-08-17T13:43:53Z</time>
      </trkpt>
      <trkpt lat="56.044935984537005" lon="-3.351862980052829">
        <ele>43.880000000000003</ele>
        <time>2023-08-17T13:44:01Z</time>
      </trkpt>
      <trkpt lat="56.045379973948002" lon="-3.349747974425554">
        <ele>45.32</ele>
        <time>2023-08-17T13:44:09Z</time>
      </trkpt>
      <trkpt lat="56.046278011053801" lon="-3.347402969375253">
        <ele>46.759999999999998</ele>
        <time>2023-08-17T13:44:19Z</time>
      </trkpt>
      <trkpt lat="56.046378007158637" lon="-3.347186967730522">
        <ele>47.240000000000002</ele>
        <time>2023-08-17T13:44:20Z</time>
      </trkpt>
      <trkpt lat="56.046945964917541" lon="-3.345904033631086">
        <ele>47.240000000000002</ele>
        <time>2023-08-17T13:44:26Z</time>
      </trkpt>
      <trkpt lat="56.047324994578958" lon="-3.344650017097592">
        <ele>46.759999999999998</ele>
        <time>2023-08-17T13:44:31Z</time>
      </trkpt>
      <trkpt lat="56.047401018440723" lon="-3.344393027946353">
        <ele>46.759999999999998</ele>
        <time>2023-08-17T13:44:32Z</time>
      </trkpt>
      <trkpt lat="56.047906028106809" lon="-3.342054979875684">
        <ele>43.399999999999999</ele>
        <time>2023-08-17T13:44:41Z</time>
      </trkpt>
      <trkpt lat="56.048251027241349" lon="-3.338091010227799">
        <ele>42.439999999999998</ele>
        <time>2023-08-17T13:44:55Z</time>
      </trkpt>
      <trkpt lat="56.048440039157867" lon="-3.335654977709055">
        <ele>43.399999999999999</ele>
        <time>2023-08-17T13:45:03Z</time>
      </trkpt>
      <trkpt lat="56.048946976661682" lon="-3.331955038011074">
        <ele>42.920000000000002</ele>
        <time>2023-08-17T13:45:15Z</time>
      </trkpt>
      <trkpt lat="56.049615014344454" lon="-3.327625030651689">
        <ele>43.399999999999999</ele>
        <time>2023-08-17T13:45:28Z</time>
      </trkpt>
      <trkpt lat="56.050129998475313" lon="-3.324021985754371">
        <ele>50.130000000000003</ele>
        <time>2023-08-17T13:45:39Z</time>
      </trkpt>
      <trkpt lat="56.05020803399384" lon="-3.323342967778444">
        <ele>51.090000000000003</ele>
        <time>2023-08-17T13:45:41Z</time>
      </trkpt>
      <trkpt lat="56.050275005400181" lon="-3.323050020262599">
        <ele>51.090000000000003</ele>
        <time>2023-08-17T13:45:42Z</time>
      </trkpt>
      <trkpt lat="56.050694016739726" lon="-3.320747008547187">
        <ele>49.649999999999999</ele>
        <time>2023-08-17T13:45:50Z</time>
      </trkpt>
      <trkpt lat="56.050802981480956" lon="-3.320177961140871">
        <ele>48.68</ele>
        <time>2023-08-17T13:45:53Z</time>
      </trkpt>
      <trkpt lat="56.050846986472607" lon="-3.320024991407991">
        <ele>48.68</ele>
        <time>2023-08-17T13:45:54Z</time>
      </trkpt>
      <trkpt lat="56.050887973979115" lon="-3.319879984483123">
        <ele>48.68</ele>
        <time>2023-08-17T13:45:55Z</time>
      </trkpt>
      <trkpt lat="56.050915969535708" lon="-3.319780994206667">
        <ele>48.200000000000003</ele>
        <time>2023-08-17T13:45:56Z</time>
      </trkpt>
      <trkpt lat="56.050973972305655" lon="-3.319578990340233">
        <ele>48.200000000000003</ele>
        <time>2023-08-17T13:45:57Z</time>
      </trkpt>
      <trkpt lat="56.050971960648894" lon="-3.319400036707521">
        <ele>48.200000000000003</ele>
        <time>2023-08-17T13:45:58Z</time>
      </trkpt>
      <trkpt lat="56.051000040024519" lon="-3.319216975942254">
        <ele>48.200000000000003</ele>
        <time>2023-08-17T13:45:59Z</time>
      </trkpt>
      <trkpt lat="56.051030969247222" lon="-3.319013966247439">
        <ele>48.68</ele>
        <time>2023-08-17T13:46:00Z</time>
      </trkpt>
      <trkpt lat="56.05106801725924" lon="-3.318794025108218">
        <ele>48.68</ele>
        <time>2023-08-17T13:46:01Z</time>
      </trkpt>
      <trkpt lat="56.051198020577431" lon="-3.31804602406919">
        <ele>48.68</ele>
        <time>2023-08-17T13:46:04Z</time>
      </trkpt>
      <trkpt lat="56.051445035263896" lon="-3.31557696685195">
        <ele>52.530000000000001</ele>
        <time>2023-08-17T13:46:13Z</time>
      </trkpt>
      <trkpt lat="56.051750974729657" lon="-3.313504960387945">
        <ele>55.409999999999997</ele>
        <time>2023-08-17T13:46:22Z</time>
      </trkpt>
      <trkpt lat="56.051972005516291" lon="-3.311926983296871">
        <ele>55.409999999999997</ele>
        <time>2023-08-17T13:46:31Z</time>
      </trkpt>
      <trkpt lat="56.052174009382725" lon="-3.310158988460898">
        <ele>53.009999999999998</ele>
        <time>2023-08-17T13:46:44Z</time>
      </trkpt>
      <trkpt lat="56.052190018817782" lon="-3.310008030384779">
        <ele>53.009999999999998</ele>
        <time>2023-08-17T13:46:45Z</time>
      </trkpt>
      <trkpt lat="56.052254978567362" lon="-3.309389026835561">
        <ele>52.049999999999997</ele>
        <time>2023-08-17T13:46:49Z</time>
      </trkpt>
      <trkpt lat="56.052272999659181" lon="-3.309223987162113">
        <ele>52.049999999999997</ele>
        <time>2023-08-17T13:46:50Z</time>
      </trkpt>
      <trkpt lat="56.052489001303911" lon="-3.307460015639663">
        <ele>50.130000000000003</ele>
        <time>2023-08-17T13:47:01Z</time>
      </trkpt>
      <trkpt lat="56.052720006555319" lon="-3.305968958884478">
        <ele>46.759999999999998</ele>
        <time>2023-08-17T13:47:11Z</time>
      </trkpt>
      <trkpt lat="56.052942965179682" lon="-3.30459600314498">
        <ele>42.920000000000002</ele>
        <time>2023-08-17T13:47:20Z</time>
      </trkpt>
      <trkpt lat="56.052985964342952" lon="-3.304308000952005">
        <ele>41.950000000000003</ele>
        <time>2023-08-17T13:47:22Z</time>
      </trkpt>
      <trkpt lat="56.053051007911563" lon="-3.303907010704279">
        <ele>40.509999999999998</ele>
        <time>2023-08-17T13:47:25Z</time>
      </trkpt>
      <trkpt lat="56.053176987916231" lon="-3.30345799215138">
        <ele>38.590000000000003</ele>
        <time>2023-08-17T13:47:29Z</time>
      </trkpt>
      <trkpt lat="56.053330041468143" lon="-3.303004028275609">
        <ele>36.189999999999998</ele>
        <time>2023-08-17T13:47:34Z</time>
      </trkpt>
      <trkpt lat="56.053362982347608" lon="-3.302907971665263">
        <ele>35.710000000000001</ele>
        <time>2023-08-17T13:47:35Z</time>
      </trkpt>
      <trkpt lat="56.053399024531245" lon="-3.302803030237556">
        <ele>35.229999999999997</ele>
        <time>2023-08-17T13:47:36Z</time>
      </trkpt>
      <trkpt lat="56.053431965410709" lon="-3.302705967798829">
        <ele>35.229999999999997</ele>
        <time>2023-08-17T13:47:37Z</time>
      </trkpt>
      <trkpt lat="56.053461972624063" lon="-3.302618963643909">
        <ele>35.229999999999997</ele>
        <time>2023-08-17T13:47:38Z</time>
      </trkpt>
      <trkpt lat="56.053491979837418" lon="-3.302533971145749">
        <ele>34.740000000000002</ele>
        <time>2023-08-17T13:47:39Z</time>
      </trkpt>
      <trkpt lat="56.053520981222391" lon="-3.302447972819209">
        <ele>34.740000000000002</ele>
        <time>2023-08-17T13:47:40Z</time>
      </trkpt>
      <trkpt lat="56.053583007305861" lon="-3.302267007529736">
        <ele>34.259999999999998</ele>
        <time>2023-08-17T13:47:42Z</time>
      </trkpt>
      <trkpt lat="56.053836978971958" lon="-3.301544990390539">
        <ele>33.299999999999997</ele>
        <time>2023-08-17T13:47:49Z</time>
      </trkpt>
      <trkpt lat="56.053942004218698" lon="-3.301263023167849">
        <ele>32.82</ele>
        <time>2023-08-17T13:47:52Z</time>
      </trkpt>
      <trkpt lat="56.053977962583303" lon="-3.301236033439636">
        <ele>32.82</ele>
        <time>2023-08-17T13:47:53Z</time>
      </trkpt>
      <trkpt lat="56.054028002545238" lon="-3.301198985427618">
        <ele>32.82</ele>
        <time>2023-08-17T13:47:54Z</time>
      </trkpt>
      <trkpt lat="56.054114000871778" lon="-3.301220024004579">
        <ele>32.340000000000003</ele>
        <time>2023-08-17T13:47:55Z</time>
      </trkpt>
      <trkpt lat="56.054151970893145" lon="-3.301269980147481">
        <ele>31.859999999999999</ele>
        <time>2023-08-17T13:47:56Z</time>
      </trkpt>
      <trkpt lat="56.054219026118517" lon="-3.301356984302402">
        <ele>31.859999999999999</ele>
        <time>2023-08-17T13:47:57Z</time>
      </trkpt>
      <trkpt lat="56.054411977529526" lon="-3.301606010645628">
        <ele>30.899999999999999</ele>
        <time>2023-08-17T13:48:00Z</time>
      </trkpt>
      <trkpt lat="56.054478026926517" lon="-3.301679017022252">
        <ele>30.420000000000002</ele>
        <time>2023-08-17T13:48:01Z</time>
      </trkpt>
      <trkpt lat="56.054594032466412" lon="-3.301806002855301">
        <ele>30.899999999999999</ele>
        <time>2023-08-17T13:48:03Z</time>
      </trkpt>
      <trkpt lat="56.05463501997292" lon="-3.3018250297755">
        <ele>30.899999999999999</ele>
        <time>2023-08-17T13:48:04Z</time>
      </trkpt>
      <trkpt lat="56.054698973894119" lon="-3.301833998411894">
        <ele>30.899999999999999</ele>
        <time>2023-08-17T13:48:05Z</time>
      </trkpt>
      <trkpt lat="56.054756976664066" lon="-3.301841961219907">
        <ele>30.899999999999999</ele>
        <time>2023-08-17T13:48:06Z</time>
      </trkpt>
      <trkpt lat="56.054811039939523" lon="-3.301787981763482">
        <ele>31.379999999999999</ele>
        <time>2023-08-17T13:48:07Z</time>
      </trkpt>
      <trkpt lat="56.054857978597283" lon="-3.301697038114071">
        <ele>31.379999999999999</ele>
        <time>2023-08-17T13:48:08Z</time>
      </trkpt>
      <trkpt lat="56.054894020780921" lon="-3.301556976512075">
        <ele>31.379999999999999</ele>
        <time>2023-08-17T13:48:09Z</time>
      </trkpt>
      <trkpt lat="56.054931990802288" lon="-3.301408030092716">
        <ele>31.379999999999999</ele>
        <time>2023-08-17T13:48:10Z</time>
      </trkpt>
      <trkpt lat="56.05500197969377" lon="-3.301131008192897">
        <ele>30.420000000000002</ele>
        <time>2023-08-17T13:48:12Z</time>
      </trkpt>
      <trkpt lat="56.055031986907125" lon="-3.301012990996242">
        <ele>29.940000000000001</ele>
        <time>2023-08-17T13:48:13Z</time>
      </trkpt>
      <trkpt lat="56.055153021588922" lon="-3.300547040998936">
        <ele>28.02</ele>
        <time>2023-08-17T13:48:17Z</time>
      </trkpt>
      <trkpt lat="56.055177999660373" lon="-3.30047101713717">
        <ele>27.530000000000001</ele>
        <time>2023-08-17T13:48:18Z</time>
      </trkpt>
      <trkpt lat="56.055199038237333" lon="-3.300409996882081">
        <ele>27.050000000000001</ele>
        <time>2023-08-17T13:48:19Z</time>
      </trkpt>
      <trkpt lat="56.055247988551855" lon="-3.300262978300452">
        <ele>26.09</ele>
        <time>2023-08-17T13:48:21Z</time>
      </trkpt>
      <trkpt lat="56.055284030735493" lon="-3.300155019387603">
        <ele>25.609999999999999</ele>
        <time>2023-08-17T13:48:22Z</time>
      </trkpt>
      <trkpt lat="56.055507995188236" lon="-3.29948203638196">
        <ele>23.690000000000001</ele>
        <time>2023-08-17T13:48:27Z</time>
      </trkpt>
      <trkpt lat="56.055546971037984" lon="-3.299382962286472">
        <ele>23.690000000000001</ele>
        <time>2023-08-17T13:48:28Z</time>
      </trkpt>
      <trkpt lat="56.055596005171537" lon="-3.299258993938565">
        <ele>23.690000000000001</ele>
        <time>2023-08-17T13:48:29Z</time>
      </trkpt>
      <trkpt lat="56.056059021502733" lon="-3.298164987936616">
        <ele>25.609999999999999</ele>
        <time>2023-08-17T13:48:39Z</time>
      </trkpt>
      <trkpt lat="56.056110989302397" lon="-3.298048982396722">
        <ele>26.09</ele>
        <time>2023-08-17T13:48:40Z</time>
      </trkpt>
      <trkpt lat="56.056163962930441" lon="-3.297930965200067">
        <ele>26.57</ele>
        <time>2023-08-17T13:48:41Z</time>
      </trkpt>
      <trkpt lat="56.05635398067534" lon="-3.29750700853765">
        <ele>28.02</ele>
        <time>2023-08-17T13:48:45Z</time>
      </trkpt>
      <trkpt lat="56.056579034775496" lon="-3.296985989436507">
        <ele>30.420000000000002</ele>
        <time>2023-08-17T13:48:51Z</time>
      </trkpt>
      <trkpt lat="56.056773997843266" lon="-3.296523978933692">
        <ele>31.859999999999999</ele>
        <time>2023-08-17T13:48:56Z</time>
      </trkpt>
      <trkpt lat="56.056816997006536" lon="-3.296420965343714">
        <ele>32.340000000000003</ele>
        <time>2023-08-17T13:48:57Z</time>
      </trkpt>
      <trkpt lat="56.057258974760771" lon="-3.295341962948442">
        <ele>34.740000000000002</ele>
        <time>2023-08-17T13:49:07Z</time>
      </trkpt>
      <trkpt lat="56.057308008894324" lon="-3.295222017914057">
        <ele>35.710000000000001</ele>
        <time>2023-08-17T13:49:08Z</time>
      </trkpt>
      <trkpt lat="56.057960959151387" lon="-3.293628031387925">
        <ele>40.990000000000002</ele>
        <time>2023-08-17T13:49:21Z</time>
      </trkpt>
      <trkpt lat="56.058839969336987" lon="-3.291902029886842">
        <ele>45.799999999999997</ele>
        <time>2023-08-17T13:49:35Z</time>
      </trkpt>
      <trkpt lat="56.059228973463178" lon="-3.290724037215114">
        <ele>51.57</ele>
        <time>2023-08-17T13:49:41Z</time>
      </trkpt>
      <trkpt lat="56.059241965413094" lon="-3.290640972554684">
        <ele>52.530000000000001</ele>
        <time>2023-08-17T13:49:42Z</time>
      </trkpt>
      <trkpt lat="56.059203995391726" lon="-3.29046000726521">
        <ele>53.969999999999999</ele>
        <time>2023-08-17T13:49:43Z</time>
      </trkpt>
      <trkpt lat="56.059164013713598" lon="-3.290268983691931">
        <ele>55.409999999999997</ele>
        <time>2023-08-17T13:49:44Z</time>
      </trkpt>
      <trkpt lat="56.059135012328625" lon="-3.290125988423824">
        <ele>56.369999999999997</ele>
        <time>2023-08-17T13:49:45Z</time>
      </trkpt>
      <trkpt lat="56.059044990688562" lon="-3.289933959022164">
        <ele>57.340000000000003</ele>
        <time>2023-08-17T13:49:46Z</time>
      </trkpt>
      <trkpt lat="56.058578034862876" lon="-3.28895403072238">
        <ele>63.100000000000001</ele>
        <time>2023-08-17T13:49:51Z</time>
      </trkpt>
      <trkpt lat="56.058398997411132" lon="-3.288583969697356">
        <ele>65.030000000000001</ele>
        <time>2023-08-17T13:49:53Z</time>
      </trkpt>
      <trkpt lat="56.058096997439861" lon="-3.287895983085036">
        <ele>67.909999999999997</ele>
        <time>2023-08-17T13:49:57Z</time>
      </trkpt>
      <trkpt lat="56.058016028255224" lon="-3.287685010582209">
        <ele>68.390000000000001</ele>
        <time>2023-08-17T13:49:58Z</time>
      </trkpt>
      <trkpt lat="56.057963976636529" lon="-3.287415029481053">
        <ele>69.349999999999994</ele>
        <time>2023-08-17T13:49:59Z</time>
      </trkpt>
      <trkpt lat="56.057929024100304" lon="-3.287174971774221">
        <ele>69.829999999999998</ele>
        <time>2023-08-17T13:50:00Z</time>
      </trkpt>
      <trkpt lat="56.057906979694963" lon="-3.286919994279742">
        <ele>70.310000000000002</ele>
        <time>2023-08-17T13:50:01Z</time>
      </trkpt>
      <trkpt lat="56.05790002271533" lon="-3.286673985421658">
        <ele>70.790000000000006</ele>
        <time>2023-08-17T13:50:02Z</time>
      </trkpt>
      <trkpt lat="56.057889964431524" lon="-3.286370979622006">
        <ele>71.760000000000005</ele>
        <time>2023-08-17T13:50:03Z</time>
      </trkpt>
      <trkpt lat="56.057906979694963" lon="-3.286154977977276">
        <ele>72.719999999999999</ele>
        <time>2023-08-17T13:50:04Z</time>
      </trkpt>
      <trkpt lat="56.058151982724667" lon="-3.283715005964041">
        <ele>80.890000000000001</ele>
        <time>2023-08-17T13:50:14Z</time>
      </trkpt>
      <trkpt lat="56.058611981570721" lon="-3.280612025409937">
        <ele>84.25</ele>
        <time>2023-08-17T13:50:26Z</time>
      </trkpt>
      <trkpt lat="56.059097964316607" lon="-3.277445007115603">
        <ele>82.810000000000002</ele>
        <time>2023-08-17T13:50:37Z</time>
      </trkpt>
      <trkpt lat="56.059197038412094" lon="-3.276958018541336">
        <ele>82.810000000000002</ele>
        <time>2023-08-17T13:50:39Z</time>
      </trkpt>
      <trkpt lat="56.059256969019771" lon="-3.276742016896606">
        <ele>82.810000000000002</ele>
        <time>2023-08-17T13:50:40Z</time>
      </trkpt>
      <trkpt lat="56.059328969568014" lon="-3.276541018858552">
        <ele>83.290000000000006</ele>
        <time>2023-08-17T13:50:41Z</time>
      </trkpt>
      <trkpt lat="56.059398958459496" lon="-3.27634597197175">
        <ele>83.290000000000006</ele>
        <time>2023-08-17T13:50:42Z</time>
      </trkpt>
      <trkpt lat="56.05946802534163" lon="-3.276156038045883">
        <ele>83.290000000000006</ele>
        <time>2023-08-17T13:50:43Z</time>
      </trkpt>
      <trkpt lat="56.059534996747971" lon="-3.275944981724024">
        <ele>83.769999999999996</ele>
        <time>2023-08-17T13:50:44Z</time>
      </trkpt>
      <trkpt lat="56.059586964547634" lon="-3.275714982300997">
        <ele>83.290000000000006</ele>
        <time>2023-08-17T13:50:45Z</time>
      </trkpt>
      <trkpt lat="56.059876978397369" lon="-3.273732997477055">
        <ele>80.890000000000001</ele>
        <time>2023-08-17T13:50:52Z</time>
      </trkpt>
      <trkpt lat="56.060187024995685" lon="-3.271482037380338">
        <ele>77.040000000000006</ele>
        <time>2023-08-17T13:51:00Z</time>
      </trkpt>
      <trkpt lat="56.060351980850101" lon="-3.270144034177065">
        <ele>75.120000000000005</ele>
        <time>2023-08-17T13:51:05Z</time>
      </trkpt>
      <trkpt lat="56.060376958921552" lon="-3.2698779925704">
        <ele>75.120000000000005</ele>
        <time>2023-08-17T13:51:06Z</time>
      </trkpt>
      <trkpt lat="56.060569994151592" lon="-3.267671037465334">
        <ele>70.790000000000006</ele>
        <time>2023-08-17T13:51:14Z</time>
      </trkpt>
      <trkpt lat="56.060604024678469" lon="-3.267397033050656">
        <ele>70.310000000000002</ele>
        <time>2023-08-17T13:51:15Z</time>
      </trkpt>
      <trkpt lat="56.060659009963274" lon="-3.266835026443005">
        <ele>68.390000000000001</ele>
        <time>2023-08-17T13:51:17Z</time>
      </trkpt>
      <trkpt lat="56.060690023005009" lon="-3.264308972284198">
        <ele>56.369999999999997</ele>
        <time>2023-08-17T13:51:26Z</time>
      </trkpt>
      <trkpt lat="56.060712989419699" lon="-3.263326026499271">
        <ele>52.049999999999997</ele>
        <time>2023-08-17T13:51:30Z</time>
      </trkpt>
      <trkpt lat="56.060732016339898" lon="-3.263093009591103">
        <ele>50.609999999999999</ele>
        <time>2023-08-17T13:51:31Z</time>
      </trkpt>
      <trkpt lat="56.060763029381633" lon="-3.26285102404654">
        <ele>49.649999999999999</ele>
        <time>2023-08-17T13:51:32Z</time>
      </trkpt>
      <trkpt lat="56.060870988294482" lon="-3.262374009937048">
        <ele>48.200000000000003</ele>
        <time>2023-08-17T13:51:34Z</time>
      </trkpt>
      <trkpt lat="56.061482029035687" lon="-3.260199995711446">
        <ele>48.200000000000003</ele>
        <time>2023-08-17T13:51:43Z</time>
      </trkpt>
      <trkpt lat="56.061585964635015" lon="-3.259694986045361">
        <ele>49.159999999999997</ele>
        <time>2023-08-17T13:51:45Z</time>
      </trkpt>
      <trkpt lat="56.062034983187914" lon="-3.256997019052506">
        <ele>53.969999999999999</ele>
        <time>2023-08-17T13:51:54Z</time>
      </trkpt>
      <trkpt lat="56.062430022284389" lon="-3.254446992650628">
        <ele>55.890000000000001</ele>
        <time>2023-08-17T13:52:02Z</time>
      </trkpt>
      <trkpt lat="56.062729004770517" lon="-3.252668017521501">
        <ele>60.219999999999999</ele>
        <time>2023-08-17T13:52:09Z</time>
      </trkpt>
      <trkpt lat="56.062969984486699" lon="-3.250720985233784">
        <ele>60.700000000000003</ele>
        <time>2023-08-17T13:52:16Z</time>
      </trkpt>
      <trkpt lat="56.063177017495036" lon="-3.249126998707652">
        <ele>56.859999999999999</ele>
        <time>2023-08-17T13:52:23Z</time>
      </trkpt>
      <trkpt lat="56.063302997499704" lon="-3.248423002660275">
        <ele>54.93</ele>
        <time>2023-08-17T13:52:27Z</time>
      </trkpt>
      <trkpt lat="56.063341973349452" lon="-3.248231979086995">
        <ele>54.450000000000003</ele>
        <time>2023-08-17T13:52:28Z</time>
      </trkpt>
      <trkpt lat="56.063607009127736" lon="-3.246071962639689">
        <ele>49.649999999999999</ele>
        <time>2023-08-17T13:52:40Z</time>
      </trkpt>
      <trkpt lat="56.063639027997851" lon="-3.245524959638715">
        <ele>48.68</ele>
        <time>2023-08-17T13:52:43Z</time>
      </trkpt>
      <trkpt lat="56.063621006906033" lon="-3.245313987135887">
        <ele>47.719999999999999</ele>
        <time>2023-08-17T13:52:44Z</time>
      </trkpt>
      <trkpt lat="56.063448004424572" lon="-3.243735004216433">
        <ele>40.509999999999998</ele>
        <time>2023-08-17T13:52:52Z</time>
      </trkpt>
      <trkpt lat="56.063454039394855" lon="-3.243556972593069">
        <ele>39.549999999999997</ele>
        <time>2023-08-17T13:52:53Z</time>
      </trkpt>
      <trkpt lat="56.063460996374488" lon="-3.243353962898254">
        <ele>38.590000000000003</ele>
        <time>2023-08-17T13:52:54Z</time>
      </trkpt>
      <trkpt lat="56.063532996922731" lon="-3.242340004071593">
        <ele>33.780000000000001</ele>
        <time>2023-08-17T13:52:59Z</time>
      </trkpt>
      <trkpt lat="56.063526961952448" lon="-3.242178987711668">
        <ele>32.82</ele>
        <time>2023-08-17T13:53:00Z</time>
      </trkpt>
      <trkpt lat="56.063517993316054" lon="-3.241995004937053">
        <ele>31.859999999999999</ele>
        <time>2023-08-17T13:53:01Z</time>
      </trkpt>
      <trkpt lat="56.063502989709377" lon="-3.241806998848915">
        <ele>30.899999999999999</ele>
        <time>2023-08-17T13:53:02Z</time>
      </trkpt>
      <trkpt lat="56.063463008031249" lon="-3.241639025509358">
        <ele>30.420000000000002</ele>
        <time>2023-08-17T13:53:03Z</time>
      </trkpt>
      <trkpt lat="56.063424032181501" lon="-3.24147398583591">
        <ele>29.460000000000001</ele>
        <time>2023-08-17T13:53:04Z</time>
      </trkpt>
      <trkpt lat="56.063267039135098" lon="-3.240809971466661">
        <ele>27.530000000000001</ele>
        <time>2023-08-17T13:53:09Z</time>
      </trkpt>
      <trkpt lat="56.063233008608222" lon="-3.240665970370174">
        <ele>26.09</ele>
        <time>2023-08-17T13:53:11Z</time>
      </trkpt>
      <trkpt lat="56.063201995566487" lon="-3.240139000117779">
        <ele>25.609999999999999</ele>
        <time>2023-08-17T13:53:14Z</time>
      </trkpt>
      <trkpt lat="56.063208030536771" lon="-3.240015031769872">
        <ele>25.129999999999999</ele>
        <time>2023-08-17T13:53:15Z</time>
      </trkpt>
      <trkpt lat="56.063265027478337" lon="-3.238825974985957">
        <ele>20.809999999999999</ele>
        <time>2023-08-17T13:53:26Z</time>
      </trkpt>
      <trkpt lat="56.063265027478337" lon="-3.238372011110187">
        <ele>19.84</ele>
        <time>2023-08-17T13:53:31Z</time>
      </trkpt>
      <trkpt lat="56.063261004164815" lon="-3.238275032490492">
        <ele>19.359999999999999</ele>
        <time>2023-08-17T13:53:32Z</time>
      </trkpt>
      <trkpt lat="56.063255975022912" lon="-3.238171013072133">
        <ele>18.879999999999999</ele>
        <time>2023-08-17T13:53:33Z</time>
      </trkpt>
      <trkpt lat="56.063226973637938" lon="-3.237968003377318">
        <ele>18.399999999999999</ele>
        <time>2023-08-17T13:53:35Z</time>
      </trkpt>
      <trkpt lat="56.063069980591536" lon="-3.23702797293663">
        <ele>18.879999999999999</ele>
        <time>2023-08-17T13:53:43Z</time>
      </trkpt>
      <trkpt lat="56.063072998076677" lon="-3.235217984765768">
        <ele>23.210000000000001</ele>
        <time>2023-08-17T13:53:55Z</time>
      </trkpt>
      <trkpt lat="56.063084984198213" lon="-3.234860999509692">
        <ele>24.170000000000002</ele>
        <time>2023-08-17T13:53:57Z</time>
      </trkpt>
      <trkpt lat="56.063230996951461" lon="-3.234131019562483">
        <ele>25.609999999999999</ele>
        <time>2023-08-17T13:54:01Z</time>
      </trkpt>
      <trkpt lat="56.063649002462626" lon="-3.232230003923178">
        <ele>28.02</ele>
        <time>2023-08-17T13:54:12Z</time>
      </trkpt>
      <trkpt lat="56.063900962471962" lon="-3.230732996016741">
        <ele>27.530000000000001</ele>
        <time>2023-08-17T13:54:23Z</time>
      </trkpt>
      <trkpt lat="56.063925018534064" lon="-3.230603998526931">
        <ele>28.02</ele>
        <time>2023-08-17T13:54:24Z</time>
      </trkpt>
      <trkpt lat="56.063947984948754" lon="-3.230481036007404">
        <ele>28.02</ele>
        <time>2023-08-17T13:54:25Z</time>
      </trkpt>
      <trkpt lat="56.063994001597166" lon="-3.230232009664178">
        <ele>27.530000000000001</ele>
        <time>2023-08-17T13:54:27Z</time>
      </trkpt>
      <trkpt lat="56.064077988266945" lon="-3.230024976655841">
        <ele>27.530000000000001</ele>
        <time>2023-08-17T13:54:29Z</time>
      </trkpt>
      <trkpt lat="56.064070025458932" lon="-3.229959011077881">
        <ele>28.02</ele>
        <time>2023-08-17T13:54:30Z</time>
      </trkpt>
      <trkpt lat="56.063994001597166" lon="-3.229932021349669">
        <ele>27.530000000000001</ele>
        <time>2023-08-17T13:54:31Z</time>
      </trkpt>
      <trkpt lat="56.06396097689867" lon="-3.22984904050827">
        <ele>28.02</ele>
        <time>2023-08-17T13:54:32Z</time>
      </trkpt>
      <trkpt lat="56.063924012705684" lon="-3.229758013039827">
        <ele>28.02</ele>
        <time>2023-08-17T13:54:33Z</time>
      </trkpt>
      <trkpt lat="56.063712034374475" lon="-3.229283010587096">
        <ele>28.02</ele>
        <time>2023-08-17T13:54:38Z</time>
      </trkpt>
      <trkpt lat="56.063663000240922" lon="-3.229200029745698">
        <ele>28.02</ele>
        <time>2023-08-17T13:54:39Z</time>
      </trkpt>
      <trkpt lat="56.063612960278988" lon="-3.229115037247539">
        <ele>28.02</ele>
        <time>2023-08-17T13:54:40Z</time>
      </trkpt>
      <trkpt lat="56.063496032729745" lon="-3.228915967047215">
        <ele>27.530000000000001</ele>
        <time>2023-08-17T13:54:42Z</time>
      </trkpt>
      <trkpt lat="56.063345996662974" lon="-3.22879702784121">
        <ele>26.57</ele>
        <time>2023-08-17T13:54:44Z</time>
      </trkpt>
      <trkpt lat="56.062980964779854" lon="-3.228613967075944">
        <ele>23.210000000000001</ele>
        <time>2023-08-17T13:54:49Z</time>
      </trkpt>
      <trkpt lat="56.062922962009907" lon="-3.228607010096312">
        <ele>22.73</ele>
        <time>2023-08-17T13:54:50Z</time>
      </trkpt>
      <trkpt lat="56.06265096925199" lon="-3.228671969845891">
        <ele>20.809999999999999</ele>
        <time>2023-08-17T13:54:54Z</time>
      </trkpt>
      <trkpt lat="56.062580980360508" lon="-3.228713041171432">
        <ele>20.32</ele>
        <time>2023-08-17T13:54:55Z</time>
      </trkpt>
      <trkpt lat="56.062508979812264" lon="-3.228755034506321">
        <ele>20.32</ele>
        <time>2023-08-17T13:54:56Z</time>
      </trkpt>
      <trkpt lat="56.061598034575582" lon="-3.229469005018473">
        <ele>21.289999999999999</ele>
        <time>2023-08-17T13:55:08Z</time>
      </trkpt>
      <trkpt lat="56.06080200523138" lon="-3.230051966384053">
        <ele>15.52</ele>
        <time>2023-08-17T13:55:18Z</time>
      </trkpt>
      <trkpt lat="56.060518026351929" lon="-3.230220023542643">
        <ele>13.119999999999999</ele>
        <time>2023-08-17T13:55:22Z</time>
      </trkpt>
      <trkpt lat="56.060468992218375" lon="-3.230232009664178">
        <ele>12.630000000000001</ele>
        <time>2023-08-17T13:55:23Z</time>
      </trkpt>
      <trkpt lat="56.060428004711866" lon="-3.230219017714262">
        <ele>12.630000000000001</ele>
        <time>2023-08-17T13:55:24Z</time>
      </trkpt>
      <trkpt lat="56.060348963364959" lon="-3.230136036872864">
        <ele>12.15</ele>
        <time>2023-08-17T13:55:25Z</time>
      </trkpt>
      <trkpt lat="56.060403026640415" lon="-3.229952976107597">
        <ele>11.67</ele>
        <time>2023-08-17T13:55:26Z</time>
      </trkpt>
      <trkpt lat="56.060453988611698" lon="-3.229882987216115">
        <ele>11.67</ele>
        <time>2023-08-17T13:55:27Z</time>
      </trkpt>
      <trkpt lat="56.060515008866787" lon="-3.229797994717956">
        <ele>11.19</ele>
        <time>2023-08-17T13:55:28Z</time>
      </trkpt>
      <trkpt lat="56.060584997758269" lon="-3.229702021926642">
        <ele>11.19</ele>
        <time>2023-08-17T13:55:29Z</time>
      </trkpt>
      <trkpt lat="56.060658004134893" lon="-3.229601019993424">
        <ele>10.710000000000001</ele>
        <time>2023-08-17T13:55:30Z</time>
      </trkpt>
      <trkpt lat="56.060733022168279" lon="-3.229499012231827">
        <ele>10.710000000000001</ele>
        <time>2023-08-17T13:55:31Z</time>
      </trkpt>
      <trkpt lat="56.061566015705466" lon="-3.228248013183475">
        <ele>9.27</ele>
        <time>2023-08-17T13:55:42Z</time>
      </trkpt>
      <trkpt lat="56.06209198012948" lon="-3.226933982223272">
        <ele>11.19</ele>
        <time>2023-08-17T13:55:52Z</time>
      </trkpt>
      <trkpt lat="56.062118969857693" lon="-3.226844966411591">
        <ele>11.19</ele>
        <time>2023-08-17T13:55:53Z</time>
      </trkpt>
      <trkpt lat="56.062141014263034" lon="-3.226772965863347">
        <ele>11.67</ele>
        <time>2023-08-17T13:55:54Z</time>
      </trkpt>
      <trkpt lat="56.062187030911446" lon="-3.226625025272369">
        <ele>14.08</ele>
        <time>2023-08-17T13:56:03Z</time>
      </trkpt>
      <trkpt lat="56.062187030911446" lon="-3.226625025272369">
        <ele>14.56</ele>
        <time>2023-08-17T13:56:28Z</time>
      </trkpt>
      <trkpt lat="56.062187030911446" lon="-3.226625025272369">
        <ele>15.039999999999999</ele>
        <time>2023-08-17T13:57:14Z</time>
      </trkpt>
      <trkpt lat="56.062187030911446" lon="-3.226625025272369">
        <ele>15.039999999999999</ele>
        <time>2023-08-17T13:57:49Z</time>
      </trkpt>
      <trkpt lat="56.0621980112046" lon="-3.226604992523789">
        <ele>10.710000000000001</ele>
        <time>2023-08-17T14:21:33Z</time>
      </trkpt>
      <trkpt lat="56.062193987891078" lon="-3.226619996130467">
        <ele>14.56</ele>
        <time>2023-08-17T14:22:10Z</time>
      </trkpt>
      <trkpt lat="56.062178984284401" lon="-3.226584959775209">
        <ele>16.48</ele>
        <time>2023-08-17T14:22:52Z</time>
      </trkpt>
      <trkpt lat="56.062183007597923" lon="-3.226568028330803">
        <ele>19.359999999999999</ele>
        <time>2023-08-17T14:23:35Z</time>
      </trkpt>
      <trkpt lat="56.062186025083065" lon="-3.226575991138816">
        <ele>19.359999999999999</ele>
        <time>2023-08-17T14:24:23Z</time>
      </trkpt>
      <trkpt lat="56.062186025083065" lon="-3.226575991138816">
        <ele>19.359999999999999</ele>
        <time>2023-08-17T14:24:35Z</time>
      </trkpt>
      <trkpt lat="56.062212008982897" lon="-3.226544978097081">
        <ele>18.879999999999999</ele>
        <time>2023-08-17T14:24:37Z</time>
      </trkpt>
      <trkpt lat="56.062237992882729" lon="-3.226460991427302">
        <ele>18.879999999999999</ele>
        <time>2023-08-17T14:24:38Z</time>
      </trkpt>
      <trkpt lat="56.062654992565513" lon="-3.225131034851074">
        <ele>14.56</ele>
        <time>2023-08-17T14:24:48Z</time>
      </trkpt>
      <trkpt lat="56.063192021101713" lon="-3.223402015864849">
        <ele>13.6</ele>
        <time>2023-08-17T14:25:00Z</time>
      </trkpt>
      <trkpt lat="56.063780011609197" lon="-3.221506029367447">
        <ele>12.630000000000001</ele>
        <time>2023-08-17T14:25:13Z</time>
      </trkpt>
      <trkpt lat="56.06393801048398" lon="-3.220900017768145">
        <ele>12.630000000000001</ele>
        <time>2023-08-17T14:25:18Z</time>
      </trkpt>
      <trkpt lat="56.06421603821218" lon="-3.219106961041689">
        <ele>10.710000000000001</ele>
        <time>2023-08-17T14:25:28Z</time>
      </trkpt>
      <trkpt lat="56.064228024333715" lon="-3.218917027115822">
        <ele>10.710000000000001</ele>
        <time>2023-08-17T14:25:29Z</time>
      </trkpt>
      <trkpt lat="56.064308993518353" lon="-3.216617032885552">
        <ele>9.75</ele>
        <time>2023-08-17T14:25:42Z</time>
      </trkpt>
      <trkpt lat="56.064373031258583" lon="-3.214216036722064">
        <ele>8.789999999999999</ele>
        <time>2023-08-17T14:25:53Z</time>
      </trkpt>
      <trkpt lat="56.064461963251233" lon="-3.211297960951924">
        <ele>7.35</ele>
        <time>2023-08-17T14:26:08Z</time>
      </trkpt>
      <trkpt lat="56.064530024304986" lon="-3.209259985014796">
        <ele>8.310000000000001</ele>
        <time>2023-08-17T14:26:18Z</time>
      </trkpt>
      <trkpt lat="56.064713001251221" lon="-3.206480965018272">
        <ele>8.310000000000001</ele>
        <time>2023-08-17T14:26:29Z</time>
      </trkpt>
      <trkpt lat="56.064967978745699" lon="-3.203980978578329">
        <ele>9.27</ele>
        <time>2023-08-17T14:26:39Z</time>
      </trkpt>
      <trkpt lat="56.064954986795783" lon="-3.203769000247121">
        <ele>9.27</ele>
        <time>2023-08-17T14:26:40Z</time>
      </trkpt>
      <trkpt lat="56.06492598541081" lon="-3.203550986945629">
        <ele>9.27</ele>
        <time>2023-08-17T14:26:41Z</time>
      </trkpt>
      <trkpt lat="56.064478978514671" lon="-3.200801974162459">
        <ele>12.630000000000001</ele>
        <time>2023-08-17T14:26:52Z</time>
      </trkpt>
      <trkpt lat="56.064115958288312" lon="-3.19824599660933">
        <ele>16.48</ele>
        <time>2023-08-17T14:27:02Z</time>
      </trkpt>
      <trkpt lat="56.063842959702015" lon="-3.195230020210147">
        <ele>20.809999999999999</ele>
        <time>2023-08-17T14:27:13Z</time>
      </trkpt>
      <trkpt lat="56.063966006040573" lon="-3.192647974938154">
        <ele>28.02</ele>
        <time>2023-08-17T14:27:24Z</time>
      </trkpt>
      <trkpt lat="56.064230035990477" lon="-3.189356988295913">
        <ele>33.299999999999997</ele>
        <time>2023-08-17T14:27:37Z</time>
      </trkpt>
      <trkpt lat="56.064823977649212" lon="-3.186963032931089">
        <ele>34.740000000000002</ele>
        <time>2023-08-17T14:27:47Z</time>
      </trkpt>
      <trkpt lat="56.065412973985076" lon="-3.184726992622018">
        <ele>36.189999999999998</ele>
        <time>2023-08-17T14:27:57Z</time>
      </trkpt>
      <trkpt lat="56.065851012244821" lon="-3.182350974529982">
        <ele>38.109999999999999</ele>
        <time>2023-08-17T14:28:11Z</time>
      </trkpt>
      <trkpt lat="56.066145971417427" lon="-3.180954968556762">
        <ele>40.030000000000001</ele>
        <time>2023-08-17T14:28:20Z</time>
      </trkpt>
      <trkpt lat="56.066597001627088" lon="-3.179514035582542">
        <ele>41.469999999999999</ele>
        <time>2023-08-17T14:28:30Z</time>
      </trkpt>
      <trkpt lat="56.066743014380336" lon="-3.179157972335815">
        <ele>41.950000000000003</ele>
        <time>2023-08-17T14:28:33Z</time>
      </trkpt>
      <trkpt lat="56.067605009302497" lon="-3.177962964400649">
        <ele>42.439999999999998</ele>
        <time>2023-08-17T14:28:46Z</time>
      </trkpt>
      <trkpt lat="56.067983033135533" lon="-3.17751201801002">
        <ele>40.990000000000002</ele>
        <time>2023-08-17T14:28:51Z</time>
      </trkpt>
      <trkpt lat="56.068059979006648" lon="-3.177420990541577">
        <ele>40.990000000000002</ele>
        <time>2023-08-17T14:28:52Z</time>
      </trkpt>
      <trkpt lat="56.069206958636642" lon="-3.176035964861512">
        <ele>34.740000000000002</ele>
        <time>2023-08-17T14:29:07Z</time>
      </trkpt>
      <trkpt lat="56.06950200162828" lon="-3.175691971555352">
        <ele>33.299999999999997</ele>
        <time>2023-08-17T14:29:12Z</time>
      </trkpt>
      <trkpt lat="56.070414036512375" lon="-3.174628978595138">
        <ele>29.460000000000001</ele>
        <time>2023-08-17T14:29:25Z</time>
      </trkpt>
      <trkpt lat="56.070493999868631" lon="-3.174563013017178">
        <ele>28.98</ele>
        <time>2023-08-17T14:29:26Z</time>
      </trkpt>
      <trkpt lat="56.070654010400176" lon="-3.174436027184129">
        <ele>28.5</ele>
        <time>2023-08-17T14:29:28Z</time>
      </trkpt>
      <trkpt lat="56.070731962099671" lon="-3.17437500692904">
        <ele>28.02</ele>
        <time>2023-08-17T14:29:29Z</time>
      </trkpt>
      <trkpt lat="56.070829024538398" lon="-3.174297977238894">
        <ele>28.02</ele>
        <time>2023-08-17T14:29:30Z</time>
      </trkpt>
      <trkpt lat="56.07124200090766" lon="-3.174204016104341">
        <ele>28.5</ele>
        <time>2023-08-17T14:29:35Z</time>
      </trkpt>
      <trkpt lat="56.071318024769425" lon="-3.174173003062606">
        <ele>28.5</ele>
        <time>2023-08-17T14:29:36Z</time>
      </trkpt>
      <trkpt lat="56.071461020037532" lon="-3.174018021672964">
        <ele>28.98</ele>
        <time>2023-08-17T14:29:38Z</time>
      </trkpt>
      <trkpt lat="56.071797972545028" lon="-3.173652989789844">
        <ele>30.899999999999999</ele>
        <time>2023-08-17T14:29:42Z</time>
      </trkpt>
      <trkpt lat="56.072662984952331" lon="-3.172825025394559">
        <ele>34.259999999999998</ele>
        <time>2023-08-17T14:29:53Z</time>
      </trkpt>
      <trkpt lat="56.07274797745049" lon="-3.172753024846315">
        <ele>35.229999999999997</ele>
        <time>2023-08-17T14:29:55Z</time>
      </trkpt>
      <trkpt lat="56.072923997417092" lon="-3.172776997089386">
        <ele>35.229999999999997</ele>
        <time>2023-08-17T14:29:56Z</time>
      </trkpt>
      <trkpt lat="56.073854975402355" lon="-3.173096012324095">
        <ele>40.030000000000001</ele>
        <time>2023-08-17T14:30:08Z</time>
      </trkpt>
      <trkpt lat="56.07395295985043" lon="-3.173096012324095">
        <ele>40.509999999999998</ele>
        <time>2023-08-17T14:30:09Z</time>
      </trkpt>
      <trkpt lat="56.074471967294812" lon="-3.173019988462329">
        <ele>43.399999999999999</ele>
        <time>2023-08-17T14:30:14Z</time>
      </trkpt>
      <trkpt lat="56.075028022751212" lon="-3.172961985692382">
        <ele>45.799999999999997</ele>
        <time>2023-08-17T14:30:22Z</time>
      </trkpt>
      <trkpt lat="56.075893035158515" lon="-3.172819996252656">
        <ele>49.159999999999997</ele>
        <time>2023-08-17T14:30:30Z</time>
      </trkpt>
      <trkpt lat="56.075984984636307" lon="-3.172733997926116">
        <ele>49.159999999999997</ele>
        <time>2023-08-17T14:30:31Z</time>
      </trkpt>
      <trkpt lat="56.076082969084382" lon="-3.172641964629293">
        <ele>49.649999999999999</ele>
        <time>2023-08-17T14:30:32Z</time>
      </trkpt>
      <trkpt lat="56.076194029301405" lon="-3.172538029029965">
        <ele>49.649999999999999</ele>
        <time>2023-08-17T14:30:33Z</time>
      </trkpt>
      <trkpt lat="56.076278015971184" lon="-3.17239997908473">
        <ele>49.649999999999999</ele>
        <time>2023-08-17T14:30:34Z</time>
      </trkpt>
      <trkpt lat="56.076369965448976" lon="-3.172250026836991">
        <ele>50.130000000000003</ele>
        <time>2023-08-17T14:30:35Z</time>
      </trkpt>
      <trkpt lat="56.077179992571473" lon="-3.170756958425045">
        <ele>55.890000000000001</ele>
        <time>2023-08-17T14:30:43Z</time>
      </trkpt>
      <trkpt lat="56.078124968335032" lon="-3.168871030211449">
        <ele>53.009999999999998</ele>
        <time>2023-08-17T14:30:52Z</time>
      </trkpt>
      <trkpt lat="56.078900964930654" lon="-3.167980033904314">
        <ele>47.240000000000002</ele>
        <time>2023-08-17T14:30:58Z</time>
      </trkpt>
      <trkpt lat="56.079038009047508" lon="-3.167834021151066">
        <ele>46.759999999999998</ele>
        <time>2023-08-17T14:31:00Z</time>
      </trkpt>
      <trkpt lat="56.079713003709912" lon="-3.167593041434884">
        <ele>47.719999999999999</ele>
        <time>2023-08-17T14:31:04Z</time>
      </trkpt>
      <trkpt lat="56.080991998314857" lon="-3.16765196621418">
        <ele>56.859999999999999</ele>
        <time>2023-08-17T14:31:12Z</time>
      </trkpt>
      <trkpt lat="56.081387959420681" lon="-3.167574014514685">
        <ele>57.340000000000003</ele>
        <time>2023-08-17T14:31:14Z</time>
      </trkpt>
      <trkpt lat="56.08248095959425" lon="-3.167235972359777">
        <ele>53.490000000000002</ele>
        <time>2023-08-17T14:31:22Z</time>
      </trkpt>
      <trkpt lat="56.085040960460901" lon="-3.166973032057285">
        <ele>45.799999999999997</ele>
        <time>2023-08-17T14:31:36Z</time>
      </trkpt>
      <trkpt lat="56.086018038913608" lon="-3.166847974061966">
        <ele>43.399999999999999</ele>
        <time>2023-08-17T14:31:43Z</time>
      </trkpt>
      <trkpt lat="56.086329007521272" lon="-3.166783014312387">
        <ele>42.439999999999998</ele>
        <time>2023-08-17T14:31:44Z</time>
      </trkpt>
      <trkpt lat="56.086470996960998" lon="-3.166653010994196">
        <ele>40.030000000000001</ele>
        <time>2023-08-17T14:31:46Z</time>
      </trkpt>
      <trkpt lat="56.088376035913825" lon="-3.164898008108139">
        <ele>27.050000000000001</ele>
        <time>2023-08-17T14:31:58Z</time>
      </trkpt>
      <trkpt lat="56.089244987815619" lon="-3.164095021784306">
        <ele>22.25</ele>
        <time>2023-08-17T14:32:07Z</time>
      </trkpt>
      <trkpt lat="56.089411033317447" lon="-3.163969963788986">
        <ele>22.25</ele>
        <time>2023-08-17T14:32:08Z</time>
      </trkpt>
      <trkpt lat="56.089486973360181" lon="-3.163919001817703">
        <ele>22.25</ele>
        <time>2023-08-17T14:32:09Z</time>
      </trkpt>
      <trkpt lat="56.089625023305416" lon="-3.164003994315863">
        <ele>21.77</ele>
        <time>2023-08-17T14:32:11Z</time>
      </trkpt>
      <trkpt lat="56.089997012168169" lon="-3.164463993161917">
        <ele>20.809999999999999</ele>
        <time>2023-08-17T14:32:15Z</time>
      </trkpt>
      <trkpt lat="56.091204006224871" lon="-3.165233032777906">
        <ele>21.289999999999999</ele>
        <time>2023-08-17T14:32:27Z</time>
      </trkpt>
      <trkpt lat="56.09146099537611" lon="-3.165320036932826">
        <ele>21.77</ele>
        <time>2023-08-17T14:32:30Z</time>
      </trkpt>
      <trkpt lat="56.091545987874269" lon="-3.165344009175897">
        <ele>21.77</ele>
        <time>2023-08-17T14:32:31Z</time>
      </trkpt>
      <trkpt lat="56.091629974544048" lon="-3.165366975590587">
        <ele>22.25</ele>
        <time>2023-08-17T14:32:32Z</time>
      </trkpt>
      <trkpt lat="56.091795014217496" lon="-3.165412992238998">
        <ele>22.73</ele>
        <time>2023-08-17T14:32:34Z</time>
      </trkpt>
      <trkpt lat="56.091877995058894" lon="-3.165435958653688">
        <ele>23.210000000000001</ele>
        <time>2023-08-17T14:32:35Z</time>
      </trkpt>
      <trkpt lat="56.091956030577421" lon="-3.165628993883729">
        <ele>23.210000000000001</ele>
        <time>2023-08-17T14:32:36Z</time>
      </trkpt>
      <trkpt lat="56.092338999733329" lon="-3.165597980841994">
        <ele>23.690000000000001</ele>
        <time>2023-08-17T14:32:40Z</time>
      </trkpt>
      <trkpt lat="56.093280036002398" lon="-3.165274020284414">
        <ele>25.609999999999999</ele>
        <time>2023-08-17T14:32:50Z</time>
      </trkpt>
      <trkpt lat="56.094181006774306" lon="-3.165168995037675">
        <ele>26.57</ele>
        <time>2023-08-17T14:32:59Z</time>
      </trkpt>
      <trkpt lat="56.095331003889441" lon="-3.164987023919821">
        <ele>21.77</ele>
        <time>2023-08-17T14:33:09Z</time>
      </trkpt>
      <trkpt lat="56.095869960263371" lon="-3.164714025333524">
        <ele>20.32</ele>
        <time>2023-08-17T14:33:14Z</time>
      </trkpt>
      <trkpt lat="56.096621984615922" lon="-3.1644700281322">
        <ele>15.52</ele>
        <time>2023-08-17T14:33:22Z</time>
      </trkpt>
      <trkpt lat="56.096673030406237" lon="-3.1644700281322">
        <ele>15.039999999999999</ele>
        <time>2023-08-17T14:33:23Z</time>
      </trkpt>
      <trkpt lat="56.096792975440621" lon="-3.1644700281322">
        <ele>12.630000000000001</ele>
        <time>2023-08-17T14:33:31Z</time>
      </trkpt>
      <trkpt lat="56.096880985423923" lon="-3.1644700281322">
        <ele>12.15</ele>
        <time>2023-08-17T14:33:45Z</time>
      </trkpt>
      <trkpt lat="56.097206035628915" lon="-3.1644700281322">
        <ele>12.630000000000001</ele>
        <time>2023-08-17T14:33:50Z</time>
      </trkpt>
      <trkpt lat="56.097307959571481" lon="-3.1644700281322">
        <ele>12.630000000000001</ele>
        <time>2023-08-17T14:33:51Z</time>
      </trkpt>
      <trkpt lat="56.097354982048273" lon="-3.164455024525523">
        <ele>12.630000000000001</ele>
        <time>2023-08-17T14:33:52Z</time>
      </trkpt>
      <trkpt lat="56.097471993416548" lon="-3.16423499956727">
        <ele>12.630000000000001</ele>
        <time>2023-08-17T14:33:53Z</time>
      </trkpt>
      <trkpt lat="56.09749797731638" lon="-3.164088986814022">
        <ele>12.15</ele>
        <time>2023-08-17T14:33:55Z</time>
      </trkpt>
      <trkpt lat="56.097577018663287" lon="-3.163653966039419">
        <ele>11.19</ele>
        <time>2023-08-17T14:33:57Z</time>
      </trkpt>
      <trkpt lat="56.09803500585258" lon="-3.162334989756346">
        <ele>8.310000000000001</ele>
        <time>2023-08-17T14:34:06Z</time>
      </trkpt>
      <trkpt lat="56.098109018057585" lon="-3.162202974781394">
        <ele>8.310000000000001</ele>
        <time>2023-08-17T14:34:08Z</time>
      </trkpt>
      <trkpt lat="56.098263999447227" lon="-3.161972975358367">
        <ele>8.310000000000001</ele>
        <time>2023-08-17T14:34:10Z</time>
      </trkpt>
      <trkpt lat="56.098519982770085" lon="-3.161741970106959">
        <ele>8.310000000000001</ele>
        <time>2023-08-17T14:34:13Z</time>
      </trkpt>
      <trkpt lat="56.098717963322997" lon="-3.161676004528999">
        <ele>8.310000000000001</ele>
        <time>2023-08-17T14:34:15Z</time>
      </trkpt>
      <trkpt lat="56.100035011768341" lon="-3.161020958796144">
        <ele>11.19</ele>
        <time>2023-08-17T14:34:27Z</time>
      </trkpt>
      <trkpt lat="56.101256003603339" lon="-3.160201041027904">
        <ele>10.710000000000001</ele>
        <time>2023-08-17T14:34:39Z</time>
      </trkpt>
      <trkpt lat="56.102606998756528" lon="-3.159560998901725">
        <ele>11.19</ele>
        <time>2023-08-17T14:34:51Z</time>
      </trkpt>
      <trkpt lat="56.104338029399514" lon="-3.158761030063033">
        <ele>11.19</ele>
        <time>2023-08-17T14:35:05Z</time>
      </trkpt>
      <trkpt lat="56.106163021177053" lon="-3.158052004873753">
        <ele>12.15</ele>
        <time>2023-08-17T14:35:23Z</time>
      </trkpt>
      <trkpt lat="56.106253964826465" lon="-3.158015040680766">
        <ele>11.67</ele>
        <time>2023-08-17T14:35:32Z</time>
      </trkpt>
      <trkpt lat="56.106271985918283" lon="-3.158007999882102">
        <ele>11.67</ele>
        <time>2023-08-17T14:35:33Z</time>
      </trkpt>
      <trkpt lat="56.106312973424792" lon="-3.157990984618664">
        <ele>12.15</ele>
        <time>2023-08-17T14:35:34Z</time>
      </trkpt>
      <trkpt lat="56.10688503831625" lon="-3.157742964103818">
        <ele>12.15</ele>
        <time>2023-08-17T14:35:46Z</time>
      </trkpt>
      <trkpt lat="56.107411002740264" lon="-3.157502990216017">
        <ele>12.630000000000001</ele>
        <time>2023-08-17T14:35:55Z</time>
      </trkpt>
      <trkpt lat="56.10746699385345" lon="-3.157477006316185">
        <ele>12.630000000000001</ele>
        <time>2023-08-17T14:36:04Z</time>
      </trkpt>
      <trkpt lat="56.10748996026814" lon="-3.157467031851411">
        <ele>12.630000000000001</ele>
        <time>2023-08-17T14:36:22Z</time>
      </trkpt>
      <trkpt lat="56.107938978821039" lon="-3.157254969701171">
        <ele>12.15</ele>
        <time>2023-08-17T14:36:32Z</time>
      </trkpt>
      <trkpt lat="56.108839027583599" lon="-3.156795976683497">
        <ele>13.119999999999999</ele>
        <time>2023-08-17T14:36:43Z</time>
      </trkpt>
      <trkpt lat="56.109564984217286" lon="-3.156407978385687">
        <ele>13.6</ele>
        <time>2023-08-17T14:36:53Z</time>
      </trkpt>
      <trkpt lat="56.109867990016937" lon="-3.156231958419085">
        <ele>13.119999999999999</ele>
        <time>2023-08-17T14:37:05Z</time>
      </trkpt>
      <trkpt lat="56.109867990016937" lon="-3.156231958419085">
        <ele>13.119999999999999</ele>
        <time>2023-08-17T14:37:26Z</time>
      </trkpt>
      <trkpt lat="56.109920963644981" lon="-3.156200023368001">
        <ele>12.15</ele>
        <time>2023-08-17T14:37:42Z</time>
      </trkpt>
      <trkpt lat="56.110091032460332" lon="-3.156102038919926">
        <ele>12.15</ele>
        <time>2023-08-17T14:38:02Z</time>
      </trkpt>
      <trkpt lat="56.110524963587523" lon="-3.155845971778035">
        <ele>12.630000000000001</ele>
        <time>2023-08-17T14:38:13Z</time>
      </trkpt>
      <trkpt lat="56.1106660310179" lon="-3.155761985108256">
        <ele>13.119999999999999</ele>
        <time>2023-08-17T14:38:24Z</time>
      </trkpt>
      <trkpt lat="56.1106660310179" lon="-3.155761985108256">
        <ele>13.119999999999999</ele>
        <time>2023-08-17T14:39:05Z</time>
      </trkpt>
      <trkpt lat="56.110699977725744" lon="-3.155742036178708">
        <ele>13.119999999999999</ele>
        <time>2023-08-17T14:39:09Z</time>
      </trkpt>
      <trkpt lat="56.111104991286993" lon="-3.155500972643495">
        <ele>13.6</ele>
        <time>2023-08-17T14:39:17Z</time>
      </trkpt>
      <trkpt lat="56.111719971522689" lon="-3.155135018751025">
        <ele>13.6</ele>
        <time>2023-08-17T14:39:27Z</time>
      </trkpt>
      <trkpt lat="56.112393960356712" lon="-3.154670996591449">
        <ele>13.6</ele>
        <time>2023-08-17T14:39:36Z</time>
      </trkpt>
      <trkpt lat="56.112607028335333" lon="-3.154517021030188">
        <ele>13.119999999999999</ele>
        <time>2023-08-17T14:39:39Z</time>
      </trkpt>
      <trkpt lat="56.113404985517263" lon="-3.153999019414187">
        <ele>12.15</ele>
        <time>2023-08-17T14:39:48Z</time>
      </trkpt>
      <trkpt lat="56.114086015149951" lon="-3.15383498556912">
        <ele>12.15</ele>
        <time>2023-08-17T14:39:57Z</time>
      </trkpt>
      <trkpt lat="56.11485798843205" lon="-3.153064018115401">
        <ele>12.15</ele>
        <time>2023-08-17T14:40:05Z</time>
      </trkpt>
      <trkpt lat="56.115067033097148" lon="-3.152867965400219">
        <ele>12.15</ele>
        <time>2023-08-17T14:40:07Z</time>
      </trkpt>
      <trkpt lat="56.11597697250545" lon="-3.151864986866713">
        <ele>12.630000000000001</ele>
        <time>2023-08-17T14:40:16Z</time>
      </trkpt>
      <trkpt lat="56.116529004648328" lon="-3.151476988568902">
        <ele>12.15</ele>
        <time>2023-08-17T14:40:20Z</time>
      </trkpt>
      <trkpt lat="56.116529004648328" lon="-3.151476988568902">
        <ele>11.67</ele>
        <time>2023-08-17T14:40:21Z</time>
      </trkpt>
      <trkpt lat="56.1166409868747" lon="-3.151452010497451">
        <ele>11.67</ele>
        <time>2023-08-17T14:40:22Z</time>
      </trkpt>
      <trkpt lat="56.116867968812585" lon="-3.151400964707136">
        <ele>11.19</ele>
        <time>2023-08-17T14:40:24Z</time>
      </trkpt>
      <trkpt lat="56.116982968524098" lon="-3.151374980807304">
        <ele>11.19</ele>
        <time>2023-08-17T14:40:25Z</time>
      </trkpt>
      <trkpt lat="56.117102997377515" lon="-3.151347991079092">
        <ele>11.19</ele>
        <time>2023-08-17T14:40:26Z</time>
      </trkpt>
      <trkpt lat="56.118022995069623" lon="-3.150708032771945">
        <ele>11.67</ele>
        <time>2023-08-17T14:40:34Z</time>
      </trkpt>
      <trkpt lat="56.118126008659601" lon="-3.150605019181967">
        <ele>12.15</ele>
        <time>2023-08-17T14:40:35Z</time>
      </trkpt>
      <trkpt lat="56.118223993107677" lon="-3.150479961186647">
        <ele>13.119999999999999</ele>
        <time>2023-08-17T14:40:36Z</time>
      </trkpt>
      <trkpt lat="56.118320971727371" lon="-3.150336965918541">
        <ele>13.119999999999999</ele>
        <time>2023-08-17T14:40:37Z</time>
      </trkpt>
      <trkpt lat="56.118420967832208" lon="-3.150191958993673">
        <ele>13.6</ele>
        <time>2023-08-17T14:40:38Z</time>
      </trkpt>
      <trkpt lat="56.118496991693974" lon="-3.150014011189342">
        <ele>14.08</ele>
        <time>2023-08-17T14:40:39Z</time>
      </trkpt>
      <trkpt lat="56.118644010275602" lon="-3.149622995406389">
        <ele>14.56</ele>
        <time>2023-08-17T14:40:40Z</time>
      </trkpt>
      <trkpt lat="56.119161006063223" lon="-3.148236963897944">
        <ele>23.690000000000001</ele>
        <time>2023-08-17T14:40:49Z</time>
      </trkpt>
      <trkpt lat="56.11975503154099" lon="-3.146584974601865">
        <ele>31.379999999999999</ele>
        <time>2023-08-17T14:40:59Z</time>
      </trkpt>
      <trkpt lat="56.120307985693216" lon="-3.144742967560887">
        <ele>34.259999999999998</ele>
        <time>2023-08-17T14:41:10Z</time>
      </trkpt>
      <trkpt lat="56.120726997032762" lon="-3.14296399243176">
        <ele>35.229999999999997</ele>
        <time>2023-08-17T14:41:20Z</time>
      </trkpt>
      <trkpt lat="56.120774019509554" lon="-3.142823008820415">
        <ele>34.740000000000002</ele>
        <time>2023-08-17T14:41:21Z</time>
      </trkpt>
      <trkpt lat="56.120854988694191" lon="-3.142581023275852">
        <ele>34.740000000000002</ele>
        <time>2023-08-17T14:41:22Z</time>
      </trkpt>
      <trkpt lat="56.121103009209037" lon="-3.142292015254498">
        <ele>34.259999999999998</ele>
        <time>2023-08-17T14:41:27Z</time>
      </trkpt>
      <trkpt lat="56.121093034744263" lon="-3.142123958095908">
        <ele>33.780000000000001</ele>
        <time>2023-08-17T14:41:29Z</time>
      </trkpt>
      <trkpt lat="56.121082976460457" lon="-3.142090011388063">
        <ele>33.780000000000001</ele>
        <time>2023-08-17T14:41:30Z</time>
      </trkpt>
      <trkpt lat="56.120979962870479" lon="-3.141897981986404">
        <ele>33.299999999999997</ele>
        <time>2023-08-17T14:41:31Z</time>
      </trkpt>
      <trkpt lat="56.12096001394093" lon="-3.141746018081904">
        <ele>33.299999999999997</ele>
        <time>2023-08-17T14:41:32Z</time>
      </trkpt>
      <trkpt lat="56.120937969535589" lon="-3.141580978408456">
        <ele>32.82</ele>
        <time>2023-08-17T14:41:33Z</time>
      </trkpt>
      <trkpt lat="56.120915003120899" lon="-3.141404958441854">
        <ele>32.340000000000003</ele>
        <time>2023-08-17T14:41:34Z</time>
      </trkpt>
      <trkpt lat="56.120891030877829" lon="-3.141221981495619">
        <ele>31.859999999999999</ele>
        <time>2023-08-17T14:41:35Z</time>
      </trkpt>
      <trkpt lat="56.120867980644107" lon="-3.141045961529017">
        <ele>31.379999999999999</ele>
        <time>2023-08-17T14:41:36Z</time>
      </trkpt>
      <trkpt lat="56.120847025886178" lon="-3.140867007896304">
        <ele>31.379999999999999</ele>
        <time>2023-08-17T14:41:37Z</time>
      </trkpt>
      <trkpt lat="56.120850965380669" lon="-3.14049200154841">
        <ele>31.379999999999999</ele>
        <time>2023-08-17T14:41:39Z</time>
      </trkpt>
      <trkpt lat="56.120929000899196" lon="-3.139948016032577">
        <ele>30.899999999999999</ele>
        <time>2023-08-17T14:41:42Z</time>
      </trkpt>
      <trkpt lat="56.120953978970647" lon="-3.139794040471315">
        <ele>30.899999999999999</ele>
        <time>2023-08-17T14:41:43Z</time>
      </trkpt>
      <trkpt lat="56.121007958427072" lon="-3.13963201828301">
        <ele>30.899999999999999</ele>
        <time>2023-08-17T14:41:44Z</time>
      </trkpt>
      <trkpt lat="56.121062021702528" lon="-3.139472007751465">
        <ele>30.420000000000002</ele>
        <time>2023-08-17T14:41:45Z</time>
      </trkpt>
      <trkpt lat="56.121146008372307" lon="-3.139359019696713">
        <ele>30.420000000000002</ele>
        <time>2023-08-17T14:41:46Z</time>
      </trkpt>
      <trkpt lat="56.12123703584075" lon="-3.139238990843296">
        <ele>30.420000000000002</ele>
        <time>2023-08-17T14:41:47Z</time>
      </trkpt>
      <trkpt lat="56.122153010219336" lon="-3.137717004865408">
        <ele>31.859999999999999</ele>
        <time>2023-08-17T14:41:58Z</time>
      </trkpt>
      <trkpt lat="56.122404970228672" lon="-3.137033963575959">
        <ele>32.82</ele>
        <time>2023-08-17T14:42:02Z</time>
      </trkpt>
      <trkpt lat="56.122460039332509" lon="-3.136846963316202">
        <ele>33.780000000000001</ele>
        <time>2023-08-17T14:42:03Z</time>
      </trkpt>
      <trkpt lat="56.122717028483748" lon="-3.135914979502559">
        <ele>37.149999999999999</ele>
        <time>2023-08-17T14:42:08Z</time>
      </trkpt>
      <trkpt lat="56.123021962121129" lon="-3.133860994130373">
        <ele>43.880000000000003</ele>
        <time>2023-08-17T14:42:17Z</time>
      </trkpt>
      <trkpt lat="56.123253973200917" lon="-3.131625959649682">
        <ele>42.920000000000002</ele>
        <time>2023-08-17T14:42:28Z</time>
      </trkpt>
      <trkpt lat="56.123858978971839" lon="-3.129625031724572">
        <ele>41.469999999999999</ele>
        <time>2023-08-17T14:42:37Z</time>
      </trkpt>
      <trkpt lat="56.123925028368831" lon="-3.129460997879505">
        <ele>41.950000000000003</ele>
        <time>2023-08-17T14:42:38Z</time>
      </trkpt>
      <trkpt lat="56.12398998811841" lon="-3.129295958206058">
        <ele>41.950000000000003</ele>
        <time>2023-08-17T14:42:39Z</time>
      </trkpt>
      <trkpt lat="56.124708987772465" lon="-3.127520000562072">
        <ele>43.399999999999999</ele>
        <time>2023-08-17T14:42:51Z</time>
      </trkpt>
      <trkpt lat="56.124795991927385" lon="-3.127154968678951">
        <ele>43.399999999999999</ele>
        <time>2023-08-17T14:42:52Z</time>
      </trkpt>
      <trkpt lat="56.124828010797501" lon="-3.126986995339394">
        <ele>42.920000000000002</ele>
        <time>2023-08-17T14:42:54Z</time>
      </trkpt>
      <trkpt lat="56.124851983040571" lon="-3.126809969544411">
        <ele>42.439999999999998</ele>
        <time>2023-08-17T14:42:55Z</time>
      </trkpt>
      <trkpt lat="56.124947033822536" lon="-3.126201024278998">
        <ele>40.509999999999998</ele>
        <time>2023-08-17T14:42:59Z</time>
      </trkpt>
      <trkpt lat="56.12501903437078" lon="-3.125973958522081">
        <ele>40.030000000000001</ele>
        <time>2023-08-17T14:43:00Z</time>
      </trkpt>
      <trkpt lat="56.125054992735386" lon="-3.125865999609232">
        <ele>39.549999999999997</ele>
        <time>2023-08-17T14:43:01Z</time>
      </trkpt>
      <trkpt lat="56.125120958313346" lon="-3.125795004889369">
        <ele>39.549999999999997</ele>
        <time>2023-08-17T14:43:02Z</time>
      </trkpt>
      <trkpt lat="56.125265965238214" lon="-3.125642035156488">
        <ele>40.030000000000001</ele>
        <time>2023-08-17T14:43:04Z</time>
      </trkpt>
      <trkpt lat="56.125558996573091" lon="-3.125421004369855">
        <ele>40.990000000000002</ele>
        <time>2023-08-17T14:43:08Z</time>
      </trkpt>
      <trkpt lat="56.125641977414489" lon="-3.125385968014598">
        <ele>41.469999999999999</ele>
        <time>2023-08-17T14:43:09Z</time>
      </trkpt>
      <trkpt lat="56.126083033159375" lon="-3.125169966369867">
        <ele>41.950000000000003</ele>
        <time>2023-08-17T14:43:15Z</time>
      </trkpt>
      <trkpt lat="56.126153022050858" lon="-3.125107018277049">
        <ele>42.439999999999998</ele>
        <time>2023-08-17T14:43:17Z</time>
      </trkpt>
      <trkpt lat="56.126550994813442" lon="-3.124502012506127">
        <ele>44.359999999999999</ele>
        <time>2023-08-17T14:43:24Z</time>
      </trkpt>
      <trkpt lat="56.126635987311602" lon="-3.124373015016317">
        <ele>44.359999999999999</ele>
        <time>2023-08-17T14:43:25Z</time>
      </trkpt>
      <trkpt lat="56.126686027273536" lon="-3.124296991154552">
        <ele>44.840000000000003</ele>
        <time>2023-08-17T14:43:26Z</time>
      </trkpt>
      <trkpt lat="56.127088023349643" lon="-3.123614033684135">
        <ele>48.200000000000003</ele>
        <time>2023-08-17T14:43:34Z</time>
      </trkpt>
      <trkpt lat="56.127194976434112" lon="-3.123413035646081">
        <ele>48.200000000000003</ele>
        <time>2023-08-17T14:43:35Z</time>
      </trkpt>
      <trkpt lat="56.127249039709568" lon="-3.123311027884483">
        <ele>48.68</ele>
        <time>2023-08-17T14:43:36Z</time>
      </trkpt>
      <trkpt lat="56.127364039421082" lon="-3.123124027624726">
        <ele>49.649999999999999</ele>
        <time>2023-08-17T14:43:39Z</time>
      </trkpt>
      <trkpt lat="56.127509968355298" lon="-3.122965022921562">
        <ele>50.130000000000003</ele>
        <time>2023-08-17T14:43:40Z</time>
      </trkpt>
      <trkpt lat="56.127580041065812" lon="-3.122896961867809">
        <ele>50.609999999999999</ele>
        <time>2023-08-17T14:43:41Z</time>
      </trkpt>
      <trkpt lat="56.127657992765307" lon="-3.122849017381668">
        <ele>51.090000000000003</ele>
        <time>2023-08-17T14:43:43Z</time>
      </trkpt>
      <trkpt lat="56.12852199934423" lon="-3.122363034635782">
        <ele>55.409999999999997</ele>
        <time>2023-08-17T14:43:53Z</time>
      </trkpt>
      <trkpt lat="56.128606991842389" lon="-3.122327998280525">
        <ele>56.369999999999997</ele>
        <time>2023-08-17T14:43:55Z</time>
      </trkpt>
      <trkpt lat="56.129479967057705" lon="-3.122001020237804">
        <ele>59.740000000000002</ele>
        <time>2023-08-17T14:44:05Z</time>
      </trkpt>
      <trkpt lat="56.129923034459352" lon="-3.121794993057847">
        <ele>61.659999999999997</ele>
        <time>2023-08-17T14:44:12Z</time>
      </trkpt>
      <trkpt lat="56.130904974415898" lon="-3.121289983391762">
        <ele>64.069999999999993</ele>
        <time>2023-08-17T14:44:24Z</time>
      </trkpt>
      <trkpt lat="56.131591033190489" lon="-3.120880024507642">
        <ele>63.579999999999998</ele>
        <time>2023-08-17T14:44:32Z</time>
      </trkpt>
      <trkpt lat="56.131796976551414" lon="-3.120742980390787">
        <ele>63.579999999999998</ele>
        <time>2023-08-17T14:44:33Z</time>
      </trkpt>
      <trkpt lat="56.131870988756418" lon="-3.120636027306318">
        <ele>63.100000000000001</ele>
        <time>2023-08-17T14:44:35Z</time>
      </trkpt>
      <trkpt lat="56.1321119684726" lon="-3.120117019861937">
        <ele>61.659999999999997</ele>
        <time>2023-08-17T14:44:39Z</time>
      </trkpt>
      <trkpt lat="56.132685039192438" lon="-3.118268977850676">
        <ele>59.259999999999998</ele>
        <time>2023-08-17T14:44:50Z</time>
      </trkpt>
      <trkpt lat="56.133561031892896" lon="-3.115709982812405">
        <ele>58.299999999999997</ele>
        <time>2023-08-17T14:45:04Z</time>
      </trkpt>
      <trkpt lat="56.134033016860485" lon="-3.114761989563704">
        <ele>60.219999999999999</ele>
        <time>2023-08-17T14:45:10Z</time>
      </trkpt>
      <trkpt lat="56.134135024622083" lon="-3.114606002345681">
        <ele>60.219999999999999</ele>
        <time>2023-08-17T14:45:11Z</time>
      </trkpt>
      <trkpt lat="56.134254969656467" lon="-3.114477004855871">
        <ele>60.219999999999999</ele>
        <time>2023-08-17T14:45:12Z</time>
      </trkpt>
      <trkpt lat="56.134384972974658" lon="-3.114379020407796">
        <ele>60.219999999999999</ele>
        <time>2023-08-17T14:45:13Z</time>
      </trkpt>
      <trkpt lat="56.134520005434752" lon="-3.114296039566398">
        <ele>60.219999999999999</ele>
        <time>2023-08-17T14:45:14Z</time>
      </trkpt>
      <trkpt lat="56.134656965732574" lon="-3.114210041239858">
        <ele>60.700000000000003</ele>
        <time>2023-08-17T14:45:15Z</time>
      </trkpt>
      <trkpt lat="56.134805995970964" lon="-3.114152038469911">
        <ele>60.219999999999999</ele>
        <time>2023-08-17T14:45:16Z</time>
      </trkpt>
      <trkpt lat="56.134966006502509" lon="-3.114152038469911">
        <ele>60.219999999999999</ele>
        <time>2023-08-17T14:45:17Z</time>
      </trkpt>
      <trkpt lat="56.136649008840322" lon="-3.114295033738017">
        <ele>58.780000000000001</ele>
        <time>2023-08-17T14:45:27Z</time>
      </trkpt>
      <trkpt lat="56.136937011033297" lon="-3.114257985725999">
        <ele>59.259999999999998</ele>
        <time>2023-08-17T14:45:30Z</time>
      </trkpt>
      <trkpt lat="56.137077994644642" lon="-3.114228984341025">
        <ele>59.259999999999998</ele>
        <time>2023-08-17T14:45:31Z</time>
      </trkpt>
      <trkpt lat="56.137351999059319" lon="-3.114076014608145">
        <ele>59.740000000000002</ele>
        <time>2023-08-17T14:45:32Z</time>
      </trkpt>
      <trkpt lat="56.137480996549129" lon="-3.11393897049129">
        <ele>60.700000000000003</ele>
        <time>2023-08-17T14:45:34Z</time>
      </trkpt>
      <trkpt lat="56.138684973120689" lon="-3.112657964229584">
        <ele>62.619999999999997</ele>
        <time>2023-08-17T14:45:42Z</time>
      </trkpt>
      <trkpt lat="56.139861959964037" lon="-3.111360026523471">
        <ele>67.430000000000007</ele>
        <time>2023-08-17T14:45:52Z</time>
      </trkpt>
      <trkpt lat="56.140255993232131" lon="-3.110920982435346">
        <ele>68.390000000000001</ele>
        <time>2023-08-17T14:45:55Z</time>
      </trkpt>
      <trkpt lat="56.14167395979166" lon="-3.109264969825745">
        <ele>75.120000000000005</ele>
        <time>2023-08-17T14:46:05Z</time>
      </trkpt>
      <trkpt lat="56.141803963109851" lon="-3.109106970950961">
        <ele>75.599999999999994</ele>
        <time>2023-08-17T14:46:07Z</time>
      </trkpt>
      <trkpt lat="56.141933966428041" lon="-3.108950983732939">
        <ele>75.599999999999994</ele>
        <time>2023-08-17T14:46:08Z</time>
      </trkpt>
      <trkpt lat="56.142062963917851" lon="-3.108794996514916">
        <ele>75.599999999999994</ele>
        <time>2023-08-17T14:46:09Z</time>
      </trkpt>
      <trkpt lat="56.14229204133153" lon="-3.108380008488894">
        <ele>75.599999999999994</ele>
        <time>2023-08-17T14:46:10Z</time>
      </trkpt>
      <trkpt lat="56.142382984980941" lon="-3.108160989359021">
        <ele>75.599999999999994</ele>
        <time>2023-08-17T14:46:11Z</time>
      </trkpt>
      <trkpt lat="56.143172979354858" lon="-3.106104992330074">
        <ele>72.239999999999995</ele>
        <time>2023-08-17T14:46:21Z</time>
      </trkpt>
      <trkpt lat="56.14412197843194" lon="-3.103595031425357">
        <ele>73.200000000000003</ele>
        <time>2023-08-17T14:46:32Z</time>
      </trkpt>
      <trkpt lat="56.144417021423578" lon="-3.102943003177643">
        <ele>73.200000000000003</ele>
        <time>2023-08-17T14:46:35Z</time>
      </trkpt>
      <trkpt lat="56.14463796839118" lon="-3.10255098156631">
        <ele>72.719999999999999</ele>
        <time>2023-08-17T14:46:36Z</time>
      </trkpt>
      <trkpt lat="56.144747016951442" lon="-3.102358030155301">
        <ele>72.719999999999999</ele>
        <time>2023-08-17T14:46:37Z</time>
      </trkpt>
      <trkpt lat="56.146202031522989" lon="-3.099823007360101">
        <ele>69.349999999999994</ele>
        <time>2023-08-17T14:46:50Z</time>
      </trkpt>
      <trkpt lat="56.147007029503584" lon="-3.098534038290381">
        <ele>67.909999999999997</ele>
        <time>2023-08-17T14:46:57Z</time>
      </trkpt>
      <trkpt lat="56.147338030859828" lon="-3.098103040829301">
        <ele>67.430000000000007</ele>
        <time>2023-08-17T14:47:01Z</time>
      </trkpt>
      <trkpt lat="56.147619998082519" lon="-3.097772961482406">
        <ele>65.989999999999995</ele>
        <time>2023-08-17T14:47:05Z</time>
      </trkpt>
      <trkpt lat="56.147941024973989" lon="-3.097388986498117">
        <ele>65.510000000000005</ele>
        <time>2023-08-17T14:47:11Z</time>
      </trkpt>
      <trkpt lat="56.1484619602561" lon="-3.096660012379289">
        <ele>66.469999999999999</ele>
        <time>2023-08-17T14:47:19Z</time>
      </trkpt>
      <trkpt lat="56.148564973846078" lon="-3.096437975764275">
        <ele>66.950000000000003</ele>
        <time>2023-08-17T14:47:21Z</time>
      </trkpt>
      <trkpt lat="56.148673016577959" lon="-3.096204036846757">
        <ele>67.430000000000007</ele>
        <time>2023-08-17T14:47:23Z</time>
      </trkpt>
      <trkpt lat="56.148809976875782" lon="-3.095790976658464">
        <ele>67.909999999999997</ele>
        <time>2023-08-17T14:47:26Z</time>
      </trkpt>
      <trkpt lat="56.149193029850721" lon="-3.094367980957031">
        <ele>67.430000000000007</ele>
        <time>2023-08-17T14:47:35Z</time>
      </trkpt>
      <trkpt lat="56.149227982386947" lon="-3.094247030094266">
        <ele>66.950000000000003</ele>
        <time>2023-08-17T14:47:36Z</time>
      </trkpt>
      <trkpt lat="56.149269975721836" lon="-3.094101017341018">
        <ele>66.950000000000003</ele>
        <time>2023-08-17T14:47:37Z</time>
      </trkpt>
      <trkpt lat="56.149433003738523" lon="-3.093543034046888">
        <ele>65.030000000000001</ele>
        <time>2023-08-17T14:47:42Z</time>
      </trkpt>
      <trkpt lat="56.149747995659709" lon="-3.092349031940103">
        <ele>62.619999999999997</ele>
        <time>2023-08-17T14:47:51Z</time>
      </trkpt>
      <trkpt lat="56.149864001199603" lon="-3.091916022822261">
        <ele>61.659999999999997</ele>
        <time>2023-08-17T14:47:53Z</time>
      </trkpt>
      <trkpt lat="56.15009400062263" lon="-3.091156035661697">
        <ele>60.700000000000003</ele>
        <time>2023-08-17T14:47:59Z</time>
      </trkpt>
      <trkpt lat="56.150312013924122" lon="-3.09045497328043">
        <ele>60.219999999999999</ele>
        <time>2023-08-17T14:48:03Z</time>
      </trkpt>
      <trkpt lat="56.150823980569839" lon="-3.089236998930574">
        <ele>56.369999999999997</ele>
        <time>2023-08-17T14:48:15Z</time>
      </trkpt>
      <trkpt lat="56.150868991389871" lon="-3.089146977290511">
        <ele>55.890000000000001</ele>
        <time>2023-08-17T14:48:16Z</time>
      </trkpt>
      <trkpt lat="56.151380036026239" lon="-3.087643012404442">
        <ele>54.93</ele>
        <time>2023-08-17T14:48:28Z</time>
      </trkpt>
      <trkpt lat="56.151522025465965" lon="-3.087115036323667">
        <ele>53.009999999999998</ele>
        <time>2023-08-17T14:48:33Z</time>
      </trkpt>
      <trkpt lat="56.151536023244262" lon="-3.086967011913657">
        <ele>53.009999999999998</ele>
        <time>2023-08-17T14:48:34Z</time>
      </trkpt>
      <trkpt lat="56.151567958295345" lon="-3.086524028331041">
        <ele>52.049999999999997</ele>
        <time>2023-08-17T14:48:37Z</time>
      </trkpt>
      <trkpt lat="56.151579022407532" lon="-3.086368963122368">
        <ele>51.57</ele>
        <time>2023-08-17T14:48:38Z</time>
      </trkpt>
      <trkpt lat="56.151611963286996" lon="-3.085902007296681">
        <ele>50.130000000000003</ele>
        <time>2023-08-17T14:48:41Z</time>
      </trkpt>
      <trkpt lat="56.151670971885324" lon="-3.085455000400543">
        <ele>49.159999999999997</ele>
        <time>2023-08-17T14:48:44Z</time>
      </trkpt>
      <trkpt lat="56.151788989081979" lon="-3.08503900654614">
        <ele>48.200000000000003</ele>
        <time>2023-08-17T14:48:47Z</time>
      </trkpt>
      <trkpt lat="56.151985041797161" lon="-3.084484040737152">
        <ele>47.240000000000002</ele>
        <time>2023-08-17T14:48:51Z</time>
      </trkpt>
      <trkpt lat="56.152034997940063" lon="-3.084343979135156">
        <ele>47.240000000000002</ele>
        <time>2023-08-17T14:48:52Z</time>
      </trkpt>
      <trkpt lat="56.152083026245236" lon="-3.084209030494094">
        <ele>47.240000000000002</ele>
        <time>2023-08-17T14:48:53Z</time>
      </trkpt>
      <trkpt lat="56.152239013463259" lon="-3.083820026367903">
        <ele>46.280000000000001</ele>
        <time>2023-08-17T14:48:56Z</time>
      </trkpt>
      <trkpt lat="56.152292992919683" lon="-3.083675019443035">
        <ele>46.280000000000001</ele>
        <time>2023-08-17T14:48:57Z</time>
      </trkpt>
      <trkpt lat="56.152850976213813" lon="-3.082229979336262">
        <ele>45.32</ele>
        <time>2023-08-17T14:49:04Z</time>
      </trkpt>
      <trkpt lat="56.153774997219443" lon="-3.079830994829536">
        <ele>42.439999999999998</ele>
        <time>2023-08-17T14:49:13Z</time>
      </trkpt>
      <trkpt lat="56.155325984582305" lon="-3.075799969956279">
        <ele>35.710000000000001</ele>
        <time>2023-08-17T14:49:30Z</time>
      </trkpt>
      <trkpt lat="56.156027968972921" lon="-3.073977995663881">
        <ele>29.940000000000001</ele>
        <time>2023-08-17T14:49:40Z</time>
      </trkpt>
      <trkpt lat="56.15628101862967" lon="-3.073316998779774">
        <ele>27.530000000000001</ele>
        <time>2023-08-17T14:49:45Z</time>
      </trkpt>
      <trkpt lat="56.156317982822657" lon="-3.07322203181684">
        <ele>27.050000000000001</ele>
        <time>2023-08-17T14:49:46Z</time>
      </trkpt>
      <trkpt lat="56.156355030834675" lon="-3.073124969378114">
        <ele>26.57</ele>
        <time>2023-08-17T14:49:47Z</time>
      </trkpt>
      <trkpt lat="56.156927011907101" lon="-3.071593008935452">
        <ele>24.170000000000002</ele>
        <time>2023-08-17T14:50:01Z</time>
      </trkpt>
      <trkpt lat="56.157741984352469" lon="-3.069922998547554">
        <ele>26.09</ele>
        <time>2023-08-17T14:50:17Z</time>
      </trkpt>
      <trkpt lat="56.158657958731055" lon="-3.068907028064132">
        <ele>25.129999999999999</ele>
        <time>2023-08-17T14:50:29Z</time>
      </trkpt>
      <trkpt lat="56.159378970041871" lon="-3.068200014531612">
        <ele>28.5</ele>
        <time>2023-08-17T14:50:40Z</time>
      </trkpt>
      <trkpt lat="56.160207018256187" lon="-3.066738964989781">
        <ele>27.530000000000001</ele>
        <time>2023-08-17T14:50:54Z</time>
      </trkpt>
      <trkpt lat="56.160529972985387" lon="-3.066027006134391">
        <ele>28.02</ele>
        <time>2023-08-17T14:51:01Z</time>
      </trkpt>
      <trkpt lat="56.161111006513238" lon="-3.06456402875483">
        <ele>27.530000000000001</ele>
        <time>2023-08-17T14:51:12Z</time>
      </trkpt>
      <trkpt lat="56.161162974312901" lon="-3.064433019608259">
        <ele>27.530000000000001</ele>
        <time>2023-08-17T14:51:13Z</time>
      </trkpt>
      <trkpt lat="56.161793963983655" lon="-3.062886977568269">
        <ele>28.02</ele>
        <time>2023-08-17T14:51:26Z</time>
      </trkpt>
      <trkpt lat="56.161952968686819" lon="-3.062517000362277">
        <ele>28.02</ele>
        <time>2023-08-17T14:51:28Z</time>
      </trkpt>
      <trkpt lat="56.162005020305514" lon="-3.062396971508861">
        <ele>28.02</ele>
        <time>2023-08-17T14:51:29Z</time>
      </trkpt>
      <trkpt lat="56.162058999761939" lon="-3.062273003160954">
        <ele>28.02</ele>
        <time>2023-08-17T14:51:30Z</time>
      </trkpt>
      <trkpt lat="56.162113985046744" lon="-3.062146017327905">
        <ele>28.5</ele>
        <time>2023-08-17T14:51:31Z</time>
      </trkpt>
      <trkpt lat="56.16216997615993" lon="-3.062017019838095">
        <ele>28.98</ele>
        <time>2023-08-17T14:51:32Z</time>
      </trkpt>
      <trkpt lat="56.16291998885572" lon="-3.060681028291583">
        <ele>30.420000000000002</ele>
        <time>2023-08-17T14:51:44Z</time>
      </trkpt>
      <trkpt lat="56.163247972726822" lon="-3.06013603694737">
        <ele>30.420000000000002</ele>
        <time>2023-08-17T14:51:50Z</time>
      </trkpt>
      <trkpt lat="56.164121031761169" lon="-3.05865696631372">
        <ele>31.379999999999999</ele>
        <time>2023-08-17T14:52:02Z</time>
      </trkpt>
      <trkpt lat="56.164193032309413" lon="-3.058577002957463">
        <ele>31.859999999999999</ele>
        <time>2023-08-17T14:52:04Z</time>
      </trkpt>
      <trkpt lat="56.165282009169459" lon="-3.057650970295072">
        <ele>31.859999999999999</ele>
        <time>2023-08-17T14:52:16Z</time>
      </trkpt>
      <trkpt lat="56.166602997109294" lon="-3.056831974536181">
        <ele>33.299999999999997</ele>
        <time>2023-08-17T14:52:32Z</time>
      </trkpt>
      <trkpt lat="56.167213032022119" lon="-3.056471971794963">
        <ele>34.259999999999998</ele>
        <time>2023-08-17T14:52:38Z</time>
      </trkpt>
      <trkpt lat="56.167310010641813" lon="-3.056406006217003">
        <ele>34.259999999999998</ele>
        <time>2023-08-17T14:52:39Z</time>
      </trkpt>
      <trkpt lat="56.16741000674665" lon="-3.056338028982282">
        <ele>34.740000000000002</ele>
        <time>2023-08-17T14:52:40Z</time>
      </trkpt>
      <trkpt lat="56.167502962052822" lon="-3.056231997907162">
        <ele>34.740000000000002</ele>
        <time>2023-08-17T14:52:41Z</time>
      </trkpt>
      <trkpt lat="56.167596001178026" lon="-3.056111969053745">
        <ele>35.229999999999997</ele>
        <time>2023-08-17T14:52:42Z</time>
      </trkpt>
      <trkpt lat="56.167692979797721" lon="-3.055988000705838">
        <ele>36.189999999999998</ele>
        <time>2023-08-17T14:52:43Z</time>
      </trkpt>
      <trkpt lat="56.168784974142909" lon="-3.054047003388405">
        <ele>40.509999999999998</ele>
        <time>2023-08-17T14:52:54Z</time>
      </trkpt>
      <trkpt lat="56.170007977634668" lon="-3.051619017496705">
        <ele>39.549999999999997</ele>
        <time>2023-08-17T14:53:06Z</time>
      </trkpt>
      <trkpt lat="56.170085007324815" lon="-3.051381977275014">
        <ele>39.549999999999997</ele>
        <time>2023-08-17T14:53:07Z</time>
      </trkpt>
      <trkpt lat="56.170838959515095" lon="-3.048264998942614">
        <ele>38.590000000000003</ele>
        <time>2023-08-17T14:53:19Z</time>
      </trkpt>
      <trkpt lat="56.171026965603232" lon="-3.047485984861851">
        <ele>38.590000000000003</ele>
        <time>2023-08-17T14:53:22Z</time>
      </trkpt>
      <trkpt lat="56.171093015000224" lon="-3.047237964347005">
        <ele>38.109999999999999</ele>
        <time>2023-08-17T14:53:23Z</time>
      </trkpt>
      <trkpt lat="56.17119200527668" lon="-3.047020034864545">
        <ele>38.109999999999999</ele>
        <time>2023-08-17T14:53:24Z</time>
      </trkpt>
      <trkpt lat="56.17252497933805" lon="-3.044228022918105">
        <ele>38.590000000000003</ele>
        <time>2023-08-17T14:53:37Z</time>
      </trkpt>
      <trkpt lat="56.173179019242525" lon="-3.042850038036704">
        <ele>39.07</ele>
        <time>2023-08-17T14:53:45Z</time>
      </trkpt>
      <trkpt lat="56.173720993101597" lon="-3.041499964892864">
        <ele>38.590000000000003</ele>
        <time>2023-08-17T14:53:53Z</time>
      </trkpt>
      <trkpt lat="56.173785030841827" lon="-3.041335009038448">
        <ele>38.590000000000003</ele>
        <time>2023-08-17T14:53:54Z</time>
      </trkpt>
      <trkpt lat="56.174366986379027" lon="-3.039821991696954">
        <ele>37.630000000000003</ele>
        <time>2023-08-17T14:54:05Z</time>
      </trkpt>
      <trkpt lat="56.17507902905345" lon="-3.038642993196845">
        <ele>36.670000000000002</ele>
        <time>2023-08-17T14:54:14Z</time>
      </trkpt>
      <trkpt lat="56.175536010414362" lon="-3.038135971873999">
        <ele>36.189999999999998</ele>
        <time>2023-08-17T14:54:18Z</time>
      </trkpt>
      <trkpt lat="56.176944002509117" lon="-3.037352012470365">
        <ele>31.379999999999999</ele>
        <time>2023-08-17T14:54:32Z</time>
      </trkpt>
      <trkpt lat="56.178303966298699" lon="-3.036662014201284">
        <ele>28.5</ele>
        <time>2023-08-17T14:54:44Z</time>
      </trkpt>
      <trkpt lat="56.179591007530689" lon="-3.035984002053738">
        <ele>25.129999999999999</ele>
        <time>2023-08-17T14:54:56Z</time>
      </trkpt>
      <trkpt lat="56.180371027439833" lon="-3.035491984337568">
        <ele>23.210000000000001</ele>
        <time>2023-08-17T14:55:02Z</time>
      </trkpt>
      <trkpt lat="56.181101007387042" lon="-3.034943975508213">
        <ele>23.690000000000001</ele>
        <time>2023-08-17T14:55:09Z</time>
      </trkpt>
      <trkpt lat="56.182037014514208" lon="-3.034156998619437">
        <ele>26.09</ele>
        <time>2023-08-17T14:55:19Z</time>
      </trkpt>
      <trkpt lat="56.183197991922498" lon="-3.03304698318243">
        <ele>29.940000000000001</ele>
        <time>2023-08-17T14:55:32Z</time>
      </trkpt>
      <trkpt lat="56.184625010937452" lon="-3.031544024124742">
        <ele>33.299999999999997</ele>
        <time>2023-08-17T14:55:49Z</time>
      </trkpt>
      <trkpt lat="56.184735987335443" lon="-3.031388036906719">
        <ele>33.780000000000001</ele>
        <time>2023-08-17T14:55:50Z</time>
      </trkpt>
      <trkpt lat="56.184768006205559" lon="-3.031342020258308">
        <ele>33.780000000000001</ele>
        <time>2023-08-17T14:55:51Z</time>
      </trkpt>
      <trkpt lat="56.184788038954139" lon="-3.031314024701715">
        <ele>33.780000000000001</ele>
        <time>2023-08-17T14:55:52Z</time>
      </trkpt>
      <trkpt lat="56.184892980381846" lon="-3.031166000291705">
        <ele>35.229999999999997</ele>
        <time>2023-08-17T14:56:00Z</time>
      </trkpt>
      <trkpt lat="56.185070006176829" lon="-3.031131969764829">
        <ele>35.710000000000001</ele>
        <time>2023-08-17T14:56:03Z</time>
      </trkpt>
      <trkpt lat="56.185087021440268" lon="-3.031106991693378">
        <ele>35.710000000000001</ele>
        <time>2023-08-17T14:56:04Z</time>
      </trkpt>
      <trkpt lat="56.185253988951445" lon="-3.030752018094063">
        <ele>36.189999999999998</ele>
        <time>2023-08-17T14:56:11Z</time>
      </trkpt>
      <trkpt lat="56.185296988114715" lon="-3.030700972303748">
        <ele>36.189999999999998</ele>
        <time>2023-08-17T14:56:14Z</time>
      </trkpt>
      <trkpt lat="56.185752041637897" lon="-3.030069982632995">
        <ele>35.710000000000001</ele>
        <time>2023-08-17T14:56:20Z</time>
      </trkpt>
      <trkpt lat="56.186569025740027" lon="-3.028354961425066">
        <ele>33.780000000000001</ele>
        <time>2023-08-17T14:56:33Z</time>
      </trkpt>
      <trkpt lat="56.187276961281896" lon="-3.026059996336699">
        <ele>31.379999999999999</ele>
        <time>2023-08-17T14:56:46Z</time>
      </trkpt>
      <trkpt lat="56.187759004533291" lon="-3.024150012061">
        <ele>28.5</ele>
        <time>2023-08-17T14:57:00Z</time>
      </trkpt>
      <trkpt lat="56.188274994492531" lon="-3.02202302031219">
        <ele>27.530000000000001</ele>
        <time>2023-08-17T14:57:15Z</time>
      </trkpt>
      <trkpt lat="56.188747985288501" lon="-3.02019601687789">
        <ele>25.129999999999999</ele>
        <time>2023-08-17T14:57:27Z</time>
      </trkpt>
      <trkpt lat="56.189270010218024" lon="-3.018171032890678">
        <ele>25.129999999999999</ele>
        <time>2023-08-17T14:57:39Z</time>
      </trkpt>
      <trkpt lat="56.190012982115149" lon="-3.01538203842938">
        <ele>24.170000000000002</ele>
        <time>2023-08-17T14:57:54Z</time>
      </trkpt>
      <trkpt lat="56.190971033647656" lon="-3.011691989377141">
        <ele>21.77</ele>
        <time>2023-08-17T14:58:13Z</time>
      </trkpt>
      <trkpt lat="56.191635970026255" lon="-3.009369028732181">
        <ele>18.399999999999999</ele>
        <time>2023-08-17T14:58:24Z</time>
      </trkpt>
      <trkpt lat="56.191814001649618" lon="-3.00880802795291">
        <ele>17.440000000000001</ele>
        <time>2023-08-17T14:58:27Z</time>
      </trkpt>
      <trkpt lat="56.191973006352782" lon="-3.008306035771966">
        <ele>15.52</ele>
        <time>2023-08-17T14:58:30Z</time>
      </trkpt>
      <trkpt lat="56.19205598719418" lon="-3.007961958646774">
        <ele>14.08</ele>
        <time>2023-08-17T14:58:32Z</time>
      </trkpt>
      <trkpt lat="56.192091023549438" lon="-3.007773030549288">
        <ele>12.630000000000001</ele>
        <time>2023-08-17T14:58:33Z</time>
      </trkpt>
      <trkpt lat="56.192124970257282" lon="-3.00758401863277">
        <ele>11.67</ele>
        <time>2023-08-17T14:58:34Z</time>
      </trkpt>
      <trkpt lat="56.192497964948416" lon="-3.005631035193801">
        <ele>3.5</ele>
        <time>2023-08-17T14:58:44Z</time>
      </trkpt>
      <trkpt lat="56.192565020173788" lon="-3.005230966955423">
        <ele>3.5</ele>
        <time>2023-08-17T14:58:45Z</time>
      </trkpt>
      <trkpt lat="56.192577006295323" lon="-3.005016976967454">
        <ele>2.54</ele>
        <time>2023-08-17T14:58:47Z</time>
      </trkpt>
      <trkpt lat="56.192552028223872" lon="-3.004813967272639">
        <ele>2.06</ele>
        <time>2023-08-17T14:58:48Z</time>
      </trkpt>
      <trkpt lat="56.192516991868615" lon="-3.004611041396856">
        <ele>1.58</ele>
        <time>2023-08-17T14:58:49Z</time>
      </trkpt>
      <trkpt lat="56.192470975220203" lon="-3.004443990066648">
        <ele>1.1</ele>
        <time>2023-08-17T14:58:50Z</time>
      </trkpt>
      <trkpt lat="56.192402997985482" lon="-3.004328990355134">
        <ele>0.14</ele>
        <time>2023-08-17T14:58:51Z</time>
      </trkpt>
      <trkpt lat="56.192300990223885" lon="-3.004009975120425">
        <ele>-2.27</ele>
        <time>2023-08-17T14:58:54Z</time>
      </trkpt>
      <trkpt lat="56.192300990223885" lon="-3.004009975120425">
        <ele>-2.75</ele>
        <time>2023-08-17T14:58:55Z</time>
      </trkpt>
      <trkpt lat="56.192281963303685" lon="-3.003953984007239">
        <ele>-3.71</ele>
        <time>2023-08-17T14:58:56Z</time>
      </trkpt>
      <trkpt lat="56.1920549813658" lon="-3.003829009830952">
        <ele>-5.63</ele>
        <time>2023-08-17T14:58:59Z</time>
      </trkpt>
      <trkpt lat="56.19201198220253" lon="-3.003718033432961">
        <ele>-6.11</ele>
        <time>2023-08-17T14:59:00Z</time>
      </trkpt>
      <trkpt lat="56.191965965554118" lon="-3.003598004579544">
        <ele>-6.59</ele>
        <time>2023-08-17T14:59:01Z</time>
      </trkpt>
      <trkpt lat="56.19166798889637" lon="-3.002327978610992">
        <ele>-10.92</ele>
        <time>2023-08-17T14:59:09Z</time>
      </trkpt>
      <trkpt lat="56.191611997783184" lon="-3.002203004434705">
        <ele>-10.92</ele>
        <time>2023-08-17T14:59:10Z</time>
      </trkpt>
      <trkpt lat="56.191422985866666" lon="-3.001886000856757">
        <ele>-10.92</ele>
        <time>2023-08-17T14:59:13Z</time>
      </trkpt>
      <trkpt lat="56.191341010853648" lon="-3.00178499892354">
        <ele>-10.44</ele>
        <time>2023-08-17T14:59:15Z</time>
      </trkpt>
      <trkpt lat="56.191334975883365" lon="-3.001777958124876">
        <ele>-10.44</ele>
        <time>2023-08-17T14:59:16Z</time>
      </trkpt>
      <trkpt lat="56.191334975883365" lon="-3.001777958124876">
        <ele>-9.48</ele>
        <time>2023-08-17T14:59:20Z</time>
      </trkpt>
      <trkpt lat="56.191360959783196" lon="-3.001186028122902">
        <ele>-8.51</ele>
        <time>2023-08-17T14:59:23Z</time>
      </trkpt>
      <trkpt lat="56.191427009180188" lon="-3.000762993469834">
        <ele>-8.029999999999999</ele>
        <time>2023-08-17T14:59:26Z</time>
      </trkpt>
      <trkpt lat="56.191604034975171" lon="-3.000480020418763">
        <ele>-6.11</ele>
        <time>2023-08-17T14:59:29Z</time>
      </trkpt>
      <trkpt lat="56.192174004390836" lon="-3.001025011762977">
        <ele>-1.3</ele>
        <time>2023-08-17T14:59:37Z</time>
      </trkpt>
      <trkpt lat="56.192405009642243" lon="-3.001319970935583">
        <ele>-0.82</ele>
        <time>2023-08-17T14:59:40Z</time>
      </trkpt>
      <trkpt lat="56.192880012094975" lon="-3.001714004203677">
        <ele>2.06</ele>
        <time>2023-08-17T14:59:48Z</time>
      </trkpt>
      <trkpt lat="56.192954024299979" lon="-3.001800002530217">
        <ele>3.02</ele>
        <time>2023-08-17T14:59:55Z</time>
      </trkpt>
      <trkpt lat="56.192987971007824" lon="-3.001800002530217">
        <ele>3.02</ele>
        <time>2023-08-17T14:59:56Z</time>
      </trkpt>
      <trkpt lat="56.193031975999475" lon="-3.001732025295496">
        <ele>3.02</ele>
        <time>2023-08-17T14:59:57Z</time>
      </trkpt>
      <trkpt lat="56.193052008748055" lon="-3.001671005040407">
        <ele>3.02</ele>
        <time>2023-08-17T14:59:58Z</time>
      </trkpt>
      <trkpt lat="56.193026024848223" lon="-3.001551982015371">
        <ele>3.5</ele>
        <time>2023-08-17T14:59:59Z</time>
      </trkpt>
      <trkpt lat="56.19302099570632" lon="-3.001360036432743">
        <ele>3.5</ele>
        <time>2023-08-17T15:00:00Z</time>
      </trkpt>
      <trkpt lat="56.193035999312997" lon="-3.001210000365973">
        <ele>3.5</ele>
        <time>2023-08-17T15:00:01Z</time>
      </trkpt>
      <trkpt lat="56.193052008748055" lon="-3.001058036461473">
        <ele>3.02</ele>
        <time>2023-08-17T15:00:02Z</time>
      </trkpt>
      <trkpt lat="56.193069024011493" lon="-3.000890985131264">
        <ele>3.02</ele>
        <time>2023-08-17T15:00:03Z</time>
      </trkpt>
      <trkpt lat="56.193104982376099" lon="-3.000540034845471">
        <ele>3.02</ele>
        <time>2023-08-17T15:00:05Z</time>
      </trkpt>
      <trkpt lat="56.193089978769422" lon="-2.999996971338987">
        <ele>3.02</ele>
        <time>2023-08-17T15:00:08Z</time>
      </trkpt>
      <trkpt lat="56.193077992647886" lon="-2.999817011877894">
        <ele>3.02</ele>
        <time>2023-08-17T15:00:09Z</time>
      </trkpt>
      <trkpt lat="56.193052008748055" lon="-2.999653983861208">
        <ele>3.5</ele>
        <time>2023-08-17T15:00:10Z</time>
      </trkpt>
      <trkpt lat="56.19272100739181" lon="-2.998294020071626">
        <ele>6.39</ele>
        <time>2023-08-17T15:00:19Z</time>
      </trkpt>
      <trkpt lat="56.192691000178456" lon="-2.998134009540081">
        <ele>6.39</ele>
        <time>2023-08-17T15:00:20Z</time>
      </trkpt>
      <trkpt lat="56.192661998793483" lon="-2.997979028150439">
        <ele>6.39</ele>
        <time>2023-08-17T15:00:21Z</time>
      </trkpt>
      <trkpt lat="56.19263400323689" lon="-2.997827986255288">
        <ele>6.39</ele>
        <time>2023-08-17T15:00:22Z</time>
      </trkpt>
      <trkpt lat="56.192640038207173" lon="-2.997664036229253">
        <ele>6.39</ele>
        <time>2023-08-17T15:00:23Z</time>
      </trkpt>
      <trkpt lat="56.192667027935386" lon="-2.997506959363818">
        <ele>6.39</ele>
        <time>2023-08-17T15:00:24Z</time>
      </trkpt>
      <trkpt lat="56.192695023491979" lon="-2.997346026822925">
        <ele>5.91</ele>
        <time>2023-08-17T15:00:25Z</time>
      </trkpt>
      <trkpt lat="56.192729976028204" lon="-2.99714301712811">
        <ele>5.91</ele>
        <time>2023-08-17T15:00:26Z</time>
      </trkpt>
      <trkpt lat="56.192770963534713" lon="-2.997032040730119">
        <ele>5.42</ele>
        <time>2023-08-17T15:00:27Z</time>
      </trkpt>
      <trkpt lat="56.193503960967064" lon="-2.995066987350583">
        <ele>5.42</ele>
        <time>2023-08-17T15:00:41Z</time>
      </trkpt>
      <trkpt lat="56.193998996168375" lon="-2.993809031322599">
        <ele>5.42</ele>
        <time>2023-08-17T15:00:50Z</time>
      </trkpt>
      <trkpt lat="56.1940529756248" lon="-2.993692019954324">
        <ele>4.94</ele>
        <time>2023-08-17T15:00:51Z</time>
      </trkpt>
      <trkpt lat="56.194119025021791" lon="-2.993607027456164">
        <ele>4.94</ele>
        <time>2023-08-17T15:00:52Z</time>
      </trkpt>
      <trkpt lat="56.19418297894299" lon="-2.993523962795734">
        <ele>4.94</ele>
        <time>2023-08-17T15:00:53Z</time>
      </trkpt>
      <trkpt lat="56.194242993369699" lon="-2.993446011096239">
        <ele>4.94</ele>
        <time>2023-08-17T15:00:54Z</time>
      </trkpt>
      <trkpt lat="56.194358998909593" lon="-2.993537038564682">
        <ele>4.94</ele>
        <time>2023-08-17T15:00:55Z</time>
      </trkpt>
      <trkpt lat="56.194467963650823" lon="-2.993527986109257">
        <ele>5.42</ele>
        <time>2023-08-17T15:00:56Z</time>
      </trkpt>
      <trkpt lat="56.194530995562673" lon="-2.993638962507248">
        <ele>5.91</ele>
        <time>2023-08-17T15:00:57Z</time>
      </trkpt>
      <trkpt lat="56.194596961140633" lon="-2.993756979703903">
        <ele>6.39</ele>
        <time>2023-08-17T15:00:58Z</time>
      </trkpt>
      <trkpt lat="56.1952980235219" lon="-2.994906976819038">
        <ele>5.42</ele>
        <time>2023-08-17T15:01:08Z</time>
      </trkpt>
      <trkpt lat="56.1960509698838" lon="-2.995861005038023">
        <ele>7.35</ele>
        <time>2023-08-17T15:01:18Z</time>
      </trkpt>
      <trkpt lat="56.196111990138888" lon="-2.995926970615983">
        <ele>7.35</ele>
        <time>2023-08-17T15:01:19Z</time>
      </trkpt>
      <trkpt lat="56.196184996515512" lon="-2.995963012799621">
        <ele>6.87</ele>
        <time>2023-08-17T15:01:20Z</time>
      </trkpt>
      <trkpt lat="56.196262026205659" lon="-2.99596200697124">
        <ele>6.87</ele>
        <time>2023-08-17T15:01:21Z</time>
      </trkpt>
      <trkpt lat="56.196342995390296" lon="-2.995907021686435">
        <ele>6.87</ele>
        <time>2023-08-17T15:01:22Z</time>
      </trkpt>
      <trkpt lat="56.196431005373597" lon="-2.995848013088107">
        <ele>7.35</ele>
        <time>2023-08-17T15:01:23Z</time>
      </trkpt>
      <trkpt lat="56.196526978164911" lon="-2.995781963691115">
        <ele>7.35</ele>
        <time>2023-08-17T15:01:24Z</time>
      </trkpt>
      <trkpt lat="56.196721019223332" lon="-2.995651038363576">
        <ele>7.83</ele>
        <time>2023-08-17T15:01:26Z</time>
      </trkpt>
      <trkpt lat="56.196816992014647" lon="-2.995585994794965">
        <ele>8.310000000000001</ele>
        <time>2023-08-17T15:01:27Z</time>
      </trkpt>
      <trkpt lat="56.19691195897758" lon="-2.995522040873766">
        <ele>8.789999999999999</ele>
        <time>2023-08-17T15:01:28Z</time>
      </trkpt>
      <trkpt lat="56.198003031313419" lon="-2.994657028466463">
        <ele>8.310000000000001</ele>
        <time>2023-08-17T15:01:40Z</time>
      </trkpt>
      <trkpt lat="56.198094980791211" lon="-2.994589973241091">
        <ele>8.789999999999999</ele>
        <time>2023-08-17T15:01:41Z</time>
      </trkpt>
      <trkpt lat="56.19819900020957" lon="-2.994549991562963">
        <ele>8.789999999999999</ele>
        <time>2023-08-17T15:01:42Z</time>
      </trkpt>
      <trkpt lat="56.198300002142787" lon="-2.994511015713215">
        <ele>9.27</ele>
        <time>2023-08-17T15:01:43Z</time>
      </trkpt>
      <trkpt lat="56.198393041267991" lon="-2.994486959651113">
        <ele>9.27</ele>
        <time>2023-08-17T15:01:44Z</time>
      </trkpt>
      <trkpt lat="56.198496976867318" lon="-2.994512021541596">
        <ele>9.75</ele>
        <time>2023-08-17T15:01:45Z</time>
      </trkpt>
      <trkpt lat="56.199932964518666" lon="-2.994849979877472">
        <ele>11.19</ele>
        <time>2023-08-17T15:01:58Z</time>
      </trkpt>
      <trkpt lat="56.201211037114263" lon="-2.995268991217017">
        <ele>8.789999999999999</ele>
        <time>2023-08-17T15:02:09Z</time>
      </trkpt>
      <trkpt lat="56.201328970491886" lon="-2.995309978723526">
        <ele>8.789999999999999</ele>
        <time>2023-08-17T15:02:10Z</time>
      </trkpt>
      <trkpt lat="56.201440030708909" lon="-2.995387008413672">
        <ele>9.27</ele>
        <time>2023-08-17T15:02:11Z</time>
      </trkpt>
      <trkpt lat="56.20155000127852" lon="-2.995475018396974">
        <ele>8.789999999999999</ele>
        <time>2023-08-17T15:02:12Z</time>
      </trkpt>
      <trkpt lat="56.20165703818202" lon="-2.995580965653062">
        <ele>9.27</ele>
        <time>2023-08-17T15:02:13Z</time>
      </trkpt>
      <trkpt lat="56.202691029757261" lon="-2.996800029650331">
        <ele>10.710000000000001</ele>
        <time>2023-08-17T15:02:24Z</time>
      </trkpt>
      <trkpt lat="56.202779039740562" lon="-2.996879993006587">
        <ele>11.19</ele>
        <time>2023-08-17T15:02:25Z</time>
      </trkpt>
      <trkpt lat="56.202854979783297" lon="-2.996948976069689">
        <ele>11.67</ele>
        <time>2023-08-17T15:02:26Z</time>
      </trkpt>
      <trkpt lat="56.202911976724863" lon="-2.996983006596565">
        <ele>12.15</ele>
        <time>2023-08-17T15:02:27Z</time>
      </trkpt>
      <trkpt lat="56.202954975888133" lon="-2.996998010203242">
        <ele>12.630000000000001</ele>
        <time>2023-08-17T15:02:28Z</time>
      </trkpt>
      <trkpt lat="56.202983977273107" lon="-2.997008990496397">
        <ele>12.630000000000001</ele>
        <time>2023-08-17T15:02:29Z</time>
      </trkpt>
      <trkpt lat="56.203029993921518" lon="-2.997024999931455">
        <ele>14.08</ele>
        <time>2023-08-17T15:02:35Z</time>
      </trkpt>
      <trkpt lat="56.203066958114505" lon="-2.997038997709751">
        <ele>15.039999999999999</ele>
        <time>2023-08-17T15:02:36Z</time>
      </trkpt>
      <trkpt lat="56.203180029988289" lon="-2.997078979387879">
        <ele>16</ele>
        <time>2023-08-17T15:02:38Z</time>
      </trkpt>
      <trkpt lat="56.203234009444714" lon="-2.997275032103062">
        <ele>16</ele>
        <time>2023-08-17T15:02:39Z</time>
      </trkpt>
      <trkpt lat="56.203286983072758" lon="-2.997288024052978">
        <ele>16.48</ele>
        <time>2023-08-17T15:02:40Z</time>
      </trkpt>
      <trkpt lat="56.203345991671085" lon="-2.997219040989876">
        <ele>16.960000000000001</ele>
        <time>2023-08-17T15:02:41Z</time>
      </trkpt>
      <trkpt lat="56.203372981399298" lon="-2.997164977714419">
        <ele>16.960000000000001</ele>
        <time>2023-08-17T15:02:42Z</time>
      </trkpt>
      <trkpt lat="56.203372981399298" lon="-2.997083002701402">
        <ele>16.960000000000001</ele>
        <time>2023-08-17T15:02:43Z</time>
      </trkpt>
      <trkpt lat="56.203449005261064" lon="-2.996730040758848">
        <ele>16.960000000000001</ele>
        <time>2023-08-17T15:02:46Z</time>
      </trkpt>
      <trkpt lat="56.203659977763891" lon="-2.996247997507453">
        <ele>16.960000000000001</ele>
        <time>2023-08-17T15:02:49Z</time>
      </trkpt>
      <trkpt lat="56.203719992190599" lon="-2.996111959218979">
        <ele>16.960000000000001</ele>
        <time>2023-08-17T15:02:50Z</time>
      </trkpt>
      <trkpt lat="56.203777994960546" lon="-2.995965024456382">
        <ele>16.960000000000001</ele>
        <time>2023-08-17T15:02:51Z</time>
      </trkpt>
      <trkpt lat="56.204026015475392" lon="-2.995322970673442">
        <ele>18.879999999999999</ele>
        <time>2023-08-17T15:02:55Z</time>
      </trkpt>
      <trkpt lat="56.204087035730481" lon="-2.995165977627039">
        <ele>19.84</ele>
        <time>2023-08-17T15:02:56Z</time>
      </trkpt>
      <trkpt lat="56.204162975773215" lon="-2.995046032592654">
        <ele>20.809999999999999</ele>
        <time>2023-08-17T15:02:58Z</time>
      </trkpt>
      <trkpt lat="56.204295996576548" lon="-2.994869006797671">
        <ele>20.809999999999999</ele>
        <time>2023-08-17T15:02:59Z</time>
      </trkpt>
      <trkpt lat="56.204409990459681" lon="-2.994869006797671">
        <ele>22.25</ele>
        <time>2023-08-17T15:03:01Z</time>
      </trkpt>
      <trkpt lat="56.204894967377186" lon="-2.99497595988214">
        <ele>26.09</ele>
        <time>2023-08-17T15:03:07Z</time>
      </trkpt>
      <trkpt lat="56.204979037865996" lon="-2.994766999036074">
        <ele>26.57</ele>
        <time>2023-08-17T15:03:08Z</time>
      </trkpt>
      <trkpt lat="56.205651015043259" lon="-2.994133997708559">
        <ele>28.02</ele>
        <time>2023-08-17T15:03:15Z</time>
      </trkpt>
      <trkpt lat="56.205729972571135" lon="-2.994013968855143">
        <ele>28.02</ele>
        <time>2023-08-17T15:03:16Z</time>
      </trkpt>
      <trkpt lat="56.205797027796507" lon="-2.993870973587036">
        <ele>28.5</ele>
        <time>2023-08-17T15:03:17Z</time>
      </trkpt>
      <trkpt lat="56.205863999202847" lon="-2.993729989975691">
        <ele>28.02</ele>
        <time>2023-08-17T15:03:18Z</time>
      </trkpt>
      <trkpt lat="56.20591202750802" lon="-2.993588000535965">
        <ele>28.02</ele>
        <time>2023-08-17T15:03:19Z</time>
      </trkpt>
      <trkpt lat="56.205953015014529" lon="-2.993438970297575">
        <ele>27.530000000000001</ele>
        <time>2023-08-17T15:03:20Z</time>
      </trkpt>
      <trkpt lat="56.205994002521038" lon="-2.993290023878217">
        <ele>27.530000000000001</ele>
        <time>2023-08-17T15:03:21Z</time>
      </trkpt>
      <trkpt lat="56.206430029124022" lon="-2.991236038506031">
        <ele>24.649999999999999</ele>
        <time>2023-08-17T15:03:33Z</time>
      </trkpt>
      <trkpt lat="56.206864966079593" lon="-2.989055989310145">
        <ele>22.25</ele>
        <time>2023-08-17T15:03:46Z</time>
      </trkpt>
      <trkpt lat="56.207295963540673" lon="-2.986884992569685">
        <ele>21.289999999999999</ele>
        <time>2023-08-17T15:03:57Z</time>
      </trkpt>
      <trkpt lat="56.207764009013772" lon="-2.984482990577817">
        <ele>19.84</ele>
        <time>2023-08-17T15:04:08Z</time>
      </trkpt>
      <trkpt lat="56.208201041445136" lon="-2.982301013544202">
        <ele>17.920000000000002</ele>
        <time>2023-08-17T15:04:18Z</time>
      </trkpt>
      <trkpt lat="56.208252003416419" lon="-2.982057016342878">
        <ele>17.920000000000002</ele>
        <time>2023-08-17T15:04:19Z</time>
      </trkpt>
      <trkpt lat="56.208358034491539" lon="-2.981553012505174">
        <ele>17.440000000000001</ele>
        <time>2023-08-17T15:04:21Z</time>
      </trkpt>
      <trkpt lat="56.208411008119583" lon="-2.981296023353934">
        <ele>16.960000000000001</ele>
        <time>2023-08-17T15:04:22Z</time>
      </trkpt>
      <trkpt lat="56.208464987576008" lon="-2.981037022545934">
        <ele>16.960000000000001</ele>
        <time>2023-08-17T15:04:23Z</time>
      </trkpt>
      <trkpt lat="56.208520978689194" lon="-2.980768969282508">
        <ele>16.960000000000001</ele>
        <time>2023-08-17T15:04:24Z</time>
      </trkpt>
      <trkpt lat="56.208578981459141" lon="-2.98049203120172">
        <ele>16.960000000000001</ele>
        <time>2023-08-17T15:04:25Z</time>
      </trkpt>
      <trkpt lat="56.208807975053787" lon="-2.979349996894598">
        <ele>17.440000000000001</ele>
        <time>2023-08-17T15:04:29Z</time>
      </trkpt>
      <trkpt lat="56.208863966166973" lon="-2.979069035500288">
        <ele>17.440000000000001</ele>
        <time>2023-08-17T15:04:30Z</time>
      </trkpt>
      <trkpt lat="56.209423961117864" lon="-2.976280963048339">
        <ele>16.960000000000001</ele>
        <time>2023-08-17T15:04:40Z</time>
      </trkpt>
      <trkpt lat="56.210226025432348" lon="-2.972298972308636">
        <ele>18.879999999999999</ele>
        <time>2023-08-17T15:04:54Z</time>
      </trkpt>
      <trkpt lat="56.210834970697761" lon="-2.969307973980904">
        <ele>19.359999999999999</ele>
        <time>2023-08-17T15:05:05Z</time>
      </trkpt>
      <trkpt lat="56.211116015911102" lon="-2.967897970229387">
        <ele>19.359999999999999</ele>
        <time>2023-08-17T15:05:12Z</time>
      </trkpt>
      <trkpt lat="56.211522035300732" lon="-2.965931994840503">
        <ele>21.289999999999999</ele>
        <time>2023-08-17T15:05:22Z</time>
      </trkpt>
      <trkpt lat="56.211678022518754" lon="-2.965165972709656">
        <ele>21.289999999999999</ele>
        <time>2023-08-17T15:05:26Z</time>
      </trkpt>
      <trkpt lat="56.211716998368502" lon="-2.964972015470266">
        <ele>21.289999999999999</ele>
        <time>2023-08-17T15:05:27Z</time>
      </trkpt>
      <trkpt lat="56.212120000272989" lon="-2.96298198401928">
        <ele>17.440000000000001</ele>
        <time>2023-08-17T15:05:37Z</time>
      </trkpt>
      <trkpt lat="56.21227003633976" lon="-2.962260972708464">
        <ele>17.440000000000001</ele>
        <time>2023-08-17T15:05:41Z</time>
      </trkpt>
      <trkpt lat="56.212307000532746" lon="-2.962084030732513">
        <ele>16.960000000000001</ele>
        <time>2023-08-17T15:05:42Z</time>
      </trkpt>
      <trkpt lat="56.212632972747087" lon="-2.960505969822407">
        <ele>15.52</ele>
        <time>2023-08-17T15:05:54Z</time>
      </trkpt>
      <trkpt lat="56.213015019893646" lon="-2.95859900303185">
        <ele>15.52</ele>
        <time>2023-08-17T15:06:06Z</time>
      </trkpt>
      <trkpt lat="56.213074028491974" lon="-2.958295997232199">
        <ele>16</ele>
        <time>2023-08-17T15:06:09Z</time>
      </trkpt>
      <trkpt lat="56.21313102543354" lon="-2.958005983382464">
        <ele>16</ele>
        <time>2023-08-17T15:06:10Z</time>
      </trkpt>
      <trkpt lat="56.213159020990133" lon="-2.957861982285976">
        <ele>16</ele>
        <time>2023-08-17T15:06:11Z</time>
      </trkpt>
      <trkpt lat="56.2132160179317" lon="-2.957570962607861">
        <ele>16.48</ele>
        <time>2023-08-17T15:06:13Z</time>
      </trkpt>
      <trkpt lat="56.213244013488293" lon="-2.957427967339754">
        <ele>16.960000000000001</ele>
        <time>2023-08-17T15:06:14Z</time>
      </trkpt>
      <trkpt lat="56.213592030107975" lon="-2.955624014139175">
        <ele>19.359999999999999</ele>
        <time>2023-08-17T15:06:26Z</time>
      </trkpt>
      <trkpt lat="56.213720021769404" lon="-2.954893028363586">
        <ele>21.289999999999999</ele>
        <time>2023-08-17T15:06:31Z</time>
      </trkpt>
      <trkpt lat="56.213893024250865" lon="-2.953125033527613">
        <ele>21.77</ele>
        <time>2023-08-17T15:06:43Z</time>
      </trkpt>
      <trkpt lat="56.213913979008794" lon="-2.952870978042483">
        <ele>22.25</ele>
        <time>2023-08-17T15:06:45Z</time>
      </trkpt>
      <trkpt lat="56.21392797678709" lon="-2.952752960845828">
        <ele>22.25</ele>
        <time>2023-08-17T15:06:46Z</time>
      </trkpt>
      <trkpt lat="56.213940968737006" lon="-2.952641984447837">
        <ele>22.73</ele>
        <time>2023-08-17T15:06:47Z</time>
      </trkpt>
      <trkpt lat="56.214015986770391" lon="-2.951696002855897">
        <ele>24.170000000000002</ele>
        <time>2023-08-17T15:06:54Z</time>
      </trkpt>
      <trkpt lat="56.214092010632157" lon="-2.951544038951397">
        <ele>24.649999999999999</ele>
        <time>2023-08-17T15:06:56Z</time>
      </trkpt>
      <trkpt lat="56.214401973411441" lon="-2.950903996825218">
        <ele>26.57</ele>
        <time>2023-08-17T15:07:01Z</time>
      </trkpt>
      <trkpt lat="56.214452013373375" lon="-2.950753960758448">
        <ele>26.57</ele>
        <time>2023-08-17T15:07:02Z</time>
      </trkpt>
      <trkpt lat="56.214573970064521" lon="-2.950278036296368">
        <ele>26.57</ele>
        <time>2023-08-17T15:07:05Z</time>
      </trkpt>
      <trkpt lat="56.214681006968021" lon="-2.949774032458663">
        <ele>26.57</ele>
        <time>2023-08-17T15:07:08Z</time>
      </trkpt>
      <trkpt lat="56.214704979211092" lon="-2.949660960584879">
        <ele>26.09</ele>
        <time>2023-08-17T15:07:09Z</time>
      </trkpt>
      <trkpt lat="56.214804975315928" lon="-2.949430961161852">
        <ele>25.129999999999999</ele>
        <time>2023-08-17T15:07:11Z</time>
      </trkpt>
      <trkpt lat="56.214878987520933" lon="-2.949353009462357">
        <ele>24.649999999999999</ele>
        <time>2023-08-17T15:07:12Z</time>
      </trkpt>
      <trkpt lat="56.214950988069177" lon="-2.949280003085733">
        <ele>24.170000000000002</ele>
        <time>2023-08-17T15:07:13Z</time>
      </trkpt>
      <trkpt lat="56.215032041072845" lon="-2.949222000315785">
        <ele>23.210000000000001</ele>
        <time>2023-08-17T15:07:14Z</time>
      </trkpt>
      <trkpt lat="56.215116027742624" lon="-2.949175983667374">
        <ele>22.73</ele>
        <time>2023-08-17T15:07:15Z</time>
      </trkpt>
      <trkpt lat="56.215202026069164" lon="-2.949128039181233">
        <ele>21.289999999999999</ele>
        <time>2023-08-17T15:07:17Z</time>
      </trkpt>
      <trkpt lat="56.215286012738943" lon="-2.94908101670444">
        <ele>20.32</ele>
        <time>2023-08-17T15:07:18Z</time>
      </trkpt>
      <trkpt lat="56.215910967439413" lon="-2.948836013674736">
        <ele>17.920000000000002</ele>
        <time>2023-08-17T15:07:27Z</time>
      </trkpt>
      <trkpt lat="56.21601196937263" lon="-2.948798965662718">
        <ele>18.399999999999999</ele>
        <time>2023-08-17T15:07:28Z</time>
      </trkpt>
      <trkpt lat="56.216045999899507" lon="-2.948695030063391">
        <ele>18.399999999999999</ele>
        <time>2023-08-17T15:07:29Z</time>
      </trkpt>
      <trkpt lat="56.216078018769622" lon="-2.948599979281426">
        <ele>18.879999999999999</ele>
        <time>2023-08-17T15:07:31Z</time>
      </trkpt>
      <trkpt lat="56.216101991012692" lon="-2.948491014540196">
        <ele>19.359999999999999</ele>
        <time>2023-08-17T15:07:32Z</time>
      </trkpt>
      <trkpt lat="56.216126969084144" lon="-2.948209969326854">
        <ele>19.359999999999999</ele>
        <time>2023-08-17T15:07:33Z</time>
      </trkpt>
      <trkpt lat="56.216398039832711" lon="-2.946171993389726">
        <ele>23.690000000000001</ele>
        <time>2023-08-17T15:07:46Z</time>
      </trkpt>
      <trkpt lat="56.216585962101817" lon="-2.944650007411838">
        <ele>26.57</ele>
        <time>2023-08-17T15:07:56Z</time>
      </trkpt>
      <trkpt lat="56.21657095849514" lon="-2.944483961910009">
        <ele>26.57</ele>
        <time>2023-08-17T15:07:57Z</time>
      </trkpt>
      <trkpt lat="56.216562995687127" lon="-2.942663999274373">
        <ele>27.050000000000001</ele>
        <time>2023-08-17T15:08:09Z</time>
      </trkpt>
      <trkpt lat="56.216460987925529" lon="-2.940499037504196">
        <ele>26.09</ele>
        <time>2023-08-17T15:08:20Z</time>
      </trkpt>
      <trkpt lat="56.216403990983963" lon="-2.939216019585729">
        <ele>25.129999999999999</ele>
        <time>2023-08-17T15:08:26Z</time>
      </trkpt>
      <trkpt lat="56.216395022347569" lon="-2.939014015719295">
        <ele>25.129999999999999</ele>
        <time>2023-08-17T15:08:27Z</time>
      </trkpt>
      <trkpt lat="56.216315981000662" lon="-2.936571026220918">
        <ele>22.25</ele>
        <time>2023-08-17T15:08:38Z</time>
      </trkpt>
      <trkpt lat="56.216359985992312" lon="-2.936317976564169">
        <ele>22.25</ele>
        <time>2023-08-17T15:08:39Z</time>
      </trkpt>
      <trkpt lat="56.216883016750216" lon="-2.933278027921915">
        <ele>22.73</ele>
        <time>2023-08-17T15:08:51Z</time>
      </trkpt>
      <trkpt lat="56.217279983684421" lon="-2.931212978437543">
        <ele>23.210000000000001</ele>
        <time>2023-08-17T15:08:59Z</time>
      </trkpt>
      <trkpt lat="56.21734200976789" lon="-2.931048022583127">
        <ele>23.210000000000001</ele>
        <time>2023-08-17T15:09:00Z</time>
      </trkpt>
      <trkpt lat="56.217425996437669" lon="-2.930955989286304">
        <ele>23.690000000000001</ele>
        <time>2023-08-17T15:09:01Z</time>
      </trkpt>
      <trkpt lat="56.21753403916955" lon="-2.930897986516357">
        <ele>24.649999999999999</ele>
        <time>2023-08-17T15:09:02Z</time>
      </trkpt>
      <trkpt lat="56.21764300391078" lon="-2.930838977918029">
        <ele>25.609999999999999</ele>
        <time>2023-08-17T15:09:03Z</time>
      </trkpt>
      <trkpt lat="56.217760015279055" lon="-2.930812994018197">
        <ele>27.050000000000001</ele>
        <time>2023-08-17T15:09:05Z</time>
      </trkpt>
      <trkpt lat="56.219159038737416" lon="-2.930423989892006">
        <ele>39.549999999999997</ele>
        <time>2023-08-17T15:09:17Z</time>
      </trkpt>
      <trkpt lat="56.219723979011178" lon="-2.930087959393859">
        <ele>42.920000000000002</ele>
        <time>2023-08-17T15:09:23Z</time>
      </trkpt>
      <trkpt lat="56.219808971509337" lon="-2.929987963289022">
        <ele>43.399999999999999</ele>
        <time>2023-08-17T15:09:24Z</time>
      </trkpt>
      <trkpt lat="56.219872003421187" lon="-2.929886961355805">
        <ele>43.880000000000003</ele>
        <time>2023-08-17T15:09:25Z</time>
      </trkpt>
      <trkpt lat="56.219927994534373" lon="-2.92974497191608">
        <ele>44.359999999999999</ele>
        <time>2023-08-17T15:09:26Z</time>
      </trkpt>
      <trkpt lat="56.21998499147594" lon="-2.929599964991212">
        <ele>44.359999999999999</ele>
        <time>2023-08-17T15:09:27Z</time>
      </trkpt>
      <trkpt lat="56.22019998729229" lon="-2.928929999470711">
        <ele>43.399999999999999</ele>
        <time>2023-08-17T15:09:33Z</time>
      </trkpt>
      <trkpt lat="56.220499975606799" lon="-2.927763992920518">
        <ele>42.439999999999998</ele>
        <time>2023-08-17T15:09:39Z</time>
      </trkpt>
      <trkpt lat="56.220815973356366" lon="-2.925817966461182">
        <ele>45.799999999999997</ele>
        <time>2023-08-17T15:09:50Z</time>
      </trkpt>
      <trkpt lat="56.220965003594756" lon="-2.924913978204131">
        <ele>45.799999999999997</ele>
        <time>2023-08-17T15:09:55Z</time>
      </trkpt>
      <trkpt lat="56.220987970009446" lon="-2.924729995429516">
        <ele>46.280000000000001</ele>
        <time>2023-08-17T15:09:56Z</time>
      </trkpt>
      <trkpt lat="56.220975983887911" lon="-2.924531009048224">
        <ele>46.759999999999998</ele>
        <time>2023-08-17T15:09:57Z</time>
      </trkpt>
      <trkpt lat="56.220959974452853" lon="-2.924324981868267">
        <ele>47.240000000000002</ele>
        <time>2023-08-17T15:09:59Z</time>
      </trkpt>
      <trkpt lat="56.220934996381402" lon="-2.924113003537059">
        <ele>47.719999999999999</ele>
        <time>2023-08-17T15:10:00Z</time>
      </trkpt>
      <trkpt lat="56.220898032188416" lon="-2.923442032188177">
        <ele>47.719999999999999</ele>
        <time>2023-08-17T15:10:03Z</time>
      </trkpt>
      <trkpt lat="56.220938013866544" lon="-2.922969041392207">
        <ele>47.719999999999999</ele>
        <time>2023-08-17T15:10:04Z</time>
      </trkpt>
      <trkpt lat="56.221357025206089" lon="-2.920512976124883">
        <ele>49.159999999999997</ele>
        <time>2023-08-17T15:10:14Z</time>
      </trkpt>
      <trkpt lat="56.221836972981691" lon="-2.917675031349063">
        <ele>51.57</ele>
        <time>2023-08-17T15:10:25Z</time>
      </trkpt>
      <trkpt lat="56.221869997680187" lon="-2.917471015825868">
        <ele>51.57</ele>
        <time>2023-08-17T15:10:26Z</time>
      </trkpt>
      <trkpt lat="56.221852982416749" lon="-2.917231963947415">
        <ele>52.049999999999997</ele>
        <time>2023-08-17T15:10:27Z</time>
      </trkpt>
      <trkpt lat="56.221836972981691" lon="-2.917002970352769">
        <ele>52.530000000000001</ele>
        <time>2023-08-17T15:10:28Z</time>
      </trkpt>
      <trkpt lat="56.221819035708904" lon="-2.916755033656955">
        <ele>52.530000000000001</ele>
        <time>2023-08-17T15:10:29Z</time>
      </trkpt>
      <trkpt lat="56.221800008788705" lon="-2.916485974565148">
        <ele>52.049999999999997</ele>
        <time>2023-08-17T15:10:30Z</time>
      </trkpt>
      <trkpt lat="56.221561040729284" lon="-2.913705026730895">
        <ele>48.68</ele>
        <time>2023-08-17T15:10:39Z</time>
      </trkpt>
      <trkpt lat="56.2213150318712" lon="-2.910978980362415">
        <ele>49.159999999999997</ele>
        <time>2023-08-17T15:10:48Z</time>
      </trkpt>
      <trkpt lat="56.220703991129994" lon="-2.907607024535537">
        <ele>49.159999999999997</ele>
        <time>2023-08-17T15:11:00Z</time>
      </trkpt>
      <trkpt lat="56.2201579939574" lon="-2.905346006155014">
        <ele>45.32</ele>
        <time>2023-08-17T15:11:08Z</time>
      </trkpt>
      <trkpt lat="56.220010975375772" lon="-2.904920959845185">
        <ele>44.840000000000003</ele>
        <time>2023-08-17T15:11:10Z</time>
      </trkpt>
      <trkpt lat="56.219911985099316" lon="-2.904746029525995">
        <ele>45.32</ele>
        <time>2023-08-17T15:11:11Z</time>
      </trkpt>
      <trkpt lat="56.21981400065124" lon="-2.904573027044535">
        <ele>44.840000000000003</ele>
        <time>2023-08-17T15:11:12Z</time>
      </trkpt>
      <trkpt lat="56.219716016203165" lon="-2.904401030391455">
        <ele>45.32</ele>
        <time>2023-08-17T15:11:13Z</time>
      </trkpt>
      <trkpt lat="56.219609985128045" lon="-2.904264992102981">
        <ele>45.32</ele>
        <time>2023-08-17T15:11:15Z</time>
      </trkpt>
      <trkpt lat="56.219496997073293" lon="-2.904142029583454">
        <ele>45.799999999999997</ele>
        <time>2023-08-17T15:11:16Z</time>
      </trkpt>
      <trkpt lat="56.218961980193853" lon="-2.90355303324759">
        <ele>45.799999999999997</ele>
        <time>2023-08-17T15:11:21Z</time>
      </trkpt>
      <trkpt lat="56.218765005469322" lon="-2.903300989419222">
        <ele>45.799999999999997</ele>
        <time>2023-08-17T15:11:23Z</time>
      </trkpt>
      <trkpt lat="56.218680012971163" lon="-2.903131004422903">
        <ele>45.799999999999997</ele>
        <time>2023-08-17T15:11:24Z</time>
      </trkpt>
      <trkpt lat="56.218579011037946" lon="-2.902708975598216">
        <ele>46.759999999999998</ele>
        <time>2023-08-17T15:11:26Z</time>
      </trkpt>
      <trkpt lat="56.218103002756834" lon="-2.899718983098865">
        <ele>47.719999999999999</ele>
        <time>2023-08-17T15:11:37Z</time>
      </trkpt>
      <trkpt lat="56.217589024454355" lon="-2.897653011605144">
        <ele>47.719999999999999</ele>
        <time>2023-08-17T15:11:44Z</time>
      </trkpt>
      <trkpt lat="56.217372016981244" lon="-2.896833010017872">
        <ele>47.719999999999999</ele>
        <time>2023-08-17T15:11:47Z</time>
      </trkpt>
      <trkpt lat="56.217320971190929" lon="-2.896550036966801">
        <ele>47.719999999999999</ele>
        <time>2023-08-17T15:11:48Z</time>
      </trkpt>
      <trkpt lat="56.217316025868058" lon="-2.89624803699553">
        <ele>47.240000000000002</ele>
        <time>2023-08-17T15:11:49Z</time>
      </trkpt>
      <trkpt lat="56.217312002554536" lon="-2.895944025367498">
        <ele>47.240000000000002</ele>
        <time>2023-08-17T15:11:50Z</time>
      </trkpt>
      <trkpt lat="56.217307979241014" lon="-2.895633978769183">
        <ele>46.759999999999998</ele>
        <time>2023-08-17T15:11:51Z</time>
      </trkpt>
      <trkpt lat="56.217232961207628" lon="-2.892463020980358">
        <ele>46.280000000000001</ele>
        <time>2023-08-17T15:12:02Z</time>
      </trkpt>
      <trkpt lat="56.216942025348544" lon="-2.889663968235254">
        <ele>45.32</ele>
        <time>2023-08-17T15:12:12Z</time>
      </trkpt>
      <trkpt lat="56.216256972402334" lon="-2.886468032374978">
        <ele>42.920000000000002</ele>
        <time>2023-08-17T15:12:23Z</time>
      </trkpt>
      <trkpt lat="56.215630006045103" lon="-2.883363962173462">
        <ele>37.630000000000003</ele>
        <time>2023-08-17T15:12:34Z</time>
      </trkpt>
      <trkpt lat="56.215608967468143" lon="-2.883089035749435">
        <ele>37.149999999999999</ele>
        <time>2023-08-17T15:12:35Z</time>
      </trkpt>
      <trkpt lat="56.215563034638762" lon="-2.880674041807652">
        <ele>35.710000000000001</ele>
        <time>2023-08-17T15:12:43Z</time>
      </trkpt>
      <trkpt lat="56.215648027136922" lon="-2.878403970971704">
        <ele>34.740000000000002</ele>
        <time>2023-08-17T15:12:51Z</time>
      </trkpt>
      <trkpt lat="56.21568700298667" lon="-2.877503000199795">
        <ele>33.780000000000001</ele>
        <time>2023-08-17T15:12:55Z</time>
      </trkpt>
      <trkpt lat="56.216050023213029" lon="-2.875471981242299">
        <ele>32.340000000000003</ele>
        <time>2023-08-17T15:13:02Z</time>
      </trkpt>
      <trkpt lat="56.216136021539569" lon="-2.875006031244993">
        <ele>31.859999999999999</ele>
        <time>2023-08-17T15:13:05Z</time>
      </trkpt>
      <trkpt lat="56.216173991560936" lon="-2.874574027955532">
        <ele>31.379999999999999</ele>
        <time>2023-08-17T15:13:06Z</time>
      </trkpt>
      <trkpt lat="56.216163011267781" lon="-2.874368000775576">
        <ele>29.940000000000001</ele>
        <time>2023-08-17T15:13:08Z</time>
      </trkpt>
      <trkpt lat="56.215929994359612" lon="-2.872954979538918">
        <ele>26.09</ele>
        <time>2023-08-17T15:13:13Z</time>
      </trkpt>
      <trkpt lat="56.2159220315516" lon="-2.872414011508226">
        <ele>24.649999999999999</ele>
        <time>2023-08-17T15:13:15Z</time>
      </trkpt>
      <trkpt lat="56.21594499796629" lon="-2.872160961851478">
        <ele>24.170000000000002</ele>
        <time>2023-08-17T15:13:16Z</time>
      </trkpt>
      <trkpt lat="56.21596603654325" lon="-2.871922999620438">
        <ele>23.690000000000001</ele>
        <time>2023-08-17T15:13:17Z</time>
      </trkpt>
      <trkpt lat="56.215990008786321" lon="-2.871658969670534">
        <ele>23.210000000000001</ele>
        <time>2023-08-17T15:13:18Z</time>
      </trkpt>
      <trkpt lat="56.216024961322546" lon="-2.871503988280892">
        <ele>22.25</ele>
        <time>2023-08-17T15:13:19Z</time>
      </trkpt>
      <trkpt lat="56.216108025982976" lon="-2.871128981932998">
        <ele>21.289999999999999</ele>
        <time>2023-08-17T15:13:22Z</time>
      </trkpt>
      <trkpt lat="56.216135015711188" lon="-2.871009036898613">
        <ele>21.77</ele>
        <time>2023-08-17T15:13:23Z</time>
      </trkpt>
      <trkpt lat="56.21614096686244" lon="-2.87083100527525">
        <ele>21.77</ele>
        <time>2023-08-17T15:13:24Z</time>
      </trkpt>
      <trkpt lat="56.216090004891157" lon="-2.870693961158395">
        <ele>21.289999999999999</ele>
        <time>2023-08-17T15:13:25Z</time>
      </trkpt>
      <trkpt lat="56.216026972979307" lon="-2.870526993647218">
        <ele>21.289999999999999</ele>
        <time>2023-08-17T15:13:26Z</time>
      </trkpt>
      <trkpt lat="56.215955978259444" lon="-2.8703379817307">
        <ele>21.289999999999999</ele>
        <time>2023-08-17T15:13:27Z</time>
      </trkpt>
      <trkpt lat="56.21517201885581" lon="-2.868246026337147">
        <ele>19.84</ele>
        <time>2023-08-17T15:13:36Z</time>
      </trkpt>
      <trkpt lat="56.21482802554965" lon="-2.867659041658044">
        <ele>19.84</ele>
        <time>2023-08-17T15:13:39Z</time>
      </trkpt>
      <trkpt lat="56.214536000043154" lon="-2.867376990616322">
        <ele>19.359999999999999</ele>
        <time>2023-08-17T15:13:41Z</time>
      </trkpt>
      <trkpt lat="56.214386969804764" lon="-2.867261990904808">
        <ele>18.879999999999999</ele>
        <time>2023-08-17T15:13:42Z</time>
      </trkpt>
      <trkpt lat="56.21409997344017" lon="-2.867039032280445">
        <ele>17.920000000000002</ele>
        <time>2023-08-17T15:13:44Z</time>
      </trkpt>
      <trkpt lat="56.213968964293599" lon="-2.866884972900152">
        <ele>17.440000000000001</ele>
        <time>2023-08-17T15:13:45Z</time>
      </trkpt>
      <trkpt lat="56.213837033137679" lon="-2.866719011217356">
        <ele>16.960000000000001</ele>
        <time>2023-08-17T15:13:46Z</time>
      </trkpt>
      <trkpt lat="56.213707029819489" lon="-2.866536034271121">
        <ele>16.48</ele>
        <time>2023-08-17T15:13:47Z</time>
      </trkpt>
      <trkpt lat="56.213587000966072" lon="-2.866307040676475">
        <ele>16.48</ele>
        <time>2023-08-17T15:13:48Z</time>
      </trkpt>
      <trkpt lat="56.213464960455894" lon="-2.866074023768306">
        <ele>16</ele>
        <time>2023-08-17T15:13:49Z</time>
      </trkpt>
      <trkpt lat="56.212694998830557" lon="-2.864595036953688">
        <ele>16.48</ele>
        <time>2023-08-17T15:13:56Z</time>
      </trkpt>
      <trkpt lat="56.211471995338798" lon="-2.862942041829228">
        <ele>16.48</ele>
        <time>2023-08-17T15:14:03Z</time>
      </trkpt>
      <trkpt lat="56.210114965215325" lon="-2.860546996816993">
        <ele>15.52</ele>
        <time>2023-08-17T15:14:13Z</time>
      </trkpt>
      <trkpt lat="56.210009017959237" lon="-2.860323032364249">
        <ele>15.039999999999999</ele>
        <time>2023-08-17T15:14:15Z</time>
      </trkpt>
      <trkpt lat="56.209883037954569" lon="-2.859833026304841">
        <ele>14.56</ele>
        <time>2023-08-17T15:14:17Z</time>
      </trkpt>
      <trkpt lat="56.209874991327524" lon="-2.859261967241764">
        <ele>14.56</ele>
        <time>2023-08-17T15:14:18Z</time>
      </trkpt>
      <trkpt lat="56.209893012419343" lon="-2.857179986312985">
        <ele>13.119999999999999</ele>
        <time>2023-08-17T15:14:26Z</time>
      </trkpt>
      <trkpt lat="56.209868034347892" lon="-2.856796011328697">
        <ele>13.6</ele>
        <time>2023-08-17T15:14:28Z</time>
      </trkpt>
      <trkpt lat="56.209838027134538" lon="-2.856596019119024">
        <ele>13.6</ele>
        <time>2023-08-17T15:14:29Z</time>
      </trkpt>
      <trkpt lat="56.209778012707829" lon="-2.856406001374126">
        <ele>13.6</ele>
        <time>2023-08-17T15:14:30Z</time>
      </trkpt>
      <trkpt lat="56.209700983017683" lon="-2.856198968365789">
        <ele>14.08</ele>
        <time>2023-08-17T15:14:31Z</time>
      </trkpt>
      <trkpt lat="56.20960702188313" lon="-2.856000987812877">
        <ele>14.08</ele>
        <time>2023-08-17T15:14:32Z</time>
      </trkpt>
      <trkpt lat="56.208825996145606" lon="-2.854494005441666">
        <ele>17.440000000000001</ele>
        <time>2023-08-17T15:14:40Z</time>
      </trkpt>
      <trkpt lat="56.207622019574046" lon="-2.852150006219745">
        <ele>18.399999999999999</ele>
        <time>2023-08-17T15:14:49Z</time>
      </trkpt>
      <trkpt lat="56.205507013946772" lon="-2.848028959706426">
        <ele>16</ele>
        <time>2023-08-17T15:15:04Z</time>
      </trkpt>
      <trkpt lat="56.20539897121489" lon="-2.84775897860527">
        <ele>16</ele>
        <time>2023-08-17T15:15:05Z</time>
      </trkpt>
      <trkpt lat="56.205300986766815" lon="-2.847467036917806">
        <ele>16</ele>
        <time>2023-08-17T15:15:06Z</time>
      </trkpt>
      <trkpt lat="56.204822966828942" lon="-2.84563098102808">
        <ele>14.56</ele>
        <time>2023-08-17T15:15:13Z</time>
      </trkpt>
      <trkpt lat="56.204690029844642" lon="-2.845004014670849">
        <ele>13.119999999999999</ele>
        <time>2023-08-17T15:15:16Z</time>
      </trkpt>
      <trkpt lat="56.204669997096062" lon="-2.844895971938968">
        <ele>12.15</ele>
        <time>2023-08-17T15:15:17Z</time>
      </trkpt>
      <trkpt lat="56.204622974619269" lon="-2.844646023586392">
        <ele>11.19</ele>
        <time>2023-08-17T15:15:19Z</time>
      </trkpt>
      <trkpt lat="56.204596990719438" lon="-2.844502022489905">
        <ele>10.710000000000001</ele>
        <time>2023-08-17T15:15:20Z</time>
      </trkpt>
      <trkpt lat="56.204321980476379" lon="-2.843018006533384">
        <ele>7.83</ele>
        <time>2023-08-17T15:15:27Z</time>
      </trkpt>
      <trkpt lat="56.204190971329808" lon="-2.841379009187222">
        <ele>9.75</ele>
        <time>2023-08-17T15:15:34Z</time>
      </trkpt>
      <trkpt lat="56.203880002722144" lon="-2.839598022401333">
        <ele>12.15</ele>
        <time>2023-08-17T15:15:41Z</time>
      </trkpt>
      <trkpt lat="56.203499967232347" lon="-2.836860995739698">
        <ele>12.630000000000001</ele>
        <time>2023-08-17T15:15:50Z</time>
      </trkpt>
      <trkpt lat="56.203415980562568" lon="-2.835717033594847">
        <ele>13.119999999999999</ele>
        <time>2023-08-17T15:15:54Z</time>
      </trkpt>
      <trkpt lat="56.203341968357563" lon="-2.835443029180169">
        <ele>13.6</ele>
        <time>2023-08-17T15:15:55Z</time>
      </trkpt>
      <trkpt lat="56.203269967809319" lon="-2.835171958431602">
        <ele>13.6</ele>
        <time>2023-08-17T15:15:56Z</time>
      </trkpt>
      <trkpt lat="56.203194027766585" lon="-2.834889991208911">
        <ele>13.6</ele>
        <time>2023-08-17T15:15:58Z</time>
      </trkpt>
      <trkpt lat="56.202955981716514" lon="-2.834370983764529">
        <ele>13.6</ele>
        <time>2023-08-17T15:15:59Z</time>
      </trkpt>
      <trkpt lat="56.202808963134885" lon="-2.834146013483405">
        <ele>13.6</ele>
        <time>2023-08-17T15:16:00Z</time>
      </trkpt>
      <trkpt lat="56.202651970088482" lon="-2.833954989910126">
        <ele>13.6</ele>
        <time>2023-08-17T15:16:01Z</time>
      </trkpt>
      <trkpt lat="56.202475028112531" lon="-2.833831021562219">
        <ele>14.08</ele>
        <time>2023-08-17T15:16:02Z</time>
      </trkpt>
      <trkpt lat="56.202296996489167" lon="-2.833705963566899">
        <ele>14.56</ele>
        <time>2023-08-17T15:16:03Z</time>
      </trkpt>
      <trkpt lat="56.202121982350945" lon="-2.833583001047373">
        <ele>15.039999999999999</ele>
        <time>2023-08-17T15:16:04Z</time>
      </trkpt>
      <trkpt lat="56.201070975512266" lon="-2.832856960594654">
        <ele>16.960000000000001</ele>
        <time>2023-08-17T15:16:10Z</time>
      </trkpt>
      <trkpt lat="56.200895961374044" lon="-2.832737015560269">
        <ele>16.960000000000001</ele>
        <time>2023-08-17T15:16:11Z</time>
      </trkpt>
      <trkpt lat="56.199270039796829" lon="-2.831537984311581">
        <ele>11.67</ele>
        <time>2023-08-17T15:16:21Z</time>
      </trkpt>
      <trkpt lat="56.199125032871962" lon="-2.83138400875032">
        <ele>11.19</ele>
        <time>2023-08-17T15:16:22Z</time>
      </trkpt>
      <trkpt lat="56.198987988755107" lon="-2.831201031804085">
        <ele>10.23</ele>
        <time>2023-08-17T15:16:23Z</time>
      </trkpt>
      <trkpt lat="56.198847005143762" lon="-2.831005984917283">
        <ele>9.75</ele>
        <time>2023-08-17T15:16:24Z</time>
      </trkpt>
      <trkpt lat="56.197472037747502" lon="-2.82859300263226">
        <ele>7.35</ele>
        <time>2023-08-17T15:16:34Z</time>
      </trkpt>
      <trkpt lat="56.196314999833703" lon="-2.825520029291511">
        <ele>7.83</ele>
        <time>2023-08-17T15:16:45Z</time>
      </trkpt>
      <trkpt lat="56.19622003287077" lon="-2.825275026261807">
        <ele>8.310000000000001</ele>
        <time>2023-08-17T15:16:46Z</time>
      </trkpt>
      <trkpt lat="56.196104027330875" lon="-2.825062964111567">
        <ele>8.310000000000001</ele>
        <time>2023-08-17T15:16:47Z</time>
      </trkpt>
      <trkpt lat="56.195980980992317" lon="-2.824846962466836">
        <ele>8.310000000000001</ele>
        <time>2023-08-17T15:16:48Z</time>
      </trkpt>
      <trkpt lat="56.19583597406745" lon="-2.824667003005743">
        <ele>8.310000000000001</ele>
        <time>2023-08-17T15:16:49Z</time>
      </trkpt>
      <trkpt lat="56.195686021819711" lon="-2.824482014402747">
        <ele>8.310000000000001</ele>
        <time>2023-08-17T15:16:50Z</time>
      </trkpt>
      <trkpt lat="56.194399986416101" lon="-2.822892973199487">
        <ele>7.35</ele>
        <time>2023-08-17T15:16:59Z</time>
      </trkpt>
      <trkpt lat="56.193919032812119" lon="-2.822337001562119">
        <ele>7.83</ele>
        <time>2023-08-17T15:17:04Z</time>
      </trkpt>
      <trkpt lat="56.193817025050521" lon="-2.822287967428565">
        <ele>7.83</ele>
        <time>2023-08-17T15:17:05Z</time>
      </trkpt>
      <trkpt lat="56.193716023117304" lon="-2.822243962436914">
        <ele>7.83</ele>
        <time>2023-08-17T15:17:06Z</time>
      </trkpt>
      <trkpt lat="56.193532962352037" lon="-2.822181014344096">
        <ele>7.83</ele>
        <time>2023-08-17T15:17:08Z</time>
      </trkpt>
      <trkpt lat="56.193448975682259" lon="-2.822161987423897">
        <ele>7.83</ele>
        <time>2023-08-17T15:17:09Z</time>
      </trkpt>
      <trkpt lat="56.192405009642243" lon="-2.821891000494361">
        <ele>7.83</ele>
        <time>2023-08-17T15:17:20Z</time>
      </trkpt>
      <trkpt lat="56.190868020057678" lon="-2.821537032723427">
        <ele>5.42</ele>
        <time>2023-08-17T15:17:36Z</time>
      </trkpt>
      <trkpt lat="56.190497959032655" lon="-2.821456985548139">
        <ele>4.94</ele>
        <time>2023-08-17T15:17:40Z</time>
      </trkpt>
      <trkpt lat="56.190416989848018" lon="-2.821341985836625">
        <ele>4.94</ele>
        <time>2023-08-17T15:17:42Z</time>
      </trkpt>
      <trkpt lat="56.190422018989921" lon="-2.821232015267015">
        <ele>4.94</ele>
        <time>2023-08-17T15:17:43Z</time>
      </trkpt>
      <trkpt lat="56.190477004274726" lon="-2.819924019277096">
        <ele>4.94</ele>
        <time>2023-08-17T15:17:51Z</time>
      </trkpt>
      <trkpt lat="56.190627962350845" lon="-2.818075977265835">
        <ele>5.42</ele>
        <time>2023-08-17T15:18:03Z</time>
      </trkpt>
      <trkpt lat="56.190670039504766" lon="-2.817928958684206">
        <ele>5.42</ele>
        <time>2023-08-17T15:18:04Z</time>
      </trkpt>
      <trkpt lat="56.191292982548475" lon="-2.815999025478959">
        <ele>7.35</ele>
        <time>2023-08-17T15:18:17Z</time>
      </trkpt>
      <trkpt lat="56.192010976374149" lon="-2.814134974032641">
        <ele>9.27</ele>
        <time>2023-08-17T15:18:29Z</time>
      </trkpt>
      <trkpt lat="56.192480027675629" lon="-2.812407966703177">
        <ele>8.789999999999999</ele>
        <time>2023-08-17T15:18:36Z</time>
      </trkpt>
      <trkpt lat="56.193043040111661" lon="-2.809055959805846">
        <ele>9.27</ele>
        <time>2023-08-17T15:18:46Z</time>
      </trkpt>
      <trkpt lat="56.193879973143339" lon="-2.803786005824804">
        <ele>12.15</ele>
        <time>2023-08-17T15:19:02Z</time>
      </trkpt>
      <trkpt lat="56.194567959755659" lon="-2.800757037475705">
        <ele>13.119999999999999</ele>
        <time>2023-08-17T15:19:11Z</time>
      </trkpt>
      <trkpt lat="56.195334987714887" lon="-2.79838596470654">
        <ele>12.15</ele>
        <time>2023-08-17T15:19:19Z</time>
      </trkpt>
      <trkpt lat="56.197064006701112" lon="-2.79501099139452">
        <ele>12.630000000000001</ele>
        <time>2023-08-17T15:19:33Z</time>
      </trkpt>
      <trkpt lat="56.197211025282741" lon="-2.794832959771156">
        <ele>13.119999999999999</ele>
        <time>2023-08-17T15:19:34Z</time>
      </trkpt>
      <trkpt lat="56.198833007365465" lon="-2.792864972725511">
        <ele>18.399999999999999</ele>
        <time>2023-08-17T15:19:45Z</time>
      </trkpt>
      <trkpt lat="56.200505029410124" lon="-2.790836971253157">
        <ele>22.73</ele>
        <time>2023-08-17T15:19:56Z</time>
      </trkpt>
      <trkpt lat="56.201752005144954" lon="-2.789240973070264">
        <ele>18.879999999999999</ele>
        <time>2023-08-17T15:20:04Z</time>
      </trkpt>
      <trkpt lat="56.201877985149622" lon="-2.788989013060927">
        <ele>18.399999999999999</ele>
        <time>2023-08-17T15:20:05Z</time>
      </trkpt>
      <trkpt lat="56.201998014003038" lon="-2.788709979504347">
        <ele>17.920000000000002</ele>
        <time>2023-08-17T15:20:06Z</time>
      </trkpt>
      <trkpt lat="56.203108029440045" lon="-2.785948980599642">
        <ele>16.48</ele>
        <time>2023-08-17T15:20:16Z</time>
      </trkpt>
      <trkpt lat="56.203873967751861" lon="-2.783894995227456">
        <ele>16</ele>
        <time>2023-08-17T15:20:25Z</time>
      </trkpt>
      <trkpt lat="56.204783990979195" lon="-2.780322041362524">
        <ele>14.08</ele>
        <time>2023-08-17T15:20:37Z</time>
      </trkpt>
      <trkpt lat="56.205444987863302" lon="-2.777699008584023">
        <ele>13.119999999999999</ele>
        <time>2023-08-17T15:20:46Z</time>
      </trkpt>
      <trkpt lat="56.205542972311378" lon="-2.777458028867841">
        <ele>12.630000000000001</ele>
        <time>2023-08-17T15:20:47Z</time>
      </trkpt>
      <trkpt lat="56.205638023093343" lon="-2.777224006131291">
        <ele>12.15</ele>
        <time>2023-08-17T15:20:48Z</time>
      </trkpt>
      <trkpt lat="56.206412008032203" lon="-2.77561099268496">
        <ele>13.6</ele>
        <time>2023-08-17T15:20:57Z</time>
      </trkpt>
      <trkpt lat="56.207190016284585" lon="-2.773580979555845">
        <ele>15.039999999999999</ele>
        <time>2023-08-17T15:21:08Z</time>
      </trkpt>
      <trkpt lat="56.20786601677537" lon="-2.77096800506115">
        <ele>17.920000000000002</ele>
        <time>2023-08-17T15:21:20Z</time>
      </trkpt>
      <trkpt lat="56.207999037578702" lon="-2.768704975023866">
        <ele>17.440000000000001</ele>
        <time>2023-08-17T15:21:30Z</time>
      </trkpt>
      <trkpt lat="56.207894012331963" lon="-2.765351962298155">
        <ele>15.039999999999999</ele>
        <time>2023-08-17T15:21:45Z</time>
      </trkpt>
      <trkpt lat="56.20784698985517" lon="-2.763208039104939">
        <ele>11.67</ele>
        <time>2023-08-17T15:21:54Z</time>
      </trkpt>
      <trkpt lat="56.207854030653834" lon="-2.762964963912964">
        <ele>11.67</ele>
        <time>2023-08-17T15:21:55Z</time>
      </trkpt>
      <trkpt lat="56.208229959011078" lon="-2.760740993544459">
        <ele>10.710000000000001</ele>
        <time>2023-08-17T15:22:05Z</time>
      </trkpt>
      <trkpt lat="56.208825996145606" lon="-2.758088959380984">
        <ele>11.67</ele>
        <time>2023-08-17T15:22:15Z</time>
      </trkpt>
      <trkpt lat="56.209798967465758" lon="-2.753917034715414">
        <ele>13.6</ele>
        <time>2023-08-17T15:22:29Z</time>
      </trkpt>
      <trkpt lat="56.210214961320162" lon="-2.75218902155757">
        <ele>15.039999999999999</ele>
        <time>2023-08-17T15:22:35Z</time>
      </trkpt>
      <trkpt lat="56.210280004888773" lon="-2.751919040456414">
        <ele>15.039999999999999</ele>
        <time>2023-08-17T15:22:36Z</time>
      </trkpt>
      <trkpt lat="56.210358962416649" lon="-2.751668002456427">
        <ele>15.039999999999999</ele>
        <time>2023-08-17T15:22:37Z</time>
      </trkpt>
      <trkpt lat="56.210477985441685" lon="-2.751442026346922">
        <ele>15.039999999999999</ele>
        <time>2023-08-17T15:22:38Z</time>
      </trkpt>
      <trkpt lat="56.210740003734827" lon="-2.751013962551951">
        <ele>15.039999999999999</ele>
        <time>2023-08-17T15:22:39Z</time>
      </trkpt>
      <trkpt lat="56.212095022201538" lon="-2.748612966388464">
        <ele>17.920000000000002</ele>
        <time>2023-08-17T15:22:51Z</time>
      </trkpt>
      <trkpt lat="56.212909994646907" lon="-2.746063023805618">
        <ele>19.84</ele>
        <time>2023-08-17T15:23:00Z</time>
      </trkpt>
      <trkpt lat="56.212944025173783" lon="-2.745780972763896">
        <ele>20.32</ele>
        <time>2023-08-17T15:23:01Z</time>
      </trkpt>
      <trkpt lat="56.212971014901996" lon="-2.745491964742541">
        <ele>20.32</ele>
        <time>2023-08-17T15:23:02Z</time>
      </trkpt>
      <trkpt lat="56.213064976036549" lon="-2.744065029546619">
        <ele>23.210000000000001</ele>
        <time>2023-08-17T15:23:08Z</time>
      </trkpt>
      <trkpt lat="56.213121972978115" lon="-2.743536969646812">
        <ele>25.129999999999999</ele>
        <time>2023-08-17T15:23:10Z</time>
      </trkpt>
      <trkpt lat="56.213307967409492" lon="-2.742498032748699">
        <ele>27.050000000000001</ele>
        <time>2023-08-17T15:23:13Z</time>
      </trkpt>
      <trkpt lat="56.213307967409492" lon="-2.742498032748699">
        <ele>27.530000000000001</ele>
        <time>2023-08-17T15:23:14Z</time>
      </trkpt>
      <trkpt lat="56.213323976844549" lon="-2.741990005597472">
        <ele>27.530000000000001</ele>
        <time>2023-08-17T15:23:15Z</time>
      </trkpt>
      <trkpt lat="56.213311990723014" lon="-2.741030026227236">
        <ele>27.530000000000001</ele>
        <time>2023-08-17T15:23:20Z</time>
      </trkpt>
      <trkpt lat="56.213308973237872" lon="-2.74080497212708">
        <ele>27.050000000000001</ele>
        <time>2023-08-17T15:23:21Z</time>
      </trkpt>
      <trkpt lat="56.213335962966084" lon="-2.740582013502717">
        <ele>27.050000000000001</ele>
        <time>2023-08-17T15:23:22Z</time>
      </trkpt>
      <trkpt lat="56.213417015969753" lon="-2.740140035748482">
        <ele>26.57</ele>
        <time>2023-08-17T15:23:23Z</time>
      </trkpt>
      <trkpt lat="56.213417015969753" lon="-2.740140035748482">
        <ele>26.09</ele>
        <time>2023-08-17T15:23:24Z</time>
      </trkpt>
      <trkpt lat="56.213482981547713" lon="-2.739941971376538">
        <ele>26.09</ele>
        <time>2023-08-17T15:23:25Z</time>
      </trkpt>
      <trkpt lat="56.214045993983746" lon="-2.738510007038713">
        <ele>25.609999999999999</ele>
        <time>2023-08-17T15:23:34Z</time>
      </trkpt>
      <trkpt lat="56.214410020038486" lon="-2.737466040998697">
        <ele>24.170000000000002</ele>
        <time>2023-08-17T15:23:40Z</time>
      </trkpt>
      <trkpt lat="56.214603977277875" lon="-2.736029969528318">
        <ele>23.210000000000001</ele>
        <time>2023-08-17T15:23:49Z</time>
      </trkpt>
      <trkpt lat="56.214578999206424" lon="-2.735332008451223">
        <ele>23.210000000000001</ele>
        <time>2023-08-17T15:23:53Z</time>
      </trkpt>
      <trkpt lat="56.214557038620114" lon="-2.734996983781457">
        <ele>23.690000000000001</ele>
        <time>2023-08-17T15:23:55Z</time>
      </trkpt>
      <trkpt lat="56.214442038908601" lon="-2.734531033784151">
        <ele>24.170000000000002</ele>
        <time>2023-08-17T15:23:58Z</time>
      </trkpt>
      <trkpt lat="56.214085975661874" lon="-2.733357986435294">
        <ele>24.170000000000002</ele>
        <time>2023-08-17T15:24:06Z</time>
      </trkpt>
      <trkpt lat="56.21401003561914" lon="-2.733062021434307">
        <ele>23.690000000000001</ele>
        <time>2023-08-17T15:24:07Z</time>
      </trkpt>
      <trkpt lat="56.213981034234166" lon="-2.732903016731143">
        <ele>23.210000000000001</ele>
        <time>2023-08-17T15:24:09Z</time>
      </trkpt>
      <trkpt lat="56.213953038677573" lon="-2.732734037563205">
        <ele>22.73</ele>
        <time>2023-08-17T15:24:10Z</time>
      </trkpt>
      <trkpt lat="56.21396997012198" lon="-2.732568997889757">
        <ele>22.25</ele>
        <time>2023-08-17T15:24:11Z</time>
      </trkpt>
      <trkpt lat="56.214092010632157" lon="-2.731867013499141">
        <ele>22.73</ele>
        <time>2023-08-17T15:24:14Z</time>
      </trkpt>
      <trkpt lat="56.214116988703609" lon="-2.731684958562255">
        <ele>23.210000000000001</ele>
        <time>2023-08-17T15:24:15Z</time>
      </trkpt>
      <trkpt lat="56.214241040870547" lon="-2.730729002505541">
        <ele>23.690000000000001</ele>
        <time>2023-08-17T15:24:22Z</time>
      </trkpt>
      <trkpt lat="56.214648988097906" lon="-2.728933012112975">
        <ele>22.73</ele>
        <time>2023-08-17T15:24:34Z</time>
      </trkpt>
      <trkpt lat="56.215060958638787" lon="-2.727671032771468">
        <ele>22.25</ele>
        <time>2023-08-17T15:24:42Z</time>
      </trkpt>
      <trkpt lat="56.215109992772341" lon="-2.727528037503362">
        <ele>22.25</ele>
        <time>2023-08-17T15:24:44Z</time>
      </trkpt>
      <trkpt lat="56.215131031349301" lon="-2.727128975093365">
        <ele>22.73</ele>
        <time>2023-08-17T15:24:45Z</time>
      </trkpt>
      <trkpt lat="56.215131031349301" lon="-2.727128975093365">
        <ele>22.73</ele>
        <time>2023-08-17T15:24:46Z</time>
      </trkpt>
      <trkpt lat="56.215141005814075" lon="-2.726942980661988">
        <ele>22.73</ele>
        <time>2023-08-17T15:24:47Z</time>
      </trkpt>
      <trkpt lat="56.215136982500553" lon="-2.726573003455997">
        <ele>22.73</ele>
        <time>2023-08-17T15:24:48Z</time>
      </trkpt>
      <trkpt lat="56.215116027742624" lon="-2.726402012631297">
        <ele>22.73</ele>
        <time>2023-08-17T15:24:49Z</time>
      </trkpt>
      <trkpt lat="56.215116027742624" lon="-2.726401006802917">
        <ele>22.73</ele>
        <time>2023-08-17T15:24:50Z</time>
      </trkpt>
      <trkpt lat="56.215094989165664" lon="-2.726230015978217">
        <ele>23.210000000000001</ele>
        <time>2023-08-17T15:24:51Z</time>
      </trkpt>
      <trkpt lat="56.215074034407735" lon="-2.726060030981898">
        <ele>22.73</ele>
        <time>2023-08-17T15:24:52Z</time>
      </trkpt>
      <trkpt lat="56.215067999437451" lon="-2.725891973823309">
        <ele>22.73</ele>
        <time>2023-08-17T15:24:53Z</time>
      </trkpt>
      <trkpt lat="56.215112004429102" lon="-2.725663986057043">
        <ele>22.73</ele>
        <time>2023-08-17T15:24:54Z</time>
      </trkpt>
      <trkpt lat="56.215127008035779" lon="-2.725601037964225">
        <ele>22.73</ele>
        <time>2023-08-17T15:24:55Z</time>
      </trkpt>
      <trkpt lat="56.215127008035779" lon="-2.725601037964225">
        <ele>22.73</ele>
        <time>2023-08-17T15:24:56Z</time>
      </trkpt>
      <trkpt lat="56.215127008035779" lon="-2.725601037964225">
        <ele>22.73</ele>
        <time>2023-08-17T15:25:07Z</time>
      </trkpt>
      <trkpt lat="56.215232033282518" lon="-2.725154031068087">
        <ele>23.210000000000001</ele>
        <time>2023-08-17T15:25:16Z</time>
      </trkpt>
      <trkpt lat="56.215554988011718" lon="-2.723783003166318">
        <ele>23.690000000000001</ele>
        <time>2023-08-17T15:25:28Z</time>
      </trkpt>
      <trkpt lat="56.216023033484817" lon="-2.721925992518663">
        <ele>23.690000000000001</ele>
        <time>2023-08-17T15:25:39Z</time>
      </trkpt>
      <trkpt lat="56.216565007343888" lon="-2.719776034355164">
        <ele>24.170000000000002</ele>
        <time>2023-08-17T15:25:49Z</time>
      </trkpt>
      <trkpt lat="56.217060964554548" lon="-2.717180997133255">
        <ele>25.609999999999999</ele>
        <time>2023-08-17T15:26:00Z</time>
      </trkpt>
      <trkpt lat="56.217684997245669" lon="-2.714554024860263">
        <ele>23.690000000000001</ele>
        <time>2023-08-17T15:26:12Z</time>
      </trkpt>
      <trkpt lat="56.2186090182513" lon="-2.711580041795969">
        <ele>18.879999999999999</ele>
        <time>2023-08-17T15:26:27Z</time>
      </trkpt>
      <trkpt lat="56.219273032620549" lon="-2.710279002785683">
        <ele>17.440000000000001</ele>
        <time>2023-08-17T15:26:36Z</time>
      </trkpt>
      <trkpt lat="56.219466989859939" lon="-2.709977002814412">
        <ele>16.960000000000001</ele>
        <time>2023-08-17T15:26:42Z</time>
      </trkpt>
      <trkpt lat="56.219510994851589" lon="-2.70990801975131">
        <ele>16.960000000000001</ele>
        <time>2023-08-17T15:26:43Z</time>
      </trkpt>
      <trkpt lat="56.219571009278297" lon="-2.709813974797726">
        <ele>16.960000000000001</ele>
        <time>2023-08-17T15:26:44Z</time>
      </trkpt>
      <trkpt lat="56.219637980684638" lon="-2.709710961207748">
        <ele>16.960000000000001</ele>
        <time>2023-08-17T15:26:45Z</time>
      </trkpt>
      <trkpt lat="56.219702018424869" lon="-2.70960995927453">
        <ele>16.960000000000001</ele>
        <time>2023-08-17T15:26:46Z</time>
      </trkpt>
      <trkpt lat="56.220454964786768" lon="-2.708479994907975">
        <ele>15.039999999999999</ele>
        <time>2023-08-17T15:26:57Z</time>
      </trkpt>
      <trkpt lat="56.221325006335974" lon="-2.707043001428247">
        <ele>13.119999999999999</ele>
        <time>2023-08-17T15:27:08Z</time>
      </trkpt>
      <trkpt lat="56.221842002123594" lon="-2.706067012622953">
        <ele>8.310000000000001</ele>
        <time>2023-08-17T15:27:17Z</time>
      </trkpt>
      <trkpt lat="56.222060015425086" lon="-2.70544096827507">
        <ele>6.39</ele>
        <time>2023-08-17T15:27:24Z</time>
      </trkpt>
      <trkpt lat="56.222075019031763" lon="-2.705367039889097">
        <ele>5.91</ele>
        <time>2023-08-17T15:27:25Z</time>
      </trkpt>
      <trkpt lat="56.222083987668157" lon="-2.705298978835344">
        <ele>5.42</ele>
        <time>2023-08-17T15:27:26Z</time>
      </trkpt>
      <trkpt lat="56.222083987668157" lon="-2.705199988558888">
        <ele>4.94</ele>
        <time>2023-08-17T15:27:27Z</time>
      </trkpt>
      <trkpt lat="56.222083987668157" lon="-2.705091023817658">
        <ele>4.46</ele>
        <time>2023-08-17T15:27:28Z</time>
      </trkpt>
      <trkpt lat="56.222083987668157" lon="-2.704981975257397">
        <ele>3.98</ele>
        <time>2023-08-17T15:27:29Z</time>
      </trkpt>
      <trkpt lat="56.222083987668157" lon="-2.704884996637702">
        <ele>3.5</ele>
        <time>2023-08-17T15:27:30Z</time>
      </trkpt>
      <trkpt lat="56.222083987668157" lon="-2.704793969169259">
        <ele>3.02</ele>
        <time>2023-08-17T15:27:31Z</time>
      </trkpt>
      <trkpt lat="56.222083987668157" lon="-2.704704031348229">
        <ele>2.54</ele>
        <time>2023-08-17T15:27:32Z</time>
      </trkpt>
      <trkpt lat="56.222083987668157" lon="-2.70462297834456">
        <ele>1.58</ele>
        <time>2023-08-17T15:27:34Z</time>
      </trkpt>
      <trkpt lat="56.222106032073498" lon="-2.704314021393657">
        <ele>-0.82</ele>
        <time>2023-08-17T15:27:39Z</time>
      </trkpt>
      <trkpt lat="56.222144002094865" lon="-2.704320978373289">
        <ele>-1.3</ele>
        <time>2023-08-17T15:27:40Z</time>
      </trkpt>
      <trkpt lat="56.222193958237767" lon="-2.704329025000334">
        <ele>-1.79</ele>
        <time>2023-08-17T15:27:41Z</time>
      </trkpt>
      <trkpt lat="56.222247015684843" lon="-2.704338999465108">
        <ele>-2.27</ele>
        <time>2023-08-17T15:27:42Z</time>
      </trkpt>
      <trkpt lat="56.222309963777661" lon="-2.704349979758263">
        <ele>-2.75</ele>
        <time>2023-08-17T15:27:43Z</time>
      </trkpt>
      <trkpt lat="56.22237098403275" lon="-2.704360038042069">
        <ele>-3.23</ele>
        <time>2023-08-17T15:27:44Z</time>
      </trkpt>
      <trkpt lat="56.222423035651445" lon="-2.704369006678462">
        <ele>-3.71</ele>
        <time>2023-08-17T15:27:45Z</time>
      </trkpt>
      <trkpt lat="56.222481960430741" lon="-2.704379986971617">
        <ele>-4.67</ele>
        <time>2023-08-17T15:27:46Z</time>
      </trkpt>
      <trkpt lat="56.222544992342591" lon="-2.704390967264772">
        <ele>-5.15</ele>
        <time>2023-08-17T15:27:47Z</time>
      </trkpt>
      <trkpt lat="56.222578017041087" lon="-2.704395996406674">
        <ele>-5.63</ele>
        <time>2023-08-17T15:27:48Z</time>
      </trkpt>
      <trkpt lat="56.222636019811034" lon="-2.704355008900166">
        <ele>-6.11</ele>
        <time>2023-08-17T15:27:49Z</time>
      </trkpt>
      <trkpt lat="56.222682958468795" lon="-2.70432299003005">
        <ele>-6.59</ele>
        <time>2023-08-17T15:27:50Z</time>
      </trkpt>
      <trkpt lat="56.22273501008749" lon="-2.704286025837064">
        <ele>-7.07</ele>
        <time>2023-08-17T15:27:51Z</time>
      </trkpt>
      <trkpt lat="56.222792007029057" lon="-2.704245960339904">
        <ele>-7.07</ele>
        <time>2023-08-17T15:27:52Z</time>
      </trkpt>
      <trkpt lat="56.22282100841403" lon="-2.704154010862112">
        <ele>-7.07</ele>
        <time>2023-08-17T15:27:53Z</time>
      </trkpt>
      <trkpt lat="56.222855038940907" lon="-2.704048985615373">
        <ele>-7.55</ele>
        <time>2023-08-17T15:27:54Z</time>
      </trkpt>
      <trkpt lat="56.222991999238729" lon="-2.703615976497531">
        <ele>-5.63</ele>
        <time>2023-08-17T15:27:58Z</time>
      </trkpt>
      <trkpt lat="56.223024018108845" lon="-2.703514974564314">
        <ele>-5.15</ele>
        <time>2023-08-17T15:27:59Z</time>
      </trkpt>
      <trkpt lat="56.223055031150579" lon="-2.703416990116239">
        <ele>-4.67</ele>
        <time>2023-08-17T15:28:00Z</time>
      </trkpt>
      <trkpt lat="56.223089983686805" lon="-2.703324034810066">
        <ele>-3.71</ele>
        <time>2023-08-17T15:28:01Z</time>
      </trkpt>
      <trkpt lat="56.223133988678455" lon="-2.70322797819972">
        <ele>-3.23</ele>
        <time>2023-08-17T15:28:02Z</time>
      </trkpt>
      <trkpt lat="56.223177993670106" lon="-2.703133011236787">
        <ele>-2.27</ele>
        <time>2023-08-17T15:28:03Z</time>
      </trkpt>
      <trkpt lat="56.223224010318518" lon="-2.703072996810079">
        <ele>-1.79</ele>
        <time>2023-08-17T15:28:04Z</time>
      </trkpt>
      <trkpt lat="56.223263991996646" lon="-2.703023040667176">
        <ele>-1.3</ele>
        <time>2023-08-17T15:28:05Z</time>
      </trkpt>
      <trkpt lat="56.22329399921" lon="-2.702985992655158">
        <ele>-0.34</ele>
        <time>2023-08-17T15:28:06Z</time>
      </trkpt>
      <trkpt lat="56.22331696562469" lon="-2.702957997098565">
        <ele>0.14</ele>
        <time>2023-08-17T15:28:07Z</time>
      </trkpt>
      <trkpt lat="56.223335992544889" lon="-2.702934024855495">
        <ele>1.1</ele>
        <time>2023-08-17T15:28:08Z</time>
      </trkpt>
      <trkpt lat="56.223390977829695" lon="-2.702865041792393">
        <ele>2.06</ele>
        <time>2023-08-17T15:28:10Z</time>
      </trkpt>
      <trkpt lat="56.223427020013332" lon="-2.702820030972362">
        <ele>3.02</ele>
        <time>2023-08-17T15:28:11Z</time>
      </trkpt>
      <trkpt lat="56.223521986976266" lon="-2.702679969370365">
        <ele>3.98</ele>
        <time>2023-08-17T15:28:13Z</time>
      </trkpt>
      <trkpt lat="56.223457027226686" lon="-2.702679969370365">
        <ele>4.46</ele>
        <time>2023-08-17T15:28:14Z</time>
      </trkpt>
      <trkpt lat="56.223398018628359" lon="-2.702565975487232">
        <ele>5.42</ele>
        <time>2023-08-17T15:28:16Z</time>
      </trkpt>
      <trkpt lat="56.223361976444721" lon="-2.70249699242413">
        <ele>5.91</ele>
        <time>2023-08-17T15:28:17Z</time>
      </trkpt>
      <trkpt lat="56.223191991448402" lon="-2.702170014381409">
        <ele>8.310000000000001</ele>
        <time>2023-08-17T15:28:25Z</time>
      </trkpt>
      <trkpt lat="56.223178999498487" lon="-2.702147969976068">
        <ele>8.789999999999999</ele>
        <time>2023-08-17T15:28:32Z</time>
      </trkpt>
      <trkpt lat="56.223077997565269" lon="-2.701960969716311">
        <ele>8.310000000000001</ele>
        <time>2023-08-17T15:28:37Z</time>
      </trkpt>
      <trkpt lat="56.222869036719203" lon="-2.701509017497301">
        <ele>6.39</ele>
        <time>2023-08-17T15:28:46Z</time>
      </trkpt>
      <trkpt lat="56.222858978435397" lon="-2.701474986970425">
        <ele>6.39</ele>
        <time>2023-08-17T15:29:05Z</time>
      </trkpt>
      <trkpt lat="56.222838023677468" lon="-2.701402986422181">
        <ele>5.91</ele>
        <time>2023-08-17T15:29:06Z</time>
      </trkpt>
      <trkpt lat="56.222792007029057" lon="-2.701241970062256">
        <ele>5.42</ele>
        <time>2023-08-17T15:29:07Z</time>
      </trkpt>
      <trkpt lat="56.22277800925076" lon="-2.700757998973131">
        <ele>4.94</ele>
        <time>2023-08-17T15:29:11Z</time>
      </trkpt>
      <trkpt lat="56.222773985937238" lon="-2.700618021190167">
        <ele>4.46</ele>
        <time>2023-08-17T15:29:12Z</time>
      </trkpt>
      <trkpt lat="56.222766023129225" lon="-2.700486006215215">
        <ele>4.46</ele>
        <time>2023-08-17T15:29:13Z</time>
      </trkpt>
      <trkpt lat="56.222742972895503" lon="-2.700349967926741">
        <ele>3.98</ele>
        <time>2023-08-17T15:29:14Z</time>
      </trkpt>
      <trkpt lat="56.222721012309194" lon="-2.70021895878017">
        <ele>3.98</ele>
        <time>2023-08-17T15:29:15Z</time>
      </trkpt>
      <trkpt lat="56.222700979560614" lon="-2.700099013745785">
        <ele>3.98</ele>
        <time>2023-08-17T15:29:16Z</time>
      </trkpt>
      <trkpt lat="56.222597965970635" lon="-2.699489984661341">
        <ele>3.02</ele>
        <time>2023-08-17T15:29:22Z</time>
      </trkpt>
      <trkpt lat="56.222580028697848" lon="-2.699384037405253">
        <ele>3.02</ele>
        <time>2023-08-17T15:29:23Z</time>
      </trkpt>
      <trkpt lat="56.222264030948281" lon="-2.698392039164901">
        <ele>4.46</ele>
        <time>2023-08-17T15:29:33Z</time>
      </trkpt>
      <trkpt lat="56.222137967124581" lon="-2.698020972311497">
        <ele>5.42</ele>
        <time>2023-08-17T15:29:39Z</time>
      </trkpt>
      <trkpt lat="56.222115000709891" lon="-2.697955006733537">
        <ele>5.42</ele>
        <time>2023-08-17T15:29:40Z</time>
      </trkpt>
      <trkpt lat="56.22209002263844" lon="-2.697883006185293">
        <ele>5.42</ele>
        <time>2023-08-17T15:29:41Z</time>
      </trkpt>
      <trkpt lat="56.221908973529935" lon="-2.697373973205686">
        <ele>6.87</ele>
        <time>2023-08-17T15:29:48Z</time>
      </trkpt>
      <trkpt lat="56.221881983801723" lon="-2.697302978485823">
        <ele>7.35</ele>
        <time>2023-08-17T15:29:50Z</time>
      </trkpt>
      <trkpt lat="56.221820963546634" lon="-2.69714598543942">
        <ele>7.35</ele>
        <time>2023-08-17T15:29:52Z</time>
      </trkpt>
      <trkpt lat="56.221790034323931" lon="-2.697065016254783">
        <ele>7.83</ele>
        <time>2023-08-17T15:29:53Z</time>
      </trkpt>
      <trkpt lat="56.221750974655151" lon="-2.696872986853123">
        <ele>7.83</ele>
        <time>2023-08-17T15:29:54Z</time>
      </trkpt>
      <trkpt lat="56.22170303016901" lon="-2.696246020495892">
        <ele>9.27</ele>
        <time>2023-08-17T15:30:01Z</time>
      </trkpt>
      <trkpt lat="56.221757009625435" lon="-2.695793984457851">
        <ele>10.23</ele>
        <time>2023-08-17T15:30:04Z</time>
      </trkpt>
      <trkpt lat="56.221794979646802" lon="-2.695700023323298">
        <ele>10.23</ele>
        <time>2023-08-17T15:30:05Z</time>
      </trkpt>
      <trkpt lat="56.221833033487201" lon="-2.695603966712952">
        <ele>10.710000000000001</ele>
        <time>2023-08-17T15:30:06Z</time>
      </trkpt>
      <trkpt lat="56.221877038478851" lon="-2.695506988093257">
        <ele>10.710000000000001</ele>
        <time>2023-08-17T15:30:07Z</time>
      </trkpt>
      <trkpt lat="56.221941998228431" lon="-2.695458959788084">
        <ele>10.710000000000001</ele>
        <time>2023-08-17T15:30:08Z</time>
      </trkpt>
      <trkpt lat="56.221941998228431" lon="-2.695458959788084">
        <ele>11.19</ele>
        <time>2023-08-17T15:30:09Z</time>
      </trkpt>
      <trkpt lat="56.221998995169997" lon="-2.695415960624814">
        <ele>11.19</ele>
        <time>2023-08-17T15:30:10Z</time>
      </trkpt>
      <trkpt lat="56.222212985157967" lon="-2.695255028083921">
        <ele>11.67</ele>
        <time>2023-08-17T15:30:16Z</time>
      </trkpt>
      <trkpt lat="56.222212985157967" lon="-2.695255028083921">
        <ele>11.67</ele>
        <time>2023-08-17T15:30:17Z</time>
      </trkpt>
      <trkpt lat="56.222212985157967" lon="-2.695255028083921">
        <ele>11.67</ele>
        <time>2023-08-17T15:30:18Z</time>
      </trkpt>
      <trkpt lat="56.222225977107882" lon="-2.695226026698947">
        <ele>11.67</ele>
        <time>2023-08-17T15:30:19Z</time>
      </trkpt>
      <trkpt lat="56.222298983484507" lon="-2.69506199285388">
        <ele>12.15</ele>
        <time>2023-08-17T15:30:20Z</time>
      </trkpt>
      <trkpt lat="56.222267970442772" lon="-2.695037014782429">
        <ele>12.15</ele>
        <time>2023-08-17T15:30:21Z</time>
      </trkpt>
      <trkpt lat="56.222212985157967" lon="-2.695255028083921">
        <ele>12.630000000000001</ele>
        <time>2023-08-17T15:30:22Z</time>
      </trkpt>
      <trkpt lat="56.222136039286852" lon="-2.695313030853868">
        <ele>12.630000000000001</ele>
        <time>2023-08-17T15:30:23Z</time>
      </trkpt>
      <trkpt lat="56.222135033458471" lon="-2.695313030853868">
        <ele>12.630000000000001</ele>
        <time>2023-08-17T15:30:24Z</time>
      </trkpt>
      <trkpt lat="56.221992038190365" lon="-2.695420989766717">
        <ele>12.630000000000001</ele>
        <time>2023-08-17T15:30:26Z</time>
      </trkpt>
      <trkpt lat="56.221907967701554" lon="-2.695484021678567">
        <ele>12.15</ele>
        <time>2023-08-17T15:30:27Z</time>
      </trkpt>
      <trkpt lat="56.221848037093878" lon="-2.695567002519965">
        <ele>12.15</ele>
        <time>2023-08-17T15:30:28Z</time>
      </trkpt>
      <trkpt lat="56.221791040152311" lon="-2.695708991959691">
        <ele>11.67</ele>
        <time>2023-08-17T15:30:29Z</time>
      </trkpt>
      <trkpt lat="56.221739994361997" lon="-2.695846036076546">
        <ele>11.19</ele>
        <time>2023-08-17T15:30:30Z</time>
      </trkpt>
      <trkpt lat="56.221709987148643" lon="-2.696176031604409">
        <ele>11.19</ele>
        <time>2023-08-17T15:30:31Z</time>
      </trkpt>
      <trkpt lat="56.221709987148643" lon="-2.696176031604409">
        <ele>10.710000000000001</ele>
        <time>2023-08-17T15:30:32Z</time>
      </trkpt>
      <trkpt lat="56.221699006855488" lon="-2.696321960538626">
        <ele>10.710000000000001</ele>
        <time>2023-08-17T15:30:33Z</time>
      </trkpt>
      <trkpt lat="56.221711998805404" lon="-2.696456992998719">
        <ele>10.23</ele>
        <time>2023-08-17T15:30:34Z</time>
      </trkpt>
      <trkpt lat="56.221723984926939" lon="-2.696580039337277">
        <ele>9.75</ele>
        <time>2023-08-17T15:30:35Z</time>
      </trkpt>
      <trkpt lat="56.221733037382364" lon="-2.696685986593366">
        <ele>9.75</ele>
        <time>2023-08-17T15:30:36Z</time>
      </trkpt>
      <trkpt lat="56.221753992140293" lon="-2.69690802320838">
        <ele>8.789999999999999</ele>
        <time>2023-08-17T15:30:38Z</time>
      </trkpt>
      <trkpt lat="56.221804032102227" lon="-2.697101980447769">
        <ele>8.310000000000001</ele>
        <time>2023-08-17T15:30:39Z</time>
      </trkpt>
      <trkpt lat="56.221804032102227" lon="-2.697101980447769">
        <ele>8.310000000000001</ele>
        <time>2023-08-17T15:30:40Z</time>
      </trkpt>
      <trkpt lat="56.221908973529935" lon="-2.697373973205686">
        <ele>7.83</ele>
        <time>2023-08-17T15:30:43Z</time>
      </trkpt>
      <trkpt lat="56.22202699072659" lon="-2.697699023410678">
        <ele>6.39</ele>
        <time>2023-08-17T15:30:47Z</time>
      </trkpt>
      <trkpt lat="56.222124975174665" lon="-2.697985013946891">
        <ele>5.91</ele>
        <time>2023-08-17T15:30:51Z</time>
      </trkpt>
      <trkpt lat="56.222150037065148" lon="-2.698057014495134">
        <ele>5.42</ele>
        <time>2023-08-17T15:30:52Z</time>
      </trkpt>
      <trkpt lat="56.222173003479838" lon="-2.698123985901475">
        <ele>5.42</ele>
        <time>2023-08-17T15:30:53Z</time>
      </trkpt>
      <trkpt lat="56.222192030400038" lon="-2.698179977014661">
        <ele>4.94</ele>
        <time>2023-08-17T15:30:54Z</time>
      </trkpt>
      <trkpt lat="56.222207034006715" lon="-2.698224987834692">
        <ele>4.94</ele>
        <time>2023-08-17T15:30:55Z</time>
      </trkpt>
      <trkpt lat="56.222222037613392" lon="-2.698266981169581">
        <ele>4.94</ele>
        <time>2023-08-17T15:30:56Z</time>
      </trkpt>
      <trkpt lat="56.222237041220069" lon="-2.698311991989613">
        <ele>4.46</ele>
        <time>2023-08-17T15:30:57Z</time>
      </trkpt>
      <trkpt lat="56.222254978492856" lon="-2.698364965617657">
        <ele>4.46</ele>
        <time>2023-08-17T15:30:58Z</time>
      </trkpt>
      <trkpt lat="56.222303006798029" lon="-2.698506033048034">
        <ele>4.46</ele>
        <time>2023-08-17T15:31:00Z</time>
      </trkpt>
      <trkpt lat="56.222536023706198" lon="-2.69918697886169">
        <ele>3.5</ele>
        <time>2023-08-17T15:31:08Z</time>
      </trkpt>
      <trkpt lat="56.222734004259109" lon="-2.700298000127077">
        <ele>2.54</ele>
        <time>2023-08-17T15:31:22Z</time>
      </trkpt>
      <trkpt lat="56.22277800925076" lon="-2.700771996751428">
        <ele>2.54</ele>
        <time>2023-08-17T15:31:31Z</time>
      </trkpt>
      <trkpt lat="56.222780020907521" lon="-2.700821030884981">
        <ele>2.06</ele>
        <time>2023-08-17T15:31:33Z</time>
      </trkpt>
      <trkpt lat="56.222789995372295" lon="-2.700503021478653">
        <ele>1.58</ele>
        <time>2023-08-17T15:31:35Z</time>
      </trkpt>
      <trkpt lat="56.22277800925076" lon="-2.700752969831228">
        <ele>1.58</ele>
        <time>2023-08-17T15:31:36Z</time>
      </trkpt>
      <trkpt lat="56.222775997593999" lon="-2.700691027566791">
        <ele>1.1</ele>
        <time>2023-08-17T15:31:37Z</time>
      </trkpt>
      <trkpt lat="56.222772980108857" lon="-2.700598994269967">
        <ele>0.62</ele>
        <time>2023-08-17T15:31:38Z</time>
      </trkpt>
      <trkpt lat="56.222770968452096" lon="-2.700511990115047">
        <ele>0.62</ele>
        <time>2023-08-17T15:31:39Z</time>
      </trkpt>
      <trkpt lat="56.222485983744264" lon="-2.699040966108441">
        <ele>-1.3</ele>
        <time>2023-08-17T15:31:51Z</time>
      </trkpt>
      <trkpt lat="56.222453964874148" lon="-2.698948010802269">
        <ele>-0.82</ele>
        <time>2023-08-17T15:31:52Z</time>
      </trkpt>
      <trkpt lat="56.222422029823065" lon="-2.698852960020304">
        <ele>-0.82</ele>
        <time>2023-08-17T15:31:53Z</time>
      </trkpt>
      <trkpt lat="56.222278028726578" lon="-2.69843302667141">
        <ele>-0.34</ele>
        <time>2023-08-17T15:32:00Z</time>
      </trkpt>
      <trkpt lat="56.22224198654294" lon="-2.698325989767909">
        <ele>-0.34</ele>
        <time>2023-08-17T15:32:07Z</time>
      </trkpt>
      <trkpt lat="56.222107037901878" lon="-2.697932040318847">
        <ele>-0.82</ele>
        <time>2023-08-17T15:32:16Z</time>
      </trkpt>
      <trkpt lat="56.221992038190365" lon="-2.697595003992319">
        <ele>-0.82</ele>
        <time>2023-08-17T15:32:24Z</time>
      </trkpt>
      <trkpt lat="56.221970999613404" lon="-2.697537001222372">
        <ele>-0.82</ele>
        <time>2023-08-17T15:32:26Z</time>
      </trkpt>
      <trkpt lat="56.221808977425098" lon="-2.697115978226066">
        <ele>-1.79</ele>
        <time>2023-08-17T15:32:35Z</time>
      </trkpt>
      <trkpt lat="56.221776958554983" lon="-2.697031991556287">
        <ele>-1.3</ele>
        <time>2023-08-17T15:32:40Z</time>
      </trkpt>
      <trkpt lat="56.221733037382364" lon="-2.696997039020062">
        <ele>-1.3</ele>
        <time>2023-08-17T15:32:41Z</time>
      </trkpt>
      <trkpt lat="56.221714010462165" lon="-2.696999972686172">
        <ele>-1.3</ele>
        <time>2023-08-17T15:32:42Z</time>
      </trkpt>
      <trkpt lat="56.221690038219094" lon="-2.697003995999694">
        <ele>-1.3</ele>
        <time>2023-08-17T15:32:43Z</time>
      </trkpt>
      <trkpt lat="56.221612002700567" lon="-2.697014976292849">
        <ele>0.14</ele>
        <time>2023-08-17T15:32:56Z</time>
      </trkpt>
      <trkpt lat="56.221612002700567" lon="-2.697014976292849">
        <ele>-0.82</ele>
        <time>2023-08-17T15:33:08Z</time>
      </trkpt>
      <trkpt lat="56.221505971625447" lon="-2.697217985987663">
        <ele>2.06</ele>
        <time>2023-08-17T17:00:38Z</time>
      </trkpt>
      <trkpt lat="56.221485016867518" lon="-2.697199964895845">
        <ele>-9.48</ele>
        <time>2023-08-17T17:01:11Z</time>
      </trkpt>
      <trkpt lat="56.221479987725616" lon="-2.697192002087832">
        <ele>-4.19</ele>
        <time>2023-08-17T17:01:49Z</time>
      </trkpt>
      <trkpt lat="56.221500020474195" lon="-2.697182027623057">
        <ele>0.62</ele>
        <time>2023-08-17T17:02:17Z</time>
      </trkpt>
      <trkpt lat="56.221506977453828" lon="-2.697182027623057">
        <ele>1.58</ele>
        <time>2023-08-17T17:02:43Z</time>
      </trkpt>
      <trkpt lat="56.221497002989054" lon="-2.697184039279819">
        <ele>0.62</ele>
        <time>2023-08-17T17:03:25Z</time>
      </trkpt>
      <trkpt lat="56.221497002989054" lon="-2.697184039279819">
        <ele>0.62</ele>
        <time>2023-08-17T17:03:36Z</time>
      </trkpt>
      <trkpt lat="56.221634969115257" lon="-2.697011958807707">
        <ele>3.5</ele>
        <time>2023-08-17T17:03:44Z</time>
      </trkpt>
      <trkpt lat="56.221612002700567" lon="-2.697014976292849">
        <ele>3.5</ele>
        <time>2023-08-17T17:03:48Z</time>
      </trkpt>
      <trkpt lat="56.221610996872187" lon="-2.697002990171313">
        <ele>3.02</ele>
        <time>2023-08-17T17:03:50Z</time>
      </trkpt>
      <trkpt lat="56.221604961901903" lon="-2.696886984631419">
        <ele>3.02</ele>
        <time>2023-08-17T17:03:51Z</time>
      </trkpt>
      <trkpt lat="56.221599010750651" lon="-2.696797968819737">
        <ele>3.02</ele>
        <time>2023-08-17T17:03:52Z</time>
      </trkpt>
      <trkpt lat="56.221593981608748" lon="-2.696704007685185">
        <ele>3.02</ele>
        <time>2023-08-17T17:03:53Z</time>
      </trkpt>
      <trkpt lat="56.221606973558664" lon="-2.696035970002413">
        <ele>1.1</ele>
        <time>2023-08-17T17:04:04Z</time>
      </trkpt>
      <trkpt lat="56.221642009913921" lon="-2.695804964751005">
        <ele>0.62</ele>
        <time>2023-08-17T17:04:08Z</time>
      </trkpt>
      <trkpt lat="56.221676962450147" lon="-2.69577001221478">
        <ele>0.62</ele>
        <time>2023-08-17T17:04:09Z</time>
      </trkpt>
      <trkpt lat="56.221753992140293" lon="-2.695803036913276">
        <ele>0.62</ele>
        <time>2023-08-17T17:04:10Z</time>
      </trkpt>
      <trkpt lat="56.221833033487201" lon="-2.695602960884571">
        <ele>0.62</ele>
        <time>2023-08-17T17:04:12Z</time>
      </trkpt>
      <trkpt lat="56.221925988793373" lon="-2.695471029728651">
        <ele>0.14</ele>
        <time>2023-08-17T17:04:13Z</time>
      </trkpt>
      <trkpt lat="56.2220040243119" lon="-2.695413026958704">
        <ele>0.62</ele>
        <time>2023-08-17T17:04:14Z</time>
      </trkpt>
      <trkpt lat="56.222207034006715" lon="-2.695259973406792">
        <ele>0.62</ele>
        <time>2023-08-17T17:04:17Z</time>
      </trkpt>
      <trkpt lat="56.222231006249785" lon="-2.695214962586761">
        <ele>0.62</ele>
        <time>2023-08-17T17:04:18Z</time>
      </trkpt>
      <trkpt lat="56.222272999584675" lon="-2.695118989795446">
        <ele>0.62</ele>
        <time>2023-08-17T17:04:19Z</time>
      </trkpt>
      <trkpt lat="56.222302000969648" lon="-2.695046989247203">
        <ele>1.1</ele>
        <time>2023-08-17T17:04:20Z</time>
      </trkpt>
      <trkpt lat="56.222328990697861" lon="-2.694929977878928">
        <ele>1.1</ele>
        <time>2023-08-17T17:04:21Z</time>
      </trkpt>
      <trkpt lat="56.222355980426073" lon="-2.694810032844544">
        <ele>1.1</ele>
        <time>2023-08-17T17:04:22Z</time>
      </trkpt>
      <trkpt lat="56.222380958497524" lon="-2.694700984284282">
        <ele>0.62</ele>
        <time>2023-08-17T17:04:23Z</time>
      </trkpt>
      <trkpt lat="56.222406020388007" lon="-2.694590007886291">
        <ele>0.62</ele>
        <time>2023-08-17T17:04:24Z</time>
      </trkpt>
      <trkpt lat="56.222418006509542" lon="-2.694507027044892">
        <ele>0.14</ele>
        <time>2023-08-17T17:04:25Z</time>
      </trkpt>
      <trkpt lat="56.222461005672812" lon="-2.694205027073622">
        <ele>-0.82</ele>
        <time>2023-08-17T17:04:28Z</time>
      </trkpt>
      <trkpt lat="56.222471985965967" lon="-2.694129003211856">
        <ele>-1.3</ele>
        <time>2023-08-17T17:04:29Z</time>
      </trkpt>
      <trkpt lat="56.222530994564295" lon="-2.693986007943749">
        <ele>-1.3</ele>
        <time>2023-08-17T17:04:30Z</time>
      </trkpt>
      <trkpt lat="56.222578017041087" lon="-2.693982990458608">
        <ele>-1.79</ele>
        <time>2023-08-17T17:04:31Z</time>
      </trkpt>
      <trkpt lat="56.222635013982654" lon="-2.693977961316705">
        <ele>-1.79</ele>
        <time>2023-08-17T17:04:32Z</time>
      </trkpt>
      <trkpt lat="56.222701985388994" lon="-2.693973015993834">
        <ele>-2.27</ele>
        <time>2023-08-17T17:04:33Z</time>
      </trkpt>
      <trkpt lat="56.223428025841713" lon="-2.693810993805528">
        <ele>0.14</ele>
        <time>2023-08-17T17:04:43Z</time>
      </trkpt>
      <trkpt lat="56.223750980570912" lon="-2.693784004077315">
        <ele>2.54</ele>
        <time>2023-08-17T17:04:48Z</time>
      </trkpt>
      <trkpt lat="56.223819041624665" lon="-2.693778974935412">
        <ele>3.02</ele>
        <time>2023-08-17T17:04:49Z</time>
      </trkpt>
      <trkpt lat="56.223888024687767" lon="-2.693798001855612">
        <ele>3.5</ele>
        <time>2023-08-17T17:04:50Z</time>
      </trkpt>
      <trkpt lat="56.223943009972572" lon="-2.693857010453939">
        <ele>3.98</ele>
        <time>2023-08-17T17:04:51Z</time>
      </trkpt>
      <trkpt lat="56.223996989428997" lon="-2.693915013223887">
        <ele>4.94</ele>
        <time>2023-08-17T17:04:52Z</time>
      </trkpt>
      <trkpt lat="56.224049041047692" lon="-2.693969998508692">
        <ele>5.42</ele>
        <time>2023-08-17T17:04:53Z</time>
      </trkpt>
      <trkpt lat="56.224092040210962" lon="-2.694016015157104">
        <ele>6.39</ele>
        <time>2023-08-17T17:04:54Z</time>
      </trkpt>
      <trkpt lat="56.224167980253696" lon="-2.694096984341741">
        <ele>7.35</ele>
        <time>2023-08-17T17:04:56Z</time>
      </trkpt>
      <trkpt lat="56.224218020215631" lon="-2.694135038182139">
        <ele>7.83</ele>
        <time>2023-08-17T17:04:57Z</time>
      </trkpt>
      <trkpt lat="56.224290020763874" lon="-2.694098995998502">
        <ele>8.310000000000001</ele>
        <time>2023-08-17T17:04:58Z</time>
      </trkpt>
      <trkpt lat="56.224370989948511" lon="-2.694015009328723">
        <ele>8.310000000000001</ele>
        <time>2023-08-17T17:04:59Z</time>
      </trkpt>
      <trkpt lat="56.224433016031981" lon="-2.693906966596842">
        <ele>8.789999999999999</ele>
        <time>2023-08-17T17:05:00Z</time>
      </trkpt>
      <trkpt lat="56.224492024630308" lon="-2.693804036825895">
        <ele>9.27</ele>
        <time>2023-08-17T17:05:01Z</time>
      </trkpt>
      <trkpt lat="56.224550027400255" lon="-2.693696999922395">
        <ele>10.23</ele>
        <time>2023-08-17T17:05:03Z</time>
      </trkpt>
      <trkpt lat="56.2247100379318" lon="-2.693391982465982">
        <ele>10.710000000000001</ele>
        <time>2023-08-17T17:05:05Z</time>
      </trkpt>
      <trkpt lat="56.224744990468025" lon="-2.693324005231261">
        <ele>10.710000000000001</ele>
        <time>2023-08-17T17:05:06Z</time>
      </trkpt>
      <trkpt lat="56.224793018773198" lon="-2.693161983042955">
        <ele>11.19</ele>
        <time>2023-08-17T17:05:07Z</time>
      </trkpt>
      <trkpt lat="56.224827971309423" lon="-2.69304103218019">
        <ele>11.67</ele>
        <time>2023-08-17T17:05:08Z</time>
      </trkpt>
      <trkpt lat="56.224858984351158" lon="-2.692913040518761">
        <ele>12.15</ele>
        <time>2023-08-17T17:05:09Z</time>
      </trkpt>
      <trkpt lat="56.224922016263008" lon="-2.692510038614273">
        <ele>13.119999999999999</ele>
        <time>2023-08-17T17:05:12Z</time>
      </trkpt>
      <trkpt lat="56.225075991824269" lon="-2.691403962671757">
        <ele>16</ele>
        <time>2023-08-17T17:05:21Z</time>
      </trkpt>
      <trkpt lat="56.225089989602566" lon="-2.691291980445385">
        <ele>16.48</ele>
        <time>2023-08-17T17:05:22Z</time>
      </trkpt>
      <trkpt lat="56.22510096989572" lon="-2.691204976290464">
        <ele>16.48</ele>
        <time>2023-08-17T17:05:23Z</time>
      </trkpt>
      <trkpt lat="56.225109016522765" lon="-2.691143034026027">
        <ele>16.48</ele>
        <time>2023-08-17T17:05:24Z</time>
      </trkpt>
      <trkpt lat="56.225113961845636" lon="-2.691098023205996">
        <ele>16.960000000000001</ele>
        <time>2023-08-17T17:05:26Z</time>
      </trkpt>
      <trkpt lat="56.225193003192544" lon="-2.690991992130876">
        <ele>16.960000000000001</ele>
        <time>2023-08-17T17:05:27Z</time>
      </trkpt>
      <trkpt lat="56.225242037326097" lon="-2.691014958545566">
        <ele>17.440000000000001</ele>
        <time>2023-08-17T17:05:28Z</time>
      </trkpt>
      <trkpt lat="56.225370028987527" lon="-2.691073967143893">
        <ele>17.920000000000002</ele>
        <time>2023-08-17T17:05:29Z</time>
      </trkpt>
      <trkpt lat="56.225445969030261" lon="-2.69110799767077">
        <ele>17.920000000000002</ele>
        <time>2023-08-17T17:05:30Z</time>
      </trkpt>
      <trkpt lat="56.225524004548788" lon="-2.691144039854407">
        <ele>18.399999999999999</ele>
        <time>2023-08-17T17:05:31Z</time>
      </trkpt>
      <trkpt lat="56.226254990324378" lon="-2.691502030938864">
        <ele>20.809999999999999</ele>
        <time>2023-08-17T17:05:40Z</time>
      </trkpt>
      <trkpt lat="56.226320033892989" lon="-2.69155902788043">
        <ele>20.809999999999999</ele>
        <time>2023-08-17T17:05:41Z</time>
      </trkpt>
      <trkpt lat="56.226376025006175" lon="-2.691607978194952">
        <ele>20.809999999999999</ele>
        <time>2023-08-17T17:05:42Z</time>
      </trkpt>
      <trkpt lat="56.226411983370781" lon="-2.69166698679328">
        <ele>21.289999999999999</ele>
        <time>2023-08-17T17:05:43Z</time>
      </trkpt>
      <trkpt lat="56.226451965048909" lon="-2.69173102453351">
        <ele>21.289999999999999</ele>
        <time>2023-08-17T17:05:44Z</time>
      </trkpt>
      <trkpt lat="56.226555984467268" lon="-2.691900003701448">
        <ele>21.77</ele>
        <time>2023-08-17T17:05:46Z</time>
      </trkpt>
      <trkpt lat="56.226618010550737" lon="-2.692003017291427">
        <ele>22.25</ele>
        <time>2023-08-17T17:05:47Z</time>
      </trkpt>
      <trkpt lat="56.227175993844867" lon="-2.692922009155154">
        <ele>28.02</ele>
        <time>2023-08-17T17:05:56Z</time>
      </trkpt>
      <trkpt lat="56.227328963577747" lon="-2.693173969164491">
        <ele>31.859999999999999</ele>
        <time>2023-08-17T17:06:04Z</time>
      </trkpt>
      <trkpt lat="56.227369029074907" lon="-2.693140022456646">
        <ele>32.340000000000003</ele>
        <time>2023-08-17T17:06:07Z</time>
      </trkpt>
      <trkpt lat="56.227445974946022" lon="-2.692982023581862">
        <ele>32.340000000000003</ele>
        <time>2023-08-17T17:06:08Z</time>
      </trkpt>
      <trkpt lat="56.227500038221478" lon="-2.69287096336484">
        <ele>32.340000000000003</ele>
        <time>2023-08-17T17:06:09Z</time>
      </trkpt>
      <trkpt lat="56.228066990152001" lon="-2.691863039508462">
        <ele>28.98</ele>
        <time>2023-08-17T17:06:17Z</time>
      </trkpt>
      <trkpt lat="56.228177966549993" lon="-2.691715015098453">
        <ele>28.5</ele>
        <time>2023-08-17T17:06:18Z</time>
      </trkpt>
      <trkpt lat="56.228268994018435" lon="-2.691661035642028">
        <ele>28.5</ele>
        <time>2023-08-17T17:06:19Z</time>
      </trkpt>
      <trkpt lat="56.229298962280154" lon="-2.69091596826911">
        <ele>26.57</ele>
        <time>2023-08-17T17:06:29Z</time>
      </trkpt>
      <trkpt lat="56.230301018804312" lon="-2.690186994150281">
        <ele>25.609999999999999</ele>
        <time>2023-08-17T17:06:40Z</time>
      </trkpt>
      <trkpt lat="56.232055015861988" lon="-2.689202958717942">
        <ele>30.420000000000002</ele>
        <time>2023-08-17T17:06:55Z</time>
      </trkpt>
      <trkpt lat="56.232176972553134" lon="-2.689091982319951">
        <ele>30.899999999999999</ele>
        <time>2023-08-17T17:06:56Z</time>
      </trkpt>
      <trkpt lat="56.232288032770157" lon="-2.688940018415451">
        <ele>30.899999999999999</ele>
        <time>2023-08-17T17:06:57Z</time>
      </trkpt>
      <trkpt lat="56.233083978295326" lon="-2.687366986647248">
        <ele>32.340000000000003</ele>
        <time>2023-08-17T17:07:05Z</time>
      </trkpt>
      <trkpt lat="56.234161974862218" lon="-2.684976970776916">
        <ele>29.460000000000001</ele>
        <time>2023-08-17T17:07:16Z</time>
      </trkpt>
      <trkpt lat="56.234298013150692" lon="-2.684817966073751">
        <ele>28.98</ele>
        <time>2023-08-17T17:07:17Z</time>
      </trkpt>
      <trkpt lat="56.234432039782405" lon="-2.684659967198968">
        <ele>28.98</ele>
        <time>2023-08-17T17:07:18Z</time>
      </trkpt>
      <trkpt lat="56.235093036666512" lon="-2.68384600058198">
        <ele>29.940000000000001</ele>
        <time>2023-08-17T17:07:23Z</time>
      </trkpt>
      <trkpt lat="56.235222034156322" lon="-2.683642990887165">
        <ele>30.420000000000002</ele>
        <time>2023-08-17T17:07:24Z</time>
      </trkpt>
      <trkpt lat="56.23534700833261" lon="-2.683421038091183">
        <ele>30.899999999999999</ele>
        <time>2023-08-17T17:07:25Z</time>
      </trkpt>
      <trkpt lat="56.236295001581311" lon="-2.681470988318324">
        <ele>32.82</ele>
        <time>2023-08-17T17:07:34Z</time>
      </trkpt>
      <trkpt lat="56.236546961590648" lon="-2.681006966158748">
        <ele>32.340000000000003</ele>
        <time>2023-08-17T17:07:36Z</time>
      </trkpt>
      <trkpt lat="56.236626002937555" lon="-2.680761963129044">
        <ele>31.859999999999999</ele>
        <time>2023-08-17T17:07:37Z</time>
      </trkpt>
      <trkpt lat="56.237768959254026" lon="-2.677521016448736">
        <ele>29.460000000000001</ele>
        <time>2023-08-17T17:07:49Z</time>
      </trkpt>
      <trkpt lat="56.23831202276051" lon="-2.675505001097918">
        <ele>28.5</ele>
        <time>2023-08-17T17:07:56Z</time>
      </trkpt>
      <trkpt lat="56.238799011334777" lon="-2.673593005165458">
        <ele>29.460000000000001</ele>
        <time>2023-08-17T17:08:03Z</time>
      </trkpt>
      <trkpt lat="56.239805007353425" lon="-2.670735027641058">
        <ele>29.940000000000001</ele>
        <time>2023-08-17T17:08:14Z</time>
      </trkpt>
      <trkpt lat="56.241001021116972" lon="-2.66721404157579">
        <ele>28.02</ele>
        <time>2023-08-17T17:08:26Z</time>
      </trkpt>
      <trkpt lat="56.242806985974312" lon="-2.663042033091188">
        <ele>30.420000000000002</ele>
        <time>2023-08-17T17:08:40Z</time>
      </trkpt>
      <trkpt lat="56.243702005594969" lon="-2.660975977778435">
        <ele>29.940000000000001</ele>
        <time>2023-08-17T17:08:49Z</time>
      </trkpt>
      <trkpt lat="56.243856986984611" lon="-2.660611029714346">
        <ele>29.460000000000001</ele>
        <time>2023-08-17T17:08:51Z</time>
      </trkpt>
      <trkpt lat="56.243908032774925" lon="-2.660388993099332">
        <ele>29.460000000000001</ele>
        <time>2023-08-17T17:08:52Z</time>
      </trkpt>
      <trkpt lat="56.243911972269416" lon="-2.660162011161447">
        <ele>28.98</ele>
        <time>2023-08-17T17:08:53Z</time>
      </trkpt>
      <trkpt lat="56.243914989754558" lon="-2.659919019788504">
        <ele>28.5</ele>
        <time>2023-08-17T17:08:54Z</time>
      </trkpt>
      <trkpt lat="56.24391901306808" lon="-2.659670999273658">
        <ele>28.02</ele>
        <time>2023-08-17T17:08:55Z</time>
      </trkpt>
      <trkpt lat="56.243923036381602" lon="-2.659430019557476">
        <ele>27.530000000000001</ele>
        <time>2023-08-17T17:08:56Z</time>
      </trkpt>
      <trkpt lat="56.243925970047712" lon="-2.659195996820927">
        <ele>27.050000000000001</ele>
        <time>2023-08-17T17:08:57Z</time>
      </trkpt>
      <trkpt lat="56.243950026109815" lon="-2.658984018489718">
        <ele>27.050000000000001</ele>
        <time>2023-08-17T17:08:58Z</time>
      </trkpt>
      <trkpt lat="56.244018003344536" lon="-2.658761981874704">
        <ele>26.57</ele>
        <time>2023-08-17T17:08:59Z</time>
      </trkpt>
      <trkpt lat="56.244090003892779" lon="-2.658526031300426">
        <ele>26.57</ele>
        <time>2023-08-17T17:09:00Z</time>
      </trkpt>
      <trkpt lat="56.244668019935489" lon="-2.656461987644434">
        <ele>27.050000000000001</ele>
        <time>2023-08-17T17:09:07Z</time>
      </trkpt>
      <trkpt lat="56.245260033756495" lon="-2.654147995635867">
        <ele>27.530000000000001</ele>
        <time>2023-08-17T17:09:15Z</time>
      </trkpt>
      <trkpt lat="56.246224036440253" lon="-2.650721976533532">
        <ele>28.02</ele>
        <time>2023-08-17T17:09:27Z</time>
      </trkpt>
      <trkpt lat="56.24746598303318" lon="-2.647582031786442">
        <ele>28.5</ele>
        <time>2023-08-17T17:09:39Z</time>
      </trkpt>
      <trkpt lat="56.248611034825444" lon="-2.645714040845633">
        <ele>28.02</ele>
        <time>2023-08-17T17:09:48Z</time>
      </trkpt>
      <trkpt lat="56.2487100251019" lon="-2.645511031150818">
        <ele>28.02</ele>
        <time>2023-08-17T17:09:49Z</time>
      </trkpt>
      <trkpt lat="56.24879501760006" lon="-2.645273990929127">
        <ele>27.530000000000001</ele>
        <time>2023-08-17T17:09:50Z</time>
      </trkpt>
      <trkpt lat="56.24903398565948" lon="-2.644605031237006">
        <ele>26.57</ele>
        <time>2023-08-17T17:09:53Z</time>
      </trkpt>
      <trkpt lat="56.249102968722582" lon="-2.64441903680563">
        <ele>26.09</ele>
        <time>2023-08-17T17:09:54Z</time>
      </trkpt>
      <trkpt lat="56.249220985919237" lon="-2.644311999902129">
        <ele>25.609999999999999</ele>
        <time>2023-08-17T17:09:55Z</time>
      </trkpt>
      <trkpt lat="56.249360041692853" lon="-2.644187025725842">
        <ele>25.609999999999999</ele>
        <time>2023-08-17T17:09:56Z</time>
      </trkpt>
      <trkpt lat="56.249520974233747" lon="-2.644041012972593">
        <ele>25.609999999999999</ele>
        <time>2023-08-17T17:09:57Z</time>
      </trkpt>
      <trkpt lat="56.249698000028729" lon="-2.643881002441049">
        <ele>25.609999999999999</ele>
        <time>2023-08-17T17:09:58Z</time>
      </trkpt>
      <trkpt lat="56.249876031652093" lon="-2.643689978867769">
        <ele>25.609999999999999</ele>
        <time>2023-08-17T17:09:59Z</time>
      </trkpt>
      <trkpt lat="56.251109009608626" lon="-2.642232030630112">
        <ele>26.57</ele>
        <time>2023-08-17T17:10:07Z</time>
      </trkpt>
      <trkpt lat="56.252934001386166" lon="-2.639974029734731">
        <ele>28.98</ele>
        <time>2023-08-17T17:10:20Z</time>
      </trkpt>
      <trkpt lat="56.253891969099641" lon="-2.638162029907107">
        <ele>28.02</ele>
        <time>2023-08-17T17:10:28Z</time>
      </trkpt>
      <trkpt lat="56.254939958453178" lon="-2.635622983798385">
        <ele>27.530000000000001</ele>
        <time>2023-08-17T17:10:39Z</time>
      </trkpt>
      <trkpt lat="56.255619982257485" lon="-2.634467035531998">
        <ele>28.02</ele>
        <time>2023-08-17T17:10:49Z</time>
      </trkpt>
      <trkpt lat="56.256202021613717" lon="-2.633333969861269">
        <ele>28.02</ele>
        <time>2023-08-17T17:11:01Z</time>
      </trkpt>
      <trkpt lat="56.256283996626735" lon="-2.633113022893667">
        <ele>27.530000000000001</ele>
        <time>2023-08-17T17:11:02Z</time>
      </trkpt>
      <trkpt lat="56.256323978304863" lon="-2.633003974333406">
        <ele>27.050000000000001</ele>
        <time>2023-08-17T17:11:03Z</time>
      </trkpt>
      <trkpt lat="56.256366977468133" lon="-2.632887968793511">
        <ele>26.57</ele>
        <time>2023-08-17T17:11:04Z</time>
      </trkpt>
      <trkpt lat="56.256408970803022" lon="-2.632772969081998">
        <ele>25.129999999999999</ele>
        <time>2023-08-17T17:11:06Z</time>
      </trkpt>
      <trkpt lat="56.256852960214019" lon="-2.631678963080049">
        <ele>22.25</ele>
        <time>2023-08-17T17:11:15Z</time>
      </trkpt>
      <trkpt lat="56.257729036733508" lon="-2.630254039540887">
        <ele>18.879999999999999</ele>
        <time>2023-08-17T17:11:27Z</time>
      </trkpt>
      <trkpt lat="56.258307974785566" lon="-2.629116028547287">
        <ele>19.359999999999999</ele>
        <time>2023-08-17T17:11:36Z</time>
      </trkpt>
      <trkpt lat="56.258382992818952" lon="-2.628998011350632">
        <ele>19.359999999999999</ele>
        <time>2023-08-17T17:11:38Z</time>
      </trkpt>
      <trkpt lat="56.258664038032293" lon="-2.628624010831118">
        <ele>18.879999999999999</ele>
        <time>2023-08-17T17:11:41Z</time>
      </trkpt>
      <trkpt lat="56.258716005831957" lon="-2.628560978919268">
        <ele>18.399999999999999</ele>
        <time>2023-08-17T17:11:42Z</time>
      </trkpt>
      <trkpt lat="56.258777026087046" lon="-2.628499958664179">
        <ele>18.399999999999999</ele>
        <time>2023-08-17T17:11:43Z</time>
      </trkpt>
      <trkpt lat="56.258777026087046" lon="-2.628499958664179">
        <ele>17.920000000000002</ele>
        <time>2023-08-17T17:11:45Z</time>
      </trkpt>
      <trkpt lat="56.258802004158497" lon="-2.628333996981382">
        <ele>17.920000000000002</ele>
        <time>2023-08-17T17:11:46Z</time>
      </trkpt>
      <trkpt lat="56.258773002773523" lon="-2.628256967291236">
        <ele>17.440000000000001</ele>
        <time>2023-08-17T17:11:47Z</time>
      </trkpt>
      <trkpt lat="56.258248966187239" lon="-2.627181988209486">
        <ele>14.56</ele>
        <time>2023-08-17T17:11:57Z</time>
      </trkpt>
      <trkpt lat="56.258175959810615" lon="-2.627074029296637">
        <ele>13.6</ele>
        <time>2023-08-17T17:11:59Z</time>
      </trkpt>
      <trkpt lat="56.258155005052686" lon="-2.627041004598141">
        <ele>13.119999999999999</ele>
        <time>2023-08-17T17:12:00Z</time>
      </trkpt>
      <trkpt lat="56.258129021152854" lon="-2.62706195935607">
        <ele>12.630000000000001</ele>
        <time>2023-08-17T17:12:01Z</time>
      </trkpt>
      <trkpt lat="56.2580990139395" lon="-2.627088027074933">
        <ele>11.67</ele>
        <time>2023-08-17T17:12:02Z</time>
      </trkpt>
      <trkpt lat="56.258061965927482" lon="-2.627118034288287">
        <ele>11.19</ele>
        <time>2023-08-17T17:12:03Z</time>
      </trkpt>
      <trkpt lat="56.25799398869276" lon="-2.627238985151053">
        <ele>8.310000000000001</ele>
        <time>2023-08-17T17:12:08Z</time>
      </trkpt>
      <trkpt lat="56.257896004244685" lon="-2.627503015100956">
        <ele>3.98</ele>
        <time>2023-08-17T17:12:17Z</time>
      </trkpt>
      <trkpt lat="56.257834983989596" lon="-2.627651039510965">
        <ele>3.02</ele>
        <time>2023-08-17T17:12:20Z</time>
      </trkpt>
      <trkpt lat="56.257827021181583" lon="-2.627358008176088">
        <ele>2.54</ele>
        <time>2023-08-17T17:12:22Z</time>
      </trkpt>
      <trkpt lat="56.257744962349534" lon="-2.62727502733469">
        <ele>2.54</ele>
        <time>2023-08-17T17:12:25Z</time>
      </trkpt>
      <trkpt lat="56.257729036733508" lon="-2.627260023728013">
        <ele>3.5</ele>
        <time>2023-08-17T17:12:37Z</time>
      </trkpt>
      <trkpt lat="56.257729036733508" lon="-2.627260023728013">
        <ele>3.5</ele>
        <time>2023-08-17T17:12:46Z</time>
      </trkpt>
      <trkpt lat="56.257629962638021" lon="-2.627526987344027">
        <ele>3.5</ele>
        <time>2023-08-17T17:12:54Z</time>
      </trkpt>
      <trkpt lat="56.257629962638021" lon="-2.627570992335677">
        <ele>3.5</ele>
        <time>2023-08-17T17:13:12Z</time>
      </trkpt>
      <trkpt lat="56.25777899287641" lon="-2.627785988152027">
        <ele>3.02</ele>
        <time>2023-08-17T17:13:16Z</time>
      </trkpt>
      <trkpt lat="56.25779902562499" lon="-2.627738965675235">
        <ele>2.54</ele>
        <time>2023-08-17T17:13:17Z</time>
      </trkpt>
      <trkpt lat="56.257874965667725" lon="-2.62755498290062">
        <ele>2.54</ele>
        <time>2023-08-17T17:13:18Z</time>
      </trkpt>
      <trkpt lat="56.257975967600942" lon="-2.627288019284606">
        <ele>1.58</ele>
        <time>2023-08-17T17:13:21Z</time>
      </trkpt>
      <trkpt lat="56.258026007562876" lon="-2.62714896351099">
        <ele>1.1</ele>
        <time>2023-08-17T17:13:23Z</time>
      </trkpt>
      <trkpt lat="56.258098008111119" lon="-2.627088027074933">
        <ele>0.62</ele>
        <time>2023-08-17T17:13:24Z</time>
      </trkpt>
      <trkpt lat="56.258196998387575" lon="-2.62710596434772">
        <ele>0.62</ele>
        <time>2023-08-17T17:13:25Z</time>
      </trkpt>
      <trkpt lat="56.258238991722465" lon="-2.62716799043119">
        <ele>0.14</ele>
        <time>2023-08-17T17:13:26Z</time>
      </trkpt>
      <trkpt lat="56.258305963128805" lon="-2.627268992364407">
        <ele>0.14</ele>
        <time>2023-08-17T17:13:28Z</time>
      </trkpt>
      <trkpt lat="56.258343011140823" lon="-2.627322971820831">
        <ele>0.62</ele>
        <time>2023-08-17T17:13:29Z</time>
      </trkpt>
      <trkpt lat="56.258601006120443" lon="-2.627837033942342">
        <ele>3.5</ele>
        <time>2023-08-17T17:13:35Z</time>
      </trkpt>
      <trkpt lat="56.258640987798572" lon="-2.627923032268882">
        <ele>3.98</ele>
        <time>2023-08-17T17:13:36Z</time>
      </trkpt>
      <trkpt lat="56.258669989183545" lon="-2.6279859803617">
        <ele>4.46</ele>
        <time>2023-08-17T17:13:37Z</time>
      </trkpt>
      <trkpt lat="56.258713994175196" lon="-2.628101985901594">
        <ele>4.46</ele>
        <time>2023-08-17T17:13:38Z</time>
      </trkpt>
      <trkpt lat="56.258740983903408" lon="-2.628171974793077">
        <ele>4.94</ele>
        <time>2023-08-17T17:13:39Z</time>
      </trkpt>
      <trkpt lat="56.258768979460001" lon="-2.628245986998081">
        <ele>6.39</ele>
        <time>2023-08-17T17:13:46Z</time>
      </trkpt>
      <trkpt lat="56.258782977238297" lon="-2.628282029181719">
        <ele>7.35</ele>
        <time>2023-08-17T17:13:55Z</time>
      </trkpt>
      <trkpt lat="56.258840980008245" lon="-2.62843600474298">
        <ele>7.83</ele>
        <time>2023-08-17T17:13:57Z</time>
      </trkpt>
      <trkpt lat="56.258864030241966" lon="-2.628412032499909">
        <ele>8.310000000000001</ele>
        <time>2023-08-17T17:13:58Z</time>
      </trkpt>
      <trkpt lat="56.259726025164127" lon="-2.627530004829168">
        <ele>11.67</ele>
        <time>2023-08-17T17:14:09Z</time>
      </trkpt>
      <trkpt lat="56.259800959378481" lon="-2.627454986795783">
        <ele>12.15</ele>
        <time>2023-08-17T17:14:10Z</time>
      </trkpt>
      <trkpt lat="56.260591959580779" lon="-2.626783009618521">
        <ele>14.08</ele>
        <time>2023-08-17T17:14:20Z</time>
      </trkpt>
      <trkpt lat="56.26065599732101" lon="-2.626740010455251">
        <ele>14.56</ele>
        <time>2023-08-17T17:14:21Z</time>
      </trkpt>
      <trkpt lat="56.260712994262576" lon="-2.626745961606503">
        <ele>14.56</ele>
        <time>2023-08-17T17:14:22Z</time>
      </trkpt>
      <trkpt lat="56.260761022567749" lon="-2.626818967983127">
        <ele>16</ele>
        <time>2023-08-17T17:14:24Z</time>
      </trkpt>
      <trkpt lat="56.260793963447213" lon="-2.626929022371769">
        <ele>16.48</ele>
        <time>2023-08-17T17:14:25Z</time>
      </trkpt>
      <trkpt lat="56.261190008372068" lon="-2.628137022256851">
        <ele>21.77</ele>
        <time>2023-08-17T17:14:35Z</time>
      </trkpt>
      <trkpt lat="56.26157901249826" lon="-2.629131032153964">
        <ele>24.649999999999999</ele>
        <time>2023-08-17T17:14:42Z</time>
      </trkpt>
      <trkpt lat="56.261651013046503" lon="-2.629310991615057">
        <ele>25.129999999999999</ele>
        <time>2023-08-17T17:14:43Z</time>
      </trkpt>
      <trkpt lat="56.262292983010411" lon="-2.631156016141176">
        <ele>31.379999999999999</ele>
        <time>2023-08-17T17:14:52Z</time>
      </trkpt>
      <trkpt lat="56.262361966073513" lon="-2.631326001137495">
        <ele>31.859999999999999</ele>
        <time>2023-08-17T17:14:53Z</time>
      </trkpt>
      <trkpt lat="56.262451987713575" lon="-2.631468996405602">
        <ele>32.340000000000003</ele>
        <time>2023-08-17T17:14:54Z</time>
      </trkpt>
      <trkpt lat="56.262547038495541" lon="-2.631618026643992">
        <ele>32.340000000000003</ele>
        <time>2023-08-17T17:14:55Z</time>
      </trkpt>
      <trkpt lat="56.263774987310171" lon="-2.633284013718367">
        <ele>36.670000000000002</ele>
        <time>2023-08-17T17:15:07Z</time>
      </trkpt>
      <trkpt lat="56.265375008806586" lon="-2.634781021624804">
        <ele>38.590000000000003</ele>
        <time>2023-08-17T17:15:18Z</time>
      </trkpt>
      <trkpt lat="56.267168987542391" lon="-2.636550022289157">
        <ele>41.469999999999999</ele>
        <time>2023-08-17T17:15:27Z</time>
      </trkpt>
      <trkpt lat="56.267992006614804" lon="-2.637402964755893">
        <ele>41.469999999999999</ele>
        <time>2023-08-17T17:15:32Z</time>
      </trkpt>
      <trkpt lat="56.269562020897865" lon="-2.638437962159514">
        <ele>43.399999999999999</ele>
        <time>2023-08-17T17:15:40Z</time>
      </trkpt>
      <trkpt lat="56.271746009588242" lon="-2.63982298783958">
        <ele>50.609999999999999</ele>
        <time>2023-08-17T17:15:52Z</time>
      </trkpt>
      <trkpt lat="56.271886993199587" lon="-2.639873027801514">
        <ele>51.090000000000003</ele>
        <time>2023-08-17T17:15:53Z</time>
      </trkpt>
      <trkpt lat="56.272037029266357" lon="-2.639816030859947">
        <ele>51.57</ele>
        <time>2023-08-17T17:15:54Z</time>
      </trkpt>
      <trkpt lat="56.272166026756167" lon="-2.639765990898013">
        <ele>51.57</ele>
        <time>2023-08-17T17:15:55Z</time>
      </trkpt>
      <trkpt lat="56.272307010367513" lon="-2.6396319642663">
        <ele>51.57</ele>
        <time>2023-08-17T17:15:56Z</time>
      </trkpt>
      <trkpt lat="56.272447993978858" lon="-2.639499027282">
        <ele>51.57</ele>
        <time>2023-08-17T17:15:57Z</time>
      </trkpt>
      <trkpt lat="56.272585960105062" lon="-2.639368018135428">
        <ele>51.090000000000003</ele>
        <time>2023-08-17T17:15:58Z</time>
      </trkpt>
      <trkpt lat="56.27408497966826" lon="-2.63795499689877">
        <ele>52.530000000000001</ele>
        <time>2023-08-17T17:16:09Z</time>
      </trkpt>
      <trkpt lat="56.274362001568079" lon="-2.637713011354208">
        <ele>52.530000000000001</ele>
        <time>2023-08-17T17:16:11Z</time>
      </trkpt>
      <trkpt lat="56.274480018764734" lon="-2.63765400275588">
        <ele>52.530000000000001</ele>
        <time>2023-08-17T17:16:12Z</time>
      </trkpt>
      <trkpt lat="56.274589989334345" lon="-2.6376339700073">
        <ele>52.530000000000001</ele>
        <time>2023-08-17T17:16:13Z</time>
      </trkpt>
      <trkpt lat="56.274696020409465" lon="-2.637677974998951">
        <ele>52.530000000000001</ele>
        <time>2023-08-17T17:16:14Z</time>
      </trkpt>
      <trkpt lat="56.274806996807456" lon="-2.63776196166873">
        <ele>52.530000000000001</ele>
        <time>2023-08-17T17:16:15Z</time>
      </trkpt>
      <trkpt lat="56.274932976812124" lon="-2.637859024107456">
        <ele>52.530000000000001</ele>
        <time>2023-08-17T17:16:17Z</time>
      </trkpt>
      <trkpt lat="56.275076977908611" lon="-2.637980980798602">
        <ele>52.530000000000001</ele>
        <time>2023-08-17T17:16:18Z</time>
      </trkpt>
      <trkpt lat="56.276603993028402" lon="-2.639562981203198">
        <ele>52.530000000000001</ele>
        <time>2023-08-17T17:16:26Z</time>
      </trkpt>
      <trkpt lat="56.279146978631616" lon="-2.642095992341638">
        <ele>53.969999999999999</ele>
        <time>2023-08-17T17:16:39Z</time>
      </trkpt>
      <trkpt lat="56.281384024769068" lon="-2.6444620359689">
        <ele>55.409999999999997</ele>
        <time>2023-08-17T17:16:51Z</time>
      </trkpt>
      <trkpt lat="56.283075995743275" lon="-2.646462041884661">
        <ele>51.090000000000003</ele>
        <time>2023-08-17T17:17:01Z</time>
      </trkpt>
      <trkpt lat="56.28508597612381" lon="-2.648777961730957">
        <ele>43.880000000000003</ele>
        <time>2023-08-17T17:17:13Z</time>
      </trkpt>
      <trkpt lat="56.286535961553454" lon="-2.650347976014018">
        <ele>37.630000000000003</ele>
        <time>2023-08-17T17:17:22Z</time>
      </trkpt>
      <trkpt lat="56.28809398971498" lon="-2.652374971657991">
        <ele>36.670000000000002</ele>
        <time>2023-08-17T17:17:32Z</time>
      </trkpt>
      <trkpt lat="56.289336020126939" lon="-2.65395998954773">
        <ele>38.109999999999999</ele>
        <time>2023-08-17T17:17:40Z</time>
      </trkpt>
      <trkpt lat="56.289460994303226" lon="-2.654118994250894">
        <ele>39.07</ele>
        <time>2023-08-17T17:17:41Z</time>
      </trkpt>
      <trkpt lat="56.289586974307895" lon="-2.654242962598801">
        <ele>39.07</ele>
        <time>2023-08-17T17:17:42Z</time>
      </trkpt>
      <trkpt lat="56.289742961525917" lon="-2.654299959540367">
        <ele>39.549999999999997</ele>
        <time>2023-08-17T17:17:43Z</time>
      </trkpt>
      <trkpt lat="56.291278023272753" lon="-2.654860960319638">
        <ele>41.469999999999999</ele>
        <time>2023-08-17T17:17:51Z</time>
      </trkpt>
      <trkpt lat="56.293124975636601" lon="-2.655565040186048">
        <ele>41.469999999999999</ele>
        <time>2023-08-17T17:18:01Z</time>
      </trkpt>
      <trkpt lat="56.293882029131055" lon="-2.655858993530273">
        <ele>40.990000000000002</ele>
        <time>2023-08-17T17:18:05Z</time>
      </trkpt>
      <trkpt lat="56.295825960114598" lon="-2.657386008650065">
        <ele>39.549999999999997</ele>
        <time>2023-08-17T17:18:16Z</time>
      </trkpt>
      <trkpt lat="56.296995989978313" lon="-2.658305000513792">
        <ele>38.109999999999999</ele>
        <time>2023-08-17T17:18:24Z</time>
      </trkpt>
      <trkpt lat="56.297618011012673" lon="-2.658786959946156">
        <ele>37.149999999999999</ele>
        <time>2023-08-17T17:18:32Z</time>
      </trkpt>
      <trkpt lat="56.29883598536253" lon="-2.659391965717077">
        <ele>36.670000000000002</ele>
        <time>2023-08-17T17:18:44Z</time>
      </trkpt>
      <trkpt lat="56.298928018659353" lon="-2.659468995407224">
        <ele>36.670000000000002</ele>
        <time>2023-08-17T17:18:45Z</time>
      </trkpt>
      <trkpt lat="56.299357004463673" lon="-2.659867973998189">
        <ele>35.710000000000001</ele>
        <time>2023-08-17T17:18:50Z</time>
      </trkpt>
      <trkpt lat="56.29943897947669" lon="-2.659898987039924">
        <ele>35.229999999999997</ele>
        <time>2023-08-17T17:18:51Z</time>
      </trkpt>
      <trkpt lat="56.299517014995217" lon="-2.659900998696685">
        <ele>34.740000000000002</ele>
        <time>2023-08-17T17:18:53Z</time>
      </trkpt>
      <trkpt lat="56.299682976678014" lon="-2.659834027290344">
        <ele>34.740000000000002</ele>
        <time>2023-08-17T17:18:54Z</time>
      </trkpt>
      <trkpt lat="56.299774004146457" lon="-2.659797985106707">
        <ele>34.740000000000002</ele>
        <time>2023-08-17T17:18:55Z</time>
      </trkpt>
      <trkpt lat="56.2998650316149" lon="-2.65976102091372">
        <ele>34.259999999999998</ele>
        <time>2023-08-17T17:18:56Z</time>
      </trkpt>
      <trkpt lat="56.300162002444267" lon="-2.659742999821901">
        <ele>34.259999999999998</ele>
        <time>2023-08-17T17:19:00Z</time>
      </trkpt>
      <trkpt lat="56.300349002704024" lon="-2.659873003140092">
        <ele>34.259999999999998</ele>
        <time>2023-08-17T17:19:01Z</time>
      </trkpt>
      <trkpt lat="56.300440030172467" lon="-2.659959001466632">
        <ele>34.259999999999998</ele>
        <time>2023-08-17T17:19:02Z</time>
      </trkpt>
      <trkpt lat="56.300530973821878" lon="-2.660046005621553">
        <ele>34.259999999999998</ele>
        <time>2023-08-17T17:19:03Z</time>
      </trkpt>
      <trkpt lat="56.300959037616849" lon="-2.660502986982465">
        <ele>35.229999999999997</ele>
        <time>2023-08-17T17:19:08Z</time>
      </trkpt>
      <trkpt lat="56.301060039550066" lon="-2.660561995580792">
        <ele>35.710000000000001</ele>
        <time>2023-08-17T17:19:09Z</time>
      </trkpt>
      <trkpt lat="56.301170010119677" lon="-2.660580016672611">
        <ele>35.710000000000001</ele>
        <time>2023-08-17T17:19:10Z</time>
      </trkpt>
      <trkpt lat="56.301289033144712" lon="-2.660580016672611">
        <ele>36.189999999999998</ele>
        <time>2023-08-17T17:19:11Z</time>
      </trkpt>
      <trkpt lat="56.301418030634522" lon="-2.660580016672611">
        <ele>36.670000000000002</ele>
        <time>2023-08-17T17:19:13Z</time>
      </trkpt>
      <trkpt lat="56.302931969985366" lon="-2.660723011940718">
        <ele>36.670000000000002</ele>
        <time>2023-08-17T17:19:21Z</time>
      </trkpt>
      <trkpt lat="56.303128022700548" lon="-2.660783026367426">
        <ele>36.670000000000002</ele>
        <time>2023-08-17T17:19:23Z</time>
      </trkpt>
      <trkpt lat="56.304474994540215" lon="-2.661524992436171">
        <ele>37.630000000000003</ele>
        <time>2023-08-17T17:19:30Z</time>
      </trkpt>
      <trkpt lat="56.304647997021675" lon="-2.661654995754361">
        <ele>37.630000000000003</ele>
        <time>2023-08-17T17:19:31Z</time>
      </trkpt>
      <trkpt lat="56.304948991164565" lon="-2.661980967968702">
        <ele>39.07</ele>
        <time>2023-08-17T17:19:33Z</time>
      </trkpt>
      <trkpt lat="56.30624701268971" lon="-2.664476009085774">
        <ele>39.549999999999997</ele>
        <time>2023-08-17T17:19:42Z</time>
      </trkpt>
      <trkpt lat="56.307500023394823" lon="-2.666939031332731">
        <ele>37.630000000000003</ele>
        <time>2023-08-17T17:19:52Z</time>
      </trkpt>
      <trkpt lat="56.308106034994125" lon="-2.667961958795786">
        <ele>36.189999999999998</ele>
        <time>2023-08-17T17:19:57Z</time>
      </trkpt>
      <trkpt lat="56.3082679733634" lon="-2.668145019561052">
        <ele>35.710000000000001</ele>
        <time>2023-08-17T17:19:58Z</time>
      </trkpt>
      <trkpt lat="56.30925502628088" lon="-2.669312031939626">
        <ele>32.82</ele>
        <time>2023-08-17T17:20:03Z</time>
      </trkpt>
      <trkpt lat="56.309572029858828" lon="-2.669733976945281">
        <ele>31.859999999999999</ele>
        <time>2023-08-17T17:20:05Z</time>
      </trkpt>
      <trkpt lat="56.309675965458155" lon="-2.66996699385345">
        <ele>31.859999999999999</ele>
        <time>2023-08-17T17:20:06Z</time>
      </trkpt>
      <trkpt lat="56.309772022068501" lon="-2.670230017974973">
        <ele>31.859999999999999</ele>
        <time>2023-08-17T17:20:07Z</time>
      </trkpt>
      <trkpt lat="56.310507031157613" lon="-2.6722870208323">
        <ele>29.940000000000001</ele>
        <time>2023-08-17T17:20:13Z</time>
      </trkpt>
      <trkpt lat="56.311612017452717" lon="-2.675518998876214">
        <ele>29.460000000000001</ele>
        <time>2023-08-17T17:20:22Z</time>
      </trkpt>
      <trkpt lat="56.313011962920427" lon="-2.679620012640953">
        <ele>28.02</ele>
        <time>2023-08-17T17:20:35Z</time>
      </trkpt>
      <trkpt lat="56.313655022531748" lon="-2.681575007736683">
        <ele>28.5</ele>
        <time>2023-08-17T17:20:43Z</time>
      </trkpt>
      <trkpt lat="56.313699027523398" lon="-2.681785980239511">
        <ele>28.5</ele>
        <time>2023-08-17T17:20:45Z</time>
      </trkpt>
      <trkpt lat="56.313771028071642" lon="-2.682152017951012">
        <ele>28.02</ele>
        <time>2023-08-17T17:20:47Z</time>
      </trkpt>
      <trkpt lat="56.313700033351779" lon="-2.682486958801746">
        <ele>28.02</ele>
        <time>2023-08-17T17:20:48Z</time>
      </trkpt>
      <trkpt lat="56.313220001757145" lon="-2.683656988665462">
        <ele>24.649999999999999</ele>
        <time>2023-08-17T17:20:53Z</time>
      </trkpt>
      <trkpt lat="56.312244012951851" lon="-2.686293013393879">
        <ele>24.649999999999999</ele>
        <time>2023-08-17T17:21:02Z</time>
      </trkpt>
      <trkpt lat="56.312185004353523" lon="-2.68661898560822">
        <ele>25.129999999999999</ele>
        <time>2023-08-17T17:21:03Z</time>
      </trkpt>
      <trkpt lat="56.311808992177248" lon="-2.689213017001748">
        <ele>27.530000000000001</ele>
        <time>2023-08-17T17:21:11Z</time>
      </trkpt>
      <trkpt lat="56.311796000227332" lon="-2.691254010424018">
        <ele>28.5</ele>
        <time>2023-08-17T17:21:18Z</time>
      </trkpt>
      <trkpt lat="56.311830030754209" lon="-2.691510999575257">
        <ele>28.5</ele>
        <time>2023-08-17T17:21:19Z</time>
      </trkpt>
      <trkpt lat="56.311904964968562" lon="-2.691745022311807">
        <ele>28.5</ele>
        <time>2023-08-17T17:21:20Z</time>
      </trkpt>
      <trkpt lat="56.312386002391577" lon="-2.693699011579156">
        <ele>28.5</ele>
        <time>2023-08-17T17:21:27Z</time>
      </trkpt>
      <trkpt lat="56.312532015144825" lon="-2.694817995652556">
        <ele>29.940000000000001</ele>
        <time>2023-08-17T17:21:31Z</time>
      </trkpt>
      <trkpt lat="56.312547018751502" lon="-2.695038020610809">
        <ele>30.899999999999999</ele>
        <time>2023-08-17T17:21:32Z</time>
      </trkpt>
      <trkpt lat="56.312506031244993" lon="-2.695240024477243">
        <ele>31.379999999999999</ele>
        <time>2023-08-17T17:21:33Z</time>
      </trkpt>
      <trkpt lat="56.312449034303427" lon="-2.695443034172058">
        <ele>32.340000000000003</ele>
        <time>2023-08-17T17:21:34Z</time>
      </trkpt>
      <trkpt lat="56.312389019876719" lon="-2.695655012503266">
        <ele>32.82</ele>
        <time>2023-08-17T17:21:35Z</time>
      </trkpt>
      <trkpt lat="56.312357001006603" lon="-2.69577001221478">
        <ele>32.82</ele>
        <time>2023-08-17T17:21:36Z</time>
      </trkpt>
      <trkpt lat="56.312357001006603" lon="-2.696056002750993">
        <ele>32.82</ele>
        <time>2023-08-17T17:21:37Z</time>
      </trkpt>
      <trkpt lat="56.312357001006603" lon="-2.69635003991425">
        <ele>32.82</ele>
        <time>2023-08-17T17:21:38Z</time>
      </trkpt>
      <trkpt lat="56.312464037910104" lon="-2.696950016543269">
        <ele>31.379999999999999</ele>
        <time>2023-08-17T17:21:41Z</time>
      </trkpt>
      <trkpt lat="56.312490021809936" lon="-2.697243969887495">
        <ele>30.899999999999999</ele>
        <time>2023-08-17T17:21:43Z</time>
      </trkpt>
      <trkpt lat="56.312451967969537" lon="-2.697377996519208">
        <ele>30.420000000000002</ele>
        <time>2023-08-17T17:21:44Z</time>
      </trkpt>
      <trkpt lat="56.312365969642997" lon="-2.697732970118523">
        <ele>30.420000000000002</ele>
        <time>2023-08-17T17:21:46Z</time>
      </trkpt>
      <trkpt lat="56.312335040420294" lon="-2.697975039482117">
        <ele>30.420000000000002</ele>
        <time>2023-08-17T17:21:47Z</time>
      </trkpt>
      <trkpt lat="56.312292041257024" lon="-2.698302017524838">
        <ele>30.420000000000002</ele>
        <time>2023-08-17T17:21:48Z</time>
      </trkpt>
      <trkpt lat="56.312268991023302" lon="-2.698812978342176">
        <ele>31.379999999999999</ele>
        <time>2023-08-17T17:21:50Z</time>
      </trkpt>
      <trkpt lat="56.312233032658696" lon="-2.699082959443331">
        <ele>31.859999999999999</ele>
        <time>2023-08-17T17:21:51Z</time>
      </trkpt>
      <trkpt lat="56.312196990475059" lon="-2.699353024363518">
        <ele>32.82</ele>
        <time>2023-08-17T17:21:52Z</time>
      </trkpt>
      <trkpt lat="56.311820978298783" lon="-2.701067961752415">
        <ele>39.07</ele>
        <time>2023-08-17T17:21:59Z</time>
      </trkpt>
      <trkpt lat="56.311806980520487" lon="-2.701239958405495">
        <ele>40.509999999999998</ele>
        <time>2023-08-17T17:22:01Z</time>
      </trkpt>
      <trkpt lat="56.311858026310802" lon="-2.701478004455566">
        <ele>40.990000000000002</ele>
        <time>2023-08-17T17:22:02Z</time>
      </trkpt>
      <trkpt lat="56.311927009373903" lon="-2.701628040522337">
        <ele>41.469999999999999</ele>
        <time>2023-08-17T17:22:03Z</time>
      </trkpt>
      <trkpt lat="56.312016025185585" lon="-2.701716972514987">
        <ele>41.950000000000003</ele>
        <time>2023-08-17T17:22:04Z</time>
      </trkpt>
      <trkpt lat="56.31301699206233" lon="-2.70273101516068">
        <ele>42.920000000000002</ele>
        <time>2023-08-17T17:22:11Z</time>
      </trkpt>
      <trkpt lat="56.314172018319368" lon="-2.70391495898366">
        <ele>44.359999999999999</ele>
        <time>2023-08-17T17:22:20Z</time>
      </trkpt>
      <trkpt lat="56.31422096863389" lon="-2.704026019200683">
        <ele>43.880000000000003</ele>
        <time>2023-08-17T17:22:21Z</time>
      </trkpt>
      <trkpt lat="56.31426396779716" lon="-2.704131966456771">
        <ele>43.880000000000003</ele>
        <time>2023-08-17T17:22:22Z</time>
      </trkpt>
      <trkpt lat="56.31430403329432" lon="-2.704233974218369">
        <ele>43.399999999999999</ele>
        <time>2023-08-17T17:22:23Z</time>
      </trkpt>
      <trkpt lat="56.314305039122701" lon="-2.704317960888147">
        <ele>43.399999999999999</ele>
        <time>2023-08-17T17:22:24Z</time>
      </trkpt>
      <trkpt lat="56.314293975010514" lon="-2.704476965591312">
        <ele>43.399999999999999</ele>
        <time>2023-08-17T17:22:25Z</time>
      </trkpt>
      <trkpt lat="56.314270002767444" lon="-2.704631024971604">
        <ele>43.399999999999999</ele>
        <time>2023-08-17T17:22:26Z</time>
      </trkpt>
      <trkpt lat="56.31422096863389" lon="-2.704809978604317">
        <ele>43.399999999999999</ele>
        <time>2023-08-17T17:22:27Z</time>
      </trkpt>
      <trkpt lat="56.313722999766469" lon="-2.706557018682361">
        <ele>44.840000000000003</ele>
        <time>2023-08-17T17:22:34Z</time>
      </trkpt>
      <trkpt lat="56.312648020684719" lon="-2.710082028061152">
        <ele>51.090000000000003</ele>
        <time>2023-08-17T17:22:45Z</time>
      </trkpt>
      <trkpt lat="56.311951987445354" lon="-2.712501967325807">
        <ele>53.490000000000002</ele>
        <time>2023-08-17T17:22:53Z</time>
      </trkpt>
      <trkpt lat="56.311914017423987" lon="-2.712844032794237">
        <ele>53.490000000000002</ele>
        <time>2023-08-17T17:22:54Z</time>
      </trkpt>
      <trkpt lat="56.311788959428668" lon="-2.715043025091291">
        <ele>55.890000000000001</ele>
        <time>2023-08-17T17:23:00Z</time>
      </trkpt>
      <trkpt lat="56.311814021319151" lon="-2.715403027832508">
        <ele>56.369999999999997</ele>
        <time>2023-08-17T17:23:01Z</time>
      </trkpt>
      <trkpt lat="56.312019964680076" lon="-2.717550974339247">
        <ele>59.740000000000002</ele>
        <time>2023-08-17T17:23:07Z</time>
      </trkpt>
      <trkpt lat="56.312078973278403" lon="-2.717887004837394">
        <ele>60.219999999999999</ele>
        <time>2023-08-17T17:23:08Z</time>
      </trkpt>
      <trkpt lat="56.31217704154551" lon="-2.718191016465426">
        <ele>60.700000000000003</ele>
        <time>2023-08-17T17:23:09Z</time>
      </trkpt>
      <trkpt lat="56.312293969094753" lon="-2.71848002448678">
        <ele>61.18</ele>
        <time>2023-08-17T17:23:10Z</time>
      </trkpt>
      <trkpt lat="56.312418021261692" lon="-2.718783030286431">
        <ele>61.659999999999997</ele>
        <time>2023-08-17T17:23:11Z</time>
      </trkpt>
      <trkpt lat="56.31254400126636" lon="-2.719091987237334">
        <ele>62.140000000000001</ele>
        <time>2023-08-17T17:23:12Z</time>
      </trkpt>
      <trkpt lat="56.312799984589219" lon="-2.719722976908088">
        <ele>63.579999999999998</ele>
        <time>2023-08-17T17:23:14Z</time>
      </trkpt>
      <trkpt lat="56.312889000400901" lon="-2.720052972435951">
        <ele>64.069999999999993</ele>
        <time>2023-08-17T17:23:15Z</time>
      </trkpt>
      <trkpt lat="56.312954965978861" lon="-2.720409035682678">
        <ele>65.030000000000001</ele>
        <time>2023-08-17T17:23:16Z</time>
      </trkpt>
      <trkpt lat="56.313397027552128" lon="-2.722539966925979">
        <ele>67.909999999999997</ele>
        <time>2023-08-17T17:23:22Z</time>
      </trkpt>
      <trkpt lat="56.314204959198833" lon="-2.725399034097791">
        <ele>69.829999999999998</ele>
        <time>2023-08-17T17:23:30Z</time>
      </trkpt>
      <trkpt lat="56.315974965691566" lon="-2.732180999591947">
        <ele>74.640000000000001</ele>
        <time>2023-08-17T17:23:48Z</time>
      </trkpt>
      <trkpt lat="56.316852970048785" lon="-2.735978001728654">
        <ele>76.560000000000002</ele>
        <time>2023-08-17T17:23:58Z</time>
      </trkpt>
      <trkpt lat="56.317575993016362" lon="-2.738340022042394">
        <ele>75.599999999999994</ele>
        <time>2023-08-17T17:24:05Z</time>
      </trkpt>
      <trkpt lat="56.31825802847743" lon="-2.740713022649288">
        <ele>76.079999999999998</ele>
        <time>2023-08-17T17:24:13Z</time>
      </trkpt>
      <trkpt lat="56.319250026717782" lon="-2.743354998528957">
        <ele>74.640000000000001</ele>
        <time>2023-08-17T17:24:21Z</time>
      </trkpt>
      <trkpt lat="56.320204976946115" lon="-2.74613100104034">
        <ele>75.599999999999994</ele>
        <time>2023-08-17T17:24:29Z</time>
      </trkpt>
      <trkpt lat="56.321470979601145" lon="-2.749646035954356">
        <ele>75.120000000000005</ele>
        <time>2023-08-17T17:24:40Z</time>
      </trkpt>
      <trkpt lat="56.321798041462898" lon="-2.750528985634446">
        <ele>73.200000000000003</ele>
        <time>2023-08-17T17:24:43Z</time>
      </trkpt>
      <trkpt lat="56.321936007589102" lon="-2.750785974785686">
        <ele>72.719999999999999</ele>
        <time>2023-08-17T17:24:44Z</time>
      </trkpt>
      <trkpt lat="56.322076991200447" lon="-2.751045981422067">
        <ele>71.760000000000005</ele>
        <time>2023-08-17T17:24:45Z</time>
      </trkpt>
      <trkpt lat="56.323507027700543" lon="-2.753890966996551">
        <ele>63.100000000000001</ele>
        <time>2023-08-17T17:24:55Z</time>
      </trkpt>
      <trkpt lat="56.324175987392664" lon="-2.755635995417833">
        <ele>60.219999999999999</ele>
        <time>2023-08-17T17:25:01Z</time>
      </trkpt>
      <trkpt lat="56.324244970455766" lon="-2.755958028137684">
        <ele>60.219999999999999</ele>
        <time>2023-08-17T17:25:02Z</time>
      </trkpt>
      <trkpt lat="56.325104031711817" lon="-2.759568030014634">
        <ele>59.740000000000002</ele>
        <time>2023-08-17T17:25:13Z</time>
      </trkpt>
      <trkpt lat="56.326212035492063" lon="-2.762877037748694">
        <ele>61.659999999999997</ele>
        <time>2023-08-17T17:25:24Z</time>
      </trkpt>
      <trkpt lat="56.326281018555164" lon="-2.76319001801312">
        <ele>62.140000000000001</ele>
        <time>2023-08-17T17:25:25Z</time>
      </trkpt>
      <trkpt lat="56.32633700966835" lon="-2.763508027419448">
        <ele>62.140000000000001</ele>
        <time>2023-08-17T17:25:26Z</time>
      </trkpt>
      <trkpt lat="56.326754009351134" lon="-2.767099002376199">
        <ele>64.069999999999993</ele>
        <time>2023-08-17T17:25:37Z</time>
      </trkpt>
      <trkpt lat="56.327175032347441" lon="-2.770816963165999">
        <ele>63.100000000000001</ele>
        <time>2023-08-17T17:25:49Z</time>
      </trkpt>
      <trkpt lat="56.327213002368808" lon="-2.771107982844114">
        <ele>62.619999999999997</ele>
        <time>2023-08-17T17:25:50Z</time>
      </trkpt>
      <trkpt lat="56.32728299126029" lon="-2.771340999752283">
        <ele>62.140000000000001</ele>
        <time>2023-08-17T17:25:51Z</time>
      </trkpt>
      <trkpt lat="56.327375024557114" lon="-2.771549038589001">
        <ele>61.659999999999997</ele>
        <time>2023-08-17T17:25:52Z</time>
      </trkpt>
      <trkpt lat="56.327482983469963" lon="-2.771748024970293">
        <ele>60.700000000000003</ele>
        <time>2023-08-17T17:25:54Z</time>
      </trkpt>
      <trkpt lat="56.328818975016475" lon="-2.774155978113413">
        <ele>53.969999999999999</ele>
        <time>2023-08-17T17:26:04Z</time>
      </trkpt>
      <trkpt lat="56.328907990828156" lon="-2.774371979758143">
        <ele>53.490000000000002</ele>
        <time>2023-08-17T17:26:05Z</time>
      </trkpt>
      <trkpt lat="56.328978985548019" lon="-2.774616982787848">
        <ele>52.530000000000001</ele>
        <time>2023-08-17T17:26:06Z</time>
      </trkpt>
      <trkpt lat="56.329621039330959" lon="-2.777019990608096">
        <ele>44.840000000000003</ele>
        <time>2023-08-17T17:26:14Z</time>
      </trkpt>
      <trkpt lat="56.330621000379324" lon="-2.780666034668684">
        <ele>32.82</ele>
        <time>2023-08-17T17:26:25Z</time>
      </trkpt>
      <trkpt lat="56.330731976777315" lon="-2.780942972749472">
        <ele>31.379999999999999</ele>
        <time>2023-08-17T17:26:26Z</time>
      </trkpt>
      <trkpt lat="56.33086902089417" lon="-2.781162997707725">
        <ele>30.420000000000002</ele>
        <time>2023-08-17T17:26:27Z</time>
      </trkpt>
      <trkpt lat="56.331002963706851" lon="-2.781365001574159">
        <ele>29.460000000000001</ele>
        <time>2023-08-17T17:26:28Z</time>
      </trkpt>
      <trkpt lat="56.33117001503706" lon="-2.781527023762465">
        <ele>28.5</ele>
        <time>2023-08-17T17:26:29Z</time>
      </trkpt>
      <trkpt lat="56.331340000033379" lon="-2.781692985445261">
        <ele>27.530000000000001</ele>
        <time>2023-08-17T17:26:30Z</time>
      </trkpt>
      <trkpt lat="56.332657970488071" lon="-2.782756984233856">
        <ele>20.32</ele>
        <time>2023-08-17T17:26:38Z</time>
      </trkpt>
      <trkpt lat="56.333179995417595" lon="-2.783125033602119">
        <ele>16.48</ele>
        <time>2023-08-17T17:26:44Z</time>
      </trkpt>
      <trkpt lat="56.333349980413914" lon="-2.783250007778406">
        <ele>14.08</ele>
        <time>2023-08-17T17:26:48Z</time>
      </trkpt>
      <trkpt lat="56.333394991233945" lon="-2.783284038305283">
        <ele>13.6</ele>
        <time>2023-08-17T17:26:49Z</time>
      </trkpt>
      <trkpt lat="56.333440002053976" lon="-2.783316979184747">
        <ele>13.119999999999999</ele>
        <time>2023-08-17T17:26:50Z</time>
      </trkpt>
      <trkpt lat="56.333668995648623" lon="-2.783458968624473">
        <ele>11.67</ele>
        <time>2023-08-17T17:26:54Z</time>
      </trkpt>
      <trkpt lat="56.33452202193439" lon="-2.783711012452841">
        <ele>10.710000000000001</ele>
        <time>2023-08-17T17:27:04Z</time>
      </trkpt>
      <trkpt lat="56.335742007941008" lon="-2.784023992717266">
        <ele>10.23</ele>
        <time>2023-08-17T17:27:17Z</time>
      </trkpt>
      <trkpt lat="56.33617602288723" lon="-2.784350970759988">
        <ele>9.75</ele>
        <time>2023-08-17T17:27:22Z</time>
      </trkpt>
      <trkpt lat="56.336253974586725" lon="-2.784435963258147">
        <ele>10.23</ele>
        <time>2023-08-17T17:27:23Z</time>
      </trkpt>
      <trkpt lat="56.336524039506912" lon="-2.784846005961299">
        <ele>9.75</ele>
        <time>2023-08-17T17:27:27Z</time>
      </trkpt>
      <trkpt lat="56.336581958457828" lon="-2.784980032593012">
        <ele>9.75</ele>
        <time>2023-08-17T17:27:28Z</time>
      </trkpt>
      <trkpt lat="56.336641972884536" lon="-2.785120010375977">
        <ele>9.75</ele>
        <time>2023-08-17T17:27:29Z</time>
      </trkpt>
      <trkpt lat="56.336760995909572" lon="-2.785411030054092">
        <ele>9.75</ele>
        <time>2023-08-17T17:27:31Z</time>
      </trkpt>
      <trkpt lat="56.336861997842789" lon="-2.785928025841713">
        <ele>10.23</ele>
        <time>2023-08-17T17:27:34Z</time>
      </trkpt>
      <trkpt lat="56.337056960910559" lon="-2.787668025121093">
        <ele>13.119999999999999</ele>
        <time>2023-08-17T17:27:44Z</time>
      </trkpt>
      <trkpt lat="56.337456023320556" lon="-2.789310039952397">
        <ele>14.56</ele>
        <time>2023-08-17T17:27:54Z</time>
      </trkpt>
      <trkpt lat="56.337863970547915" lon="-2.79056497849524">
        <ele>17.920000000000002</ele>
        <time>2023-08-17T17:28:03Z</time>
      </trkpt>
      <trkpt lat="56.337906969711185" lon="-2.790675032883883">
        <ele>18.399999999999999</ele>
        <time>2023-08-17T17:28:04Z</time>
      </trkpt>
      <trkpt lat="56.338042002171278" lon="-2.790849963203073">
        <ele>18.399999999999999</ele>
        <time>2023-08-17T17:28:06Z</time>
      </trkpt>
      <trkpt lat="56.338118026033044" lon="-2.790925987064838">
        <ele>18.399999999999999</ele>
        <time>2023-08-17T17:28:07Z</time>
      </trkpt>
      <trkpt lat="56.338207041844726" lon="-2.79094903729856">
        <ele>18.399999999999999</ele>
        <time>2023-08-17T17:28:08Z</time>
      </trkpt>
      <trkpt lat="56.338293962180614" lon="-2.790964040905237">
        <ele>18.399999999999999</ele>
        <time>2023-08-17T17:28:09Z</time>
      </trkpt>
      <trkpt lat="56.338379960507154" lon="-2.790978960692883">
        <ele>18.399999999999999</ele>
        <time>2023-08-17T17:28:10Z</time>
      </trkpt>
      <trkpt lat="56.338465036824346" lon="-2.79099396429956">
        <ele>18.399999999999999</ele>
        <time>2023-08-17T17:28:11Z</time>
      </trkpt>
      <trkpt lat="56.338720014318824" lon="-2.79103796929121">
        <ele>18.879999999999999</ele>
        <time>2023-08-17T17:28:14Z</time>
      </trkpt>
      <trkpt lat="56.338801989331841" lon="-2.791051967069507">
        <ele>18.879999999999999</ele>
        <time>2023-08-17T17:28:15Z</time>
      </trkpt>
      <trkpt lat="56.339607993140817" lon="-2.791193034499884">
        <ele>20.809999999999999</ele>
        <time>2023-08-17T17:28:27Z</time>
      </trkpt>
      <trkpt lat="56.339693991467357" lon="-2.791242990642786">
        <ele>20.809999999999999</ele>
        <time>2023-08-17T17:28:30Z</time>
      </trkpt>
      <trkpt lat="56.339715030044317" lon="-2.791213989257813">
        <ele>20.809999999999999</ele>
        <time>2023-08-17T17:28:31Z</time>
      </trkpt>
      <trkpt lat="56.339711006730795" lon="-2.789990985766053">
        <ele>19.84</ele>
        <time>2023-08-17T17:28:40Z</time>
      </trkpt>
      <trkpt lat="56.339769009500742" lon="-2.789292018860579">
        <ele>19.359999999999999</ele>
        <time>2023-08-17T17:28:46Z</time>
      </trkpt>
      <trkpt lat="56.339792981743813" lon="-2.789221024140716">
        <ele>19.84</ele>
        <time>2023-08-17T17:28:47Z</time>
      </trkpt>
      <trkpt lat="56.339855007827282" lon="-2.78916603885591">
        <ele>19.84</ele>
        <time>2023-08-17T17:28:48Z</time>
      </trkpt>
      <trkpt lat="56.340045025572181" lon="-2.789055984467268">
        <ele>18.879999999999999</ele>
        <time>2023-08-17T17:28:53Z</time>
      </trkpt>
      <trkpt lat="56.340267984196544" lon="-2.788927992805839">
        <ele>17.440000000000001</ele>
        <time>2023-08-17T17:28:58Z</time>
      </trkpt>
      <trkpt lat="56.340379966422915" lon="-2.788999993354082">
        <ele>17.920000000000002</ele>
        <time>2023-08-17T17:29:00Z</time>
      </trkpt>
      <trkpt lat="56.340391030535102" lon="-2.789067970588803">
        <ele>17.920000000000002</ele>
        <time>2023-08-17T17:29:01Z</time>
      </trkpt>
      <trkpt lat="56.34040703997016" lon="-2.789164027199149">
        <ele>17.920000000000002</ele>
        <time>2023-08-17T17:29:02Z</time>
      </trkpt>
      <trkpt lat="56.340588005259633" lon="-2.790253004059196">
        <ele>17.440000000000001</ele>
        <time>2023-08-17T17:29:09Z</time>
      </trkpt>
      <trkpt lat="56.340613989159465" lon="-2.790408991277218">
        <ele>16.960000000000001</ele>
        <time>2023-08-17T17:29:11Z</time>
      </trkpt>
      <trkpt lat="56.34094599634409" lon="-2.792718959972262">
        <ele>16.960000000000001</ele>
        <time>2023-08-17T17:29:25Z</time>
      </trkpt>
      <trkpt lat="56.341045992448926" lon="-2.793461009860039">
        <ele>17.440000000000001</ele>
        <time>2023-08-17T17:29:30Z</time>
      </trkpt>
      <trkpt lat="56.341062001883984" lon="-2.793581960722804">
        <ele>17.920000000000002</ele>
        <time>2023-08-17T17:29:32Z</time>
      </trkpt>
      <trkpt lat="56.341094020754099" lon="-2.793819000944495">
        <ele>17.920000000000002</ele>
        <time>2023-08-17T17:29:34Z</time>
      </trkpt>
      <trkpt lat="56.341110030189157" lon="-2.793939029797912">
        <ele>18.399999999999999</ele>
        <time>2023-08-17T17:29:35Z</time>
      </trkpt>
      <trkpt lat="56.341157974675298" lon="-2.794343959540129">
        <ele>18.879999999999999</ele>
        <time>2023-08-17T17:29:39Z</time>
      </trkpt>
      <trkpt lat="56.341180019080639" lon="-2.794530959799886">
        <ele>18.879999999999999</ele>
        <time>2023-08-17T17:29:40Z</time>
      </trkpt>
      <trkpt lat="56.341239027678967" lon="-2.795033035799861">
        <ele>18.399999999999999</ele>
        <time>2023-08-17T17:29:46Z</time>
      </trkpt>
      <trkpt lat="56.34126802906394" lon="-2.795261023566127">
        <ele>18.399999999999999</ele>
        <time>2023-08-17T17:29:48Z</time>
      </trkpt>
      <trkpt lat="56.34135402739048" lon="-2.795931994915009">
        <ele>18.879999999999999</ele>
        <time>2023-08-17T17:29:53Z</time>
      </trkpt>
      <trkpt lat="56.341370958834887" lon="-2.796068033203483">
        <ele>18.879999999999999</ele>
        <time>2023-08-17T17:29:55Z</time>
      </trkpt>
      <trkpt lat="56.341616967692971" lon="-2.797958990558982">
        <ele>17.440000000000001</ele>
        <time>2023-08-17T17:30:07Z</time>
      </trkpt>
      <trkpt lat="56.341770021244884" lon="-2.799084009602666">
        <ele>16.48</ele>
        <time>2023-08-17T17:30:15Z</time>
      </trkpt>
      <trkpt lat="56.341995997354388" lon="-2.801025006920099">
        <ele>15.52</ele>
        <time>2023-08-17T17:30:27Z</time>
      </trkpt>
      <trkpt lat="56.342083001509309" lon="-2.801764961332083">
        <ele>14.08</ele>
        <time>2023-08-17T17:30:32Z</time>
      </trkpt>
      <trkpt lat="56.342143015936017" lon="-2.802279023453593">
        <ele>13.119999999999999</ele>
        <time>2023-08-17T17:30:35Z</time>
      </trkpt>
      <trkpt lat="56.342161037027836" lon="-2.802589992061257">
        <ele>12.630000000000001</ele>
        <time>2023-08-17T17:30:36Z</time>
      </trkpt>
      <trkpt lat="56.342161037027836" lon="-2.802704991772771">
        <ele>12.15</ele>
        <time>2023-08-17T17:30:37Z</time>
      </trkpt>
      <trkpt lat="56.342161037027836" lon="-2.802776992321014">
        <ele>11.67</ele>
        <time>2023-08-17T17:30:38Z</time>
      </trkpt>
      <trkpt lat="56.342161037027836" lon="-2.802839018404484">
        <ele>11.19</ele>
        <time>2023-08-17T17:30:39Z</time>
      </trkpt>
      <trkpt lat="56.342161037027836" lon="-2.802904983982444">
        <ele>10.710000000000001</ele>
        <time>2023-08-17T17:30:40Z</time>
      </trkpt>
      <trkpt lat="56.342161037027836" lon="-2.802955023944378">
        <ele>10.23</ele>
        <time>2023-08-17T17:30:41Z</time>
      </trkpt>
      <trkpt lat="56.342161037027836" lon="-2.802995005622506">
        <ele>10.23</ele>
        <time>2023-08-17T17:30:44Z</time>
      </trkpt>
      <trkpt lat="56.342161037027836" lon="-2.80304797925055">
        <ele>9.75</ele>
        <time>2023-08-17T17:30:45Z</time>
      </trkpt>
      <trkpt lat="56.342161037027836" lon="-2.803141018375754">
        <ele>9.27</ele>
        <time>2023-08-17T17:30:46Z</time>
      </trkpt>
      <trkpt lat="56.342161037027836" lon="-2.803187035024166">
        <ele>9.27</ele>
        <time>2023-08-17T17:30:47Z</time>
      </trkpt>
      <trkpt lat="56.342146033421159" lon="-2.803409993648529">
        <ele>8.310000000000001</ele>
        <time>2023-08-17T17:30:49Z</time>
      </trkpt>
      <trkpt lat="56.342165982350707" lon="-2.803572015836835">
        <ele>8.310000000000001</ele>
        <time>2023-08-17T17:30:50Z</time>
      </trkpt>
      <trkpt lat="56.342335967347026" lon="-2.804578011855483">
        <ele>6.39</ele>
        <time>2023-08-17T17:30:56Z</time>
      </trkpt>
      <trkpt lat="56.342364968731999" lon="-2.804726958274841">
        <ele>6.39</ele>
        <time>2023-08-17T17:30:57Z</time>
      </trkpt>
      <trkpt lat="56.342420959845185" lon="-2.805030969902873">
        <ele>5.91</ele>
        <time>2023-08-17T17:30:59Z</time>
      </trkpt>
      <trkpt lat="56.342464964836836" lon="-2.805544026196003">
        <ele>5.91</ele>
        <time>2023-08-17T17:31:02Z</time>
      </trkpt>
      <trkpt lat="56.342475023120642" lon="-2.805713005363941">
        <ele>5.91</ele>
        <time>2023-08-17T17:31:03Z</time>
      </trkpt>
      <trkpt lat="56.342195989564061" lon="-2.807800015434623">
        <ele>4.46</ele>
        <time>2023-08-17T17:31:15Z</time>
      </trkpt>
      <trkpt lat="56.342165982350707" lon="-2.807963965460658">
        <ele>4.46</ele>
        <time>2023-08-17T17:31:16Z</time>
      </trkpt>
      <trkpt lat="56.342011000961065" lon="-2.808638038113713">
        <ele>4.46</ele>
        <time>2023-08-17T17:31:20Z</time>
      </trkpt>
      <trkpt lat="56.341905975714326" lon="-2.808766029775143">
        <ele>4.94</ele>
        <time>2023-08-17T17:31:22Z</time>
      </trkpt>
      <trkpt lat="56.341839004307985" lon="-2.810497982427478">
        <ele>4.94</ele>
        <time>2023-08-17T17:31:30Z</time>
      </trkpt>
      <trkpt lat="56.341960960999131" lon="-2.812807029113174">
        <ele>5.42</ele>
        <time>2023-08-17T17:31:39Z</time>
      </trkpt>
      <trkpt lat="56.342562027275562" lon="-2.815064024180174">
        <ele>6.87</ele>
        <time>2023-08-17T17:31:48Z</time>
      </trkpt>
      <trkpt lat="56.343415975570679" lon="-2.816600007936359">
        <ele>8.789999999999999</ele>
        <time>2023-08-17T17:31:56Z</time>
      </trkpt>
      <trkpt lat="56.343771032989025" lon="-2.817092025652528">
        <ele>9.75</ele>
        <time>2023-08-17T17:32:01Z</time>
      </trkpt>
      <trkpt lat="56.343771032989025" lon="-2.817208031192422">
        <ele>10.23</ele>
        <time>2023-08-17T17:32:02Z</time>
      </trkpt>
      <trkpt lat="56.343806991353631" lon="-2.817474994808435">
        <ele>10.23</ele>
        <time>2023-08-17T17:32:03Z</time>
      </trkpt>
      <trkpt lat="56.343834986910224" lon="-2.817521011456847">
        <ele>9.75</ele>
        <time>2023-08-17T17:32:04Z</time>
      </trkpt>
      <trkpt lat="56.343994997441769" lon="-2.817521011456847">
        <ele>9.75</ele>
        <time>2023-08-17T17:32:05Z</time>
      </trkpt>
      <trkpt lat="56.344028022140265" lon="-2.817521011456847">
        <ele>9.75</ele>
        <time>2023-08-17T17:32:06Z</time>
      </trkpt>
      <trkpt lat="56.344180991873145" lon="-2.817497961223126">
        <ele>9.75</ele>
        <time>2023-08-17T17:32:07Z</time>
      </trkpt>
      <trkpt lat="56.344265984371305" lon="-2.817561998963356">
        <ele>9.75</ele>
        <time>2023-08-17T17:32:08Z</time>
      </trkpt>
      <trkpt lat="56.345190005376935" lon="-2.818301031365991">
        <ele>9.75</ele>
        <time>2023-08-17T17:32:17Z</time>
      </trkpt>
      <trkpt lat="56.346457013860345" lon="-2.819706005975604">
        <ele>9.27</ele>
        <time>2023-08-17T17:32:26Z</time>
      </trkpt>
      <trkpt lat="56.347455969080329" lon="-2.821800978854299">
        <ele>9.27</ele>
        <time>2023-08-17T17:32:34Z</time>
      </trkpt>
      <trkpt lat="56.348005989566445" lon="-2.824057973921299">
        <ele>9.27</ele>
        <time>2023-08-17T17:32:42Z</time>
      </trkpt>
      <trkpt lat="56.348647959530354" lon="-2.827147962525487">
        <ele>10.23</ele>
        <time>2023-08-17T17:32:53Z</time>
      </trkpt>
      <trkpt lat="56.349246008321643" lon="-2.830569036304951">
        <ele>9.75</ele>
        <time>2023-08-17T17:33:03Z</time>
      </trkpt>
      <trkpt lat="56.349890995770693" lon="-2.83484498038888">
        <ele>9.27</ele>
        <time>2023-08-17T17:33:15Z</time>
      </trkpt>
      <trkpt lat="56.349908011034131" lon="-2.835200037807226">
        <ele>9.27</ele>
        <time>2023-08-17T17:33:16Z</time>
      </trkpt>
      <trkpt lat="56.349908011034131" lon="-2.835555011406541">
        <ele>9.27</ele>
        <time>2023-08-17T17:33:17Z</time>
      </trkpt>
      <trkpt lat="56.349908011034131" lon="-2.836626973003149">
        <ele>8.789999999999999</ele>
        <time>2023-08-17T17:33:20Z</time>
      </trkpt>
      <trkpt lat="56.349933994933963" lon="-2.836970966309309">
        <ele>8.789999999999999</ele>
        <time>2023-08-17T17:33:21Z</time>
      </trkpt>
      <trkpt lat="56.349990991875529" lon="-2.83731403760612">
        <ele>8.789999999999999</ele>
        <time>2023-08-17T17:33:22Z</time>
      </trkpt>
      <trkpt lat="56.350392987951636" lon="-2.839321000501514">
        <ele>9.27</ele>
        <time>2023-08-17T17:33:28Z</time>
      </trkpt>
      <trkpt lat="56.350488038733602" lon="-2.839624006301165">
        <ele>9.27</ele>
        <time>2023-08-17T17:33:29Z</time>
      </trkpt>
      <trkpt lat="56.350605972111225" lon="-2.839903961867094">
        <ele>9.27</ele>
        <time>2023-08-17T17:33:30Z</time>
      </trkpt>
      <trkpt lat="56.351305022835732" lon="-2.841625018045306">
        <ele>8.310000000000001</ele>
        <time>2023-08-17T17:33:36Z</time>
      </trkpt>
      <trkpt lat="56.351381968706846" lon="-2.841949984431267">
        <ele>8.789999999999999</ele>
        <time>2023-08-17T17:33:37Z</time>
      </trkpt>
      <trkpt lat="56.352385031059384" lon="-2.846634965389967">
        <ele>7.83</ele>
        <time>2023-08-17T17:33:51Z</time>
      </trkpt>
      <trkpt lat="56.353797968477011" lon="-2.853295980021358">
        <ele>7.83</ele>
        <time>2023-08-17T17:34:11Z</time>
      </trkpt>
      <trkpt lat="56.354188984259963" lon="-2.854535998776555">
        <ele>9.27</ele>
        <time>2023-08-17T17:34:15Z</time>
      </trkpt>
      <trkpt lat="56.35431001894176" lon="-2.854816960170865">
        <ele>9.27</ele>
        <time>2023-08-17T17:34:16Z</time>
      </trkpt>
      <trkpt lat="56.354453014209867" lon="-2.855052994564176">
        <ele>9.75</ele>
        <time>2023-08-17T17:34:17Z</time>
      </trkpt>
      <trkpt lat="56.354601960629225" lon="-2.855286011472344">
        <ele>9.75</ele>
        <time>2023-08-17T17:34:18Z</time>
      </trkpt>
      <trkpt lat="56.354750990867615" lon="-2.855519028380513">
        <ele>10.23</ele>
        <time>2023-08-17T17:34:19Z</time>
      </trkpt>
      <trkpt lat="56.355786994099617" lon="-2.857405040413141">
        <ele>12.15</ele>
        <time>2023-08-17T17:34:27Z</time>
      </trkpt>
      <trkpt lat="56.356671033427119" lon="-2.860291013494134">
        <ele>13.119999999999999</ele>
        <time>2023-08-17T17:34:36Z</time>
      </trkpt>
      <trkpt lat="56.358153959736228" lon="-2.865456026047468">
        <ele>15.039999999999999</ele>
        <time>2023-08-17T17:34:52Z</time>
      </trkpt>
      <trkpt lat="56.358732981607318" lon="-2.867633979767561">
        <ele>14.08</ele>
        <time>2023-08-17T17:34:59Z</time>
      </trkpt>
      <trkpt lat="56.358785033226013" lon="-2.86797403357923">
        <ele>14.08</ele>
        <time>2023-08-17T17:35:00Z</time>
      </trkpt>
      <trkpt lat="56.358902966603637" lon="-2.87081097252667">
        <ele>14.08</ele>
        <time>2023-08-17T17:35:08Z</time>
      </trkpt>
      <trkpt lat="56.358821997419" lon="-2.874563969671726">
        <ele>14.08</ele>
        <time>2023-08-17T17:35:19Z</time>
      </trkpt>
      <trkpt lat="56.358513040468097" lon="-2.877570977434516">
        <ele>15.039999999999999</ele>
        <time>2023-08-17T17:35:29Z</time>
      </trkpt>
      <trkpt lat="56.358211962506175" lon="-2.881464958190918">
        <ele>17.440000000000001</ele>
        <time>2023-08-17T17:35:42Z</time>
      </trkpt>
      <trkpt lat="56.358429975807667" lon="-2.883983971551061">
        <ele>18.399999999999999</ele>
        <time>2023-08-17T17:35:51Z</time>
      </trkpt>
      <trkpt lat="56.358685959130526" lon="-2.886907998472452">
        <ele>14.56</ele>
        <time>2023-08-17T17:36:02Z</time>
      </trkpt>
      <trkpt lat="56.358901960775256" lon="-2.889250991865993">
        <ele>12.15</ele>
        <time>2023-08-17T17:36:12Z</time>
      </trkpt>
      <trkpt lat="56.35899399407208" lon="-2.889745021238923">
        <ele>11.67</ele>
        <time>2023-08-17T17:36:15Z</time>
      </trkpt>
      <trkpt lat="56.359027018770576" lon="-2.889876030385494">
        <ele>11.67</ele>
        <time>2023-08-17T17:36:16Z</time>
      </trkpt>
      <trkpt lat="56.359113017097116" lon="-2.890154980123043">
        <ele>12.15</ele>
        <time>2023-08-17T17:36:19Z</time>
      </trkpt>
      <trkpt lat="56.359162973240018" lon="-2.890283977612853">
        <ele>12.630000000000001</ele>
        <time>2023-08-17T17:36:20Z</time>
      </trkpt>
      <trkpt lat="56.359199015423656" lon="-2.890283977612853">
        <ele>13.119999999999999</ele>
        <time>2023-08-17T17:36:21Z</time>
      </trkpt>
      <trkpt lat="56.359266992658377" lon="-2.890223041176796">
        <ele>13.119999999999999</ele>
        <time>2023-08-17T17:36:22Z</time>
      </trkpt>
      <trkpt lat="56.359332036226988" lon="-2.890197979286313">
        <ele>13.6</ele>
        <time>2023-08-17T17:36:24Z</time>
      </trkpt>
      <trkpt lat="56.359492968767881" lon="-2.890135031193495">
        <ele>13.6</ele>
        <time>2023-08-17T17:36:25Z</time>
      </trkpt>
      <trkpt lat="56.359586007893085" lon="-2.890098989009857">
        <ele>13.6</ele>
        <time>2023-08-17T17:36:26Z</time>
      </trkpt>
      <trkpt lat="56.359700001776218" lon="-2.890122039243579">
        <ele>13.6</ele>
        <time>2023-08-17T17:36:27Z</time>
      </trkpt>
      <trkpt lat="56.359804021194577" lon="-2.890156991779804">
        <ele>13.6</ele>
        <time>2023-08-17T17:36:28Z</time>
      </trkpt>
      <trkpt lat="56.359907034784555" lon="-2.890197979286313">
        <ele>13.6</ele>
        <time>2023-08-17T17:36:29Z</time>
      </trkpt>
      <trkpt lat="56.360007030889392" lon="-2.890248019248247">
        <ele>13.6</ele>
        <time>2023-08-17T17:36:30Z</time>
      </trkpt>
      <trkpt lat="56.36010903865099" lon="-2.89029898121953">
        <ele>13.6</ele>
        <time>2023-08-17T17:36:31Z</time>
      </trkpt>
      <trkpt lat="56.360207023099065" lon="-2.89038397371769">
        <ele>13.6</ele>
        <time>2023-08-17T17:36:33Z</time>
      </trkpt>
      <trkpt lat="56.36105895973742" lon="-2.891088975593448">
        <ele>15.039999999999999</ele>
        <time>2023-08-17T17:36:41Z</time>
      </trkpt>
      <trkpt lat="56.361165996640921" lon="-2.891160976141691">
        <ele>15.039999999999999</ele>
        <time>2023-08-17T17:36:42Z</time>
      </trkpt>
      <trkpt lat="56.362434010952711" lon="-2.891874024644494">
        <ele>14.56</ele>
        <time>2023-08-17T17:36:54Z</time>
      </trkpt>
      <trkpt lat="56.363834962248802" lon="-2.892451034858823">
        <ele>12.630000000000001</ele>
        <time>2023-08-17T17:37:07Z</time>
      </trkpt>
      <trkpt lat="56.364091029390693" lon="-2.892452040687203">
        <ele>11.67</ele>
        <time>2023-08-17T17:37:09Z</time>
      </trkpt>
      <trkpt lat="56.36449696496129" lon="-2.892351960763335">
        <ele>12.15</ele>
        <time>2023-08-17T17:37:12Z</time>
      </trkpt>
      <trkpt lat="56.365681998431683" lon="-2.891996987164021">
        <ele>14.08</ele>
        <time>2023-08-17T17:37:22Z</time>
      </trkpt>
      <trkpt lat="56.366742979735136" lon="-2.891834964975715">
        <ele>14.56</ele>
        <time>2023-08-17T17:37:31Z</time>
      </trkpt>
      <trkpt lat="56.367978975176811" lon="-2.891175979748368">
        <ele>15.52</ele>
        <time>2023-08-17T17:37:42Z</time>
      </trkpt>
      <trkpt lat="56.369571033865213" lon="-2.890219017863274">
        <ele>16.48</ele>
        <time>2023-08-17T17:37:53Z</time>
      </trkpt>
      <trkpt lat="56.371561987325549" lon="-2.889118976891041">
        <ele>16.960000000000001</ele>
        <time>2023-08-17T17:38:06Z</time>
      </trkpt>
      <trkpt lat="56.372924968600273" lon="-2.889254009351134">
        <ele>17.440000000000001</ele>
        <time>2023-08-17T17:38:14Z</time>
      </trkpt>
      <trkpt lat="56.374175967648625" lon="-2.89016998372972">
        <ele>17.920000000000002</ele>
        <time>2023-08-17T17:38:22Z</time>
      </trkpt>
      <trkpt lat="56.375586977228522" lon="-2.8912019636482">
        <ele>17.440000000000001</ele>
        <time>2023-08-17T17:38:32Z</time>
      </trkpt>
      <trkpt lat="56.37687100097537" lon="-2.891232976689935">
        <ele>15.039999999999999</ele>
        <time>2023-08-17T17:38:40Z</time>
      </trkpt>
      <trkpt lat="56.377973975613713" lon="-2.890635011717677">
        <ele>14.56</ele>
        <time>2023-08-17T17:38:47Z</time>
      </trkpt>
      <trkpt lat="56.379199996590614" lon="-2.889625998213887">
        <ele>15.039999999999999</ele>
        <time>2023-08-17T17:38:57Z</time>
      </trkpt>
      <trkpt lat="56.38030800037086" lon="-2.888700971379876">
        <ele>12.630000000000001</ele>
        <time>2023-08-17T17:39:08Z</time>
      </trkpt>
      <trkpt lat="56.38140301220119" lon="-2.887821961194277">
        <ele>12.630000000000001</ele>
        <time>2023-08-17T17:39:20Z</time>
      </trkpt>
      <trkpt lat="56.382362991571426" lon="-2.887087035924196">
        <ele>15.039999999999999</ele>
        <time>2023-08-17T17:39:30Z</time>
      </trkpt>
      <trkpt lat="56.382415965199471" lon="-2.887107990682125">
        <ele>15.039999999999999</ele>
        <time>2023-08-17T17:39:31Z</time>
      </trkpt>
      <trkpt lat="56.382514033466578" lon="-2.887077983468771">
        <ele>15.52</ele>
        <time>2023-08-17T17:39:33Z</time>
      </trkpt>
      <trkpt lat="56.382571030408144" lon="-2.887150989845395">
        <ele>15.52</ele>
        <time>2023-08-17T17:39:34Z</time>
      </trkpt>
      <trkpt lat="56.38303698040545" lon="-2.888269973918796">
        <ele>17.440000000000001</ele>
        <time>2023-08-17T17:39:41Z</time>
      </trkpt>
      <trkpt lat="56.38312297873199" lon="-2.888421015813947">
        <ele>17.440000000000001</ele>
        <time>2023-08-17T17:39:42Z</time>
      </trkpt>
      <trkpt lat="56.383211994543672" lon="-2.888577003031969">
        <ele>17.440000000000001</ele>
        <time>2023-08-17T17:39:43Z</time>
      </trkpt>
      <trkpt lat="56.384017998352647" lon="-2.890078034251928">
        <ele>21.77</ele>
        <time>2023-08-17T17:39:53Z</time>
      </trkpt>
      <trkpt lat="56.384700033813715" lon="-2.89156598970294">
        <ele>25.129999999999999</ele>
        <time>2023-08-17T17:40:01Z</time>
      </trkpt>
      <trkpt lat="56.38565800152719" lon="-2.893725000321865">
        <ele>27.050000000000001</ele>
        <time>2023-08-17T17:40:09Z</time>
      </trkpt>
      <trkpt lat="56.387381991371512" lon="-2.897024033591151">
        <ele>27.530000000000001</ele>
        <time>2023-08-17T17:40:21Z</time>
      </trkpt>
      <trkpt lat="56.3891820050776" lon="-2.899410026147962">
        <ele>25.609999999999999</ele>
        <time>2023-08-17T17:40:31Z</time>
      </trkpt>
      <trkpt lat="56.390480026602745" lon="-2.901052040979266">
        <ele>23.690000000000001</ele>
        <time>2023-08-17T17:40:39Z</time>
      </trkpt>
      <trkpt lat="56.391949960961938" lon="-2.902918020263314">
        <ele>23.690000000000001</ele>
        <time>2023-08-17T17:40:49Z</time>
      </trkpt>
      <trkpt lat="56.392796030268073" lon="-2.9039859585464">
        <ele>20.809999999999999</ele>
        <time>2023-08-17T17:40:58Z</time>
      </trkpt>
      <trkpt lat="56.394111989066005" lon="-2.90563995949924">
        <ele>21.77</ele>
        <time>2023-08-17T17:41:13Z</time>
      </trkpt>
      <trkpt lat="56.394490012899041" lon="-2.906093001365662">
        <ele>22.73</ele>
        <time>2023-08-17T17:41:17Z</time>
      </trkpt>
      <trkpt lat="56.394577017053962" lon="-2.90619702078402">
        <ele>22.73</ele>
        <time>2023-08-17T17:41:18Z</time>
      </trkpt>
      <trkpt lat="56.395579995587468" lon="-2.907386999577284">
        <ele>20.809999999999999</ele>
        <time>2023-08-17T17:41:28Z</time>
      </trkpt>
      <trkpt lat="56.396947000175714" lon="-2.909000013023615">
        <ele>21.289999999999999</ele>
        <time>2023-08-17T17:41:37Z</time>
      </trkpt>
      <trkpt lat="56.398735027760267" lon="-2.911061039194465">
        <ele>22.25</ele>
        <time>2023-08-17T17:41:48Z</time>
      </trkpt>
      <trkpt lat="56.398910963907838" lon="-2.911220965906978">
        <ele>22.73</ele>
        <time>2023-08-17T17:41:49Z</time>
      </trkpt>
      <trkpt lat="56.399096036329865" lon="-2.911301013082266">
        <ele>23.210000000000001</ele>
        <time>2023-08-17T17:41:50Z</time>
      </trkpt>
      <trkpt lat="56.399288987740874" lon="-2.911357004195452">
        <ele>23.690000000000001</ele>
        <time>2023-08-17T17:41:51Z</time>
      </trkpt>
      <trkpt lat="56.402404038235545" lon="-2.912016995251179">
        <ele>28.98</ele>
        <time>2023-08-17T17:42:07Z</time>
      </trkpt>
      <trkpt lat="56.403441969305277" lon="-2.912267027422786">
        <ele>32.82</ele>
        <time>2023-08-17T17:42:13Z</time>
      </trkpt>
      <trkpt lat="56.403568033128977" lon="-2.912380015477538">
        <ele>33.299999999999997</ele>
        <time>2023-08-17T17:42:14Z</time>
      </trkpt>
      <trkpt lat="56.403686972334981" lon="-2.912530973553658">
        <ele>34.259999999999998</ele>
        <time>2023-08-17T17:42:15Z</time>
      </trkpt>
      <trkpt lat="56.403809012845159" lon="-2.912686038762331">
        <ele>35.229999999999997</ele>
        <time>2023-08-17T17:42:16Z</time>
      </trkpt>
      <trkpt lat="56.403904985636473" lon="-2.912886030972004">
        <ele>35.710000000000001</ele>
        <time>2023-08-17T17:42:17Z</time>
      </trkpt>
      <trkpt lat="56.404007999226451" lon="-2.913102032616735">
        <ele>36.189999999999998</ele>
        <time>2023-08-17T17:42:18Z</time>
      </trkpt>
      <trkpt lat="56.405007038265467" lon="-2.914851000532508">
        <ele>41.950000000000003</ele>
        <time>2023-08-17T17:42:26Z</time>
      </trkpt>
      <trkpt lat="56.405463013797998" lon="-2.915248973295093">
        <ele>42.920000000000002</ele>
        <time>2023-08-17T17:42:29Z</time>
      </trkpt>
      <trkpt lat="56.405611960217357" lon="-2.915367996320128">
        <ele>43.399999999999999</ele>
        <time>2023-08-17T17:42:30Z</time>
      </trkpt>
      <trkpt lat="56.405774988234043" lon="-2.915380988270044">
        <ele>44.359999999999999</ele>
        <time>2023-08-17T17:42:31Z</time>
      </trkpt>
      <trkpt lat="56.40593801625073" lon="-2.91539398021996">
        <ele>44.840000000000003</ele>
        <time>2023-08-17T17:42:32Z</time>
      </trkpt>
      <trkpt lat="56.406098026782274" lon="-2.915406972169876">
        <ele>45.32</ele>
        <time>2023-08-17T17:42:33Z</time>
      </trkpt>
      <trkpt lat="56.406250996515155" lon="-2.91534997522831">
        <ele>45.32</ele>
        <time>2023-08-17T17:42:34Z</time>
      </trkpt>
      <trkpt lat="56.406407989561558" lon="-2.915258025750518">
        <ele>45.799999999999997</ele>
        <time>2023-08-17T17:42:35Z</time>
      </trkpt>
      <trkpt lat="56.406568000093102" lon="-2.915162974968553">
        <ele>45.799999999999997</ele>
        <time>2023-08-17T17:42:36Z</time>
      </trkpt>
      <trkpt lat="56.406718958169222" lon="-2.91502702049911">
        <ele>45.799999999999997</ele>
        <time>2023-08-17T17:42:37Z</time>
      </trkpt>
      <trkpt lat="56.406868994235992" lon="-2.914867009967566">
        <ele>45.799999999999997</ele>
        <time>2023-08-17T17:42:38Z</time>
      </trkpt>
      <trkpt lat="56.407015006989241" lon="-2.914703981950879">
        <ele>45.32</ele>
        <time>2023-08-17T17:42:39Z</time>
      </trkpt>
      <trkpt lat="56.407160013914108" lon="-2.91453299112618">
        <ele>44.840000000000003</ele>
        <time>2023-08-17T17:42:40Z</time>
      </trkpt>
      <trkpt lat="56.407933998852968" lon="-2.913651969283819">
        <ele>42.439999999999998</ele>
        <time>2023-08-17T17:42:46Z</time>
      </trkpt>
      <trkpt lat="56.408079005777836" lon="-2.91358700953424">
        <ele>41.469999999999999</ele>
        <time>2023-08-17T17:42:47Z</time>
      </trkpt>
      <trkpt lat="56.408223006874323" lon="-2.913522971794009">
        <ele>40.990000000000002</ele>
        <time>2023-08-17T17:42:48Z</time>
      </trkpt>
      <trkpt lat="56.408375976607203" lon="-2.913520960137248">
        <ele>40.509999999999998</ele>
        <time>2023-08-17T17:42:49Z</time>
      </trkpt>
      <trkpt lat="56.408535987138748" lon="-2.913550967350602">
        <ele>40.030000000000001</ele>
        <time>2023-08-17T17:42:50Z</time>
      </trkpt>
      <trkpt lat="56.408701026812196" lon="-2.913601007312536">
        <ele>39.07</ele>
        <time>2023-08-17T17:42:51Z</time>
      </trkpt>
      <trkpt lat="56.408869000151753" lon="-2.913669990375638">
        <ele>38.590000000000003</ele>
        <time>2023-08-17T17:42:52Z</time>
      </trkpt>
      <trkpt lat="56.410420993342996" lon="-2.914310032501817">
        <ele>32.340000000000003</ele>
        <time>2023-08-17T17:43:02Z</time>
      </trkpt>
      <trkpt lat="56.410875963047147" lon="-2.914498960599303">
        <ele>30.420000000000002</ele>
        <time>2023-08-17T17:43:08Z</time>
      </trkpt>
      <trkpt lat="56.410926003009081" lon="-2.914521005004644">
        <ele>29.460000000000001</ele>
        <time>2023-08-17T17:43:11Z</time>
      </trkpt>
      <trkpt lat="56.410926003009081" lon="-2.914521005004644">
        <ele>28.5</ele>
        <time>2023-08-17T17:43:26Z</time>
      </trkpt>
      <trkpt lat="56.410926003009081" lon="-2.914521005004644">
        <ele>28.5</ele>
        <time>2023-08-17T17:44:10Z</time>
      </trkpt>
      <trkpt lat="56.411037985235453" lon="-2.914571966975927">
        <ele>28.02</ele>
        <time>2023-08-17T17:44:26Z</time>
      </trkpt>
      <trkpt lat="56.411639973521233" lon="-2.914841026067734">
        <ele>28.02</ele>
        <time>2023-08-17T17:44:32Z</time>
      </trkpt>
      <trkpt lat="56.412141965702176" lon="-2.91511201299727">
        <ele>28.02</ele>
        <time>2023-08-17T17:44:36Z</time>
      </trkpt>
      <trkpt lat="56.412272974848747" lon="-2.915235981345177">
        <ele>28.02</ele>
        <time>2023-08-17T17:44:37Z</time>
      </trkpt>
      <trkpt lat="56.41240599565208" lon="-2.915361961349845">
        <ele>28.02</ele>
        <time>2023-08-17T17:44:38Z</time>
      </trkpt>
      <trkpt lat="56.412528958171606" lon="-2.915528006851673">
        <ele>28.02</ele>
        <time>2023-08-17T17:44:39Z</time>
      </trkpt>
      <trkpt lat="56.412652004510164" lon="-2.915709977969527">
        <ele>28.02</ele>
        <time>2023-08-17T17:44:40Z</time>
      </trkpt>
      <trkpt lat="56.413175035268068" lon="-2.916464013978839">
        <ele>27.530000000000001</ele>
        <time>2023-08-17T17:44:44Z</time>
      </trkpt>
      <trkpt lat="56.413319958373904" lon="-2.916626036167145">
        <ele>27.530000000000001</ele>
        <time>2023-08-17T17:44:45Z</time>
      </trkpt>
      <trkpt lat="56.413474017754197" lon="-2.916752016171813">
        <ele>27.530000000000001</ele>
        <time>2023-08-17T17:44:47Z</time>
      </trkpt>
      <trkpt lat="56.414221012964845" lon="-2.917279992252588">
        <ele>27.530000000000001</ele>
        <time>2023-08-17T17:44:52Z</time>
      </trkpt>
      <trkpt lat="56.416303999722004" lon="-2.917678970843554">
        <ele>29.940000000000001</ele>
        <time>2023-08-17T17:45:04Z</time>
      </trkpt>
      <trkpt lat="56.41808096319437" lon="-2.918006032705307">
        <ele>31.859999999999999</ele>
        <time>2023-08-17T17:45:15Z</time>
      </trkpt>
      <trkpt lat="56.419973010197282" lon="-2.918564015999436">
        <ele>28.98</ele>
        <time>2023-08-17T17:45:26Z</time>
      </trkpt>
      <trkpt lat="56.420272998511791" lon="-2.918699970468879">
        <ele>28.5</ele>
        <time>2023-08-17T17:45:28Z</time>
      </trkpt>
      <trkpt lat="56.420421022921801" lon="-2.918813964352012">
        <ele>28.5</ele>
        <time>2023-08-17T17:45:29Z</time>
      </trkpt>
      <trkpt lat="56.420556977391243" lon="-2.918965006247163">
        <ele>28.5</ele>
        <time>2023-08-17T17:45:30Z</time>
      </trkpt>
      <trkpt lat="56.421901015564799" lon="-2.920639961957932">
        <ele>32.340000000000003</ele>
        <time>2023-08-17T17:45:41Z</time>
      </trkpt>
      <trkpt lat="56.42321303486824" lon="-2.921993974596262">
        <ele>38.590000000000003</ele>
        <time>2023-08-17T17:45:48Z</time>
      </trkpt>
      <trkpt lat="56.424388010054827" lon="-2.923035006970167">
        <ele>45.32</ele>
        <time>2023-08-17T17:45:55Z</time>
      </trkpt>
      <trkpt lat="56.426034970209002" lon="-2.925066025927663">
        <ele>57.340000000000003</ele>
        <time>2023-08-17T17:46:06Z</time>
      </trkpt>
      <trkpt lat="56.4262630417943" lon="-2.925552008673549">
        <ele>59.259999999999998</ele>
        <time>2023-08-17T17:46:08Z</time>
      </trkpt>
      <trkpt lat="56.426361026242375" lon="-2.925817966461182">
        <ele>60.219999999999999</ele>
        <time>2023-08-17T17:46:09Z</time>
      </trkpt>
      <trkpt lat="56.427339026704431" lon="-2.928814999759197">
        <ele>66.950000000000003</ele>
        <time>2023-08-17T17:46:19Z</time>
      </trkpt>
      <trkpt lat="56.42811200581491" lon="-2.931081969290972">
        <ele>68.390000000000001</ele>
        <time>2023-08-17T17:46:27Z</time>
      </trkpt>
      <trkpt lat="56.428645011037588" lon="-2.932400023564696">
        <ele>66.950000000000003</ele>
        <time>2023-08-17T17:46:34Z</time>
      </trkpt>
      <trkpt lat="56.42869203351438" lon="-2.93251602910459">
        <ele>67.430000000000007</ele>
        <time>2023-08-17T17:46:35Z</time>
      </trkpt>
      <trkpt lat="56.428732015192509" lon="-2.932614013552666">
        <ele>67.430000000000007</ele>
        <time>2023-08-17T17:46:36Z</time>
      </trkpt>
      <trkpt lat="56.428769985213876" lon="-2.932787016034126">
        <ele>67.430000000000007</ele>
        <time>2023-08-17T17:46:37Z</time>
      </trkpt>
      <trkpt lat="56.428730003535748" lon="-2.93288298882544">
        <ele>67.430000000000007</ele>
        <time>2023-08-17T17:46:38Z</time>
      </trkpt>
      <trkpt lat="56.428679041564465" lon="-2.933016009628773">
        <ele>67.430000000000007</ele>
        <time>2023-08-17T17:46:39Z</time>
      </trkpt>
      <trkpt lat="56.428679041564465" lon="-2.933150036260486">
        <ele>67.909999999999997</ele>
        <time>2023-08-17T17:46:40Z</time>
      </trkpt>
      <trkpt lat="56.428679041564465" lon="-2.933293031528592">
        <ele>67.909999999999997</ele>
        <time>2023-08-17T17:46:41Z</time>
      </trkpt>
      <trkpt lat="56.428723968565464" lon="-2.933465028181672">
        <ele>67.909999999999997</ele>
        <time>2023-08-17T17:46:42Z</time>
      </trkpt>
      <trkpt lat="56.428766967728734" lon="-2.933593019843102">
        <ele>67.909999999999997</ele>
        <time>2023-08-17T17:46:43Z</time>
      </trkpt>
      <trkpt lat="56.428881967440248" lon="-2.933650016784668">
        <ele>67.909999999999997</ele>
        <time>2023-08-17T17:46:44Z</time>
      </trkpt>
      <trkpt lat="56.428966959938407" lon="-2.933650016784668">
        <ele>67.430000000000007</ele>
        <time>2023-08-17T17:46:45Z</time>
      </trkpt>
      <trkpt lat="56.429042983800173" lon="-2.933650016784668">
        <ele>67.430000000000007</ele>
        <time>2023-08-17T17:46:46Z</time>
      </trkpt>
      <trkpt lat="56.429118001833558" lon="-2.933522025123239">
        <ele>67.430000000000007</ele>
        <time>2023-08-17T17:46:47Z</time>
      </trkpt>
      <trkpt lat="56.429185979068279" lon="-2.933406019583345">
        <ele>66.950000000000003</ele>
        <time>2023-08-17T17:46:49Z</time>
      </trkpt>
      <trkpt lat="56.429283963516355" lon="-2.933341981843114">
        <ele>67.430000000000007</ele>
        <time>2023-08-17T17:46:50Z</time>
      </trkpt>
      <trkpt lat="56.4293800201267" lon="-2.933288002386689">
        <ele>67.430000000000007</ele>
        <time>2023-08-17T17:46:51Z</time>
      </trkpt>
      <trkpt lat="56.430557006970048" lon="-2.933255983516574">
        <ele>67.430000000000007</ele>
        <time>2023-08-17T17:46:58Z</time>
      </trkpt>
      <trkpt lat="56.43204303458333" lon="-2.933446001261473">
        <ele>67.430000000000007</ele>
        <time>2023-08-17T17:47:06Z</time>
      </trkpt>
      <trkpt lat="56.433625034987926" lon="-2.933644987642765">
        <ele>69.349999999999994</ele>
        <time>2023-08-17T17:47:17Z</time>
      </trkpt>
      <trkpt lat="56.435536025092006" lon="-2.933810027316213">
        <ele>73.680000000000007</ele>
        <time>2023-08-17T17:47:32Z</time>
      </trkpt>
      <trkpt lat="56.437583975493908" lon="-2.933682035654783">
        <ele>76.560000000000002</ele>
        <time>2023-08-17T17:47:47Z</time>
      </trkpt>
      <trkpt lat="56.439149966463447" lon="-2.933404007926583">
        <ele>77.519999999999996</ele>
        <time>2023-08-17T17:47:59Z</time>
      </trkpt>
      <trkpt lat="56.440517976880074" lon="-2.933070994913578">
        <ele>75.599999999999994</ele>
        <time>2023-08-17T17:48:10Z</time>
      </trkpt>
      <trkpt lat="56.442208020016551" lon="-2.932530026882887">
        <ele>71.269999999999996</ele>
        <time>2023-08-17T17:48:24Z</time>
      </trkpt>
      <trkpt lat="56.443480979651213" lon="-2.931907000020146">
        <ele>63.579999999999998</ele>
        <time>2023-08-17T17:48:36Z</time>
      </trkpt>
      <trkpt lat="56.443577036261559" lon="-2.931858971714973">
        <ele>62.140000000000001</ele>
        <time>2023-08-17T17:48:38Z</time>
      </trkpt>
      <trkpt lat="56.444765003398061" lon="-2.931466028094292">
        <ele>57.82</ele>
        <time>2023-08-17T17:48:47Z</time>
      </trkpt>
      <trkpt lat="56.44583897665143" lon="-2.931823013350368">
        <ele>53.490000000000002</ele>
        <time>2023-08-17T17:48:56Z</time>
      </trkpt>
      <trkpt lat="56.446324959397316" lon="-2.932498008012772">
        <ele>50.609999999999999</ele>
        <time>2023-08-17T17:49:04Z</time>
      </trkpt>
      <trkpt lat="56.446658978238702" lon="-2.932221991941333">
        <ele>50.609999999999999</ele>
        <time>2023-08-17T17:49:05Z</time>
      </trkpt>
      <trkpt lat="56.446952009573579" lon="-2.932477975264192">
        <ele>49.649999999999999</ele>
        <time>2023-08-17T17:49:10Z</time>
      </trkpt>
      <trkpt lat="56.446917979046702" lon="-2.933456981554627">
        <ele>49.159999999999997</ele>
        <time>2023-08-17T17:49:15Z</time>
      </trkpt>
      <trkpt lat="56.446946980431676" lon="-2.933521019294858">
        <ele>49.159999999999997</ele>
        <time>2023-08-17T17:49:16Z</time>
      </trkpt>
      <trkpt lat="56.447005989030004" lon="-2.933648005127907">
        <ele>49.649999999999999</ele>
        <time>2023-08-17T17:49:17Z</time>
      </trkpt>
      <trkpt lat="56.447890028357506" lon="-2.935801986604929">
        <ele>47.240000000000002</ele>
        <time>2023-08-17T17:49:31Z</time>
      </trkpt>
      <trkpt lat="56.448798039928079" lon="-2.938012965023518">
        <ele>44.359999999999999</ele>
        <time>2023-08-17T17:49:44Z</time>
      </trkpt>
      <trkpt lat="56.450034035369754" lon="-2.94102399609983">
        <ele>40.509999999999998</ele>
        <time>2023-08-17T17:50:01Z</time>
      </trkpt>
      <trkpt lat="56.451256033033133" lon="-2.943999990820885">
        <ele>38.590000000000003</ele>
        <time>2023-08-17T17:50:18Z</time>
      </trkpt>
      <trkpt lat="56.452451962977648" lon="-2.946913037449122">
        <ele>37.630000000000003</ele>
        <time>2023-08-17T17:50:35Z</time>
      </trkpt>
      <trkpt lat="56.453526020050049" lon="-2.94953003525734">
        <ele>36.189999999999998</ele>
        <time>2023-08-17T17:50:50Z</time>
      </trkpt>
      <trkpt lat="56.454654978588223" lon="-2.952279970049858">
        <ele>33.780000000000001</ele>
        <time>2023-08-17T17:51:06Z</time>
      </trkpt>
      <trkpt lat="56.455781003460288" lon="-2.955019008368254">
        <ele>29.940000000000001</ele>
        <time>2023-08-17T17:51:22Z</time>
      </trkpt>
      <trkpt lat="56.456564040854573" lon="-2.956926980987191">
        <ele>27.530000000000001</ele>
        <time>2023-08-17T17:51:33Z</time>
      </trkpt>
      <trkpt lat="56.457648994401097" lon="-2.95950198546052">
        <ele>25.609999999999999</ele>
        <time>2023-08-17T17:51:48Z</time>
      </trkpt>
      <trkpt lat="56.458752974867821" lon="-2.962219985201955">
        <ele>22.25</ele>
        <time>2023-08-17T17:52:04Z</time>
      </trkpt>
      <trkpt lat="56.459100991487503" lon="-2.963083991780877">
        <ele>20.809999999999999</ele>
        <time>2023-08-17T17:52:10Z</time>
      </trkpt>
      <trkpt lat="56.459140973165631" lon="-2.963220030069351">
        <ele>20.32</ele>
        <time>2023-08-17T17:52:11Z</time>
      </trkpt>
      <trkpt lat="56.459841029718518" lon="-2.96476598829031">
        <ele>18.399999999999999</ele>
        <time>2023-08-17T17:52:22Z</time>
      </trkpt>
      <trkpt lat="56.460332963615656" lon="-2.965665031224489">
        <ele>14.08</ele>
        <time>2023-08-17T17:52:31Z</time>
      </trkpt>
      <trkpt lat="56.46036297082901" lon="-2.965698977932334">
        <ele>13.6</ele>
        <time>2023-08-17T17:52:32Z</time>
      </trkpt>
      <trkpt lat="56.460379986092448" lon="-2.965709958225489">
        <ele>13.119999999999999</ele>
        <time>2023-08-17T17:52:33Z</time>
      </trkpt>
      <trkpt lat="56.460401024669409" lon="-2.965715993195772">
        <ele>12.630000000000001</ele>
        <time>2023-08-17T17:52:44Z</time>
      </trkpt>
      <trkpt lat="56.460525998845696" lon="-2.965751029551029">
        <ele>12.630000000000001</ele>
        <time>2023-08-17T17:53:05Z</time>
      </trkpt>
      <trkpt lat="56.460593976080418" lon="-2.965751029551029">
        <ele>12.630000000000001</ele>
        <time>2023-08-17T17:53:06Z</time>
      </trkpt>
      <trkpt lat="56.460660025477409" lon="-2.965701995417476">
        <ele>12.630000000000001</ele>
        <time>2023-08-17T17:53:07Z</time>
      </trkpt>
      <trkpt lat="56.460735965520144" lon="-2.965579032897949">
        <ele>12.630000000000001</ele>
        <time>2023-08-17T17:53:08Z</time>
      </trkpt>
      <trkpt lat="56.460784999653697" lon="-2.96551801264286">
        <ele>12.630000000000001</ele>
        <time>2023-08-17T17:53:09Z</time>
      </trkpt>
      <trkpt lat="56.460846019908786" lon="-2.965439977124333">
        <ele>12.630000000000001</ele>
        <time>2023-08-17T17:53:10Z</time>
      </trkpt>
      <trkpt lat="56.46134901791811" lon="-2.964702034369111">
        <ele>12.15</ele>
        <time>2023-08-17T17:53:19Z</time>
      </trkpt>
      <trkpt lat="56.461559990420938" lon="-2.964310012757778">
        <ele>11.67</ele>
        <time>2023-08-17T17:53:27Z</time>
      </trkpt>
      <trkpt lat="56.461867019534111" lon="-2.963797962293029">
        <ele>12.630000000000001</ele>
        <time>2023-08-17T17:53:34Z</time>
      </trkpt>
      <trkpt lat="56.462298016995192" lon="-2.963069994002581">
        <ele>13.6</ele>
        <time>2023-08-17T17:53:41Z</time>
      </trkpt>
      <trkpt lat="56.462355013936758" lon="-2.96300201676786">
        <ele>14.08</ele>
        <time>2023-08-17T17:53:42Z</time>
      </trkpt>
      <trkpt lat="56.462476970627904" lon="-2.96287301927805">
        <ele>14.56</ele>
        <time>2023-08-17T17:53:49Z</time>
      </trkpt>
      <trkpt lat="56.462589036673307" lon="-2.962832031771541">
        <ele>14.56</ele>
        <time>2023-08-17T17:54:13Z</time>
      </trkpt>
      <trkpt lat="56.462620971724391" lon="-2.962880982086062">
        <ele>14.56</ele>
        <time>2023-08-17T17:54:14Z</time>
      </trkpt>
      <trkpt lat="56.463446002453566" lon="-2.963855965062976">
        <ele>12.630000000000001</ele>
        <time>2023-08-17T17:54:27Z</time>
      </trkpt>
      <trkpt lat="56.463803993538022" lon="-2.96418403275311">
        <ele>12.630000000000001</ele>
        <time>2023-08-17T17:54:33Z</time>
      </trkpt>
      <trkpt lat="56.463865013793111" lon="-2.964228959754109">
        <ele>12.630000000000001</ele>
        <time>2023-08-17T17:54:34Z</time>
      </trkpt>
      <trkpt lat="56.464364994317293" lon="-2.965104030445218">
        <ele>13.119999999999999</ele>
        <time>2023-08-17T17:54:42Z</time>
      </trkpt>
      <trkpt lat="56.464601028710604" lon="-2.965771984308958">
        <ele>14.08</ele>
        <time>2023-08-17T17:54:51Z</time>
      </trkpt>
      <trkpt lat="56.464834967628121" lon="-2.966587962582707">
        <ele>16.48</ele>
        <time>2023-08-17T17:54:59Z</time>
      </trkpt>
      <trkpt lat="56.465053986757994" lon="-2.968356041237712">
        <ele>22.73</ele>
        <time>2023-08-17T17:55:09Z</time>
      </trkpt>
      <trkpt lat="56.465083993971348" lon="-2.96880598179996">
        <ele>23.210000000000001</ele>
        <time>2023-08-17T17:55:11Z</time>
      </trkpt>
      <trkpt lat="56.465094974264503" lon="-2.969032963737845">
        <ele>22.73</ele>
        <time>2023-08-17T17:55:12Z</time>
      </trkpt>
      <trkpt lat="56.465108972042799" lon="-2.969509977847338">
        <ele>22.73</ele>
        <time>2023-08-17T17:55:14Z</time>
      </trkpt>
      <trkpt lat="56.464716028422117" lon="-2.972244992852211">
        <ele>24.649999999999999</ele>
        <time>2023-08-17T17:55:29Z</time>
      </trkpt>
      <trkpt lat="56.464662970975041" lon="-2.972424030303955">
        <ele>26.57</ele>
        <time>2023-08-17T17:55:36Z</time>
      </trkpt>
      <trkpt lat="56.464560963213444" lon="-2.972641959786415">
        <ele>27.050000000000001</ele>
        <time>2023-08-17T17:55:39Z</time>
      </trkpt>
      <trkpt lat="56.46452802233398" lon="-2.972711026668549">
        <ele>27.050000000000001</ele>
        <time>2023-08-17T17:55:40Z</time>
      </trkpt>
      <trkpt lat="56.464405981823802" lon="-2.972745979204774">
        <ele>27.050000000000001</ele>
        <time>2023-08-17T17:55:43Z</time>
      </trkpt>
      <trkpt lat="56.464353008195758" lon="-2.972787972539663">
        <ele>27.530000000000001</ele>
        <time>2023-08-17T17:55:44Z</time>
      </trkpt>
      <trkpt lat="56.464253012090921" lon="-2.973125008866191">
        <ele>28.02</ele>
        <time>2023-08-17T17:55:47Z</time>
      </trkpt>
      <trkpt lat="56.464199032634497" lon="-2.97383101657033">
        <ele>28.98</ele>
        <time>2023-08-17T17:55:52Z</time>
      </trkpt>
      <trkpt lat="56.464093001559377" lon="-2.974289003759623">
        <ele>29.460000000000001</ele>
        <time>2023-08-17T17:55:55Z</time>
      </trkpt>
      <trkpt lat="56.463621016591787" lon="-2.975911991670728">
        <ele>30.899999999999999</ele>
        <time>2023-08-17T17:56:03Z</time>
      </trkpt>
      <trkpt lat="56.463580029085279" lon="-2.976104021072388">
        <ele>30.899999999999999</ele>
        <time>2023-08-17T17:56:04Z</time>
      </trkpt>
      <trkpt lat="56.463564019650221" lon="-2.976294960826635">
        <ele>31.379999999999999</ele>
        <time>2023-08-17T17:56:05Z</time>
      </trkpt>
      <trkpt lat="56.463555973023176" lon="-2.976500988006592">
        <ele>31.379999999999999</ele>
        <time>2023-08-17T17:56:06Z</time>
      </trkpt>
      <trkpt lat="56.463548010215163" lon="-2.97671003267169">
        <ele>31.859999999999999</ele>
        <time>2023-08-17T17:56:07Z</time>
      </trkpt>
      <trkpt lat="56.46356301382184" lon="-2.976917987689376">
        <ele>31.859999999999999</ele>
        <time>2023-08-17T17:56:08Z</time>
      </trkpt>
      <trkpt lat="56.463580029085279" lon="-2.977133989334106">
        <ele>31.859999999999999</ele>
        <time>2023-08-17T17:56:10Z</time>
      </trkpt>
      <trkpt lat="56.463596038520336" lon="-2.977349990978837">
        <ele>31.859999999999999</ele>
        <time>2023-08-17T17:56:11Z</time>
      </trkpt>
      <trkpt lat="56.463655969128013" lon="-2.978132022544742">
        <ele>31.859999999999999</ele>
        <time>2023-08-17T17:56:15Z</time>
      </trkpt>
      <trkpt lat="56.463656974956393" lon="-2.978607024997473">
        <ele>31.379999999999999</ele>
        <time>2023-08-17T17:56:18Z</time>
      </trkpt>
      <trkpt lat="56.463640965521336" lon="-2.978792013600469">
        <ele>30.899999999999999</ele>
        <time>2023-08-17T17:56:20Z</time>
      </trkpt>
      <trkpt lat="56.463547004386783" lon="-2.979312026873231">
        <ele>30.899999999999999</ele>
        <time>2023-08-17T17:56:25Z</time>
      </trkpt>
      <trkpt lat="56.463528983294964" lon="-2.979429038241506">
        <ele>30.420000000000002</ele>
        <time>2023-08-17T17:56:26Z</time>
      </trkpt>
      <trkpt lat="56.463509034365416" lon="-2.979630958288908">
        <ele>30.420000000000002</ele>
        <time>2023-08-17T17:56:27Z</time>
      </trkpt>
      <trkpt lat="56.463570976629853" lon="-2.980008982121944">
        <ele>30.420000000000002</ele>
        <time>2023-08-17T17:56:28Z</time>
      </trkpt>
      <trkpt lat="56.463664015755057" lon="-2.980308970436454">
        <ele>31.379999999999999</ele>
        <time>2023-08-17T17:56:31Z</time>
      </trkpt>
      <trkpt lat="56.463695028796792" lon="-2.980466969311237">
        <ele>31.379999999999999</ele>
        <time>2023-08-17T17:56:32Z</time>
      </trkpt>
      <trkpt lat="56.463762000203133" lon="-2.980813980102539">
        <ele>30.420000000000002</ele>
        <time>2023-08-17T17:56:34Z</time>
      </trkpt>
      <trkpt lat="56.463762000203133" lon="-2.980904001742601">
        <ele>29.940000000000001</ele>
        <time>2023-08-17T17:56:35Z</time>
      </trkpt>
      <trkpt lat="56.463762000203133" lon="-2.981199966743588">
        <ele>28.98</ele>
        <time>2023-08-17T17:56:37Z</time>
      </trkpt>
      <trkpt lat="56.463770968839526" lon="-2.981840008869767">
        <ele>29.460000000000001</ele>
        <time>2023-08-17T17:56:40Z</time>
      </trkpt>
      <trkpt lat="56.463773986324668" lon="-2.982021979987621">
        <ele>29.940000000000001</ele>
        <time>2023-08-17T17:56:41Z</time>
      </trkpt>
      <trkpt lat="56.463812040165067" lon="-2.984078982844949">
        <ele>34.740000000000002</ele>
        <time>2023-08-17T17:56:53Z</time>
      </trkpt>
      <trkpt lat="56.463775997981429" lon="-2.986001037061214">
        <ele>40.030000000000001</ele>
        <time>2023-08-17T17:57:03Z</time>
      </trkpt>
      <trkpt lat="56.463509034365416" lon="-2.988215032964945">
        <ele>44.840000000000003</ele>
        <time>2023-08-17T17:57:14Z</time>
      </trkpt>
      <trkpt lat="56.463478021323681" lon="-2.988579981029034">
        <ele>45.799999999999997</ele>
        <time>2023-08-17T17:57:16Z</time>
      </trkpt>
      <trkpt lat="56.463463017717004" lon="-2.988767987117171">
        <ele>46.759999999999998</ele>
        <time>2023-08-17T17:57:17Z</time>
      </trkpt>
      <trkpt lat="56.463447008281946" lon="-2.988963034003973">
        <ele>47.240000000000002</ele>
        <time>2023-08-17T17:57:18Z</time>
      </trkpt>
      <trkpt lat="56.463470980525017" lon="-2.989534009248018">
        <ele>49.159999999999997</ele>
        <time>2023-08-17T17:57:22Z</time>
      </trkpt>
      <trkpt lat="56.463501993566751" lon="-2.989827040582895">
        <ele>49.649999999999999</ele>
        <time>2023-08-17T17:57:23Z</time>
      </trkpt>
      <trkpt lat="56.463569970801473" lon="-2.990216966718435">
        <ele>52.049999999999997</ele>
        <time>2023-08-17T17:57:30Z</time>
      </trkpt>
      <trkpt lat="56.463613975793123" lon="-2.990468004718423">
        <ele>53.009999999999998</ele>
        <time>2023-08-17T17:57:33Z</time>
      </trkpt>
      <trkpt lat="56.463789995759726" lon="-2.991181975230575">
        <ele>54.450000000000003</ele>
        <time>2023-08-17T17:57:40Z</time>
      </trkpt>
      <trkpt lat="56.463836012408137" lon="-2.991304015740752">
        <ele>54.450000000000003</ele>
        <time>2023-08-17T17:57:41Z</time>
      </trkpt>
      <trkpt lat="56.463882029056549" lon="-2.991424966603518">
        <ele>54.93</ele>
        <time>2023-08-17T17:57:42Z</time>
      </trkpt>
      <trkpt lat="56.463959980756044" lon="-2.991629987955093">
        <ele>55.890000000000001</ele>
        <time>2023-08-17T17:57:44Z</time>
      </trkpt>
      <trkpt lat="56.46414203569293" lon="-2.99209501594305">
        <ele>59.259999999999998</ele>
        <time>2023-08-17T17:57:52Z</time>
      </trkpt>
      <trkpt lat="56.464498015120625" lon="-2.992842011153698">
        <ele>61.18</ele>
        <time>2023-08-17T17:58:01Z</time>
      </trkpt>
      <trkpt lat="56.464992966502905" lon="-2.993636028841138">
        <ele>62.619999999999997</ele>
        <time>2023-08-17T17:58:08Z</time>
      </trkpt>
      <trkpt lat="56.465026997029781" lon="-2.993692019954324">
        <ele>63.579999999999998</ele>
        <time>2023-08-17T17:58:10Z</time>
      </trkpt>
      <trkpt lat="56.465000007301569" lon="-2.993753040209413">
        <ele>64.069999999999993</ele>
        <time>2023-08-17T17:58:11Z</time>
      </trkpt>
      <trkpt lat="56.464967988431454" lon="-2.993827974423766">
        <ele>64.549999999999997</ele>
        <time>2023-08-17T17:58:12Z</time>
      </trkpt>
      <trkpt lat="56.464929012581706" lon="-2.99392000772059">
        <ele>65.030000000000001</ele>
        <time>2023-08-17T17:58:13Z</time>
      </trkpt>
      <trkpt lat="56.464573033154011" lon="-2.99486598931253">
        <ele>69.829999999999998</ele>
        <time>2023-08-17T17:58:20Z</time>
      </trkpt>
      <trkpt lat="56.464545037597418" lon="-2.994947964325547">
        <ele>70.310000000000002</ele>
        <time>2023-08-17T17:58:21Z</time>
      </trkpt>
      <trkpt lat="56.464518969878554" lon="-2.995025999844074">
        <ele>71.269999999999996</ele>
        <time>2023-08-17T17:58:22Z</time>
      </trkpt>
      <trkpt lat="56.464488040655851" lon="-2.995115015655756">
        <ele>71.760000000000005</ele>
        <time>2023-08-17T17:58:23Z</time>
      </trkpt>
      <trkpt lat="56.464453004300594" lon="-2.995216017588973">
        <ele>72.239999999999995</ele>
        <time>2023-08-17T17:58:24Z</time>
      </trkpt>
      <trkpt lat="56.464426014572382" lon="-2.995293969288468">
        <ele>72.719999999999999</ele>
        <time>2023-08-17T17:58:25Z</time>
      </trkpt>
      <trkpt lat="56.464410005137324" lon="-2.995340991765261">
        <ele>73.200000000000003</ele>
        <time>2023-08-17T17:58:26Z</time>
      </trkpt>
      <trkpt lat="56.46440003067255" lon="-2.995367981493473">
        <ele>74.159999999999997</ele>
        <time>2023-08-17T17:58:27Z</time>
      </trkpt>
      <trkpt lat="56.464392989873886" lon="-2.995388014242053">
        <ele>74.640000000000001</ele>
        <time>2023-08-17T17:58:28Z</time>
      </trkpt>
      <trkpt lat="56.464392989873886" lon="-2.995388014242053">
        <ele>75.120000000000005</ele>
        <time>2023-08-17T17:58:29Z</time>
      </trkpt>
      <trkpt lat="56.464392989873886" lon="-2.995388014242053">
        <ele>76.560000000000002</ele>
        <time>2023-08-17T17:58:41Z</time>
      </trkpt>
      <trkpt lat="56.464392989873886" lon="-2.995388014242053">
        <ele>76.560000000000002</ele>
        <time>2023-08-17T17:58:58Z</time>
      </trkpt>
      <trkpt lat="56.464392989873886" lon="-2.995388014242053">
        <ele>78</ele>
        <time>2023-08-17T17:59:35Z</time>
      </trkpt>
      <trkpt lat="56.464392989873886" lon="-2.995388014242053">
        <ele>78.969999999999999</ele>
        <time>2023-08-17T18:00:33Z</time>
      </trkpt>
      <trkpt lat="56.464392989873886" lon="-2.995388014242053">
        <ele>78.969999999999999</ele>
        <time>2023-08-17T18:01:37Z</time>
      </trkpt>
      <trkpt lat="56.464392989873886" lon="-2.995388014242053">
        <ele>78.480000000000004</ele>
        <time>2023-08-17T18:02:27Z</time>
      </trkpt>
      <trkpt lat="56.464392989873886" lon="-2.995388014242053">
        <ele>79.450000000000003</ele>
        <time>2023-08-17T18:03:20Z</time>
      </trkpt>
      <trkpt lat="56.464392989873886" lon="-2.995388014242053">
        <ele>79.930000000000007</ele>
        <time>2023-08-17T18:04:20Z</time>
      </trkpt>
      <trkpt lat="56.464392989873886" lon="-2.995388014242053">
        <ele>80.409999999999997</ele>
        <time>2023-08-17T18:05:23Z</time>
      </trkpt>
    </trkseg>
  </trk>

  <trk>
    <name>Track vom: 2023-08-17 19:17</name>
    <extensions>
      <gpxx:TrackExtension>
        <gpxx:DisplayColor>DarkGray</gpxx:DisplayColor>
      </gpxx:TrackExtension>
    </extensions>
    <trkseg>
      <trkpt lat="56.464438000693917" lon="-2.995442999526858">
        <ele>73.200000000000003</ele>
        <time>2023-08-17T18:17:59Z</time>
      </trkpt>
      <trkpt lat="56.464381003752351" lon="-2.995421038940549">
        <ele>73.200000000000003</ele>
        <time>2023-08-17T18:18:33Z</time>
      </trkpt>
      <trkpt lat="56.464363988488913" lon="-2.995469989255071">
        <ele>73.200000000000003</ele>
        <time>2023-08-17T18:18:34Z</time>
      </trkpt>
      <trkpt lat="56.464341022074223" lon="-2.995536960661411">
        <ele>73.200000000000003</ele>
        <time>2023-08-17T18:18:35Z</time>
      </trkpt>
      <trkpt lat="56.464158967137337" lon="-2.996106008067727">
        <ele>73.200000000000003</ele>
        <time>2023-08-17T18:18:43Z</time>
      </trkpt>
      <trkpt lat="56.464172964915633" lon="-2.996125034987927">
        <ele>72.719999999999999</ele>
        <time>2023-08-17T18:18:46Z</time>
      </trkpt>
      <trkpt lat="56.464174976572394" lon="-2.996127968654037">
        <ele>72.719999999999999</ele>
        <time>2023-08-17T18:18:47Z</time>
      </trkpt>
      <trkpt lat="56.464210012927651" lon="-2.995912972837687">
        <ele>72.239999999999995</ele>
        <time>2023-08-17T18:18:49Z</time>
      </trkpt>
      <trkpt lat="56.464374968782067" lon="-2.995440987870097">
        <ele>69.829999999999998</ele>
        <time>2023-08-17T18:19:01Z</time>
      </trkpt>
      <trkpt lat="56.464428026229143" lon="-2.995288018137217">
        <ele>71.269999999999996</ele>
        <time>2023-08-17T18:19:21Z</time>
      </trkpt>
      <trkpt lat="56.464738994836807" lon="-2.994381012395024">
        <ele>73.680000000000007</ele>
        <time>2023-08-17T18:19:29Z</time>
      </trkpt>
      <trkpt lat="56.464855000376701" lon="-2.99409200437367">
        <ele>73.200000000000003</ele>
        <time>2023-08-17T18:19:32Z</time>
      </trkpt>
      <trkpt lat="56.464892970398068" lon="-2.994005000218749">
        <ele>72.719999999999999</ele>
        <time>2023-08-17T18:19:33Z</time>
      </trkpt>
      <trkpt lat="56.465028002858162" lon="-2.993689002469182">
        <ele>71.269999999999996</ele>
        <time>2023-08-17T18:19:39Z</time>
      </trkpt>
      <trkpt lat="56.465028002858162" lon="-2.993689002469182">
        <ele>70.790000000000006</ele>
        <time>2023-08-17T18:19:52Z</time>
      </trkpt>
      <trkpt lat="56.465051975101233" lon="-2.993628988042474">
        <ele>69.829999999999998</ele>
        <time>2023-08-17T18:19:55Z</time>
      </trkpt>
      <trkpt lat="56.465092040598392" lon="-2.993779024109244">
        <ele>69.829999999999998</ele>
        <time>2023-08-17T18:19:56Z</time>
      </trkpt>
      <trkpt lat="56.465136967599392" lon="-2.993840966373682">
        <ele>69.349999999999994</ele>
        <time>2023-08-17T18:19:57Z</time>
      </trkpt>
      <trkpt lat="56.465435028076172" lon="-2.994313035160303">
        <ele>67.430000000000007</ele>
        <time>2023-08-17T18:20:04Z</time>
      </trkpt>
      <trkpt lat="56.465955041348934" lon="-2.995556993409991">
        <ele>69.349999999999994</ele>
        <time>2023-08-17T18:20:14Z</time>
      </trkpt>
      <trkpt lat="56.465971972793341" lon="-2.9955979809165">
        <ele>69.829999999999998</ele>
        <time>2023-08-17T18:20:15Z</time>
      </trkpt>
      <trkpt lat="56.46607699804008" lon="-2.996915029361844">
        <ele>78</ele>
        <time>2023-08-17T18:20:23Z</time>
      </trkpt>
      <trkpt lat="56.466096024960279" lon="-2.997046960517764">
        <ele>78.969999999999999</ele>
        <time>2023-08-17T18:20:24Z</time>
      </trkpt>
      <trkpt lat="56.466265004128218" lon="-2.997613996267319">
        <ele>79.930000000000007</ele>
        <time>2023-08-17T18:20:25Z</time>
      </trkpt>
      <trkpt lat="56.466809995472431" lon="-2.997930999845266">
        <ele>83.290000000000006</ele>
        <time>2023-08-17T18:20:29Z</time>
      </trkpt>
      <trkpt lat="56.466884007677436" lon="-2.997934017330408">
        <ele>83.769999999999996</ele>
        <time>2023-08-17T18:20:30Z</time>
      </trkpt>
      <trkpt lat="56.466958019882441" lon="-2.99793804064393">
        <ele>83.769999999999996</ele>
        <time>2023-08-17T18:20:31Z</time>
      </trkpt>
      <trkpt lat="56.467033037915826" lon="-2.997940974310041">
        <ele>84.25</ele>
        <time>2023-08-17T18:20:32Z</time>
      </trkpt>
      <trkpt lat="56.467104032635689" lon="-2.997943991795182">
        <ele>84.25</ele>
        <time>2023-08-17T18:20:33Z</time>
      </trkpt>
      <trkpt lat="56.467223977670074" lon="-2.997949020937085">
        <ele>84.730000000000004</ele>
        <time>2023-08-17T18:20:35Z</time>
      </trkpt>
      <trkpt lat="56.467261025682092" lon="-2.997951032593846">
        <ele>85.209999999999994</ele>
        <time>2023-08-17T18:20:36Z</time>
      </trkpt>
      <trkpt lat="56.467431010678411" lon="-2.997958995401859">
        <ele>85.689999999999998</ele>
        <time>2023-08-17T18:20:37Z</time>
      </trkpt>
      <trkpt lat="56.467431010678411" lon="-2.997958995401859">
        <ele>85.689999999999998</ele>
        <time>2023-08-17T18:20:38Z</time>
      </trkpt>
      <trkpt lat="56.467278962954879" lon="-2.997952038422227">
        <ele>86.180000000000007</ele>
        <time>2023-08-17T18:20:39Z</time>
      </trkpt>
      <trkpt lat="56.467263959348202" lon="-2.997951032593846">
        <ele>86.180000000000007</ele>
        <time>2023-08-17T18:20:40Z</time>
      </trkpt>
      <trkpt lat="56.467263959348202" lon="-2.997951032593846">
        <ele>88.099999999999994</ele>
        <time>2023-08-17T18:20:52Z</time>
      </trkpt>
      <trkpt lat="56.467223977670074" lon="-2.997950026765466">
        <ele>88.579999999999998</ele>
        <time>2023-08-17T18:20:53Z</time>
      </trkpt>
      <trkpt lat="56.467203022912145" lon="-2.997949020937085">
        <ele>88.099999999999994</ele>
        <time>2023-08-17T18:20:54Z</time>
      </trkpt>
      <trkpt lat="56.467163041234016" lon="-2.997947009280324">
        <ele>88.099999999999994</ele>
        <time>2023-08-17T18:20:55Z</time>
      </trkpt>
      <trkpt lat="56.46710897795856" lon="-2.997943991795182">
        <ele>87.620000000000005</ele>
        <time>2023-08-17T18:20:56Z</time>
      </trkpt>
      <trkpt lat="56.467042006552219" lon="-2.997941980138421">
        <ele>87.620000000000005</ele>
        <time>2023-08-17T18:20:57Z</time>
      </trkpt>
      <trkpt lat="56.466971011832356" lon="-2.99793804064393">
        <ele>87.140000000000001</ele>
        <time>2023-08-17T18:20:58Z</time>
      </trkpt>
      <trkpt lat="56.466899011284113" lon="-2.997935023158789">
        <ele>87.140000000000001</ele>
        <time>2023-08-17T18:20:59Z</time>
      </trkpt>
      <trkpt lat="56.466827010735869" lon="-2.997932005673647">
        <ele>86.659999999999997</ele>
        <time>2023-08-17T18:21:00Z</time>
      </trkpt>
      <trkpt lat="56.466760961338878" lon="-2.997928988188505">
        <ele>86.659999999999997</ele>
        <time>2023-08-17T18:21:01Z</time>
      </trkpt>
      <trkpt lat="56.466702036559582" lon="-2.997926976531744">
        <ele>86.659999999999997</ele>
        <time>2023-08-17T18:21:02Z</time>
      </trkpt>
      <trkpt lat="56.466646967455745" lon="-2.997923959046602">
        <ele>86.659999999999997</ele>
        <time>2023-08-17T18:21:03Z</time>
      </trkpt>
      <trkpt lat="56.466330969706178" lon="-2.997712986543775">
        <ele>85.689999999999998</ele>
        <time>2023-08-17T18:21:07Z</time>
      </trkpt>
      <trkpt lat="56.466228039935231" lon="-2.997559010982513">
        <ele>85.689999999999998</ele>
        <time>2023-08-17T18:21:09Z</time>
      </trkpt>
      <trkpt lat="56.466158973053098" lon="-2.997414004057646">
        <ele>85.689999999999998</ele>
        <time>2023-08-17T18:21:10Z</time>
      </trkpt>
      <trkpt lat="56.465918999165297" lon="-2.995472000911832">
        <ele>81.370000000000005</ele>
        <time>2023-08-17T18:21:20Z</time>
      </trkpt>
      <trkpt lat="56.465724036097527" lon="-2.995004961267114">
        <ele>78.480000000000004</ele>
        <time>2023-08-17T18:21:23Z</time>
      </trkpt>
      <trkpt lat="56.465665027499199" lon="-2.994863977655768">
        <ele>78</ele>
        <time>2023-08-17T18:21:24Z</time>
      </trkpt>
      <trkpt lat="56.465370990335941" lon="-2.994160987436771">
        <ele>73.680000000000007</ele>
        <time>2023-08-17T18:21:29Z</time>
      </trkpt>
      <trkpt lat="56.465338971465826" lon="-2.99409200437367">
        <ele>72.719999999999999</ele>
        <time>2023-08-17T18:21:30Z</time>
      </trkpt>
      <trkpt lat="56.464991960674524" lon="-2.993476018309593">
        <ele>65.989999999999995</ele>
        <time>2023-08-17T18:21:37Z</time>
      </trkpt>
      <trkpt lat="56.464740000665188" lon="-2.99316898919642">
        <ele>59.740000000000002</ele>
        <time>2023-08-17T18:21:45Z</time>
      </trkpt>
      <trkpt lat="56.464660037308931" lon="-2.993073016405106">
        <ele>59.259999999999998</ele>
        <time>2023-08-17T18:21:59Z</time>
      </trkpt>
      <trkpt lat="56.464514024555683" lon="-2.992874030023813">
        <ele>58.780000000000001</ele>
        <time>2023-08-17T18:22:03Z</time>
      </trkpt>
      <trkpt lat="56.464474964886904" lon="-2.992793982848525">
        <ele>58.780000000000001</ele>
        <time>2023-08-17T18:22:04Z</time>
      </trkpt>
      <trkpt lat="56.46405796520412" lon="-2.991884965449572">
        <ele>58.299999999999997</ele>
        <time>2023-08-17T18:22:12Z</time>
      </trkpt>
      <trkpt lat="56.463898038491607" lon="-2.991466959938407">
        <ele>58.780000000000001</ele>
        <time>2023-08-17T18:22:19Z</time>
      </trkpt>
      <trkpt lat="56.463816985487938" lon="-2.991251964122057">
        <ele>59.259999999999998</ele>
        <time>2023-08-17T18:22:51Z</time>
      </trkpt>
      <trkpt lat="56.463586986064911" lon="-2.990310005843639">
        <ele>56.859999999999999</ele>
        <time>2023-08-17T18:22:59Z</time>
      </trkpt>
      <trkpt lat="56.4634770154953" lon="-2.988590961322188">
        <ele>53.009999999999998</ele>
        <time>2023-08-17T18:23:09Z</time>
      </trkpt>
      <trkpt lat="56.463490007445216" lon="-2.988419970497489">
        <ele>52.530000000000001</ele>
        <time>2023-08-17T18:23:10Z</time>
      </trkpt>
      <trkpt lat="56.463742973282933" lon="-2.986558014526963">
        <ele>47.240000000000002</ele>
        <time>2023-08-17T18:23:20Z</time>
      </trkpt>
      <trkpt lat="56.463823020458221" lon="-2.984595978632569">
        <ele>41.950000000000003</ele>
        <time>2023-08-17T18:23:31Z</time>
      </trkpt>
      <trkpt lat="56.463793013244867" lon="-2.983148004859686">
        <ele>38.109999999999999</ele>
        <time>2023-08-17T18:23:40Z</time>
      </trkpt>
      <trkpt lat="56.463792007416487" lon="-2.983081033453345">
        <ele>37.630000000000003</ele>
        <time>2023-08-17T18:23:41Z</time>
      </trkpt>
      <trkpt lat="56.463783038780093" lon="-2.982675014063716">
        <ele>35.710000000000001</ele>
        <time>2023-08-17T18:23:49Z</time>
      </trkpt>
      <trkpt lat="56.463762000203133" lon="-2.981097958981991">
        <ele>31.379999999999999</ele>
        <time>2023-08-17T18:23:57Z</time>
      </trkpt>
      <trkpt lat="56.463770968839526" lon="-2.980768969282508">
        <ele>29.940000000000001</ele>
        <time>2023-08-17T18:23:59Z</time>
      </trkpt>
      <trkpt lat="56.463796030730009" lon="-2.980638965964317">
        <ele>29.460000000000001</ele>
        <time>2023-08-17T18:24:00Z</time>
      </trkpt>
      <trkpt lat="56.463824026286602" lon="-2.980495970696211">
        <ele>28.98</ele>
        <time>2023-08-17T18:24:01Z</time>
      </trkpt>
      <trkpt lat="56.463853027671576" lon="-2.980345012620091">
        <ele>28.5</ele>
        <time>2023-08-17T18:24:02Z</time>
      </trkpt>
      <trkpt lat="56.463884962722659" lon="-2.980180978775024">
        <ele>28.02</ele>
        <time>2023-08-17T18:24:03Z</time>
      </trkpt>
      <trkpt lat="56.463931985199451" lon="-2.980011999607086">
        <ele>27.530000000000001</ele>
        <time>2023-08-17T18:24:04Z</time>
      </trkpt>
      <trkpt lat="56.463961992412806" lon="-2.979840002954006">
        <ele>27.050000000000001</ele>
        <time>2023-08-17T18:24:05Z</time>
      </trkpt>
      <trkpt lat="56.463976996019483" lon="-2.97965501435101">
        <ele>27.050000000000001</ele>
        <time>2023-08-17T18:24:06Z</time>
      </trkpt>
      <trkpt lat="56.46394900046289" lon="-2.979438006877899">
        <ele>26.57</ele>
        <time>2023-08-17T18:24:07Z</time>
      </trkpt>
      <trkpt lat="56.46367097273469" lon="-2.977227028459311">
        <ele>29.940000000000001</ele>
        <time>2023-08-17T18:24:18Z</time>
      </trkpt>
      <trkpt lat="56.463645994663239" lon="-2.976826960220933">
        <ele>29.940000000000001</ele>
        <time>2023-08-17T18:24:20Z</time>
      </trkpt>
      <trkpt lat="56.463633002713323" lon="-2.976608024910092">
        <ele>29.940000000000001</ele>
        <time>2023-08-17T18:24:21Z</time>
      </trkpt>
      <trkpt lat="56.463650017976761" lon="-2.976442985236645">
        <ele>30.899999999999999</ele>
        <time>2023-08-17T18:24:22Z</time>
      </trkpt>
      <trkpt lat="56.46367197856307" lon="-2.976257996633649">
        <ele>31.379999999999999</ele>
        <time>2023-08-17T18:24:23Z</time>
      </trkpt>
      <trkpt lat="56.463695028796792" lon="-2.976069990545511">
        <ele>31.859999999999999</ele>
        <time>2023-08-17T18:24:24Z</time>
      </trkpt>
      <trkpt lat="56.463720006868243" lon="-2.975874021649361">
        <ele>32.340000000000003</ele>
        <time>2023-08-17T18:24:25Z</time>
      </trkpt>
      <trkpt lat="56.463771974667907" lon="-2.975696995854378">
        <ele>32.340000000000003</ele>
        <time>2023-08-17T18:24:26Z</time>
      </trkpt>
      <trkpt lat="56.463826037943363" lon="-2.975512007251382">
        <ele>32.340000000000003</ele>
        <time>2023-08-17T18:24:27Z</time>
      </trkpt>
      <trkpt lat="56.464334987103939" lon="-2.973674023523927">
        <ele>30.420000000000002</ele>
        <time>2023-08-17T18:24:38Z</time>
      </trkpt>
      <trkpt lat="56.46440195851028" lon="-2.97340496443212">
        <ele>30.420000000000002</ele>
        <time>2023-08-17T18:24:40Z</time>
      </trkpt>
      <trkpt lat="56.464491980150342" lon="-2.973260963335633">
        <ele>30.420000000000002</ele>
        <time>2023-08-17T18:24:41Z</time>
      </trkpt>
      <trkpt lat="56.464556017890573" lon="-2.973092989996076">
        <ele>30.420000000000002</ele>
        <time>2023-08-17T18:24:43Z</time>
      </trkpt>
      <trkpt lat="56.464556017890573" lon="-2.972988970577717">
        <ele>30.420000000000002</ele>
        <time>2023-08-17T18:24:44Z</time>
      </trkpt>
      <trkpt lat="56.464556017890573" lon="-2.972988970577717">
        <ele>30.420000000000002</ele>
        <time>2023-08-17T18:24:45Z</time>
      </trkpt>
      <trkpt lat="56.464516036212444" lon="-2.972838012501597">
        <ele>30.420000000000002</ele>
        <time>2023-08-17T18:24:46Z</time>
      </trkpt>
      <trkpt lat="56.464459961280227" lon="-2.972772968932986">
        <ele>29.940000000000001</ele>
        <time>2023-08-17T18:24:47Z</time>
      </trkpt>
      <trkpt lat="56.464405981823802" lon="-2.972745979204774">
        <ele>29.940000000000001</ele>
        <time>2023-08-17T18:24:48Z</time>
      </trkpt>
      <trkpt lat="56.464319983497262" lon="-2.972670961171389">
        <ele>29.460000000000001</ele>
        <time>2023-08-17T18:24:49Z</time>
      </trkpt>
      <trkpt lat="56.464272039011121" lon="-2.97256400808692">
        <ele>29.460000000000001</ele>
        <time>2023-08-17T18:24:50Z</time>
      </trkpt>
      <trkpt lat="56.464224010705948" lon="-2.972454959526658">
        <ele>28.98</ele>
        <time>2023-08-17T18:24:51Z</time>
      </trkpt>
      <trkpt lat="56.464190986007452" lon="-2.972364015877247">
        <ele>28.5</ele>
        <time>2023-08-17T18:24:52Z</time>
      </trkpt>
      <trkpt lat="56.464190986007452" lon="-2.97226401977241">
        <ele>28.02</ele>
        <time>2023-08-17T18:24:53Z</time>
      </trkpt>
      <trkpt lat="56.464190986007452" lon="-2.972181038931012">
        <ele>28.02</ele>
        <time>2023-08-17T18:24:54Z</time>
      </trkpt>
      <trkpt lat="56.464190986007452" lon="-2.972103003412485">
        <ele>27.530000000000001</ele>
        <time>2023-08-17T18:24:55Z</time>
      </trkpt>
      <trkpt lat="56.464190986007452" lon="-2.972035026177764">
        <ele>26.57</ele>
        <time>2023-08-17T18:24:56Z</time>
      </trkpt>
      <trkpt lat="56.464190986007452" lon="-2.971978029236198">
        <ele>26.09</ele>
        <time>2023-08-17T18:24:57Z</time>
      </trkpt>
      <trkpt lat="56.464190986007452" lon="-2.971926983445883">
        <ele>26.09</ele>
        <time>2023-08-17T18:24:58Z</time>
      </trkpt>
      <trkpt lat="56.464195009320974" lon="-2.971900999546051">
        <ele>25.609999999999999</ele>
        <time>2023-08-17T18:24:59Z</time>
      </trkpt>
      <trkpt lat="56.464195009320974" lon="-2.971900999546051">
        <ele>24.649999999999999</ele>
        <time>2023-08-17T18:25:11Z</time>
      </trkpt>
      <trkpt lat="56.464195009320974" lon="-2.971900999546051">
        <ele>24.170000000000002</ele>
        <time>2023-08-17T18:25:43Z</time>
      </trkpt>
      <trkpt lat="56.464305985718966" lon="-2.971626995131373">
        <ele>24.170000000000002</ele>
        <time>2023-08-17T18:25:47Z</time>
      </trkpt>
      <trkpt lat="56.464675040915608" lon="-2.970895003527403">
        <ele>26.57</ele>
        <time>2023-08-17T18:25:57Z</time>
      </trkpt>
      <trkpt lat="56.464686021208763" lon="-2.970863990485668">
        <ele>27.050000000000001</ele>
        <time>2023-08-17T18:26:07Z</time>
      </trkpt>
      <trkpt lat="56.464831028133631" lon="-2.970454031601548">
        <ele>28.02</ele>
        <time>2023-08-17T18:26:19Z</time>
      </trkpt>
      <trkpt lat="56.465254984796047" lon="-2.96932096593082">
        <ele>31.379999999999999</ele>
        <time>2023-08-17T18:26:28Z</time>
      </trkpt>
      <trkpt lat="56.465808022767305" lon="-2.967596976086497">
        <ele>36.670000000000002</ele>
        <time>2023-08-17T18:26:38Z</time>
      </trkpt>
      <trkpt lat="56.466331975534558" lon="-2.965529998764396">
        <ele>40.509999999999998</ele>
        <time>2023-08-17T18:26:49Z</time>
      </trkpt>
      <trkpt lat="56.466504978016019" lon="-2.964787026867271">
        <ele>42.439999999999998</ele>
        <time>2023-08-17T18:26:53Z</time>
      </trkpt>
      <trkpt lat="56.466644033789635" lon="-2.964471029117703">
        <ele>43.399999999999999</ele>
        <time>2023-08-17T18:26:55Z</time>
      </trkpt>
      <trkpt lat="56.466876966878772" lon="-2.964027039706707">
        <ele>42.920000000000002</ele>
        <time>2023-08-17T18:26:58Z</time>
      </trkpt>
      <trkpt lat="56.467105960473418" lon="-2.963608028367162">
        <ele>42.439999999999998</ele>
        <time>2023-08-17T18:27:03Z</time>
      </trkpt>
      <trkpt lat="56.467105960473418" lon="-2.963608028367162">
        <ele>42.439999999999998</ele>
        <time>2023-08-17T18:27:13Z</time>
      </trkpt>
      <trkpt lat="56.467260019853711" lon="-2.9633470159024">
        <ele>42.439999999999998</ele>
        <time>2023-08-17T18:27:38Z</time>
      </trkpt>
      <trkpt lat="56.467307964339852" lon="-2.963287001475692">
        <ele>42.439999999999998</ele>
        <time>2023-08-17T18:27:39Z</time>
      </trkpt>
      <trkpt lat="56.467363033443689" lon="-2.963217012584209">
        <ele>42.439999999999998</ele>
        <time>2023-08-17T18:27:40Z</time>
      </trkpt>
      <trkpt lat="56.467464035376906" lon="-2.963161021471024">
        <ele>42.920000000000002</ele>
        <time>2023-08-17T18:27:41Z</time>
      </trkpt>
      <trkpt lat="56.467545004561543" lon="-2.963170995935798">
        <ele>42.920000000000002</ele>
        <time>2023-08-17T18:27:42Z</time>
      </trkpt>
      <trkpt lat="56.467629997059703" lon="-2.963181976228952">
        <ele>43.399999999999999</ele>
        <time>2023-08-17T18:27:43Z</time>
      </trkpt>
      <trkpt lat="56.467719012871385" lon="-2.963193040341139">
        <ele>43.399999999999999</ele>
        <time>2023-08-17T18:27:44Z</time>
      </trkpt>
      <trkpt lat="56.468649990856647" lon="-2.963411975651979">
        <ele>44.840000000000003</ele>
        <time>2023-08-17T18:27:55Z</time>
      </trkpt>
      <trkpt lat="56.46919003687799" lon="-2.963549019768834">
        <ele>46.280000000000001</ele>
        <time>2023-08-17T18:28:00Z</time>
      </trkpt>
      <trkpt lat="56.46979495882988" lon="-2.963580032810569">
        <ele>49.159999999999997</ele>
        <time>2023-08-17T18:28:07Z</time>
      </trkpt>
      <trkpt lat="56.469860002398491" lon="-2.963568968698382">
        <ele>51.090000000000003</ele>
        <time>2023-08-17T18:28:14Z</time>
      </trkpt>
      <trkpt lat="56.470015989616513" lon="-2.963628983125091">
        <ele>52.049999999999997</ele>
        <time>2023-08-17T18:28:16Z</time>
      </trkpt>
      <trkpt lat="56.470052031800151" lon="-2.963556982576847">
        <ele>52.530000000000001</ele>
        <time>2023-08-17T18:28:17Z</time>
      </trkpt>
      <trkpt lat="56.469984976574779" lon="-2.963370988145471">
        <ele>53.009999999999998</ele>
        <time>2023-08-17T18:28:18Z</time>
      </trkpt>
      <trkpt lat="56.469984976574779" lon="-2.963254982605577">
        <ele>53.490000000000002</ele>
        <time>2023-08-17T18:28:19Z</time>
      </trkpt>
      <trkpt lat="56.469984976574779" lon="-2.963130008429289">
        <ele>54.450000000000003</ele>
        <time>2023-08-17T18:28:20Z</time>
      </trkpt>
      <trkpt lat="56.469984976574779" lon="-2.962990030646324">
        <ele>54.93</ele>
        <time>2023-08-17T18:28:21Z</time>
      </trkpt>
      <trkpt lat="56.469984976574779" lon="-2.962839994579554">
        <ele>54.93</ele>
        <time>2023-08-17T18:28:22Z</time>
      </trkpt>
      <trkpt lat="56.469984976574779" lon="-2.962671015411615">
        <ele>55.409999999999997</ele>
        <time>2023-08-17T18:28:23Z</time>
      </trkpt>
      <trkpt lat="56.470037028193474" lon="-2.962311012670398">
        <ele>56.369999999999997</ele>
        <time>2023-08-17T18:28:25Z</time>
      </trkpt>
      <trkpt lat="56.47007298655808" lon="-2.962148990482092">
        <ele>56.859999999999999</ele>
        <time>2023-08-17T18:28:26Z</time>
      </trkpt>
      <trkpt lat="56.470109028741717" lon="-2.961985040456057">
        <ele>56.859999999999999</ele>
        <time>2023-08-17T18:28:27Z</time>
      </trkpt>
      <trkpt lat="56.470600962638855" lon="-2.960199024528265">
        <ele>57.82</ele>
        <time>2023-08-17T18:28:37Z</time>
      </trkpt>
      <trkpt lat="56.470785029232502" lon="-2.959687979891896">
        <ele>58.299999999999997</ele>
        <time>2023-08-17T18:28:40Z</time>
      </trkpt>
      <trkpt lat="56.470862980931997" lon="-2.959539033472538">
        <ele>58.780000000000001</ele>
        <time>2023-08-17T18:28:41Z</time>
      </trkpt>
      <trkpt lat="56.471278974786401" lon="-2.958850041031838">
        <ele>61.18</ele>
        <time>2023-08-17T18:28:46Z</time>
      </trkpt>
      <trkpt lat="56.471365978941321" lon="-2.958717020228505">
        <ele>62.140000000000001</ele>
        <time>2023-08-17T18:28:47Z</time>
      </trkpt>
      <trkpt lat="56.472556041553617" lon="-2.956826984882355">
        <ele>69.829999999999998</ele>
        <time>2023-08-17T18:29:01Z</time>
      </trkpt>
      <trkpt lat="56.472863992676139" lon="-2.956371009349823">
        <ele>71.269999999999996</ele>
        <time>2023-08-17T18:29:06Z</time>
      </trkpt>
      <trkpt lat="56.472933981567621" lon="-2.956319963559508">
        <ele>71.269999999999996</ele>
        <time>2023-08-17T18:29:07Z</time>
      </trkpt>
      <trkpt lat="56.473000030964613" lon="-2.956271013244987">
        <ele>71.760000000000005</ele>
        <time>2023-08-17T18:29:08Z</time>
      </trkpt>
      <trkpt lat="56.473764963448048" lon="-2.955759968608618">
        <ele>75.599999999999994</ele>
        <time>2023-08-17T18:29:17Z</time>
      </trkpt>
      <trkpt lat="56.474153967574239" lon="-2.955509014427662">
        <ele>77.519999999999996</ele>
        <time>2023-08-17T18:29:21Z</time>
      </trkpt>
      <trkpt lat="56.47473500110209" lon="-2.955129984766245">
        <ele>81.849999999999994</ele>
        <time>2023-08-17T18:29:27Z</time>
      </trkpt>
      <trkpt lat="56.475377976894379" lon="-2.954666968435049">
        <ele>87.140000000000001</ele>
        <time>2023-08-17T18:29:33Z</time>
      </trkpt>
      <trkpt lat="56.47587401792407" lon="-2.954185009002686">
        <ele>90.980000000000004</ele>
        <time>2023-08-17T18:29:38Z</time>
      </trkpt>
      <trkpt lat="56.477028960362077" lon="-2.953531974926591">
        <ele>99.150000000000006</ele>
        <time>2023-08-17T18:29:49Z</time>
      </trkpt>
      <trkpt lat="56.477028960362077" lon="-2.953531974926591">
        <ele>99.150000000000006</ele>
        <time>2023-08-17T18:29:50Z</time>
      </trkpt>
      <trkpt lat="56.477297013625503" lon="-2.953404989093542">
        <ele>100.11</ele>
        <time>2023-08-17T18:29:53Z</time>
      </trkpt>
      <trkpt lat="56.477340012788773" lon="-2.953384034335613">
        <ele>100.59999999999999</ele>
        <time>2023-08-17T18:29:54Z</time>
      </trkpt>
      <trkpt lat="56.477446965873241" lon="-2.953333994373679">
        <ele>102.04000000000001</ele>
        <time>2023-08-17T18:30:02Z</time>
      </trkpt>
      <trkpt lat="56.477658022195101" lon="-2.953233998268843">
        <ele>102.52</ele>
        <time>2023-08-17T18:30:16Z</time>
      </trkpt>
      <trkpt lat="56.478575002402067" lon="-2.952743992209435">
        <ele>102.04000000000001</ele>
        <time>2023-08-17T18:30:26Z</time>
      </trkpt>
      <trkpt lat="56.479332977905869" lon="-2.952391030266881">
        <ele>98.189999999999998</ele>
        <time>2023-08-17T18:30:35Z</time>
      </trkpt>
      <trkpt lat="56.479893978685141" lon="-2.952335039153695">
        <ele>92.900000000000006</ele>
        <time>2023-08-17T18:30:43Z</time>
      </trkpt>
      <trkpt lat="56.479922980070114" lon="-2.952364040538669">
        <ele>91.939999999999998</ele>
        <time>2023-08-17T18:30:44Z</time>
      </trkpt>
      <trkpt lat="56.479944018647075" lon="-2.952386001124978">
        <ele>91.459999999999994</ele>
        <time>2023-08-17T18:30:45Z</time>
      </trkpt>
      <trkpt lat="56.479957010596991" lon="-2.952397987246513">
        <ele>90.5</ele>
        <time>2023-08-17T18:30:46Z</time>
      </trkpt>
      <trkpt lat="56.479957010596991" lon="-2.952397987246513">
        <ele>90.019999999999996</ele>
        <time>2023-08-17T18:31:02Z</time>
      </trkpt>
      <trkpt lat="56.479957010596991" lon="-2.952397987246513">
        <ele>89.540000000000006</ele>
        <time>2023-08-17T18:31:49Z</time>
      </trkpt>
      <trkpt lat="56.479987017810345" lon="-2.952427994459868">
        <ele>89.060000000000002</ele>
        <time>2023-08-17T18:31:55Z</time>
      </trkpt>
      <trkpt lat="56.480033034458756" lon="-2.952474011108279">
        <ele>88.579999999999998</ele>
        <time>2023-08-17T18:31:56Z</time>
      </trkpt>
      <trkpt lat="56.480083996430039" lon="-2.952524973079562">
        <ele>88.099999999999994</ele>
        <time>2023-08-17T18:31:57Z</time>
      </trkpt>
      <trkpt lat="56.480097994208336" lon="-2.952573001384735">
        <ele>87.140000000000001</ele>
        <time>2023-08-17T18:31:58Z</time>
      </trkpt>
      <trkpt lat="56.480112997815013" lon="-2.952662017196417">
        <ele>86.659999999999997</ele>
        <time>2023-08-17T18:31:59Z</time>
      </trkpt>
      <trkpt lat="56.480122972279787" lon="-2.952761007472873">
        <ele>86.180000000000007</ele>
        <time>2023-08-17T18:32:00Z</time>
      </trkpt>
      <trkpt lat="56.480134958401322" lon="-2.952881036326289">
        <ele>86.180000000000007</ele>
        <time>2023-08-17T18:32:01Z</time>
      </trkpt>
      <trkpt lat="56.480152979493141" lon="-2.952962005510926">
        <ele>86.180000000000007</ele>
        <time>2023-08-17T18:32:02Z</time>
      </trkpt>
      <trkpt lat="56.480301003903151" lon="-2.952974997460842">
        <ele>86.180000000000007</ele>
        <time>2023-08-17T18:32:03Z</time>
      </trkpt>
      <trkpt lat="56.480353977531195" lon="-2.95294901356101">
        <ele>85.689999999999998</ele>
        <time>2023-08-17T18:32:04Z</time>
      </trkpt>
      <trkpt lat="56.480425978079438" lon="-2.952912971377373">
        <ele>85.209999999999994</ele>
        <time>2023-08-17T18:32:05Z</time>
      </trkpt>
      <trkpt lat="56.480511976405978" lon="-2.952869972214103">
        <ele>85.209999999999994</ele>
        <time>2023-08-17T18:32:06Z</time>
      </trkpt>
      <trkpt lat="56.480601998046041" lon="-2.9528200160712">
        <ele>84.730000000000004</ele>
        <time>2023-08-17T18:32:07Z</time>
      </trkpt>
      <trkpt lat="56.480704005807638" lon="-2.952743992209435">
        <ele>84.25</ele>
        <time>2023-08-17T18:32:08Z</time>
      </trkpt>
      <trkpt lat="56.481807986274362" lon="-2.952146027237177">
        <ele>78.969999999999999</ele>
        <time>2023-08-17T18:32:16Z</time>
      </trkpt>
      <trkpt lat="56.483137020841241" lon="-2.951799016445875">
        <ele>69.349999999999994</ele>
        <time>2023-08-17T18:32:26Z</time>
      </trkpt>
      <trkpt lat="56.484393971040845" lon="-2.951499028131366">
        <ele>60.700000000000003</ele>
        <time>2023-08-17T18:32:37Z</time>
      </trkpt>
      <trkpt lat="56.485269041731954" lon="-2.951246984302998">
        <ele>57.82</ele>
        <time>2023-08-17T18:32:47Z</time>
      </trkpt>
      <trkpt lat="56.486314013600349" lon="-2.950876001268625">
        <ele>53.969999999999999</ele>
        <time>2023-08-17T18:32:57Z</time>
      </trkpt>
      <trkpt lat="56.487802974879742" lon="-2.950726971030235">
        <ele>52.530000000000001</ele>
        <time>2023-08-17T18:33:08Z</time>
      </trkpt>
      <trkpt lat="56.48840001784265" lon="-2.950709033757448">
        <ele>53.490000000000002</ele>
        <time>2023-08-17T18:33:12Z</time>
      </trkpt>
      <trkpt lat="56.48855198174715" lon="-2.950709033757448">
        <ele>53.969999999999999</ele>
        <time>2023-08-17T18:33:13Z</time>
      </trkpt>
      <trkpt lat="56.490241019055247" lon="-2.950644996017218">
        <ele>60.700000000000003</ele>
        <time>2023-08-17T18:33:25Z</time>
      </trkpt>
      <trkpt lat="56.491210972890258" lon="-2.950669974088669">
        <ele>63.100000000000001</ele>
        <time>2023-08-17T18:33:35Z</time>
      </trkpt>
      <trkpt lat="56.491337036713958" lon="-2.950678020715714">
        <ele>62.619999999999997</ele>
        <time>2023-08-17T18:33:37Z</time>
      </trkpt>
      <trkpt lat="56.491397973150015" lon="-2.950681038200855">
        <ele>63.100000000000001</ele>
        <time>2023-08-17T18:33:38Z</time>
      </trkpt>
      <trkpt lat="56.49157801643014" lon="-2.950690006837249">
        <ele>63.100000000000001</ele>
        <time>2023-08-17T18:33:41Z</time>
      </trkpt>
      <trkpt lat="56.491651022806764" lon="-2.950663017109036">
        <ele>63.100000000000001</ele>
        <time>2023-08-17T18:33:42Z</time>
      </trkpt>
      <trkpt lat="56.492235995829105" lon="-2.95060602016747">
        <ele>64.069999999999993</ele>
        <time>2023-08-17T18:33:49Z</time>
      </trkpt>
      <trkpt lat="56.493652034550905" lon="-2.950442992150784">
        <ele>71.760000000000005</ele>
        <time>2023-08-17T18:33:58Z</time>
      </trkpt>
      <trkpt lat="56.494357958436012" lon="-2.950066979974508">
        <ele>77.040000000000006</ele>
        <time>2023-08-17T18:34:04Z</time>
      </trkpt>
      <trkpt lat="56.494444962590933" lon="-2.950088018551469">
        <ele>77.519999999999996</ele>
        <time>2023-08-17T18:34:05Z</time>
      </trkpt>
      <trkpt lat="56.49452299810946" lon="-2.950108973309398">
        <ele>78.480000000000004</ele>
        <time>2023-08-17T18:34:06Z</time>
      </trkpt>
      <trkpt lat="56.494664987549186" lon="-2.950170999392867">
        <ele>79.450000000000003</ele>
        <time>2023-08-17T18:34:08Z</time>
      </trkpt>
      <trkpt lat="56.49473899975419" lon="-2.950173011049628">
        <ele>79.930000000000007</ele>
        <time>2023-08-17T18:34:09Z</time>
      </trkpt>
      <trkpt lat="56.494904961436987" lon="-2.95017602853477">
        <ele>80.890000000000001</ele>
        <time>2023-08-17T18:34:11Z</time>
      </trkpt>
      <trkpt lat="56.494990037754178" lon="-2.95021902769804">
        <ele>81.370000000000005</ele>
        <time>2023-08-17T18:34:12Z</time>
      </trkpt>
      <trkpt lat="56.495078969746828" lon="-2.950264038518071">
        <ele>81.849999999999994</ele>
        <time>2023-08-17T18:34:13Z</time>
      </trkpt>
      <trkpt lat="56.495278961956501" lon="-2.950310977175832">
        <ele>83.290000000000006</ele>
        <time>2023-08-17T18:34:15Z</time>
      </trkpt>
      <trkpt lat="56.495385998860002" lon="-2.950331009924412">
        <ele>83.769999999999996</ele>
        <time>2023-08-17T18:34:16Z</time>
      </trkpt>
      <trkpt lat="56.49645896628499" lon="-2.950298991054297">
        <ele>88.099999999999994</ele>
        <time>2023-08-17T18:34:24Z</time>
      </trkpt>
      <trkpt lat="56.497967960312963" lon="-2.950005037710071">
        <ele>92.900000000000006</ele>
        <time>2023-08-17T18:34:32Z</time>
      </trkpt>
      <trkpt lat="56.499751964583993" lon="-2.949377987533808">
        <ele>100.59999999999999</ele>
        <time>2023-08-17T18:34:40Z</time>
      </trkpt>
      <trkpt lat="56.501985993236303" lon="-2.948275012895465">
        <ele>112.13</ele>
        <time>2023-08-17T18:34:50Z</time>
      </trkpt>
      <trkpt lat="56.505408994853497" lon="-2.94661296531558">
        <ele>125.59</ele>
        <time>2023-08-17T18:35:02Z</time>
      </trkpt>
      <trkpt lat="56.507555013522506" lon="-2.946004020050168">
        <ele>126.55</ele>
        <time>2023-08-17T18:35:10Z</time>
      </trkpt>
      <trkpt lat="56.510732006281614" lon="-2.94568601064384">
        <ele>119.81999999999999</ele>
        <time>2023-08-17T18:35:22Z</time>
      </trkpt>
      <trkpt lat="56.513689979910851" lon="-2.945419969037175">
        <ele>121.73999999999999</ele>
        <time>2023-08-17T18:35:33Z</time>
      </trkpt>
      <trkpt lat="56.51766199618578" lon="-2.945088967680931">
        <ele>123.67</ele>
        <time>2023-08-17T18:35:48Z</time>
      </trkpt>
      <trkpt lat="56.521674999967217" lon="-2.944768024608493">
        <ele>134.24000000000001</ele>
        <time>2023-08-17T18:36:03Z</time>
      </trkpt>
      <trkpt lat="56.52488199993968" lon="-2.944717984646559">
        <ele>139.53</ele>
        <time>2023-08-17T18:36:15Z</time>
      </trkpt>
      <trkpt lat="56.527807032689452" lon="-2.944409027695656">
        <ele>146.25999999999999</ele>
        <time>2023-08-17T18:36:26Z</time>
      </trkpt>
      <trkpt lat="56.529665971174836" lon="-2.944885035976768">
        <ele>150.58000000000001</ele>
        <time>2023-08-17T18:36:33Z</time>
      </trkpt>
      <trkpt lat="56.532529983669519" lon="-2.946065962314606">
        <ele>155.38999999999999</ele>
        <time>2023-08-17T18:36:44Z</time>
      </trkpt>
      <trkpt lat="56.535456022247672" lon="-2.94656602665782">
        <ele>158.75</ele>
        <time>2023-08-17T18:36:55Z</time>
      </trkpt>
      <trkpt lat="56.538114007562399" lon="-2.946328986436129">
        <ele>161.63999999999999</ele>
        <time>2023-08-17T18:37:05Z</time>
      </trkpt>
      <trkpt lat="56.540967039763927" lon="-2.945259036496282">
        <ele>168.37</ele>
        <time>2023-08-17T18:37:16Z</time>
      </trkpt>
      <trkpt lat="56.543967006728053" lon="-2.943182000890374">
        <ele>183.27000000000001</ele>
        <time>2023-08-17T18:37:28Z</time>
      </trkpt>
      <trkpt lat="56.547384979203343" lon="-2.940341038629413">
        <ele>202.97999999999999</ele>
        <time>2023-08-17T18:37:42Z</time>
      </trkpt>
      <trkpt lat="56.551273008808494" lon="-2.937011998146772">
        <ele>218.36000000000001</ele>
        <time>2023-08-17T18:37:58Z</time>
      </trkpt>
      <trkpt lat="56.552986018359661" lon="-2.934672022238374">
        <ele>219.80000000000001</ele>
        <time>2023-08-17T18:38:06Z</time>
      </trkpt>
      <trkpt lat="56.554368026554585" lon="-2.931728968396783">
        <ele>214.03</ele>
        <time>2023-08-17T18:38:14Z</time>
      </trkpt>
      <trkpt lat="56.556295026093721" lon="-2.927098972722888">
        <ele>200.09</ele>
        <time>2023-08-17T18:38:26Z</time>
      </trkpt>
      <trkpt lat="56.55796897597611" lon="-2.924710968509316">
        <ele>189.03999999999999</ele>
        <time>2023-08-17T18:38:34Z</time>
      </trkpt>
      <trkpt lat="56.559897987172008" lon="-2.923086974769831">
        <ele>181.34999999999999</ele>
        <time>2023-08-17T18:38:42Z</time>
      </trkpt>
      <trkpt lat="56.563478987663984" lon="-2.921189982444048">
        <ele>174.13999999999999</ele>
        <time>2023-08-17T18:38:56Z</time>
      </trkpt>
      <trkpt lat="56.567596010863781" lon="-2.918982021510601">
        <ele>168.84999999999999</ele>
        <time>2023-08-17T18:39:12Z</time>
      </trkpt>
      <trkpt lat="56.571941021829844" lon="-2.91655101813376">
        <ele>165.47999999999999</ele>
        <time>2023-08-17T18:39:29Z</time>
      </trkpt>
      <trkpt lat="56.575536020100117" lon="-2.914543971419334">
        <ele>161.16</ele>
        <time>2023-08-17T18:39:43Z</time>
      </trkpt>
      <trkpt lat="56.578444037586451" lon="-2.913447031751275">
        <ele>155.87</ele>
        <time>2023-08-17T18:39:55Z</time>
      </trkpt>
      <trkpt lat="56.581892017275095" lon="-2.91298896074295">
        <ele>138.09</ele>
        <time>2023-08-17T18:40:07Z</time>
      </trkpt>
      <trkpt lat="56.585071021690965" lon="-2.91330998763442">
        <ele>119.34</ele>
        <time>2023-08-17T18:40:19Z</time>
      </trkpt>
      <trkpt lat="56.588003011420369" lon="-2.913101026788354">
        <ele>105.88</ele>
        <time>2023-08-17T18:40:30Z</time>
      </trkpt>
      <trkpt lat="56.592256994917989" lon="-2.912025041878223">
        <ele>90.5</ele>
        <time>2023-08-17T18:40:46Z</time>
      </trkpt>
      <trkpt lat="56.595098040997982" lon="-2.910811007022858">
        <ele>80.409999999999997</ele>
        <time>2023-08-17T18:40:57Z</time>
      </trkpt>
      <trkpt lat="56.598856989294291" lon="-2.908434988930821">
        <ele>82.329999999999998</ele>
        <time>2023-08-17T18:41:12Z</time>
      </trkpt>
      <trkpt lat="56.601788979023695" lon="-2.906014965847135">
        <ele>90.019999999999996</ele>
        <time>2023-08-17T18:41:24Z</time>
      </trkpt>
      <trkpt lat="56.604217970743775" lon="-2.9040049854666">
        <ele>96.75</ele>
        <time>2023-08-17T18:41:34Z</time>
      </trkpt>
      <trkpt lat="56.607260014861822" lon="-2.902132971212268">
        <ele>105.88</ele>
        <time>2023-08-17T18:41:46Z</time>
      </trkpt>
      <trkpt lat="56.609910037368536" lon="-2.901197969913483">
        <ele>113.56999999999999</ele>
        <time>2023-08-17T18:41:57Z</time>
      </trkpt>
      <trkpt lat="56.612860970199108" lon="-2.901086993515492">
        <ele>118.38</ele>
        <time>2023-08-17T18:42:07Z</time>
      </trkpt>
      <trkpt lat="56.61550797522068" lon="-2.901900038123131">
        <ele>121.73999999999999</ele>
        <time>2023-08-17T18:42:17Z</time>
      </trkpt>
      <trkpt lat="56.618275009095669" lon="-2.903689993545413">
        <ele>124.15000000000001</ele>
        <time>2023-08-17T18:42:28Z</time>
      </trkpt>
      <trkpt lat="56.620591012760997" lon="-2.906160978600383">
        <ele>124.15000000000001</ele>
        <time>2023-08-17T18:42:38Z</time>
      </trkpt>
      <trkpt lat="56.622428996488452" lon="-2.909002024680376">
        <ele>122.70999999999999</ele>
        <time>2023-08-17T18:42:47Z</time>
      </trkpt>
      <trkpt lat="56.623903037980199" lon="-2.911868970841169">
        <ele>120.3</ele>
        <time>2023-08-17T18:42:55Z</time>
      </trkpt>
      <trkpt lat="56.625920981168747" lon="-2.915751971304417">
        <ele>109.73</ele>
        <time>2023-08-17T18:43:06Z</time>
      </trkpt>
      <trkpt lat="56.62777598015964" lon="-2.918494027107954">
        <ele>98.670000000000002</ele>
        <time>2023-08-17T18:43:15Z</time>
      </trkpt>
      <trkpt lat="56.630504038184881" lon="-2.921530036255717">
        <ele>83.769999999999996</ele>
        <time>2023-08-17T18:43:27Z</time>
      </trkpt>
      <trkpt lat="56.633182978257537" lon="-2.923658033832908">
        <ele>73.680000000000007</ele>
        <time>2023-08-17T18:43:38Z</time>
      </trkpt>
      <trkpt lat="56.636018995195627" lon="-2.925074994564056">
        <ele>66.469999999999999</ele>
        <time>2023-08-17T18:43:49Z</time>
      </trkpt>
      <trkpt lat="56.638927012681961" lon="-2.92576901614666">
        <ele>62.619999999999997</ele>
        <time>2023-08-17T18:44:00Z</time>
      </trkpt>
      <trkpt lat="56.642394019290805" lon="-2.925610011443496">
        <ele>62.619999999999997</ele>
        <time>2023-08-17T18:44:13Z</time>
      </trkpt>
      <trkpt lat="56.645549973472953" lon="-2.924570990726352">
        <ele>66.950000000000003</ele>
        <time>2023-08-17T18:44:25Z</time>
      </trkpt>
      <trkpt lat="56.648898962885141" lon="-2.922857981175184">
        <ele>72.719999999999999</ele>
        <time>2023-08-17T18:44:38Z</time>
      </trkpt>
      <trkpt lat="56.652979021891952" lon="-2.920371992513537">
        <ele>74.640000000000001</ele>
        <time>2023-08-17T18:44:54Z</time>
      </trkpt>
      <trkpt lat="56.655976977199316" lon="-2.918277019634843">
        <ele>70.310000000000002</ele>
        <time>2023-08-17T18:45:06Z</time>
      </trkpt>
      <trkpt lat="56.660146974027157" lon="-2.914960971102119">
        <ele>69.829999999999998</ele>
        <time>2023-08-17T18:45:23Z</time>
      </trkpt>
      <trkpt lat="56.663908017799258" lon="-2.911265976727009">
        <ele>70.790000000000006</ele>
        <time>2023-08-17T18:45:39Z</time>
      </trkpt>
      <trkpt lat="56.666966993361712" lon="-2.907374007627368">
        <ele>71.760000000000005</ele>
        <time>2023-08-17T18:45:53Z</time>
      </trkpt>
      <trkpt lat="56.669760011136532" lon="-2.902869991958141">
        <ele>77.519999999999996</ele>
        <time>2023-08-17T18:46:07Z</time>
      </trkpt>
      <trkpt lat="56.672085989266634" lon="-2.898175036534667">
        <ele>83.769999999999996</ele>
        <time>2023-08-17T18:46:20Z</time>
      </trkpt>
      <trkpt lat="56.674282969906926" lon="-2.892680028453469">
        <ele>90.019999999999996</ele>
        <time>2023-08-17T18:46:34Z</time>
      </trkpt>
      <trkpt lat="56.675995979458094" lon="-2.887165993452072">
        <ele>90.5</ele>
        <time>2023-08-17T18:46:47Z</time>
      </trkpt>
      <trkpt lat="56.677789958193898" lon="-2.880101976916194">
        <ele>87.620000000000005</ele>
        <time>2023-08-17T18:47:03Z</time>
      </trkpt>
      <trkpt lat="56.679817037656903" lon="-2.872151993215084">
        <ele>85.209999999999994</ele>
        <time>2023-08-17T18:47:21Z</time>
      </trkpt>
      <trkpt lat="56.682075960561633" lon="-2.863888023421168">
        <ele>82.329999999999998</ele>
        <time>2023-08-17T18:47:40Z</time>
      </trkpt>
      <trkpt lat="56.683753011748195" lon="-2.858892995864153">
        <ele>78.969999999999999</ele>
        <time>2023-08-17T18:47:52Z</time>
      </trkpt>
      <trkpt lat="56.685687974095345" lon="-2.854260988533497">
        <ele>76.079999999999998</ele>
        <time>2023-08-17T18:48:04Z</time>
      </trkpt>
      <trkpt lat="56.688353000208735" lon="-2.848797999322414">
        <ele>72.719999999999999</ele>
        <time>2023-08-17T18:48:19Z</time>
      </trkpt>
      <trkpt lat="56.691680029034615" lon="-2.842461029067636">
        <ele>68.870000000000005</ele>
        <time>2023-08-17T18:48:37Z</time>
      </trkpt>
      <trkpt lat="56.69450799934566" lon="-2.83727397210896">
        <ele>67.909999999999997</ele>
        <time>2023-08-17T18:48:52Z</time>
      </trkpt>
      <trkpt lat="56.696673966944218" lon="-2.833675034344196">
        <ele>68.870000000000005</ele>
        <time>2023-08-17T18:49:03Z</time>
      </trkpt>
      <trkpt lat="56.698156977072358" lon="-2.832516990602016">
        <ele>65.989999999999995</ele>
        <time>2023-08-17T18:49:09Z</time>
      </trkpt>
      <trkpt lat="56.700013987720013" lon="-2.832117006182671">
        <ele>61.18</ele>
        <time>2023-08-17T18:49:16Z</time>
      </trkpt>
      <trkpt lat="56.702116001397371" lon="-2.831718027591705">
        <ele>57.82</ele>
        <time>2023-08-17T18:49:24Z</time>
      </trkpt>
      <trkpt lat="56.703787017613649" lon="-2.830278016626835">
        <ele>57.82</ele>
        <time>2023-08-17T18:49:31Z</time>
      </trkpt>
      <trkpt lat="56.7049500066787" lon="-2.82827096991241">
        <ele>59.259999999999998</ele>
        <time>2023-08-17T18:49:37Z</time>
      </trkpt>
      <trkpt lat="56.70576699078083" lon="-2.825792022049427">
        <ele>60.700000000000003</ele>
        <time>2023-08-17T18:49:43Z</time>
      </trkpt>
      <trkpt lat="56.707324013113976" lon="-2.819587988778949">
        <ele>60.700000000000003</ele>
        <time>2023-08-17T18:49:57Z</time>
      </trkpt>
      <trkpt lat="56.709185969084501" lon="-2.812584992498159">
        <ele>61.18</ele>
        <time>2023-08-17T18:50:13Z</time>
      </trkpt>
      <trkpt lat="56.710779033601284" lon="-2.806941037997603">
        <ele>62.140000000000001</ele>
        <time>2023-08-17T18:50:26Z</time>
      </trkpt>
      <trkpt lat="56.712638977915049" lon="-2.800472974777222">
        <ele>61.659999999999997</ele>
        <time>2023-08-17T18:50:41Z</time>
      </trkpt>
      <trkpt lat="56.713666012510657" lon="-2.795959990471602">
        <ele>58.299999999999997</ele>
        <time>2023-08-17T18:50:51Z</time>
      </trkpt>
      <trkpt lat="56.715190010145307" lon="-2.788174962624908">
        <ele>55.409999999999997</ele>
        <time>2023-08-17T18:51:08Z</time>
      </trkpt>
      <trkpt lat="56.716566989198327" lon="-2.781319990754128">
        <ele>51.57</ele>
        <time>2023-08-17T18:51:23Z</time>
      </trkpt>
      <trkpt lat="56.717515988275409" lon="-2.776784962043166">
        <ele>50.609999999999999</ele>
        <time>2023-08-17T18:51:33Z</time>
      </trkpt>
      <trkpt lat="56.718338001519442" lon="-2.771645011380315">
        <ele>52.530000000000001</ele>
        <time>2023-08-17T18:51:44Z</time>
      </trkpt>
      <trkpt lat="56.71949596144259" lon="-2.763629984110594">
        <ele>52.049999999999997</ele>
        <time>2023-08-17T18:52:01Z</time>
      </trkpt>
      <trkpt lat="56.720237005501986" lon="-2.761064032092691">
        <ele>50.609999999999999</ele>
        <time>2023-08-17T18:52:07Z</time>
      </trkpt>
      <trkpt lat="56.721636028960347" lon="-2.758135981857777">
        <ele>51.57</ele>
        <time>2023-08-17T18:52:15Z</time>
      </trkpt>
      <trkpt lat="56.72254697419703" lon="-2.755187982693315">
        <ele>53.009999999999998</ele>
        <time>2023-08-17T18:52:22Z</time>
      </trkpt>
      <trkpt lat="56.723118033260107" lon="-2.751452000811696">
        <ele>55.409999999999997</ele>
        <time>2023-08-17T18:52:30Z</time>
      </trkpt>
      <trkpt lat="56.723819011822343" lon="-2.746743969619274">
        <ele>58.299999999999997</ele>
        <time>2023-08-17T18:52:40Z</time>
      </trkpt>
      <trkpt lat="56.724849985912442" lon="-2.741194982081652">
        <ele>59.259999999999998</ele>
        <time>2023-08-17T18:52:52Z</time>
      </trkpt>
      <trkpt lat="56.7251440230757" lon="-2.737350035458803">
        <ele>61.18</ele>
        <time>2023-08-17T18:53:00Z</time>
      </trkpt>
      <trkpt lat="56.725182998925447" lon="-2.731013987213373">
        <ele>59.740000000000002</ele>
        <time>2023-08-17T18:53:13Z</time>
      </trkpt>
      <trkpt lat="56.725318031385541" lon="-2.726164972409606">
        <ele>60.700000000000003</ele>
        <time>2023-08-17T18:53:23Z</time>
      </trkpt>
      <trkpt lat="56.725922031328082" lon="-2.7184599917382">
        <ele>63.100000000000001</ele>
        <time>2023-08-17T18:53:39Z</time>
      </trkpt>
      <trkpt lat="56.726898020133376" lon="-2.711871983483434">
        <ele>62.140000000000001</ele>
        <time>2023-08-17T18:53:53Z</time>
      </trkpt>
      <trkpt lat="56.72755197621882" lon="-2.706158962100744">
        <ele>58.780000000000001</ele>
        <time>2023-08-17T18:54:05Z</time>
      </trkpt>
      <trkpt lat="56.728516984730959" lon="-2.701625023037195">
        <ele>59.740000000000002</ele>
        <time>2023-08-17T18:54:15Z</time>
      </trkpt>
      <trkpt lat="56.729254005476832" lon="-2.698932001367211">
        <ele>60.700000000000003</ele>
        <time>2023-08-17T18:54:22Z</time>
      </trkpt>
      <trkpt lat="56.729638986289501" lon="-2.697611013427377">
        <ele>63.100000000000001</ele>
        <time>2023-08-17T18:54:27Z</time>
      </trkpt>
      <trkpt lat="56.729686008766294" lon="-2.697480004280806">
        <ele>63.579999999999998</ele>
        <time>2023-08-17T18:54:28Z</time>
      </trkpt>
      <trkpt lat="56.729777036234736" lon="-2.697523003444076">
        <ele>63.579999999999998</ele>
        <time>2023-08-17T18:54:29Z</time>
      </trkpt>
      <trkpt lat="56.729833027347922" lon="-2.697492996230722">
        <ele>64.069999999999993</ele>
        <time>2023-08-17T18:54:30Z</time>
      </trkpt>
      <trkpt lat="56.729897987097502" lon="-2.697458965703845">
        <ele>64.549999999999997</ele>
        <time>2023-08-17T18:54:31Z</time>
      </trkpt>
      <trkpt lat="56.729987002909184" lon="-2.697451002895832">
        <ele>65.030000000000001</ele>
        <time>2023-08-17T18:54:32Z</time>
      </trkpt>
      <trkpt lat="56.73006403259933" lon="-2.697549993172288">
        <ele>65.030000000000001</ele>
        <time>2023-08-17T18:54:33Z</time>
      </trkpt>
      <trkpt lat="56.730141984298825" lon="-2.697652000933886">
        <ele>65.510000000000005</ele>
        <time>2023-08-17T18:54:34Z</time>
      </trkpt>
      <trkpt lat="56.730207027867436" lon="-2.697816034778953">
        <ele>65.510000000000005</ele>
        <time>2023-08-17T18:54:35Z</time>
      </trkpt>
      <trkpt lat="56.730246003717184" lon="-2.697989037260413">
        <ele>65.989999999999995</ele>
        <time>2023-08-17T18:54:36Z</time>
      </trkpt>
      <trkpt lat="56.730286991223693" lon="-2.698171008378267">
        <ele>66.469999999999999</ele>
        <time>2023-08-17T18:54:37Z</time>
      </trkpt>
      <trkpt lat="56.730261007323861" lon="-2.698387010022998">
        <ele>66.950000000000003</ele>
        <time>2023-08-17T18:54:38Z</time>
      </trkpt>
      <trkpt lat="56.73023602925241" lon="-2.698589013889432">
        <ele>67.430000000000007</ele>
        <time>2023-08-17T18:54:39Z</time>
      </trkpt>
      <trkpt lat="56.730181965976954" lon="-2.698779031634331">
        <ele>67.430000000000007</ele>
        <time>2023-08-17T18:54:40Z</time>
      </trkpt>
      <trkpt lat="56.730095967650414" lon="-2.698940970003605">
        <ele>67.909999999999997</ele>
        <time>2023-08-17T18:54:41Z</time>
      </trkpt>
      <trkpt lat="56.729993037879467" lon="-2.699026968330145">
        <ele>68.870000000000005</ele>
        <time>2023-08-17T18:54:42Z</time>
      </trkpt>
      <trkpt lat="56.729878960177302" lon="-2.699031997472048">
        <ele>69.349999999999994</ele>
        <time>2023-08-17T18:54:43Z</time>
      </trkpt>
      <trkpt lat="56.72976597212255" lon="-2.699031997472048">
        <ele>69.829999999999998</ele>
        <time>2023-08-17T18:54:44Z</time>
      </trkpt>
      <trkpt lat="56.729658013209701" lon="-2.69897198304534">
        <ele>70.790000000000006</ele>
        <time>2023-08-17T18:54:45Z</time>
      </trkpt>
      <trkpt lat="56.729552987962961" lon="-2.698882967233658">
        <ele>71.269999999999996</ele>
        <time>2023-08-17T18:54:46Z</time>
      </trkpt>
      <trkpt lat="56.729445029050112" lon="-2.698792023584247">
        <ele>71.760000000000005</ele>
        <time>2023-08-17T18:54:47Z</time>
      </trkpt>
      <trkpt lat="56.728602983057499" lon="-2.69800404086709">
        <ele>72.719999999999999</ele>
        <time>2023-08-17T18:54:55Z</time>
      </trkpt>
      <trkpt lat="56.728526037186384" lon="-2.697932962328196">
        <ele>72.719999999999999</ele>
        <time>2023-08-17T18:54:56Z</time>
      </trkpt>
      <trkpt lat="56.728488989174366" lon="-2.697693994268775">
        <ele>72.719999999999999</ele>
        <time>2023-08-17T18:54:57Z</time>
      </trkpt>
      <trkpt lat="56.728407014161348" lon="-2.69765904173255">
        <ele>72.239999999999995</ele>
        <time>2023-08-17T18:54:58Z</time>
      </trkpt>
      <trkpt lat="56.72832596115768" lon="-2.697521997615695">
        <ele>72.239999999999995</ele>
        <time>2023-08-17T18:54:59Z</time>
      </trkpt>
      <trkpt lat="56.728282039985061" lon="-2.697354024276137">
        <ele>71.760000000000005</ele>
        <time>2023-08-17T18:55:00Z</time>
      </trkpt>
      <trkpt lat="56.728234011679888" lon="-2.697172975167632">
        <ele>71.760000000000005</ele>
        <time>2023-08-17T18:55:01Z</time>
      </trkpt>
      <trkpt lat="56.728182965889573" lon="-2.696983041241765">
        <ele>71.269999999999996</ele>
        <time>2023-08-17T18:55:02Z</time>
      </trkpt>
      <trkpt lat="56.728126974776387" lon="-2.696536034345627">
        <ele>70.310000000000002</ele>
        <time>2023-08-17T18:55:04Z</time>
      </trkpt>
      <trkpt lat="56.728078024461865" lon="-2.69519099034369">
        <ele>68.390000000000001</ele>
        <time>2023-08-17T18:55:09Z</time>
      </trkpt>
      <trkpt lat="56.728381030261517" lon="-2.693181009963155">
        <ele>67.909999999999997</ele>
        <time>2023-08-17T18:55:16Z</time>
      </trkpt>
      <trkpt lat="56.72843299806118" lon="-2.692873980849981">
        <ele>67.909999999999997</ele>
        <time>2023-08-17T18:55:17Z</time>
      </trkpt>
      <trkpt lat="56.728542968630791" lon="-2.692233016714454">
        <ele>66.950000000000003</ele>
        <time>2023-08-17T18:55:19Z</time>
      </trkpt>
      <trkpt lat="56.728595020249486" lon="-2.691930010914803">
        <ele>66.469999999999999</ele>
        <time>2023-08-17T18:55:20Z</time>
      </trkpt>
      <trkpt lat="56.728695016354322" lon="-2.69134403206408">
        <ele>65.030000000000001</ele>
        <time>2023-08-17T18:55:22Z</time>
      </trkpt>
      <trkpt lat="56.729157026857138" lon="-2.688718987628818">
        <ele>60.219999999999999</ele>
        <time>2023-08-17T18:55:31Z</time>
      </trkpt>
      <trkpt lat="56.72970000654459" lon="-2.68556697294116">
        <ele>55.409999999999997</ele>
        <time>2023-08-17T18:55:42Z</time>
      </trkpt>
      <trkpt lat="56.729942997917533" lon="-2.682941006496549">
        <ele>53.009999999999998</ele>
        <time>2023-08-17T18:55:51Z</time>
      </trkpt>
      <trkpt lat="56.729970993474126" lon="-2.680277992039919">
        <ele>52.530000000000001</ele>
        <time>2023-08-17T18:56:01Z</time>
      </trkpt>
      <trkpt lat="56.730031007900834" lon="-2.67701399512589">
        <ele>52.530000000000001</ele>
        <time>2023-08-17T18:56:11Z</time>
      </trkpt>
      <trkpt lat="56.730070989578962" lon="-2.674028025940061">
        <ele>50.609999999999999</ele>
        <time>2023-08-17T18:56:21Z</time>
      </trkpt>
      <trkpt lat="56.7301070317626" lon="-2.671696012839675">
        <ele>46.759999999999998</ele>
        <time>2023-08-17T18:56:29Z</time>
      </trkpt>
      <trkpt lat="56.730185989290476" lon="-2.668800987303257">
        <ele>42.439999999999998</ele>
        <time>2023-08-17T18:56:39Z</time>
      </trkpt>
      <trkpt lat="56.730210967361927" lon="-2.668586997315288">
        <ele>42.439999999999998</ele>
        <time>2023-08-17T18:56:40Z</time>
      </trkpt>
      <trkpt lat="56.730269975960255" lon="-2.668207967653871">
        <ele>41.950000000000003</ele>
        <time>2023-08-17T18:56:42Z</time>
      </trkpt>
      <trkpt lat="56.730419006198645" lon="-2.667541019618511">
        <ele>41.469999999999999</ele>
        <time>2023-08-17T18:56:46Z</time>
      </trkpt>
      <trkpt lat="56.730456976220012" lon="-2.667381009086967">
        <ele>41.950000000000003</ele>
        <time>2023-08-17T18:56:47Z</time>
      </trkpt>
      <trkpt lat="56.730497963726521" lon="-2.667212029919028">
        <ele>41.950000000000003</ele>
        <time>2023-08-17T18:56:48Z</time>
      </trkpt>
      <trkpt lat="56.730957040563226" lon="-2.665430959314108">
        <ele>43.880000000000003</ele>
        <time>2023-08-17T18:56:58Z</time>
      </trkpt>
      <trkpt lat="56.731245964765549" lon="-2.664415994659066">
        <ele>45.32</ele>
        <time>2023-08-17T18:57:05Z</time>
      </trkpt>
      <trkpt lat="56.731300028041005" lon="-2.664126986637712">
        <ele>45.799999999999997</ele>
        <time>2023-08-17T18:57:07Z</time>
      </trkpt>
      <trkpt lat="56.731412010267377" lon="-2.663218975067139">
        <ele>47.719999999999999</ele>
        <time>2023-08-17T18:57:13Z</time>
      </trkpt>
      <trkpt lat="56.731446040794253" lon="-2.663039015606046">
        <ele>48.200000000000003</ele>
        <time>2023-08-17T18:57:14Z</time>
      </trkpt>
      <trkpt lat="56.731511000543833" lon="-2.662943964824081">
        <ele>48.68</ele>
        <time>2023-08-17T18:57:15Z</time>
      </trkpt>
      <trkpt lat="56.731577971950173" lon="-2.662846986204386">
        <ele>49.159999999999997</ele>
        <time>2023-08-17T18:57:16Z</time>
      </trkpt>
      <trkpt lat="56.731647038832307" lon="-2.662745984271169">
        <ele>49.649999999999999</ele>
        <time>2023-08-17T18:57:17Z</time>
      </trkpt>
      <trkpt lat="56.731717027723789" lon="-2.662644982337952">
        <ele>50.130000000000003</ele>
        <time>2023-08-17T18:57:18Z</time>
      </trkpt>
      <trkpt lat="56.731789028272033" lon="-2.662540962919593">
        <ele>50.609999999999999</ele>
        <time>2023-08-17T18:57:19Z</time>
      </trkpt>
      <trkpt lat="56.73197602853179" lon="-2.662203004583716">
        <ele>52.049999999999997</ele>
        <time>2023-08-17T18:57:22Z</time>
      </trkpt>
      <trkpt lat="56.732012992724776" lon="-2.662080964073539">
        <ele>52.530000000000001</ele>
        <time>2023-08-17T18:57:23Z</time>
      </trkpt>
      <trkpt lat="56.732033025473356" lon="-2.661937968805432">
        <ele>53.009999999999998</ele>
        <time>2023-08-17T18:57:24Z</time>
      </trkpt>
      <trkpt lat="56.732053980231285" lon="-2.661787010729313">
        <ele>53.009999999999998</ele>
        <time>2023-08-17T18:57:25Z</time>
      </trkpt>
      <trkpt lat="56.732075018808246" lon="-2.661635968834162">
        <ele>53.009999999999998</ele>
        <time>2023-08-17T18:57:26Z</time>
      </trkpt>
      <trkpt lat="56.732233017683029" lon="-2.660280028358102">
        <ele>52.049999999999997</ele>
        <time>2023-08-17T18:57:36Z</time>
      </trkpt>
      <trkpt lat="56.732274005189538" lon="-2.660009963437915">
        <ele>51.57</ele>
        <time>2023-08-17T18:57:38Z</time>
      </trkpt>
      <trkpt lat="56.732446001842618" lon="-2.659228015691042">
        <ele>51.090000000000003</ele>
        <time>2023-08-17T18:57:46Z</time>
      </trkpt>
      <trkpt lat="56.732432004064322" lon="-2.659078985452652">
        <ele>51.090000000000003</ele>
        <time>2023-08-17T18:57:51Z</time>
      </trkpt>
      <trkpt lat="56.732045011594892" lon="-2.658711019903421">
        <ele>47.240000000000002</ele>
        <time>2023-08-17T18:58:02Z</time>
      </trkpt>
      <trkpt lat="56.732045011594892" lon="-2.658711019903421">
        <ele>46.759999999999998</ele>
        <time>2023-08-17T18:58:03Z</time>
      </trkpt>
      <trkpt lat="56.731906961649656" lon="-2.658569030463696">
        <ele>46.280000000000001</ele>
        <time>2023-08-17T18:58:05Z</time>
      </trkpt>
      <trkpt lat="56.731855999678373" lon="-2.65851303935051">
        <ele>45.799999999999997</ele>
        <time>2023-08-17T18:58:06Z</time>
      </trkpt>
      <trkpt lat="56.731231966987252" lon="-2.657689014449716">
        <ele>40.030000000000001</ele>
        <time>2023-08-17T18:58:18Z</time>
      </trkpt>
      <trkpt lat="56.731100035831332" lon="-2.657503020018339">
        <ele>38.109999999999999</ele>
        <time>2023-08-17T18:58:21Z</time>
      </trkpt>
      <trkpt lat="56.730657974258065" lon="-2.657017037272453">
        <ele>32.340000000000003</ele>
        <time>2023-08-17T18:58:32Z</time>
      </trkpt>
      <trkpt lat="56.730480026453733" lon="-2.656910000368953">
        <ele>33.780000000000001</ele>
        <time>2023-08-17T18:58:40Z</time>
      </trkpt>
    </trkseg>
  </trk>

</gpx>